﻿<?xml version="1.0" encoding="utf-8"?><gpx creator="Garmin Desktop App" version="1.1" xsi:schemaLocation="http://www.topografix.com/GPX/1/1 http://www.topografix.com/GPX/1/1/gpx.xsd http://www.garmin.com/xmlschemas/WaypointExtension/v1 http://www8.garmin.com/xmlschemas/WaypointExtensionv1.xsd http://www.garmin.com/xmlschemas/TrackPointExtension/v1 http://www.garmin.com/xmlschemas/TrackPointExtensionv1.xsd http://www.garmin.com/xmlschemas/GpxExtensions/v3 http://www8.garmin.com/xmlschemas/GpxExtensionsv3.xsd http://www.garmin.com/xmlschemas/ActivityExtension/v1 http://www8.garmin.com/xmlschemas/ActivityExtensionv1.xsd http://www.garmin.com/xmlschemas/AdventuresExtensions/v1 http://www8.garmin.com/xmlschemas/AdventuresExtensionv1.xsd http://www.garmin.com/xmlschemas/PressureExtension/v1 http://www.garmin.com/xmlschemas/PressureExtensionv1.xsd http://www.garmin.com/xmlschemas/TripExtensions/v1 http://www.garmin.com/xmlschemas/TripExtensionsv1.xsd http://www.garmin.com/xmlschemas/TripMetaDataExtensions/v1 http://www.garmin.com/xmlschemas/TripMetaDataExtensionsv1.xsd http://www.garmin.com/xmlschemas/ViaPointTransportationModeExtensions/v1 http://www.garmin.com/xmlschemas/ViaPointTransportationModeExtensionsv1.xsd http://www.garmin.com/xmlschemas/CreationTimeExtension/v1 http://www.garmin.com/xmlschemas/CreationTimeExtensionsv1.xsd http://www.garmin.com/xmlschemas/AccelerationExtension/v1 http://www.garmin.com/xmlschemas/AccelerationExtensionv1.xsd http://www.garmin.com/xmlschemas/PowerExtension/v1 http://www.garmin.com/xmlschemas/PowerExtensionv1.xsd http://www.garmin.com/xmlschemas/VideoExtension/v1 http://www.garmin.com/xmlschemas/VideoExtensionv1.xsd" xmlns="http://www.topografix.com/GPX/1/1" xmlns:xsi="http://www.w3.org/2001/XMLSchema-instance" xmlns:wptx1="http://www.garmin.com/xmlschemas/WaypointExtension/v1" xmlns:gpxtrx="http://www.garmin.com/xmlschemas/GpxExtensions/v3" xmlns:gpxtpx="http://www.garmin.com/xmlschemas/TrackPointExtension/v1" xmlns:gpxx="http://www.garmin.com/xmlschemas/GpxExtensions/v3" xmlns:trp="http://www.garmin.com/xmlschemas/TripExtensions/v1" xmlns:adv="http://www.garmin.com/xmlschemas/AdventuresExtensions/v1" xmlns:prs="http://www.garmin.com/xmlschemas/PressureExtension/v1" xmlns:tmd="http://www.garmin.com/xmlschemas/TripMetaDataExtensions/v1" xmlns:vptm="http://www.garmin.com/xmlschemas/ViaPointTransportationModeExtensions/v1" xmlns:ctx="http://www.garmin.com/xmlschemas/CreationTimeExtension/v1" xmlns:gpxacc="http://www.garmin.com/xmlschemas/AccelerationExtension/v1" xmlns:gpxpx="http://www.garmin.com/xmlschemas/PowerExtension/v1" xmlns:vidx1="http://www.garmin.com/xmlschemas/VideoExtension/v1">

  <metadata>
    <link href="http://www.garmin.com">
      <text>Garmin International</text>
    </link>
    <time>2026-07-04T19:15:41Z</time>
    <bounds maxlat="54.514041971415281" maxlon="-7.6160569768399" minlat="54.043371034786105" minlon="-9.933824026957154" />
  </metadata>

  <trk>
    <name>Track vom: 2026-07-04 08:56</name>
    <extensions>
      <gpxx:TrackExtension>
        <gpxx:DisplayColor>DarkGray</gpxx:DisplayColor>
      </gpxx:TrackExtension>
    </extensions>
    <trkseg>
      <trkpt lat="54.170832959935069" lon="-9.932724991813302">
        <ele>40.030000000000001</ele>
        <time>2026-07-04T07:56:01Z</time>
      </trkpt>
      <trkpt lat="54.170746961608529" lon="-9.93315096013248">
        <ele>36.670000000000002</ele>
        <time>2026-07-04T07:56:51Z</time>
      </trkpt>
      <trkpt lat="54.170758025720716" lon="-9.933193037286401">
        <ele>44.840000000000003</ele>
        <time>2026-07-04T07:57:44Z</time>
      </trkpt>
      <trkpt lat="54.170758025720716" lon="-9.933203011751175">
        <ele>45.32</ele>
        <time>2026-07-04T07:58:37Z</time>
      </trkpt>
      <trkpt lat="54.170773029327393" lon="-9.93319395929575">
        <ele>44.359999999999999</ele>
        <time>2026-07-04T07:59:00Z</time>
      </trkpt>
      <trkpt lat="54.170775040984154" lon="-9.93319496512413">
        <ele>44.359999999999999</ele>
        <time>2026-07-04T07:59:57Z</time>
      </trkpt>
      <trkpt lat="54.170842012390494" lon="-9.9330860003829">
        <ele>43.880000000000003</ele>
        <time>2026-07-04T08:00:30Z</time>
      </trkpt>
      <trkpt lat="54.170822985470295" lon="-9.933090023696423">
        <ele>43.399999999999999</ele>
        <time>2026-07-04T08:00:39Z</time>
      </trkpt>
      <trkpt lat="54.170804964378476" lon="-9.93319496512413">
        <ele>42.920000000000002</ele>
        <time>2026-07-04T08:00:41Z</time>
      </trkpt>
      <trkpt lat="54.170841006562114" lon="-9.933268977329135">
        <ele>42.439999999999998</ele>
        <time>2026-07-04T08:00:51Z</time>
      </trkpt>
      <trkpt lat="54.170892974361777" lon="-9.933376014232636">
        <ele>42.439999999999998</ele>
        <time>2026-07-04T08:00:53Z</time>
      </trkpt>
      <trkpt lat="54.170932034030557" lon="-9.933454971760511">
        <ele>42.920000000000002</ele>
        <time>2026-07-04T08:00:54Z</time>
      </trkpt>
      <trkpt lat="54.170973021537066" lon="-9.93353895843029">
        <ele>42.920000000000002</ele>
        <time>2026-07-04T08:00:55Z</time>
      </trkpt>
      <trkpt lat="54.171016020700336" lon="-9.933627974241972">
        <ele>42.920000000000002</ele>
        <time>2026-07-04T08:00:56Z</time>
      </trkpt>
      <trkpt lat="54.171085003763437" lon="-9.933676002547145">
        <ele>42.920000000000002</ele>
        <time>2026-07-04T08:00:57Z</time>
      </trkpt>
      <trkpt lat="54.171145018190145" lon="-9.933697041124106">
        <ele>42.920000000000002</ele>
        <time>2026-07-04T08:00:58Z</time>
      </trkpt>
      <trkpt lat="54.171205032616854" lon="-9.933717995882034">
        <ele>43.399999999999999</ele>
        <time>2026-07-04T08:00:59Z</time>
      </trkpt>
      <trkpt lat="54.17126496322453" lon="-9.933739034458995">
        <ele>43.399999999999999</ele>
        <time>2026-07-04T08:01:00Z</time>
      </trkpt>
      <trkpt lat="54.171449029818177" lon="-9.933802988380194">
        <ele>43.880000000000003</ele>
        <time>2026-07-04T08:01:03Z</time>
      </trkpt>
      <trkpt lat="54.171508038416505" lon="-9.933824026957154">
        <ele>44.359999999999999</ele>
        <time>2026-07-04T08:01:04Z</time>
      </trkpt>
      <trkpt lat="54.171566963195801" lon="-9.933812040835619">
        <ele>44.840000000000003</ele>
        <time>2026-07-04T08:01:05Z</time>
      </trkpt>
      <trkpt lat="54.171626977622509" lon="-9.933786978945136">
        <ele>45.32</ele>
        <time>2026-07-04T08:01:06Z</time>
      </trkpt>
      <trkpt lat="54.171685986220837" lon="-9.933763006702066">
        <ele>45.32</ele>
        <time>2026-07-04T08:01:07Z</time>
      </trkpt>
      <trkpt lat="54.171900982037187" lon="-9.933670973405242">
        <ele>46.759999999999998</ele>
        <time>2026-07-04T08:01:11Z</time>
      </trkpt>
      <trkpt lat="54.172334996983409" lon="-9.933357993140817">
        <ele>49.649999999999999</ele>
        <time>2026-07-04T08:01:18Z</time>
      </trkpt>
      <trkpt lat="54.17244496755302" lon="-9.93323695845902">
        <ele>50.130000000000003</ele>
        <time>2026-07-04T08:01:20Z</time>
      </trkpt>
      <trkpt lat="54.172512022778392" lon="-9.933164035901427">
        <ele>50.130000000000003</ele>
        <time>2026-07-04T08:01:21Z</time>
      </trkpt>
      <trkpt lat="54.172537000849843" lon="-9.933066973462701">
        <ele>50.130000000000003</ele>
        <time>2026-07-04T08:01:22Z</time>
      </trkpt>
      <trkpt lat="54.172926004976034" lon="-9.93154096417129">
        <ele>48.200000000000003</ele>
        <time>2026-07-04T08:01:34Z</time>
      </trkpt>
      <trkpt lat="54.17298199608922" lon="-9.93132202886045">
        <ele>48.200000000000003</ele>
        <time>2026-07-04T08:01:36Z</time>
      </trkpt>
      <trkpt lat="54.173008985817432" lon="-9.93121700361371">
        <ele>48.200000000000003</ele>
        <time>2026-07-04T08:01:37Z</time>
      </trkpt>
      <trkpt lat="54.173031030222774" lon="-9.931099992245436">
        <ele>48.200000000000003</ele>
        <time>2026-07-04T08:01:38Z</time>
      </trkpt>
      <trkpt lat="54.1731539927423" lon="-9.92962502874434">
        <ele>44.359999999999999</ele>
        <time>2026-07-04T08:01:47Z</time>
      </trkpt>
      <trkpt lat="54.173348033800721" lon="-9.927315982058644">
        <ele>38.109999999999999</ele>
        <time>2026-07-04T08:02:00Z</time>
      </trkpt>
      <trkpt lat="54.173577027395368" lon="-9.924588007852435">
        <ele>38.109999999999999</ele>
        <time>2026-07-04T08:02:13Z</time>
      </trkpt>
      <trkpt lat="54.173861006274819" lon="-9.92124698124826">
        <ele>40.509999999999998</ele>
        <time>2026-07-04T08:02:26Z</time>
      </trkpt>
      <trkpt lat="54.173919009044766" lon="-9.918973976746202">
        <ele>46.759999999999998</ele>
        <time>2026-07-04T08:02:36Z</time>
      </trkpt>
      <trkpt lat="54.173709964379668" lon="-9.916482958942652">
        <ele>47.719999999999999</ele>
        <time>2026-07-04T08:02:48Z</time>
      </trkpt>
      <trkpt lat="54.17362698353827" lon="-9.915632028132677">
        <ele>45.32</ele>
        <time>2026-07-04T08:02:55Z</time>
      </trkpt>
      <trkpt lat="54.173625977709889" lon="-9.915398005396128">
        <ele>44.359999999999999</ele>
        <time>2026-07-04T08:02:58Z</time>
      </trkpt>
      <trkpt lat="54.173670988529921" lon="-9.915350982919335">
        <ele>43.399999999999999</ele>
        <time>2026-07-04T08:02:59Z</time>
      </trkpt>
      <trkpt lat="54.173728991299868" lon="-9.915289040654898">
        <ele>43.399999999999999</ele>
        <time>2026-07-04T08:03:00Z</time>
      </trkpt>
      <trkpt lat="54.173794034868479" lon="-9.915219973772764">
        <ele>43.399999999999999</ele>
        <time>2026-07-04T08:03:01Z</time>
      </trkpt>
      <trkpt lat="54.173870980739594" lon="-9.915140010416508">
        <ele>42.439999999999998</ele>
        <time>2026-07-04T08:03:02Z</time>
      </trkpt>
      <trkpt lat="54.174638008698821" lon="-9.914311962202191">
        <ele>36.670000000000002</ele>
        <time>2026-07-04T08:03:09Z</time>
      </trkpt>
      <trkpt lat="54.176262002438307" lon="-9.91248001344502">
        <ele>31.859999999999999</ele>
        <time>2026-07-04T08:03:20Z</time>
      </trkpt>
      <trkpt lat="54.177784994244576" lon="-9.910777984187007">
        <ele>32.82</ele>
        <time>2026-07-04T08:03:30Z</time>
      </trkpt>
      <trkpt lat="54.179068012163043" lon="-9.9097940325737">
        <ele>37.149999999999999</ele>
        <time>2026-07-04T08:03:38Z</time>
      </trkpt>
      <trkpt lat="54.180988976731896" lon="-9.908774038776755">
        <ele>34.259999999999998</ele>
        <time>2026-07-04T08:03:49Z</time>
      </trkpt>
      <trkpt lat="54.18357202783227" lon="-9.908006004989147">
        <ele>24.649999999999999</ele>
        <time>2026-07-04T08:04:03Z</time>
      </trkpt>
      <trkpt lat="54.186246022582054" lon="-9.907463025301695">
        <ele>16</ele>
        <time>2026-07-04T08:04:17Z</time>
      </trkpt>
      <trkpt lat="54.188354993239045" lon="-9.907305026426911">
        <ele>13.119999999999999</ele>
        <time>2026-07-04T08:04:28Z</time>
      </trkpt>
      <trkpt lat="54.189939005300403" lon="-9.906673030927777">
        <ele>14.08</ele>
        <time>2026-07-04T08:04:37Z</time>
      </trkpt>
      <trkpt lat="54.19137398712337" lon="-9.905955959111452">
        <ele>25.129999999999999</ele>
        <time>2026-07-04T08:04:47Z</time>
      </trkpt>
      <trkpt lat="54.191827028989792" lon="-9.905733000487089">
        <ele>32.340000000000003</ele>
        <time>2026-07-04T08:04:54Z</time>
      </trkpt>
      <trkpt lat="54.191930964589119" lon="-9.905683966353536">
        <ele>36.189999999999998</ele>
        <time>2026-07-04T08:05:02Z</time>
      </trkpt>
      <trkpt lat="54.19203800149262" lon="-9.905634010210633">
        <ele>38.590000000000003</ele>
        <time>2026-07-04T08:05:07Z</time>
      </trkpt>
      <trkpt lat="54.192043030634522" lon="-9.905625963583589">
        <ele>39.07</ele>
        <time>2026-07-04T08:05:08Z</time>
      </trkpt>
      <trkpt lat="54.192078988999128" lon="-9.905558992177248">
        <ele>39.07</ele>
        <time>2026-07-04T08:05:09Z</time>
      </trkpt>
      <trkpt lat="54.192128023132682" lon="-9.905471988022327">
        <ele>39.07</ele>
        <time>2026-07-04T08:05:10Z</time>
      </trkpt>
      <trkpt lat="54.192182002589107" lon="-9.905372997745872">
        <ele>39.549999999999997</ele>
        <time>2026-07-04T08:05:11Z</time>
      </trkpt>
      <trkpt lat="54.192245034500957" lon="-9.905259003862739">
        <ele>40.030000000000001</ele>
        <time>2026-07-04T08:05:12Z</time>
      </trkpt>
      <trkpt lat="54.1923170350492" lon="-9.905129000544548">
        <ele>40.990000000000002</ele>
        <time>2026-07-04T08:05:13Z</time>
      </trkpt>
      <trkpt lat="54.193009966984391" lon="-9.903965005651116">
        <ele>47.240000000000002</ele>
        <time>2026-07-04T08:05:20Z</time>
      </trkpt>
      <trkpt lat="54.193268967792392" lon="-9.90362998098135">
        <ele>48.68</ele>
        <time>2026-07-04T08:05:22Z</time>
      </trkpt>
      <trkpt lat="54.193411963060498" lon="-9.903444992378354">
        <ele>49.159999999999997</ele>
        <time>2026-07-04T08:05:23Z</time>
      </trkpt>
      <trkpt lat="54.193559987470508" lon="-9.903352959081531">
        <ele>49.649999999999999</ele>
        <time>2026-07-04T08:05:24Z</time>
      </trkpt>
      <trkpt lat="54.195180041715503" lon="-9.902234980836511">
        <ele>47.240000000000002</ele>
        <time>2026-07-04T08:05:34Z</time>
      </trkpt>
      <trkpt lat="54.196891039609909" lon="-9.901272989809513">
        <ele>40.990000000000002</ele>
        <time>2026-07-04T08:05:45Z</time>
      </trkpt>
      <trkpt lat="54.199079973623157" lon="-9.900207985192537">
        <ele>44.359999999999999</ele>
        <time>2026-07-04T08:05:59Z</time>
      </trkpt>
      <trkpt lat="54.201608961448073" lon="-9.899382032454014">
        <ele>52.049999999999997</ele>
        <time>2026-07-04T08:06:14Z</time>
      </trkpt>
      <trkpt lat="54.20355599373579" lon="-9.89838701672852">
        <ele>49.159999999999997</ele>
        <time>2026-07-04T08:06:26Z</time>
      </trkpt>
      <trkpt lat="54.205403029918671" lon="-9.897159989923239">
        <ele>42.439999999999998</ele>
        <time>2026-07-04T08:06:38Z</time>
      </trkpt>
      <trkpt lat="54.207048984244466" lon="-9.896058021113277">
        <ele>37.149999999999999</ele>
        <time>2026-07-04T08:06:50Z</time>
      </trkpt>
      <trkpt lat="54.20871295966208" lon="-9.89539803005755">
        <ele>28.5</ele>
        <time>2026-07-04T08:07:03Z</time>
      </trkpt>
      <trkpt lat="54.208898032084107" lon="-9.895352013409138">
        <ele>27.050000000000001</ele>
        <time>2026-07-04T08:07:06Z</time>
      </trkpt>
      <trkpt lat="54.208983024582267" lon="-9.895330974832177">
        <ele>24.649999999999999</ele>
        <time>2026-07-04T08:07:14Z</time>
      </trkpt>
      <trkpt lat="54.209056030958891" lon="-9.895301973447204">
        <ele>25.129999999999999</ele>
        <time>2026-07-04T08:07:21Z</time>
      </trkpt>
      <trkpt lat="54.209072962403297" lon="-9.895195020362735">
        <ele>25.129999999999999</ele>
        <time>2026-07-04T08:07:22Z</time>
      </trkpt>
      <trkpt lat="54.209095006808639" lon="-9.895061999559403">
        <ele>25.609999999999999</ele>
        <time>2026-07-04T08:07:23Z</time>
      </trkpt>
      <trkpt lat="54.209341015666723" lon="-9.893645960837603">
        <ele>29.460000000000001</ele>
        <time>2026-07-04T08:07:30Z</time>
      </trkpt>
      <trkpt lat="54.209877960383892" lon="-9.891113033518195">
        <ele>31.859999999999999</ele>
        <time>2026-07-04T08:07:39Z</time>
      </trkpt>
      <trkpt lat="54.210605006664991" lon="-9.885980961844325">
        <ele>31.859999999999999</ele>
        <time>2026-07-04T08:07:54Z</time>
      </trkpt>
      <trkpt lat="54.211382009088993" lon="-9.880501041188836">
        <ele>33.299999999999997</ele>
        <time>2026-07-04T08:08:09Z</time>
      </trkpt>
      <trkpt lat="54.212072007358074" lon="-9.875865010544658">
        <ele>28.98</ele>
        <time>2026-07-04T08:08:23Z</time>
      </trkpt>
      <trkpt lat="54.212811039760709" lon="-9.871786963194609">
        <ele>26.09</ele>
        <time>2026-07-04T08:08:36Z</time>
      </trkpt>
      <trkpt lat="54.21376196667552" lon="-9.868723964318633">
        <ele>31.379999999999999</ele>
        <time>2026-07-04T08:08:46Z</time>
      </trkpt>
      <trkpt lat="54.214816996827722" lon="-9.865658031776547">
        <ele>26.09</ele>
        <time>2026-07-04T08:08:56Z</time>
      </trkpt>
      <trkpt lat="54.216234963387251" lon="-9.861660031601787">
        <ele>22.73</ele>
        <time>2026-07-04T08:09:10Z</time>
      </trkpt>
      <trkpt lat="54.217634992673993" lon="-9.857976017519832">
        <ele>19.359999999999999</ele>
        <time>2026-07-04T08:09:23Z</time>
      </trkpt>
      <trkpt lat="54.219215987250209" lon="-9.85522298142314">
        <ele>18.879999999999999</ele>
        <time>2026-07-04T08:09:35Z</time>
      </trkpt>
      <trkpt lat="54.22098197042942" lon="-9.852922987192869">
        <ele>14.56</ele>
        <time>2026-07-04T08:09:47Z</time>
      </trkpt>
      <trkpt lat="54.221813958138227" lon="-9.851909028366208">
        <ele>10.710000000000001</ele>
        <time>2026-07-04T08:09:53Z</time>
      </trkpt>
      <trkpt lat="54.221931975334883" lon="-9.851719010621309">
        <ele>10.710000000000001</ele>
        <time>2026-07-04T08:09:54Z</time>
      </trkpt>
      <trkpt lat="54.22201001085341" lon="-9.851479036733508">
        <ele>10.710000000000001</ele>
        <time>2026-07-04T08:09:55Z</time>
      </trkpt>
      <trkpt lat="54.222083017230034" lon="-9.851224981248379">
        <ele>10.710000000000001</ele>
        <time>2026-07-04T08:09:56Z</time>
      </trkpt>
      <trkpt lat="54.222132973372936" lon="-9.850966986268759">
        <ele>10.710000000000001</ele>
        <time>2026-07-04T08:09:57Z</time>
      </trkpt>
      <trkpt lat="54.222157029435039" lon="-9.85069097019732">
        <ele>11.19</ele>
        <time>2026-07-04T08:09:58Z</time>
      </trkpt>
      <trkpt lat="54.22218200750649" lon="-9.850415037944913">
        <ele>11.19</ele>
        <time>2026-07-04T08:09:59Z</time>
      </trkpt>
      <trkpt lat="54.22220597974956" lon="-9.850145978853107">
        <ele>11.67</ele>
        <time>2026-07-04T08:10:00Z</time>
      </trkpt>
      <trkpt lat="54.222181001678109" lon="-9.849883960559964">
        <ele>11.67</ele>
        <time>2026-07-04T08:10:01Z</time>
      </trkpt>
      <trkpt lat="54.222149988636374" lon="-9.84961599111557">
        <ele>12.15</ele>
        <time>2026-07-04T08:10:02Z</time>
      </trkpt>
      <trkpt lat="54.222120987251401" lon="-9.849355984479189">
        <ele>12.15</ele>
        <time>2026-07-04T08:10:03Z</time>
      </trkpt>
      <trkpt lat="54.222084023058414" lon="-9.849106958135963">
        <ele>11.67</ele>
        <time>2026-07-04T08:10:04Z</time>
      </trkpt>
      <trkpt lat="54.221693007275462" lon="-9.846902014687657">
        <ele>10.23</ele>
        <time>2026-07-04T08:10:13Z</time>
      </trkpt>
      <trkpt lat="54.221676997840405" lon="-9.84665097668767">
        <ele>10.23</ele>
        <time>2026-07-04T08:10:14Z</time>
      </trkpt>
      <trkpt lat="54.22168898396194" lon="-9.846401028335095">
        <ele>9.75</ele>
        <time>2026-07-04T08:10:15Z</time>
      </trkpt>
      <trkpt lat="54.221717985346913" lon="-9.846149990335107">
        <ele>9.27</ele>
        <time>2026-07-04T08:10:16Z</time>
      </trkpt>
      <trkpt lat="54.221745980903506" lon="-9.84590096399188">
        <ele>8.789999999999999</ele>
        <time>2026-07-04T08:10:17Z</time>
      </trkpt>
      <trkpt lat="54.221972040832043" lon="-9.843411035835743">
        <ele>13.119999999999999</ele>
        <time>2026-07-04T08:10:27Z</time>
      </trkpt>
      <trkpt lat="54.221626035869122" lon="-9.840347031131387">
        <ele>22.25</ele>
        <time>2026-07-04T08:10:38Z</time>
      </trkpt>
      <trkpt lat="54.220875017344952" lon="-9.834723025560379">
        <ele>36.189999999999998</ele>
        <time>2026-07-04T08:10:57Z</time>
      </trkpt>
      <trkpt lat="54.220108995214105" lon="-9.830600973218679">
        <ele>40.990000000000002</ele>
        <time>2026-07-04T08:11:11Z</time>
      </trkpt>
      <trkpt lat="54.219473982229829" lon="-9.826937997713685">
        <ele>45.32</ele>
        <time>2026-07-04T08:11:23Z</time>
      </trkpt>
      <trkpt lat="54.219460990279913" lon="-9.825993021950126">
        <ele>46.759999999999998</ele>
        <time>2026-07-04T08:11:26Z</time>
      </trkpt>
      <trkpt lat="54.219495020806789" lon="-9.82567903585732">
        <ele>46.759999999999998</ele>
        <time>2026-07-04T08:11:27Z</time>
      </trkpt>
      <trkpt lat="54.219546988606453" lon="-9.825375024229288">
        <ele>47.240000000000002</ele>
        <time>2026-07-04T08:11:28Z</time>
      </trkpt>
      <trkpt lat="54.219599040225148" lon="-9.825071012601256">
        <ele>47.719999999999999</ele>
        <time>2026-07-04T08:11:29Z</time>
      </trkpt>
      <trkpt lat="54.219693001359701" lon="-9.824791979044676">
        <ele>47.719999999999999</ele>
        <time>2026-07-04T08:11:30Z</time>
      </trkpt>
      <trkpt lat="54.219799032434821" lon="-9.824527027085424">
        <ele>48.200000000000003</ele>
        <time>2026-07-04T08:11:31Z</time>
      </trkpt>
      <trkpt lat="54.219925012439489" lon="-9.824290992692113">
        <ele>47.719999999999999</ele>
        <time>2026-07-04T08:11:32Z</time>
      </trkpt>
      <trkpt lat="54.220059961080551" lon="-9.824064010754228">
        <ele>48.200000000000003</ele>
        <time>2026-07-04T08:11:33Z</time>
      </trkpt>
      <trkpt lat="54.220205973833799" lon="-9.823862006887794">
        <ele>48.200000000000003</ele>
        <time>2026-07-04T08:11:34Z</time>
      </trkpt>
      <trkpt lat="54.220361039042473" lon="-9.823669977486134">
        <ele>48.68</ele>
        <time>2026-07-04T08:11:35Z</time>
      </trkpt>
      <trkpt lat="54.220672007650137" lon="-9.823275022208691">
        <ele>49.159999999999997</ele>
        <time>2026-07-04T08:11:37Z</time>
      </trkpt>
      <trkpt lat="54.220813997089863" lon="-9.823057008907199">
        <ele>49.159999999999997</ele>
        <time>2026-07-04T08:11:38Z</time>
      </trkpt>
      <trkpt lat="54.220949029549956" lon="-9.822816029191017">
        <ele>49.159999999999997</ele>
        <time>2026-07-04T08:11:39Z</time>
      </trkpt>
      <trkpt lat="54.221051037311554" lon="-9.822541018947959">
        <ele>49.159999999999997</ele>
        <time>2026-07-04T08:11:40Z</time>
      </trkpt>
      <trkpt lat="54.22115002758801" lon="-9.822257040068507">
        <ele>49.159999999999997</ele>
        <time>2026-07-04T08:11:41Z</time>
      </trkpt>
      <trkpt lat="54.221232002601027" lon="-9.821952022612095">
        <ele>49.159999999999997</ele>
        <time>2026-07-04T08:11:42Z</time>
      </trkpt>
      <trkpt lat="54.221313977614045" lon="-9.821647005155683">
        <ele>49.159999999999997</ele>
        <time>2026-07-04T08:11:43Z</time>
      </trkpt>
      <trkpt lat="54.22138798981905" lon="-9.821335030719638">
        <ele>49.159999999999997</ele>
        <time>2026-07-04T08:11:44Z</time>
      </trkpt>
      <trkpt lat="54.221445992588997" lon="-9.821009980514646">
        <ele>49.159999999999997</ele>
        <time>2026-07-04T08:11:45Z</time>
      </trkpt>
      <trkpt lat="54.22175201587379" lon="-9.817637018859386">
        <ele>53.009999999999998</ele>
        <time>2026-07-04T08:11:55Z</time>
      </trkpt>
      <trkpt lat="54.221744975075126" lon="-9.814992025494576">
        <ele>57.340000000000003</ele>
        <time>2026-07-04T08:12:03Z</time>
      </trkpt>
      <trkpt lat="54.221124965697527" lon="-9.810332022607327">
        <ele>56.859999999999999</ele>
        <time>2026-07-04T08:12:17Z</time>
      </trkpt>
      <trkpt lat="54.220554996281862" lon="-9.806479029357433">
        <ele>52.530000000000001</ele>
        <time>2026-07-04T08:12:29Z</time>
      </trkpt>
      <trkpt lat="54.220341006293893" lon="-9.804964000359178">
        <ele>53.009999999999998</ele>
        <time>2026-07-04T08:12:34Z</time>
      </trkpt>
      <trkpt lat="54.220341006293893" lon="-9.804655965417624">
        <ele>53.009999999999998</ele>
        <time>2026-07-04T08:12:35Z</time>
      </trkpt>
      <trkpt lat="54.220361039042473" lon="-9.804338961839676">
        <ele>53.009999999999998</ele>
        <time>2026-07-04T08:12:36Z</time>
      </trkpt>
      <trkpt lat="54.220393979921937" lon="-9.804027993232012">
        <ele>52.530000000000001</ele>
        <time>2026-07-04T08:12:37Z</time>
      </trkpt>
      <trkpt lat="54.220428010448813" lon="-9.803715012967587">
        <ele>52.530000000000001</ele>
        <time>2026-07-04T08:12:38Z</time>
      </trkpt>
      <trkpt lat="54.220481989905238" lon="-9.80075997300446">
        <ele>53.490000000000002</ele>
        <time>2026-07-04T08:12:47Z</time>
      </trkpt>
      <trkpt lat="54.220064990222454" lon="-9.79671897366643">
        <ele>60.219999999999999</ele>
        <time>2026-07-04T08:13:00Z</time>
      </trkpt>
      <trkpt lat="54.219963988289237" lon="-9.793907012790442">
        <ele>66.950000000000003</ele>
        <time>2026-07-04T08:13:09Z</time>
      </trkpt>
      <trkpt lat="54.220278980210423" lon="-9.789812033995986">
        <ele>67.909999999999997</ele>
        <time>2026-07-04T08:13:21Z</time>
      </trkpt>
      <trkpt lat="54.220655998215079" lon="-9.787348005920649">
        <ele>63.579999999999998</ele>
        <time>2026-07-04T08:13:28Z</time>
      </trkpt>
      <trkpt lat="54.220827994868159" lon="-9.785190001130104">
        <ele>57.82</ele>
        <time>2026-07-04T08:13:34Z</time>
      </trkpt>
      <trkpt lat="54.220779966562986" lon="-9.784865034744144">
        <ele>56.859999999999999</ele>
        <time>2026-07-04T08:13:35Z</time>
      </trkpt>
      <trkpt lat="54.220732022076845" lon="-9.784539984539151">
        <ele>55.890000000000001</ele>
        <time>2026-07-04T08:13:36Z</time>
      </trkpt>
      <trkpt lat="54.22039900906384" lon="-9.781533982604742">
        <ele>50.609999999999999</ele>
        <time>2026-07-04T08:13:45Z</time>
      </trkpt>
      <trkpt lat="54.22035600990057" lon="-9.781211027875543">
        <ele>49.649999999999999</ele>
        <time>2026-07-04T08:13:46Z</time>
      </trkpt>
      <trkpt lat="54.220278980210423" lon="-9.780900981277227">
        <ele>49.159999999999997</ele>
        <time>2026-07-04T08:13:47Z</time>
      </trkpt>
      <trkpt lat="54.220183007419109" lon="-9.780603004619479">
        <ele>48.200000000000003</ele>
        <time>2026-07-04T08:13:48Z</time>
      </trkpt>
      <trkpt lat="54.220079993829131" lon="-9.780312990769744">
        <ele>47.240000000000002</ele>
        <time>2026-07-04T08:13:49Z</time>
      </trkpt>
      <trkpt lat="54.219970023259521" lon="-9.780034963041544">
        <ele>46.280000000000001</ele>
        <time>2026-07-04T08:13:50Z</time>
      </trkpt>
      <trkpt lat="54.219501977786422" lon="-9.77873501367867">
        <ele>43.399999999999999</ele>
        <time>2026-07-04T08:13:55Z</time>
      </trkpt>
      <trkpt lat="54.219446992501616" lon="-9.778447011485696">
        <ele>42.920000000000002</ele>
        <time>2026-07-04T08:13:56Z</time>
      </trkpt>
      <trkpt lat="54.219392007216811" lon="-9.77815599180758">
        <ele>42.439999999999998</ele>
        <time>2026-07-04T08:13:57Z</time>
      </trkpt>
      <trkpt lat="54.219374991953373" lon="-9.777844017371535">
        <ele>41.950000000000003</ele>
        <time>2026-07-04T08:13:58Z</time>
      </trkpt>
      <trkpt lat="54.219374991953373" lon="-9.777525002136827">
        <ele>41.469999999999999</ele>
        <time>2026-07-04T08:13:59Z</time>
      </trkpt>
      <trkpt lat="54.219391001388431" lon="-9.777201041579247">
        <ele>40.509999999999998</ele>
        <time>2026-07-04T08:14:00Z</time>
      </trkpt>
      <trkpt lat="54.219427965581417" lon="-9.776873979717493">
        <ele>40.030000000000001</ele>
        <time>2026-07-04T08:14:01Z</time>
      </trkpt>
      <trkpt lat="54.219962982460856" lon="-9.774516988545656">
        <ele>36.670000000000002</ele>
        <time>2026-07-04T08:14:08Z</time>
      </trkpt>
      <trkpt lat="54.220624985173345" lon="-9.770831968635321">
        <ele>30.420000000000002</ele>
        <time>2026-07-04T08:14:18Z</time>
      </trkpt>
      <trkpt lat="54.221183974295855" lon="-9.767536036670208">
        <ele>29.460000000000001</ele>
        <time>2026-07-04T08:14:28Z</time>
      </trkpt>
      <trkpt lat="54.221943961456418" lon="-9.764097025617957">
        <ele>27.530000000000001</ele>
        <time>2026-07-04T08:14:39Z</time>
      </trkpt>
      <trkpt lat="54.223292022943497" lon="-9.759823009371758">
        <ele>19.84</ele>
        <time>2026-07-04T08:14:53Z</time>
      </trkpt>
      <trkpt lat="54.22383600845933" lon="-9.75722998380661">
        <ele>18.879999999999999</ele>
        <time>2026-07-04T08:15:01Z</time>
      </trkpt>
      <trkpt lat="54.224669001996517" lon="-9.7549510281533">
        <ele>15.52</ele>
        <time>2026-07-04T08:15:09Z</time>
      </trkpt>
      <trkpt lat="54.225671980530024" lon="-9.753029979765415">
        <ele>14.56</ele>
        <time>2026-07-04T08:15:18Z</time>
      </trkpt>
      <trkpt lat="54.22620196826756" lon="-9.75220100954175">
        <ele>15.52</ele>
        <time>2026-07-04T08:15:25Z</time>
      </trkpt>
      <trkpt lat="54.226317973807454" lon="-9.752146024256945">
        <ele>16</ele>
        <time>2026-07-04T08:15:26Z</time>
      </trkpt>
      <trkpt lat="54.226378994062543" lon="-9.752192962914705">
        <ele>16</ele>
        <time>2026-07-04T08:15:27Z</time>
      </trkpt>
      <trkpt lat="54.226452000439167" lon="-9.752248032018542">
        <ele>16.48</ele>
        <time>2026-07-04T08:15:28Z</time>
      </trkpt>
      <trkpt lat="54.226535987108946" lon="-9.752311985939741">
        <ele>16.960000000000001</ele>
        <time>2026-07-04T08:15:29Z</time>
      </trkpt>
      <trkpt lat="54.22663195990026" lon="-9.752385998144746">
        <ele>16.960000000000001</ele>
        <time>2026-07-04T08:15:30Z</time>
      </trkpt>
      <trkpt lat="54.227721020579338" lon="-9.753215974196792">
        <ele>18.879999999999999</ele>
        <time>2026-07-04T08:15:39Z</time>
      </trkpt>
      <trkpt lat="54.229175029322505" lon="-9.754231022670865">
        <ele>21.289999999999999</ele>
        <time>2026-07-04T08:15:49Z</time>
      </trkpt>
      <trkpt lat="54.23041102476418" lon="-9.754836028441787">
        <ele>23.210000000000001</ele>
        <time>2026-07-04T08:15:56Z</time>
      </trkpt>
      <trkpt lat="54.231879031285644" lon="-9.755426030606031">
        <ele>27.530000000000001</ele>
        <time>2026-07-04T08:16:04Z</time>
      </trkpt>
      <trkpt lat="54.233788009732962" lon="-9.756190963089466">
        <ele>27.050000000000001</ele>
        <time>2026-07-04T08:16:14Z</time>
      </trkpt>
      <trkpt lat="54.235177980735898" lon="-9.757068967446685">
        <ele>26.09</ele>
        <time>2026-07-04T08:16:22Z</time>
      </trkpt>
      <trkpt lat="54.236823013052344" lon="-9.757771035656333">
        <ele>24.649999999999999</ele>
        <time>2026-07-04T08:16:32Z</time>
      </trkpt>
      <trkpt lat="54.238710030913353" lon="-9.758252995088697">
        <ele>26.09</ele>
        <time>2026-07-04T08:16:43Z</time>
      </trkpt>
      <trkpt lat="54.241128964349627" lon="-9.758701007813215">
        <ele>33.780000000000001</ele>
        <time>2026-07-04T08:16:57Z</time>
      </trkpt>
      <trkpt lat="54.242537962272763" lon="-9.758962020277977">
        <ele>39.549999999999997</ele>
        <time>2026-07-04T08:17:05Z</time>
      </trkpt>
      <trkpt lat="54.244518019258976" lon="-9.759353036060929">
        <ele>44.359999999999999</ele>
        <time>2026-07-04T08:17:17Z</time>
      </trkpt>
      <trkpt lat="54.246636964380741" lon="-9.759868020191789">
        <ele>41.950000000000003</ele>
        <time>2026-07-04T08:17:31Z</time>
      </trkpt>
      <trkpt lat="54.247989971190691" lon="-9.760212013497949">
        <ele>37.149999999999999</ele>
        <time>2026-07-04T08:17:39Z</time>
      </trkpt>
      <trkpt lat="54.250706965103745" lon="-9.760974012315273">
        <ele>28.5</ele>
        <time>2026-07-04T08:17:55Z</time>
      </trkpt>
      <trkpt lat="54.252551989629865" lon="-9.761958969756961">
        <ele>19.84</ele>
        <time>2026-07-04T08:18:06Z</time>
      </trkpt>
      <trkpt lat="54.253933997824788" lon="-9.762696996331215">
        <ele>14.08</ele>
        <time>2026-07-04T08:18:15Z</time>
      </trkpt>
      <trkpt lat="54.254827005788684" lon="-9.763174010440707">
        <ele>11.19</ele>
        <time>2026-07-04T08:18:24Z</time>
      </trkpt>
      <trkpt lat="54.254864975810051" lon="-9.763194965198636">
        <ele>11.19</ele>
        <time>2026-07-04T08:18:25Z</time>
      </trkpt>
      <trkpt lat="54.254881991073489" lon="-9.763203011825681">
        <ele>10.710000000000001</ele>
        <time>2026-07-04T08:18:26Z</time>
      </trkpt>
      <trkpt lat="54.254881991073489" lon="-9.763203011825681">
        <ele>10.23</ele>
        <time>2026-07-04T08:18:31Z</time>
      </trkpt>
      <trkpt lat="54.254922978579998" lon="-9.763176022097468">
        <ele>10.23</ele>
        <time>2026-07-04T08:18:32Z</time>
      </trkpt>
      <trkpt lat="54.254913004115224" lon="-9.763152971863747">
        <ele>10.23</ele>
        <time>2026-07-04T08:18:33Z</time>
      </trkpt>
      <trkpt lat="54.254892971366644" lon="-9.763109972700477">
        <ele>10.23</ele>
        <time>2026-07-04T08:18:34Z</time>
      </trkpt>
      <trkpt lat="54.254861958324909" lon="-9.763040989637375">
        <ele>10.23</ele>
        <time>2026-07-04T08:18:35Z</time>
      </trkpt>
      <trkpt lat="54.25481703132391" lon="-9.762941999360919">
        <ele>10.23</ele>
        <time>2026-07-04T08:18:36Z</time>
      </trkpt>
      <trkpt lat="54.254764979705215" lon="-9.762825993821025">
        <ele>10.23</ele>
        <time>2026-07-04T08:18:37Z</time>
      </trkpt>
      <trkpt lat="54.254294000566006" lon="-9.761781021952629">
        <ele>9.75</ele>
        <time>2026-07-04T08:18:43Z</time>
      </trkpt>
      <trkpt lat="54.253222038969398" lon="-9.759405003860593">
        <ele>14.08</ele>
        <time>2026-07-04T08:18:52Z</time>
      </trkpt>
      <trkpt lat="54.251484973356128" lon="-9.755748985335231">
        <ele>18.879999999999999</ele>
        <time>2026-07-04T08:19:05Z</time>
      </trkpt>
      <trkpt lat="54.250196004286408" lon="-9.753106003627181">
        <ele>16.48</ele>
        <time>2026-07-04T08:19:15Z</time>
      </trkpt>
      <trkpt lat="54.249479016289115" lon="-9.75119199603796">
        <ele>15.039999999999999</ele>
        <time>2026-07-04T08:19:22Z</time>
      </trkpt>
      <trkpt lat="54.248601011931896" lon="-9.747674027457833">
        <ele>24.170000000000002</ele>
        <time>2026-07-04T08:19:34Z</time>
      </trkpt>
      <trkpt lat="54.248447958379984" lon="-9.747120989486575">
        <ele>25.129999999999999</ele>
        <time>2026-07-04T08:19:36Z</time>
      </trkpt>
      <trkpt lat="54.247496025636792" lon="-9.743978027254343">
        <ele>27.530000000000001</ele>
        <time>2026-07-04T08:19:47Z</time>
      </trkpt>
      <trkpt lat="54.246348962187767" lon="-9.740356961265206">
        <ele>25.609999999999999</ele>
        <time>2026-07-04T08:19:59Z</time>
      </trkpt>
      <trkpt lat="54.245311031118035" lon="-9.736990034580231">
        <ele>30.420000000000002</ele>
        <time>2026-07-04T08:20:10Z</time>
      </trkpt>
      <trkpt lat="54.244060032069683" lon="-9.733355976641178">
        <ele>37.149999999999999</ele>
        <time>2026-07-04T08:20:22Z</time>
      </trkpt>
      <trkpt lat="54.24300198443234" lon="-9.730746019631624">
        <ele>39.07</ele>
        <time>2026-07-04T08:20:31Z</time>
      </trkpt>
      <trkpt lat="54.241027040407062" lon="-9.727070974186063">
        <ele>34.259999999999998</ele>
        <time>2026-07-04T08:20:45Z</time>
      </trkpt>
      <trkpt lat="54.239732958376408" lon="-9.724733009934425">
        <ele>30.420000000000002</ele>
        <time>2026-07-04T08:20:54Z</time>
      </trkpt>
      <trkpt lat="54.238118017092347" lon="-9.72179900854826">
        <ele>24.649999999999999</ele>
        <time>2026-07-04T08:21:06Z</time>
      </trkpt>
      <trkpt lat="54.238004023209214" lon="-9.721599016338587">
        <ele>24.170000000000002</ele>
        <time>2026-07-04T08:21:07Z</time>
      </trkpt>
      <trkpt lat="54.237272031605244" lon="-9.720307029783726">
        <ele>22.25</ele>
        <time>2026-07-04T08:21:15Z</time>
      </trkpt>
      <trkpt lat="54.236966008320451" lon="-9.719766983762384">
        <ele>20.809999999999999</ele>
        <time>2026-07-04T08:21:22Z</time>
      </trkpt>
      <trkpt lat="54.236842039972544" lon="-9.719547964632511">
        <ele>17.920000000000002</ele>
        <time>2026-07-04T08:21:31Z</time>
      </trkpt>
      <trkpt lat="54.236867018043995" lon="-9.719319976866245">
        <ele>16.960000000000001</ele>
        <time>2026-07-04T08:21:35Z</time>
      </trkpt>
      <trkpt lat="54.236891996115446" lon="-9.719216963276267">
        <ele>16.960000000000001</ele>
        <time>2026-07-04T08:21:36Z</time>
      </trkpt>
      <trkpt lat="54.237061981111765" lon="-9.718522019684315">
        <ele>16.960000000000001</ele>
        <time>2026-07-04T08:21:44Z</time>
      </trkpt>
      <trkpt lat="54.237061981111765" lon="-9.718522019684315">
        <ele>16.960000000000001</ele>
        <time>2026-07-04T08:21:45Z</time>
      </trkpt>
      <trkpt lat="54.237061981111765" lon="-9.718522019684315">
        <ele>17.440000000000001</ele>
        <time>2026-07-04T08:22:02Z</time>
      </trkpt>
      <trkpt lat="54.237104980275035" lon="-9.718347005546093">
        <ele>17.920000000000002</ele>
        <time>2026-07-04T08:22:48Z</time>
      </trkpt>
      <trkpt lat="54.23737496137619" lon="-9.71724595874548">
        <ele>20.809999999999999</ele>
        <time>2026-07-04T08:22:54Z</time>
      </trkpt>
      <trkpt lat="54.237789027392864" lon="-9.715286018326879">
        <ele>22.25</ele>
        <time>2026-07-04T08:23:00Z</time>
      </trkpt>
      <trkpt lat="54.238336030393839" lon="-9.712370960041881">
        <ele>18.879999999999999</ele>
        <time>2026-07-04T08:23:08Z</time>
      </trkpt>
      <trkpt lat="54.239100040867925" lon="-9.708302970975637">
        <ele>18.879999999999999</ele>
        <time>2026-07-04T08:23:21Z</time>
      </trkpt>
      <trkpt lat="54.23986597917974" lon="-9.705071998760104">
        <ele>15.039999999999999</ele>
        <time>2026-07-04T08:23:31Z</time>
      </trkpt>
      <trkpt lat="54.240480037406087" lon="-9.702235981822014">
        <ele>15.039999999999999</ele>
        <time>2026-07-04T08:23:41Z</time>
      </trkpt>
      <trkpt lat="54.241158971562982" lon="-9.697624007239938">
        <ele>10.23</ele>
        <time>2026-07-04T08:23:56Z</time>
      </trkpt>
      <trkpt lat="54.241284029558301" lon="-9.696550033986569">
        <ele>10.23</ele>
        <time>2026-07-04T08:24:00Z</time>
      </trkpt>
      <trkpt lat="54.241284029558301" lon="-9.696295978501439">
        <ele>10.23</ele>
        <time>2026-07-04T08:24:01Z</time>
      </trkpt>
      <trkpt lat="54.241273971274495" lon="-9.696043012663722">
        <ele>10.710000000000001</ele>
        <time>2026-07-04T08:24:02Z</time>
      </trkpt>
      <trkpt lat="54.24124295823276" lon="-9.695793986320496">
        <ele>10.710000000000001</ele>
        <time>2026-07-04T08:24:03Z</time>
      </trkpt>
      <trkpt lat="54.241211023181677" lon="-9.695532973855734">
        <ele>10.710000000000001</ele>
        <time>2026-07-04T08:24:04Z</time>
      </trkpt>
      <trkpt lat="54.240926038473845" lon="-9.69300901517272">
        <ele>12.630000000000001</ele>
        <time>2026-07-04T08:24:12Z</time>
      </trkpt>
      <trkpt lat="54.2407470010221" lon="-9.690950000658631">
        <ele>13.119999999999999</ele>
        <time>2026-07-04T08:24:18Z</time>
      </trkpt>
      <trkpt lat="54.2407470010221" lon="-9.690640037879348">
        <ele>12.630000000000001</ele>
        <time>2026-07-04T08:24:19Z</time>
      </trkpt>
      <trkpt lat="54.240755969658494" lon="-9.690333008766174">
        <ele>12.630000000000001</ele>
        <time>2026-07-04T08:24:20Z</time>
      </trkpt>
      <trkpt lat="54.240844985470176" lon="-9.687876021489501">
        <ele>10.23</ele>
        <time>2026-07-04T08:24:28Z</time>
      </trkpt>
      <trkpt lat="54.24070400185883" lon="-9.684682013466954">
        <ele>11.67</ele>
        <time>2026-07-04T08:24:38Z</time>
      </trkpt>
      <trkpt lat="54.240705007687211" lon="-9.679204020649195">
        <ele>16</ele>
        <time>2026-07-04T08:24:55Z</time>
      </trkpt>
      <trkpt lat="54.240856971591711" lon="-9.676721971482039">
        <ele>15.52</ele>
        <time>2026-07-04T08:25:03Z</time>
      </trkpt>
      <trkpt lat="54.241195013746619" lon="-9.674117965623736">
        <ele>15.039999999999999</ele>
        <time>2026-07-04T08:25:12Z</time>
      </trkpt>
      <trkpt lat="54.241380002349615" lon="-9.672910971567035">
        <ele>15.52</ele>
        <time>2026-07-04T08:25:16Z</time>
      </trkpt>
      <trkpt lat="54.24139098264277" lon="-9.672600002959371">
        <ele>15.52</ele>
        <time>2026-07-04T08:25:17Z</time>
      </trkpt>
      <trkpt lat="54.24139098264277" lon="-9.672275958582759">
        <ele>15.52</ele>
        <time>2026-07-04T08:25:18Z</time>
      </trkpt>
      <trkpt lat="54.241223009303212" lon="-9.669065019115806">
        <ele>16.960000000000001</ele>
        <time>2026-07-04T08:25:28Z</time>
      </trkpt>
      <trkpt lat="54.240781031548977" lon="-9.664423959329724">
        <ele>17.920000000000002</ele>
        <time>2026-07-04T08:25:43Z</time>
      </trkpt>
      <trkpt lat="54.24068396911025" lon="-9.660769030451775">
        <ele>17.920000000000002</ele>
        <time>2026-07-04T08:25:55Z</time>
      </trkpt>
      <trkpt lat="54.240740966051817" lon="-9.656812017783523">
        <ele>17.920000000000002</ele>
        <time>2026-07-04T08:26:08Z</time>
      </trkpt>
      <trkpt lat="54.240771979093552" lon="-9.656513035297394">
        <ele>17.920000000000002</ele>
        <time>2026-07-04T08:26:09Z</time>
      </trkpt>
      <trkpt lat="54.240828976035118" lon="-9.65622796677053">
        <ele>17.920000000000002</ele>
        <time>2026-07-04T08:26:10Z</time>
      </trkpt>
      <trkpt lat="54.24089795909822" lon="-9.655939964577556">
        <ele>17.920000000000002</ele>
        <time>2026-07-04T08:26:11Z</time>
      </trkpt>
      <trkpt lat="54.240997033193707" lon="-9.6556890103966">
        <ele>17.920000000000002</ele>
        <time>2026-07-04T08:26:12Z</time>
      </trkpt>
      <trkpt lat="54.241097029298544" lon="-9.655435038730502">
        <ele>17.920000000000002</ele>
        <time>2026-07-04T08:26:13Z</time>
      </trkpt>
      <trkpt lat="54.241201970726252" lon="-9.655181989073753">
        <ele>17.920000000000002</ele>
        <time>2026-07-04T08:26:14Z</time>
      </trkpt>
      <trkpt lat="54.242355991154909" lon="-9.652498019859195">
        <ele>19.84</ele>
        <time>2026-07-04T08:26:25Z</time>
      </trkpt>
      <trkpt lat="54.243007013574243" lon="-9.649868030101061">
        <ele>27.050000000000001</ele>
        <time>2026-07-04T08:26:36Z</time>
      </trkpt>
      <trkpt lat="54.243592992424965" lon="-9.64709697291255">
        <ele>33.780000000000001</ele>
        <time>2026-07-04T08:26:46Z</time>
      </trkpt>
      <trkpt lat="54.244447024539113" lon="-9.643667014315724">
        <ele>36.670000000000002</ele>
        <time>2026-07-04T08:26:58Z</time>
      </trkpt>
      <trkpt lat="54.245707998052239" lon="-9.6394909825176">
        <ele>39.07</ele>
        <time>2026-07-04T08:27:12Z</time>
      </trkpt>
      <trkpt lat="54.246744001284242" lon="-9.636079967021942">
        <ele>39.549999999999997</ele>
        <time>2026-07-04T08:27:23Z</time>
      </trkpt>
      <trkpt lat="54.248281996697187" lon="-9.631365984678268">
        <ele>45.32</ele>
        <time>2026-07-04T08:27:39Z</time>
      </trkpt>
      <trkpt lat="54.24976903013885" lon="-9.628585036844015">
        <ele>45.799999999999997</ele>
        <time>2026-07-04T08:27:50Z</time>
      </trkpt>
      <trkpt lat="54.251985959708691" lon="-9.624949973076582">
        <ele>45.799999999999997</ele>
        <time>2026-07-04T08:28:05Z</time>
      </trkpt>
      <trkpt lat="54.254355020821095" lon="-9.621064038947225">
        <ele>48.200000000000003</ele>
        <time>2026-07-04T08:28:21Z</time>
      </trkpt>
      <trkpt lat="54.256740007549524" lon="-9.617152959108353">
        <ele>51.57</ele>
        <time>2026-07-04T08:28:38Z</time>
      </trkpt>
      <trkpt lat="54.258829029276967" lon="-9.613961968570948">
        <ele>57.340000000000003</ele>
        <time>2026-07-04T08:28:52Z</time>
      </trkpt>
      <trkpt lat="54.260821994394064" lon="-9.610725967213512">
        <ele>57.82</ele>
        <time>2026-07-04T08:29:06Z</time>
      </trkpt>
      <trkpt lat="54.262680010870099" lon="-9.607330961152911">
        <ele>61.659999999999997</ele>
        <time>2026-07-04T08:29:20Z</time>
      </trkpt>
      <trkpt lat="54.263424994423985" lon="-9.605358028784394">
        <ele>63.579999999999998</ele>
        <time>2026-07-04T08:29:27Z</time>
      </trkpt>
      <trkpt lat="54.265087964013219" lon="-9.600446987897158">
        <ele>63.579999999999998</ele>
        <time>2026-07-04T08:29:44Z</time>
      </trkpt>
      <trkpt lat="54.266608022153378" lon="-9.596152016893029">
        <ele>67.909999999999997</ele>
        <time>2026-07-04T08:29:59Z</time>
      </trkpt>
      <trkpt lat="54.268388003110886" lon="-9.591361004859209">
        <ele>70.790000000000006</ele>
        <time>2026-07-04T08:30:16Z</time>
      </trkpt>
      <trkpt lat="54.268623031675816" lon="-9.590830011293292">
        <ele>71.269999999999996</ele>
        <time>2026-07-04T08:30:18Z</time>
      </trkpt>
      <trkpt lat="54.268771978095174" lon="-9.59059095941484">
        <ele>71.760000000000005</ele>
        <time>2026-07-04T08:30:19Z</time>
      </trkpt>
      <trkpt lat="54.271027967333794" lon="-9.587310031056404">
        <ele>65.510000000000005</ele>
        <time>2026-07-04T08:30:34Z</time>
      </trkpt>
      <trkpt lat="54.273416977375746" lon="-9.58384302444756">
        <ele>63.579999999999998</ele>
        <time>2026-07-04T08:30:50Z</time>
      </trkpt>
      <trkpt lat="54.276551976799965" lon="-9.57926700823009">
        <ele>59.740000000000002</ele>
        <time>2026-07-04T08:31:11Z</time>
      </trkpt>
      <trkpt lat="54.278832022100687" lon="-9.576081968843937">
        <ele>54.450000000000003</ele>
        <time>2026-07-04T08:31:26Z</time>
      </trkpt>
      <trkpt lat="54.280068017542362" lon="-9.574833987280726">
        <ele>53.009999999999998</ele>
        <time>2026-07-04T08:31:34Z</time>
      </trkpt>
      <trkpt lat="54.280445035547018" lon="-9.574520001187921">
        <ele>52.049999999999997</ele>
        <time>2026-07-04T08:31:40Z</time>
      </trkpt>
      <trkpt lat="54.280589036643505" lon="-9.574407013133168">
        <ele>51.090000000000003</ele>
        <time>2026-07-04T08:31:49Z</time>
      </trkpt>
      <trkpt lat="54.280589036643505" lon="-9.574407013133168">
        <ele>51.090000000000003</ele>
        <time>2026-07-04T08:32:31Z</time>
      </trkpt>
      <trkpt lat="54.280589036643505" lon="-9.574407013133168">
        <ele>51.090000000000003</ele>
        <time>2026-07-04T08:33:24Z</time>
      </trkpt>
      <trkpt lat="54.280589036643505" lon="-9.574407013133168">
        <ele>50.609999999999999</ele>
        <time>2026-07-04T08:34:13Z</time>
      </trkpt>
      <trkpt lat="54.280589036643505" lon="-9.574407013133168">
        <ele>50.609999999999999</ele>
        <time>2026-07-04T08:34:46Z</time>
      </trkpt>
      <trkpt lat="54.280789028853178" lon="-9.574248008430004">
        <ele>50.130000000000003</ele>
        <time>2026-07-04T08:35:09Z</time>
      </trkpt>
      <trkpt lat="54.281557984650135" lon="-9.573641996830702">
        <ele>47.240000000000002</ele>
        <time>2026-07-04T08:35:16Z</time>
      </trkpt>
      <trkpt lat="54.283012999221683" lon="-9.572494011372328">
        <ele>43.880000000000003</ele>
        <time>2026-07-04T08:35:25Z</time>
      </trkpt>
      <trkpt lat="54.285401003435254" lon="-9.570513032376766">
        <ele>35.229999999999997</ele>
        <time>2026-07-04T08:35:39Z</time>
      </trkpt>
      <trkpt lat="54.287285003811121" lon="-9.56807398237288">
        <ele>32.340000000000003</ele>
        <time>2026-07-04T08:35:51Z</time>
      </trkpt>
      <trkpt lat="54.289257014170289" lon="-9.565500989556313">
        <ele>34.740000000000002</ele>
        <time>2026-07-04T08:36:03Z</time>
      </trkpt>
      <trkpt lat="54.290765002369881" lon="-9.563512969762087">
        <ele>30.899999999999999</ele>
        <time>2026-07-04T08:36:13Z</time>
      </trkpt>
      <trkpt lat="54.290875978767872" lon="-9.563250029459596">
        <ele>30.899999999999999</ele>
        <time>2026-07-04T08:36:14Z</time>
      </trkpt>
      <trkpt lat="54.290970023721457" lon="-9.563028998672962">
        <ele>30.420000000000002</ele>
        <time>2026-07-04T08:36:15Z</time>
      </trkpt>
      <trkpt lat="54.291041018441319" lon="-9.562771003693342">
        <ele>29.940000000000001</ele>
        <time>2026-07-04T08:36:16Z</time>
      </trkpt>
      <trkpt lat="54.291100027039647" lon="-9.562499010935426">
        <ele>29.460000000000001</ele>
        <time>2026-07-04T08:36:17Z</time>
      </trkpt>
      <trkpt lat="54.291160963475704" lon="-9.562218971550465">
        <ele>29.460000000000001</ele>
        <time>2026-07-04T08:36:18Z</time>
      </trkpt>
      <trkpt lat="54.291424993425608" lon="-9.559618989005685">
        <ele>27.530000000000001</ele>
        <time>2026-07-04T08:36:26Z</time>
      </trkpt>
      <trkpt lat="54.291504034772515" lon="-9.556651040911675">
        <ele>25.129999999999999</ele>
        <time>2026-07-04T08:36:35Z</time>
      </trkpt>
      <trkpt lat="54.291511997580528" lon="-9.555120002478361">
        <ele>25.129999999999999</ele>
        <time>2026-07-04T08:36:40Z</time>
      </trkpt>
      <trkpt lat="54.291551979258657" lon="-9.554824959486723">
        <ele>25.129999999999999</ele>
        <time>2026-07-04T08:36:41Z</time>
      </trkpt>
      <trkpt lat="54.291591960936785" lon="-9.554531006142497">
        <ele>25.129999999999999</ele>
        <time>2026-07-04T08:36:42Z</time>
      </trkpt>
      <trkpt lat="54.291630014777184" lon="-9.554241998121142">
        <ele>25.129999999999999</ele>
        <time>2026-07-04T08:36:43Z</time>
      </trkpt>
      <trkpt lat="54.291706960648298" lon="-9.553975034505129">
        <ele>25.129999999999999</ele>
        <time>2026-07-04T08:36:44Z</time>
      </trkpt>
      <trkpt lat="54.291802011430264" lon="-9.553727013990283">
        <ele>25.129999999999999</ele>
        <time>2026-07-04T08:36:45Z</time>
      </trkpt>
      <trkpt lat="54.291899995878339" lon="-9.553472958505154">
        <ele>24.649999999999999</ele>
        <time>2026-07-04T08:36:46Z</time>
      </trkpt>
      <trkpt lat="54.29201097227633" lon="-9.553227033466101">
        <ele>24.170000000000002</ele>
        <time>2026-07-04T08:36:47Z</time>
      </trkpt>
      <trkpt lat="54.293237999081612" lon="-9.551233984529972">
        <ele>19.359999999999999</ele>
        <time>2026-07-04T08:36:56Z</time>
      </trkpt>
      <trkpt lat="54.294893005862832" lon="-9.548588991165161">
        <ele>19.359999999999999</ele>
        <time>2026-07-04T08:37:09Z</time>
      </trkpt>
      <trkpt lat="54.295025020837784" lon="-9.548438033089042">
        <ele>19.359999999999999</ele>
        <time>2026-07-04T08:37:10Z</time>
      </trkpt>
      <trkpt lat="54.295163992792368" lon="-9.548278022557497">
        <ele>19.84</ele>
        <time>2026-07-04T08:37:11Z</time>
      </trkpt>
      <trkpt lat="54.295291984453797" lon="-9.548195041716099">
        <ele>20.809999999999999</ele>
        <time>2026-07-04T08:37:12Z</time>
      </trkpt>
      <trkpt lat="54.297005999833345" lon="-9.547083014622331">
        <ele>28.98</ele>
        <time>2026-07-04T08:37:24Z</time>
      </trkpt>
      <trkpt lat="54.297143965959549" lon="-9.546992992982268">
        <ele>29.940000000000001</ele>
        <time>2026-07-04T08:37:25Z</time>
      </trkpt>
      <trkpt lat="54.29727497510612" lon="-9.546874975785613">
        <ele>31.379999999999999</ele>
        <time>2026-07-04T08:37:26Z</time>
      </trkpt>
      <trkpt lat="54.297388968989253" lon="-9.546709014102817">
        <ele>33.299999999999997</ele>
        <time>2026-07-04T08:37:27Z</time>
      </trkpt>
      <trkpt lat="54.297487959265709" lon="-9.54652301967144">
        <ele>34.259999999999998</ele>
        <time>2026-07-04T08:37:28Z</time>
      </trkpt>
      <trkpt lat="54.2975730355829" lon="-9.54630802385509">
        <ele>35.710000000000001</ele>
        <time>2026-07-04T08:37:29Z</time>
      </trkpt>
      <trkpt lat="54.297649981454015" lon="-9.546076012775302">
        <ele>36.670000000000002</ele>
        <time>2026-07-04T08:37:30Z</time>
      </trkpt>
      <trkpt lat="54.297731034457684" lon="-9.54583402723074">
        <ele>37.630000000000003</ele>
        <time>2026-07-04T08:37:31Z</time>
      </trkpt>
      <trkpt lat="54.298081984743476" lon="-9.544004006311297">
        <ele>39.07</ele>
        <time>2026-07-04T08:37:38Z</time>
      </trkpt>
      <trkpt lat="54.298081984743476" lon="-9.543754979968071">
        <ele>39.07</ele>
        <time>2026-07-04T08:37:39Z</time>
      </trkpt>
      <trkpt lat="54.298073016107082" lon="-9.543501008301973">
        <ele>38.590000000000003</ele>
        <time>2026-07-04T08:37:40Z</time>
      </trkpt>
      <trkpt lat="54.298042003065348" lon="-9.543247036635876">
        <ele>38.590000000000003</ele>
        <time>2026-07-04T08:37:41Z</time>
      </trkpt>
      <trkpt lat="54.298010990023613" lon="-9.542989041656256">
        <ele>38.590000000000003</ele>
        <time>2026-07-04T08:37:42Z</time>
      </trkpt>
      <trkpt lat="54.297980982810259" lon="-9.542732974514365">
        <ele>38.590000000000003</ele>
        <time>2026-07-04T08:37:43Z</time>
      </trkpt>
      <trkpt lat="54.297876041382551" lon="-9.541694959625602">
        <ele>40.030000000000001</ele>
        <time>2026-07-04T08:37:47Z</time>
      </trkpt>
      <trkpt lat="54.297878975048661" lon="-9.541450962424278">
        <ele>40.509999999999998</ele>
        <time>2026-07-04T08:37:48Z</time>
      </trkpt>
      <trkpt lat="54.29791702888906" lon="-9.541221968829632">
        <ele>40.509999999999998</ele>
        <time>2026-07-04T08:37:49Z</time>
      </trkpt>
      <trkpt lat="54.297970002517104" lon="-9.541007978841662">
        <ele>40.990000000000002</ele>
        <time>2026-07-04T08:37:50Z</time>
      </trkpt>
      <trkpt lat="54.298036973923445" lon="-9.54078602604568">
        <ele>40.990000000000002</ele>
        <time>2026-07-04T08:37:51Z</time>
      </trkpt>
      <trkpt lat="54.298120038583875" lon="-9.54057103022933">
        <ele>41.469999999999999</ele>
        <time>2026-07-04T08:37:52Z</time>
      </trkpt>
      <trkpt lat="54.298225985839963" lon="-9.540380006656051">
        <ele>42.439999999999998</ele>
        <time>2026-07-04T08:37:53Z</time>
      </trkpt>
      <trkpt lat="54.298332016915083" lon="-9.54020700417459">
        <ele>42.920000000000002</ele>
        <time>2026-07-04T08:37:54Z</time>
      </trkpt>
      <trkpt lat="54.298435030505061" lon="-9.540073983371258">
        <ele>42.920000000000002</ele>
        <time>2026-07-04T08:37:55Z</time>
      </trkpt>
      <trkpt lat="54.299274981021881" lon="-9.538990035653114">
        <ele>43.880000000000003</ele>
        <time>2026-07-04T08:38:04Z</time>
      </trkpt>
      <trkpt lat="54.300396982580423" lon="-9.537596041336656">
        <ele>45.799999999999997</ele>
        <time>2026-07-04T08:38:12Z</time>
      </trkpt>
      <trkpt lat="54.301691986620426" lon="-9.536014040932059">
        <ele>46.759999999999998</ele>
        <time>2026-07-04T08:38:21Z</time>
      </trkpt>
      <trkpt lat="54.302647020667791" lon="-9.534402033314109">
        <ele>49.649999999999999</ele>
        <time>2026-07-04T08:38:29Z</time>
      </trkpt>
      <trkpt lat="54.303657962009311" lon="-9.531584959477186">
        <ele>52.530000000000001</ele>
        <time>2026-07-04T08:38:39Z</time>
      </trkpt>
      <trkpt lat="54.304904015734792" lon="-9.527820982038975">
        <ele>53.969999999999999</ele>
        <time>2026-07-04T08:38:52Z</time>
      </trkpt>
      <trkpt lat="54.306393982842565" lon="-9.524250961840153">
        <ele>55.890000000000001</ele>
        <time>2026-07-04T08:39:05Z</time>
      </trkpt>
      <trkpt lat="54.308285024017096" lon="-9.519615015015006">
        <ele>60.219999999999999</ele>
        <time>2026-07-04T08:39:22Z</time>
      </trkpt>
      <trkpt lat="54.308359958231449" lon="-9.519374035298824">
        <ele>60.219999999999999</ele>
        <time>2026-07-04T08:39:23Z</time>
      </trkpt>
      <trkpt lat="54.308378985151649" lon="-9.519068012014031">
        <ele>59.740000000000002</ele>
        <time>2026-07-04T08:39:24Z</time>
      </trkpt>
      <trkpt lat="54.308394994586706" lon="-9.518795013427734">
        <ele>59.740000000000002</ele>
        <time>2026-07-04T08:39:25Z</time>
      </trkpt>
      <trkpt lat="54.308388037607074" lon="-9.518524026498199">
        <ele>59.259999999999998</ele>
        <time>2026-07-04T08:39:26Z</time>
      </trkpt>
      <trkpt lat="54.30835803039372" lon="-9.518245998769999">
        <ele>59.259999999999998</ele>
        <time>2026-07-04T08:39:27Z</time>
      </trkpt>
      <trkpt lat="54.308327017351985" lon="-9.517963025718927">
        <ele>59.259999999999998</ele>
        <time>2026-07-04T08:39:28Z</time>
      </trkpt>
      <trkpt lat="54.30825300514698" lon="-9.517099019140005">
        <ele>60.219999999999999</ele>
        <time>2026-07-04T08:39:31Z</time>
      </trkpt>
      <trkpt lat="54.30825300514698" lon="-9.516805987805128">
        <ele>60.219999999999999</ele>
        <time>2026-07-04T08:39:32Z</time>
      </trkpt>
      <trkpt lat="54.308455009013414" lon="-9.51371599920094">
        <ele>62.140000000000001</ele>
        <time>2026-07-04T08:39:42Z</time>
      </trkpt>
      <trkpt lat="54.309107959270477" lon="-9.509908016771078">
        <ele>63.579999999999998</ele>
        <time>2026-07-04T08:39:54Z</time>
      </trkpt>
      <trkpt lat="54.309884961694479" lon="-9.507298981770873">
        <ele>62.140000000000001</ele>
        <time>2026-07-04T08:40:04Z</time>
      </trkpt>
      <trkpt lat="54.3100980296731" lon="-9.50602300465107">
        <ele>60.700000000000003</ele>
        <time>2026-07-04T08:40:09Z</time>
      </trkpt>
      <trkpt lat="54.3100980296731" lon="-9.505825024098158">
        <ele>60.219999999999999</ele>
        <time>2026-07-04T08:40:10Z</time>
      </trkpt>
      <trkpt lat="54.3100980296731" lon="-9.505645986646414">
        <ele>59.259999999999998</ele>
        <time>2026-07-04T08:40:11Z</time>
      </trkpt>
      <trkpt lat="54.310053018853068" lon="-9.505497962236404">
        <ele>58.299999999999997</ele>
        <time>2026-07-04T08:40:12Z</time>
      </trkpt>
      <trkpt lat="54.310013959184289" lon="-9.505371982231736">
        <ele>57.340000000000003</ele>
        <time>2026-07-04T08:40:13Z</time>
      </trkpt>
      <trkpt lat="54.309964003041387" lon="-9.5052719861269">
        <ele>55.890000000000001</ele>
        <time>2026-07-04T08:40:14Z</time>
      </trkpt>
      <trkpt lat="54.309902982786298" lon="-9.50520996004343">
        <ele>55.409999999999997</ele>
        <time>2026-07-04T08:40:15Z</time>
      </trkpt>
      <trkpt lat="54.309831988066435" lon="-9.505145000293851">
        <ele>54.450000000000003</ele>
        <time>2026-07-04T08:40:16Z</time>
      </trkpt>
      <trkpt lat="54.309754958376288" lon="-9.505112981423736">
        <ele>53.490000000000002</ele>
        <time>2026-07-04T08:40:17Z</time>
      </trkpt>
      <trkpt lat="54.309672983363271" lon="-9.505080040544272">
        <ele>53.490000000000002</ele>
        <time>2026-07-04T08:40:18Z</time>
      </trkpt>
      <trkpt lat="54.309582961723208" lon="-9.505043998360634">
        <ele>53.009999999999998</ele>
        <time>2026-07-04T08:40:19Z</time>
      </trkpt>
      <trkpt lat="54.309217007830739" lon="-9.504894968122244">
        <ele>52.049999999999997</ele>
        <time>2026-07-04T08:40:23Z</time>
      </trkpt>
      <trkpt lat="54.309134026989341" lon="-9.504844006150961">
        <ele>52.049999999999997</ele>
        <time>2026-07-04T08:40:24Z</time>
      </trkpt>
      <trkpt lat="54.309054985642433" lon="-9.504740992560983">
        <ele>52.049999999999997</ele>
        <time>2026-07-04T08:40:25Z</time>
      </trkpt>
      <trkpt lat="54.308087965473533" lon="-9.503580015152693">
        <ele>51.090000000000003</ele>
        <time>2026-07-04T08:40:36Z</time>
      </trkpt>
      <trkpt lat="54.308000039309263" lon="-9.503539027646184">
        <ele>50.609999999999999</ele>
        <time>2026-07-04T08:40:37Z</time>
      </trkpt>
      <trkpt lat="54.307907000184059" lon="-9.503539027646184">
        <ele>49.649999999999999</ele>
        <time>2026-07-04T08:40:38Z</time>
      </trkpt>
      <trkpt lat="54.307811027392745" lon="-9.503539027646184">
        <ele>48.68</ele>
        <time>2026-07-04T08:40:39Z</time>
      </trkpt>
      <trkpt lat="54.30771597661078" lon="-9.503580015152693">
        <ele>47.719999999999999</ele>
        <time>2026-07-04T08:40:40Z</time>
      </trkpt>
      <trkpt lat="54.307611035183072" lon="-9.503645980730653">
        <ele>47.240000000000002</ele>
        <time>2026-07-04T08:40:41Z</time>
      </trkpt>
      <trkpt lat="54.307505004107952" lon="-9.503712030127645">
        <ele>47.240000000000002</ele>
        <time>2026-07-04T08:40:42Z</time>
      </trkpt>
      <trkpt lat="54.307401990517974" lon="-9.503776989877224">
        <ele>47.240000000000002</ele>
        <time>2026-07-04T08:40:43Z</time>
      </trkpt>
      <trkpt lat="54.307227982208133" lon="-9.503886960446835">
        <ele>47.719999999999999</ele>
        <time>2026-07-04T08:40:45Z</time>
      </trkpt>
      <trkpt lat="54.307148018851876" lon="-9.503882015123963">
        <ele>47.719999999999999</ele>
        <time>2026-07-04T08:40:46Z</time>
      </trkpt>
      <trkpt lat="54.307065038010478" lon="-9.503848990425468">
        <ele>47.719999999999999</ele>
        <time>2026-07-04T08:40:47Z</time>
      </trkpt>
      <trkpt lat="54.306974010542035" lon="-9.503813032060862">
        <ele>47.719999999999999</ele>
        <time>2026-07-04T08:40:48Z</time>
      </trkpt>
      <trkpt lat="54.30687996558845" lon="-9.503774978220463">
        <ele>47.240000000000002</ele>
        <time>2026-07-04T08:40:49Z</time>
      </trkpt>
      <trkpt lat="54.306721966713667" lon="-9.503662995994091">
        <ele>46.759999999999998</ele>
        <time>2026-07-04T08:40:51Z</time>
      </trkpt>
      <trkpt lat="54.306585006415844" lon="-9.503475995734334">
        <ele>46.280000000000001</ele>
        <time>2026-07-04T08:40:53Z</time>
      </trkpt>
      <trkpt lat="54.306524991989136" lon="-9.503369964659214">
        <ele>45.799999999999997</ele>
        <time>2026-07-04T08:40:54Z</time>
      </trkpt>
      <trkpt lat="54.306486016139388" lon="-9.503227975219488">
        <ele>45.799999999999997</ele>
        <time>2026-07-04T08:40:55Z</time>
      </trkpt>
      <trkpt lat="54.306443016976118" lon="-9.503073999658227">
        <ele>45.32</ele>
        <time>2026-07-04T08:40:56Z</time>
      </trkpt>
      <trkpt lat="54.306414015591145" lon="-9.502896973863244">
        <ele>44.840000000000003</ele>
        <time>2026-07-04T08:40:57Z</time>
      </trkpt>
      <trkpt lat="54.306392977014184" lon="-9.502712991088629">
        <ele>44.359999999999999</ele>
        <time>2026-07-04T08:40:58Z</time>
      </trkpt>
      <trkpt lat="54.306386020034552" lon="-9.502520961686969">
        <ele>44.359999999999999</ele>
        <time>2026-07-04T08:40:59Z</time>
      </trkpt>
      <trkpt lat="54.306386020034552" lon="-9.501936994493008">
        <ele>44.359999999999999</ele>
        <time>2026-07-04T08:41:02Z</time>
      </trkpt>
      <trkpt lat="54.306434970349073" lon="-9.501767009496689">
        <ele>44.840000000000003</ele>
        <time>2026-07-04T08:41:03Z</time>
      </trkpt>
      <trkpt lat="54.306482998654246" lon="-9.501605993136764">
        <ele>45.32</ele>
        <time>2026-07-04T08:41:04Z</time>
      </trkpt>
      <trkpt lat="54.306547036394477" lon="-9.501484036445618">
        <ele>46.280000000000001</ele>
        <time>2026-07-04T08:41:05Z</time>
      </trkpt>
      <trkpt lat="54.30664099752903" lon="-9.501433996483684">
        <ele>47.240000000000002</ele>
        <time>2026-07-04T08:41:06Z</time>
      </trkpt>
      <trkpt lat="54.306745016947389" lon="-9.501379011198878">
        <ele>48.200000000000003</ele>
        <time>2026-07-04T08:41:07Z</time>
      </trkpt>
      <trkpt lat="54.306860016658902" lon="-9.50131899677217">
        <ele>49.159999999999997</ele>
        <time>2026-07-04T08:41:08Z</time>
      </trkpt>
      <trkpt lat="54.307870035991073" lon="-9.500776017084718">
        <ele>55.890000000000001</ele>
        <time>2026-07-04T08:41:16Z</time>
      </trkpt>
      <trkpt lat="54.307972965762019" lon="-9.500670991837978">
        <ele>56.859999999999999</ele>
        <time>2026-07-04T08:41:17Z</time>
      </trkpt>
      <trkpt lat="54.308058964088559" lon="-9.50052497908473">
        <ele>57.82</ele>
        <time>2026-07-04T08:41:18Z</time>
      </trkpt>
      <trkpt lat="54.308136999607086" lon="-9.500361029058695">
        <ele>58.299999999999997</ele>
        <time>2026-07-04T08:41:19Z</time>
      </trkpt>
      <trkpt lat="54.30821000598371" lon="-9.500172017142177">
        <ele>59.259999999999998</ele>
        <time>2026-07-04T08:41:20Z</time>
      </trkpt>
      <trkpt lat="54.30872499011457" lon="-9.498838959261775">
        <ele>63.579999999999998</ele>
        <time>2026-07-04T08:41:27Z</time>
      </trkpt>
      <trkpt lat="54.308738987892866" lon="-9.498629998415709">
        <ele>64.069999999999993</ele>
        <time>2026-07-04T08:41:28Z</time>
      </trkpt>
      <trkpt lat="54.308752985671163" lon="-9.498436963185668">
        <ele>64.549999999999997</ele>
        <time>2026-07-04T08:41:29Z</time>
      </trkpt>
      <trkpt lat="54.308766983449459" lon="-9.498231019824743">
        <ele>65.030000000000001</ele>
        <time>2026-07-04T08:41:30Z</time>
      </trkpt>
      <trkpt lat="54.308762960135937" lon="-9.498016024008393">
        <ele>65.030000000000001</ele>
        <time>2026-07-04T08:41:31Z</time>
      </trkpt>
      <trkpt lat="54.308692971244454" lon="-9.495401037856937">
        <ele>69.829999999999998</ele>
        <time>2026-07-04T08:41:41Z</time>
      </trkpt>
      <trkpt lat="54.308501025661826" lon="-9.491461040452123">
        <ele>73.680000000000007</ele>
        <time>2026-07-04T08:41:54Z</time>
      </trkpt>
      <trkpt lat="54.308250993490219" lon="-9.487219965085387">
        <ele>72.239999999999995</ele>
        <time>2026-07-04T08:42:08Z</time>
      </trkpt>
      <trkpt lat="54.308010013774037" lon="-9.483062960207462">
        <ele>78.480000000000004</ele>
        <time>2026-07-04T08:42:21Z</time>
      </trkpt>
      <trkpt lat="54.307904988527298" lon="-9.47931800968945">
        <ele>81.370000000000005</ele>
        <time>2026-07-04T08:42:33Z</time>
      </trkpt>
      <trkpt lat="54.308330034837127" lon="-9.475090010091662">
        <ele>74.640000000000001</ele>
        <time>2026-07-04T08:42:46Z</time>
      </trkpt>
      <trkpt lat="54.308840995654464" lon="-9.469998003914952">
        <ele>81.370000000000005</ele>
        <time>2026-07-04T08:43:01Z</time>
      </trkpt>
      <trkpt lat="54.309096978977323" lon="-9.466812964528799">
        <ele>88.579999999999998</ele>
        <time>2026-07-04T08:43:11Z</time>
      </trkpt>
      <trkpt lat="54.309196975082159" lon="-9.464017013087869">
        <ele>97.230000000000004</ele>
        <time>2026-07-04T08:43:22Z</time>
      </trkpt>
      <trkpt lat="54.309163028374314" lon="-9.461215026676655">
        <ele>103.95999999999999</ele>
        <time>2026-07-04T08:43:32Z</time>
      </trkpt>
      <trkpt lat="54.308890029788017" lon="-9.45862895809114">
        <ele>107.31999999999999</ele>
        <time>2026-07-04T08:43:42Z</time>
      </trkpt>
      <trkpt lat="54.308690959587693" lon="-9.457449959591031">
        <ele>108.77</ele>
        <time>2026-07-04T08:43:47Z</time>
      </trkpt>
      <trkpt lat="54.308644020929933" lon="-9.457227000966668">
        <ele>109.25</ele>
        <time>2026-07-04T08:43:48Z</time>
      </trkpt>
      <trkpt lat="54.30857696570456" lon="-9.457024997100234">
        <ele>109.25</ele>
        <time>2026-07-04T08:43:49Z</time>
      </trkpt>
      <trkpt lat="54.308514017611742" lon="-9.456835985183716">
        <ele>109.25</ele>
        <time>2026-07-04T08:43:50Z</time>
      </trkpt>
      <trkpt lat="54.308435982093215" lon="-9.456687960773706">
        <ele>109.25</ele>
        <time>2026-07-04T08:43:51Z</time>
      </trkpt>
      <trkpt lat="54.308365993201733" lon="-9.456558041274548">
        <ele>109.25</ele>
        <time>2026-07-04T08:43:52Z</time>
      </trkpt>
      <trkpt lat="54.308308996260166" lon="-9.456454021856189">
        <ele>109.73</ele>
        <time>2026-07-04T08:43:53Z</time>
      </trkpt>
      <trkpt lat="54.308262979611754" lon="-9.456368023529649">
        <ele>109.73</ele>
        <time>2026-07-04T08:43:54Z</time>
      </trkpt>
      <trkpt lat="54.307647999376059" lon="-9.455581968650222">
        <ele>111.17</ele>
        <time>2026-07-04T08:44:04Z</time>
      </trkpt>
      <trkpt lat="54.306869991123676" lon="-9.45460899733007">
        <ele>111.65000000000001</ele>
        <time>2026-07-04T08:44:11Z</time>
      </trkpt>
      <trkpt lat="54.305541040375829" lon="-9.453219026327133">
        <ele>110.20999999999999</ele>
        <time>2026-07-04T08:44:19Z</time>
      </trkpt>
      <trkpt lat="54.304568991065025" lon="-9.452284025028348">
        <ele>108.77</ele>
        <time>2026-07-04T08:44:25Z</time>
      </trkpt>
      <trkpt lat="54.304437981918454" lon="-9.45207598619163">
        <ele>108.77</ele>
        <time>2026-07-04T08:44:26Z</time>
      </trkpt>
      <trkpt lat="54.303121017292142" lon="-9.449683036655188">
        <ele>104.44</ele>
        <time>2026-07-04T08:44:36Z</time>
      </trkpt>
      <trkpt lat="54.301298959180713" lon="-9.446657001972199">
        <ele>101.08</ele>
        <time>2026-07-04T08:44:49Z</time>
      </trkpt>
      <trkpt lat="54.300460014492273" lon="-9.445292009040713">
        <ele>100.59999999999999</ele>
        <time>2026-07-04T08:44:56Z</time>
      </trkpt>
      <trkpt lat="54.299372965469956" lon="-9.443097040057182">
        <ele>93.390000000000001</ele>
        <time>2026-07-04T08:45:06Z</time>
      </trkpt>
      <trkpt lat="54.297601031139493" lon="-9.438741970807314">
        <ele>82.810000000000002</ele>
        <time>2026-07-04T08:45:24Z</time>
      </trkpt>
      <trkpt lat="54.296584976837039" lon="-9.435737980529666">
        <ele>77.040000000000006</ele>
        <time>2026-07-04T08:45:36Z</time>
      </trkpt>
      <trkpt lat="54.296514987945557" lon="-9.435493983328342">
        <ele>77.040000000000006</ele>
        <time>2026-07-04T08:45:37Z</time>
      </trkpt>
      <trkpt lat="54.296489004045725" lon="-9.435238000005484">
        <ele>76.560000000000002</ele>
        <time>2026-07-04T08:45:38Z</time>
      </trkpt>
      <trkpt lat="54.296376015990973" lon="-9.434137037023902">
        <ele>72.719999999999999</ele>
        <time>2026-07-04T08:45:43Z</time>
      </trkpt>
      <trkpt lat="54.296386996284127" lon="-9.433957999572158">
        <ele>72.239999999999995</ele>
        <time>2026-07-04T08:45:44Z</time>
      </trkpt>
      <trkpt lat="54.296429995447397" lon="-9.433801006525755">
        <ele>72.239999999999995</ele>
        <time>2026-07-04T08:45:45Z</time>
      </trkpt>
      <trkpt lat="54.296516999602318" lon="-9.433610988780856">
        <ele>72.719999999999999</ele>
        <time>2026-07-04T08:45:46Z</time>
      </trkpt>
      <trkpt lat="54.296618001535535" lon="-9.43344603292644">
        <ele>73.680000000000007</ele>
        <time>2026-07-04T08:45:47Z</time>
      </trkpt>
      <trkpt lat="54.29673501290381" lon="-9.43329599685967">
        <ele>74.640000000000001</ele>
        <time>2026-07-04T08:45:48Z</time>
      </trkpt>
      <trkpt lat="54.297888027504086" lon="-9.432039968669415">
        <ele>81.849999999999994</ele>
        <time>2026-07-04T08:45:57Z</time>
      </trkpt>
      <trkpt lat="54.298044014722109" lon="-9.431957993656397">
        <ele>82.810000000000002</ele>
        <time>2026-07-04T08:45:58Z</time>
      </trkpt>
      <trkpt lat="54.298210982233286" lon="-9.431869983673096">
        <ele>83.769999999999996</ele>
        <time>2026-07-04T08:45:59Z</time>
      </trkpt>
      <trkpt lat="54.299534987658262" lon="-9.431779040023685">
        <ele>87.140000000000001</ele>
        <time>2026-07-04T08:46:07Z</time>
      </trkpt>
      <trkpt lat="54.300122978165746" lon="-9.431636966764927">
        <ele>90.019999999999996</ele>
        <time>2026-07-04T08:46:11Z</time>
      </trkpt>
      <trkpt lat="54.300249963998795" lon="-9.43157896399498">
        <ele>90.980000000000004</ele>
        <time>2026-07-04T08:46:12Z</time>
      </trkpt>
      <trkpt lat="54.300347026437521" lon="-9.43144703283906">
        <ele>91.459999999999994</ele>
        <time>2026-07-04T08:46:13Z</time>
      </trkpt>
      <trkpt lat="54.300448028370738" lon="-9.431284004822373">
        <ele>91.939999999999998</ele>
        <time>2026-07-04T08:46:14Z</time>
      </trkpt>
      <trkpt lat="54.300550036132336" lon="-9.431118965148926">
        <ele>92.420000000000002</ele>
        <time>2026-07-04T08:46:15Z</time>
      </trkpt>
      <trkpt lat="54.300618013367057" lon="-9.430908998474479">
        <ele>92.420000000000002</ele>
        <time>2026-07-04T08:46:16Z</time>
      </trkpt>
      <trkpt lat="54.300694037228823" lon="-9.430677993223071">
        <ele>92.420000000000002</ele>
        <time>2026-07-04T08:46:17Z</time>
      </trkpt>
      <trkpt lat="54.301281021907926" lon="-9.429276036098599">
        <ele>93.390000000000001</ele>
        <time>2026-07-04T08:46:23Z</time>
      </trkpt>
      <trkpt lat="54.301408007740974" lon="-9.429081995040178">
        <ele>93.390000000000001</ele>
        <time>2026-07-04T08:46:24Z</time>
      </trkpt>
      <trkpt lat="54.302637968212366" lon="-9.42730100825429">
        <ele>91.939999999999998</ele>
        <time>2026-07-04T08:46:33Z</time>
      </trkpt>
      <trkpt lat="54.30309402756393" lon="-9.426026958972216">
        <ele>90.5</ele>
        <time>2026-07-04T08:46:38Z</time>
      </trkpt>
      <trkpt lat="54.30314096622169" lon="-9.425748009234667">
        <ele>90.019999999999996</ele>
        <time>2026-07-04T08:46:39Z</time>
      </trkpt>
      <trkpt lat="54.303459981456399" lon="-9.424133989959955">
        <ele>85.209999999999994</ele>
        <time>2026-07-04T08:46:45Z</time>
      </trkpt>
      <trkpt lat="54.303511027246714" lon="-9.424016978591681">
        <ele>84.25</ele>
        <time>2026-07-04T08:46:46Z</time>
      </trkpt>
      <trkpt lat="54.303609011694789" lon="-9.423913965001702">
        <ele>83.290000000000006</ele>
        <time>2026-07-04T08:46:47Z</time>
      </trkpt>
      <trkpt lat="54.303708001971245" lon="-9.423810029402375">
        <ele>82.810000000000002</ele>
        <time>2026-07-04T08:46:48Z</time>
      </trkpt>
      <trkpt lat="54.303814033046365" lon="-9.423697041347623">
        <ele>82.329999999999998</ele>
        <time>2026-07-04T08:46:49Z</time>
      </trkpt>
      <trkpt lat="54.304408980533481" lon="-9.423007965087891">
        <ele>78.480000000000004</ele>
        <time>2026-07-04T08:46:54Z</time>
      </trkpt>
      <trkpt lat="54.304492967203259" lon="-9.422831023111939">
        <ele>77.519999999999996</ele>
        <time>2026-07-04T08:46:55Z</time>
      </trkpt>
      <trkpt lat="54.304549964144826" lon="-9.42266296595335">
        <ele>76.560000000000002</ele>
        <time>2026-07-04T08:46:56Z</time>
      </trkpt>
      <trkpt lat="54.304577959701419" lon="-9.4224669970572">
        <ele>75.599999999999994</ele>
        <time>2026-07-04T08:46:57Z</time>
      </trkpt>
      <trkpt lat="54.304563961923122" lon="-9.422273961827159">
        <ele>74.640000000000001</ele>
        <time>2026-07-04T08:46:58Z</time>
      </trkpt>
      <trkpt lat="54.304535966366529" lon="-9.422062989324331">
        <ele>73.680000000000007</ele>
        <time>2026-07-04T08:46:59Z</time>
      </trkpt>
      <trkpt lat="54.304490033537149" lon="-9.421836007386446">
        <ele>73.200000000000003</ele>
        <time>2026-07-04T08:47:00Z</time>
      </trkpt>
      <trkpt lat="54.304027017205954" lon="-9.419723013415933">
        <ele>68.390000000000001</ele>
        <time>2026-07-04T08:47:08Z</time>
      </trkpt>
      <trkpt lat="54.303573975339532" lon="-9.417470041662455">
        <ele>63.100000000000001</ele>
        <time>2026-07-04T08:47:17Z</time>
      </trkpt>
      <trkpt lat="54.303256971761584" lon="-9.414304029196501">
        <ele>56.369999999999997</ele>
        <time>2026-07-04T08:47:28Z</time>
      </trkpt>
      <trkpt lat="54.302929993718863" lon="-9.410868035629392">
        <ele>49.649999999999999</ele>
        <time>2026-07-04T08:47:40Z</time>
      </trkpt>
      <trkpt lat="54.302788004279137" lon="-9.409556016325951">
        <ele>45.32</ele>
        <time>2026-07-04T08:47:45Z</time>
      </trkpt>
      <trkpt lat="54.302719021216035" lon="-9.409334985539317">
        <ele>44.359999999999999</ele>
        <time>2026-07-04T08:47:46Z</time>
      </trkpt>
      <trkpt lat="54.302634028717875" lon="-9.409126024693251">
        <ele>43.880000000000003</ele>
        <time>2026-07-04T08:47:47Z</time>
      </trkpt>
      <trkpt lat="54.302546018734574" lon="-9.40890901722014">
        <ele>43.399999999999999</ele>
        <time>2026-07-04T08:47:48Z</time>
      </trkpt>
      <trkpt lat="54.302459014579654" lon="-9.408696033060551">
        <ele>42.920000000000002</ele>
        <time>2026-07-04T08:47:49Z</time>
      </trkpt>
      <trkpt lat="54.301796006038785" lon="-9.406794011592865">
        <ele>40.509999999999998</ele>
        <time>2026-07-04T08:47:57Z</time>
      </trkpt>
      <trkpt lat="54.300851030275226" lon="-9.4027029722929">
        <ele>35.229999999999997</ele>
        <time>2026-07-04T08:48:12Z</time>
      </trkpt>
      <trkpt lat="54.300258010625839" lon="-9.399159019812942">
        <ele>35.229999999999997</ele>
        <time>2026-07-04T08:48:24Z</time>
      </trkpt>
      <trkpt lat="54.30017402395606" lon="-9.398947963491082">
        <ele>35.229999999999997</ele>
        <time>2026-07-04T08:48:25Z</time>
      </trkpt>
      <trkpt lat="54.300073022022843" lon="-9.398760963231325">
        <ele>34.740000000000002</ele>
        <time>2026-07-04T08:48:26Z</time>
      </trkpt>
      <trkpt lat="54.299952993169427" lon="-9.39857698045671">
        <ele>34.740000000000002</ele>
        <time>2026-07-04T08:48:27Z</time>
      </trkpt>
      <trkpt lat="54.299826007336378" lon="-9.398381011560559">
        <ele>34.259999999999998</ele>
        <time>2026-07-04T08:48:28Z</time>
      </trkpt>
      <trkpt lat="54.299276992678642" lon="-9.397424971684814">
        <ele>32.340000000000003</ele>
        <time>2026-07-04T08:48:33Z</time>
      </trkpt>
      <trkpt lat="54.299199040979147" lon="-9.397224979475141">
        <ele>31.859999999999999</ele>
        <time>2026-07-04T08:48:34Z</time>
      </trkpt>
      <trkpt lat="54.299127962440252" lon="-9.397015012800694">
        <ele>31.379999999999999</ele>
        <time>2026-07-04T08:48:35Z</time>
      </trkpt>
      <trkpt lat="54.299001982435584" lon="-9.396573035046458">
        <ele>29.460000000000001</ele>
        <time>2026-07-04T08:48:37Z</time>
      </trkpt>
      <trkpt lat="54.298916989937425" lon="-9.396368013694882">
        <ele>28.98</ele>
        <time>2026-07-04T08:48:38Z</time>
      </trkpt>
      <trkpt lat="54.297916023060679" lon="-9.394714012742043">
        <ele>22.73</ele>
        <time>2026-07-04T08:48:47Z</time>
      </trkpt>
      <trkpt lat="54.297663979232311" lon="-9.394460041075945">
        <ele>21.289999999999999</ele>
        <time>2026-07-04T08:48:49Z</time>
      </trkpt>
      <trkpt lat="54.297517966479063" lon="-9.394374964758754">
        <ele>20.809999999999999</ele>
        <time>2026-07-04T08:48:50Z</time>
      </trkpt>
      <trkpt lat="54.295947030186653" lon="-9.393469970673323">
        <ele>12.630000000000001</ele>
        <time>2026-07-04T08:49:00Z</time>
      </trkpt>
      <trkpt lat="54.295086041092873" lon="-9.393159002065659">
        <ele>6.87</ele>
        <time>2026-07-04T08:49:07Z</time>
      </trkpt>
      <trkpt lat="54.295014040544629" lon="-9.393095970153809">
        <ele>5.42</ele>
        <time>2026-07-04T08:49:08Z</time>
      </trkpt>
      <trkpt lat="54.294976992532611" lon="-9.392974013462663">
        <ele>4.94</ele>
        <time>2026-07-04T08:49:09Z</time>
      </trkpt>
      <trkpt lat="54.294936005026102" lon="-9.392834035679698">
        <ele>3.98</ele>
        <time>2026-07-04T08:49:10Z</time>
      </trkpt>
      <trkpt lat="54.294886970892549" lon="-9.392671007663012">
        <ele>3.5</ele>
        <time>2026-07-04T08:49:11Z</time>
      </trkpt>
      <trkpt lat="54.294831985607743" lon="-9.392486019060016">
        <ele>3.02</ele>
        <time>2026-07-04T08:49:12Z</time>
      </trkpt>
      <trkpt lat="54.294649008661509" lon="-9.391934992745519">
        <ele>2.54</ele>
        <time>2026-07-04T08:49:15Z</time>
      </trkpt>
      <trkpt lat="54.29458798840642" lon="-9.391790991649032">
        <ele>2.54</ele>
        <time>2026-07-04T08:49:16Z</time>
      </trkpt>
      <trkpt lat="54.29452596232295" lon="-9.391670962795615">
        <ele>2.54</ele>
        <time>2026-07-04T08:49:17Z</time>
      </trkpt>
      <trkpt lat="54.294429989531636" lon="-9.391613965854049">
        <ele>2.54</ele>
        <time>2026-07-04T08:49:18Z</time>
      </trkpt>
      <trkpt lat="54.294323036447167" lon="-9.39155001193285">
        <ele>3.02</ele>
        <time>2026-07-04T08:49:19Z</time>
      </trkpt>
      <trkpt lat="54.294208958745003" lon="-9.391483040526509">
        <ele>3.5</ele>
        <time>2026-07-04T08:49:20Z</time>
      </trkpt>
      <trkpt lat="54.293854990974069" lon="-9.39127198420465">
        <ele>4.94</ele>
        <time>2026-07-04T08:49:23Z</time>
      </trkpt>
      <trkpt lat="54.293739991262555" lon="-9.391166958957911">
        <ele>5.42</ele>
        <time>2026-07-04T08:49:24Z</time>
      </trkpt>
      <trkpt lat="54.293620968237519" lon="-9.391057994216681">
        <ele>5.42</ele>
        <time>2026-07-04T08:49:25Z</time>
      </trkpt>
      <trkpt lat="54.292259998619556" lon="-9.389570038765669">
        <ele>10.23</ele>
        <time>2026-07-04T08:49:36Z</time>
      </trkpt>
      <trkpt lat="54.290573978796601" lon="-9.387362999841571">
        <ele>11.67</ele>
        <time>2026-07-04T08:49:49Z</time>
      </trkpt>
      <trkpt lat="54.288645973429084" lon="-9.384661009535193">
        <ele>12.15</ele>
        <time>2026-07-04T08:50:04Z</time>
      </trkpt>
      <trkpt lat="54.286398030817509" lon="-9.381545037031174">
        <ele>8.310000000000001</ele>
        <time>2026-07-04T08:50:21Z</time>
      </trkpt>
      <trkpt lat="54.2853709962219" lon="-9.380282973870635">
        <ele>6.39</ele>
        <time>2026-07-04T08:50:29Z</time>
      </trkpt>
      <trkpt lat="54.283826965838671" lon="-9.378995010629296">
        <ele>4.94</ele>
        <time>2026-07-04T08:50:39Z</time>
      </trkpt>
      <trkpt lat="54.282311014831066" lon="-9.377818023785949">
        <ele>6.87</ele>
        <time>2026-07-04T08:50:50Z</time>
      </trkpt>
      <trkpt lat="54.282192997634411" lon="-9.37780000269413">
        <ele>7.35</ele>
        <time>2026-07-04T08:50:51Z</time>
      </trkpt>
      <trkpt lat="54.282059976831079" lon="-9.377778964117169">
        <ele>7.83</ele>
        <time>2026-07-04T08:50:52Z</time>
      </trkpt>
      <trkpt lat="54.280800009146333" lon="-9.377311002463102">
        <ele>16.960000000000001</ele>
        <time>2026-07-04T08:51:02Z</time>
      </trkpt>
      <trkpt lat="54.280703030526638" lon="-9.377159960567951">
        <ele>17.920000000000002</ele>
        <time>2026-07-04T08:51:03Z</time>
      </trkpt>
      <trkpt lat="54.280615020543337" lon="-9.377009002491832">
        <ele>18.879999999999999</ele>
        <time>2026-07-04T08:51:04Z</time>
      </trkpt>
      <trkpt lat="54.280529022216797" lon="-9.376860978081822">
        <ele>19.84</ele>
        <time>2026-07-04T08:51:05Z</time>
      </trkpt>
      <trkpt lat="54.280466996133327" lon="-9.376684036105871">
        <ele>21.289999999999999</ele>
        <time>2026-07-04T08:51:06Z</time>
      </trkpt>
      <trkpt lat="54.28043195977807" lon="-9.376493012532592">
        <ele>22.25</ele>
        <time>2026-07-04T08:51:07Z</time>
      </trkpt>
      <trkpt lat="54.280394995585084" lon="-9.3762940261513">
        <ele>23.210000000000001</ele>
        <time>2026-07-04T08:51:08Z</time>
      </trkpt>
      <trkpt lat="54.280361970886588" lon="-9.376111971214414">
        <ele>23.690000000000001</ele>
        <time>2026-07-04T08:51:09Z</time>
      </trkpt>
      <trkpt lat="54.280333975329995" lon="-9.375961013138294">
        <ele>24.649999999999999</ele>
        <time>2026-07-04T08:51:10Z</time>
      </trkpt>
      <trkpt lat="54.280316038057208" lon="-9.37586696818471">
        <ele>25.129999999999999</ele>
        <time>2026-07-04T08:51:11Z</time>
      </trkpt>
      <trkpt lat="54.280307991430163" lon="-9.37582103535533">
        <ele>25.609999999999999</ele>
        <time>2026-07-04T08:51:12Z</time>
      </trkpt>
      <trkpt lat="54.280357025563717" lon="-9.375614002346993">
        <ele>26.09</ele>
        <time>2026-07-04T08:51:13Z</time>
      </trkpt>
      <trkpt lat="54.280393989756703" lon="-9.375606961548328">
        <ele>26.57</ele>
        <time>2026-07-04T08:51:14Z</time>
      </trkpt>
      <trkpt lat="54.280446041375399" lon="-9.375597992911935">
        <ele>27.050000000000001</ele>
        <time>2026-07-04T08:51:15Z</time>
      </trkpt>
      <trkpt lat="54.280511001124978" lon="-9.3755860067904">
        <ele>27.050000000000001</ele>
        <time>2026-07-04T08:51:16Z</time>
      </trkpt>
      <trkpt lat="54.280583001673222" lon="-9.375573014840484">
        <ele>27.050000000000001</ele>
        <time>2026-07-04T08:51:17Z</time>
      </trkpt>
      <trkpt lat="54.28066598251462" lon="-9.375558011233807">
        <ele>27.050000000000001</ele>
        <time>2026-07-04T08:51:18Z</time>
      </trkpt>
      <trkpt lat="54.281512973830104" lon="-9.375403029844165">
        <ele>24.170000000000002</ele>
        <time>2026-07-04T08:51:25Z</time>
      </trkpt>
      <trkpt lat="54.2832659650594" lon="-9.374981001019478">
        <ele>18.879999999999999</ele>
        <time>2026-07-04T08:51:36Z</time>
      </trkpt>
      <trkpt lat="54.284942010417581" lon="-9.374565007165074">
        <ele>17.920000000000002</ele>
        <time>2026-07-04T08:51:48Z</time>
      </trkpt>
      <trkpt lat="54.285052986815572" lon="-9.374546986073256">
        <ele>17.920000000000002</ele>
        <time>2026-07-04T08:51:49Z</time>
      </trkpt>
      <trkpt lat="54.285163963213563" lon="-9.374545980244875">
        <ele>18.399999999999999</ele>
        <time>2026-07-04T08:51:50Z</time>
      </trkpt>
      <trkpt lat="54.286235002800822" lon="-9.374810010194778">
        <ele>18.399999999999999</ele>
        <time>2026-07-04T08:51:59Z</time>
      </trkpt>
      <trkpt lat="54.286505989730358" lon="-9.374884022399783">
        <ele>17.920000000000002</ele>
        <time>2026-07-04T08:52:01Z</time>
      </trkpt>
      <trkpt lat="54.287774004042149" lon="-9.375342009589076">
        <ele>14.08</ele>
        <time>2026-07-04T08:52:11Z</time>
      </trkpt>
      <trkpt lat="54.288598028942943" lon="-9.375557005405426">
        <ele>11.67</ele>
        <time>2026-07-04T08:52:18Z</time>
      </trkpt>
      <trkpt lat="54.289730004966259" lon="-9.375529009848833">
        <ele>6.87</ele>
        <time>2026-07-04T08:52:26Z</time>
      </trkpt>
      <trkpt lat="54.290948985144496" lon="-9.375678962096572">
        <ele>7.83</ele>
        <time>2026-07-04T08:52:35Z</time>
      </trkpt>
      <trkpt lat="54.291887003928423" lon="-9.375892030075193">
        <ele>6.87</ele>
        <time>2026-07-04T08:52:44Z</time>
      </trkpt>
      <trkpt lat="54.293249985203147" lon="-9.376479014754295">
        <ele>7.35</ele>
        <time>2026-07-04T08:52:56Z</time>
      </trkpt>
      <trkpt lat="54.294967018067837" lon="-9.377020988613367">
        <ele>7.83</ele>
        <time>2026-07-04T08:53:10Z</time>
      </trkpt>
      <trkpt lat="54.295429028570652" lon="-9.377131965011358">
        <ele>8.310000000000001</ele>
        <time>2026-07-04T08:53:16Z</time>
      </trkpt>
      <trkpt lat="54.295483008027077" lon="-9.377116961404681">
        <ele>8.310000000000001</ele>
        <time>2026-07-04T08:53:17Z</time>
      </trkpt>
      <trkpt lat="54.295506980270147" lon="-9.377110004425049">
        <ele>8.789999999999999</ele>
        <time>2026-07-04T08:53:18Z</time>
      </trkpt>
      <trkpt lat="54.295564983040094" lon="-9.377013025805354">
        <ele>8.789999999999999</ele>
        <time>2026-07-04T08:53:19Z</time>
      </trkpt>
      <trkpt lat="54.2956199683249" lon="-9.376918980851769">
        <ele>8.789999999999999</ele>
        <time>2026-07-04T08:53:20Z</time>
      </trkpt>
      <trkpt lat="54.295680988579988" lon="-9.376815967261791">
        <ele>9.75</ele>
        <time>2026-07-04T08:53:21Z</time>
      </trkpt>
      <trkpt lat="54.295743014663458" lon="-9.376712031662464">
        <ele>10.710000000000001</ele>
        <time>2026-07-04T08:53:22Z</time>
      </trkpt>
      <trkpt lat="54.296206030994654" lon="-9.375333962962031">
        <ele>17.440000000000001</ele>
        <time>2026-07-04T08:53:31Z</time>
      </trkpt>
      <trkpt lat="54.296597968786955" lon="-9.373592035844922">
        <ele>15.52</ele>
        <time>2026-07-04T08:53:42Z</time>
      </trkpt>
      <trkpt lat="54.29695000872016" lon="-9.371775006875396">
        <ele>13.6</ele>
        <time>2026-07-04T08:53:52Z</time>
      </trkpt>
      <trkpt lat="54.297018991783261" lon="-9.371091965585947">
        <ele>11.67</ele>
        <time>2026-07-04T08:53:56Z</time>
      </trkpt>
      <trkpt lat="54.297025026753545" lon="-9.370928015559912">
        <ele>11.19</ele>
        <time>2026-07-04T08:53:57Z</time>
      </trkpt>
      <trkpt lat="54.296984039247036" lon="-9.370307000353932">
        <ele>9.27</ele>
        <time>2026-07-04T08:54:01Z</time>
      </trkpt>
      <trkpt lat="54.296966018155217" lon="-9.370136009529233">
        <ele>8.789999999999999</ele>
        <time>2026-07-04T08:54:02Z</time>
      </trkpt>
      <trkpt lat="54.296938022598624" lon="-9.37002100981772">
        <ele>8.310000000000001</ele>
        <time>2026-07-04T08:54:03Z</time>
      </trkpt>
      <trkpt lat="54.296869039535522" lon="-9.369736025109887">
        <ele>7.35</ele>
        <time>2026-07-04T08:54:05Z</time>
      </trkpt>
      <trkpt lat="54.296803995966911" lon="-9.369293041527271">
        <ele>4.94</ele>
        <time>2026-07-04T08:54:08Z</time>
      </trkpt>
      <trkpt lat="54.296812964603305" lon="-9.36916496604681">
        <ele>4.94</ele>
        <time>2026-07-04T08:54:09Z</time>
      </trkpt>
      <trkpt lat="54.296828974038363" lon="-9.368919041007757">
        <ele>3.98</ele>
        <time>2026-07-04T08:54:11Z</time>
      </trkpt>
      <trkpt lat="54.296848000958562" lon="-9.36864503659308">
        <ele>3.5</ele>
        <time>2026-07-04T08:54:13Z</time>
      </trkpt>
      <trkpt lat="54.296856969594955" lon="-9.368512015789747">
        <ele>3.5</ele>
        <time>2026-07-04T08:54:14Z</time>
      </trkpt>
      <trkpt lat="54.296848000958562" lon="-9.368380000814796">
        <ele>3.02</ele>
        <time>2026-07-04T08:54:15Z</time>
      </trkpt>
      <trkpt lat="54.296831991523504" lon="-9.368228036910296">
        <ele>3.02</ele>
        <time>2026-07-04T08:54:16Z</time>
      </trkpt>
      <trkpt lat="54.296815982088447" lon="-9.368074983358383">
        <ele>3.02</ele>
        <time>2026-07-04T08:54:17Z</time>
      </trkpt>
      <trkpt lat="54.296590005978942" lon="-9.367078961804509">
        <ele>3.98</ele>
        <time>2026-07-04T08:54:24Z</time>
      </trkpt>
      <trkpt lat="54.296558992937207" lon="-9.366938984021545">
        <ele>4.46</ele>
        <time>2026-07-04T08:54:25Z</time>
      </trkpt>
      <trkpt lat="54.296553041785955" lon="-9.366802023723722">
        <ele>4.94</ele>
        <time>2026-07-04T08:54:26Z</time>
      </trkpt>
      <trkpt lat="54.296496966853738" lon="-9.365392019972205">
        <ele>9.75</ele>
        <time>2026-07-04T08:54:35Z</time>
      </trkpt>
      <trkpt lat="54.296513982117176" lon="-9.365241983905435">
        <ele>9.75</ele>
        <time>2026-07-04T08:54:36Z</time>
      </trkpt>
      <trkpt lat="54.296544995158911" lon="-9.36510200612247">
        <ele>10.23</ele>
        <time>2026-07-04T08:54:37Z</time>
      </trkpt>
      <trkpt lat="54.296910027042031" lon="-9.36344800516963">
        <ele>15.039999999999999</ele>
        <time>2026-07-04T08:54:47Z</time>
      </trkpt>
      <trkpt lat="54.296997031196952" lon="-9.362985994666815">
        <ele>16</ele>
        <time>2026-07-04T08:54:50Z</time>
      </trkpt>
      <trkpt lat="54.297009017318487" lon="-9.362840987741947">
        <ele>16</ele>
        <time>2026-07-04T08:54:51Z</time>
      </trkpt>
      <trkpt lat="54.296980015933514" lon="-9.362661028280854">
        <ele>16</ele>
        <time>2026-07-04T08:54:52Z</time>
      </trkpt>
      <trkpt lat="54.296952020376921" lon="-9.362490037456155">
        <ele>16</ele>
        <time>2026-07-04T08:54:53Z</time>
      </trkpt>
      <trkpt lat="54.296923018991947" lon="-9.362315023317933">
        <ele>16.48</ele>
        <time>2026-07-04T08:54:54Z</time>
      </trkpt>
      <trkpt lat="54.296734007075429" lon="-9.361152034252882">
        <ele>18.399999999999999</ele>
        <time>2026-07-04T08:55:03Z</time>
      </trkpt>
      <trkpt lat="54.29669301956892" lon="-9.360902002081275">
        <ele>19.359999999999999</ele>
        <time>2026-07-04T08:55:06Z</time>
      </trkpt>
      <trkpt lat="54.296616995707154" lon="-9.360434962436557">
        <ele>20.32</ele>
        <time>2026-07-04T08:55:12Z</time>
      </trkpt>
      <trkpt lat="54.296606015414" lon="-9.360367991030216">
        <ele>20.32</ele>
        <time>2026-07-04T08:55:13Z</time>
      </trkpt>
      <trkpt lat="54.296582965180278" lon="-9.360223989933729">
        <ele>20.32</ele>
        <time>2026-07-04T08:55:15Z</time>
      </trkpt>
      <trkpt lat="54.2964350245893" lon="-9.359318995848298">
        <ele>19.84</ele>
        <time>2026-07-04T08:55:24Z</time>
      </trkpt>
      <trkpt lat="54.296417003497481" lon="-9.359207013621926">
        <ele>19.84</ele>
        <time>2026-07-04T08:55:28Z</time>
      </trkpt>
      <trkpt lat="54.296412980183959" lon="-9.359180023893714">
        <ele>19.84</ele>
        <time>2026-07-04T08:55:29Z</time>
      </trkpt>
      <trkpt lat="54.296421026811004" lon="-9.359010960906744">
        <ele>19.84</ele>
        <time>2026-07-04T08:55:30Z</time>
      </trkpt>
      <trkpt lat="54.296437036246061" lon="-9.359006015583873">
        <ele>19.84</ele>
        <time>2026-07-04T08:55:31Z</time>
      </trkpt>
      <trkpt lat="54.296467965468764" lon="-9.358996963128448">
        <ele>20.32</ele>
        <time>2026-07-04T08:55:32Z</time>
      </trkpt>
      <trkpt lat="54.296512976288795" lon="-9.358983971178532">
        <ele>20.809999999999999</ele>
        <time>2026-07-04T08:55:33Z</time>
      </trkpt>
      <trkpt lat="54.296578019857407" lon="-9.358964022248983">
        <ele>20.809999999999999</ele>
        <time>2026-07-04T08:55:34Z</time>
      </trkpt>
      <trkpt lat="54.296745993196964" lon="-9.358913982287049">
        <ele>21.77</ele>
        <time>2026-07-04T08:55:36Z</time>
      </trkpt>
      <trkpt lat="54.297751989215612" lon="-9.358410984277725">
        <ele>22.25</ele>
        <time>2026-07-04T08:55:44Z</time>
      </trkpt>
      <trkpt lat="54.299797005951405" lon="-9.357212958857417">
        <ele>21.77</ele>
        <time>2026-07-04T08:55:58Z</time>
      </trkpt>
      <trkpt lat="54.301181025803089" lon="-9.356375019997358">
        <ele>23.210000000000001</ele>
        <time>2026-07-04T08:56:08Z</time>
      </trkpt>
      <trkpt lat="54.301329972222447" lon="-9.356365967541933">
        <ele>22.73</ele>
        <time>2026-07-04T08:56:09Z</time>
      </trkpt>
      <trkpt lat="54.303336013108492" lon="-9.356243005022407">
        <ele>20.32</ele>
        <time>2026-07-04T08:56:22Z</time>
      </trkpt>
      <trkpt lat="54.303763993084431" lon="-9.356148038059473">
        <ele>18.879999999999999</ele>
        <time>2026-07-04T08:56:25Z</time>
      </trkpt>
      <trkpt lat="54.303886033594608" lon="-9.35607897117734">
        <ele>18.399999999999999</ele>
        <time>2026-07-04T08:56:26Z</time>
      </trkpt>
      <trkpt lat="54.303983012214303" lon="-9.355995990335941">
        <ele>18.399999999999999</ele>
        <time>2026-07-04T08:56:27Z</time>
      </trkpt>
      <trkpt lat="54.30408401414752" lon="-9.355815025046468">
        <ele>17.920000000000002</ele>
        <time>2026-07-04T08:56:28Z</time>
      </trkpt>
      <trkpt lat="54.304176969453692" lon="-9.355646967887878">
        <ele>17.440000000000001</ele>
        <time>2026-07-04T08:56:29Z</time>
      </trkpt>
      <trkpt lat="54.304275959730148" lon="-9.355472037568688">
        <ele>17.440000000000001</ele>
        <time>2026-07-04T08:56:30Z</time>
      </trkpt>
      <trkpt lat="54.305259995162487" lon="-9.353708988055587">
        <ele>14.56</ele>
        <time>2026-07-04T08:56:39Z</time>
      </trkpt>
      <trkpt lat="54.306647032499313" lon="-9.351225011050701">
        <ele>16.960000000000001</ele>
        <time>2026-07-04T08:56:51Z</time>
      </trkpt>
      <trkpt lat="54.307998027652502" lon="-9.348431993275881">
        <ele>18.879999999999999</ele>
        <time>2026-07-04T08:57:04Z</time>
      </trkpt>
      <trkpt lat="54.30827203206718" lon="-9.347846014425159">
        <ele>19.84</ele>
        <time>2026-07-04T08:57:07Z</time>
      </trkpt>
      <trkpt lat="54.308323999866843" lon="-9.347604028880596">
        <ele>19.359999999999999</ele>
        <time>2026-07-04T08:57:08Z</time>
      </trkpt>
      <trkpt lat="54.3083590362221" lon="-9.347358020022512">
        <ele>19.84</ele>
        <time>2026-07-04T08:57:09Z</time>
      </trkpt>
      <trkpt lat="54.308555005118251" lon="-9.344910001382232">
        <ele>19.84</ele>
        <time>2026-07-04T08:57:19Z</time>
      </trkpt>
      <trkpt lat="54.30857696570456" lon="-9.344629039987922">
        <ele>19.84</ele>
        <time>2026-07-04T08:57:21Z</time>
      </trkpt>
      <trkpt lat="54.308584006503224" lon="-9.34454002417624">
        <ele>19.359999999999999</ele>
        <time>2026-07-04T08:57:22Z</time>
      </trkpt>
      <trkpt lat="54.308688025921583" lon="-9.344448996707797">
        <ele>19.359999999999999</ele>
        <time>2026-07-04T08:57:23Z</time>
      </trkpt>
      <trkpt lat="54.308734964579344" lon="-9.344480009749532">
        <ele>19.359999999999999</ele>
        <time>2026-07-04T08:57:24Z</time>
      </trkpt>
      <trkpt lat="54.308791039511561" lon="-9.344516973942518">
        <ele>19.359999999999999</ele>
        <time>2026-07-04T08:57:25Z</time>
      </trkpt>
      <trkpt lat="54.308861028403044" lon="-9.344563996419311">
        <ele>19.359999999999999</ele>
        <time>2026-07-04T08:57:26Z</time>
      </trkpt>
      <trkpt lat="54.308943003416061" lon="-9.344618981704116">
        <ele>19.84</ele>
        <time>2026-07-04T08:57:27Z</time>
      </trkpt>
      <trkpt lat="54.309887979179621" lon="-9.345251983031631">
        <ele>17.440000000000001</ele>
        <time>2026-07-04T08:57:35Z</time>
      </trkpt>
      <trkpt lat="54.311343999579549" lon="-9.346226966008544">
        <ele>15.52</ele>
        <time>2026-07-04T08:57:47Z</time>
      </trkpt>
      <trkpt lat="54.312674039974809" lon="-9.34711704030633">
        <ele>13.6</ele>
        <time>2026-07-04T08:57:57Z</time>
      </trkpt>
      <trkpt lat="54.313249038532376" lon="-9.347502021118999">
        <ele>11.67</ele>
        <time>2026-07-04T08:58:03Z</time>
      </trkpt>
      <trkpt lat="54.313466968014836" lon="-9.347649039700627">
        <ele>11.67</ele>
        <time>2026-07-04T08:58:06Z</time>
      </trkpt>
      <trkpt lat="54.313522959128022" lon="-9.347649039700627">
        <ele>11.19</ele>
        <time>2026-07-04T08:58:07Z</time>
      </trkpt>
      <trkpt lat="54.313618009909987" lon="-9.347606040537357">
        <ele>11.19</ele>
        <time>2026-07-04T08:58:08Z</time>
      </trkpt>
      <trkpt lat="54.313675006851554" lon="-9.347492968663573">
        <ele>11.19</ele>
        <time>2026-07-04T08:58:09Z</time>
      </trkpt>
      <trkpt lat="54.313738038763404" lon="-9.347371011972427">
        <ele>11.67</ele>
        <time>2026-07-04T08:58:10Z</time>
      </trkpt>
      <trkpt lat="54.313804004341364" lon="-9.347242014482617">
        <ele>11.67</ele>
        <time>2026-07-04T08:58:11Z</time>
      </trkpt>
      <trkpt lat="54.313939958810806" lon="-9.346975972875953">
        <ele>12.15</ele>
        <time>2026-07-04T08:58:13Z</time>
      </trkpt>
      <trkpt lat="54.31400902569294" lon="-9.34684001840651">
        <ele>12.630000000000001</ele>
        <time>2026-07-04T08:58:14Z</time>
      </trkpt>
      <trkpt lat="54.31489197537303" lon="-9.345864029601216">
        <ele>11.19</ele>
        <time>2026-07-04T08:58:25Z</time>
      </trkpt>
      <trkpt lat="54.314980991184711" lon="-9.345819018781185">
        <ele>10.710000000000001</ele>
        <time>2026-07-04T08:58:26Z</time>
      </trkpt>
      <trkpt lat="54.315070006996393" lon="-9.345775013789535">
        <ele>10.710000000000001</ele>
        <time>2026-07-04T08:58:27Z</time>
      </trkpt>
      <trkpt lat="54.315154999494553" lon="-9.345717011019588">
        <ele>10.23</ele>
        <time>2026-07-04T08:58:28Z</time>
      </trkpt>
      <trkpt lat="54.315219037234783" lon="-9.34561500325799">
        <ele>9.75</ele>
        <time>2026-07-04T08:58:29Z</time>
      </trkpt>
      <trkpt lat="54.315282991155982" lon="-9.345514001324773">
        <ele>9.75</ele>
        <time>2026-07-04T08:58:30Z</time>
      </trkpt>
      <trkpt lat="54.315349040552974" lon="-9.345408976078033">
        <ele>9.75</ele>
        <time>2026-07-04T08:58:31Z</time>
      </trkpt>
      <trkpt lat="54.315410982817411" lon="-9.345291964709759">
        <ele>10.23</ele>
        <time>2026-07-04T08:58:32Z</time>
      </trkpt>
      <trkpt lat="54.315454987809062" lon="-9.345150981098414">
        <ele>10.710000000000001</ele>
        <time>2026-07-04T08:58:33Z</time>
      </trkpt>
      <trkpt lat="54.315698985010386" lon="-9.344373978674412">
        <ele>12.15</ele>
        <time>2026-07-04T08:58:39Z</time>
      </trkpt>
      <trkpt lat="54.31572899222374" lon="-9.344275994226337">
        <ele>12.15</ele>
        <time>2026-07-04T08:58:40Z</time>
      </trkpt>
      <trkpt lat="54.31579202413559" lon="-9.344208016991615">
        <ele>12.15</ele>
        <time>2026-07-04T08:58:41Z</time>
      </trkpt>
      <trkpt lat="54.315846003592014" lon="-9.344178009778261">
        <ele>12.630000000000001</ele>
        <time>2026-07-04T08:58:42Z</time>
      </trkpt>
      <trkpt lat="54.315914986655116" lon="-9.344163006171584">
        <ele>12.630000000000001</ele>
        <time>2026-07-04T08:58:43Z</time>
      </trkpt>
      <trkpt lat="54.315979024395347" lon="-9.344194019213319">
        <ele>13.119999999999999</ele>
        <time>2026-07-04T08:58:44Z</time>
      </trkpt>
      <trkpt lat="54.316062005236745" lon="-9.344151020050049">
        <ele>13.119999999999999</ele>
        <time>2026-07-04T08:58:45Z</time>
      </trkpt>
      <trkpt lat="54.316123025491834" lon="-9.344054041430354">
        <ele>13.119999999999999</ele>
        <time>2026-07-04T08:58:46Z</time>
      </trkpt>
      <trkpt lat="54.316196031868458" lon="-9.343957984820008">
        <ele>13.119999999999999</ele>
        <time>2026-07-04T08:58:47Z</time>
      </trkpt>
      <trkpt lat="54.316269038245082" lon="-9.343894030898809">
        <ele>13.119999999999999</ele>
        <time>2026-07-04T08:58:48Z</time>
      </trkpt>
      <trkpt lat="54.316335003823042" lon="-9.343836028128862">
        <ele>13.119999999999999</ele>
        <time>2026-07-04T08:58:49Z</time>
      </trkpt>
      <trkpt lat="54.31641697883606" lon="-9.343837033957243">
        <ele>13.119999999999999</ele>
        <time>2026-07-04T08:58:50Z</time>
      </trkpt>
      <trkpt lat="54.316490991041064" lon="-9.343846002593637">
        <ele>13.119999999999999</ele>
        <time>2026-07-04T08:58:51Z</time>
      </trkpt>
      <trkpt lat="54.316536001861095" lon="-9.343851031735539">
        <ele>13.119999999999999</ele>
        <time>2026-07-04T08:58:52Z</time>
      </trkpt>
      <trkpt lat="54.316617976874113" lon="-9.343951027840376">
        <ele>13.119999999999999</ele>
        <time>2026-07-04T08:58:53Z</time>
      </trkpt>
      <trkpt lat="54.316681008785963" lon="-9.344028979539871">
        <ele>13.6</ele>
        <time>2026-07-04T08:58:54Z</time>
      </trkpt>
      <trkpt lat="54.316747980192304" lon="-9.344111038371921">
        <ele>13.6</ele>
        <time>2026-07-04T08:58:55Z</time>
      </trkpt>
      <trkpt lat="54.317094990983605" lon="-9.344533989205957">
        <ele>12.630000000000001</ele>
        <time>2026-07-04T08:59:00Z</time>
      </trkpt>
      <trkpt lat="54.317163974046707" lon="-9.344544969499111">
        <ele>12.630000000000001</ele>
        <time>2026-07-04T08:59:01Z</time>
      </trkpt>
      <trkpt lat="54.317264975979924" lon="-9.344515968114138">
        <ele>12.15</ele>
        <time>2026-07-04T08:59:02Z</time>
      </trkpt>
      <trkpt lat="54.317292971536517" lon="-9.344485038891435">
        <ele>12.630000000000001</ele>
        <time>2026-07-04T08:59:03Z</time>
      </trkpt>
      <trkpt lat="54.317344017326832" lon="-9.344426030293107">
        <ele>12.630000000000001</ele>
        <time>2026-07-04T08:59:04Z</time>
      </trkpt>
      <trkpt lat="54.317393973469734" lon="-9.344369033351541">
        <ele>12.630000000000001</ele>
        <time>2026-07-04T08:59:05Z</time>
      </trkpt>
      <trkpt lat="54.317445019260049" lon="-9.344354029744864">
        <ele>12.630000000000001</ele>
        <time>2026-07-04T08:59:06Z</time>
      </trkpt>
      <trkpt lat="54.317498998716474" lon="-9.344371967017651">
        <ele>12.630000000000001</ele>
        <time>2026-07-04T08:59:07Z</time>
      </trkpt>
      <trkpt lat="54.317544009536505" lon="-9.344386970624328">
        <ele>12.630000000000001</ele>
        <time>2026-07-04T08:59:08Z</time>
      </trkpt>
      <trkpt lat="54.317605029791594" lon="-9.344468023627996">
        <ele>12.630000000000001</ele>
        <time>2026-07-04T08:59:09Z</time>
      </trkpt>
      <trkpt lat="54.317658003419638" lon="-9.344539018347859">
        <ele>13.119999999999999</ele>
        <time>2026-07-04T08:59:10Z</time>
      </trkpt>
      <trkpt lat="54.318260997533798" lon="-9.345342004671693">
        <ele>12.15</ele>
        <time>2026-07-04T08:59:22Z</time>
      </trkpt>
      <trkpt lat="54.318303996697068" lon="-9.34540000744164">
        <ele>12.15</ele>
        <time>2026-07-04T08:59:23Z</time>
      </trkpt>
      <trkpt lat="54.318573977798223" lon="-9.345523975789547">
        <ele>11.67</ele>
        <time>2026-07-04T08:59:33Z</time>
      </trkpt>
      <trkpt lat="54.318595016375184" lon="-9.345517018809915">
        <ele>11.67</ele>
        <time>2026-07-04T08:59:42Z</time>
      </trkpt>
      <trkpt lat="54.318732982501388" lon="-9.345752969384193">
        <ele>18.399999999999999</ele>
        <time>2026-07-04T09:03:19Z</time>
      </trkpt>
      <trkpt lat="54.318745974451303" lon="-9.345457004383206">
        <ele>13.6</ele>
        <time>2026-07-04T09:03:25Z</time>
      </trkpt>
      <trkpt lat="54.318747986108065" lon="-9.345455998554826">
        <ele>12.630000000000001</ele>
        <time>2026-07-04T09:03:26Z</time>
      </trkpt>
      <trkpt lat="54.318748991936445" lon="-9.345455998554826">
        <ele>12.15</ele>
        <time>2026-07-04T09:03:27Z</time>
      </trkpt>
      <trkpt lat="54.318755026906729" lon="-9.345453986898065">
        <ele>12.630000000000001</ele>
        <time>2026-07-04T09:03:28Z</time>
      </trkpt>
      <trkpt lat="54.318776987493038" lon="-9.345445018261671">
        <ele>11.67</ele>
        <time>2026-07-04T09:03:29Z</time>
      </trkpt>
      <trkpt lat="54.318800959736109" lon="-9.345435965806246">
        <ele>11.19</ele>
        <time>2026-07-04T09:03:30Z</time>
      </trkpt>
      <trkpt lat="54.318833984434605" lon="-9.34542297385633">
        <ele>11.19</ele>
        <time>2026-07-04T09:03:31Z</time>
      </trkpt>
      <trkpt lat="54.318877989426255" lon="-9.345405958592892">
        <ele>10.710000000000001</ele>
        <time>2026-07-04T09:03:32Z</time>
      </trkpt>
      <trkpt lat="54.319561030715704" lon="-9.345137989148498">
        <ele>10.710000000000001</ele>
        <time>2026-07-04T09:03:40Z</time>
      </trkpt>
      <trkpt lat="54.320770958438516" lon="-9.344897009432316">
        <ele>9.75</ele>
        <time>2026-07-04T09:03:49Z</time>
      </trkpt>
      <trkpt lat="54.320899033918977" lon="-9.344836995005608">
        <ele>9.75</ele>
        <time>2026-07-04T09:03:50Z</time>
      </trkpt>
      <trkpt lat="54.321012021973729" lon="-9.344739010557532">
        <ele>9.27</ele>
        <time>2026-07-04T09:03:51Z</time>
      </trkpt>
      <trkpt lat="54.321127021685243" lon="-9.344640020281076">
        <ele>9.27</ele>
        <time>2026-07-04T09:03:52Z</time>
      </trkpt>
      <trkpt lat="54.321237998083234" lon="-9.344544969499111">
        <ele>9.27</ele>
        <time>2026-07-04T09:03:53Z</time>
      </trkpt>
      <trkpt lat="54.321341011673212" lon="-9.344434998929501">
        <ele>9.27</ele>
        <time>2026-07-04T09:03:54Z</time>
      </trkpt>
      <trkpt lat="54.321577968075871" lon="-9.344000983983278">
        <ele>10.710000000000001</ele>
        <time>2026-07-04T09:03:59Z</time>
      </trkpt>
      <trkpt lat="54.321653991937637" lon="-9.344039037823677">
        <ele>10.710000000000001</ele>
        <time>2026-07-04T09:04:00Z</time>
      </trkpt>
      <trkpt lat="54.321663966402411" lon="-9.344043983146548">
        <ele>11.19</ele>
        <time>2026-07-04T09:04:01Z</time>
      </trkpt>
      <trkpt lat="54.321711994707584" lon="-9.344105003401637">
        <ele>11.67</ele>
        <time>2026-07-04T09:04:02Z</time>
      </trkpt>
      <trkpt lat="54.321749964728951" lon="-9.34415495954454">
        <ele>11.67</ele>
        <time>2026-07-04T09:04:03Z</time>
      </trkpt>
      <trkpt lat="54.321792963892221" lon="-9.344212040305138">
        <ele>12.15</ele>
        <time>2026-07-04T09:04:04Z</time>
      </trkpt>
      <trkpt lat="54.3224330060184" lon="-9.345042016357184">
        <ele>14.08</ele>
        <time>2026-07-04T09:04:15Z</time>
      </trkpt>
      <trkpt lat="54.3224330060184" lon="-9.345042016357184">
        <ele>14.08</ele>
        <time>2026-07-04T09:04:16Z</time>
      </trkpt>
      <trkpt lat="54.322483967989683" lon="-9.345107981935144">
        <ele>14.08</ele>
        <time>2026-07-04T09:04:17Z</time>
      </trkpt>
      <trkpt lat="54.322569966316223" lon="-9.345218958333135">
        <ele>14.08</ele>
        <time>2026-07-04T09:04:18Z</time>
      </trkpt>
      <trkpt lat="54.322642972692847" lon="-9.345315014943481">
        <ele>14.08</ele>
        <time>2026-07-04T09:04:20Z</time>
      </trkpt>
      <trkpt lat="54.322672979906201" lon="-9.345352984964848">
        <ele>14.56</ele>
        <time>2026-07-04T09:04:21Z</time>
      </trkpt>
      <trkpt lat="54.322672979906201" lon="-9.345352984964848">
        <ele>14.56</ele>
        <time>2026-07-04T09:04:23Z</time>
      </trkpt>
      <trkpt lat="54.322672979906201" lon="-9.345352984964848">
        <ele>14.56</ele>
        <time>2026-07-04T09:04:24Z</time>
      </trkpt>
      <trkpt lat="54.322894010692835" lon="-9.345859000459313">
        <ele>14.08</ele>
        <time>2026-07-04T09:04:30Z</time>
      </trkpt>
      <trkpt lat="54.3228629976511" lon="-9.34597902931273">
        <ele>14.08</ele>
        <time>2026-07-04T09:04:44Z</time>
      </trkpt>
      <trkpt lat="54.322831984609365" lon="-9.346005013212562">
        <ele>10.23</ele>
        <time>2026-07-04T09:05:05Z</time>
      </trkpt>
      <trkpt lat="54.322831984609365" lon="-9.346009036526084">
        <ele>10.710000000000001</ele>
        <time>2026-07-04T09:05:55Z</time>
      </trkpt>
      <trkpt lat="54.322831984609365" lon="-9.346009036526084">
        <ele>11.19</ele>
        <time>2026-07-04T09:06:42Z</time>
      </trkpt>
      <trkpt lat="54.322831984609365" lon="-9.346005013212562">
        <ele>11.19</ele>
        <time>2026-07-04T09:07:22Z</time>
      </trkpt>
      <trkpt lat="54.322838019579649" lon="-9.345999984070659">
        <ele>11.67</ele>
        <time>2026-07-04T09:07:56Z</time>
      </trkpt>
      <trkpt lat="54.322838019579649" lon="-9.345999984070659">
        <ele>11.67</ele>
        <time>2026-07-04T09:08:17Z</time>
      </trkpt>
      <trkpt lat="54.322844976559281" lon="-9.346007024869323">
        <ele>12.15</ele>
        <time>2026-07-04T09:08:35Z</time>
      </trkpt>
      <trkpt lat="54.322846988216043" lon="-9.346013981848955">
        <ele>12.15</ele>
        <time>2026-07-04T09:09:32Z</time>
      </trkpt>
      <trkpt lat="54.322852017357945" lon="-9.346013981848955">
        <ele>11.67</ele>
        <time>2026-07-04T09:10:20Z</time>
      </trkpt>
      <trkpt lat="54.322851011529565" lon="-9.346013981848955">
        <ele>11.67</ele>
        <time>2026-07-04T09:11:16Z</time>
      </trkpt>
      <trkpt lat="54.322850005701184" lon="-9.346007024869323">
        <ele>11.67</ele>
        <time>2026-07-04T09:12:11Z</time>
      </trkpt>
      <trkpt lat="54.322857968509197" lon="-9.346006019040942">
        <ele>12.15</ele>
        <time>2026-07-04T09:12:44Z</time>
      </trkpt>
      <trkpt lat="54.322672979906201" lon="-9.345352984964848">
        <ele>13.6</ele>
        <time>2026-07-04T09:12:51Z</time>
      </trkpt>
      <trkpt lat="54.322522021830082" lon="-9.345158021897078">
        <ele>13.119999999999999</ele>
        <time>2026-07-04T09:12:55Z</time>
      </trkpt>
      <trkpt lat="54.322457984089851" lon="-9.345075041055679">
        <ele>13.119999999999999</ele>
        <time>2026-07-04T09:12:56Z</time>
      </trkpt>
      <trkpt lat="54.321710988879204" lon="-9.344105003401637">
        <ele>12.630000000000001</ele>
        <time>2026-07-04T09:13:08Z</time>
      </trkpt>
      <trkpt lat="54.321663966402411" lon="-9.344043983146548">
        <ele>12.630000000000001</ele>
        <time>2026-07-04T09:13:09Z</time>
      </trkpt>
      <trkpt lat="54.321619961410761" lon="-9.344022022560239">
        <ele>12.15</ele>
        <time>2026-07-04T09:13:10Z</time>
      </trkpt>
      <trkpt lat="54.321533041074872" lon="-9.344083964824677">
        <ele>11.67</ele>
        <time>2026-07-04T09:13:11Z</time>
      </trkpt>
      <trkpt lat="54.32148702442646" lon="-9.344168035313487">
        <ele>11.67</ele>
        <time>2026-07-04T09:13:12Z</time>
      </trkpt>
      <trkpt lat="54.321437990292907" lon="-9.344257973134518">
        <ele>11.19</ele>
        <time>2026-07-04T09:13:13Z</time>
      </trkpt>
      <trkpt lat="54.320686971768737" lon="-9.344913018867374">
        <ele>8.789999999999999</ele>
        <time>2026-07-04T09:13:22Z</time>
      </trkpt>
      <trkpt lat="54.32058596983552" lon="-9.344932967796922">
        <ele>8.789999999999999</ele>
        <time>2026-07-04T09:13:23Z</time>
      </trkpt>
      <trkpt lat="54.319142019376159" lon="-9.345302022993565">
        <ele>12.15</ele>
        <time>2026-07-04T09:13:38Z</time>
      </trkpt>
      <trkpt lat="54.318483034148812" lon="-9.345514001324773">
        <ele>11.19</ele>
        <time>2026-07-04T09:13:45Z</time>
      </trkpt>
      <trkpt lat="54.318411033600569" lon="-9.34550603851676">
        <ele>11.67</ele>
        <time>2026-07-04T09:13:46Z</time>
      </trkpt>
      <trkpt lat="54.318411033600569" lon="-9.34550603851676">
        <ele>12.15</ele>
        <time>2026-07-04T09:13:47Z</time>
      </trkpt>
      <trkpt lat="54.318335009738803" lon="-9.345440994948149">
        <ele>12.630000000000001</ele>
        <time>2026-07-04T09:13:48Z</time>
      </trkpt>
      <trkpt lat="54.318187991157174" lon="-9.345246031880379">
        <ele>13.119999999999999</ele>
        <time>2026-07-04T09:13:49Z</time>
      </trkpt>
      <trkpt lat="54.318108027800918" lon="-9.345138994976878">
        <ele>13.6</ele>
        <time>2026-07-04T09:13:50Z</time>
      </trkpt>
      <trkpt lat="54.317697985097766" lon="-9.344591991975904">
        <ele>15.039999999999999</ele>
        <time>2026-07-04T09:13:57Z</time>
      </trkpt>
      <trkpt lat="54.317682981491089" lon="-9.344572965055704">
        <ele>15.52</ele>
        <time>2026-07-04T09:13:58Z</time>
      </trkpt>
      <trkpt lat="54.317544009536505" lon="-9.344386970624328">
        <ele>16</ele>
        <time>2026-07-04T09:14:02Z</time>
      </trkpt>
      <trkpt lat="54.317503022029996" lon="-9.344373978674412">
        <ele>16</ele>
        <time>2026-07-04T09:14:03Z</time>
      </trkpt>
      <trkpt lat="54.317464968189597" lon="-9.344360986724496">
        <ele>16</ele>
        <time>2026-07-04T09:14:04Z</time>
      </trkpt>
      <trkpt lat="54.317428003996611" lon="-9.344349000602961">
        <ele>16</ele>
        <time>2026-07-04T09:14:05Z</time>
      </trkpt>
      <trkpt lat="54.317392967641354" lon="-9.344370039179921">
        <ele>15.52</ele>
        <time>2026-07-04T09:14:06Z</time>
      </trkpt>
      <trkpt lat="54.317353991791606" lon="-9.344414966180921">
        <ele>15.52</ele>
        <time>2026-07-04T09:14:07Z</time>
      </trkpt>
      <trkpt lat="54.317303029820323" lon="-9.344472968950868">
        <ele>15.039999999999999</ele>
        <time>2026-07-04T09:14:08Z</time>
      </trkpt>
      <trkpt lat="54.317238992080092" lon="-9.344523008912802">
        <ele>15.039999999999999</ele>
        <time>2026-07-04T09:14:09Z</time>
      </trkpt>
      <trkpt lat="54.317171014845371" lon="-9.344543041661382">
        <ele>15.039999999999999</ele>
        <time>2026-07-04T09:14:10Z</time>
      </trkpt>
      <trkpt lat="54.317107982933521" lon="-9.344549998641014">
        <ele>14.56</ele>
        <time>2026-07-04T09:14:11Z</time>
      </trkpt>
      <trkpt lat="54.317054003477097" lon="-9.344484033063054">
        <ele>14.56</ele>
        <time>2026-07-04T09:14:12Z</time>
      </trkpt>
      <trkpt lat="54.316985020413995" lon="-9.344399962574244">
        <ele>14.08</ele>
        <time>2026-07-04T09:14:13Z</time>
      </trkpt>
      <trkpt lat="54.316906984895468" lon="-9.34430499561131">
        <ele>14.08</ele>
        <time>2026-07-04T09:14:14Z</time>
      </trkpt>
      <trkpt lat="54.316572966054082" lon="-9.343895958736539">
        <ele>14.08</ele>
        <time>2026-07-04T09:14:19Z</time>
      </trkpt>
      <trkpt lat="54.316499959677458" lon="-9.343847008422017">
        <ele>14.08</ele>
        <time>2026-07-04T09:14:20Z</time>
      </trkpt>
      <trkpt lat="54.316422007977962" lon="-9.343838039785624">
        <ele>14.08</ele>
        <time>2026-07-04T09:14:21Z</time>
      </trkpt>
      <trkpt lat="54.316264009103179" lon="-9.3438979703933">
        <ele>14.08</ele>
        <time>2026-07-04T09:14:23Z</time>
      </trkpt>
      <trkpt lat="54.316193014383316" lon="-9.343959996476769">
        <ele>14.08</ele>
        <time>2026-07-04T09:14:24Z</time>
      </trkpt>
      <trkpt lat="54.316128976643085" lon="-9.344044988974929">
        <ele>14.08</ele>
        <time>2026-07-04T09:14:25Z</time>
      </trkpt>
      <trkpt lat="54.316068962216377" lon="-9.344139033928514">
        <ele>14.08</ele>
        <time>2026-07-04T09:14:26Z</time>
      </trkpt>
      <trkpt lat="54.315993022173643" lon="-9.344201982021332">
        <ele>14.08</ele>
        <time>2026-07-04T09:14:27Z</time>
      </trkpt>
      <trkpt lat="54.315924039110541" lon="-9.344167029485107">
        <ele>14.08</ele>
        <time>2026-07-04T09:14:28Z</time>
      </trkpt>
      <trkpt lat="54.31583502329886" lon="-9.344183960929513">
        <ele>14.56</ele>
        <time>2026-07-04T09:14:29Z</time>
      </trkpt>
      <trkpt lat="54.315767968073487" lon="-9.344222014769912">
        <ele>14.56</ele>
        <time>2026-07-04T09:14:30Z</time>
      </trkpt>
      <trkpt lat="54.315716000273824" lon="-9.344317987561226">
        <ele>14.56</ele>
        <time>2026-07-04T09:14:31Z</time>
      </trkpt>
      <trkpt lat="54.315678030252457" lon="-9.344441033899784">
        <ele>14.56</ele>
        <time>2026-07-04T09:14:32Z</time>
      </trkpt>
      <trkpt lat="54.315635031089187" lon="-9.344576988369227">
        <ele>14.08</ele>
        <time>2026-07-04T09:14:33Z</time>
      </trkpt>
      <trkpt lat="54.315587002784014" lon="-9.344729036092758">
        <ele>14.08</ele>
        <time>2026-07-04T09:14:34Z</time>
      </trkpt>
      <trkpt lat="54.315308975055814" lon="-9.345473013818264">
        <ele>13.6</ele>
        <time>2026-07-04T09:14:39Z</time>
      </trkpt>
      <trkpt lat="54.315238986164331" lon="-9.345582984387875">
        <ele>13.119999999999999</ele>
        <time>2026-07-04T09:14:40Z</time>
      </trkpt>
      <trkpt lat="54.315168997272849" lon="-9.345693960785866">
        <ele>13.119999999999999</ele>
        <time>2026-07-04T09:14:41Z</time>
      </trkpt>
      <trkpt lat="54.315077969804406" lon="-9.345769984647632">
        <ele>13.119999999999999</ele>
        <time>2026-07-04T09:14:42Z</time>
      </trkpt>
      <trkpt lat="54.314983002841473" lon="-9.345818012952805">
        <ele>12.630000000000001</ele>
        <time>2026-07-04T09:14:43Z</time>
      </trkpt>
      <trkpt lat="54.314883006736636" lon="-9.345867969095707">
        <ele>13.119999999999999</ele>
        <time>2026-07-04T09:14:44Z</time>
      </trkpt>
      <trkpt lat="54.314794996753335" lon="-9.34595899656415">
        <ele>13.119999999999999</ele>
        <time>2026-07-04T09:14:45Z</time>
      </trkpt>
      <trkpt lat="54.314706986770034" lon="-9.346049018204212">
        <ele>13.119999999999999</ele>
        <time>2026-07-04T09:14:46Z</time>
      </trkpt>
      <trkpt lat="54.313872987404466" lon="-9.347106982022524">
        <ele>14.08</ele>
        <time>2026-07-04T09:14:57Z</time>
      </trkpt>
      <trkpt lat="54.313680035993457" lon="-9.34748400002718">
        <ele>13.6</ele>
        <time>2026-07-04T09:15:00Z</time>
      </trkpt>
      <trkpt lat="54.313623961061239" lon="-9.34759397059679">
        <ele>13.6</ele>
        <time>2026-07-04T09:15:01Z</time>
      </trkpt>
      <trkpt lat="54.313535029068589" lon="-9.347649039700627">
        <ele>13.6</ele>
        <time>2026-07-04T09:15:02Z</time>
      </trkpt>
      <trkpt lat="54.313466968014836" lon="-9.347649039700627">
        <ele>14.08</ele>
        <time>2026-07-04T09:15:03Z</time>
      </trkpt>
      <trkpt lat="54.31341097690165" lon="-9.347610985860229">
        <ele>14.08</ele>
        <time>2026-07-04T09:15:04Z</time>
      </trkpt>
      <trkpt lat="54.313346017152071" lon="-9.347566980868578">
        <ele>14.08</ele>
        <time>2026-07-04T09:15:05Z</time>
      </trkpt>
      <trkpt lat="54.313278961926699" lon="-9.347522975876927">
        <ele>14.56</ele>
        <time>2026-07-04T09:15:06Z</time>
      </trkpt>
      <trkpt lat="54.312295010313392" lon="-9.346863990649581">
        <ele>17.440000000000001</ele>
        <time>2026-07-04T09:15:17Z</time>
      </trkpt>
      <trkpt lat="54.311354979872704" lon="-9.346234006807208">
        <ele>19.84</ele>
        <time>2026-07-04T09:15:29Z</time>
      </trkpt>
      <trkpt lat="54.311225982382894" lon="-9.346148008480668">
        <ele>20.32</ele>
        <time>2026-07-04T09:15:37Z</time>
      </trkpt>
      <trkpt lat="54.311225982382894" lon="-9.346148008480668">
        <ele>20.809999999999999</ele>
        <time>2026-07-04T09:16:17Z</time>
      </trkpt>
      <trkpt lat="54.311081981286407" lon="-9.346052035689354">
        <ele>21.77</ele>
        <time>2026-07-04T09:16:21Z</time>
      </trkpt>
      <trkpt lat="54.311001012101769" lon="-9.345996966585517">
        <ele>21.77</ele>
        <time>2026-07-04T09:16:22Z</time>
      </trkpt>
      <trkpt lat="54.310214035212994" lon="-9.345471002161503">
        <ele>22.25</ele>
        <time>2026-07-04T09:16:29Z</time>
      </trkpt>
      <trkpt lat="54.309082981199026" lon="-9.344713026657701">
        <ele>24.649999999999999</ele>
        <time>2026-07-04T09:16:39Z</time>
      </trkpt>
      <trkpt lat="54.308661036193371" lon="-9.344430975615978">
        <ele>24.649999999999999</ele>
        <time>2026-07-04T09:16:48Z</time>
      </trkpt>
      <trkpt lat="54.308630023151636" lon="-9.344410020858049">
        <ele>23.690000000000001</ele>
        <time>2026-07-04T09:16:58Z</time>
      </trkpt>
      <trkpt lat="54.308614013716578" lon="-9.344136016443372">
        <ele>23.210000000000001</ele>
        <time>2026-07-04T09:17:05Z</time>
      </trkpt>
      <trkpt lat="54.308622982352972" lon="-9.344005007296801">
        <ele>23.210000000000001</ele>
        <time>2026-07-04T09:17:06Z</time>
      </trkpt>
      <trkpt lat="54.308924982324243" lon="-9.342640014365315">
        <ele>24.170000000000002</ele>
        <time>2026-07-04T09:17:13Z</time>
      </trkpt>
      <trkpt lat="54.309095973148942" lon="-9.342242041602731">
        <ele>24.649999999999999</ele>
        <time>2026-07-04T09:17:15Z</time>
      </trkpt>
      <trkpt lat="54.309165040031075" lon="-9.342021010816097">
        <ele>24.649999999999999</ele>
        <time>2026-07-04T09:17:16Z</time>
      </trkpt>
      <trkpt lat="54.309222036972642" lon="-9.341779025271535">
        <ele>25.129999999999999</ele>
        <time>2026-07-04T09:17:17Z</time>
      </trkpt>
      <trkpt lat="54.30967197753489" lon="-9.339138977229595">
        <ele>25.609999999999999</ele>
        <time>2026-07-04T09:17:27Z</time>
      </trkpt>
      <trkpt lat="54.309721011668444" lon="-9.337621014565229">
        <ele>25.609999999999999</ele>
        <time>2026-07-04T09:17:33Z</time>
      </trkpt>
      <trkpt lat="54.309703996405005" lon="-9.337401995435357">
        <ele>26.09</ele>
        <time>2026-07-04T09:17:34Z</time>
      </trkpt>
      <trkpt lat="54.309335025027394" lon="-9.335100995376706">
        <ele>27.050000000000001</ele>
        <time>2026-07-04T09:17:43Z</time>
      </trkpt>
      <trkpt lat="54.308958007022738" lon="-9.33248701505363">
        <ele>32.82</ele>
        <time>2026-07-04T09:17:53Z</time>
      </trkpt>
      <trkpt lat="54.308469006791711" lon="-9.330431018024683">
        <ele>38.590000000000003</ele>
        <time>2026-07-04T09:18:03Z</time>
      </trkpt>
      <trkpt lat="54.308302039280534" lon="-9.329725010320544">
        <ele>43.399999999999999</ele>
        <time>2026-07-04T09:18:10Z</time>
      </trkpt>
      <trkpt lat="54.308197014033794" lon="-9.329284960404038">
        <ele>44.840000000000003</ele>
        <time>2026-07-04T09:18:13Z</time>
      </trkpt>
      <trkpt lat="54.307805998250842" lon="-9.327641017735004">
        <ele>47.719999999999999</ele>
        <time>2026-07-04T09:18:21Z</time>
      </trkpt>
      <trkpt lat="54.307282967492938" lon="-9.325439007952809">
        <ele>55.409999999999997</ele>
        <time>2026-07-04T09:18:31Z</time>
      </trkpt>
      <trkpt lat="54.306720038875937" lon="-9.322913959622383">
        <ele>58.780000000000001</ele>
        <time>2026-07-04T09:18:42Z</time>
      </trkpt>
      <trkpt lat="54.306687014177442" lon="-9.322693012654781">
        <ele>58.780000000000001</ele>
        <time>2026-07-04T09:18:43Z</time>
      </trkpt>
      <trkpt lat="54.306667987257242" lon="-9.322450021281838">
        <ele>59.259999999999998</ele>
        <time>2026-07-04T09:18:44Z</time>
      </trkpt>
      <trkpt lat="54.306718027219176" lon="-9.320552023127675">
        <ele>56.369999999999997</ele>
        <time>2026-07-04T09:18:53Z</time>
      </trkpt>
      <trkpt lat="54.306688020005822" lon="-9.319765968248248">
        <ele>54.93</ele>
        <time>2026-07-04T09:18:59Z</time>
      </trkpt>
      <trkpt lat="54.306662958115339" lon="-9.319691034033895">
        <ele>54.450000000000003</ele>
        <time>2026-07-04T09:19:00Z</time>
      </trkpt>
      <trkpt lat="54.306637980043888" lon="-9.319623978808522">
        <ele>54.450000000000003</ele>
        <time>2026-07-04T09:19:01Z</time>
      </trkpt>
      <trkpt lat="54.30661803111434" lon="-9.319572011008859">
        <ele>53.969999999999999</ele>
        <time>2026-07-04T09:19:02Z</time>
      </trkpt>
      <trkpt lat="54.30659900419414" lon="-9.319520965218544">
        <ele>53.969999999999999</ele>
        <time>2026-07-04T09:19:03Z</time>
      </trkpt>
      <trkpt lat="54.306580983102322" lon="-9.319473020732403">
        <ele>53.969999999999999</ele>
        <time>2026-07-04T09:19:04Z</time>
      </trkpt>
      <trkpt lat="54.306566985324025" lon="-9.319434966892004">
        <ele>53.490000000000002</ele>
        <time>2026-07-04T09:19:13Z</time>
      </trkpt>
      <trkpt lat="54.306566985324025" lon="-9.319434966892004">
        <ele>53.490000000000002</ele>
        <time>2026-07-04T09:19:40Z</time>
      </trkpt>
      <trkpt lat="54.306566985324025" lon="-9.319434966892004">
        <ele>53.009999999999998</ele>
        <time>2026-07-04T09:20:29Z</time>
      </trkpt>
      <trkpt lat="54.306391971185803" lon="-9.319154005497694">
        <ele>53.490000000000002</ele>
        <time>2026-07-04T09:20:47Z</time>
      </trkpt>
      <trkpt lat="54.305931972339749" lon="-9.318444980308414">
        <ele>53.969999999999999</ele>
        <time>2026-07-04T09:20:54Z</time>
      </trkpt>
      <trkpt lat="54.305843962356448" lon="-9.318309025838971">
        <ele>54.450000000000003</ele>
        <time>2026-07-04T09:20:58Z</time>
      </trkpt>
      <trkpt lat="54.305728040635586" lon="-9.317979030311108">
        <ele>55.890000000000001</ele>
        <time>2026-07-04T09:21:06Z</time>
      </trkpt>
      <trkpt lat="54.305729968473315" lon="-9.317947011440992">
        <ele>56.369999999999997</ele>
        <time>2026-07-04T09:21:07Z</time>
      </trkpt>
      <trkpt lat="54.305729968473315" lon="-9.317947011440992">
        <ele>56.369999999999997</ele>
        <time>2026-07-04T09:21:08Z</time>
      </trkpt>
      <trkpt lat="54.305729968473315" lon="-9.317947011440992">
        <ele>56.859999999999999</ele>
        <time>2026-07-04T09:21:19Z</time>
      </trkpt>
      <trkpt lat="54.305806998163462" lon="-9.318252028897405">
        <ele>55.890000000000001</ele>
        <time>2026-07-04T09:21:24Z</time>
      </trkpt>
      <trkpt lat="54.305904982611537" lon="-9.318402986973524">
        <ele>55.890000000000001</ele>
        <time>2026-07-04T09:21:25Z</time>
      </trkpt>
      <trkpt lat="54.305973965674639" lon="-9.318510023877025">
        <ele>55.409999999999997</ele>
        <time>2026-07-04T09:21:26Z</time>
      </trkpt>
      <trkpt lat="54.306059964001179" lon="-9.318642960861325">
        <ele>55.409999999999997</ele>
        <time>2026-07-04T09:21:27Z</time>
      </trkpt>
      <trkpt lat="54.306158032268286" lon="-9.318792996928096">
        <ele>54.93</ele>
        <time>2026-07-04T09:21:28Z</time>
      </trkpt>
      <trkpt lat="54.30657796561718" lon="-9.319462962448597">
        <ele>53.969999999999999</ele>
        <time>2026-07-04T09:21:32Z</time>
      </trkpt>
      <trkpt lat="54.306636974215508" lon="-9.319620961323381">
        <ele>53.490000000000002</ele>
        <time>2026-07-04T09:21:33Z</time>
      </trkpt>
      <trkpt lat="54.306688020005822" lon="-9.319767979905009">
        <ele>53.490000000000002</ele>
        <time>2026-07-04T09:21:34Z</time>
      </trkpt>
      <trkpt lat="54.30670796893537" lon="-9.319947017356753">
        <ele>53.009999999999998</ele>
        <time>2026-07-04T09:21:35Z</time>
      </trkpt>
      <trkpt lat="54.306729007512331" lon="-9.320146003738046">
        <ele>53.009999999999998</ele>
        <time>2026-07-04T09:21:36Z</time>
      </trkpt>
      <trkpt lat="54.306723978370428" lon="-9.320351025089622">
        <ele>53.009999999999998</ele>
        <time>2026-07-04T09:21:37Z</time>
      </trkpt>
      <trkpt lat="54.306691959500313" lon="-9.322725031524897">
        <ele>56.369999999999997</ele>
        <time>2026-07-04T09:21:47Z</time>
      </trkpt>
      <trkpt lat="54.306822968646884" lon="-9.323435984551907">
        <ele>57.340000000000003</ele>
        <time>2026-07-04T09:21:52Z</time>
      </trkpt>
      <trkpt lat="54.307150030508637" lon="-9.324870966374874">
        <ele>55.409999999999997</ele>
        <time>2026-07-04T09:22:00Z</time>
      </trkpt>
      <trkpt lat="54.307487988844514" lon="-9.32630100287497">
        <ele>51.090000000000003</ele>
        <time>2026-07-04T09:22:08Z</time>
      </trkpt>
      <trkpt lat="54.307984029874206" lon="-9.328388012945652">
        <ele>44.840000000000003</ele>
        <time>2026-07-04T09:22:17Z</time>
      </trkpt>
      <trkpt lat="54.308211011812091" lon="-9.329344974830747">
        <ele>42.920000000000002</ele>
        <time>2026-07-04T09:22:22Z</time>
      </trkpt>
      <trkpt lat="54.308249987661839" lon="-9.329506997019053">
        <ele>42.920000000000002</ele>
        <time>2026-07-04T09:22:23Z</time>
      </trkpt>
      <trkpt lat="54.308291980996728" lon="-9.329684022814035">
        <ele>42.920000000000002</ele>
        <time>2026-07-04T09:22:24Z</time>
      </trkpt>
      <trkpt lat="54.308679979294538" lon="-9.331317991018295">
        <ele>37.630000000000003</ele>
        <time>2026-07-04T09:22:31Z</time>
      </trkpt>
      <trkpt lat="54.309108965098858" lon="-9.333613961935043">
        <ele>33.299999999999997</ele>
        <time>2026-07-04T09:22:40Z</time>
      </trkpt>
      <trkpt lat="54.309192029759288" lon="-9.334241012111306">
        <ele>31.379999999999999</ele>
        <time>2026-07-04T09:22:44Z</time>
      </trkpt>
      <trkpt lat="54.309293031692505" lon="-9.33485196903348">
        <ele>28.5</ele>
        <time>2026-07-04T09:22:53Z</time>
      </trkpt>
      <trkpt lat="54.309545997530222" lon="-9.336371021345258">
        <ele>24.649999999999999</ele>
        <time>2026-07-04T09:23:00Z</time>
      </trkpt>
      <trkpt lat="54.30971497669816" lon="-9.337510960176587">
        <ele>22.25</ele>
        <time>2026-07-04T09:23:05Z</time>
      </trkpt>
      <trkpt lat="54.309727968648076" lon="-9.337735008448362">
        <ele>21.77</ele>
        <time>2026-07-04T09:23:06Z</time>
      </trkpt>
      <trkpt lat="54.309740960597992" lon="-9.337961990386248">
        <ele>21.289999999999999</ele>
        <time>2026-07-04T09:23:07Z</time>
      </trkpt>
      <trkpt lat="54.309515990316868" lon="-9.340142961591482">
        <ele>23.210000000000001</ele>
        <time>2026-07-04T09:23:16Z</time>
      </trkpt>
      <trkpt lat="54.30908901616931" lon="-9.342257967218757">
        <ele>24.649999999999999</ele>
        <time>2026-07-04T09:23:25Z</time>
      </trkpt>
      <trkpt lat="54.308664975687861" lon="-9.343653973191977">
        <ele>23.690000000000001</ele>
        <time>2026-07-04T09:23:32Z</time>
      </trkpt>
      <trkpt lat="54.308630023151636" lon="-9.343899982050061">
        <ele>23.690000000000001</ele>
        <time>2026-07-04T09:23:33Z</time>
      </trkpt>
      <trkpt lat="54.308391977101564" lon="-9.346944959834218">
        <ele>22.73</ele>
        <time>2026-07-04T09:23:44Z</time>
      </trkpt>
      <trkpt lat="54.308304972946644" lon="-9.347734032198787">
        <ele>22.25</ele>
        <time>2026-07-04T09:23:47Z</time>
      </trkpt>
      <trkpt lat="54.30821000598371" lon="-9.347970988601446">
        <ele>21.77</ele>
        <time>2026-07-04T09:23:48Z</time>
      </trkpt>
      <trkpt lat="54.308116966858506" lon="-9.348173998296261">
        <ele>21.289999999999999</ele>
        <time>2026-07-04T09:23:49Z</time>
      </trkpt>
      <trkpt lat="54.307062020525336" lon="-9.350389000028372">
        <ele>18.879999999999999</ele>
        <time>2026-07-04T09:23:59Z</time>
      </trkpt>
      <trkpt lat="54.306007996201515" lon="-9.352368973195553">
        <ele>16.48</ele>
        <time>2026-07-04T09:24:09Z</time>
      </trkpt>
      <trkpt lat="54.304830003529787" lon="-9.354480039328337">
        <ele>16.48</ele>
        <time>2026-07-04T09:24:22Z</time>
      </trkpt>
      <trkpt lat="54.304148973897099" lon="-9.355698013678193">
        <ele>17.440000000000001</ele>
        <time>2026-07-04T09:24:31Z</time>
      </trkpt>
      <trkpt lat="54.304004972800612" lon="-9.355956008657813">
        <ele>18.399999999999999</ele>
        <time>2026-07-04T09:24:33Z</time>
      </trkpt>
      <trkpt lat="54.303918974474072" lon="-9.356049969792366">
        <ele>18.879999999999999</ele>
        <time>2026-07-04T09:24:34Z</time>
      </trkpt>
      <trkpt lat="54.303832976147532" lon="-9.356124987825751">
        <ele>18.879999999999999</ele>
        <time>2026-07-04T09:24:35Z</time>
      </trkpt>
      <trkpt lat="54.303728034719825" lon="-9.356159018352628">
        <ele>19.359999999999999</ele>
        <time>2026-07-04T09:24:36Z</time>
      </trkpt>
      <trkpt lat="54.303622003644705" lon="-9.356194976717234">
        <ele>19.359999999999999</ele>
        <time>2026-07-04T09:24:37Z</time>
      </trkpt>
      <trkpt lat="54.303512033075094" lon="-9.356231018900871">
        <ele>19.84</ele>
        <time>2026-07-04T09:24:38Z</time>
      </trkpt>
      <trkpt lat="54.302088031545281" lon="-9.356319028884172">
        <ele>23.690000000000001</ele>
        <time>2026-07-04T09:24:49Z</time>
      </trkpt>
      <trkpt lat="54.300999976694584" lon="-9.356424976140261">
        <ele>27.050000000000001</ele>
        <time>2026-07-04T09:24:57Z</time>
      </trkpt>
      <trkpt lat="54.300878020003438" lon="-9.356504017487168">
        <ele>27.530000000000001</ele>
        <time>2026-07-04T09:24:58Z</time>
      </trkpt>
      <trkpt lat="54.300753967836499" lon="-9.356584986671805">
        <ele>28.02</ele>
        <time>2026-07-04T09:24:59Z</time>
      </trkpt>
      <trkpt lat="54.29914397187531" lon="-9.357619984075427">
        <ele>26.57</ele>
        <time>2026-07-04T09:25:11Z</time>
      </trkpt>
      <trkpt lat="54.297055033966899" lon="-9.358768975362182">
        <ele>24.649999999999999</ele>
        <time>2026-07-04T09:25:26Z</time>
      </trkpt>
      <trkpt lat="54.296528985723853" lon="-9.35897902585566">
        <ele>26.57</ele>
        <time>2026-07-04T09:25:30Z</time>
      </trkpt>
      <trkpt lat="54.296386996284127" lon="-9.35902101919055">
        <ele>27.050000000000001</ele>
        <time>2026-07-04T09:25:31Z</time>
      </trkpt>
      <trkpt lat="54.294904991984367" lon="-9.358684988692403">
        <ele>21.289999999999999</ele>
        <time>2026-07-04T09:25:42Z</time>
      </trkpt>
      <trkpt lat="54.293516026809812" lon="-9.358374020084739">
        <ele>18.879999999999999</ele>
        <time>2026-07-04T09:25:53Z</time>
      </trkpt>
      <trkpt lat="54.293401027098298" lon="-9.358348036184907">
        <ele>19.359999999999999</ele>
        <time>2026-07-04T09:25:54Z</time>
      </trkpt>
      <trkpt lat="54.292060006409883" lon="-9.358838964253664">
        <ele>21.289999999999999</ele>
        <time>2026-07-04T09:26:04Z</time>
      </trkpt>
      <trkpt lat="54.290297962725163" lon="-9.359533991664648">
        <ele>22.25</ele>
        <time>2026-07-04T09:26:17Z</time>
      </trkpt>
      <trkpt lat="54.288289994001389" lon="-9.360346030443907">
        <ele>24.170000000000002</ele>
        <time>2026-07-04T09:26:32Z</time>
      </trkpt>
      <trkpt lat="54.286412028595805" lon="-9.361150022596121">
        <ele>28.5</ele>
        <time>2026-07-04T09:26:46Z</time>
      </trkpt>
      <trkpt lat="54.284693989902735" lon="-9.361833985894918">
        <ele>29.940000000000001</ele>
        <time>2026-07-04T09:27:00Z</time>
      </trkpt>
      <trkpt lat="54.282520981505513" lon="-9.362666979432106">
        <ele>28.98</ele>
        <time>2026-07-04T09:27:16Z</time>
      </trkpt>
      <trkpt lat="54.280836973339319" lon="-9.363331999629736">
        <ele>37.630000000000003</ele>
        <time>2026-07-04T09:27:30Z</time>
      </trkpt>
      <trkpt lat="54.280592976137996" lon="-9.363503996282816">
        <ele>39.549999999999997</ele>
        <time>2026-07-04T09:27:33Z</time>
      </trkpt>
      <trkpt lat="54.280517036095262" lon="-9.363573985174298">
        <ele>40.509999999999998</ele>
        <time>2026-07-04T09:27:34Z</time>
      </trkpt>
      <trkpt lat="54.280390972271562" lon="-9.363827034831047">
        <ele>40.990000000000002</ele>
        <time>2026-07-04T09:27:36Z</time>
      </trkpt>
      <trkpt lat="54.279874982312322" lon="-9.364923974499106">
        <ele>47.240000000000002</ele>
        <time>2026-07-04T09:27:44Z</time>
      </trkpt>
      <trkpt lat="54.279840029776096" lon="-9.365034028887749">
        <ele>48.200000000000003</ele>
        <time>2026-07-04T09:27:45Z</time>
      </trkpt>
      <trkpt lat="54.27982896566391" lon="-9.365149028599262">
        <ele>49.159999999999997</ele>
        <time>2026-07-04T09:27:46Z</time>
      </trkpt>
      <trkpt lat="54.279846986755729" lon="-9.365277020260692">
        <ele>49.649999999999999</ele>
        <time>2026-07-04T09:27:47Z</time>
      </trkpt>
      <trkpt lat="54.279867019504309" lon="-9.36542403884232">
        <ele>50.609999999999999</ele>
        <time>2026-07-04T09:27:48Z</time>
      </trkpt>
      <trkpt lat="54.27991303615272" lon="-9.365758979693055">
        <ele>50.609999999999999</ele>
        <time>2026-07-04T09:27:50Z</time>
      </trkpt>
      <trkpt lat="54.279937008395791" lon="-9.365937011316419">
        <ele>51.090000000000003</ele>
        <time>2026-07-04T09:27:51Z</time>
      </trkpt>
      <trkpt lat="54.279961986467242" lon="-9.366117976605892">
        <ele>51.090000000000003</ele>
        <time>2026-07-04T09:27:52Z</time>
      </trkpt>
      <trkpt lat="54.279987970367074" lon="-9.366301037371159">
        <ele>51.090000000000003</ele>
        <time>2026-07-04T09:27:53Z</time>
      </trkpt>
      <trkpt lat="54.280013032257557" lon="-9.366484014317393">
        <ele>51.090000000000003</ele>
        <time>2026-07-04T09:27:54Z</time>
      </trkpt>
      <trkpt lat="54.280096013098955" lon="-9.367319019511342">
        <ele>50.609999999999999</ele>
        <time>2026-07-04T09:27:59Z</time>
      </trkpt>
      <trkpt lat="54.280104981735349" lon="-9.367448017001152">
        <ele>50.609999999999999</ele>
        <time>2026-07-04T09:28:00Z</time>
      </trkpt>
      <trkpt lat="54.280113028362393" lon="-9.367549018934369">
        <ele>50.609999999999999</ele>
        <time>2026-07-04T09:28:01Z</time>
      </trkpt>
      <trkpt lat="54.28004203364253" lon="-9.367708023637533">
        <ele>50.130000000000003</ele>
        <time>2026-07-04T09:28:02Z</time>
      </trkpt>
      <trkpt lat="54.279985036700964" lon="-9.367737025022507">
        <ele>50.130000000000003</ele>
        <time>2026-07-04T09:28:03Z</time>
      </trkpt>
      <trkpt lat="54.279919993132353" lon="-9.367769965901971">
        <ele>50.130000000000003</ele>
        <time>2026-07-04T09:28:04Z</time>
      </trkpt>
      <trkpt lat="54.279846986755729" lon="-9.367806008085609">
        <ele>50.130000000000003</ele>
        <time>2026-07-04T09:28:05Z</time>
      </trkpt>
      <trkpt lat="54.279152965173125" lon="-9.36815301887691">
        <ele>53.490000000000002</ele>
        <time>2026-07-04T09:28:15Z</time>
      </trkpt>
      <trkpt lat="54.278969988226891" lon="-9.368044976145029">
        <ele>54.93</ele>
        <time>2026-07-04T09:28:19Z</time>
      </trkpt>
      <trkpt lat="54.278953978791833" lon="-9.36795998364687">
        <ele>55.409999999999997</ele>
        <time>2026-07-04T09:28:20Z</time>
      </trkpt>
      <trkpt lat="54.278931012377143" lon="-9.367843978106976">
        <ele>55.890000000000001</ele>
        <time>2026-07-04T09:28:21Z</time>
      </trkpt>
      <trkpt lat="54.278905028477311" lon="-9.367711963132024">
        <ele>55.890000000000001</ele>
        <time>2026-07-04T09:28:22Z</time>
      </trkpt>
      <trkpt lat="54.278877032920718" lon="-9.367571985349059">
        <ele>55.890000000000001</ele>
        <time>2026-07-04T09:28:23Z</time>
      </trkpt>
      <trkpt lat="54.278705958276987" lon="-9.366703033447266">
        <ele>55.890000000000001</ele>
        <time>2026-07-04T09:28:28Z</time>
      </trkpt>
      <trkpt lat="54.278661031275988" lon="-9.366533970460296">
        <ele>55.890000000000001</ele>
        <time>2026-07-04T09:28:29Z</time>
      </trkpt>
      <trkpt lat="54.278531027957797" lon="-9.366191988810897">
        <ele>56.369999999999997</ele>
        <time>2026-07-04T09:28:31Z</time>
      </trkpt>
      <trkpt lat="54.277822002768517" lon="-9.364222995936871">
        <ele>55.409999999999997</ele>
        <time>2026-07-04T09:28:41Z</time>
      </trkpt>
      <trkpt lat="54.277245998382568" lon="-9.361580014228821">
        <ele>57.340000000000003</ele>
        <time>2026-07-04T09:28:52Z</time>
      </trkpt>
      <trkpt lat="54.276462960988283" lon="-9.358195988461375">
        <ele>62.619999999999997</ele>
        <time>2026-07-04T09:29:06Z</time>
      </trkpt>
      <trkpt lat="54.275815961882472" lon="-9.355038022622466">
        <ele>62.619999999999997</ele>
        <time>2026-07-04T09:29:18Z</time>
      </trkpt>
      <trkpt lat="54.275542963296175" lon="-9.353257035836577">
        <ele>60.219999999999999</ele>
        <time>2026-07-04T09:29:24Z</time>
      </trkpt>
      <trkpt lat="54.274751041084528" lon="-9.349872004240751">
        <ele>61.18</ele>
        <time>2026-07-04T09:29:36Z</time>
      </trkpt>
      <trkpt lat="54.274357007816434" lon="-9.347890019416809">
        <ele>57.340000000000003</ele>
        <time>2026-07-04T09:29:43Z</time>
      </trkpt>
      <trkpt lat="54.274071017280221" lon="-9.346661986783147">
        <ele>57.340000000000003</ele>
        <time>2026-07-04T09:29:49Z</time>
      </trkpt>
      <trkpt lat="54.273111037909985" lon="-9.344494007527828">
        <ele>61.18</ele>
        <time>2026-07-04T09:30:00Z</time>
      </trkpt>
      <trkpt lat="54.272148963063955" lon="-9.342485032975674">
        <ele>59.740000000000002</ele>
        <time>2026-07-04T09:30:09Z</time>
      </trkpt>
      <trkpt lat="54.272016026079655" lon="-9.342342037707567">
        <ele>59.259999999999998</ele>
        <time>2026-07-04T09:30:10Z</time>
      </trkpt>
      <trkpt lat="54.269895991310477" lon="-9.339988986030221">
        <ele>62.140000000000001</ele>
        <time>2026-07-04T09:30:25Z</time>
      </trkpt>
      <trkpt lat="54.269783003255725" lon="-9.339781031012535">
        <ele>62.619999999999997</ele>
        <time>2026-07-04T09:30:26Z</time>
      </trkpt>
      <trkpt lat="54.268711041659117" lon="-9.337395960465074">
        <ele>65.989999999999995</ele>
        <time>2026-07-04T09:30:37Z</time>
      </trkpt>
      <trkpt lat="54.267789032310247" lon="-9.335628971457481">
        <ele>63.579999999999998</ele>
        <time>2026-07-04T09:30:46Z</time>
      </trkpt>
      <trkpt lat="54.266536021605134" lon="-9.334362968802452">
        <ele>65.030000000000001</ele>
        <time>2026-07-04T09:30:55Z</time>
      </trkpt>
      <trkpt lat="54.264511959627271" lon="-9.332995964214206">
        <ele>65.030000000000001</ele>
        <time>2026-07-04T09:31:09Z</time>
      </trkpt>
      <trkpt lat="54.262495022267103" lon="-9.331858037039638">
        <ele>66.469999999999999</ele>
        <time>2026-07-04T09:31:22Z</time>
      </trkpt>
      <trkpt lat="54.26085501909256" lon="-9.331137025728822">
        <ele>68.390000000000001</ele>
        <time>2026-07-04T09:31:32Z</time>
      </trkpt>
      <trkpt lat="54.259707033634186" lon="-9.331111963838339">
        <ele>68.390000000000001</ele>
        <time>2026-07-04T09:31:40Z</time>
      </trkpt>
      <trkpt lat="54.258373975753784" lon="-9.331111963838339">
        <ele>70.790000000000006</ele>
        <time>2026-07-04T09:31:49Z</time>
      </trkpt>
      <trkpt lat="54.256137013435364" lon="-9.331010039895773">
        <ele>76.079999999999998</ele>
        <time>2026-07-04T09:32:02Z</time>
      </trkpt>
      <trkpt lat="54.25503303296864" lon="-9.330361029133201">
        <ele>78.969999999999999</ele>
        <time>2026-07-04T09:32:09Z</time>
      </trkpt>
      <trkpt lat="54.253322035074234" lon="-9.328520027920604">
        <ele>82.329999999999998</ele>
        <time>2026-07-04T09:32:20Z</time>
      </trkpt>
      <trkpt lat="54.251190014183521" lon="-9.324950007721782">
        <ele>87.620000000000005</ele>
        <time>2026-07-04T09:32:36Z</time>
      </trkpt>
      <trkpt lat="54.250812996178865" lon="-9.324231008067727">
        <ele>88.099999999999994</ele>
        <time>2026-07-04T09:32:39Z</time>
      </trkpt>
      <trkpt lat="54.249894004315138" lon="-9.322272995486856">
        <ele>86.180000000000007</ele>
        <time>2026-07-04T09:32:47Z</time>
      </trkpt>
      <trkpt lat="54.24893201328814" lon="-9.320184979587793">
        <ele>85.689999999999998</ele>
        <time>2026-07-04T09:32:57Z</time>
      </trkpt>
      <trkpt lat="54.247427964583039" lon="-9.316900027915835">
        <ele>78.480000000000004</ele>
        <time>2026-07-04T09:33:12Z</time>
      </trkpt>
      <trkpt lat="54.246250977739692" lon="-9.314309014007449">
        <ele>72.719999999999999</ele>
        <time>2026-07-04T09:33:24Z</time>
      </trkpt>
      <trkpt lat="54.245325028896332" lon="-9.312236001715064">
        <ele>69.829999999999998</ele>
        <time>2026-07-04T09:33:33Z</time>
      </trkpt>
      <trkpt lat="54.24403396435082" lon="-9.30932798422873">
        <ele>63.579999999999998</ele>
        <time>2026-07-04T09:33:45Z</time>
      </trkpt>
      <trkpt lat="54.243073984980583" lon="-9.306762032210827">
        <ele>61.659999999999997</ele>
        <time>2026-07-04T09:33:56Z</time>
      </trkpt>
      <trkpt lat="54.242000011727214" lon="-9.303819984197617">
        <ele>56.369999999999997</ele>
        <time>2026-07-04T09:34:08Z</time>
      </trkpt>
      <trkpt lat="54.240693021565676" lon="-9.300233032554388">
        <ele>52.530000000000001</ele>
        <time>2026-07-04T09:34:23Z</time>
      </trkpt>
      <trkpt lat="54.239563979208469" lon="-9.297104990109801">
        <ele>50.130000000000003</ele>
        <time>2026-07-04T09:34:36Z</time>
      </trkpt>
      <trkpt lat="54.239365998655558" lon="-9.29665002040565">
        <ele>49.649999999999999</ele>
        <time>2026-07-04T09:34:38Z</time>
      </trkpt>
      <trkpt lat="54.239257033914328" lon="-9.296432007104158">
        <ele>49.649999999999999</ele>
        <time>2026-07-04T09:34:39Z</time>
      </trkpt>
      <trkpt lat="54.239130970090628" lon="-9.296234026551247">
        <ele>49.159999999999997</ele>
        <time>2026-07-04T09:34:40Z</time>
      </trkpt>
      <trkpt lat="54.239003984257579" lon="-9.296040991321206">
        <ele>48.68</ele>
        <time>2026-07-04T09:34:41Z</time>
      </trkpt>
      <trkpt lat="54.238878004252911" lon="-9.295850973576307">
        <ele>48.68</ele>
        <time>2026-07-04T09:34:42Z</time>
      </trkpt>
      <trkpt lat="54.238755041733384" lon="-9.29566296748817">
        <ele>48.200000000000003</ele>
        <time>2026-07-04T09:34:43Z</time>
      </trkpt>
      <trkpt lat="54.237365992739797" lon="-9.293601019307971">
        <ele>43.880000000000003</ele>
        <time>2026-07-04T09:34:54Z</time>
      </trkpt>
      <trkpt lat="54.237230038270354" lon="-9.293438997119665">
        <ele>43.399999999999999</ele>
        <time>2026-07-04T09:34:55Z</time>
      </trkpt>
      <trkpt lat="54.235850041732192" lon="-9.292448004707694">
        <ele>40.030000000000001</ele>
        <time>2026-07-04T09:35:04Z</time>
      </trkpt>
      <trkpt lat="54.234485970810056" lon="-9.291419964283705">
        <ele>33.780000000000001</ele>
        <time>2026-07-04T09:35:13Z</time>
      </trkpt>
      <trkpt lat="54.232163010165095" lon="-9.289207980036736">
        <ele>28.5</ele>
        <time>2026-07-04T09:35:29Z</time>
      </trkpt>
      <trkpt lat="54.230577992275357" lon="-9.287697980180383">
        <ele>24.649999999999999</ele>
        <time>2026-07-04T09:35:40Z</time>
      </trkpt>
      <trkpt lat="54.228575974702835" lon="-9.285648018121719">
        <ele>22.73</ele>
        <time>2026-07-04T09:35:54Z</time>
      </trkpt>
      <trkpt lat="54.226839998736978" lon="-9.283012999221683">
        <ele>22.25</ele>
        <time>2026-07-04T09:36:08Z</time>
      </trkpt>
      <trkpt lat="54.225583970546722" lon="-9.280785005539656">
        <ele>21.289999999999999</ele>
        <time>2026-07-04T09:36:19Z</time>
      </trkpt>
      <trkpt lat="54.224947029724717" lon="-9.278464978560805">
        <ele>17.440000000000001</ele>
        <time>2026-07-04T09:36:28Z</time>
      </trkpt>
      <trkpt lat="54.22448099590838" lon="-9.275758964940906">
        <ele>12.15</ele>
        <time>2026-07-04T09:36:38Z</time>
      </trkpt>
      <trkpt lat="54.224272035062313" lon="-9.274386009201407">
        <ele>9.27</ele>
        <time>2026-07-04T09:36:43Z</time>
      </trkpt>
      <trkpt lat="54.224268011748791" lon="-9.274126002565026">
        <ele>8.789999999999999</ele>
        <time>2026-07-04T09:36:44Z</time>
      </trkpt>
      <trkpt lat="54.224287960678339" lon="-9.273890974000096">
        <ele>8.310000000000001</ele>
        <time>2026-07-04T09:36:45Z</time>
      </trkpt>
      <trkpt lat="54.224336994811893" lon="-9.273668015375733">
        <ele>7.83</ele>
        <time>2026-07-04T09:36:46Z</time>
      </trkpt>
      <trkpt lat="54.224387034773827" lon="-9.273434998467565">
        <ele>7.83</ele>
        <time>2026-07-04T09:36:47Z</time>
      </trkpt>
      <trkpt lat="54.224441014230251" lon="-9.273187983781099">
        <ele>7.35</ele>
        <time>2026-07-04T09:36:48Z</time>
      </trkpt>
      <trkpt lat="54.224834963679314" lon="-9.271753001958132">
        <ele>6.87</ele>
        <time>2026-07-04T09:36:54Z</time>
      </trkpt>
      <trkpt lat="54.225057000294328" lon="-9.270849013701081">
        <ele>5.91</ele>
        <time>2026-07-04T09:36:58Z</time>
      </trkpt>
      <trkpt lat="54.225353971123695" lon="-9.270046027377248">
        <ele>4.94</ele>
        <time>2026-07-04T09:37:03Z</time>
      </trkpt>
      <trkpt lat="54.225394958630204" lon="-9.269938990473747">
        <ele>4.46</ele>
        <time>2026-07-04T09:37:04Z</time>
      </trkpt>
      <trkpt lat="54.22549101524055" lon="-9.269692981615663">
        <ele>3.5</ele>
        <time>2026-07-04T09:37:09Z</time>
      </trkpt>
      <trkpt lat="54.225490009412169" lon="-9.269689964130521">
        <ele>3.02</ele>
        <time>2026-07-04T09:37:10Z</time>
      </trkpt>
      <trkpt lat="54.225482968613505" lon="-9.269627016037703">
        <ele>3.02</ele>
        <time>2026-07-04T09:37:11Z</time>
      </trkpt>
      <trkpt lat="54.225468970835209" lon="-9.269500030204654">
        <ele>3.02</ele>
        <time>2026-07-04T09:37:12Z</time>
      </trkpt>
      <trkpt lat="54.225455978885293" lon="-9.269484020769596">
        <ele>3.02</ele>
        <time>2026-07-04T09:37:13Z</time>
      </trkpt>
      <trkpt lat="54.225395964458585" lon="-9.269412020221353">
        <ele>3.02</ele>
        <time>2026-07-04T09:37:14Z</time>
      </trkpt>
      <trkpt lat="54.225324969738722" lon="-9.269329961389303">
        <ele>3.5</ele>
        <time>2026-07-04T09:37:15Z</time>
      </trkpt>
      <trkpt lat="54.224976031109691" lon="-9.268921008333564">
        <ele>4.94</ele>
        <time>2026-07-04T09:37:20Z</time>
      </trkpt>
      <trkpt lat="54.224926996976137" lon="-9.268807014450431">
        <ele>4.94</ele>
        <time>2026-07-04T09:37:21Z</time>
      </trkpt>
      <trkpt lat="54.22491098754108" lon="-9.268713975325227">
        <ele>5.42</ele>
        <time>2026-07-04T09:37:22Z</time>
      </trkpt>
      <trkpt lat="54.22491098754108" lon="-9.268594030290842">
        <ele>5.42</ele>
        <time>2026-07-04T09:37:23Z</time>
      </trkpt>
      <trkpt lat="54.224921967834234" lon="-9.268463021144271">
        <ele>5.91</ele>
        <time>2026-07-04T09:37:24Z</time>
      </trkpt>
      <trkpt lat="54.224940994754434" lon="-9.268308961763978">
        <ele>6.39</ele>
        <time>2026-07-04T09:37:25Z</time>
      </trkpt>
      <trkpt lat="54.224961027503014" lon="-9.268143000081182">
        <ele>6.87</ele>
        <time>2026-07-04T09:37:26Z</time>
      </trkpt>
      <trkpt lat="54.224981982260942" lon="-9.267961028963327">
        <ele>6.87</ele>
        <time>2026-07-04T09:37:27Z</time>
      </trkpt>
      <trkpt lat="54.225437035784125" lon="-9.266416998580098">
        <ele>7.35</ele>
        <time>2026-07-04T09:37:35Z</time>
      </trkpt>
      <trkpt lat="54.225722020491958" lon="-9.265911988914013">
        <ele>6.87</ele>
        <time>2026-07-04T09:37:38Z</time>
      </trkpt>
      <trkpt lat="54.225820004940033" lon="-9.265737980604172">
        <ele>6.87</ele>
        <time>2026-07-04T09:37:40Z</time>
      </trkpt>
      <trkpt lat="54.226042963564396" lon="-9.265428017824888">
        <ele>7.35</ele>
        <time>2026-07-04T09:37:41Z</time>
      </trkpt>
      <trkpt lat="54.22615896910429" lon="-9.265280999243259">
        <ele>7.35</ele>
        <time>2026-07-04T09:37:42Z</time>
      </trkpt>
      <trkpt lat="54.226282015442848" lon="-9.265146972611547">
        <ele>7.83</ele>
        <time>2026-07-04T09:37:43Z</time>
      </trkpt>
      <trkpt lat="54.226409001275897" lon="-9.265019986778498">
        <ele>8.310000000000001</ele>
        <time>2026-07-04T09:37:44Z</time>
      </trkpt>
      <trkpt lat="54.226923985406756" lon="-9.264497961848974">
        <ele>10.23</ele>
        <time>2026-07-04T09:37:48Z</time>
      </trkpt>
      <trkpt lat="54.227043008431792" lon="-9.264329988509417">
        <ele>10.23</ele>
        <time>2026-07-04T09:37:49Z</time>
      </trkpt>
      <trkpt lat="54.227605015039444" lon="-9.263073960319161">
        <ele>9.27</ele>
        <time>2026-07-04T09:37:55Z</time>
      </trkpt>
      <trkpt lat="54.227735018357635" lon="-9.262311961501837">
        <ele>9.27</ele>
        <time>2026-07-04T09:37:58Z</time>
      </trkpt>
      <trkpt lat="54.22774801030755" lon="-9.262051032856107">
        <ele>9.27</ele>
        <time>2026-07-04T09:37:59Z</time>
      </trkpt>
      <trkpt lat="54.227753961458802" lon="-9.261784991249442">
        <ele>9.75</ele>
        <time>2026-07-04T09:38:00Z</time>
      </trkpt>
      <trkpt lat="54.227759996429086" lon="-9.261521967127919">
        <ele>9.27</ele>
        <time>2026-07-04T09:38:01Z</time>
      </trkpt>
      <trkpt lat="54.227765025570989" lon="-9.261256009340286">
        <ele>9.27</ele>
        <time>2026-07-04T09:38:02Z</time>
      </trkpt>
      <trkpt lat="54.227427989244461" lon="-9.258397025987506">
        <ele>7.35</ele>
        <time>2026-07-04T09:38:13Z</time>
      </trkpt>
      <trkpt lat="54.226755006238818" lon="-9.254718963056803">
        <ele>7.35</ele>
        <time>2026-07-04T09:38:27Z</time>
      </trkpt>
      <trkpt lat="54.226628020405769" lon="-9.253628980368376">
        <ele>7.83</ele>
        <time>2026-07-04T09:38:31Z</time>
      </trkpt>
      <trkpt lat="54.22650002874434" lon="-9.251116001978517">
        <ele>10.23</ele>
        <time>2026-07-04T09:38:40Z</time>
      </trkpt>
      <trkpt lat="54.226082023233175" lon="-9.248391967266798">
        <ele>9.75</ele>
        <time>2026-07-04T09:38:50Z</time>
      </trkpt>
      <trkpt lat="54.225645996630192" lon="-9.2461590282619">
        <ele>11.67</ele>
        <time>2026-07-04T09:38:58Z</time>
      </trkpt>
      <trkpt lat="54.224947029724717" lon="-9.242392033338547">
        <ele>7.35</ele>
        <time>2026-07-04T09:39:11Z</time>
      </trkpt>
      <trkpt lat="54.224735973402858" lon="-9.239408997818828">
        <ele>8.310000000000001</ele>
        <time>2026-07-04T09:39:21Z</time>
      </trkpt>
      <trkpt lat="54.224446965381503" lon="-9.236155981197953">
        <ele>6.87</ele>
        <time>2026-07-04T09:39:32Z</time>
      </trkpt>
      <trkpt lat="54.22435300424695" lon="-9.232399966567755">
        <ele>9.27</ele>
        <time>2026-07-04T09:39:44Z</time>
      </trkpt>
      <trkpt lat="54.224048992618918" lon="-9.23006703145802">
        <ele>9.27</ele>
        <time>2026-07-04T09:39:52Z</time>
      </trkpt>
      <trkpt lat="54.223391013219953" lon="-9.228343963623047">
        <ele>8.310000000000001</ele>
        <time>2026-07-04T09:39:59Z</time>
      </trkpt>
      <trkpt lat="54.222250990569592" lon="-9.226994980126619">
        <ele>8.310000000000001</ele>
        <time>2026-07-04T09:40:07Z</time>
      </trkpt>
      <trkpt lat="54.219856029376388" lon="-9.22497401945293">
        <ele>8.310000000000001</ele>
        <time>2026-07-04T09:40:23Z</time>
      </trkpt>
      <trkpt lat="54.219449004158378" lon="-9.224818032234907">
        <ele>6.87</ele>
        <time>2026-07-04T09:40:26Z</time>
      </trkpt>
      <trkpt lat="54.219320006668568" lon="-9.224811997264624">
        <ele>6.39</ele>
        <time>2026-07-04T09:40:27Z</time>
      </trkpt>
      <trkpt lat="54.219194026663899" lon="-9.22480596229434">
        <ele>6.39</ele>
        <time>2026-07-04T09:40:28Z</time>
      </trkpt>
      <trkpt lat="54.219065029174089" lon="-9.224828006699681">
        <ele>5.91</ele>
        <time>2026-07-04T09:40:29Z</time>
      </trkpt>
      <trkpt lat="54.218931002542377" lon="-9.224873017519712">
        <ele>6.39</ele>
        <time>2026-07-04T09:40:30Z</time>
      </trkpt>
      <trkpt lat="54.217615965753794" lon="-9.225064041092992">
        <ele>7.35</ele>
        <time>2026-07-04T09:40:39Z</time>
      </trkpt>
      <trkpt lat="54.217313965782523" lon="-9.225008971989155">
        <ele>7.35</ele>
        <time>2026-07-04T09:40:41Z</time>
      </trkpt>
      <trkpt lat="54.217166025191545" lon="-9.224962033331394">
        <ele>7.35</ele>
        <time>2026-07-04T09:40:42Z</time>
      </trkpt>
      <trkpt lat="54.216878022998571" lon="-9.22478199005127">
        <ele>7.83</ele>
        <time>2026-07-04T09:40:44Z</time>
      </trkpt>
      <trkpt lat="54.215595005080104" lon="-9.224046980962157">
        <ele>6.39</ele>
        <time>2026-07-04T09:40:53Z</time>
      </trkpt>
      <trkpt lat="54.214703002944589" lon="-9.223736012354493">
        <ele>6.39</ele>
        <time>2026-07-04T09:41:01Z</time>
      </trkpt>
      <trkpt lat="54.21462002210319" lon="-9.223699970170856">
        <ele>6.87</ele>
        <time>2026-07-04T09:41:02Z</time>
      </trkpt>
      <trkpt lat="54.214535029605031" lon="-9.223663005977869">
        <ele>7.83</ele>
        <time>2026-07-04T09:41:03Z</time>
      </trkpt>
      <trkpt lat="54.214450037106872" lon="-9.223626041784883">
        <ele>8.310000000000001</ele>
        <time>2026-07-04T09:41:04Z</time>
      </trkpt>
      <trkpt lat="54.21436496078968" lon="-9.223588993772864">
        <ele>8.310000000000001</ele>
        <time>2026-07-04T09:41:05Z</time>
      </trkpt>
      <trkpt lat="54.214247027412057" lon="-9.223538031801581">
        <ele>8.789999999999999</ele>
        <time>2026-07-04T09:41:06Z</time>
      </trkpt>
      <trkpt lat="54.214198999106884" lon="-9.223461002111435">
        <ele>8.789999999999999</ele>
        <time>2026-07-04T09:41:07Z</time>
      </trkpt>
      <trkpt lat="54.214129010215402" lon="-9.223341979086399">
        <ele>8.310000000000001</ele>
        <time>2026-07-04T09:41:08Z</time>
      </trkpt>
      <trkpt lat="54.214073019102216" lon="-9.223217004910111">
        <ele>8.310000000000001</ele>
        <time>2026-07-04T09:41:09Z</time>
      </trkpt>
      <trkpt lat="54.21401996165514" lon="-9.223095970228314">
        <ele>8.789999999999999</ele>
        <time>2026-07-04T09:41:10Z</time>
      </trkpt>
      <trkpt lat="54.213967993855476" lon="-9.22297996468842">
        <ele>8.789999999999999</ele>
        <time>2026-07-04T09:41:11Z</time>
      </trkpt>
      <trkpt lat="54.213795997202396" lon="-9.222464980557561">
        <ele>10.710000000000001</ele>
        <time>2026-07-04T09:41:18Z</time>
      </trkpt>
      <trkpt lat="54.213765989989042" lon="-9.222348975017667">
        <ele>13.119999999999999</ele>
        <time>2026-07-04T09:41:23Z</time>
      </trkpt>
      <trkpt lat="54.213757021352649" lon="-9.222316034138203">
        <ele>13.119999999999999</ele>
        <time>2026-07-04T09:41:24Z</time>
      </trkpt>
      <trkpt lat="54.213748974725604" lon="-9.222286026924849">
        <ele>13.119999999999999</ele>
        <time>2026-07-04T09:41:25Z</time>
      </trkpt>
      <trkpt lat="54.213743023574352" lon="-9.222262976691127">
        <ele>13.119999999999999</ele>
        <time>2026-07-04T09:41:26Z</time>
      </trkpt>
      <trkpt lat="54.213743023574352" lon="-9.222262976691127">
        <ele>12.630000000000001</ele>
        <time>2026-07-04T09:41:43Z</time>
      </trkpt>
      <trkpt lat="54.212427986785769" lon="-9.220286021009088">
        <ele>25.129999999999999</ele>
        <time>2026-07-04T10:00:23Z</time>
      </trkpt>
      <trkpt lat="54.212477020919323" lon="-9.220217037945986">
        <ele>12.15</ele>
        <time>2026-07-04T10:00:52Z</time>
      </trkpt>
      <trkpt lat="54.212460005655885" lon="-9.220221983268857">
        <ele>13.119999999999999</ele>
        <time>2026-07-04T10:01:40Z</time>
      </trkpt>
      <trkpt lat="54.212452964857221" lon="-9.220205973833799">
        <ele>13.119999999999999</ele>
        <time>2026-07-04T10:01:46Z</time>
      </trkpt>
      <trkpt lat="54.212421029806137" lon="-9.220265988260508">
        <ele>13.6</ele>
        <time>2026-07-04T10:01:49Z</time>
      </trkpt>
      <trkpt lat="54.212438967078924" lon="-9.220422981306911">
        <ele>13.6</ele>
        <time>2026-07-04T10:01:51Z</time>
      </trkpt>
      <trkpt lat="54.212509961798787" lon="-9.221074003726244">
        <ele>14.56</ele>
        <time>2026-07-04T10:01:58Z</time>
      </trkpt>
      <trkpt lat="54.212540974840522" lon="-9.221253963187337">
        <ele>14.56</ele>
        <time>2026-07-04T10:01:59Z</time>
      </trkpt>
      <trkpt lat="54.212540974840522" lon="-9.221253963187337">
        <ele>15.039999999999999</ele>
        <time>2026-07-04T10:02:00Z</time>
      </trkpt>
      <trkpt lat="54.212554972618818" lon="-9.221329987049103">
        <ele>15.52</ele>
        <time>2026-07-04T10:02:01Z</time>
      </trkpt>
      <trkpt lat="54.212564025074244" lon="-9.221384972333908">
        <ele>16</ele>
        <time>2026-07-04T10:02:02Z</time>
      </trkpt>
      <trkpt lat="54.212572993710637" lon="-9.221435012295842">
        <ele>16</ele>
        <time>2026-07-04T10:02:03Z</time>
      </trkpt>
      <trkpt lat="54.212524965405464" lon="-9.221468036994338">
        <ele>16.48</ele>
        <time>2026-07-04T10:02:04Z</time>
      </trkpt>
      <trkpt lat="54.212500993162394" lon="-9.221483962610364">
        <ele>16.48</ele>
        <time>2026-07-04T10:02:05Z</time>
      </trkpt>
      <trkpt lat="54.212466040626168" lon="-9.221509024500847">
        <ele>16</ele>
        <time>2026-07-04T10:02:06Z</time>
      </trkpt>
      <trkpt lat="54.212422035634518" lon="-9.221539031714201">
        <ele>16</ele>
        <time>2026-07-04T10:02:07Z</time>
      </trkpt>
      <trkpt lat="54.212368978187442" lon="-9.221575995907188">
        <ele>16</ele>
        <time>2026-07-04T10:02:08Z</time>
      </trkpt>
      <trkpt lat="54.212311981245875" lon="-9.221615977585316">
        <ele>16</ele>
        <time>2026-07-04T10:02:09Z</time>
      </trkpt>
      <trkpt lat="54.211729019880295" lon="-9.221917977556586">
        <ele>13.119999999999999</ele>
        <time>2026-07-04T10:02:17Z</time>
      </trkpt>
      <trkpt lat="54.211667999625206" lon="-9.221949996426702">
        <ele>12.630000000000001</ele>
        <time>2026-07-04T10:02:18Z</time>
      </trkpt>
      <trkpt lat="54.211606979370117" lon="-9.221981009468436">
        <ele>12.15</ele>
        <time>2026-07-04T10:02:19Z</time>
      </trkpt>
      <trkpt lat="54.211543025448918" lon="-9.222014034166932">
        <ele>12.15</ele>
        <time>2026-07-04T10:02:20Z</time>
      </trkpt>
      <trkpt lat="54.211478987708688" lon="-9.222085028886795">
        <ele>12.15</ele>
        <time>2026-07-04T10:02:21Z</time>
      </trkpt>
      <trkpt lat="54.21141897328198" lon="-9.222152000293136">
        <ele>12.15</ele>
        <time>2026-07-04T10:02:22Z</time>
      </trkpt>
      <trkpt lat="54.211358036845922" lon="-9.222219977527857">
        <ele>12.630000000000001</ele>
        <time>2026-07-04T10:02:23Z</time>
      </trkpt>
      <trkpt lat="54.211318977177143" lon="-9.222341012209654">
        <ele>12.630000000000001</ele>
        <time>2026-07-04T10:02:24Z</time>
      </trkpt>
      <trkpt lat="54.211284024640918" lon="-9.22246104106307">
        <ele>12.630000000000001</ele>
        <time>2026-07-04T10:02:25Z</time>
      </trkpt>
      <trkpt lat="54.211252005770802" lon="-9.222576962783933">
        <ele>13.119999999999999</ele>
        <time>2026-07-04T10:02:26Z</time>
      </trkpt>
      <trkpt lat="54.211147986352444" lon="-9.222947023808956">
        <ele>13.6</ele>
        <time>2026-07-04T10:02:33Z</time>
      </trkpt>
      <trkpt lat="54.211114039644599" lon="-9.223065041005611">
        <ele>13.6</ele>
        <time>2026-07-04T10:02:35Z</time>
      </trkpt>
      <trkpt lat="54.21111898496747" lon="-9.223079038783908">
        <ele>13.6</ele>
        <time>2026-07-04T10:02:36Z</time>
      </trkpt>
      <trkpt lat="54.211197020485997" lon="-9.22308599576354">
        <ele>13.119999999999999</ele>
        <time>2026-07-04T10:02:37Z</time>
      </trkpt>
      <trkpt lat="54.211243959143758" lon="-9.223097981885076">
        <ele>13.119999999999999</ele>
        <time>2026-07-04T10:02:38Z</time>
      </trkpt>
      <trkpt lat="54.211301961913705" lon="-9.223111979663372">
        <ele>13.119999999999999</ele>
        <time>2026-07-04T10:02:39Z</time>
      </trkpt>
      <trkpt lat="54.211372034624219" lon="-9.223130000755191">
        <ele>12.630000000000001</ele>
        <time>2026-07-04T10:02:40Z</time>
      </trkpt>
      <trkpt lat="54.212138978764415" lon="-9.223236031830311">
        <ele>8.789999999999999</ele>
        <time>2026-07-04T10:02:50Z</time>
      </trkpt>
      <trkpt lat="54.212236041203141" lon="-9.223199989646673">
        <ele>8.310000000000001</ele>
        <time>2026-07-04T10:02:52Z</time>
      </trkpt>
      <trkpt lat="54.212267976254225" lon="-9.223114997148514">
        <ele>7.35</ele>
        <time>2026-07-04T10:02:53Z</time>
      </trkpt>
      <trkpt lat="54.212388005107641" lon="-9.222797993570566">
        <ele>7.83</ele>
        <time>2026-07-04T10:02:56Z</time>
      </trkpt>
      <trkpt lat="54.212520020082593" lon="-9.222447965294123">
        <ele>9.27</ele>
        <time>2026-07-04T10:03:03Z</time>
      </trkpt>
      <trkpt lat="54.212466040626168" lon="-9.222272029146552">
        <ele>9.27</ele>
        <time>2026-07-04T10:03:07Z</time>
      </trkpt>
      <trkpt lat="54.212466040626168" lon="-9.222272029146552">
        <ele>9.27</ele>
        <time>2026-07-04T10:03:08Z</time>
      </trkpt>
      <trkpt lat="54.212466040626168" lon="-9.222272029146552">
        <ele>9.27</ele>
        <time>2026-07-04T10:03:09Z</time>
      </trkpt>
      <trkpt lat="54.212464028969407" lon="-9.222262976691127">
        <ele>9.27</ele>
        <time>2026-07-04T10:03:10Z</time>
      </trkpt>
      <trkpt lat="54.212457993999124" lon="-9.222242021933198">
        <ele>9.75</ele>
        <time>2026-07-04T10:03:11Z</time>
      </trkpt>
      <trkpt lat="54.212457993999124" lon="-9.222242021933198">
        <ele>9.75</ele>
        <time>2026-07-04T10:03:12Z</time>
      </trkpt>
      <trkpt lat="54.21244902536273" lon="-9.222207991406322">
        <ele>9.75</ele>
        <time>2026-07-04T10:03:13Z</time>
      </trkpt>
      <trkpt lat="54.212440978735685" lon="-9.222177984192967">
        <ele>9.75</ele>
        <time>2026-07-04T10:03:14Z</time>
      </trkpt>
      <trkpt lat="54.212427986785769" lon="-9.222130961716175">
        <ele>9.75</ele>
        <time>2026-07-04T10:03:15Z</time>
      </trkpt>
      <trkpt lat="54.212333019822836" lon="-9.221772970631719">
        <ele>10.23</ele>
        <time>2026-07-04T10:03:20Z</time>
      </trkpt>
      <trkpt lat="54.21232296153903" lon="-9.221733994781971">
        <ele>9.75</ele>
        <time>2026-07-04T10:03:30Z</time>
      </trkpt>
      <trkpt lat="54.212319022044539" lon="-9.221718991175294">
        <ele>9.75</ele>
        <time>2026-07-04T10:03:31Z</time>
      </trkpt>
      <trkpt lat="54.21232002787292" lon="-9.221610026434064">
        <ele>9.27</ele>
        <time>2026-07-04T10:03:33Z</time>
      </trkpt>
      <trkpt lat="54.212341988459229" lon="-9.221595022827387">
        <ele>9.27</ele>
        <time>2026-07-04T10:03:34Z</time>
      </trkpt>
      <trkpt lat="54.212375013157725" lon="-9.221571972593665">
        <ele>9.27</ele>
        <time>2026-07-04T10:03:35Z</time>
      </trkpt>
      <trkpt lat="54.212423963472247" lon="-9.22153802588582">
        <ele>9.27</ele>
        <time>2026-07-04T10:03:36Z</time>
      </trkpt>
      <trkpt lat="54.212479032576084" lon="-9.221499972045422">
        <ele>9.75</ele>
        <time>2026-07-04T10:03:37Z</time>
      </trkpt>
      <trkpt lat="54.212538963183761" lon="-9.221458984538913">
        <ele>9.75</ele>
        <time>2026-07-04T10:03:38Z</time>
      </trkpt>
      <trkpt lat="54.212638037279248" lon="-9.221521010622382">
        <ele>9.75</ele>
        <time>2026-07-04T10:03:39Z</time>
      </trkpt>
      <trkpt lat="54.212672989815474" lon="-9.221525033935905">
        <ele>10.23</ele>
        <time>2026-07-04T10:03:40Z</time>
      </trkpt>
      <trkpt lat="54.212731998413801" lon="-9.221531990915537">
        <ele>10.23</ele>
        <time>2026-07-04T10:03:41Z</time>
      </trkpt>
      <trkpt lat="54.212794024497271" lon="-9.221540037542582">
        <ele>10.710000000000001</ele>
        <time>2026-07-04T10:03:42Z</time>
      </trkpt>
      <trkpt lat="54.212853033095598" lon="-9.221546994522214">
        <ele>11.19</ele>
        <time>2026-07-04T10:03:43Z</time>
      </trkpt>
      <trkpt lat="54.212912963703275" lon="-9.221555041149259">
        <ele>11.67</ele>
        <time>2026-07-04T10:03:44Z</time>
      </trkpt>
      <trkpt lat="54.212981024757028" lon="-9.221563003957272">
        <ele>11.67</ele>
        <time>2026-07-04T10:03:45Z</time>
      </trkpt>
      <trkpt lat="54.213033998385072" lon="-9.221539031714201">
        <ele>11.67</ele>
        <time>2026-07-04T10:03:46Z</time>
      </trkpt>
      <trkpt lat="54.21309401281178" lon="-9.221511958166957">
        <ele>11.67</ele>
        <time>2026-07-04T10:03:47Z</time>
      </trkpt>
      <trkpt lat="54.213156960904598" lon="-9.221483040601015">
        <ele>11.19</ele>
        <time>2026-07-04T10:03:48Z</time>
      </trkpt>
      <trkpt lat="54.213216975331306" lon="-9.221455967053771">
        <ele>11.19</ele>
        <time>2026-07-04T10:03:49Z</time>
      </trkpt>
      <trkpt lat="54.213418979197741" lon="-9.221364017575979">
        <ele>12.15</ele>
        <time>2026-07-04T10:03:56Z</time>
      </trkpt>
      <trkpt lat="54.213540013879538" lon="-9.22113100066781">
        <ele>13.119999999999999</ele>
        <time>2026-07-04T10:04:07Z</time>
      </trkpt>
      <trkpt lat="54.213715028017759" lon="-9.220693968236446">
        <ele>12.15</ele>
        <time>2026-07-04T10:04:12Z</time>
      </trkpt>
      <trkpt lat="54.213755009695888" lon="-9.22059397213161">
        <ele>11.67</ele>
        <time>2026-07-04T10:04:13Z</time>
      </trkpt>
      <trkpt lat="54.213791973888874" lon="-9.220501016825438">
        <ele>11.19</ele>
        <time>2026-07-04T10:04:14Z</time>
      </trkpt>
      <trkpt lat="54.213786022737622" lon="-9.22044200822711">
        <ele>10.710000000000001</ele>
        <time>2026-07-04T10:04:15Z</time>
      </trkpt>
      <trkpt lat="54.213766995817423" lon="-9.220359027385712">
        <ele>10.710000000000001</ele>
        <time>2026-07-04T10:04:16Z</time>
      </trkpt>
      <trkpt lat="54.213749980553985" lon="-9.220291972160339">
        <ele>10.23</ele>
        <time>2026-07-04T10:04:17Z</time>
      </trkpt>
      <trkpt lat="54.213689966127276" lon="-9.220214020460844">
        <ele>9.75</ele>
        <time>2026-07-04T10:04:18Z</time>
      </trkpt>
      <trkpt lat="54.213618971407413" lon="-9.220114024356008">
        <ele>9.27</ele>
        <time>2026-07-04T10:04:19Z</time>
      </trkpt>
      <trkpt lat="54.213564991950989" lon="-9.219986032694578">
        <ele>8.789999999999999</ele>
        <time>2026-07-04T10:04:20Z</time>
      </trkpt>
      <trkpt lat="54.213445968925953" lon="-9.219708004966378">
        <ele>6.87</ele>
        <time>2026-07-04T10:04:22Z</time>
      </trkpt>
      <trkpt lat="54.213388971984386" lon="-9.219576995819807">
        <ele>6.39</ele>
        <time>2026-07-04T10:04:23Z</time>
      </trkpt>
      <trkpt lat="54.213367011398077" lon="-9.219525028020144">
        <ele>5.42</ele>
        <time>2026-07-04T10:04:24Z</time>
      </trkpt>
      <trkpt lat="54.213259974494576" lon="-9.219484040513635">
        <ele>4.94</ele>
        <time>2026-07-04T10:04:25Z</time>
      </trkpt>
      <trkpt lat="54.213172970339656" lon="-9.219451015815139">
        <ele>4.46</ele>
        <time>2026-07-04T10:04:26Z</time>
      </trkpt>
      <trkpt lat="54.212679024785757" lon="-9.219262003898621">
        <ele>2.06</ele>
        <time>2026-07-04T10:04:31Z</time>
      </trkpt>
      <trkpt lat="54.212594032287598" lon="-9.219216993078589">
        <ele>1.58</ele>
        <time>2026-07-04T10:04:32Z</time>
      </trkpt>
      <trkpt lat="54.212384987622499" lon="-9.219078021124005">
        <ele>1.1</ele>
        <time>2026-07-04T10:04:35Z</time>
      </trkpt>
      <trkpt lat="54.212333019822836" lon="-9.219042984768748">
        <ele>1.1</ele>
        <time>2026-07-04T10:04:36Z</time>
      </trkpt>
      <trkpt lat="54.212291026487947" lon="-9.219014989212155">
        <ele>1.1</ele>
        <time>2026-07-04T10:04:37Z</time>
      </trkpt>
      <trkpt lat="54.212260013446212" lon="-9.218994034454227">
        <ele>1.1</ele>
        <time>2026-07-04T10:04:38Z</time>
      </trkpt>
      <trkpt lat="54.212233023717999" lon="-9.219013983383775">
        <ele>1.1</ele>
        <time>2026-07-04T10:04:39Z</time>
      </trkpt>
      <trkpt lat="54.212168985977769" lon="-9.219104005023837">
        <ele>1.1</ele>
        <time>2026-07-04T10:04:40Z</time>
      </trkpt>
      <trkpt lat="54.212133027613163" lon="-9.21915396116674">
        <ele>1.1</ele>
        <time>2026-07-04T10:04:41Z</time>
      </trkpt>
      <trkpt lat="54.212100002914667" lon="-9.219200983643532">
        <ele>1.1</ele>
        <time>2026-07-04T10:04:42Z</time>
      </trkpt>
      <trkpt lat="54.212073013186455" lon="-9.219239037483931">
        <ele>1.1</ele>
        <time>2026-07-04T10:04:43Z</time>
      </trkpt>
      <trkpt lat="54.212049040943384" lon="-9.219271978363395">
        <ele>1.1</ele>
        <time>2026-07-04T10:04:44Z</time>
      </trkpt>
      <trkpt lat="54.212036971002817" lon="-9.219288993626833">
        <ele>1.1</ele>
        <time>2026-07-04T10:04:45Z</time>
      </trkpt>
      <trkpt lat="54.212011992931366" lon="-9.219354037195444">
        <ele>1.1</ele>
        <time>2026-07-04T10:04:52Z</time>
      </trkpt>
      <trkpt lat="54.211954995989799" lon="-9.219507006928325">
        <ele>1.58</ele>
        <time>2026-07-04T10:04:56Z</time>
      </trkpt>
      <trkpt lat="54.211937980726361" lon="-9.219552017748356">
        <ele>1.58</ele>
        <time>2026-07-04T10:04:57Z</time>
      </trkpt>
      <trkpt lat="54.211874026805162" lon="-9.219613038003445">
        <ele>2.06</ele>
        <time>2026-07-04T10:04:58Z</time>
      </trkpt>
      <trkpt lat="54.211834967136383" lon="-9.219590993598104">
        <ele>2.06</ele>
        <time>2026-07-04T10:04:59Z</time>
      </trkpt>
      <trkpt lat="54.2117840051651" lon="-9.21956199221313">
        <ele>2.54</ele>
        <time>2026-07-04T10:05:00Z</time>
      </trkpt>
      <trkpt lat="54.211570015177131" lon="-9.219441963359714">
        <ele>4.46</ele>
        <time>2026-07-04T10:05:05Z</time>
      </trkpt>
      <trkpt lat="54.211350996047258" lon="-9.219338027760387">
        <ele>6.87</ele>
        <time>2026-07-04T10:05:09Z</time>
      </trkpt>
      <trkpt lat="54.211285030469298" lon="-9.219288993626833">
        <ele>7.35</ele>
        <time>2026-07-04T10:05:10Z</time>
      </trkpt>
      <trkpt lat="54.211217975243926" lon="-9.21923803165555">
        <ele>7.83</ele>
        <time>2026-07-04T10:05:11Z</time>
      </trkpt>
      <trkpt lat="54.211156032979488" lon="-9.21915203332901">
        <ele>8.789999999999999</ele>
        <time>2026-07-04T10:05:12Z</time>
      </trkpt>
      <trkpt lat="54.211100963875651" lon="-9.219060000032187">
        <ele>9.27</ele>
        <time>2026-07-04T10:05:13Z</time>
      </trkpt>
      <trkpt lat="54.211051007732749" lon="-9.218928990885615">
        <ele>9.75</ele>
        <time>2026-07-04T10:05:14Z</time>
      </trkpt>
      <trkpt lat="54.211015971377492" lon="-9.218790018931031">
        <ele>10.23</ele>
        <time>2026-07-04T10:05:15Z</time>
      </trkpt>
      <trkpt lat="54.210716988891363" lon="-9.217221010476351">
        <ele>10.23</ele>
        <time>2026-07-04T10:05:24Z</time>
      </trkpt>
      <trkpt lat="54.210682958364487" lon="-9.217010959982872">
        <ele>9.75</ele>
        <time>2026-07-04T10:05:25Z</time>
      </trkpt>
      <trkpt lat="54.210581034421921" lon="-9.216378964483738">
        <ele>8.789999999999999</ele>
        <time>2026-07-04T10:05:28Z</time>
      </trkpt>
      <trkpt lat="54.210329996421933" lon="-9.213848970830441">
        <ele>10.710000000000001</ele>
        <time>2026-07-04T10:05:40Z</time>
      </trkpt>
      <trkpt lat="54.210309041664004" lon="-9.213626012206078">
        <ele>10.710000000000001</ele>
        <time>2026-07-04T10:05:41Z</time>
      </trkpt>
      <trkpt lat="54.21028096228838" lon="-9.213409004732966">
        <ele>11.19</ele>
        <time>2026-07-04T10:05:42Z</time>
      </trkpt>
      <trkpt lat="54.210242992267013" lon="-9.213183028623462">
        <ele>11.19</ele>
        <time>2026-07-04T10:05:43Z</time>
      </trkpt>
      <trkpt lat="54.210205022245646" lon="-9.212956968694925">
        <ele>11.67</ele>
        <time>2026-07-04T10:05:44Z</time>
      </trkpt>
      <trkpt lat="54.210165040567517" lon="-9.212733004242182">
        <ele>11.67</ele>
        <time>2026-07-04T10:05:45Z</time>
      </trkpt>
      <trkpt lat="54.210080970078707" lon="-9.212541980668902">
        <ele>12.15</ele>
        <time>2026-07-04T10:05:46Z</time>
      </trkpt>
      <trkpt lat="54.209993965923786" lon="-9.212345005944371">
        <ele>12.15</ele>
        <time>2026-07-04T10:05:47Z</time>
      </trkpt>
      <trkpt lat="54.208747996017337" lon="-9.210098991170526">
        <ele>4.46</ele>
        <time>2026-07-04T10:05:59Z</time>
      </trkpt>
      <trkpt lat="54.208516990765929" lon="-9.209759021177888">
        <ele>3.02</ele>
        <time>2026-07-04T10:06:01Z</time>
      </trkpt>
      <trkpt lat="54.208392016589642" lon="-9.209608985111117">
        <ele>2.54</ele>
        <time>2026-07-04T10:06:02Z</time>
      </trkpt>
      <trkpt lat="54.207696989178658" lon="-9.209242025390267">
        <ele>1.58</ele>
        <time>2026-07-04T10:06:07Z</time>
      </trkpt>
      <trkpt lat="54.207183010876179" lon="-9.209071034565568">
        <ele>3.5</ele>
        <time>2026-07-04T10:06:12Z</time>
      </trkpt>
      <trkpt lat="54.207104975357652" lon="-9.209045972675085">
        <ele>3.98</ele>
        <time>2026-07-04T10:06:14Z</time>
      </trkpt>
      <trkpt lat="54.20707899145782" lon="-9.209038009867072">
        <ele>4.46</ele>
        <time>2026-07-04T10:06:15Z</time>
      </trkpt>
      <trkpt lat="54.206998022273183" lon="-9.208953017368913">
        <ele>4.94</ele>
        <time>2026-07-04T10:06:16Z</time>
      </trkpt>
      <trkpt lat="54.207002967596054" lon="-9.208885040134192">
        <ele>5.42</ele>
        <time>2026-07-04T10:06:17Z</time>
      </trkpt>
      <trkpt lat="54.207010008394718" lon="-9.208786971867085">
        <ele>5.91</ele>
        <time>2026-07-04T10:06:18Z</time>
      </trkpt>
      <trkpt lat="54.207018977031112" lon="-9.208666021004319">
        <ele>6.39</ele>
        <time>2026-07-04T10:06:19Z</time>
      </trkpt>
      <trkpt lat="54.207029035314918" lon="-9.208526965230703">
        <ele>6.87</ele>
        <time>2026-07-04T10:06:20Z</time>
      </trkpt>
      <trkpt lat="54.207150992006063" lon="-9.207988008856773">
        <ele>7.83</ele>
        <time>2026-07-04T10:06:24Z</time>
      </trkpt>
      <trkpt lat="54.20727102085948" lon="-9.207519041374326">
        <ele>8.789999999999999</ele>
        <time>2026-07-04T10:06:27Z</time>
      </trkpt>
      <trkpt lat="54.207321982830763" lon="-9.207245036959648">
        <ele>9.27</ele>
        <time>2026-07-04T10:06:29Z</time>
      </trkpt>
      <trkpt lat="54.207330029457808" lon="-9.207119978964329">
        <ele>9.27</ele>
        <time>2026-07-04T10:06:30Z</time>
      </trkpt>
      <trkpt lat="54.207337992265821" lon="-9.207015037536621">
        <ele>9.27</ele>
        <time>2026-07-04T10:06:31Z</time>
      </trkpt>
      <trkpt lat="54.207306979224086" lon="-9.206914035603404">
        <ele>9.75</ele>
        <time>2026-07-04T10:06:32Z</time>
      </trkpt>
      <trkpt lat="54.207251993939281" lon="-9.206736003980041">
        <ele>9.75</ele>
        <time>2026-07-04T10:06:33Z</time>
      </trkpt>
      <trkpt lat="54.207104975357652" lon="-9.206515979021788">
        <ele>10.710000000000001</ele>
        <time>2026-07-04T10:06:36Z</time>
      </trkpt>
      <trkpt lat="54.20703599229455" lon="-9.206410031765699">
        <ele>11.19</ele>
        <time>2026-07-04T10:06:37Z</time>
      </trkpt>
      <trkpt lat="54.206919986754656" lon="-9.205996971577406">
        <ele>11.67</ele>
        <time>2026-07-04T10:06:40Z</time>
      </trkpt>
      <trkpt lat="54.206878999248147" lon="-9.205852970480919">
        <ele>11.19</ele>
        <time>2026-07-04T10:06:41Z</time>
      </trkpt>
      <trkpt lat="54.206825019791722" lon="-9.205708969384432">
        <ele>11.19</ele>
        <time>2026-07-04T10:06:42Z</time>
      </trkpt>
      <trkpt lat="54.206747990101576" lon="-9.205631017684937">
        <ele>10.710000000000001</ele>
        <time>2026-07-04T10:06:43Z</time>
      </trkpt>
      <trkpt lat="54.206666015088558" lon="-9.205549964681268">
        <ele>10.710000000000001</ele>
        <time>2026-07-04T10:06:44Z</time>
      </trkpt>
      <trkpt lat="54.206582028418779" lon="-9.205465978011489">
        <ele>10.710000000000001</ele>
        <time>2026-07-04T10:06:45Z</time>
      </trkpt>
      <trkpt lat="54.206503992900252" lon="-9.205388026311994">
        <ele>11.19</ele>
        <time>2026-07-04T10:06:46Z</time>
      </trkpt>
      <trkpt lat="54.206224959343672" lon="-9.204975971952081">
        <ele>11.67</ele>
        <time>2026-07-04T10:06:50Z</time>
      </trkpt>
      <trkpt lat="54.206152958795428" lon="-9.204831970855594">
        <ele>12.15</ele>
        <time>2026-07-04T10:06:51Z</time>
      </trkpt>
      <trkpt lat="54.206111971288919" lon="-9.204665003344417">
        <ele>12.630000000000001</ele>
        <time>2026-07-04T10:06:52Z</time>
      </trkpt>
      <trkpt lat="54.206068972125649" lon="-9.204495018348098">
        <ele>13.119999999999999</ele>
        <time>2026-07-04T10:06:53Z</time>
      </trkpt>
      <trkpt lat="54.206024967133999" lon="-9.204312041401863">
        <ele>13.6</ele>
        <time>2026-07-04T10:06:54Z</time>
      </trkpt>
      <trkpt lat="54.205592963844538" lon="-9.201624970883131">
        <ele>16</ele>
        <time>2026-07-04T10:07:07Z</time>
      </trkpt>
      <trkpt lat="54.205062976107001" lon="-9.198325015604496">
        <ele>14.08</ele>
        <time>2026-07-04T10:07:23Z</time>
      </trkpt>
      <trkpt lat="54.204944036900997" lon="-9.197509959340096">
        <ele>13.119999999999999</ele>
        <time>2026-07-04T10:07:27Z</time>
      </trkpt>
      <trkpt lat="54.204911012202501" lon="-9.1973249707371">
        <ele>12.630000000000001</ele>
        <time>2026-07-04T10:07:28Z</time>
      </trkpt>
      <trkpt lat="54.204798024147749" lon="-9.19610196724534">
        <ele>14.56</ele>
        <time>2026-07-04T10:07:34Z</time>
      </trkpt>
      <trkpt lat="54.204760976135731" lon="-9.195919996127486">
        <ele>15.039999999999999</ele>
        <time>2026-07-04T10:07:35Z</time>
      </trkpt>
      <trkpt lat="54.204151025041938" lon="-9.193838015198708">
        <ele>13.119999999999999</ele>
        <time>2026-07-04T10:07:46Z</time>
      </trkpt>
      <trkpt lat="54.204010963439941" lon="-9.193226974457502">
        <ele>13.6</ele>
        <time>2026-07-04T10:07:51Z</time>
      </trkpt>
      <trkpt lat="54.203966958448291" lon="-9.19300502166152">
        <ele>14.56</ele>
        <time>2026-07-04T10:08:00Z</time>
      </trkpt>
      <trkpt lat="54.203943992033601" lon="-9.192889016121626">
        <ele>14.56</ele>
        <time>2026-07-04T10:08:01Z</time>
      </trkpt>
      <trkpt lat="54.203676022589207" lon="-9.191527040675283">
        <ele>13.6</ele>
        <time>2026-07-04T10:08:10Z</time>
      </trkpt>
      <trkpt lat="54.203284000977874" lon="-9.189533991739154">
        <ele>14.08</ele>
        <time>2026-07-04T10:08:21Z</time>
      </trkpt>
      <trkpt lat="54.202923998236656" lon="-9.18787001632154">
        <ele>16</ele>
        <time>2026-07-04T10:08:34Z</time>
      </trkpt>
      <trkpt lat="54.20248101465404" lon="-9.186220038682222">
        <ele>21.289999999999999</ele>
        <time>2026-07-04T10:08:44Z</time>
      </trkpt>
      <trkpt lat="54.202258978039026" lon="-9.185389978811145">
        <ele>22.73</ele>
        <time>2026-07-04T10:08:52Z</time>
      </trkpt>
      <trkpt lat="54.201941974461079" lon="-9.184207040816546">
        <ele>21.77</ele>
        <time>2026-07-04T10:09:04Z</time>
      </trkpt>
      <trkpt lat="54.20170996338129" lon="-9.183450993150473">
        <ele>20.32</ele>
        <time>2026-07-04T10:09:12Z</time>
      </trkpt>
      <trkpt lat="54.201684985309839" lon="-9.183398019522429">
        <ele>19.84</ele>
        <time>2026-07-04T10:09:23Z</time>
      </trkpt>
      <trkpt lat="54.201684985309839" lon="-9.183398019522429">
        <ele>19.84</ele>
        <time>2026-07-04T10:09:44Z</time>
      </trkpt>
      <trkpt lat="54.201702000573277" lon="-9.183313027024269">
        <ele>41.950000000000003</ele>
        <time>2026-07-04T10:49:04Z</time>
      </trkpt>
      <trkpt lat="54.201650032773614" lon="-9.183210013434291">
        <ele>21.77</ele>
        <time>2026-07-04T10:49:21Z</time>
      </trkpt>
      <trkpt lat="54.201607033610344" lon="-9.183198027312756">
        <ele>18.879999999999999</ele>
        <time>2026-07-04T10:49:52Z</time>
      </trkpt>
      <trkpt lat="54.201608961448073" lon="-9.183194003999233">
        <ele>17.920000000000002</ele>
        <time>2026-07-04T10:50:02Z</time>
      </trkpt>
      <trkpt lat="54.201571997255087" lon="-9.183149999007583">
        <ele>17.920000000000002</ele>
        <time>2026-07-04T10:50:04Z</time>
      </trkpt>
      <trkpt lat="54.201539978384972" lon="-9.183084033429623">
        <ele>17.920000000000002</ele>
        <time>2026-07-04T10:50:05Z</time>
      </trkpt>
      <trkpt lat="54.20149203389883" lon="-9.183009015396237">
        <ele>17.920000000000002</ele>
        <time>2026-07-04T10:50:06Z</time>
      </trkpt>
      <trkpt lat="54.201437970623374" lon="-9.182926034554839">
        <ele>17.440000000000001</ele>
        <time>2026-07-04T10:50:07Z</time>
      </trkpt>
      <trkpt lat="54.200975960120559" lon="-9.182223966345191">
        <ele>16.48</ele>
        <time>2026-07-04T10:50:14Z</time>
      </trkpt>
      <trkpt lat="54.200281016528606" lon="-9.181229034438729">
        <ele>15.52</ele>
        <time>2026-07-04T10:50:23Z</time>
      </trkpt>
      <trkpt lat="54.199077039957047" lon="-9.179507978260517">
        <ele>16.960000000000001</ele>
        <time>2026-07-04T10:50:38Z</time>
      </trkpt>
      <trkpt lat="54.198345970362425" lon="-9.17861002497375">
        <ele>17.920000000000002</ele>
        <time>2026-07-04T10:50:47Z</time>
      </trkpt>
      <trkpt lat="54.19826801866293" lon="-9.178527966141701">
        <ele>18.399999999999999</ele>
        <time>2026-07-04T10:50:48Z</time>
      </trkpt>
      <trkpt lat="54.198190988972783" lon="-9.178455965593457">
        <ele>18.399999999999999</ele>
        <time>2026-07-04T10:50:49Z</time>
      </trkpt>
      <trkpt lat="54.196922974660993" lon="-9.177474025636911">
        <ele>14.56</ele>
        <time>2026-07-04T10:51:03Z</time>
      </trkpt>
      <trkpt lat="54.195614978671074" lon="-9.176554027944803">
        <ele>17.440000000000001</ele>
        <time>2026-07-04T10:51:16Z</time>
      </trkpt>
      <trkpt lat="54.194821966812015" lon="-9.175985986366868">
        <ele>29.460000000000001</ele>
        <time>2026-07-04T10:51:25Z</time>
      </trkpt>
      <trkpt lat="54.193754028528929" lon="-9.175232034176588">
        <ele>36.670000000000002</ele>
        <time>2026-07-04T10:51:36Z</time>
      </trkpt>
      <trkpt lat="54.193571973592043" lon="-9.175075041130185">
        <ele>37.149999999999999</ele>
        <time>2026-07-04T10:51:38Z</time>
      </trkpt>
      <trkpt lat="54.193481029942632" lon="-9.174984013661742">
        <ele>37.149999999999999</ele>
        <time>2026-07-04T10:51:39Z</time>
      </trkpt>
      <trkpt lat="54.193391008302569" lon="-9.17489399202168">
        <ele>37.149999999999999</ele>
        <time>2026-07-04T10:51:40Z</time>
      </trkpt>
      <trkpt lat="54.192295996472239" lon="-9.173563029617071">
        <ele>33.299999999999997</ele>
        <time>2026-07-04T10:51:52Z</time>
      </trkpt>
      <trkpt lat="54.192000031471252" lon="-9.173266980797052">
        <ele>31.859999999999999</ele>
        <time>2026-07-04T10:51:55Z</time>
      </trkpt>
      <trkpt lat="54.191103000193834" lon="-9.172370033338666">
        <ele>30.420000000000002</ele>
        <time>2026-07-04T10:52:05Z</time>
      </trkpt>
      <trkpt lat="54.190137991681695" lon="-9.171513989567757">
        <ele>29.460000000000001</ele>
        <time>2026-07-04T10:52:15Z</time>
      </trkpt>
      <trkpt lat="54.188926974311471" lon="-9.17057597078383">
        <ele>28.02</ele>
        <time>2026-07-04T10:52:27Z</time>
      </trkpt>
      <trkpt lat="54.187686033546925" lon="-9.169795028865337">
        <ele>28.5</ele>
        <time>2026-07-04T10:52:39Z</time>
      </trkpt>
      <trkpt lat="54.186972985044122" lon="-9.169571986421943">
        <ele>24.170000000000002</ele>
        <time>2026-07-04T10:52:47Z</time>
      </trkpt>
      <trkpt lat="54.186378959566355" lon="-9.169385991990566">
        <ele>20.809999999999999</ele>
        <time>2026-07-04T10:52:56Z</time>
      </trkpt>
      <trkpt lat="54.186344007030129" lon="-9.169375011697412">
        <ele>20.32</ele>
        <time>2026-07-04T10:52:57Z</time>
      </trkpt>
      <trkpt lat="54.186288015916944" lon="-9.169356990605593">
        <ele>19.84</ele>
        <time>2026-07-04T10:52:58Z</time>
      </trkpt>
      <trkpt lat="54.186275023967028" lon="-9.169456986710429">
        <ele>19.359999999999999</ele>
        <time>2026-07-04T10:52:59Z</time>
      </trkpt>
      <trkpt lat="54.186265971511602" lon="-9.169528987258673">
        <ele>18.879999999999999</ele>
        <time>2026-07-04T10:53:00Z</time>
      </trkpt>
      <trkpt lat="54.186253985390067" lon="-9.169623032212257">
        <ele>18.399999999999999</ele>
        <time>2026-07-04T10:53:01Z</time>
      </trkpt>
      <trkpt lat="54.186240993440151" lon="-9.169730991125107">
        <ele>18.399999999999999</ele>
        <time>2026-07-04T10:53:02Z</time>
      </trkpt>
      <trkpt lat="54.186226995661855" lon="-9.169838028028607">
        <ele>17.920000000000002</ele>
        <time>2026-07-04T10:53:03Z</time>
      </trkpt>
      <trkpt lat="54.186212997883558" lon="-9.169956967234612">
        <ele>17.920000000000002</ele>
        <time>2026-07-04T10:53:04Z</time>
      </trkpt>
      <trkpt lat="54.186197994276881" lon="-9.170074984431267">
        <ele>17.920000000000002</ele>
        <time>2026-07-04T10:53:05Z</time>
      </trkpt>
      <trkpt lat="54.186182990670204" lon="-9.170197024941444">
        <ele>17.920000000000002</ele>
        <time>2026-07-04T10:53:06Z</time>
      </trkpt>
      <trkpt lat="54.186159018427134" lon="-9.170386958867312">
        <ele>18.399999999999999</ele>
        <time>2026-07-04T10:53:07Z</time>
      </trkpt>
      <trkpt lat="54.186162035912275" lon="-9.170462982729077">
        <ele>18.879999999999999</ele>
        <time>2026-07-04T10:53:08Z</time>
      </trkpt>
      <trkpt lat="54.186167987063527" lon="-9.170600026845932">
        <ele>18.879999999999999</ele>
        <time>2026-07-04T10:53:09Z</time>
      </trkpt>
      <trkpt lat="54.186234036460519" lon="-9.172085970640183">
        <ele>18.399999999999999</ele>
        <time>2026-07-04T10:53:21Z</time>
      </trkpt>
      <trkpt lat="54.186220960691571" lon="-9.172403980046511">
        <ele>18.399999999999999</ele>
        <time>2026-07-04T10:53:24Z</time>
      </trkpt>
      <trkpt lat="54.186188019812107" lon="-9.172519985586405">
        <ele>18.399999999999999</ele>
        <time>2026-07-04T10:53:25Z</time>
      </trkpt>
      <trkpt lat="54.186084000393748" lon="-9.172887029126287">
        <ele>18.879999999999999</ele>
        <time>2026-07-04T10:53:28Z</time>
      </trkpt>
      <trkpt lat="54.186047036200762" lon="-9.173018960282207">
        <ele>18.879999999999999</ele>
        <time>2026-07-04T10:53:29Z</time>
      </trkpt>
      <trkpt lat="54.186011999845505" lon="-9.173142006620765">
        <ele>18.399999999999999</ele>
        <time>2026-07-04T10:53:30Z</time>
      </trkpt>
      <trkpt lat="54.185847966000438" lon="-9.173723040148616">
        <ele>18.399999999999999</ele>
        <time>2026-07-04T10:53:35Z</time>
      </trkpt>
      <trkpt lat="54.185817036777735" lon="-9.173832004889846">
        <ele>18.399999999999999</ele>
        <time>2026-07-04T10:53:36Z</time>
      </trkpt>
      <trkpt lat="54.185789041221142" lon="-9.173934012651444">
        <ele>18.399999999999999</ele>
        <time>2026-07-04T10:53:37Z</time>
      </trkpt>
      <trkpt lat="54.185764985159039" lon="-9.174017999321222">
        <ele>18.399999999999999</ele>
        <time>2026-07-04T10:53:38Z</time>
      </trkpt>
      <trkpt lat="54.185741012915969" lon="-9.17409997433424">
        <ele>18.879999999999999</ele>
        <time>2026-07-04T10:53:39Z</time>
      </trkpt>
      <trkpt lat="54.185730032622814" lon="-9.174141967669129">
        <ele>18.399999999999999</ele>
        <time>2026-07-04T10:53:40Z</time>
      </trkpt>
      <trkpt lat="54.185667000710964" lon="-9.174250010401011">
        <ele>18.399999999999999</ele>
        <time>2026-07-04T10:53:41Z</time>
      </trkpt>
      <trkpt lat="54.185611009597778" lon="-9.174346989020705">
        <ele>18.399999999999999</ele>
        <time>2026-07-04T10:53:42Z</time>
      </trkpt>
      <trkpt lat="54.185553006827831" lon="-9.174445979297161">
        <ele>18.399999999999999</ele>
        <time>2026-07-04T10:53:43Z</time>
      </trkpt>
      <trkpt lat="54.185438007116318" lon="-9.174591992050409">
        <ele>19.84</ele>
        <time>2026-07-04T10:53:45Z</time>
      </trkpt>
      <trkpt lat="54.185386039316654" lon="-9.174629962071776">
        <ele>20.32</ele>
        <time>2026-07-04T10:53:46Z</time>
      </trkpt>
      <trkpt lat="54.185304986312985" lon="-9.174690982326865">
        <ele>21.289999999999999</ele>
        <time>2026-07-04T10:53:48Z</time>
      </trkpt>
      <trkpt lat="54.18527296744287" lon="-9.174715038388968">
        <ele>21.77</ele>
        <time>2026-07-04T10:53:49Z</time>
      </trkpt>
      <trkpt lat="54.185238014906645" lon="-9.174741022288799">
        <ele>22.25</ele>
        <time>2026-07-04T10:53:50Z</time>
      </trkpt>
      <trkpt lat="54.185201972723007" lon="-9.174768012017012">
        <ele>22.73</ele>
        <time>2026-07-04T10:53:51Z</time>
      </trkpt>
      <trkpt lat="54.185159979388118" lon="-9.174800030887127">
        <ele>23.210000000000001</ele>
        <time>2026-07-04T10:53:52Z</time>
      </trkpt>
      <trkpt lat="54.18509996496141" lon="-9.174839006736875">
        <ele>23.210000000000001</ele>
        <time>2026-07-04T10:53:53Z</time>
      </trkpt>
      <trkpt lat="54.185031987726688" lon="-9.174881000071764">
        <ele>23.690000000000001</ele>
        <time>2026-07-04T10:53:54Z</time>
      </trkpt>
      <trkpt lat="54.184959987178445" lon="-9.174926010891795">
        <ele>23.690000000000001</ele>
        <time>2026-07-04T10:53:55Z</time>
      </trkpt>
      <trkpt lat="54.184723030775785" lon="-9.175074035301805">
        <ele>25.609999999999999</ele>
        <time>2026-07-04T10:53:58Z</time>
      </trkpt>
      <trkpt lat="54.184633009135723" lon="-9.17513002641499">
        <ele>25.609999999999999</ele>
        <time>2026-07-04T10:53:59Z</time>
      </trkpt>
      <trkpt lat="54.183806972578168" lon="-9.176078019663692">
        <ele>29.940000000000001</ele>
        <time>2026-07-04T10:54:09Z</time>
      </trkpt>
      <trkpt lat="54.182979008182883" lon="-9.177737971767783">
        <ele>29.940000000000001</ele>
        <time>2026-07-04T10:54:22Z</time>
      </trkpt>
      <trkpt lat="54.182197982445359" lon="-9.179490962997079">
        <ele>30.899999999999999</ele>
        <time>2026-07-04T10:54:36Z</time>
      </trkpt>
      <trkpt lat="54.181773019954562" lon="-9.180612964555621">
        <ele>32.82</ele>
        <time>2026-07-04T10:54:45Z</time>
      </trkpt>
      <trkpt lat="54.181743012741208" lon="-9.180733999237418">
        <ele>31.859999999999999</ele>
        <time>2026-07-04T10:54:46Z</time>
      </trkpt>
      <trkpt lat="54.181607980281115" lon="-9.181724991649389">
        <ele>30.420000000000002</ele>
        <time>2026-07-04T10:54:54Z</time>
      </trkpt>
      <trkpt lat="54.181579984724522" lon="-9.181815013289452">
        <ele>30.420000000000002</ele>
        <time>2026-07-04T10:54:55Z</time>
      </trkpt>
      <trkpt lat="54.181550983339548" lon="-9.181906962767243">
        <ele>29.940000000000001</ele>
        <time>2026-07-04T10:54:56Z</time>
      </trkpt>
      <trkpt lat="54.181484011933208" lon="-9.182095974683762">
        <ele>29.460000000000001</ele>
        <time>2026-07-04T10:54:58Z</time>
      </trkpt>
      <trkpt lat="54.181322995573282" lon="-9.182420019060373">
        <ele>28.5</ele>
        <time>2026-07-04T10:55:02Z</time>
      </trkpt>
      <trkpt lat="54.181285025551915" lon="-9.182494031265378">
        <ele>28.5</ele>
        <time>2026-07-04T10:55:03Z</time>
      </trkpt>
      <trkpt lat="54.181196009740233" lon="-9.182548010721803">
        <ele>28.02</ele>
        <time>2026-07-04T10:55:04Z</time>
      </trkpt>
      <trkpt lat="54.181126020848751" lon="-9.182565025985241">
        <ele>28.02</ele>
        <time>2026-07-04T10:55:05Z</time>
      </trkpt>
      <trkpt lat="54.181056031957269" lon="-9.182581035420299">
        <ele>28.02</ele>
        <time>2026-07-04T10:55:06Z</time>
      </trkpt>
      <trkpt lat="54.180983025580645" lon="-9.182597966864705">
        <ele>27.530000000000001</ele>
        <time>2026-07-04T10:55:07Z</time>
      </trkpt>
      <trkpt lat="54.180911025032401" lon="-9.182614982128143">
        <ele>27.050000000000001</ele>
        <time>2026-07-04T10:55:08Z</time>
      </trkpt>
      <trkpt lat="54.180841958150268" lon="-9.182630991563201">
        <ele>27.050000000000001</ele>
        <time>2026-07-04T10:55:09Z</time>
      </trkpt>
      <trkpt lat="54.180769035592675" lon="-9.182648006826639">
        <ele>26.57</ele>
        <time>2026-07-04T10:55:10Z</time>
      </trkpt>
      <trkpt lat="54.180695023387671" lon="-9.182665022090077">
        <ele>26.57</ele>
        <time>2026-07-04T10:55:11Z</time>
      </trkpt>
      <trkpt lat="54.180623022839427" lon="-9.182682037353516">
        <ele>26.09</ele>
        <time>2026-07-04T10:55:12Z</time>
      </trkpt>
      <trkpt lat="54.180553033947945" lon="-9.182702992111445">
        <ele>26.09</ele>
        <time>2026-07-04T10:55:13Z</time>
      </trkpt>
      <trkpt lat="54.180482039228082" lon="-9.182723024860025">
        <ele>25.609999999999999</ele>
        <time>2026-07-04T10:55:14Z</time>
      </trkpt>
      <trkpt lat="54.180336026474833" lon="-9.182766024023294">
        <ele>25.129999999999999</ele>
        <time>2026-07-04T10:55:16Z</time>
      </trkpt>
      <trkpt lat="54.180260002613068" lon="-9.182787984609604">
        <ele>24.649999999999999</ele>
        <time>2026-07-04T10:55:17Z</time>
      </trkpt>
      <trkpt lat="54.1799630317837" lon="-9.182874988764525">
        <ele>25.609999999999999</ele>
        <time>2026-07-04T10:55:21Z</time>
      </trkpt>
      <trkpt lat="54.179895976558328" lon="-9.182894015684724">
        <ele>25.609999999999999</ele>
        <time>2026-07-04T10:55:22Z</time>
      </trkpt>
      <trkpt lat="54.17981400154531" lon="-9.182917987927795">
        <ele>26.57</ele>
        <time>2026-07-04T10:55:23Z</time>
      </trkpt>
      <trkpt lat="54.179228022694588" lon="-9.183089984580874">
        <ele>30.420000000000002</ele>
        <time>2026-07-04T10:55:31Z</time>
      </trkpt>
      <trkpt lat="54.179128026589751" lon="-9.183128960430622">
        <ele>30.420000000000002</ele>
        <time>2026-07-04T10:55:32Z</time>
      </trkpt>
      <trkpt lat="54.178251028060913" lon="-9.183533973991871">
        <ele>29.940000000000001</ele>
        <time>2026-07-04T10:55:42Z</time>
      </trkpt>
      <trkpt lat="54.177839979529381" lon="-9.183786017820239">
        <ele>29.460000000000001</ele>
        <time>2026-07-04T10:55:47Z</time>
      </trkpt>
      <trkpt lat="54.177758004516363" lon="-9.183836979791522">
        <ele>29.940000000000001</ele>
        <time>2026-07-04T10:55:48Z</time>
      </trkpt>
      <trkpt lat="54.176984019577503" lon="-9.18443201109767">
        <ele>34.259999999999998</ele>
        <time>2026-07-04T10:55:58Z</time>
      </trkpt>
      <trkpt lat="54.176315981894732" lon="-9.185284031555057">
        <ele>34.740000000000002</ele>
        <time>2026-07-04T10:56:07Z</time>
      </trkpt>
      <trkpt lat="54.175512995570898" lon="-9.186505023390055">
        <ele>34.259999999999998</ele>
        <time>2026-07-04T10:56:19Z</time>
      </trkpt>
      <trkpt lat="54.175361031666398" lon="-9.186830995604396">
        <ele>35.229999999999997</ele>
        <time>2026-07-04T10:56:22Z</time>
      </trkpt>
      <trkpt lat="54.17483196593821" lon="-9.188262037932873">
        <ele>36.670000000000002</ele>
        <time>2026-07-04T10:56:33Z</time>
      </trkpt>
      <trkpt lat="54.174306001514196" lon="-9.18969601392746">
        <ele>33.780000000000001</ele>
        <time>2026-07-04T10:56:44Z</time>
      </trkpt>
      <trkpt lat="54.174130987375975" lon="-9.190006982535124">
        <ele>34.259999999999998</ele>
        <time>2026-07-04T10:56:47Z</time>
      </trkpt>
      <trkpt lat="54.174067033454776" lon="-9.190091975033283">
        <ele>34.259999999999998</ele>
        <time>2026-07-04T10:56:48Z</time>
      </trkpt>
      <trkpt lat="54.174001989886165" lon="-9.190178979188204">
        <ele>34.740000000000002</ele>
        <time>2026-07-04T10:56:49Z</time>
      </trkpt>
      <trkpt lat="54.173746006563306" lon="-9.190520960837603">
        <ele>37.149999999999999</ele>
        <time>2026-07-04T10:56:56Z</time>
      </trkpt>
      <trkpt lat="54.173746006563306" lon="-9.190520960837603">
        <ele>37.149999999999999</ele>
        <time>2026-07-04T10:57:06Z</time>
      </trkpt>
      <trkpt lat="54.173746006563306" lon="-9.190520960837603">
        <ele>38.109999999999999</ele>
        <time>2026-07-04T10:57:50Z</time>
      </trkpt>
      <trkpt lat="54.173746006563306" lon="-9.190520960837603">
        <ele>38.590000000000003</ele>
        <time>2026-07-04T10:58:31Z</time>
      </trkpt>
      <trkpt lat="54.173735026270151" lon="-9.19053596444428">
        <ele>38.590000000000003</ele>
        <time>2026-07-04T10:58:50Z</time>
      </trkpt>
      <trkpt lat="54.17369001545012" lon="-9.190756995230913">
        <ele>37.630000000000003</ele>
        <time>2026-07-04T10:58:51Z</time>
      </trkpt>
      <trkpt lat="54.173350967466831" lon="-9.190851040184498">
        <ele>37.149999999999999</ele>
        <time>2026-07-04T10:58:55Z</time>
      </trkpt>
      <trkpt lat="54.173251977190375" lon="-9.190894961357117">
        <ele>36.670000000000002</ele>
        <time>2026-07-04T10:58:56Z</time>
      </trkpt>
      <trkpt lat="54.172031991183758" lon="-9.191387984901667">
        <ele>35.229999999999997</ele>
        <time>2026-07-04T10:59:05Z</time>
      </trkpt>
      <trkpt lat="54.170366004109383" lon="-9.191500972956419">
        <ele>34.740000000000002</ele>
        <time>2026-07-04T10:59:15Z</time>
      </trkpt>
      <trkpt lat="54.168465994298458" lon="-9.19094298966229">
        <ele>37.149999999999999</ele>
        <time>2026-07-04T10:59:27Z</time>
      </trkpt>
      <trkpt lat="54.166655000299215" lon="-9.190047970041633">
        <ele>39.549999999999997</ele>
        <time>2026-07-04T10:59:38Z</time>
      </trkpt>
      <trkpt lat="54.164716014638543" lon="-9.188477033749223">
        <ele>38.109999999999999</ele>
        <time>2026-07-04T10:59:51Z</time>
      </trkpt>
      <trkpt lat="54.162794966250658" lon="-9.186927974224091">
        <ele>39.549999999999997</ele>
        <time>2026-07-04T11:00:04Z</time>
      </trkpt>
      <trkpt lat="54.161472972482443" lon="-9.185952991247177">
        <ele>41.469999999999999</ele>
        <time>2026-07-04T11:00:13Z</time>
      </trkpt>
      <trkpt lat="54.160834020003676" lon="-9.185481006279588">
        <ele>41.469999999999999</ele>
        <time>2026-07-04T11:00:17Z</time>
      </trkpt>
      <trkpt lat="54.160673003643751" lon="-9.185361983254552">
        <ele>41.950000000000003</ele>
        <time>2026-07-04T11:00:18Z</time>
      </trkpt>
      <trkpt lat="54.159314967691898" lon="-9.184361016377807">
        <ele>42.439999999999998</ele>
        <time>2026-07-04T11:00:27Z</time>
      </trkpt>
      <trkpt lat="54.157798010855913" lon="-9.183242032304406">
        <ele>41.950000000000003</ele>
        <time>2026-07-04T11:00:37Z</time>
      </trkpt>
      <trkpt lat="54.156178962439299" lon="-9.181926995515823">
        <ele>42.920000000000002</ele>
        <time>2026-07-04T11:00:48Z</time>
      </trkpt>
      <trkpt lat="54.154736017808318" lon="-9.180303001776338">
        <ele>42.439999999999998</ele>
        <time>2026-07-04T11:00:58Z</time>
      </trkpt>
      <trkpt lat="54.152607014402747" lon="-9.177677035331726">
        <ele>42.920000000000002</ele>
        <time>2026-07-04T11:01:12Z</time>
      </trkpt>
      <trkpt lat="54.151128027588129" lon="-9.175421968102455">
        <ele>41.950000000000003</ele>
        <time>2026-07-04T11:01:22Z</time>
      </trkpt>
      <trkpt lat="54.149184012785554" lon="-9.172347988933325">
        <ele>38.109999999999999</ele>
        <time>2026-07-04T11:01:35Z</time>
      </trkpt>
      <trkpt lat="54.148075003176928" lon="-9.170852992683649">
        <ele>36.670000000000002</ele>
        <time>2026-07-04T11:01:42Z</time>
      </trkpt>
      <trkpt lat="54.147894959896803" lon="-9.170727012678981">
        <ele>36.670000000000002</ele>
        <time>2026-07-04T11:01:43Z</time>
      </trkpt>
      <trkpt lat="54.147713994607329" lon="-9.170600026845932">
        <ele>36.670000000000002</ele>
        <time>2026-07-04T11:01:44Z</time>
      </trkpt>
      <trkpt lat="54.145277040079236" lon="-9.169224975630641">
        <ele>36.670000000000002</ele>
        <time>2026-07-04T11:01:57Z</time>
      </trkpt>
      <trkpt lat="54.143423968926072" lon="-9.167969031259418">
        <ele>37.149999999999999</ele>
        <time>2026-07-04T11:02:07Z</time>
      </trkpt>
      <trkpt lat="54.141460005193949" lon="-9.167186999693513">
        <ele>36.670000000000002</ele>
        <time>2026-07-04T11:02:17Z</time>
      </trkpt>
      <trkpt lat="54.138923976570368" lon="-9.1663639806211">
        <ele>36.670000000000002</ele>
        <time>2026-07-04T11:02:30Z</time>
      </trkpt>
      <trkpt lat="54.137497041374445" lon="-9.165941029787064">
        <ele>37.149999999999999</ele>
        <time>2026-07-04T11:02:38Z</time>
      </trkpt>
      <trkpt lat="54.1350800357759" lon="-9.165234016254544">
        <ele>36.670000000000002</ele>
        <time>2026-07-04T11:02:52Z</time>
      </trkpt>
      <trkpt lat="54.133394015952945" lon="-9.164697993546724">
        <ele>36.670000000000002</ele>
        <time>2026-07-04T11:03:03Z</time>
      </trkpt>
      <trkpt lat="54.132055006921291" lon="-9.164293985813856">
        <ele>34.740000000000002</ele>
        <time>2026-07-04T11:03:12Z</time>
      </trkpt>
      <trkpt lat="54.13016295991838" lon="-9.163588983938098">
        <ele>31.379999999999999</ele>
        <time>2026-07-04T11:03:25Z</time>
      </trkpt>
      <trkpt lat="54.128302009776235" lon="-9.162783985957503">
        <ele>28.02</ele>
        <time>2026-07-04T11:03:38Z</time>
      </trkpt>
      <trkpt lat="54.127382012084126" lon="-9.162338990718126">
        <ele>26.09</ele>
        <time>2026-07-04T11:03:46Z</time>
      </trkpt>
      <trkpt lat="54.126199996098876" lon="-9.161718981340528">
        <ele>24.649999999999999</ele>
        <time>2026-07-04T11:03:57Z</time>
      </trkpt>
      <trkpt lat="54.124782029539347" lon="-9.160952959209681">
        <ele>24.170000000000002</ele>
        <time>2026-07-04T11:04:09Z</time>
      </trkpt>
      <trkpt lat="54.124453039839864" lon="-9.160882970318198">
        <ele>24.649999999999999</ele>
        <time>2026-07-04T11:04:12Z</time>
      </trkpt>
      <trkpt lat="54.124348014593124" lon="-9.160914989188314">
        <ele>24.649999999999999</ele>
        <time>2026-07-04T11:04:13Z</time>
      </trkpt>
      <trkpt lat="54.124238966032863" lon="-9.160948013886809">
        <ele>24.649999999999999</ele>
        <time>2026-07-04T11:04:14Z</time>
      </trkpt>
      <trkpt lat="54.124127989634871" lon="-9.160981038585305">
        <ele>24.649999999999999</ele>
        <time>2026-07-04T11:04:15Z</time>
      </trkpt>
      <trkpt lat="54.124021958559752" lon="-9.161052033305168">
        <ele>24.649999999999999</ele>
        <time>2026-07-04T11:04:16Z</time>
      </trkpt>
      <trkpt lat="54.123920034617186" lon="-9.161131996661425">
        <ele>25.129999999999999</ele>
        <time>2026-07-04T11:04:17Z</time>
      </trkpt>
      <trkpt lat="54.122655959799886" lon="-9.162121983245015">
        <ele>25.129999999999999</ele>
        <time>2026-07-04T11:04:30Z</time>
      </trkpt>
      <trkpt lat="54.121681982651353" lon="-9.162737969309092">
        <ele>23.210000000000001</ele>
        <time>2026-07-04T11:04:41Z</time>
      </trkpt>
      <trkpt lat="54.121494982391596" lon="-9.16277602314949">
        <ele>23.690000000000001</ele>
        <time>2026-07-04T11:04:43Z</time>
      </trkpt>
      <trkpt lat="54.12139599211514" lon="-9.162758002057672">
        <ele>23.210000000000001</ele>
        <time>2026-07-04T11:04:44Z</time>
      </trkpt>
      <trkpt lat="54.121291972696781" lon="-9.162737969309092">
        <ele>23.210000000000001</ele>
        <time>2026-07-04T11:04:45Z</time>
      </trkpt>
      <trkpt lat="54.121186025440693" lon="-9.162718020379543">
        <ele>23.210000000000001</ele>
        <time>2026-07-04T11:04:46Z</time>
      </trkpt>
      <trkpt lat="54.121089968830347" lon="-9.162676027044654">
        <ele>23.210000000000001</ele>
        <time>2026-07-04T11:04:47Z</time>
      </trkpt>
      <trkpt lat="54.120998019352555" lon="-9.162590028718114">
        <ele>23.210000000000001</ele>
        <time>2026-07-04T11:04:48Z</time>
      </trkpt>
      <trkpt lat="54.120904980227351" lon="-9.162503024563193">
        <ele>23.210000000000001</ele>
        <time>2026-07-04T11:04:49Z</time>
      </trkpt>
      <trkpt lat="54.120812024921179" lon="-9.162416020408273">
        <ele>23.690000000000001</ele>
        <time>2026-07-04T11:04:50Z</time>
      </trkpt>
      <trkpt lat="54.120733989402652" lon="-9.162310995161533">
        <ele>23.690000000000001</ele>
        <time>2026-07-04T11:04:51Z</time>
      </trkpt>
      <trkpt lat="54.120659977197647" lon="-9.162189038470388">
        <ele>23.690000000000001</ele>
        <time>2026-07-04T11:04:52Z</time>
      </trkpt>
      <trkpt lat="54.120062012225389" lon="-9.160779034718871">
        <ele>21.77</ele>
        <time>2026-07-04T11:05:01Z</time>
      </trkpt>
      <trkpt lat="54.119941983371973" lon="-9.160430012270808">
        <ele>21.289999999999999</ele>
        <time>2026-07-04T11:05:03Z</time>
      </trkpt>
      <trkpt lat="54.119876017794013" lon="-9.160236977040768">
        <ele>21.289999999999999</ele>
        <time>2026-07-04T11:05:04Z</time>
      </trkpt>
      <trkpt lat="54.119798988103867" lon="-9.160126000642777">
        <ele>20.809999999999999</ele>
        <time>2026-07-04T11:05:05Z</time>
      </trkpt>
      <trkpt lat="54.119711983948946" lon="-9.159999014809728">
        <ele>20.809999999999999</ele>
        <time>2026-07-04T11:05:06Z</time>
      </trkpt>
      <trkpt lat="54.119622968137264" lon="-9.159879991784692">
        <ele>20.32</ele>
        <time>2026-07-04T11:05:07Z</time>
      </trkpt>
      <trkpt lat="54.119517020881176" lon="-9.159796005114913">
        <ele>19.84</ele>
        <time>2026-07-04T11:05:08Z</time>
      </trkpt>
      <trkpt lat="54.119408978149295" lon="-9.159709000959992">
        <ele>19.359999999999999</ele>
        <time>2026-07-04T11:05:09Z</time>
      </trkpt>
      <trkpt lat="54.118504989892244" lon="-9.159003999084234">
        <ele>15.52</ele>
        <time>2026-07-04T11:05:18Z</time>
      </trkpt>
      <trkpt lat="54.117470998317003" lon="-9.158244011923671">
        <ele>15.52</ele>
        <time>2026-07-04T11:05:30Z</time>
      </trkpt>
      <trkpt lat="54.117061039432883" lon="-9.157960033044219">
        <ele>16.960000000000001</ele>
        <time>2026-07-04T11:05:39Z</time>
      </trkpt>
      <trkpt lat="54.117022985592484" lon="-9.157934971153736">
        <ele>17.440000000000001</ele>
        <time>2026-07-04T11:05:40Z</time>
      </trkpt>
      <trkpt lat="54.117001025006175" lon="-9.157846039161086">
        <ele>17.440000000000001</ele>
        <time>2026-07-04T11:05:41Z</time>
      </trkpt>
      <trkpt lat="54.117002030834556" lon="-9.157741013914347">
        <ele>17.440000000000001</ele>
        <time>2026-07-04T11:05:42Z</time>
      </trkpt>
      <trkpt lat="54.117003958672285" lon="-9.156218022108078">
        <ele>14.56</ele>
        <time>2026-07-04T11:05:53Z</time>
      </trkpt>
      <trkpt lat="54.116951990872622" lon="-9.155267011374235">
        <ele>11.67</ele>
        <time>2026-07-04T11:06:00Z</time>
      </trkpt>
      <trkpt lat="54.116934975609183" lon="-9.155186964198947">
        <ele>11.67</ele>
        <time>2026-07-04T11:06:01Z</time>
      </trkpt>
      <trkpt lat="54.116918966174126" lon="-9.155117981135845">
        <ele>11.19</ele>
        <time>2026-07-04T11:06:02Z</time>
      </trkpt>
      <trkpt lat="54.116904968395829" lon="-9.155055033043027">
        <ele>11.19</ele>
        <time>2026-07-04T11:06:03Z</time>
      </trkpt>
      <trkpt lat="54.116892982274294" lon="-9.155000969767571">
        <ele>10.710000000000001</ele>
        <time>2026-07-04T11:06:04Z</time>
      </trkpt>
      <trkpt lat="54.11688300780952" lon="-9.154955036938191">
        <ele>10.710000000000001</ele>
        <time>2026-07-04T11:06:05Z</time>
      </trkpt>
      <trkpt lat="54.116873033344746" lon="-9.15491103194654">
        <ele>10.710000000000001</ele>
        <time>2026-07-04T11:06:06Z</time>
      </trkpt>
      <trkpt lat="54.116864986717701" lon="-9.154871972277761">
        <ele>10.710000000000001</ele>
        <time>2026-07-04T11:06:07Z</time>
      </trkpt>
      <trkpt lat="54.116725008934736" lon="-9.154242994263768">
        <ele>10.23</ele>
        <time>2026-07-04T11:06:20Z</time>
      </trkpt>
      <trkpt lat="54.116592993959785" lon="-9.153863964602351">
        <ele>11.19</ele>
        <time>2026-07-04T11:06:28Z</time>
      </trkpt>
      <trkpt lat="54.116431977599859" lon="-9.153652992099524">
        <ele>12.15</ele>
        <time>2026-07-04T11:06:35Z</time>
      </trkpt>
      <trkpt lat="54.116351008415222" lon="-9.153550984337926">
        <ele>12.15</ele>
        <time>2026-07-04T11:06:39Z</time>
      </trkpt>
      <trkpt lat="54.116227962076664" lon="-9.153404971584678">
        <ele>12.630000000000001</ele>
        <time>2026-07-04T11:06:47Z</time>
      </trkpt>
      <trkpt lat="54.116126960143447" lon="-9.153291983529925">
        <ele>12.630000000000001</ele>
        <time>2026-07-04T11:06:55Z</time>
      </trkpt>
      <trkpt lat="54.116121008992195" lon="-9.153285026550293">
        <ele>12.630000000000001</ele>
        <time>2026-07-04T11:07:15Z</time>
      </trkpt>
      <trkpt lat="54.116083960980177" lon="-9.153250996023417">
        <ele>12.15</ele>
        <time>2026-07-04T11:07:16Z</time>
      </trkpt>
      <trkpt lat="54.116050014272332" lon="-9.153219982981682">
        <ele>12.630000000000001</ele>
        <time>2026-07-04T11:07:17Z</time>
      </trkpt>
      <trkpt lat="54.116013972088695" lon="-9.153186036273837">
        <ele>13.119999999999999</ele>
        <time>2026-07-04T11:07:18Z</time>
      </trkpt>
      <trkpt lat="54.11598295904696" lon="-9.153158040717244">
        <ele>13.6</ele>
        <time>2026-07-04T11:07:19Z</time>
      </trkpt>
      <trkpt lat="54.115954963490367" lon="-9.153131972998381">
        <ele>13.6</ele>
        <time>2026-07-04T11:07:20Z</time>
      </trkpt>
      <trkpt lat="54.115906013175845" lon="-9.15308696217835">
        <ele>14.08</ele>
        <time>2026-07-04T11:07:21Z</time>
      </trkpt>
      <trkpt lat="54.115841975435615" lon="-9.153028037399054">
        <ele>14.08</ele>
        <time>2026-07-04T11:07:22Z</time>
      </trkpt>
      <trkpt lat="54.115764023736119" lon="-9.152960982173681">
        <ele>14.08</ele>
        <time>2026-07-04T11:07:23Z</time>
      </trkpt>
      <trkpt lat="54.115604013204575" lon="-9.15282896719873">
        <ele>13.6</ele>
        <time>2026-07-04T11:07:26Z</time>
      </trkpt>
      <trkpt lat="54.115565959364176" lon="-9.152797032147646">
        <ele>13.6</ele>
        <time>2026-07-04T11:07:27Z</time>
      </trkpt>
      <trkpt lat="54.115536035969853" lon="-9.152769958600402">
        <ele>13.119999999999999</ele>
        <time>2026-07-04T11:07:28Z</time>
      </trkpt>
      <trkpt lat="54.11550996825099" lon="-9.152746992185712">
        <ele>13.119999999999999</ele>
        <time>2026-07-04T11:07:29Z</time>
      </trkpt>
      <trkpt lat="54.1154870018363" lon="-9.152726037427783">
        <ele>13.119999999999999</ele>
        <time>2026-07-04T11:07:30Z</time>
      </trkpt>
      <trkpt lat="54.115462023764849" lon="-9.152704998850822">
        <ele>13.119999999999999</ele>
        <time>2026-07-04T11:07:31Z</time>
      </trkpt>
      <trkpt lat="54.115435034036636" lon="-9.152681026607752">
        <ele>13.119999999999999</ele>
        <time>2026-07-04T11:07:32Z</time>
      </trkpt>
      <trkpt lat="54.115412989631295" lon="-9.152660993859172">
        <ele>13.6</ele>
        <time>2026-07-04T11:07:33Z</time>
      </trkpt>
      <trkpt lat="54.115392034873366" lon="-9.152641966938973">
        <ele>13.6</ele>
        <time>2026-07-04T11:07:34Z</time>
      </trkpt>
      <trkpt lat="54.115364039316773" lon="-9.15261397138238">
        <ele>14.08</ele>
        <time>2026-07-04T11:07:35Z</time>
      </trkpt>
      <trkpt lat="54.115333026275039" lon="-9.152582958340645">
        <ele>14.56</ele>
        <time>2026-07-04T11:07:36Z</time>
      </trkpt>
      <trkpt lat="54.115301007404923" lon="-9.152551023289561">
        <ele>15.039999999999999</ele>
        <time>2026-07-04T11:07:37Z</time>
      </trkpt>
      <trkpt lat="54.115268988534808" lon="-9.152519004419446">
        <ele>15.039999999999999</ele>
        <time>2026-07-04T11:07:38Z</time>
      </trkpt>
      <trkpt lat="54.115252979099751" lon="-9.152448009699583">
        <ele>15.039999999999999</ele>
        <time>2026-07-04T11:07:39Z</time>
      </trkpt>
      <trkpt lat="54.115288015455008" lon="-9.152321023866534">
        <ele>14.56</ele>
        <time>2026-07-04T11:07:41Z</time>
      </trkpt>
      <trkpt lat="54.115305030718446" lon="-9.152255980297923">
        <ele>14.56</ele>
        <time>2026-07-04T11:07:42Z</time>
      </trkpt>
      <trkpt lat="54.115320034325123" lon="-9.15218498557806">
        <ele>14.08</ele>
        <time>2026-07-04T11:07:43Z</time>
      </trkpt>
      <trkpt lat="54.115335959941149" lon="-9.152108961716294">
        <ele>14.08</ele>
        <time>2026-07-04T11:07:44Z</time>
      </trkpt>
      <trkpt lat="54.115352975204587" lon="-9.152025980874896">
        <ele>13.6</ele>
        <time>2026-07-04T11:07:45Z</time>
      </trkpt>
      <trkpt lat="54.115372002124786" lon="-9.151932019740343">
        <ele>13.119999999999999</ele>
        <time>2026-07-04T11:07:46Z</time>
      </trkpt>
      <trkpt lat="54.115392034873366" lon="-9.151835041120648">
        <ele>12.630000000000001</ele>
        <time>2026-07-04T11:07:47Z</time>
      </trkpt>
      <trkpt lat="54.115411983802915" lon="-9.151739990338683">
        <ele>12.630000000000001</ele>
        <time>2026-07-04T11:07:48Z</time>
      </trkpt>
      <trkpt lat="54.115428999066353" lon="-9.151653992012143">
        <ele>12.630000000000001</ele>
        <time>2026-07-04T11:07:49Z</time>
      </trkpt>
      <trkpt lat="54.115437967702746" lon="-9.151424998417497">
        <ele>11.19</ele>
        <time>2026-07-04T11:07:51Z</time>
      </trkpt>
      <trkpt lat="54.115417012944818" lon="-9.151314022019506">
        <ele>10.710000000000001</ele>
        <time>2026-07-04T11:07:52Z</time>
      </trkpt>
      <trkpt lat="54.115375019609928" lon="-9.151214025914669">
        <ele>10.23</ele>
        <time>2026-07-04T11:07:53Z</time>
      </trkpt>
      <trkpt lat="54.115333026275039" lon="-9.15113003924489">
        <ele>10.23</ele>
        <time>2026-07-04T11:07:54Z</time>
      </trkpt>
      <trkpt lat="54.115291032940149" lon="-9.15104697458446">
        <ele>10.23</ele>
        <time>2026-07-04T11:07:55Z</time>
      </trkpt>
      <trkpt lat="54.11524903960526" lon="-9.150962987914681">
        <ele>10.23</ele>
        <time>2026-07-04T11:07:56Z</time>
      </trkpt>
      <trkpt lat="54.114786023274064" lon="-9.15005698800087">
        <ele>12.15</ele>
        <time>2026-07-04T11:08:06Z</time>
      </trkpt>
      <trkpt lat="54.114438006654382" lon="-9.149423986673355">
        <ele>12.630000000000001</ele>
        <time>2026-07-04T11:08:14Z</time>
      </trkpt>
      <trkpt lat="54.114421997219324" lon="-9.14934704080224">
        <ele>12.630000000000001</ele>
        <time>2026-07-04T11:08:15Z</time>
      </trkpt>
      <trkpt lat="54.114415962249041" lon="-9.14926003664732">
        <ele>12.630000000000001</ele>
        <time>2026-07-04T11:08:16Z</time>
      </trkpt>
      <trkpt lat="54.114409005269408" lon="-9.149161968380213">
        <ele>12.630000000000001</ele>
        <time>2026-07-04T11:08:17Z</time>
      </trkpt>
      <trkpt lat="54.114426020532846" lon="-9.149059038609266">
        <ele>12.15</ele>
        <time>2026-07-04T11:08:18Z</time>
      </trkpt>
      <trkpt lat="54.114473965018988" lon="-9.148968011140823">
        <ele>12.15</ele>
        <time>2026-07-04T11:08:19Z</time>
      </trkpt>
      <trkpt lat="54.114645961672068" lon="-9.148640027269721">
        <ele>11.19</ele>
        <time>2026-07-04T11:08:23Z</time>
      </trkpt>
      <trkpt lat="54.115181984379888" lon="-9.147612992674112">
        <ele>10.23</ele>
        <time>2026-07-04T11:08:34Z</time>
      </trkpt>
      <trkpt lat="54.115436039865017" lon="-9.147161962464452">
        <ele>11.19</ele>
        <time>2026-07-04T11:08:39Z</time>
      </trkpt>
      <trkpt lat="54.116185968741775" lon="-9.146263003349304">
        <ele>10.23</ele>
        <time>2026-07-04T11:08:50Z</time>
      </trkpt>
      <trkpt lat="54.116816036403179" lon="-9.145341999828816">
        <ele>8.310000000000001</ele>
        <time>2026-07-04T11:08:59Z</time>
      </trkpt>
      <trkpt lat="54.117555990815163" lon="-9.144026041030884">
        <ele>8.310000000000001</ele>
        <time>2026-07-04T11:09:09Z</time>
      </trkpt>
      <trkpt lat="54.118041973561049" lon="-9.142499025911093">
        <ele>8.789999999999999</ele>
        <time>2026-07-04T11:09:21Z</time>
      </trkpt>
      <trkpt lat="54.118073992431164" lon="-9.142400035634637">
        <ele>9.27</ele>
        <time>2026-07-04T11:09:22Z</time>
      </trkpt>
      <trkpt lat="54.118099976330996" lon="-9.142316970974207">
        <ele>9.27</ele>
        <time>2026-07-04T11:09:23Z</time>
      </trkpt>
      <trkpt lat="54.118393007665873" lon="-9.141451036557555">
        <ele>9.75</ele>
        <time>2026-07-04T11:09:34Z</time>
      </trkpt>
      <trkpt lat="54.118700036779046" lon="-9.140587029978633">
        <ele>11.67</ele>
        <time>2026-07-04T11:09:43Z</time>
      </trkpt>
      <trkpt lat="54.119343012571335" lon="-9.139209967106581">
        <ele>15.52</ele>
        <time>2026-07-04T11:09:52Z</time>
      </trkpt>
      <trkpt lat="54.119970984756947" lon="-9.137420011684299">
        <ele>19.359999999999999</ele>
        <time>2026-07-04T11:10:02Z</time>
      </trkpt>
      <trkpt lat="54.120145998895168" lon="-9.13677703589201">
        <ele>19.359999999999999</ele>
        <time>2026-07-04T11:10:06Z</time>
      </trkpt>
      <trkpt lat="54.120294023305178" lon="-9.135673977434635">
        <ele>19.359999999999999</ele>
        <time>2026-07-04T11:10:14Z</time>
      </trkpt>
      <trkpt lat="54.120385972782969" lon="-9.134635962545872">
        <ele>16</ele>
        <time>2026-07-04T11:10:24Z</time>
      </trkpt>
      <trkpt lat="54.120575990527868" lon="-9.132616007700563">
        <ele>16.48</ele>
        <time>2026-07-04T11:10:34Z</time>
      </trkpt>
      <trkpt lat="54.12073097191751" lon="-9.131484031677246">
        <ele>19.84</ele>
        <time>2026-07-04T11:10:39Z</time>
      </trkpt>
      <trkpt lat="54.120785035192966" lon="-9.131253026425839">
        <ele>20.32</ele>
        <time>2026-07-04T11:10:40Z</time>
      </trkpt>
      <trkpt lat="54.120842032134533" lon="-9.131011962890625">
        <ele>21.289999999999999</ele>
        <time>2026-07-04T11:10:41Z</time>
      </trkpt>
      <trkpt lat="54.12100899964571" lon="-9.130608038976789">
        <ele>22.25</ele>
        <time>2026-07-04T11:10:43Z</time>
      </trkpt>
      <trkpt lat="54.121099021285772" lon="-9.130390025675297">
        <ele>22.73</ele>
        <time>2026-07-04T11:10:44Z</time>
      </trkpt>
      <trkpt lat="54.122205013409257" lon="-9.128691013902426">
        <ele>27.530000000000001</ele>
        <time>2026-07-04T11:10:54Z</time>
      </trkpt>
      <trkpt lat="54.123531030490994" lon="-9.126308960840106">
        <ele>28.02</ele>
        <time>2026-07-04T11:11:06Z</time>
      </trkpt>
      <trkpt lat="54.124367041513324" lon="-9.124293029308319">
        <ele>29.460000000000001</ele>
        <time>2026-07-04T11:11:14Z</time>
      </trkpt>
      <trkpt lat="54.125402038916945" lon="-9.121922040358186">
        <ele>36.189999999999998</ele>
        <time>2026-07-04T11:11:23Z</time>
      </trkpt>
      <trkpt lat="54.127171961590648" lon="-9.118476994335651">
        <ele>33.299999999999997</ele>
        <time>2026-07-04T11:11:36Z</time>
      </trkpt>
      <trkpt lat="54.128709034994245" lon="-9.115863014012575">
        <ele>33.780000000000001</ele>
        <time>2026-07-04T11:11:47Z</time>
      </trkpt>
      <trkpt lat="54.130003033205867" lon="-9.11411102861166">
        <ele>34.740000000000002</ele>
        <time>2026-07-04T11:11:56Z</time>
      </trkpt>
      <trkpt lat="54.131648987531662" lon="-9.11179100163281">
        <ele>41.950000000000003</ele>
        <time>2026-07-04T11:12:07Z</time>
      </trkpt>
      <trkpt lat="54.133389992639422" lon="-9.109107032418251">
        <ele>46.759999999999998</ele>
        <time>2026-07-04T11:12:18Z</time>
      </trkpt>
      <trkpt lat="54.133871030062437" lon="-9.108364982530475">
        <ele>48.68</ele>
        <time>2026-07-04T11:12:21Z</time>
      </trkpt>
      <trkpt lat="54.135903976857662" lon="-9.10545302554965">
        <ele>47.719999999999999</ele>
        <time>2026-07-04T11:12:33Z</time>
      </trkpt>
      <trkpt lat="54.138015964999795" lon="-9.102922026067972">
        <ele>47.719999999999999</ele>
        <time>2026-07-04T11:12:45Z</time>
      </trkpt>
      <trkpt lat="54.139369977638125" lon="-9.101399034261704">
        <ele>47.719999999999999</ele>
        <time>2026-07-04T11:12:54Z</time>
      </trkpt>
      <trkpt lat="54.140802025794983" lon="-9.099828014150262">
        <ele>44.359999999999999</ele>
        <time>2026-07-04T11:13:05Z</time>
      </trkpt>
      <trkpt lat="54.141858983784914" lon="-9.098674999549985">
        <ele>42.439999999999998</ele>
        <time>2026-07-04T11:13:15Z</time>
      </trkpt>
      <trkpt lat="54.142018994316459" lon="-9.098500991240144">
        <ele>41.950000000000003</ele>
        <time>2026-07-04T11:13:17Z</time>
      </trkpt>
      <trkpt lat="54.142081020399928" lon="-9.098432008177042">
        <ele>41.469999999999999</ele>
        <time>2026-07-04T11:13:18Z</time>
      </trkpt>
      <trkpt lat="54.142277995124459" lon="-9.098524963483214">
        <ele>40.509999999999998</ele>
        <time>2026-07-04T11:13:19Z</time>
      </trkpt>
      <trkpt lat="54.142290987074375" lon="-9.098542984575033">
        <ele>40.030000000000001</ele>
        <time>2026-07-04T11:13:20Z</time>
      </trkpt>
      <trkpt lat="54.142368016764522" lon="-9.098644992336631">
        <ele>39.549999999999997</ele>
        <time>2026-07-04T11:13:21Z</time>
      </trkpt>
      <trkpt lat="54.142457032576203" lon="-9.098733002319932">
        <ele>39.07</ele>
        <time>2026-07-04T11:13:22Z</time>
      </trkpt>
      <trkpt lat="54.142568008974195" lon="-9.098811959847808">
        <ele>39.07</ele>
        <time>2026-07-04T11:13:23Z</time>
      </trkpt>
      <trkpt lat="54.14268996566534" lon="-9.098898964002729">
        <ele>38.590000000000003</ele>
        <time>2026-07-04T11:13:24Z</time>
      </trkpt>
      <trkpt lat="54.144066022709012" lon="-9.099514028057456">
        <ele>41.950000000000003</ele>
        <time>2026-07-04T11:13:34Z</time>
      </trkpt>
      <trkpt lat="54.14588799700141" lon="-9.100319026038051">
        <ele>44.359999999999999</ele>
        <time>2026-07-04T11:13:46Z</time>
      </trkpt>
      <trkpt lat="54.147647023200989" lon="-9.101227959617972">
        <ele>39.549999999999997</ele>
        <time>2026-07-04T11:13:56Z</time>
      </trkpt>
      <trkpt lat="54.149334970861673" lon="-9.102094983682036">
        <ele>37.149999999999999</ele>
        <time>2026-07-04T11:14:06Z</time>
      </trkpt>
      <trkpt lat="54.15091403760016" lon="-9.102537967264652">
        <ele>37.149999999999999</ele>
        <time>2026-07-04T11:14:15Z</time>
      </trkpt>
      <trkpt lat="54.151585008949041" lon="-9.102653972804546">
        <ele>39.07</ele>
        <time>2026-07-04T11:14:19Z</time>
      </trkpt>
      <trkpt lat="54.151922967284918" lon="-9.102650033310056">
        <ele>41.469999999999999</ele>
        <time>2026-07-04T11:14:21Z</time>
      </trkpt>
      <trkpt lat="54.152085995301604" lon="-9.102620026096702">
        <ele>42.439999999999998</ele>
        <time>2026-07-04T11:14:22Z</time>
      </trkpt>
      <trkpt lat="54.15224701166153" lon="-9.10257400944829">
        <ele>42.920000000000002</ele>
        <time>2026-07-04T11:14:23Z</time>
      </trkpt>
      <trkpt lat="54.152402998879552" lon="-9.102498991414905">
        <ele>43.399999999999999</ele>
        <time>2026-07-04T11:14:24Z</time>
      </trkpt>
      <trkpt lat="54.152557980269194" lon="-9.102408969774842">
        <ele>43.880000000000003</ele>
        <time>2026-07-04T11:14:25Z</time>
      </trkpt>
      <trkpt lat="54.153694985434413" lon="-9.10182299092412">
        <ele>43.399999999999999</ele>
        <time>2026-07-04T11:14:33Z</time>
      </trkpt>
      <trkpt lat="54.155066013336182" lon="-9.101615035906434">
        <ele>37.149999999999999</ele>
        <time>2026-07-04T11:14:41Z</time>
      </trkpt>
      <trkpt lat="54.15727598592639" lon="-9.10139299929142">
        <ele>36.670000000000002</ele>
        <time>2026-07-04T11:14:53Z</time>
      </trkpt>
      <trkpt lat="54.159858031198382" lon="-9.101144978776574">
        <ele>39.07</ele>
        <time>2026-07-04T11:15:07Z</time>
      </trkpt>
      <trkpt lat="54.16294801980257" lon="-9.101202981546521">
        <ele>38.590000000000003</ele>
        <time>2026-07-04T11:15:23Z</time>
      </trkpt>
      <trkpt lat="54.164850041270256" lon="-9.10124396905303">
        <ele>41.950000000000003</ele>
        <time>2026-07-04T11:15:33Z</time>
      </trkpt>
      <trkpt lat="54.167078034952283" lon="-9.101293003186584">
        <ele>41.469999999999999</ele>
        <time>2026-07-04T11:15:45Z</time>
      </trkpt>
      <trkpt lat="54.169477019459009" lon="-9.101328039541841">
        <ele>40.990000000000002</ele>
        <time>2026-07-04T11:15:57Z</time>
      </trkpt>
      <trkpt lat="54.171709036454558" lon="-9.1015649959445">
        <ele>44.359999999999999</ele>
        <time>2026-07-04T11:16:08Z</time>
      </trkpt>
      <trkpt lat="54.17227397672832" lon="-9.101633979007602">
        <ele>45.32</ele>
        <time>2026-07-04T11:16:11Z</time>
      </trkpt>
      <trkpt lat="54.172454020008445" lon="-9.101584022864699">
        <ele>45.799999999999997</ele>
        <time>2026-07-04T11:16:12Z</time>
      </trkpt>
      <trkpt lat="54.17263800278306" lon="-9.101523002609611">
        <ele>46.280000000000001</ele>
        <time>2026-07-04T11:16:13Z</time>
      </trkpt>
      <trkpt lat="54.174815034493804" lon="-9.100594036281109">
        <ele>51.57</ele>
        <time>2026-07-04T11:16:25Z</time>
      </trkpt>
      <trkpt lat="54.17643902823329" lon="-9.100302010774612">
        <ele>49.649999999999999</ele>
        <time>2026-07-04T11:16:34Z</time>
      </trkpt>
      <trkpt lat="54.178925016894937" lon="-9.100223975256085">
        <ele>50.609999999999999</ele>
        <time>2026-07-04T11:16:48Z</time>
      </trkpt>
      <trkpt lat="54.179423991590738" lon="-9.100264962762594">
        <ele>51.090000000000003</ele>
        <time>2026-07-04T11:16:51Z</time>
      </trkpt>
      <trkpt lat="54.179590959101915" lon="-9.100283989682794">
        <ele>51.090000000000003</ele>
        <time>2026-07-04T11:16:52Z</time>
      </trkpt>
      <trkpt lat="54.179786005988717" lon="-9.100306034088135">
        <ele>51.090000000000003</ele>
        <time>2026-07-04T11:16:53Z</time>
      </trkpt>
      <trkpt lat="54.179925983771682" lon="-9.100395971909165">
        <ele>51.57</ele>
        <time>2026-07-04T11:16:54Z</time>
      </trkpt>
      <trkpt lat="54.180091023445129" lon="-9.100502002984285">
        <ele>52.049999999999997</ele>
        <time>2026-07-04T11:16:55Z</time>
      </trkpt>
      <trkpt lat="54.182016011327505" lon="-9.101814022287726">
        <ele>58.299999999999997</ele>
        <time>2026-07-04T11:17:06Z</time>
      </trkpt>
      <trkpt lat="54.18408801779151" lon="-9.103234000504017">
        <ele>56.859999999999999</ele>
        <time>2026-07-04T11:17:18Z</time>
      </trkpt>
      <trkpt lat="54.185740007087588" lon="-9.104343010112643">
        <ele>53.969999999999999</ele>
        <time>2026-07-04T11:17:28Z</time>
      </trkpt>
      <trkpt lat="54.187621995806694" lon="-9.105441961437464">
        <ele>50.609999999999999</ele>
        <time>2026-07-04T11:17:39Z</time>
      </trkpt>
      <trkpt lat="54.189301980659366" lon="-9.106360031291843">
        <ele>46.280000000000001</ele>
        <time>2026-07-04T11:17:49Z</time>
      </trkpt>
      <trkpt lat="54.191386979073286" lon="-9.107499970123172">
        <ele>41.950000000000003</ele>
        <time>2026-07-04T11:18:01Z</time>
      </trkpt>
      <trkpt lat="54.193110968917608" lon="-9.108465984463692">
        <ele>38.109999999999999</ele>
        <time>2026-07-04T11:18:11Z</time>
      </trkpt>
      <trkpt lat="54.19554297812283" lon="-9.109799964353442">
        <ele>28.5</ele>
        <time>2026-07-04T11:18:24Z</time>
      </trkpt>
      <trkpt lat="54.197237966582179" lon="-9.110665982589126">
        <ele>23.690000000000001</ele>
        <time>2026-07-04T11:18:34Z</time>
      </trkpt>
      <trkpt lat="54.197370987385511" lon="-9.110690038651228">
        <ele>22.25</ele>
        <time>2026-07-04T11:18:35Z</time>
      </trkpt>
      <trkpt lat="54.197501996532083" lon="-9.110634969547391">
        <ele>21.289999999999999</ele>
        <time>2026-07-04T11:18:36Z</time>
      </trkpt>
      <trkpt lat="54.197638034820557" lon="-9.110571015626192">
        <ele>19.84</ele>
        <time>2026-07-04T11:18:37Z</time>
      </trkpt>
      <trkpt lat="54.197779018431902" lon="-9.110485017299652">
        <ele>18.879999999999999</ele>
        <time>2026-07-04T11:18:38Z</time>
      </trkpt>
      <trkpt lat="54.197909021750093" lon="-9.110345039516687">
        <ele>17.920000000000002</ele>
        <time>2026-07-04T11:18:39Z</time>
      </trkpt>
      <trkpt lat="54.199360013008118" lon="-9.108790028840303">
        <ele>19.359999999999999</ele>
        <time>2026-07-04T11:18:49Z</time>
      </trkpt>
      <trkpt lat="54.201811971142888" lon="-9.106074962764978">
        <ele>10.23</ele>
        <time>2026-07-04T11:19:05Z</time>
      </trkpt>
      <trkpt lat="54.203315014019608" lon="-9.103953000158072">
        <ele>5.42</ele>
        <time>2026-07-04T11:19:16Z</time>
      </trkpt>
      <trkpt lat="54.204312963411212" lon="-9.102001022547483">
        <ele>7.35</ele>
        <time>2026-07-04T11:19:25Z</time>
      </trkpt>
      <trkpt lat="54.205364976078272" lon="-9.100810959935188">
        <ele>8.310000000000001</ele>
        <time>2026-07-04T11:19:34Z</time>
      </trkpt>
      <trkpt lat="54.206250021234155" lon="-9.099896997213364">
        <ele>6.87</ele>
        <time>2026-07-04T11:19:43Z</time>
      </trkpt>
      <trkpt lat="54.206914035603404" lon="-9.099378995597363">
        <ele>4.94</ele>
        <time>2026-07-04T11:19:52Z</time>
      </trkpt>
      <trkpt lat="54.207887006923556" lon="-9.098914973437786">
        <ele>6.87</ele>
        <time>2026-07-04T11:20:03Z</time>
      </trkpt>
      <trkpt lat="54.209238002076745" lon="-9.098293036222458">
        <ele>7.35</ele>
        <time>2026-07-04T11:20:16Z</time>
      </trkpt>
      <trkpt lat="54.210096979513764" lon="-9.097839994356036">
        <ele>6.87</ele>
        <time>2026-07-04T11:20:27Z</time>
      </trkpt>
      <trkpt lat="54.210280040279031" lon="-9.097732035443187">
        <ele>6.39</ele>
        <time>2026-07-04T11:20:30Z</time>
      </trkpt>
      <trkpt lat="54.21051699668169" lon="-9.09759096801281">
        <ele>6.39</ele>
        <time>2026-07-04T11:20:34Z</time>
      </trkpt>
      <trkpt lat="54.210578016936779" lon="-9.097555009648204">
        <ele>6.39</ele>
        <time>2026-07-04T11:20:35Z</time>
      </trkpt>
      <trkpt lat="54.210701985284686" lon="-9.097456019371748">
        <ele>5.91</ele>
        <time>2026-07-04T11:20:37Z</time>
      </trkpt>
      <trkpt lat="54.210763005539775" lon="-9.09739600494504">
        <ele>5.91</ele>
        <time>2026-07-04T11:20:38Z</time>
      </trkpt>
      <trkpt lat="54.210820002481341" lon="-9.097339008003473">
        <ele>5.91</ele>
        <time>2026-07-04T11:20:39Z</time>
      </trkpt>
      <trkpt lat="54.210875993594527" lon="-9.097283016890287">
        <ele>5.91</ele>
        <time>2026-07-04T11:20:40Z</time>
      </trkpt>
      <trkpt lat="54.210927961394191" lon="-9.097212022170425">
        <ele>6.39</ele>
        <time>2026-07-04T11:20:41Z</time>
      </trkpt>
      <trkpt lat="54.210973978042603" lon="-9.097133986651897">
        <ele>6.39</ele>
        <time>2026-07-04T11:20:42Z</time>
      </trkpt>
      <trkpt lat="54.211593987420201" lon="-9.096052972599864">
        <ele>8.789999999999999</ele>
        <time>2026-07-04T11:20:54Z</time>
      </trkpt>
      <trkpt lat="54.212101008743048" lon="-9.095102967694402">
        <ele>12.630000000000001</ele>
        <time>2026-07-04T11:21:05Z</time>
      </trkpt>
      <trkpt lat="54.212141996249557" lon="-9.095025015994906">
        <ele>13.119999999999999</ele>
        <time>2026-07-04T11:21:06Z</time>
      </trkpt>
      <trkpt lat="54.212181977927685" lon="-9.094948992133141">
        <ele>14.08</ele>
        <time>2026-07-04T11:21:07Z</time>
      </trkpt>
      <trkpt lat="54.212423041462898" lon="-9.094318002462387">
        <ele>17.440000000000001</ele>
        <time>2026-07-04T11:21:13Z</time>
      </trkpt>
      <trkpt lat="54.212803998962045" lon="-9.093291973695159">
        <ele>20.32</ele>
        <time>2026-07-04T11:21:24Z</time>
      </trkpt>
      <trkpt lat="54.212854038923979" lon="-9.093157025054097">
        <ele>21.289999999999999</ele>
        <time>2026-07-04T11:21:26Z</time>
      </trkpt>
      <trkpt lat="54.212967026978731" lon="-9.09292995929718">
        <ele>22.25</ele>
        <time>2026-07-04T11:21:29Z</time>
      </trkpt>
      <trkpt lat="54.213053025305271" lon="-9.09273499622941">
        <ele>23.690000000000001</ele>
        <time>2026-07-04T11:21:31Z</time>
      </trkpt>
      <trkpt lat="54.213095018640161" lon="-9.092639023438096">
        <ele>24.649999999999999</ele>
        <time>2026-07-04T11:21:32Z</time>
      </trkpt>
      <trkpt lat="54.213444963097572" lon="-9.091827990487218">
        <ele>28.02</ele>
        <time>2026-07-04T11:21:39Z</time>
      </trkpt>
      <trkpt lat="54.213498020544648" lon="-9.091704022139311">
        <ele>28.02</ele>
        <time>2026-07-04T11:21:40Z</time>
      </trkpt>
      <trkpt lat="54.213605979457498" lon="-9.091261960566044">
        <ele>27.530000000000001</ele>
        <time>2026-07-04T11:21:43Z</time>
      </trkpt>
      <trkpt lat="54.213637998327613" lon="-9.091114019975066">
        <ele>27.530000000000001</ele>
        <time>2026-07-04T11:21:44Z</time>
      </trkpt>
      <trkpt lat="54.213886018842459" lon="-9.089648025110364">
        <ele>28.02</ele>
        <time>2026-07-04T11:21:54Z</time>
      </trkpt>
      <trkpt lat="54.214209979400039" lon="-9.087658999487758">
        <ele>28.5</ele>
        <time>2026-07-04T11:22:07Z</time>
      </trkpt>
      <trkpt lat="54.214418018236756" lon="-9.086748976260424">
        <ele>30.420000000000002</ele>
        <time>2026-07-04T11:22:13Z</time>
      </trkpt>
      <trkpt lat="54.214467974379659" lon="-9.08661101013422">
        <ele>30.420000000000002</ele>
        <time>2026-07-04T11:22:14Z</time>
      </trkpt>
      <trkpt lat="54.215189991518855" lon="-9.084896994754672">
        <ele>30.899999999999999</ele>
        <time>2026-07-04T11:22:26Z</time>
      </trkpt>
      <trkpt lat="54.21593296341598" lon="-9.083489002659917">
        <ele>34.259999999999998</ele>
        <time>2026-07-04T11:22:36Z</time>
      </trkpt>
      <trkpt lat="54.216916998848319" lon="-9.081576000899077">
        <ele>37.149999999999999</ele>
        <time>2026-07-04T11:22:47Z</time>
      </trkpt>
      <trkpt lat="54.217733982950449" lon="-9.079308025538921">
        <ele>38.109999999999999</ele>
        <time>2026-07-04T11:22:57Z</time>
      </trkpt>
      <trkpt lat="54.218770992010832" lon="-9.076690021902323">
        <ele>42.920000000000002</ele>
        <time>2026-07-04T11:23:07Z</time>
      </trkpt>
      <trkpt lat="54.219929035753012" lon="-9.073949977755547">
        <ele>45.799999999999997</ele>
        <time>2026-07-04T11:23:17Z</time>
      </trkpt>
      <trkpt lat="54.221111973747611" lon="-9.072208972647786">
        <ele>40.990000000000002</ele>
        <time>2026-07-04T11:23:25Z</time>
      </trkpt>
      <trkpt lat="54.222714006900787" lon="-9.071015976369381">
        <ele>33.780000000000001</ele>
        <time>2026-07-04T11:23:34Z</time>
      </trkpt>
      <trkpt lat="54.224503040313721" lon="-9.069670010358095">
        <ele>28.98</ele>
        <time>2026-07-04T11:23:44Z</time>
      </trkpt>
      <trkpt lat="54.225616995245218" lon="-9.068548008799553">
        <ele>32.340000000000003</ele>
        <time>2026-07-04T11:23:52Z</time>
      </trkpt>
      <trkpt lat="54.227065974846482" lon="-9.067085031419992">
        <ele>32.340000000000003</ele>
        <time>2026-07-04T11:24:04Z</time>
      </trkpt>
      <trkpt lat="54.228093009442091" lon="-9.065645020455122">
        <ele>32.340000000000003</ele>
        <time>2026-07-04T11:24:13Z</time>
      </trkpt>
      <trkpt lat="54.229373009875417" lon="-9.063606038689613">
        <ele>28.5</ele>
        <time>2026-07-04T11:24:25Z</time>
      </trkpt>
      <trkpt lat="54.230424016714096" lon="-9.062227969989181">
        <ele>33.299999999999997</ele>
        <time>2026-07-04T11:24:34Z</time>
      </trkpt>
      <trkpt lat="54.230633983388543" lon="-9.061957988888025">
        <ele>34.259999999999998</ele>
        <time>2026-07-04T11:24:36Z</time>
      </trkpt>
      <trkpt lat="54.23073397949338" lon="-9.061828991398215">
        <ele>34.740000000000002</ele>
        <time>2026-07-04T11:24:37Z</time>
      </trkpt>
      <trkpt lat="54.230834981426597" lon="-9.061699993908405">
        <ele>35.229999999999997</ele>
        <time>2026-07-04T11:24:38Z</time>
      </trkpt>
      <trkpt lat="54.230945035815239" lon="-9.061584994196892">
        <ele>35.710000000000001</ele>
        <time>2026-07-04T11:24:39Z</time>
      </trkpt>
      <trkpt lat="54.231067998334765" lon="-9.061498995870352">
        <ele>36.189999999999998</ele>
        <time>2026-07-04T11:24:40Z</time>
      </trkpt>
      <trkpt lat="54.231203030794859" lon="-9.061443004757166">
        <ele>36.189999999999998</ele>
        <time>2026-07-04T11:24:41Z</time>
      </trkpt>
      <trkpt lat="54.231343008577824" lon="-9.061403023079038">
        <ele>35.710000000000001</ele>
        <time>2026-07-04T11:24:42Z</time>
      </trkpt>
      <trkpt lat="54.231487009674311" lon="-9.061363041400909">
        <ele>34.740000000000002</ele>
        <time>2026-07-04T11:24:43Z</time>
      </trkpt>
      <trkpt lat="54.232688974589109" lon="-9.061024999246001">
        <ele>31.379999999999999</ele>
        <time>2026-07-04T11:24:52Z</time>
      </trkpt>
      <trkpt lat="54.233108991757035" lon="-9.060886027291417">
        <ele>31.859999999999999</ele>
        <time>2026-07-04T11:24:55Z</time>
      </trkpt>
      <trkpt lat="54.234689986333251" lon="-9.059900986030698">
        <ele>30.420000000000002</ele>
        <time>2026-07-04T11:25:07Z</time>
      </trkpt>
      <trkpt lat="54.236614974215627" lon="-9.058731039986014">
        <ele>26.09</ele>
        <time>2026-07-04T11:25:22Z</time>
      </trkpt>
      <trkpt lat="54.237958006560802" lon="-9.057669974863529">
        <ele>26.09</ele>
        <time>2026-07-04T11:25:33Z</time>
      </trkpt>
      <trkpt lat="54.238087004050612" lon="-9.057610966265202">
        <ele>26.09</ele>
        <time>2026-07-04T11:25:34Z</time>
      </trkpt>
      <trkpt lat="54.238208960741758" lon="-9.057561010122299">
        <ele>26.09</ele>
        <time>2026-07-04T11:25:35Z</time>
      </trkpt>
      <trkpt lat="54.238334018737078" lon="-9.057551035657525">
        <ele>26.09</ele>
        <time>2026-07-04T11:25:36Z</time>
      </trkpt>
      <trkpt lat="54.238829975947738" lon="-9.057469982653856">
        <ele>25.129999999999999</ele>
        <time>2026-07-04T11:25:40Z</time>
      </trkpt>
      <trkpt lat="54.240228999406099" lon="-9.056564988568425">
        <ele>21.77</ele>
        <time>2026-07-04T11:25:51Z</time>
      </trkpt>
      <trkpt lat="54.240348022431135" lon="-9.056457029655576">
        <ele>21.289999999999999</ele>
        <time>2026-07-04T11:25:52Z</time>
      </trkpt>
      <trkpt lat="54.240450030192733" lon="-9.056325014680624">
        <ele>20.809999999999999</ele>
        <time>2026-07-04T11:25:53Z</time>
      </trkpt>
      <trkpt lat="54.240650022402406" lon="-9.056066013872623">
        <ele>20.32</ele>
        <time>2026-07-04T11:25:55Z</time>
      </trkpt>
      <trkpt lat="54.240756975486875" lon="-9.055963000282645">
        <ele>20.32</ele>
        <time>2026-07-04T11:25:56Z</time>
      </trkpt>
      <trkpt lat="54.240877004340291" lon="-9.055885970592499">
        <ele>19.84</ele>
        <time>2026-07-04T11:25:57Z</time>
      </trkpt>
      <trkpt lat="54.24207704141736" lon="-9.055320024490356">
        <ele>20.32</ele>
        <time>2026-07-04T11:26:07Z</time>
      </trkpt>
      <trkpt lat="54.243021011352539" lon="-9.054690040647984">
        <ele>18.879999999999999</ele>
        <time>2026-07-04T11:26:17Z</time>
      </trkpt>
      <trkpt lat="54.24373297020793" lon="-9.053789991885424">
        <ele>17.920000000000002</ele>
        <time>2026-07-04T11:26:25Z</time>
      </trkpt>
      <trkpt lat="54.24381997436285" lon="-9.05360902659595">
        <ele>17.920000000000002</ele>
        <time>2026-07-04T11:26:26Z</time>
      </trkpt>
      <trkpt lat="54.243887029588223" lon="-9.053389001637697">
        <ele>17.920000000000002</ele>
        <time>2026-07-04T11:26:27Z</time>
      </trkpt>
      <trkpt lat="54.243932040408254" lon="-9.053169982507825">
        <ele>18.399999999999999</ele>
        <time>2026-07-04T11:26:28Z</time>
      </trkpt>
      <trkpt lat="54.243974033743143" lon="-9.052961021661758">
        <ele>18.399999999999999</ele>
        <time>2026-07-04T11:26:29Z</time>
      </trkpt>
      <trkpt lat="54.24411803483963" lon="-9.052349980920553">
        <ele>18.399999999999999</ele>
        <time>2026-07-04T11:26:32Z</time>
      </trkpt>
      <trkpt lat="54.244179977104068" lon="-9.052176978439093">
        <ele>18.399999999999999</ele>
        <time>2026-07-04T11:26:33Z</time>
      </trkpt>
      <trkpt lat="54.244293970987201" lon="-9.052027026191354">
        <ele>18.879999999999999</ele>
        <time>2026-07-04T11:26:34Z</time>
      </trkpt>
      <trkpt lat="54.244405031204224" lon="-9.051880007609725">
        <ele>18.879999999999999</ele>
        <time>2026-07-04T11:26:35Z</time>
      </trkpt>
      <trkpt lat="54.244518019258976" lon="-9.051730977371335">
        <ele>18.879999999999999</ele>
        <time>2026-07-04T11:26:36Z</time>
      </trkpt>
      <trkpt lat="54.244863018393517" lon="-9.051336022093892">
        <ele>19.84</ele>
        <time>2026-07-04T11:26:39Z</time>
      </trkpt>
      <trkpt lat="54.244973994791508" lon="-9.051272990182042">
        <ele>20.32</ele>
        <time>2026-07-04T11:26:40Z</time>
      </trkpt>
      <trkpt lat="54.245082037523389" lon="-9.051210964098573">
        <ele>20.32</ele>
        <time>2026-07-04T11:26:41Z</time>
      </trkpt>
      <trkpt lat="54.245169963687658" lon="-9.051210964098573">
        <ele>20.809999999999999</ele>
        <time>2026-07-04T11:26:42Z</time>
      </trkpt>
      <trkpt lat="54.245268031954765" lon="-9.051210964098573">
        <ele>20.809999999999999</ele>
        <time>2026-07-04T11:26:43Z</time>
      </trkpt>
      <trkpt lat="54.246235974133015" lon="-9.051070986315608">
        <ele>20.809999999999999</ele>
        <time>2026-07-04T11:26:51Z</time>
      </trkpt>
      <trkpt lat="54.247399969026446" lon="-9.050376964733005">
        <ele>20.809999999999999</ele>
        <time>2026-07-04T11:27:00Z</time>
      </trkpt>
      <trkpt lat="54.247831972315907" lon="-9.050130033865571">
        <ele>19.359999999999999</ele>
        <time>2026-07-04T11:27:04Z</time>
      </trkpt>
      <trkpt lat="54.247920988127589" lon="-9.050056021660566">
        <ele>19.359999999999999</ele>
        <time>2026-07-04T11:27:05Z</time>
      </trkpt>
      <trkpt lat="54.248003968968987" lon="-9.049939010292292">
        <ele>19.359999999999999</ele>
        <time>2026-07-04T11:27:06Z</time>
      </trkpt>
      <trkpt lat="54.24884500913322" lon="-9.048885991796851">
        <ele>17.440000000000001</ele>
        <time>2026-07-04T11:27:14Z</time>
      </trkpt>
      <trkpt lat="54.249058999121189" lon="-9.048650963231921">
        <ele>16.960000000000001</ele>
        <time>2026-07-04T11:27:16Z</time>
      </trkpt>
      <trkpt lat="54.24914700910449" lon="-9.048498999327421">
        <ele>16.960000000000001</ele>
        <time>2026-07-04T11:27:17Z</time>
      </trkpt>
      <trkpt lat="54.249798031523824" lon="-9.047230985015631">
        <ele>16</ele>
        <time>2026-07-04T11:27:23Z</time>
      </trkpt>
      <trkpt lat="54.250633036717772" lon="-9.04551001265645">
        <ele>16.960000000000001</ele>
        <time>2026-07-04T11:27:30Z</time>
      </trkpt>
      <trkpt lat="54.251654958352447" lon="-9.043688960373402">
        <ele>15.52</ele>
        <time>2026-07-04T11:27:38Z</time>
      </trkpt>
      <trkpt lat="54.251787979155779" lon="-9.043536996468902">
        <ele>16</ele>
        <time>2026-07-04T11:27:39Z</time>
      </trkpt>
      <trkpt lat="54.253153977915645" lon="-9.04207200743258">
        <ele>15.52</ele>
        <time>2026-07-04T11:27:48Z</time>
      </trkpt>
      <trkpt lat="54.25417497754097" lon="-9.040509033948183">
        <ele>15.039999999999999</ele>
        <time>2026-07-04T11:27:56Z</time>
      </trkpt>
      <trkpt lat="54.255944984033704" lon="-9.037573020905256">
        <ele>16</ele>
        <time>2026-07-04T11:28:10Z</time>
      </trkpt>
      <trkpt lat="54.257232025265694" lon="-9.035436976701021">
        <ele>16</ele>
        <time>2026-07-04T11:28:20Z</time>
      </trkpt>
      <trkpt lat="54.258281020447612" lon="-9.034256972372532">
        <ele>14.56</ele>
        <time>2026-07-04T11:28:27Z</time>
      </trkpt>
      <trkpt lat="54.260324025526643" lon="-9.032257972285152">
        <ele>15.039999999999999</ele>
        <time>2026-07-04T11:28:40Z</time>
      </trkpt>
      <trkpt lat="54.261851962655783" lon="-9.031012002378702">
        <ele>16.48</ele>
        <time>2026-07-04T11:28:50Z</time>
      </trkpt>
      <trkpt lat="54.263502024114132" lon="-9.029788998886943">
        <ele>16.48</ele>
        <time>2026-07-04T11:29:01Z</time>
      </trkpt>
      <trkpt lat="54.263644013553858" lon="-9.029701994732022">
        <ele>16.960000000000001</ele>
        <time>2026-07-04T11:29:02Z</time>
      </trkpt>
      <trkpt lat="54.263786002993584" lon="-9.029673999175429">
        <ele>17.920000000000002</ele>
        <time>2026-07-04T11:29:03Z</time>
      </trkpt>
      <trkpt lat="54.265308994799852" lon="-9.02920201420784">
        <ele>20.32</ele>
        <time>2026-07-04T11:29:13Z</time>
      </trkpt>
      <trkpt lat="54.266880014911294" lon="-9.028682000935078">
        <ele>19.84</ele>
        <time>2026-07-04T11:29:22Z</time>
      </trkpt>
      <trkpt lat="54.269189983606339" lon="-9.02754700742662">
        <ele>19.84</ele>
        <time>2026-07-04T11:29:36Z</time>
      </trkpt>
      <trkpt lat="54.271301971748471" lon="-9.026504969224334">
        <ele>21.77</ele>
        <time>2026-07-04T11:29:49Z</time>
      </trkpt>
      <trkpt lat="54.273551004007459" lon="-9.025397971272469">
        <ele>21.77</ele>
        <time>2026-07-04T11:30:03Z</time>
      </trkpt>
      <trkpt lat="54.275215985253453" lon="-9.024593979120255">
        <ele>21.77</ele>
        <time>2026-07-04T11:30:16Z</time>
      </trkpt>
      <trkpt lat="54.27677602507174" lon="-9.023683033883572">
        <ele>23.210000000000001</ele>
        <time>2026-07-04T11:30:28Z</time>
      </trkpt>
      <trkpt lat="54.277551015838981" lon="-9.022531025111675">
        <ele>21.77</ele>
        <time>2026-07-04T11:30:35Z</time>
      </trkpt>
      <trkpt lat="54.278953978791833" lon="-9.019912015646696">
        <ele>19.84</ele>
        <time>2026-07-04T11:30:48Z</time>
      </trkpt>
      <trkpt lat="54.280717028304935" lon="-9.016605019569397">
        <ele>18.399999999999999</ele>
        <time>2026-07-04T11:31:05Z</time>
      </trkpt>
      <trkpt lat="54.282001974061131" lon="-9.01386003009975">
        <ele>16</ele>
        <time>2026-07-04T11:31:18Z</time>
      </trkpt>
      <trkpt lat="54.283189019188285" lon="-9.011067012324929">
        <ele>13.119999999999999</ele>
        <time>2026-07-04T11:31:30Z</time>
      </trkpt>
      <trkpt lat="54.284530961886048" lon="-9.007769990712404">
        <ele>12.630000000000001</ele>
        <time>2026-07-04T11:31:42Z</time>
      </trkpt>
      <trkpt lat="54.284598017111421" lon="-9.007475031539798">
        <ele>13.119999999999999</ele>
        <time>2026-07-04T11:31:43Z</time>
      </trkpt>
      <trkpt lat="54.285300001502037" lon="-9.004284041002393">
        <ele>13.6</ele>
        <time>2026-07-04T11:31:53Z</time>
      </trkpt>
      <trkpt lat="54.285829989239573" lon="-9.00225997902453">
        <ele>12.15</ele>
        <time>2026-07-04T11:32:00Z</time>
      </trkpt>
      <trkpt lat="54.285867037251592" lon="-9.001997960731387">
        <ele>11.67</ele>
        <time>2026-07-04T11:32:01Z</time>
      </trkpt>
      <trkpt lat="54.285893021151423" lon="-9.001710964366794">
        <ele>11.19</ele>
        <time>2026-07-04T11:32:02Z</time>
      </trkpt>
      <trkpt lat="54.286225028336048" lon="-8.9992930367589">
        <ele>9.27</ele>
        <time>2026-07-04T11:32:10Z</time>
      </trkpt>
      <trkpt lat="54.28672400303185" lon="-8.996966974809766">
        <ele>11.19</ele>
        <time>2026-07-04T11:32:19Z</time>
      </trkpt>
      <trkpt lat="54.286945033818483" lon="-8.996043037623167">
        <ele>11.67</ele>
        <time>2026-07-04T11:32:23Z</time>
      </trkpt>
      <trkpt lat="54.286976968869567" lon="-8.99581303820014">
        <ele>11.67</ele>
        <time>2026-07-04T11:32:24Z</time>
      </trkpt>
      <trkpt lat="54.287423975765705" lon="-8.99327902123332">
        <ele>11.19</ele>
        <time>2026-07-04T11:32:35Z</time>
      </trkpt>
      <trkpt lat="54.287507962435484" lon="-8.992851041257381">
        <ele>11.67</ele>
        <time>2026-07-04T11:32:37Z</time>
      </trkpt>
      <trkpt lat="54.287525983527303" lon="-8.992615006864071">
        <ele>12.15</ele>
        <time>2026-07-04T11:32:38Z</time>
      </trkpt>
      <trkpt lat="54.287544004619122" lon="-8.992373021319509">
        <ele>12.630000000000001</ele>
        <time>2026-07-04T11:32:39Z</time>
      </trkpt>
      <trkpt lat="54.287740979343653" lon="-8.989317985251546">
        <ele>13.6</ele>
        <time>2026-07-04T11:32:50Z</time>
      </trkpt>
      <trkpt lat="54.28801498375833" lon="-8.984520016238093">
        <ele>15.039999999999999</ele>
        <time>2026-07-04T11:33:07Z</time>
      </trkpt>
      <trkpt lat="54.28822997957468" lon="-8.981975018978119">
        <ele>16.48</ele>
        <time>2026-07-04T11:33:16Z</time>
      </trkpt>
      <trkpt lat="54.288240037858486" lon="-8.981680981814861">
        <ele>16.48</ele>
        <time>2026-07-04T11:33:17Z</time>
      </trkpt>
      <trkpt lat="54.288138030096889" lon="-8.979437984526157">
        <ele>16.48</ele>
        <time>2026-07-04T11:33:25Z</time>
      </trkpt>
      <trkpt lat="54.287895960733294" lon="-8.977770991623402">
        <ele>14.56</ele>
        <time>2026-07-04T11:33:32Z</time>
      </trkpt>
      <trkpt lat="54.287831000983715" lon="-8.977561024948955">
        <ele>14.56</ele>
        <time>2026-07-04T11:33:33Z</time>
      </trkpt>
      <trkpt lat="54.287391034886241" lon="-8.976095030084252">
        <ele>13.119999999999999</ele>
        <time>2026-07-04T11:33:40Z</time>
      </trkpt>
      <trkpt lat="54.287372007966042" lon="-8.975877016782761">
        <ele>12.630000000000001</ele>
        <time>2026-07-04T11:33:41Z</time>
      </trkpt>
      <trkpt lat="54.287352981045842" lon="-8.975651962682605">
        <ele>12.630000000000001</ele>
        <time>2026-07-04T11:33:42Z</time>
      </trkpt>
      <trkpt lat="54.28738902322948" lon="-8.974701035767794">
        <ele>11.19</ele>
        <time>2026-07-04T11:33:46Z</time>
      </trkpt>
      <trkpt lat="54.287388017401099" lon="-8.974449997767806">
        <ele>11.19</ele>
        <time>2026-07-04T11:33:47Z</time>
      </trkpt>
      <trkpt lat="54.287348035722971" lon="-8.974213041365147">
        <ele>10.710000000000001</ele>
        <time>2026-07-04T11:33:48Z</time>
      </trkpt>
      <trkpt lat="54.287307970225811" lon="-8.973972983658314">
        <ele>11.19</ele>
        <time>2026-07-04T11:33:49Z</time>
      </trkpt>
      <trkpt lat="54.287257008254528" lon="-8.973742984235287">
        <ele>11.19</ele>
        <time>2026-07-04T11:33:50Z</time>
      </trkpt>
      <trkpt lat="54.287194982171059" lon="-8.973518013954163">
        <ele>11.19</ele>
        <time>2026-07-04T11:33:51Z</time>
      </trkpt>
      <trkpt lat="54.286545971408486" lon="-8.970948960632086">
        <ele>12.15</ele>
        <time>2026-07-04T11:34:03Z</time>
      </trkpt>
      <trkpt lat="54.286135006695986" lon="-8.968591969460249">
        <ele>13.119999999999999</ele>
        <time>2026-07-04T11:34:13Z</time>
      </trkpt>
      <trkpt lat="54.286207007244229" lon="-8.966410998255014">
        <ele>15.52</ele>
        <time>2026-07-04T11:34:22Z</time>
      </trkpt>
      <trkpt lat="54.286410016939044" lon="-8.964495984837413">
        <ele>16</ele>
        <time>2026-07-04T11:34:32Z</time>
      </trkpt>
      <trkpt lat="54.286417979747057" lon="-8.963347999379039">
        <ele>15.52</ele>
        <time>2026-07-04T11:34:38Z</time>
      </trkpt>
      <trkpt lat="54.286224022507668" lon="-8.961830036714673">
        <ele>15.039999999999999</ele>
        <time>2026-07-04T11:34:48Z</time>
      </trkpt>
      <trkpt lat="54.286053031682968" lon="-8.960933005437255">
        <ele>16</ele>
        <time>2026-07-04T11:34:55Z</time>
      </trkpt>
      <trkpt lat="54.285999974235892" lon="-8.960819011554122">
        <ele>16</ele>
        <time>2026-07-04T11:34:56Z</time>
      </trkpt>
      <trkpt lat="54.285942977294326" lon="-8.960699988529086">
        <ele>16</ele>
        <time>2026-07-04T11:34:57Z</time>
      </trkpt>
      <trkpt lat="54.285882962867618" lon="-8.960583982989192">
        <ele>16.48</ele>
        <time>2026-07-04T11:34:58Z</time>
      </trkpt>
      <trkpt lat="54.285808028653264" lon="-8.960509970784187">
        <ele>16</ele>
        <time>2026-07-04T11:34:59Z</time>
      </trkpt>
      <trkpt lat="54.285730998963118" lon="-8.960432019084692">
        <ele>16</ele>
        <time>2026-07-04T11:35:00Z</time>
      </trkpt>
      <trkpt lat="54.285648018121719" lon="-8.960373010486364">
        <ele>16</ele>
        <time>2026-07-04T11:35:01Z</time>
      </trkpt>
      <trkpt lat="54.285566965118051" lon="-8.960318025201559">
        <ele>15.52</ele>
        <time>2026-07-04T11:35:02Z</time>
      </trkpt>
      <trkpt lat="54.285346018150449" lon="-8.960167989134789">
        <ele>14.08</ele>
        <time>2026-07-04T11:35:05Z</time>
      </trkpt>
      <trkpt lat="54.285218026489019" lon="-8.960080984979868">
        <ele>13.119999999999999</ele>
        <time>2026-07-04T11:35:07Z</time>
      </trkpt>
      <trkpt lat="54.28515600040555" lon="-8.960039997473359">
        <ele>12.630000000000001</ele>
        <time>2026-07-04T11:35:08Z</time>
      </trkpt>
      <trkpt lat="54.285121969878674" lon="-8.960016025230289">
        <ele>12.630000000000001</ele>
        <time>2026-07-04T11:35:09Z</time>
      </trkpt>
      <trkpt lat="54.285116018727422" lon="-8.959944024682045">
        <ele>12.15</ele>
        <time>2026-07-04T11:35:10Z</time>
      </trkpt>
      <trkpt lat="54.285109983757138" lon="-8.95987001247704">
        <ele>12.15</ele>
        <time>2026-07-04T11:35:11Z</time>
      </trkpt>
      <trkpt lat="54.285100009292364" lon="-8.959736991673708">
        <ele>11.67</ele>
        <time>2026-07-04T11:35:12Z</time>
      </trkpt>
      <trkpt lat="54.285100009292364" lon="-8.959736991673708">
        <ele>11.67</ele>
        <time>2026-07-04T11:35:13Z</time>
      </trkpt>
      <trkpt lat="54.285111995413899" lon="-8.959679994732142">
        <ele>11.19</ele>
        <time>2026-07-04T11:35:14Z</time>
      </trkpt>
      <trkpt lat="54.285153988748789" lon="-8.959476985037327">
        <ele>9.75</ele>
        <time>2026-07-04T11:35:24Z</time>
      </trkpt>
      <trkpt lat="54.285173015668988" lon="-8.95939601585269">
        <ele>10.23</ele>
        <time>2026-07-04T11:36:15Z</time>
      </trkpt>
      <trkpt lat="54.285315005108714" lon="-8.958498984575272">
        <ele>10.710000000000001</ele>
        <time>2026-07-04T11:36:22Z</time>
      </trkpt>
      <trkpt lat="54.28543696179986" lon="-8.956989990547299">
        <ele>12.630000000000001</ele>
        <time>2026-07-04T11:36:32Z</time>
      </trkpt>
      <trkpt lat="54.285637959837914" lon="-8.95531696267426">
        <ele>14.56</ele>
        <time>2026-07-04T11:36:44Z</time>
      </trkpt>
      <trkpt lat="54.285652963444591" lon="-8.955224007368088">
        <ele>15.039999999999999</ele>
        <time>2026-07-04T11:36:45Z</time>
      </trkpt>
      <trkpt lat="54.285665033385158" lon="-8.955151000991464">
        <ele>15.039999999999999</ele>
        <time>2026-07-04T11:36:46Z</time>
      </trkpt>
      <trkpt lat="54.285700991749763" lon="-8.955061985179782">
        <ele>15.52</ele>
        <time>2026-07-04T11:36:47Z</time>
      </trkpt>
      <trkpt lat="54.285746002569795" lon="-8.955068020150065">
        <ele>15.52</ele>
        <time>2026-07-04T11:36:48Z</time>
      </trkpt>
      <trkpt lat="54.285801993682981" lon="-8.955075982958078">
        <ele>16</ele>
        <time>2026-07-04T11:36:49Z</time>
      </trkpt>
      <trkpt lat="54.28586401976645" lon="-8.955085035413504">
        <ele>16</ele>
        <time>2026-07-04T11:36:50Z</time>
      </trkpt>
      <trkpt lat="54.286677986383438" lon="-8.955231970176101">
        <ele>15.52</ele>
        <time>2026-07-04T11:36:58Z</time>
      </trkpt>
      <trkpt lat="54.288367023691535" lon="-8.955588033422828">
        <ele>13.119999999999999</ele>
        <time>2026-07-04T11:37:10Z</time>
      </trkpt>
      <trkpt lat="54.289765041321516" lon="-8.955805962905288">
        <ele>9.75</ele>
        <time>2026-07-04T11:37:21Z</time>
      </trkpt>
      <trkpt lat="54.291088040918112" lon="-8.95604400895536">
        <ele>5.91</ele>
        <time>2026-07-04T11:37:34Z</time>
      </trkpt>
      <trkpt lat="54.291151994839311" lon="-8.956055995076895">
        <ele>5.91</ele>
        <time>2026-07-04T11:37:35Z</time>
      </trkpt>
      <trkpt lat="54.291207985952497" lon="-8.956065969541669">
        <ele>5.91</ele>
        <time>2026-07-04T11:37:36Z</time>
      </trkpt>
      <trkpt lat="54.291249979287386" lon="-8.956006960943341">
        <ele>5.91</ele>
        <time>2026-07-04T11:37:37Z</time>
      </trkpt>
      <trkpt lat="54.291284009814262" lon="-8.955947030335665">
        <ele>5.91</ele>
        <time>2026-07-04T11:37:38Z</time>
      </trkpt>
      <trkpt lat="54.291308987885714" lon="-8.955882992595434">
        <ele>6.39</ele>
        <time>2026-07-04T11:37:39Z</time>
      </trkpt>
      <trkpt lat="54.291327008977532" lon="-8.955800011754036">
        <ele>6.39</ele>
        <time>2026-07-04T11:37:40Z</time>
      </trkpt>
      <trkpt lat="54.291347963735461" lon="-8.955704038962722">
        <ele>6.39</ele>
        <time>2026-07-04T11:37:41Z</time>
      </trkpt>
      <trkpt lat="54.29140898399055" lon="-8.955423999577761">
        <ele>6.39</ele>
        <time>2026-07-04T11:37:43Z</time>
      </trkpt>
      <trkpt lat="54.291575029492378" lon="-8.953649969771504">
        <ele>7.83</ele>
        <time>2026-07-04T11:37:52Z</time>
      </trkpt>
      <trkpt lat="54.291620040312409" lon="-8.951869988813996">
        <ele>7.35</ele>
        <time>2026-07-04T11:37:59Z</time>
      </trkpt>
      <trkpt lat="54.291622973978519" lon="-8.951635966077447">
        <ele>7.35</ele>
        <time>2026-07-04T11:38:00Z</time>
      </trkpt>
      <trkpt lat="54.291678965091705" lon="-8.95144703797996">
        <ele>7.35</ele>
        <time>2026-07-04T11:38:01Z</time>
      </trkpt>
      <trkpt lat="54.291751971468329" lon="-8.951240004971623">
        <ele>6.87</ele>
        <time>2026-07-04T11:38:02Z</time>
      </trkpt>
      <trkpt lat="54.291808968409896" lon="-8.951131962239742">
        <ele>6.87</ele>
        <time>2026-07-04T11:38:03Z</time>
      </trkpt>
      <trkpt lat="54.291889015585184" lon="-8.950979998335242">
        <ele>6.39</ele>
        <time>2026-07-04T11:38:04Z</time>
      </trkpt>
      <trkpt lat="54.291973002254963" lon="-8.950818981975317">
        <ele>6.39</ele>
        <time>2026-07-04T11:38:05Z</time>
      </trkpt>
      <trkpt lat="54.292817981913686" lon="-8.94934100098908">
        <ele>6.39</ele>
        <time>2026-07-04T11:38:14Z</time>
      </trkpt>
      <trkpt lat="54.293763041496277" lon="-8.948328970000148">
        <ele>6.39</ele>
        <time>2026-07-04T11:38:22Z</time>
      </trkpt>
      <trkpt lat="54.29383696988225" lon="-8.948174994438887">
        <ele>6.39</ele>
        <time>2026-07-04T11:38:23Z</time>
      </trkpt>
      <trkpt lat="54.29387703537941" lon="-8.948007021099329">
        <ele>6.39</ele>
        <time>2026-07-04T11:38:24Z</time>
      </trkpt>
      <trkpt lat="54.293918022885919" lon="-8.94783703610301">
        <ele>5.91</ele>
        <time>2026-07-04T11:38:25Z</time>
      </trkpt>
      <trkpt lat="54.29394300095737" lon="-8.947675013914704">
        <ele>5.91</ele>
        <time>2026-07-04T11:38:26Z</time>
      </trkpt>
      <trkpt lat="54.293950041756034" lon="-8.947492958977819">
        <ele>6.39</ele>
        <time>2026-07-04T11:38:27Z</time>
      </trkpt>
      <trkpt lat="54.293955992907286" lon="-8.947302019223571">
        <ele>6.39</ele>
        <time>2026-07-04T11:38:28Z</time>
      </trkpt>
      <trkpt lat="54.293890027329326" lon="-8.94650699570775">
        <ele>6.87</ele>
        <time>2026-07-04T11:38:32Z</time>
      </trkpt>
      <trkpt lat="54.293851973488927" lon="-8.946318989619613">
        <ele>6.87</ele>
        <time>2026-07-04T11:38:33Z</time>
      </trkpt>
      <trkpt lat="54.293790031224489" lon="-8.946132995188236">
        <ele>6.87</ele>
        <time>2026-07-04T11:38:34Z</time>
      </trkpt>
      <trkpt lat="54.293225007131696" lon="-8.944349996745586">
        <ele>8.789999999999999</ele>
        <time>2026-07-04T11:38:43Z</time>
      </trkpt>
      <trkpt lat="54.293159041553736" lon="-8.944009020924568">
        <ele>8.789999999999999</ele>
        <time>2026-07-04T11:38:45Z</time>
      </trkpt>
      <trkpt lat="54.293103972449899" lon="-8.943192958831787">
        <ele>10.23</ele>
        <time>2026-07-04T11:38:50Z</time>
      </trkpt>
      <trkpt lat="54.293054016306996" lon="-8.943014005199075">
        <ele>10.710000000000001</ele>
        <time>2026-07-04T11:38:51Z</time>
      </trkpt>
      <trkpt lat="54.293025014922023" lon="-8.942910991609097">
        <ele>10.710000000000001</ele>
        <time>2026-07-04T11:38:52Z</time>
      </trkpt>
      <trkpt lat="54.29299802519381" lon="-8.942813007161021">
        <ele>11.19</ele>
        <time>2026-07-04T11:38:53Z</time>
      </trkpt>
      <trkpt lat="54.292961983010173" lon="-8.942773025482893">
        <ele>11.19</ele>
        <time>2026-07-04T11:38:54Z</time>
      </trkpt>
      <trkpt lat="54.29291102103889" lon="-8.942721979692578">
        <ele>11.19</ele>
        <time>2026-07-04T11:38:55Z</time>
      </trkpt>
      <trkpt lat="54.292857963591814" lon="-8.942668000236154">
        <ele>11.19</ele>
        <time>2026-07-04T11:38:56Z</time>
      </trkpt>
      <trkpt lat="54.29278202354908" lon="-8.942591976374388">
        <ele>11.19</ele>
        <time>2026-07-04T11:38:57Z</time>
      </trkpt>
      <trkpt lat="54.291968978941441" lon="-8.941823020577431">
        <ele>9.75</ele>
        <time>2026-07-04T11:39:07Z</time>
      </trkpt>
      <trkpt lat="54.291304964572191" lon="-8.940593982115388">
        <ele>10.710000000000001</ele>
        <time>2026-07-04T11:39:16Z</time>
      </trkpt>
      <trkpt lat="54.29059199988842" lon="-8.938559023663402">
        <ele>13.119999999999999</ele>
        <time>2026-07-04T11:39:29Z</time>
      </trkpt>
      <trkpt lat="54.290495021268725" lon="-8.938282001763582">
        <ele>13.119999999999999</ele>
        <time>2026-07-04T11:39:31Z</time>
      </trkpt>
      <trkpt lat="54.290465014055371" lon="-8.938192985951901">
        <ele>12.630000000000001</ele>
        <time>2026-07-04T11:39:32Z</time>
      </trkpt>
      <trkpt lat="54.290451016277075" lon="-8.938004979863763">
        <ele>12.630000000000001</ele>
        <time>2026-07-04T11:39:33Z</time>
      </trkpt>
      <trkpt lat="54.290438024327159" lon="-8.937833989039064">
        <ele>11.67</ele>
        <time>2026-07-04T11:39:34Z</time>
      </trkpt>
      <trkpt lat="54.290422014892101" lon="-8.937613964080811">
        <ele>11.67</ele>
        <time>2026-07-04T11:39:35Z</time>
      </trkpt>
      <trkpt lat="54.290426960214972" lon="-8.937473986297846">
        <ele>11.67</ele>
        <time>2026-07-04T11:39:36Z</time>
      </trkpt>
      <trkpt lat="54.290532991290092" lon="-8.934766966849566">
        <ele>11.19</ele>
        <time>2026-07-04T11:39:48Z</time>
      </trkpt>
      <trkpt lat="54.290601974353194" lon="-8.933588974177837">
        <ele>10.710000000000001</ele>
        <time>2026-07-04T11:39:54Z</time>
      </trkpt>
      <trkpt lat="54.290584959089756" lon="-8.93348797224462">
        <ele>10.23</ele>
        <time>2026-07-04T11:39:55Z</time>
      </trkpt>
      <trkpt lat="54.29057196713984" lon="-8.933408008888364">
        <ele>10.23</ele>
        <time>2026-07-04T11:39:56Z</time>
      </trkpt>
      <trkpt lat="54.290535002946854" lon="-8.933372972533107">
        <ele>10.23</ele>
        <time>2026-07-04T11:39:57Z</time>
      </trkpt>
      <trkpt lat="54.290488986298442" lon="-8.933328967541456">
        <ele>9.75</ele>
        <time>2026-07-04T11:39:58Z</time>
      </trkpt>
      <trkpt lat="54.290435006842017" lon="-8.933278005570173">
        <ele>9.75</ele>
        <time>2026-07-04T11:39:59Z</time>
      </trkpt>
      <trkpt lat="54.290369963273406" lon="-8.933215979486704">
        <ele>9.27</ele>
        <time>2026-07-04T11:40:00Z</time>
      </trkpt>
      <trkpt lat="54.290154967457056" lon="-8.933010958135128">
        <ele>9.27</ele>
        <time>2026-07-04T11:40:03Z</time>
      </trkpt>
      <trkpt lat="54.290087996050715" lon="-8.93294801004231">
        <ele>9.75</ele>
        <time>2026-07-04T11:40:04Z</time>
      </trkpt>
      <trkpt lat="54.290018007159233" lon="-8.932881038635969">
        <ele>9.75</ele>
        <time>2026-07-04T11:40:05Z</time>
      </trkpt>
      <trkpt lat="54.289937959983945" lon="-8.932805014774203">
        <ele>9.27</ele>
        <time>2026-07-04T11:40:06Z</time>
      </trkpt>
      <trkpt lat="54.289852967485785" lon="-8.932723961770535">
        <ele>9.75</ele>
        <time>2026-07-04T11:40:07Z</time>
      </trkpt>
      <trkpt lat="54.289763029664755" lon="-8.932637963443995">
        <ele>9.75</ele>
        <time>2026-07-04T11:40:08Z</time>
      </trkpt>
      <trkpt lat="54.289670996367931" lon="-8.932550037279725">
        <ele>9.75</ele>
        <time>2026-07-04T11:40:09Z</time>
      </trkpt>
      <trkpt lat="54.28958298638463" lon="-8.932555988430977">
        <ele>9.75</ele>
        <time>2026-07-04T11:40:10Z</time>
      </trkpt>
      <trkpt lat="54.289490031078458" lon="-8.93256202340126">
        <ele>9.75</ele>
        <time>2026-07-04T11:40:11Z</time>
      </trkpt>
      <trkpt lat="54.289392968639731" lon="-8.932568980380893">
        <ele>10.23</ele>
        <time>2026-07-04T11:40:12Z</time>
      </trkpt>
      <trkpt lat="54.289291966706514" lon="-8.932590018957853">
        <ele>10.710000000000001</ele>
        <time>2026-07-04T11:40:13Z</time>
      </trkpt>
      <trkpt lat="54.288091007620096" lon="-8.932984974235296">
        <ele>14.08</ele>
        <time>2026-07-04T11:40:23Z</time>
      </trkpt>
      <trkpt lat="54.287723964080215" lon="-8.933070972561836">
        <ele>16.48</ele>
        <time>2026-07-04T11:40:26Z</time>
      </trkpt>
      <trkpt lat="54.28760401904583" lon="-8.933038031682372">
        <ele>16.960000000000001</ele>
        <time>2026-07-04T11:40:27Z</time>
      </trkpt>
      <trkpt lat="54.285953035578132" lon="-8.932585995644331">
        <ele>22.73</ele>
        <time>2026-07-04T11:40:39Z</time>
      </trkpt>
      <trkpt lat="54.284847965463996" lon="-8.932108981534839">
        <ele>28.5</ele>
        <time>2026-07-04T11:40:48Z</time>
      </trkpt>
      <trkpt lat="54.283466041088104" lon="-8.931160988286138">
        <ele>35.710000000000001</ele>
        <time>2026-07-04T11:41:00Z</time>
      </trkpt>
      <trkpt lat="54.282719967886806" lon="-8.930650027468801">
        <ele>38.590000000000003</ele>
        <time>2026-07-04T11:41:06Z</time>
      </trkpt>
      <trkpt lat="54.282612008973956" lon="-8.930620020255446">
        <ele>39.07</ele>
        <time>2026-07-04T11:41:07Z</time>
      </trkpt>
      <trkpt lat="54.282499020919204" lon="-8.930623037740588">
        <ele>39.549999999999997</ele>
        <time>2026-07-04T11:41:08Z</time>
      </trkpt>
      <trkpt lat="54.28238301537931" lon="-8.930625971406698">
        <ele>39.549999999999997</ele>
        <time>2026-07-04T11:41:09Z</time>
      </trkpt>
      <trkpt lat="54.282263992354274" lon="-8.93062898889184">
        <ele>40.030000000000001</ele>
        <time>2026-07-04T11:41:10Z</time>
      </trkpt>
      <trkpt lat="54.281400991603732" lon="-8.930700989440084">
        <ele>43.880000000000003</ele>
        <time>2026-07-04T11:41:18Z</time>
      </trkpt>
      <trkpt lat="54.280112022534013" lon="-8.930878015235066">
        <ele>47.719999999999999</ele>
        <time>2026-07-04T11:41:26Z</time>
      </trkpt>
      <trkpt lat="54.278734959661961" lon="-8.931068032979965">
        <ele>46.759999999999998</ele>
        <time>2026-07-04T11:41:36Z</time>
      </trkpt>
      <trkpt lat="54.278034986928105" lon="-8.931133998557925">
        <ele>46.759999999999998</ele>
        <time>2026-07-04T11:41:44Z</time>
      </trkpt>
      <trkpt lat="54.277990981936455" lon="-8.931133998557925">
        <ele>46.759999999999998</ele>
        <time>2026-07-04T11:41:45Z</time>
      </trkpt>
      <trkpt lat="54.27795996889472" lon="-8.931133998557925">
        <ele>47.240000000000002</ele>
        <time>2026-07-04T11:41:46Z</time>
      </trkpt>
      <trkpt lat="54.277886040508747" lon="-8.931077001616359">
        <ele>47.719999999999999</ele>
        <time>2026-07-04T11:41:53Z</time>
      </trkpt>
      <trkpt lat="54.277844969183207" lon="-8.930984968319535">
        <ele>47.719999999999999</ele>
        <time>2026-07-04T11:41:54Z</time>
      </trkpt>
      <trkpt lat="54.277372984215617" lon="-8.929932033643127">
        <ele>48.68</ele>
        <time>2026-07-04T11:42:01Z</time>
      </trkpt>
      <trkpt lat="54.276492968201637" lon="-8.927971003577113">
        <ele>50.609999999999999</ele>
        <time>2026-07-04T11:42:10Z</time>
      </trkpt>
      <trkpt lat="54.275280022993684" lon="-8.925265995785594">
        <ele>54.93</ele>
        <time>2026-07-04T11:42:22Z</time>
      </trkpt>
      <trkpt lat="54.274342004209757" lon="-8.923149984329939">
        <ele>56.859999999999999</ele>
        <time>2026-07-04T11:42:33Z</time>
      </trkpt>
      <trkpt lat="54.273020010441542" lon="-8.920248001813889">
        <ele>61.18</ele>
        <time>2026-07-04T11:42:46Z</time>
      </trkpt>
      <trkpt lat="54.271918041631579" lon="-8.917661011219025">
        <ele>62.619999999999997</ele>
        <time>2026-07-04T11:42:57Z</time>
      </trkpt>
      <trkpt lat="54.270640974864364" lon="-8.914677975699306">
        <ele>64.549999999999997</ele>
        <time>2026-07-04T11:43:10Z</time>
      </trkpt>
      <trkpt lat="54.269442027434707" lon="-8.911894010379911">
        <ele>65.030000000000001</ele>
        <time>2026-07-04T11:43:21Z</time>
      </trkpt>
      <trkpt lat="54.268162027001381" lon="-8.908913992345333">
        <ele>61.18</ele>
        <time>2026-07-04T11:43:33Z</time>
      </trkpt>
      <trkpt lat="54.266643980517983" lon="-8.90538202598691">
        <ele>57.82</ele>
        <time>2026-07-04T11:43:47Z</time>
      </trkpt>
      <trkpt lat="54.265673020854592" lon="-8.903184961527586">
        <ele>53.490000000000002</ele>
        <time>2026-07-04T11:43:56Z</time>
      </trkpt>
      <trkpt lat="54.264528974890709" lon="-8.900650022551417">
        <ele>48.68</ele>
        <time>2026-07-04T11:44:07Z</time>
      </trkpt>
      <trkpt lat="54.263677038252354" lon="-8.898453963920474">
        <ele>44.840000000000003</ele>
        <time>2026-07-04T11:44:16Z</time>
      </trkpt>
      <trkpt lat="54.263620041310787" lon="-8.898190017789602">
        <ele>45.32</ele>
        <time>2026-07-04T11:44:17Z</time>
      </trkpt>
      <trkpt lat="54.263590034097433" lon="-8.897903021425009">
        <ele>46.280000000000001</ele>
        <time>2026-07-04T11:44:18Z</time>
      </trkpt>
      <trkpt lat="54.263256015256047" lon="-8.895648960024118">
        <ele>55.890000000000001</ele>
        <time>2026-07-04T11:44:26Z</time>
      </trkpt>
      <trkpt lat="54.263102039694786" lon="-8.895174963399768">
        <ele>57.340000000000003</ele>
        <time>2026-07-04T11:44:28Z</time>
      </trkpt>
      <trkpt lat="54.263006988912821" lon="-8.894961979240179">
        <ele>57.82</ele>
        <time>2026-07-04T11:44:29Z</time>
      </trkpt>
      <trkpt lat="54.262899029999971" lon="-8.894765004515648">
        <ele>58.780000000000001</ele>
        <time>2026-07-04T11:44:30Z</time>
      </trkpt>
      <trkpt lat="54.262787969782948" lon="-8.894574986770749">
        <ele>59.740000000000002</ele>
        <time>2026-07-04T11:44:31Z</time>
      </trkpt>
      <trkpt lat="54.262670958414674" lon="-8.894397038966417">
        <ele>60.219999999999999</ele>
        <time>2026-07-04T11:44:32Z</time>
      </trkpt>
      <trkpt lat="54.261261038482189" lon="-8.892254959791899">
        <ele>66.469999999999999</ele>
        <time>2026-07-04T11:44:43Z</time>
      </trkpt>
      <trkpt lat="54.260338023304939" lon="-8.89055703766644">
        <ele>70.310000000000002</ele>
        <time>2026-07-04T11:44:51Z</time>
      </trkpt>
      <trkpt lat="54.259017035365105" lon="-8.887416003271937">
        <ele>72.239999999999995</ele>
        <time>2026-07-04T11:45:04Z</time>
      </trkpt>
      <trkpt lat="54.257856979966164" lon="-8.884566994383931">
        <ele>72.239999999999995</ele>
        <time>2026-07-04T11:45:16Z</time>
      </trkpt>
      <trkpt lat="54.257208975031972" lon="-8.88303603976965">
        <ele>75.599999999999994</ele>
        <time>2026-07-04T11:45:24Z</time>
      </trkpt>
      <trkpt lat="54.257132029160857" lon="-8.88293101452291">
        <ele>76.079999999999998</ele>
        <time>2026-07-04T11:45:25Z</time>
      </trkpt>
      <trkpt lat="54.257076038047671" lon="-8.882853984832764">
        <ele>76.079999999999998</ele>
        <time>2026-07-04T11:45:26Z</time>
      </trkpt>
      <trkpt lat="54.25698702223599" lon="-8.882832024246454">
        <ele>76.560000000000002</ele>
        <time>2026-07-04T11:45:27Z</time>
      </trkpt>
      <trkpt lat="54.256899012252688" lon="-8.882809979841113">
        <ele>76.560000000000002</ele>
        <time>2026-07-04T11:45:28Z</time>
      </trkpt>
      <trkpt lat="54.256809996441007" lon="-8.882790030911565">
        <ele>77.040000000000006</ele>
        <time>2026-07-04T11:45:29Z</time>
      </trkpt>
      <trkpt lat="54.256705977022648" lon="-8.882795982062817">
        <ele>77.519999999999996</ele>
        <time>2026-07-04T11:45:30Z</time>
      </trkpt>
      <trkpt lat="54.255385994911194" lon="-8.88286697678268">
        <ele>77.519999999999996</ele>
        <time>2026-07-04T11:45:40Z</time>
      </trkpt>
      <trkpt lat="54.253703998401761" lon="-8.882956998422742">
        <ele>74.640000000000001</ele>
        <time>2026-07-04T11:45:51Z</time>
      </trkpt>
      <trkpt lat="54.252863964065909" lon="-8.882999997586012">
        <ele>73.200000000000003</ele>
        <time>2026-07-04T11:45:58Z</time>
      </trkpt>
      <trkpt lat="54.252610998228192" lon="-8.882926991209388">
        <ele>72.239999999999995</ele>
        <time>2026-07-04T11:46:05Z</time>
      </trkpt>
      <trkpt lat="54.252578979358077" lon="-8.88299698010087">
        <ele>72.239999999999995</ele>
        <time>2026-07-04T11:46:06Z</time>
      </trkpt>
      <trkpt lat="54.252569004893303" lon="-8.88306001201272">
        <ele>72.239999999999995</ele>
        <time>2026-07-04T11:46:07Z</time>
      </trkpt>
      <trkpt lat="54.252552995458245" lon="-8.883160008117557">
        <ele>72.239999999999995</ele>
        <time>2026-07-04T11:46:08Z</time>
      </trkpt>
      <trkpt lat="54.252532962709665" lon="-8.883290011435747">
        <ele>71.760000000000005</ele>
        <time>2026-07-04T11:46:09Z</time>
      </trkpt>
      <trkpt lat="54.252508990466595" lon="-8.883435018360615">
        <ele>71.760000000000005</ele>
        <time>2026-07-04T11:46:10Z</time>
      </trkpt>
      <trkpt lat="54.252260969951749" lon="-8.884989023208618">
        <ele>65.030000000000001</ele>
        <time>2026-07-04T11:46:18Z</time>
      </trkpt>
      <trkpt lat="54.251684965565801" lon="-8.888602964580059">
        <ele>54.450000000000003</ele>
        <time>2026-07-04T11:46:34Z</time>
      </trkpt>
      <trkpt lat="54.25122999586165" lon="-8.891451973468065">
        <ele>53.490000000000002</ele>
        <time>2026-07-04T11:46:46Z</time>
      </trkpt>
      <trkpt lat="54.250924978405237" lon="-8.893368998542428">
        <ele>53.490000000000002</ele>
        <time>2026-07-04T11:46:55Z</time>
      </trkpt>
      <trkpt lat="54.250753987580538" lon="-8.89433803036809">
        <ele>52.530000000000001</ele>
        <time>2026-07-04T11:47:01Z</time>
      </trkpt>
      <trkpt lat="54.250720040872693" lon="-8.894411958754063">
        <ele>52.530000000000001</ele>
        <time>2026-07-04T11:47:02Z</time>
      </trkpt>
      <trkpt lat="54.250683998689055" lon="-8.894459987059236">
        <ele>52.530000000000001</ele>
        <time>2026-07-04T11:47:03Z</time>
      </trkpt>
      <trkpt lat="54.250635970383883" lon="-8.894451018422842">
        <ele>52.530000000000001</ele>
        <time>2026-07-04T11:47:04Z</time>
      </trkpt>
      <trkpt lat="54.250576961785555" lon="-8.894435008987784">
        <ele>52.530000000000001</ele>
        <time>2026-07-04T11:47:05Z</time>
      </trkpt>
      <trkpt lat="54.250504961237311" lon="-8.894415982067585">
        <ele>52.530000000000001</ele>
        <time>2026-07-04T11:47:06Z</time>
      </trkpt>
      <trkpt lat="54.250420974567533" lon="-8.894394021481276">
        <ele>52.530000000000001</ele>
        <time>2026-07-04T11:47:07Z</time>
      </trkpt>
      <trkpt lat="54.24951296299696" lon="-8.894194029271603">
        <ele>53.009999999999998</ele>
        <time>2026-07-04T11:47:15Z</time>
      </trkpt>
      <trkpt lat="54.249261002987623" lon="-8.894151030108333">
        <ele>53.490000000000002</ele>
        <time>2026-07-04T11:47:20Z</time>
      </trkpt>
      <trkpt lat="54.249234013259411" lon="-8.89414700679481">
        <ele>53.490000000000002</ele>
        <time>2026-07-04T11:47:28Z</time>
      </trkpt>
      <trkpt lat="54.24906101077795" lon="-8.894097972661257">
        <ele>53.969999999999999</ele>
        <time>2026-07-04T11:47:38Z</time>
      </trkpt>
      <trkpt lat="54.248337987810373" lon="-8.893878031522036">
        <ele>56.369999999999997</ele>
        <time>2026-07-04T11:47:44Z</time>
      </trkpt>
      <trkpt lat="54.247701968997717" lon="-8.893668986856937">
        <ele>57.82</ele>
        <time>2026-07-04T11:47:48Z</time>
      </trkpt>
      <trkpt lat="54.247565008699894" lon="-8.893520040437579">
        <ele>58.299999999999997</ele>
        <time>2026-07-04T11:47:49Z</time>
      </trkpt>
      <trkpt lat="54.246265981346369" lon="-8.892099978402257">
        <ele>59.740000000000002</ele>
        <time>2026-07-04T11:47:57Z</time>
      </trkpt>
      <trkpt lat="54.24411803483963" lon="-8.889829991385341">
        <ele>62.140000000000001</ele>
        <time>2026-07-04T11:48:10Z</time>
      </trkpt>
      <trkpt lat="54.242629995569587" lon="-8.88821697793901">
        <ele>63.579999999999998</ele>
        <time>2026-07-04T11:48:20Z</time>
      </trkpt>
      <trkpt lat="54.241314036771655" lon="-8.886819966137409">
        <ele>64.069999999999993</ele>
        <time>2026-07-04T11:48:30Z</time>
      </trkpt>
      <trkpt lat="54.240623032674193" lon="-8.886157963424921">
        <ele>67.430000000000007</ele>
        <time>2026-07-04T11:48:37Z</time>
      </trkpt>
      <trkpt lat="54.240525970235467" lon="-8.886098032817245">
        <ele>67.430000000000007</ele>
        <time>2026-07-04T11:48:38Z</time>
      </trkpt>
      <trkpt lat="54.240419017150998" lon="-8.88611102476716">
        <ele>67.909999999999997</ele>
        <time>2026-07-04T11:48:39Z</time>
      </trkpt>
      <trkpt lat="54.239389970898628" lon="-8.886171039193869">
        <ele>68.870000000000005</ele>
        <time>2026-07-04T11:48:47Z</time>
      </trkpt>
      <trkpt lat="54.238068982958794" lon="-8.886113036423922">
        <ele>72.719999999999999</ele>
        <time>2026-07-04T11:48:56Z</time>
      </trkpt>
      <trkpt lat="54.236760986968875" lon="-8.885898040607572">
        <ele>78.480000000000004</ele>
        <time>2026-07-04T11:49:04Z</time>
      </trkpt>
      <trkpt lat="54.235190972685814" lon="-8.885428989306092">
        <ele>78.480000000000004</ele>
        <time>2026-07-04T11:49:13Z</time>
      </trkpt>
      <trkpt lat="54.23316003754735" lon="-8.884887015447021">
        <ele>79.930000000000007</ele>
        <time>2026-07-04T11:49:26Z</time>
      </trkpt>
      <trkpt lat="54.231204958632588" lon="-8.884934959933162">
        <ele>81.849999999999994</ele>
        <time>2026-07-04T11:49:38Z</time>
      </trkpt>
      <trkpt lat="54.228574968874454" lon="-8.885023975744844">
        <ele>87.140000000000001</ele>
        <time>2026-07-04T11:49:54Z</time>
      </trkpt>
      <trkpt lat="54.226044975221157" lon="-8.885036967694759">
        <ele>93.870000000000005</ele>
        <time>2026-07-04T11:50:09Z</time>
      </trkpt>
      <trkpt lat="54.225912960246205" lon="-8.884955998510122">
        <ele>94.349999999999994</ele>
        <time>2026-07-04T11:50:10Z</time>
      </trkpt>
      <trkpt lat="54.225789997726679" lon="-8.884844016283751">
        <ele>94.829999999999998</ele>
        <time>2026-07-04T11:50:11Z</time>
      </trkpt>
      <trkpt lat="54.225664017722011" lon="-8.884718958288431">
        <ele>94.829999999999998</ele>
        <time>2026-07-04T11:50:12Z</time>
      </trkpt>
      <trkpt lat="54.225529991090298" lon="-8.884580992162228">
        <ele>94.829999999999998</ele>
        <time>2026-07-04T11:50:13Z</time>
      </trkpt>
      <trkpt lat="54.223839025944471" lon="-8.882817020639777">
        <ele>98.670000000000002</ele>
        <time>2026-07-04T11:50:25Z</time>
      </trkpt>
      <trkpt lat="54.221678003668785" lon="-8.88056798838079">
        <ele>100.11</ele>
        <time>2026-07-04T11:50:40Z</time>
      </trkpt>
      <trkpt lat="54.219858963042498" lon="-8.87867602519691">
        <ele>105.88</ele>
        <time>2026-07-04T11:50:53Z</time>
      </trkpt>
      <trkpt lat="54.217959037050605" lon="-8.876704014837742">
        <ele>108.29000000000001</ele>
        <time>2026-07-04T11:51:07Z</time>
      </trkpt>
      <trkpt lat="54.216583985835314" lon="-8.875278001651168">
        <ele>112.13</ele>
        <time>2026-07-04T11:51:17Z</time>
      </trkpt>
      <trkpt lat="54.215424014255404" lon="-8.874154994264245">
        <ele>116.45999999999999</ele>
        <time>2026-07-04T11:51:26Z</time>
      </trkpt>
      <trkpt lat="54.213961958885193" lon="-8.872944982722402">
        <ele>114.05</ele>
        <time>2026-07-04T11:51:36Z</time>
      </trkpt>
      <trkpt lat="54.212112994864583" lon="-8.871494997292757">
        <ele>126.55</ele>
        <time>2026-07-04T11:51:49Z</time>
      </trkpt>
      <trkpt lat="54.210508028045297" lon="-8.870038976892829">
        <ele>131.84</ele>
        <time>2026-07-04T11:52:00Z</time>
      </trkpt>
      <trkpt lat="54.208966009318829" lon="-8.868572982028127">
        <ele>136.63999999999999</ele>
        <time>2026-07-04T11:52:11Z</time>
      </trkpt>
      <trkpt lat="54.207860017195344" lon="-8.86750303208828">
        <ele>140.49000000000001</ele>
        <time>2026-07-04T11:52:20Z</time>
      </trkpt>
      <trkpt lat="54.206257984042168" lon="-8.866204004734755">
        <ele>152.03</ele>
        <time>2026-07-04T11:52:32Z</time>
      </trkpt>
      <trkpt lat="54.204675983637571" lon="-8.865197002887726">
        <ele>156.83000000000001</ele>
        <time>2026-07-04T11:52:43Z</time>
      </trkpt>
      <trkpt lat="54.202542034909129" lon="-8.863897975534201">
        <ele>166.44999999999999</ele>
        <time>2026-07-04T11:52:57Z</time>
      </trkpt>
      <trkpt lat="54.201361024752259" lon="-8.862765999510884">
        <ele>172.21000000000001</ele>
        <time>2026-07-04T11:53:06Z</time>
      </trkpt>
      <trkpt lat="54.199835015460849" lon="-8.861065981909633">
        <ele>177.97999999999999</ele>
        <time>2026-07-04T11:53:17Z</time>
      </trkpt>
      <trkpt lat="54.198962040245533" lon="-8.860765993595123">
        <ele>173.66</ele>
        <time>2026-07-04T11:53:23Z</time>
      </trkpt>
      <trkpt lat="54.196822978556156" lon="-8.860261989757419">
        <ele>178.46000000000001</ele>
        <time>2026-07-04T11:53:36Z</time>
      </trkpt>
      <trkpt lat="54.195355977863073" lon="-8.859915984794498">
        <ele>182.31</ele>
        <time>2026-07-04T11:53:46Z</time>
      </trkpt>
      <trkpt lat="54.193339962512255" lon="-8.859439976513386">
        <ele>184.71000000000001</ele>
        <time>2026-07-04T11:53:59Z</time>
      </trkpt>
      <trkpt lat="54.191570961847901" lon="-8.859003027901053">
        <ele>189.52000000000001</ele>
        <time>2026-07-04T11:54:11Z</time>
      </trkpt>
      <trkpt lat="54.189721997827291" lon="-8.858183026313782">
        <ele>194.80000000000001</ele>
        <time>2026-07-04T11:54:23Z</time>
      </trkpt>
      <trkpt lat="54.188032960519195" lon="-8.857275014743209">
        <ele>195.77000000000001</ele>
        <time>2026-07-04T11:54:34Z</time>
      </trkpt>
      <trkpt lat="54.186408966779709" lon="-8.856402961537242">
        <ele>198.16999999999999</ele>
        <time>2026-07-04T11:54:45Z</time>
      </trkpt>
      <trkpt lat="54.184871977195144" lon="-8.855577008798719">
        <ele>204.41999999999999</ele>
        <time>2026-07-04T11:54:55Z</time>
      </trkpt>
      <trkpt lat="54.183287965133786" lon="-8.854401027783752">
        <ele>204.41999999999999</ele>
        <time>2026-07-04T11:55:05Z</time>
      </trkpt>
      <trkpt lat="54.181090984493494" lon="-8.852686006575823">
        <ele>202.97999999999999</ele>
        <time>2026-07-04T11:55:20Z</time>
      </trkpt>
      <trkpt lat="54.179228022694588" lon="-8.851175000891089">
        <ele>202.00999999999999</ele>
        <time>2026-07-04T11:55:32Z</time>
      </trkpt>
      <trkpt lat="54.177271015942097" lon="-8.849596017971635">
        <ele>199.13</ele>
        <time>2026-07-04T11:55:45Z</time>
      </trkpt>
      <trkpt lat="54.175749029964209" lon="-8.848334960639477">
        <ele>200.09</ele>
        <time>2026-07-04T11:55:56Z</time>
      </trkpt>
      <trkpt lat="54.17375598102808" lon="-8.846934009343386">
        <ele>202.00999999999999</ele>
        <time>2026-07-04T11:56:09Z</time>
      </trkpt>
      <trkpt lat="54.172729030251503" lon="-8.846339983865619">
        <ele>202.97999999999999</ele>
        <time>2026-07-04T11:56:18Z</time>
      </trkpt>
      <trkpt lat="54.171491023153067" lon="-8.845851989462972">
        <ele>208.74000000000001</ele>
        <time>2026-07-04T11:56:27Z</time>
      </trkpt>
      <trkpt lat="54.17008001357317" lon="-8.845499027520418">
        <ele>204.90000000000001</ele>
        <time>2026-07-04T11:56:37Z</time>
      </trkpt>
      <trkpt lat="54.168807975947857" lon="-8.845185041427612">
        <ele>197.69</ele>
        <time>2026-07-04T11:56:47Z</time>
      </trkpt>
      <trkpt lat="54.167368970811367" lon="-8.844931991770864">
        <ele>196.25</ele>
        <time>2026-07-04T11:56:57Z</time>
      </trkpt>
      <trkpt lat="54.165537022054195" lon="-8.84483702480793">
        <ele>189.52000000000001</ele>
        <time>2026-07-04T11:57:08Z</time>
      </trkpt>
      <trkpt lat="54.163418998941779" lon="-8.844726970419288">
        <ele>191.44</ele>
        <time>2026-07-04T11:57:20Z</time>
      </trkpt>
      <trkpt lat="54.161451011896133" lon="-8.84462496265769">
        <ele>193.36000000000001</ele>
        <time>2026-07-04T11:57:32Z</time>
      </trkpt>
      <trkpt lat="54.160316018387675" lon="-8.844654969871044">
        <ele>189.52000000000001</ele>
        <time>2026-07-04T11:57:41Z</time>
      </trkpt>
      <trkpt lat="54.160216022282839" lon="-8.844658993184567">
        <ele>189.03999999999999</ele>
        <time>2026-07-04T11:57:42Z</time>
      </trkpt>
      <trkpt lat="54.160116026178002" lon="-8.844567965716124">
        <ele>188.56</ele>
        <time>2026-07-04T11:57:43Z</time>
      </trkpt>
      <trkpt lat="54.160028016194701" lon="-8.844488002359867">
        <ele>188.08000000000001</ele>
        <time>2026-07-04T11:57:44Z</time>
      </trkpt>
      <trkpt lat="54.1599400062114" lon="-8.84440896101296">
        <ele>188.08000000000001</ele>
        <time>2026-07-04T11:57:45Z</time>
      </trkpt>
      <trkpt lat="54.159845961257815" lon="-8.84432296268642">
        <ele>187.59</ele>
        <time>2026-07-04T11:57:46Z</time>
      </trkpt>
      <trkpt lat="54.159411024302244" lon="-8.843988021835685">
        <ele>188.08000000000001</ele>
        <time>2026-07-04T11:57:50Z</time>
      </trkpt>
      <trkpt lat="54.159284038469195" lon="-8.843950973823667">
        <ele>188.08000000000001</ele>
        <time>2026-07-04T11:57:51Z</time>
      </trkpt>
      <trkpt lat="54.158798977732658" lon="-8.843796998262405">
        <ele>188.08000000000001</ele>
        <time>2026-07-04T11:57:55Z</time>
      </trkpt>
      <trkpt lat="54.15845800191164" lon="-8.843600023537874">
        <ele>187.59</ele>
        <time>2026-07-04T11:57:58Z</time>
      </trkpt>
      <trkpt lat="54.158343002200127" lon="-8.843533974140883">
        <ele>187.59</ele>
        <time>2026-07-04T11:57:59Z</time>
      </trkpt>
      <trkpt lat="54.158226996660233" lon="-8.843501033261418">
        <ele>187.59</ele>
        <time>2026-07-04T11:58:00Z</time>
      </trkpt>
      <trkpt lat="54.158115014433861" lon="-8.843501033261418">
        <ele>187.11000000000001</ele>
        <time>2026-07-04T11:58:01Z</time>
      </trkpt>
      <trkpt lat="54.158005965873599" lon="-8.843513019382954">
        <ele>186.63</ele>
        <time>2026-07-04T11:58:02Z</time>
      </trkpt>
      <trkpt lat="54.157894989475608" lon="-8.843573033809662">
        <ele>186.63</ele>
        <time>2026-07-04T11:58:03Z</time>
      </trkpt>
      <trkpt lat="54.15779197588563" lon="-8.843629024922848">
        <ele>186.63</ele>
        <time>2026-07-04T11:58:04Z</time>
      </trkpt>
      <trkpt lat="54.157651998102665" lon="-8.843629024922848">
        <ele>186.63</ele>
        <time>2026-07-04T11:58:05Z</time>
      </trkpt>
      <trkpt lat="54.157525012269616" lon="-8.843629024922848">
        <ele>186.63</ele>
        <time>2026-07-04T11:58:06Z</time>
      </trkpt>
      <trkpt lat="54.157390985637903" lon="-8.843629024922848">
        <ele>187.11000000000001</ele>
        <time>2026-07-04T11:58:07Z</time>
      </trkpt>
      <trkpt lat="54.157126033678651" lon="-8.843645034357905">
        <ele>187.11000000000001</ele>
        <time>2026-07-04T11:58:09Z</time>
      </trkpt>
      <trkpt lat="54.15613797493279" lon="-8.843991961330175">
        <ele>188.08000000000001</ele>
        <time>2026-07-04T11:58:17Z</time>
      </trkpt>
      <trkpt lat="54.156042002141476" lon="-8.844074020162225">
        <ele>187.59</ele>
        <time>2026-07-04T11:58:18Z</time>
      </trkpt>
      <trkpt lat="54.155951980501413" lon="-8.8441720046103">
        <ele>187.59</ele>
        <time>2026-07-04T11:58:19Z</time>
      </trkpt>
      <trkpt lat="54.155838992446661" lon="-8.844294967129827">
        <ele>187.11000000000001</ele>
        <time>2026-07-04T11:58:20Z</time>
      </trkpt>
      <trkpt lat="54.155770009383559" lon="-8.844405021518469">
        <ele>187.11000000000001</ele>
        <time>2026-07-04T11:58:21Z</time>
      </trkpt>
      <trkpt lat="54.15551302023232" lon="-8.844745997339487">
        <ele>187.11000000000001</ele>
        <time>2026-07-04T11:58:24Z</time>
      </trkpt>
      <trkpt lat="54.155410006642342" lon="-8.844812968745828">
        <ele>186.63</ele>
        <time>2026-07-04T11:58:25Z</time>
      </trkpt>
      <trkpt lat="54.155302969738841" lon="-8.844882035627961">
        <ele>186.63</ele>
        <time>2026-07-04T11:58:26Z</time>
      </trkpt>
      <trkpt lat="54.154351959004998" lon="-8.845398025587201">
        <ele>186.63</ele>
        <time>2026-07-04T11:58:34Z</time>
      </trkpt>
      <trkpt lat="54.154231008142233" lon="-8.845405988395214">
        <ele>186.63</ele>
        <time>2026-07-04T11:58:35Z</time>
      </trkpt>
      <trkpt lat="54.154107961803675" lon="-8.845394002273679">
        <ele>187.11000000000001</ele>
        <time>2026-07-04T11:58:36Z</time>
      </trkpt>
      <trkpt lat="54.153992040082812" lon="-8.845383021980524">
        <ele>187.59</ele>
        <time>2026-07-04T11:58:37Z</time>
      </trkpt>
      <trkpt lat="54.153887014836073" lon="-8.845372041687369">
        <ele>188.56</ele>
        <time>2026-07-04T11:58:38Z</time>
      </trkpt>
      <trkpt lat="54.153777966275811" lon="-8.845387967303395">
        <ele>189.03999999999999</ele>
        <time>2026-07-04T11:58:39Z</time>
      </trkpt>
      <trkpt lat="54.153659027069807" lon="-8.845424009487033">
        <ele>189.52000000000001</ele>
        <time>2026-07-04T11:58:40Z</time>
      </trkpt>
      <trkpt lat="54.153528017923236" lon="-8.845441024750471">
        <ele>189.52000000000001</ele>
        <time>2026-07-04T11:58:41Z</time>
      </trkpt>
      <trkpt lat="54.153392985463142" lon="-8.84539601393044">
        <ele>189.52000000000001</ele>
        <time>2026-07-04T11:58:42Z</time>
      </trkpt>
      <trkpt lat="54.153253007680178" lon="-8.845349997282028">
        <ele>189.52000000000001</ele>
        <time>2026-07-04T11:58:43Z</time>
      </trkpt>
      <trkpt lat="54.152837013825774" lon="-8.845261987298727">
        <ele>191.91999999999999</ele>
        <time>2026-07-04T11:58:46Z</time>
      </trkpt>
      <trkpt lat="54.152707010507584" lon="-8.845297023653984">
        <ele>192.88</ele>
        <time>2026-07-04T11:58:47Z</time>
      </trkpt>
      <trkpt lat="54.151418963447213" lon="-8.845453010872006">
        <ele>194.31999999999999</ele>
        <time>2026-07-04T11:58:56Z</time>
      </trkpt>
      <trkpt lat="54.15067900903523" lon="-8.845416968688369">
        <ele>194.80000000000001</ele>
        <time>2026-07-04T11:59:01Z</time>
      </trkpt>
      <trkpt lat="54.150539031252265" lon="-8.845397019758821">
        <ele>195.28</ele>
        <time>2026-07-04T11:59:02Z</time>
      </trkpt>
      <trkpt lat="54.150402992963791" lon="-8.845314960926771">
        <ele>195.28</ele>
        <time>2026-07-04T11:59:03Z</time>
      </trkpt>
      <trkpt lat="54.150267038494349" lon="-8.845231980085373">
        <ele>195.77000000000001</ele>
        <time>2026-07-04T11:59:04Z</time>
      </trkpt>
      <trkpt lat="54.150127982720733" lon="-8.845146987587214">
        <ele>195.77000000000001</ele>
        <time>2026-07-04T11:59:05Z</time>
      </trkpt>
      <trkpt lat="54.14999102242291" lon="-8.845037017017603">
        <ele>196.25</ele>
        <time>2026-07-04T11:59:06Z</time>
      </trkpt>
      <trkpt lat="54.148391000926495" lon="-8.843986010178924">
        <ele>201.05000000000001</ele>
        <time>2026-07-04T11:59:17Z</time>
      </trkpt>
      <trkpt lat="54.146668016910553" lon="-8.843603041023016">
        <ele>200.09</ele>
        <time>2026-07-04T11:59:28Z</time>
      </trkpt>
      <trkpt lat="54.144837995991111" lon="-8.843217976391316">
        <ele>202.49000000000001</ele>
        <time>2026-07-04T11:59:40Z</time>
      </trkpt>
      <trkpt lat="54.142910996451974" lon="-8.842812040820718">
        <ele>202.00999999999999</ele>
        <time>2026-07-04T11:59:52Z</time>
      </trkpt>
      <trkpt lat="54.141089022159576" lon="-8.84286199696362">
        <ele>205.38</ele>
        <time>2026-07-04T12:00:03Z</time>
      </trkpt>
      <trkpt lat="54.139150036498904" lon="-8.843115968629718">
        <ele>205.38</ele>
        <time>2026-07-04T12:00:14Z</time>
      </trkpt>
      <trkpt lat="54.137125974521041" lon="-8.843805966898799">
        <ele>206.81999999999999</ele>
        <time>2026-07-04T12:00:26Z</time>
      </trkpt>
      <trkpt lat="54.135633995756507" lon="-8.844610964879394">
        <ele>207.30000000000001</ele>
        <time>2026-07-04T12:00:36Z</time>
      </trkpt>
      <trkpt lat="54.134040009230375" lon="-8.84571997448802">
        <ele>206.81999999999999</ele>
        <time>2026-07-04T12:00:47Z</time>
      </trkpt>
      <trkpt lat="54.1338159609586" lon="-8.845930024981499">
        <ele>207.30000000000001</ele>
        <time>2026-07-04T12:00:49Z</time>
      </trkpt>
      <trkpt lat="54.132794039323926" lon="-8.846871983259916">
        <ele>206.81999999999999</ele>
        <time>2026-07-04T12:00:57Z</time>
      </trkpt>
      <trkpt lat="54.131803968921304" lon="-8.847740013152361">
        <ele>205.38</ele>
        <time>2026-07-04T12:01:05Z</time>
      </trkpt>
      <trkpt lat="54.130830997601151" lon="-8.848593961447477">
        <ele>194.80000000000001</ele>
        <time>2026-07-04T12:01:13Z</time>
      </trkpt>
      <trkpt lat="54.129383023828268" lon="-8.849430978298187">
        <ele>178.94</ele>
        <time>2026-07-04T12:01:23Z</time>
      </trkpt>
      <trkpt lat="54.127831030637026" lon="-8.849962977692485">
        <ele>170.77000000000001</ele>
        <time>2026-07-04T12:01:33Z</time>
      </trkpt>
      <trkpt lat="54.126615989953279" lon="-8.849895000457764">
        <ele>169.33000000000001</ele>
        <time>2026-07-04T12:01:41Z</time>
      </trkpt>
      <trkpt lat="54.126078961417079" lon="-8.84993196465075">
        <ele>167.88999999999999</ele>
        <time>2026-07-04T12:01:45Z</time>
      </trkpt>
      <trkpt lat="54.125588033348322" lon="-8.850047970190644">
        <ele>165</ele>
        <time>2026-07-04T12:01:49Z</time>
      </trkpt>
      <trkpt lat="54.125472027808428" lon="-8.850074959918857">
        <ele>164.52000000000001</ele>
        <time>2026-07-04T12:01:50Z</time>
      </trkpt>
      <trkpt lat="54.125351998955011" lon="-8.850061967968941">
        <ele>163.56</ele>
        <time>2026-07-04T12:01:51Z</time>
      </trkpt>
      <trkpt lat="54.125016974285245" lon="-8.849918972700834">
        <ele>161.63999999999999</ele>
        <time>2026-07-04T12:01:54Z</time>
      </trkpt>
      <trkpt lat="54.124904992058873" lon="-8.849930036813021">
        <ele>160.19999999999999</ele>
        <time>2026-07-04T12:01:55Z</time>
      </trkpt>
      <trkpt lat="54.124794015660882" lon="-8.849999019876123">
        <ele>158.75</ele>
        <time>2026-07-04T12:01:56Z</time>
      </trkpt>
      <trkpt lat="54.123929003253579" lon="-8.85033798404038">
        <ele>151.53999999999999</ele>
        <time>2026-07-04T12:02:02Z</time>
      </trkpt>
      <trkpt lat="54.123814003542066" lon="-8.850376037880778">
        <ele>150.58000000000001</ele>
        <time>2026-07-04T12:02:03Z</time>
      </trkpt>
      <trkpt lat="54.123711995780468" lon="-8.850461030378938">
        <ele>149.62</ele>
        <time>2026-07-04T12:02:04Z</time>
      </trkpt>
      <trkpt lat="54.123604036867619" lon="-8.850550968199968">
        <ele>149.13999999999999</ele>
        <time>2026-07-04T12:02:05Z</time>
      </trkpt>
      <trkpt lat="54.12350102327764" lon="-8.850636966526508">
        <ele>148.66</ele>
        <time>2026-07-04T12:02:06Z</time>
      </trkpt>
      <trkpt lat="54.123398009687662" lon="-8.850686000660062">
        <ele>148.18000000000001</ele>
        <time>2026-07-04T12:02:07Z</time>
      </trkpt>
      <trkpt lat="54.123309999704361" lon="-8.850677032023668">
        <ele>147.69999999999999</ele>
        <time>2026-07-04T12:02:08Z</time>
      </trkpt>
      <trkpt lat="54.123224001377821" lon="-8.850669991225004">
        <ele>147.69999999999999</ele>
        <time>2026-07-04T12:02:09Z</time>
      </trkpt>
      <trkpt lat="54.123165998607874" lon="-8.850618023425341">
        <ele>147.22</ele>
        <time>2026-07-04T12:02:10Z</time>
      </trkpt>
      <trkpt lat="54.123100033029914" lon="-8.850524984300137">
        <ele>146.74000000000001</ele>
        <time>2026-07-04T12:02:11Z</time>
      </trkpt>
      <trkpt lat="54.123025014996529" lon="-8.850419959053397">
        <ele>146.25999999999999</ele>
        <time>2026-07-04T12:02:12Z</time>
      </trkpt>
      <trkpt lat="54.122957037761807" lon="-8.850296996533871">
        <ele>146.74000000000001</ele>
        <time>2026-07-04T12:02:13Z</time>
      </trkpt>
      <trkpt lat="54.122896017506719" lon="-8.850154001265764">
        <ele>147.22</ele>
        <time>2026-07-04T12:02:14Z</time>
      </trkpt>
      <trkpt lat="54.122838014736772" lon="-8.85001796297729">
        <ele>148.18000000000001</ele>
        <time>2026-07-04T12:02:15Z</time>
      </trkpt>
      <trkpt lat="54.122759979218245" lon="-8.849893994629383">
        <ele>148.66</ele>
        <time>2026-07-04T12:02:16Z</time>
      </trkpt>
      <trkpt lat="54.122676998376846" lon="-8.849839009344578">
        <ele>149.13999999999999</ele>
        <time>2026-07-04T12:02:17Z</time>
      </trkpt>
      <trkpt lat="54.12260097451508" lon="-8.849787963554263">
        <ele>149.13999999999999</ele>
        <time>2026-07-04T12:02:18Z</time>
      </trkpt>
      <trkpt lat="54.12249200977385" lon="-8.849787963554263">
        <ele>149.13999999999999</ele>
        <time>2026-07-04T12:02:19Z</time>
      </trkpt>
      <trkpt lat="54.122391007840633" lon="-8.849787963554263">
        <ele>148.66</ele>
        <time>2026-07-04T12:02:20Z</time>
      </trkpt>
      <trkpt lat="54.122281959280372" lon="-8.849787963554263">
        <ele>148.18000000000001</ele>
        <time>2026-07-04T12:02:21Z</time>
      </trkpt>
      <trkpt lat="54.122156985104084" lon="-8.849787963554263">
        <ele>147.22</ele>
        <time>2026-07-04T12:02:22Z</time>
      </trkpt>
      <trkpt lat="54.12077103741467" lon="-8.849706994369626">
        <ele>140.97</ele>
        <time>2026-07-04T12:02:32Z</time>
      </trkpt>
      <trkpt lat="54.11920202895999" lon="-8.84958503767848">
        <ele>131.84</ele>
        <time>2026-07-04T12:02:43Z</time>
      </trkpt>
      <trkpt lat="54.118142975494266" lon="-8.849795004352927">
        <ele>126.55</ele>
        <time>2026-07-04T12:02:51Z</time>
      </trkpt>
      <trkpt lat="54.118019007146358" lon="-8.849874967709184">
        <ele>126.06999999999999</ele>
        <time>2026-07-04T12:02:52Z</time>
      </trkpt>
      <trkpt lat="54.117909036576748" lon="-8.849982004612684">
        <ele>125.59</ele>
        <time>2026-07-04T12:02:53Z</time>
      </trkpt>
      <trkpt lat="54.117805017158389" lon="-8.850097004324198">
        <ele>125.59</ele>
        <time>2026-07-04T12:02:54Z</time>
      </trkpt>
      <trkpt lat="54.117682976648211" lon="-8.850158024579287">
        <ele>125.59</ele>
        <time>2026-07-04T12:02:55Z</time>
      </trkpt>
      <trkpt lat="54.11757099442184" lon="-8.850191971287131">
        <ele>125.11</ele>
        <time>2026-07-04T12:02:56Z</time>
      </trkpt>
      <trkpt lat="54.117452977225184" lon="-8.850169004872441">
        <ele>124.15000000000001</ele>
        <time>2026-07-04T12:02:57Z</time>
      </trkpt>
      <trkpt lat="54.117338983342052" lon="-8.850141009315848">
        <ele>124.15000000000001</ele>
        <time>2026-07-04T12:02:58Z</time>
      </trkpt>
      <trkpt lat="54.116486962884665" lon="-8.849820988252759">
        <ele>122.22</ele>
        <time>2026-07-04T12:03:05Z</time>
      </trkpt>
      <trkpt lat="54.116358971223235" lon="-8.849827023223043">
        <ele>121.73999999999999</ele>
        <time>2026-07-04T12:03:06Z</time>
      </trkpt>
      <trkpt lat="54.116233997046947" lon="-8.849848983809352">
        <ele>121.73999999999999</ele>
        <time>2026-07-04T12:03:07Z</time>
      </trkpt>
      <trkpt lat="54.11610902287066" lon="-8.849870022386313">
        <ele>121.26000000000001</ele>
        <time>2026-07-04T12:03:08Z</time>
      </trkpt>
      <trkpt lat="54.11598002538085" lon="-8.849891982972622">
        <ele>120.78</ele>
        <time>2026-07-04T12:03:09Z</time>
      </trkpt>
      <trkpt lat="54.115087017416954" lon="-8.850231030955911">
        <ele>119.81999999999999</ele>
        <time>2026-07-04T12:03:16Z</time>
      </trkpt>
      <trkpt lat="54.114961959421635" lon="-8.850260032340884">
        <ele>119.81999999999999</ele>
        <time>2026-07-04T12:03:17Z</time>
      </trkpt>
      <trkpt lat="54.114837991073728" lon="-8.850242011249065">
        <ele>119.81999999999999</ele>
        <time>2026-07-04T12:03:18Z</time>
      </trkpt>
      <trkpt lat="54.113983036950231" lon="-8.850117037072778">
        <ele>119.34</ele>
        <time>2026-07-04T12:03:25Z</time>
      </trkpt>
      <trkpt lat="54.113656980916858" lon="-8.849947974085808">
        <ele>118.86</ele>
        <time>2026-07-04T12:03:28Z</time>
      </trkpt>
      <trkpt lat="54.113543992862105" lon="-8.849899023771286">
        <ele>118.86</ele>
        <time>2026-07-04T12:03:29Z</time>
      </trkpt>
      <trkpt lat="54.113237969577312" lon="-8.849953003227711">
        <ele>118.38</ele>
        <time>2026-07-04T12:03:32Z</time>
      </trkpt>
      <trkpt lat="54.113149037584662" lon="-8.850003965198994">
        <ele>117.90000000000001</ele>
        <time>2026-07-04T12:03:33Z</time>
      </trkpt>
      <trkpt lat="54.113060021772981" lon="-8.850077977403998">
        <ele>117.90000000000001</ele>
        <time>2026-07-04T12:03:34Z</time>
      </trkpt>
      <trkpt lat="54.112970000132918" lon="-8.850152995437384">
        <ele>117.90000000000001</ele>
        <time>2026-07-04T12:03:35Z</time>
      </trkpt>
      <trkpt lat="54.112890958786011" lon="-8.850265983492136">
        <ele>117.90000000000001</ele>
        <time>2026-07-04T12:03:36Z</time>
      </trkpt>
      <trkpt lat="54.112275978550315" lon="-8.850910970941186">
        <ele>118.86</ele>
        <time>2026-07-04T12:03:42Z</time>
      </trkpt>
      <trkpt lat="54.112166007980704" lon="-8.850922035053372">
        <ele>119.34</ele>
        <time>2026-07-04T12:03:43Z</time>
      </trkpt>
      <trkpt lat="54.112056959420443" lon="-8.85091801173985">
        <ele>119.34</ele>
        <time>2026-07-04T12:03:44Z</time>
      </trkpt>
      <trkpt lat="54.111937014386058" lon="-8.850913988426328">
        <ele>118.86</ele>
        <time>2026-07-04T12:03:45Z</time>
      </trkpt>
      <trkpt lat="54.11181103438139" lon="-8.850909965112805">
        <ele>119.34</ele>
        <time>2026-07-04T12:03:46Z</time>
      </trkpt>
      <trkpt lat="54.111567037180066" lon="-8.850935027003288">
        <ele>119.81999999999999</ele>
        <time>2026-07-04T12:03:48Z</time>
      </trkpt>
      <trkpt lat="54.111465029418468" lon="-8.850980959832668">
        <ele>120.3</ele>
        <time>2026-07-04T12:03:49Z</time>
      </trkpt>
      <trkpt lat="54.111375007778406" lon="-8.851040974259377">
        <ele>120.78</ele>
        <time>2026-07-04T12:03:50Z</time>
      </trkpt>
      <trkpt lat="54.111296972259879" lon="-8.851137030869722">
        <ele>120.78</ele>
        <time>2026-07-04T12:03:51Z</time>
      </trkpt>
      <trkpt lat="54.111210973933339" lon="-8.851243983954191">
        <ele>120.78</ele>
        <time>2026-07-04T12:03:52Z</time>
      </trkpt>
      <trkpt lat="54.11035199649632" lon="-8.852196000516415">
        <ele>117.90000000000001</ele>
        <time>2026-07-04T12:04:01Z</time>
      </trkpt>
      <trkpt lat="54.109810022637248" lon="-8.85280997492373">
        <ele>115.98</ele>
        <time>2026-07-04T12:04:06Z</time>
      </trkpt>
      <trkpt lat="54.10970700904727" lon="-8.852887004613876">
        <ele>115.98</ele>
        <time>2026-07-04T12:04:07Z</time>
      </trkpt>
      <trkpt lat="54.109611958265305" lon="-8.852957999333739">
        <ele>116.45999999999999</ele>
        <time>2026-07-04T12:04:08Z</time>
      </trkpt>
      <trkpt lat="54.109505005180836" lon="-8.852997981011868">
        <ele>116.94</ele>
        <time>2026-07-04T12:04:09Z</time>
      </trkpt>
      <trkpt lat="54.10940702073276" lon="-8.853016002103686">
        <ele>117.90000000000001</ele>
        <time>2026-07-04T12:04:10Z</time>
      </trkpt>
      <trkpt lat="54.109304007142782" lon="-8.853034023195505">
        <ele>119.34</ele>
        <time>2026-07-04T12:04:11Z</time>
      </trkpt>
      <trkpt lat="54.108994966372848" lon="-8.853091020137072">
        <ele>121.73999999999999</ele>
        <time>2026-07-04T12:04:14Z</time>
      </trkpt>
      <trkpt lat="54.108867980539799" lon="-8.853113986551762">
        <ele>122.22</ele>
        <time>2026-07-04T12:04:15Z</time>
      </trkpt>
      <trkpt lat="54.107674984261394" lon="-8.853649003431201">
        <ele>122.22</ele>
        <time>2026-07-04T12:04:24Z</time>
      </trkpt>
      <trkpt lat="54.106660019606352" lon="-8.854000959545374">
        <ele>120.78</ele>
        <time>2026-07-04T12:04:32Z</time>
      </trkpt>
      <trkpt lat="54.105687970295548" lon="-8.854337995871902">
        <ele>118.86</ele>
        <time>2026-07-04T12:04:40Z</time>
      </trkpt>
      <trkpt lat="54.104447029531002" lon="-8.854962028563023">
        <ele>116.94</ele>
        <time>2026-07-04T12:04:49Z</time>
      </trkpt>
      <trkpt lat="54.103427035734057" lon="-8.855616990476847">
        <ele>108.77</ele>
        <time>2026-07-04T12:04:57Z</time>
      </trkpt>
      <trkpt lat="54.102349961176515" lon="-8.856076989322901">
        <ele>107.81</ele>
        <time>2026-07-04T12:05:06Z</time>
      </trkpt>
      <trkpt lat="54.102234039455652" lon="-8.856092998757958">
        <ele>106.84</ele>
        <time>2026-07-04T12:05:07Z</time>
      </trkpt>
      <trkpt lat="54.102103030309081" lon="-8.856082018464804">
        <ele>105.88</ele>
        <time>2026-07-04T12:05:08Z</time>
      </trkpt>
      <trkpt lat="54.100934006273746" lon="-8.856036001816392">
        <ele>95.790000000000006</ele>
        <time>2026-07-04T12:05:17Z</time>
      </trkpt>
      <trkpt lat="54.100713981315494" lon="-8.856037007644773">
        <ele>95.310000000000002</ele>
        <time>2026-07-04T12:05:19Z</time>
      </trkpt>
      <trkpt lat="54.099513022229075" lon="-8.856233982369304">
        <ele>90.019999999999996</ele>
        <time>2026-07-04T12:05:28Z</time>
      </trkpt>
      <trkpt lat="54.098060019314289" lon="-8.856651987880468">
        <ele>88.099999999999994</ele>
        <time>2026-07-04T12:05:39Z</time>
      </trkpt>
      <trkpt lat="54.096509031951427" lon="-8.857168983668089">
        <ele>93.390000000000001</ele>
        <time>2026-07-04T12:05:52Z</time>
      </trkpt>
      <trkpt lat="54.095418965443969" lon="-8.857501996681094">
        <ele>98.189999999999998</ele>
        <time>2026-07-04T12:06:00Z</time>
      </trkpt>
      <trkpt lat="54.094209959730506" lon="-8.857506019994617">
        <ele>98.670000000000002</ele>
        <time>2026-07-04T12:06:09Z</time>
      </trkpt>
      <trkpt lat="54.094077022746205" lon="-8.857482969760895">
        <ele>98.189999999999998</ele>
        <time>2026-07-04T12:06:10Z</time>
      </trkpt>
      <trkpt lat="54.093172028660774" lon="-8.857326982542872">
        <ele>96.269999999999996</ele>
        <time>2026-07-04T12:06:16Z</time>
      </trkpt>
      <trkpt lat="54.093018975108862" lon="-8.857300998643041">
        <ele>96.269999999999996</ele>
        <time>2026-07-04T12:06:17Z</time>
      </trkpt>
      <trkpt lat="54.091707961633801" lon="-8.85697603225708">
        <ele>94.349999999999994</ele>
        <time>2026-07-04T12:06:26Z</time>
      </trkpt>
      <trkpt lat="54.089734023436904" lon="-8.856172040104866">
        <ele>92.420000000000002</ele>
        <time>2026-07-04T12:06:39Z</time>
      </trkpt>
      <trkpt lat="54.08734199590981" lon="-8.855197979137301">
        <ele>90.980000000000004</ele>
        <time>2026-07-04T12:06:55Z</time>
      </trkpt>
      <trkpt lat="54.085478028282523" lon="-8.854438997805119">
        <ele>91.459999999999994</ele>
        <time>2026-07-04T12:07:07Z</time>
      </trkpt>
      <trkpt lat="54.084865981712937" lon="-8.854275969788432">
        <ele>91.459999999999994</ele>
        <time>2026-07-04T12:07:13Z</time>
      </trkpt>
      <trkpt lat="54.084607986733317" lon="-8.854395998641849">
        <ele>92.420000000000002</ele>
        <time>2026-07-04T12:07:18Z</time>
      </trkpt>
      <trkpt lat="54.084502961486578" lon="-8.854445032775402">
        <ele>92.900000000000006</ele>
        <time>2026-07-04T12:07:21Z</time>
      </trkpt>
      <trkpt lat="54.084433978423476" lon="-8.854476967826486">
        <ele>92.900000000000006</ele>
        <time>2026-07-04T12:07:22Z</time>
      </trkpt>
      <trkpt lat="54.084348985925317" lon="-8.854517033323646">
        <ele>93.390000000000001</ele>
        <time>2026-07-04T12:07:23Z</time>
      </trkpt>
      <trkpt lat="54.084245972335339" lon="-8.854530025273562">
        <ele>93.390000000000001</ele>
        <time>2026-07-04T12:07:24Z</time>
      </trkpt>
      <trkpt lat="54.084129966795444" lon="-8.854530025273562">
        <ele>93.390000000000001</ele>
        <time>2026-07-04T12:07:25Z</time>
      </trkpt>
      <trkpt lat="54.083863003179431" lon="-8.854629015550017">
        <ele>94.349999999999994</ele>
        <time>2026-07-04T12:07:27Z</time>
      </trkpt>
      <trkpt lat="54.083744985982776" lon="-8.854736974462867">
        <ele>94.829999999999998</ele>
        <time>2026-07-04T12:07:28Z</time>
      </trkpt>
      <trkpt lat="54.083634009584785" lon="-8.854843005537987">
        <ele>94.829999999999998</ele>
        <time>2026-07-04T12:07:29Z</time>
      </trkpt>
      <trkpt lat="54.082984998822212" lon="-8.855346003547311">
        <ele>93.870000000000005</ele>
        <time>2026-07-04T12:07:35Z</time>
      </trkpt>
      <trkpt lat="54.082879973575473" lon="-8.855350026860833">
        <ele>93.870000000000005</ele>
        <time>2026-07-04T12:07:36Z</time>
      </trkpt>
      <trkpt lat="54.082775032147765" lon="-8.855353966355324">
        <ele>93.390000000000001</ele>
        <time>2026-07-04T12:07:37Z</time>
      </trkpt>
      <trkpt lat="54.082347974181175" lon="-8.85532203130424">
        <ele>93.870000000000005</ele>
        <time>2026-07-04T12:07:42Z</time>
      </trkpt>
      <trkpt lat="54.082287037745118" lon="-8.85527903214097">
        <ele>94.349999999999994</ele>
        <time>2026-07-04T12:07:43Z</time>
      </trkpt>
      <trkpt lat="54.082244038581848" lon="-8.855208959430456">
        <ele>94.829999999999998</ele>
        <time>2026-07-04T12:07:44Z</time>
      </trkpt>
      <trkpt lat="54.082211013883352" lon="-8.855110974982381">
        <ele>94.829999999999998</ele>
        <time>2026-07-04T12:07:45Z</time>
      </trkpt>
      <trkpt lat="54.082174971699715" lon="-8.855002010241151">
        <ele>94.829999999999998</ele>
        <time>2026-07-04T12:07:46Z</time>
      </trkpt>
      <trkpt lat="54.082187963649631" lon="-8.854901008307934">
        <ele>94.829999999999998</ele>
        <time>2026-07-04T12:07:47Z</time>
      </trkpt>
      <trkpt lat="54.082205984741449" lon="-8.854766981676221">
        <ele>94.349999999999994</ele>
        <time>2026-07-04T12:07:48Z</time>
      </trkpt>
      <trkpt lat="54.082171032205224" lon="-8.854553997516632">
        <ele>93.870000000000005</ele>
        <time>2026-07-04T12:07:49Z</time>
      </trkpt>
      <trkpt lat="54.082114035263658" lon="-8.85439901612699">
        <ele>93.390000000000001</ele>
        <time>2026-07-04T12:07:50Z</time>
      </trkpt>
      <trkpt lat="54.082037005573511" lon="-8.854239005595446">
        <ele>92.900000000000006</ele>
        <time>2026-07-04T12:07:51Z</time>
      </trkpt>
      <trkpt lat="54.081957964226604" lon="-8.854148983955383">
        <ele>91.939999999999998</ele>
        <time>2026-07-04T12:07:52Z</time>
      </trkpt>
      <trkpt lat="54.081896021962166" lon="-8.854078995063901">
        <ele>91.459999999999994</ele>
        <time>2026-07-04T12:07:53Z</time>
      </trkpt>
      <trkpt lat="54.081831984221935" lon="-8.853899035602808">
        <ele>90.5</ele>
        <time>2026-07-04T12:07:55Z</time>
      </trkpt>
      <trkpt lat="54.081659987568855" lon="-8.853413974866271">
        <ele>86.180000000000007</ele>
        <time>2026-07-04T12:08:05Z</time>
      </trkpt>
      <trkpt lat="54.081659987568855" lon="-8.853413974866271">
        <ele>86.180000000000007</ele>
        <time>2026-07-04T12:08:37Z</time>
      </trkpt>
      <trkpt lat="54.081568960100412" lon="-8.853335017338395">
        <ele>87.140000000000001</ele>
        <time>2026-07-04T12:09:40Z</time>
      </trkpt>
      <trkpt lat="54.081064034253359" lon="-8.852894967421889">
        <ele>83.290000000000006</ele>
        <time>2026-07-04T12:09:46Z</time>
      </trkpt>
      <trkpt lat="54.080416029319167" lon="-8.852330027148128">
        <ele>76.560000000000002</ele>
        <time>2026-07-04T12:09:52Z</time>
      </trkpt>
      <trkpt lat="54.080116041004658" lon="-8.852046970278025">
        <ele>72.719999999999999</ele>
        <time>2026-07-04T12:09:55Z</time>
      </trkpt>
      <trkpt lat="54.080038005486131" lon="-8.851939011365175">
        <ele>72.239999999999995</ele>
        <time>2026-07-04T12:09:56Z</time>
      </trkpt>
      <trkpt lat="54.07980096526444" lon="-8.851673975586891">
        <ele>69.349999999999994</ele>
        <time>2026-07-04T12:09:59Z</time>
      </trkpt>
      <trkpt lat="54.078825982287526" lon="-8.851118003949523">
        <ele>65.030000000000001</ele>
        <time>2026-07-04T12:10:07Z</time>
      </trkpt>
      <trkpt lat="54.077982008457184" lon="-8.850443009287119">
        <ele>61.18</ele>
        <time>2026-07-04T12:10:15Z</time>
      </trkpt>
      <trkpt lat="54.077880000695586" lon="-8.850347958505154">
        <ele>60.700000000000003</ele>
        <time>2026-07-04T12:10:16Z</time>
      </trkpt>
      <trkpt lat="54.077784027904272" lon="-8.850259026512504">
        <ele>60.219999999999999</ele>
        <time>2026-07-04T12:10:17Z</time>
      </trkpt>
      <trkpt lat="54.077697023749352" lon="-8.850178979337215">
        <ele>60.219999999999999</ele>
        <time>2026-07-04T12:10:18Z</time>
      </trkpt>
      <trkpt lat="54.07760800793767" lon="-8.850095998495817">
        <ele>59.740000000000002</ele>
        <time>2026-07-04T12:10:19Z</time>
      </trkpt>
      <trkpt lat="54.077509017661214" lon="-8.850004971027374">
        <ele>58.780000000000001</ele>
        <time>2026-07-04T12:10:20Z</time>
      </trkpt>
      <trkpt lat="54.07741698436439" lon="-8.849919978529215">
        <ele>58.299999999999997</ele>
        <time>2026-07-04T12:10:21Z</time>
      </trkpt>
      <trkpt lat="54.077235013246536" lon="-8.849750999361277">
        <ele>57.82</ele>
        <time>2026-07-04T12:10:23Z</time>
      </trkpt>
      <trkpt lat="54.076475026085973" lon="-8.849250013008714">
        <ele>54.450000000000003</ele>
        <time>2026-07-04T12:10:30Z</time>
      </trkpt>
      <trkpt lat="54.07636203803122" lon="-8.849153034389019">
        <ele>53.969999999999999</ele>
        <time>2026-07-04T12:10:31Z</time>
      </trkpt>
      <trkpt lat="54.075729036703706" lon="-8.848497988656163">
        <ele>53.490000000000002</ele>
        <time>2026-07-04T12:10:37Z</time>
      </trkpt>
      <trkpt lat="54.07563298009336" lon="-8.848411990329623">
        <ele>53.490000000000002</ele>
        <time>2026-07-04T12:10:38Z</time>
      </trkpt>
      <trkpt lat="54.075523009523749" lon="-8.848392963409424">
        <ele>53.969999999999999</ele>
        <time>2026-07-04T12:10:39Z</time>
      </trkpt>
      <trkpt lat="54.075413038954139" lon="-8.848375026136637">
        <ele>53.969999999999999</ele>
        <time>2026-07-04T12:10:40Z</time>
      </trkpt>
      <trkpt lat="54.075301978737116" lon="-8.848355999216437">
        <ele>54.450000000000003</ele>
        <time>2026-07-04T12:10:41Z</time>
      </trkpt>
      <trkpt lat="54.075082037597895" lon="-8.848320040851831">
        <ele>54.450000000000003</ele>
        <time>2026-07-04T12:10:43Z</time>
      </trkpt>
      <trkpt lat="54.074959997087717" lon="-8.848299002274871">
        <ele>54.450000000000003</ele>
        <time>2026-07-04T12:10:44Z</time>
      </trkpt>
      <trkpt lat="54.07483896240592" lon="-8.848278969526291">
        <ele>54.93</ele>
        <time>2026-07-04T12:10:45Z</time>
      </trkpt>
      <trkpt lat="54.07438600435853" lon="-8.848306965082884">
        <ele>54.450000000000003</ele>
        <time>2026-07-04T12:10:49Z</time>
      </trkpt>
      <trkpt lat="54.07430000603199" lon="-8.848408972844482">
        <ele>53.969999999999999</ele>
        <time>2026-07-04T12:10:50Z</time>
      </trkpt>
      <trkpt lat="54.074204033240676" lon="-8.848520033061504">
        <ele>53.969999999999999</ele>
        <time>2026-07-04T12:10:51Z</time>
      </trkpt>
      <trkpt lat="54.074109988287091" lon="-8.848632015287876">
        <ele>53.969999999999999</ele>
        <time>2026-07-04T12:10:52Z</time>
      </trkpt>
      <trkpt lat="54.07402097247541" lon="-8.848736034706235">
        <ele>53.969999999999999</ele>
        <time>2026-07-04T12:10:53Z</time>
      </trkpt>
      <trkpt lat="54.07402097247541" lon="-8.848736034706235">
        <ele>53.969999999999999</ele>
        <time>2026-07-04T12:10:54Z</time>
      </trkpt>
      <trkpt lat="54.073833972215652" lon="-8.848694041371346">
        <ele>53.969999999999999</ele>
        <time>2026-07-04T12:10:55Z</time>
      </trkpt>
      <trkpt lat="54.073748979717493" lon="-8.848675014451146">
        <ele>53.969999999999999</ele>
        <time>2026-07-04T12:10:56Z</time>
      </trkpt>
      <trkpt lat="54.073661975562572" lon="-8.848654981702566">
        <ele>53.969999999999999</ele>
        <time>2026-07-04T12:10:57Z</time>
      </trkpt>
      <trkpt lat="54.073582012206316" lon="-8.848636960610747">
        <ele>53.969999999999999</ele>
        <time>2026-07-04T12:10:58Z</time>
      </trkpt>
      <trkpt lat="54.073500959202647" lon="-8.84861902333796">
        <ele>53.490000000000002</ele>
        <time>2026-07-04T12:10:59Z</time>
      </trkpt>
      <trkpt lat="54.073231983929873" lon="-8.848605025559664">
        <ele>53.490000000000002</ele>
        <time>2026-07-04T12:11:06Z</time>
      </trkpt>
      <trkpt lat="54.073141040280461" lon="-8.84861902333796">
        <ele>55.409999999999997</ele>
        <time>2026-07-04T12:11:30Z</time>
      </trkpt>
      <trkpt lat="54.072629995644093" lon="-8.848826978355646">
        <ele>55.890000000000001</ele>
        <time>2026-07-04T12:11:35Z</time>
      </trkpt>
      <trkpt lat="54.071475975215435" lon="-8.849284965544939">
        <ele>56.859999999999999</ele>
        <time>2026-07-04T12:11:42Z</time>
      </trkpt>
      <trkpt lat="54.070960991084576" lon="-8.849418992176652">
        <ele>55.409999999999997</ele>
        <time>2026-07-04T12:11:47Z</time>
      </trkpt>
      <trkpt lat="54.070829981938004" lon="-8.849453022703528">
        <ele>53.490000000000002</ele>
        <time>2026-07-04T12:11:52Z</time>
      </trkpt>
      <trkpt lat="54.070781031623483" lon="-8.849486969411373">
        <ele>53.009999999999998</ele>
        <time>2026-07-04T12:11:53Z</time>
      </trkpt>
      <trkpt lat="54.070779019966722" lon="-8.849560981616378">
        <ele>53.009999999999998</ele>
        <time>2026-07-04T12:11:54Z</time>
      </trkpt>
      <trkpt lat="54.07077700830996" lon="-8.849668018519878">
        <ele>52.049999999999997</ele>
        <time>2026-07-04T12:11:55Z</time>
      </trkpt>
      <trkpt lat="54.070774996653199" lon="-8.84980003349483">
        <ele>51.57</ele>
        <time>2026-07-04T12:11:56Z</time>
      </trkpt>
      <trkpt lat="54.070772984996438" lon="-8.849936993792653">
        <ele>52.049999999999997</ele>
        <time>2026-07-04T12:11:57Z</time>
      </trkpt>
      <trkpt lat="54.070769967511296" lon="-8.850083006545901">
        <ele>51.57</ele>
        <time>2026-07-04T12:11:58Z</time>
      </trkpt>
      <trkpt lat="54.070768039673567" lon="-8.850243017077446">
        <ele>51.090000000000003</ele>
        <time>2026-07-04T12:11:59Z</time>
      </trkpt>
      <trkpt lat="54.070764016360044" lon="-8.850426999852061">
        <ele>50.130000000000003</ele>
        <time>2026-07-04T12:12:00Z</time>
      </trkpt>
      <trkpt lat="54.070760998874903" lon="-8.850618023425341">
        <ele>49.649999999999999</ele>
        <time>2026-07-04T12:12:01Z</time>
      </trkpt>
      <trkpt lat="54.070570981130004" lon="-8.852781979367137">
        <ele>50.609999999999999</ele>
        <time>2026-07-04T12:12:11Z</time>
      </trkpt>
      <trkpt lat="54.070248026400805" lon="-8.855938017368317">
        <ele>54.450000000000003</ele>
        <time>2026-07-04T12:12:23Z</time>
      </trkpt>
      <trkpt lat="54.069980978965759" lon="-8.858536994084716">
        <ele>57.82</ele>
        <time>2026-07-04T12:12:33Z</time>
      </trkpt>
      <trkpt lat="54.069731030613184" lon="-8.861039998009801">
        <ele>64.069999999999993</ele>
        <time>2026-07-04T12:12:43Z</time>
      </trkpt>
      <trkpt lat="54.069666992872953" lon="-8.861236972734332">
        <ele>64.549999999999997</ele>
        <time>2026-07-04T12:12:44Z</time>
      </trkpt>
      <trkpt lat="54.069580994546413" lon="-8.861386002972722">
        <ele>65.030000000000001</ele>
        <time>2026-07-04T12:12:45Z</time>
      </trkpt>
      <trkpt lat="54.068570975214243" lon="-8.863136982545257">
        <ele>66.469999999999999</ele>
        <time>2026-07-04T12:12:55Z</time>
      </trkpt>
      <trkpt lat="54.067547963932157" lon="-8.865083009004593">
        <ele>65.510000000000005</ele>
        <time>2026-07-04T12:13:05Z</time>
      </trkpt>
      <trkpt lat="54.066681023687124" lon="-8.867348972707987">
        <ele>64.069999999999993</ele>
        <time>2026-07-04T12:13:15Z</time>
      </trkpt>
      <trkpt lat="54.066291013732553" lon="-8.869347972795367">
        <ele>69.349999999999994</ele>
        <time>2026-07-04T12:13:24Z</time>
      </trkpt>
      <trkpt lat="54.066111976280808" lon="-8.870177026838064">
        <ele>70.310000000000002</ele>
        <time>2026-07-04T12:13:30Z</time>
      </trkpt>
      <trkpt lat="54.066068977117538" lon="-8.870262019336224">
        <ele>70.790000000000006</ele>
        <time>2026-07-04T12:13:31Z</time>
      </trkpt>
      <trkpt lat="54.066025977954268" lon="-8.870349023491144">
        <ele>70.790000000000006</ele>
        <time>2026-07-04T12:13:32Z</time>
      </trkpt>
      <trkpt lat="54.06594199128449" lon="-8.87040501460433">
        <ele>70.790000000000006</ele>
        <time>2026-07-04T12:13:33Z</time>
      </trkpt>
      <trkpt lat="54.065865967422724" lon="-8.870444996282458">
        <ele>70.790000000000006</ele>
        <time>2026-07-04T12:13:34Z</time>
      </trkpt>
      <trkpt lat="54.065783992409706" lon="-8.870487995445728">
        <ele>70.310000000000002</ele>
        <time>2026-07-04T12:13:35Z</time>
      </trkpt>
      <trkpt lat="54.065703023225069" lon="-8.870529988780618">
        <ele>70.310000000000002</ele>
        <time>2026-07-04T12:13:36Z</time>
      </trkpt>
      <trkpt lat="54.06562096439302" lon="-8.870572987943888">
        <ele>69.829999999999998</ele>
        <time>2026-07-04T12:13:37Z</time>
      </trkpt>
      <trkpt lat="54.065523985773325" lon="-8.870591009035707">
        <ele>69.349999999999994</ele>
        <time>2026-07-04T12:13:38Z</time>
      </trkpt>
      <trkpt lat="54.065394988283515" lon="-8.870558990165591">
        <ele>68.870000000000005</ele>
        <time>2026-07-04T12:13:39Z</time>
      </trkpt>
      <trkpt lat="54.065330028533936" lon="-8.870465029031038">
        <ele>68.390000000000001</ele>
        <time>2026-07-04T12:13:40Z</time>
      </trkpt>
      <trkpt lat="54.065250987187028" lon="-8.870349023491144">
        <ele>67.909999999999997</ele>
        <time>2026-07-04T12:13:41Z</time>
      </trkpt>
      <trkpt lat="54.065171023830771" lon="-8.87023301795125">
        <ele>67.430000000000007</ele>
        <time>2026-07-04T12:13:42Z</time>
      </trkpt>
      <trkpt lat="54.065096005797386" lon="-8.870123969390988">
        <ele>66.950000000000003</ele>
        <time>2026-07-04T12:13:43Z</time>
      </trkpt>
      <trkpt lat="54.065025011077523" lon="-8.870020033791661">
        <ele>66.469999999999999</ele>
        <time>2026-07-04T12:13:44Z</time>
      </trkpt>
      <trkpt lat="54.064957033842802" lon="-8.869922971352935">
        <ele>65.989999999999995</ele>
        <time>2026-07-04T12:13:45Z</time>
      </trkpt>
      <trkpt lat="54.064892996102571" lon="-8.869821969419718">
        <ele>65.510000000000005</ele>
        <time>2026-07-04T12:13:46Z</time>
      </trkpt>
      <trkpt lat="54.064833987504244" lon="-8.869723984971643">
        <ele>65.510000000000005</ele>
        <time>2026-07-04T12:13:47Z</time>
      </trkpt>
      <trkpt lat="54.064794005826116" lon="-8.869658019393683">
        <ele>65.030000000000001</ele>
        <time>2026-07-04T12:13:48Z</time>
      </trkpt>
      <trkpt lat="54.064697027206421" lon="-8.869621977210045">
        <ele>65.030000000000001</ele>
        <time>2026-07-04T12:13:49Z</time>
      </trkpt>
      <trkpt lat="54.064678000286222" lon="-8.869578978046775">
        <ele>64.549999999999997</ele>
        <time>2026-07-04T12:13:50Z</time>
      </trkpt>
      <trkpt lat="54.064678000286222" lon="-8.869578978046775">
        <ele>64.549999999999997</ele>
        <time>2026-07-04T12:13:59Z</time>
      </trkpt>
      <trkpt lat="54.064622009173036" lon="-8.869451992213726">
        <ele>65.030000000000001</ele>
        <time>2026-07-04T12:14:24Z</time>
      </trkpt>
      <trkpt lat="54.064607005566359" lon="-8.86941896751523">
        <ele>65.510000000000005</ele>
        <time>2026-07-04T12:14:25Z</time>
      </trkpt>
      <trkpt lat="54.064598036929965" lon="-8.869397006928921">
        <ele>65.989999999999995</ele>
        <time>2026-07-04T12:14:26Z</time>
      </trkpt>
      <trkpt lat="54.064587978646159" lon="-8.86937496252358">
        <ele>66.469999999999999</ele>
        <time>2026-07-04T12:14:27Z</time>
      </trkpt>
      <trkpt lat="54.064579010009766" lon="-8.869356019422412">
        <ele>66.950000000000003</ele>
        <time>2026-07-04T12:14:28Z</time>
      </trkpt>
      <trkpt lat="54.064571969211102" lon="-8.869339004158974">
        <ele>66.950000000000003</ele>
        <time>2026-07-04T12:14:29Z</time>
      </trkpt>
      <trkpt lat="54.064656961709261" lon="-8.869171030819416">
        <ele>68.390000000000001</ele>
        <time>2026-07-04T12:14:31Z</time>
      </trkpt>
      <trkpt lat="54.064686968922615" lon="-8.869125014171004">
        <ele>69.349999999999994</ele>
        <time>2026-07-04T12:14:44Z</time>
      </trkpt>
      <trkpt lat="54.064683029428124" lon="-8.869128031656146">
        <ele>69.349999999999994</ele>
        <time>2026-07-04T12:15:28Z</time>
      </trkpt>
      <trkpt lat="54.064676994457841" lon="-8.869123002514243">
        <ele>69.349999999999994</ele>
        <time>2026-07-04T12:16:27Z</time>
      </trkpt>
      <trkpt lat="54.064658973366022" lon="-8.869119985029101">
        <ele>73.680000000000007</ele>
        <time>2026-07-04T12:54:51Z</time>
      </trkpt>
      <trkpt lat="54.064702978357673" lon="-8.869110010564327">
        <ele>71.269999999999996</ele>
        <time>2026-07-04T12:55:37Z</time>
      </trkpt>
      <trkpt lat="54.064687974750996" lon="-8.86911403387785">
        <ele>67.430000000000007</ele>
        <time>2026-07-04T12:56:31Z</time>
      </trkpt>
      <trkpt lat="54.064697027206421" lon="-8.869106993079186">
        <ele>67.430000000000007</ele>
        <time>2026-07-04T12:57:31Z</time>
      </trkpt>
      <trkpt lat="54.064691998064518" lon="-8.869110010564327">
        <ele>67.909999999999997</ele>
        <time>2026-07-04T12:58:18Z</time>
      </trkpt>
      <trkpt lat="54.064691998064518" lon="-8.869110010564327">
        <ele>67.909999999999997</ele>
        <time>2026-07-04T12:58:29Z</time>
      </trkpt>
      <trkpt lat="54.064529975876212" lon="-8.869244959205389">
        <ele>69.349999999999994</ele>
        <time>2026-07-04T12:58:38Z</time>
      </trkpt>
      <trkpt lat="54.064510026946664" lon="-8.869199026376009">
        <ele>69.349999999999994</ele>
        <time>2026-07-04T12:58:39Z</time>
      </trkpt>
      <trkpt lat="54.064473984763026" lon="-8.86911797337234">
        <ele>69.349999999999994</ele>
        <time>2026-07-04T12:58:40Z</time>
      </trkpt>
      <trkpt lat="54.064421011134982" lon="-8.868999034166336">
        <ele>69.829999999999998</ele>
        <time>2026-07-04T12:58:41Z</time>
      </trkpt>
      <trkpt lat="54.063941985368729" lon="-8.867918020114303">
        <ele>71.269999999999996</ele>
        <time>2026-07-04T12:58:47Z</time>
      </trkpt>
      <trkpt lat="54.063486009836197" lon="-8.866780009120703">
        <ele>72.239999999999995</ele>
        <time>2026-07-04T12:58:52Z</time>
      </trkpt>
      <trkpt lat="54.062850996851921" lon="-8.864301983267069">
        <ele>73.680000000000007</ele>
        <time>2026-07-04T12:59:01Z</time>
      </trkpt>
      <trkpt lat="54.061960000544786" lon="-8.860419988632202">
        <ele>72.719999999999999</ele>
        <time>2026-07-04T12:59:13Z</time>
      </trkpt>
      <trkpt lat="54.061453985050321" lon="-8.85708499699831">
        <ele>70.790000000000006</ele>
        <time>2026-07-04T12:59:23Z</time>
      </trkpt>
      <trkpt lat="54.061061963438988" lon="-8.854101039469242">
        <ele>71.760000000000005</ele>
        <time>2026-07-04T12:59:32Z</time>
      </trkpt>
      <trkpt lat="54.060753006488085" lon="-8.850368997082114">
        <ele>70.310000000000002</ele>
        <time>2026-07-04T12:59:43Z</time>
      </trkpt>
      <trkpt lat="54.060661979019642" lon="-8.848141003400087">
        <ele>65.989999999999995</ele>
        <time>2026-07-04T12:59:50Z</time>
      </trkpt>
      <trkpt lat="54.060436002910137" lon="-8.845225023105741">
        <ele>62.619999999999997</ele>
        <time>2026-07-04T12:59:59Z</time>
      </trkpt>
      <trkpt lat="54.060105001553893" lon="-8.841573027893901">
        <ele>60.219999999999999</ele>
        <time>2026-07-04T13:00:10Z</time>
      </trkpt>
      <trkpt lat="54.059718009084463" lon="-8.837293982505798">
        <ele>56.369999999999997</ele>
        <time>2026-07-04T13:00:23Z</time>
      </trkpt>
      <trkpt lat="54.059437969699502" lon="-8.834324022755027">
        <ele>53.969999999999999</ele>
        <time>2026-07-04T13:00:32Z</time>
      </trkpt>
      <trkpt lat="54.059186009690166" lon="-8.831710964441299">
        <ele>51.57</ele>
        <time>2026-07-04T13:00:40Z</time>
      </trkpt>
      <trkpt lat="54.058844028040767" lon="-8.828117977827787">
        <ele>50.609999999999999</ele>
        <time>2026-07-04T13:00:51Z</time>
      </trkpt>
      <trkpt lat="54.058717964217067" lon="-8.825175007805228">
        <ele>51.090000000000003</ele>
        <time>2026-07-04T13:01:00Z</time>
      </trkpt>
      <trkpt lat="54.058630038052797" lon="-8.822226002812386">
        <ele>53.969999999999999</ele>
        <time>2026-07-04T13:01:09Z</time>
      </trkpt>
      <trkpt lat="54.058026038110256" lon="-8.819025037810206">
        <ele>54.93</ele>
        <time>2026-07-04T13:01:19Z</time>
      </trkpt>
      <trkpt lat="54.057640973478556" lon="-8.814752027392387">
        <ele>53.969999999999999</ele>
        <time>2026-07-04T13:01:32Z</time>
      </trkpt>
      <trkpt lat="54.057432012632489" lon="-8.81142801605165">
        <ele>54.450000000000003</ele>
        <time>2026-07-04T13:01:42Z</time>
      </trkpt>
      <trkpt lat="54.057188015431166" lon="-8.806436005979776">
        <ele>54.93</ele>
        <time>2026-07-04T13:01:57Z</time>
      </trkpt>
      <trkpt lat="54.05698399990797" lon="-8.802501037716866">
        <ele>60.700000000000003</ele>
        <time>2026-07-04T13:02:09Z</time>
      </trkpt>
      <trkpt lat="54.056648975238204" lon="-8.798846025019884">
        <ele>67.430000000000007</ele>
        <time>2026-07-04T13:02:20Z</time>
      </trkpt>
      <trkpt lat="54.056379999965429" lon="-8.795182965695858">
        <ele>63.100000000000001</ele>
        <time>2026-07-04T13:02:31Z</time>
      </trkpt>
      <trkpt lat="54.056046986952424" lon="-8.790246024727821">
        <ele>60.700000000000003</ele>
        <time>2026-07-04T13:02:46Z</time>
      </trkpt>
      <trkpt lat="54.055633004754782" lon="-8.784991996362805">
        <ele>63.100000000000001</ele>
        <time>2026-07-04T13:03:02Z</time>
      </trkpt>
      <trkpt lat="54.054948035627604" lon="-8.779109995812178">
        <ele>66.469999999999999</ele>
        <time>2026-07-04T13:03:20Z</time>
      </trkpt>
      <trkpt lat="54.054372031241655" lon="-8.774184035137296">
        <ele>70.790000000000006</ele>
        <time>2026-07-04T13:03:35Z</time>
      </trkpt>
      <trkpt lat="54.053967017680407" lon="-8.770937975496054">
        <ele>72.719999999999999</ele>
        <time>2026-07-04T13:03:45Z</time>
      </trkpt>
      <trkpt lat="54.053464019671082" lon="-8.76738203689456">
        <ele>74.159999999999997</ele>
        <time>2026-07-04T13:03:56Z</time>
      </trkpt>
      <trkpt lat="54.05288097448647" lon="-8.763210028409958">
        <ele>77.040000000000006</ele>
        <time>2026-07-04T13:04:09Z</time>
      </trkpt>
      <trkpt lat="54.052565982565284" lon="-8.760652961209416">
        <ele>78</ele>
        <time>2026-07-04T13:04:19Z</time>
      </trkpt>
      <trkpt lat="54.052458023652434" lon="-8.758627977222204">
        <ele>78.480000000000004</ele>
        <time>2026-07-04T13:04:28Z</time>
      </trkpt>
      <trkpt lat="54.052395997568965" lon="-8.75533296726644">
        <ele>78</ele>
        <time>2026-07-04T13:04:43Z</time>
      </trkpt>
      <trkpt lat="54.052391974255443" lon="-8.75511696562171">
        <ele>78.480000000000004</ele>
        <time>2026-07-04T13:04:44Z</time>
      </trkpt>
      <trkpt lat="54.052495993673801" lon="-8.751816004514694">
        <ele>79.450000000000003</ele>
        <time>2026-07-04T13:04:59Z</time>
      </trkpt>
      <trkpt lat="54.052437990903854" lon="-8.748339023441076">
        <ele>78</ele>
        <time>2026-07-04T13:05:15Z</time>
      </trkpt>
      <trkpt lat="54.052237998694181" lon="-8.745734011754394">
        <ele>78</ele>
        <time>2026-07-04T13:05:27Z</time>
      </trkpt>
      <trkpt lat="54.051937004551291" lon="-8.742257030680776">
        <ele>78.969999999999999</ele>
        <time>2026-07-04T13:05:43Z</time>
      </trkpt>
      <trkpt lat="54.051765007898211" lon="-8.739669034257531">
        <ele>84.730000000000004</ele>
        <time>2026-07-04T13:05:55Z</time>
      </trkpt>
      <trkpt lat="54.051668029278517" lon="-8.737886035814881">
        <ele>86.659999999999997</ele>
        <time>2026-07-04T13:06:03Z</time>
      </trkpt>
      <trkpt lat="54.051621006801724" lon="-8.737682020291686">
        <ele>86.659999999999997</ele>
        <time>2026-07-04T13:06:04Z</time>
      </trkpt>
      <trkpt lat="54.051104011014104" lon="-8.735495014116168">
        <ele>84.730000000000004</ele>
        <time>2026-07-04T13:06:15Z</time>
      </trkpt>
      <trkpt lat="54.050956992432475" lon="-8.734613992273808">
        <ele>86.180000000000007</ele>
        <time>2026-07-04T13:06:22Z</time>
      </trkpt>
      <trkpt lat="54.050942994654179" lon="-8.734524976462126">
        <ele>87.140000000000001</ele>
        <time>2026-07-04T13:06:32Z</time>
      </trkpt>
      <trkpt lat="54.050935031846166" lon="-8.734475020319223">
        <ele>87.620000000000005</ele>
        <time>2026-07-04T13:06:33Z</time>
      </trkpt>
      <trkpt lat="54.05092497356236" lon="-8.734410982578993">
        <ele>88.099999999999994</ele>
        <time>2026-07-04T13:06:34Z</time>
      </trkpt>
      <trkpt lat="54.050978031009436" lon="-8.734294977039099">
        <ele>88.099999999999994</ele>
        <time>2026-07-04T13:06:35Z</time>
      </trkpt>
      <trkpt lat="54.051042990759015" lon="-8.734266981482506">
        <ele>88.579999999999998</ele>
        <time>2026-07-04T13:06:36Z</time>
      </trkpt>
      <trkpt lat="54.051119014620781" lon="-8.734234040603042">
        <ele>88.579999999999998</ele>
        <time>2026-07-04T13:06:37Z</time>
      </trkpt>
      <trkpt lat="54.05120400711894" lon="-8.734197998419404">
        <ele>88.579999999999998</ele>
        <time>2026-07-04T13:06:38Z</time>
      </trkpt>
      <trkpt lat="54.051296962425113" lon="-8.734157010912895">
        <ele>88.579999999999998</ele>
        <time>2026-07-04T13:06:39Z</time>
      </trkpt>
      <trkpt lat="54.05139796435833" lon="-8.734113005921245">
        <ele>88.579999999999998</ele>
        <time>2026-07-04T13:06:40Z</time>
      </trkpt>
      <trkpt lat="54.051502989605069" lon="-8.734067995101214">
        <ele>88.579999999999998</ele>
        <time>2026-07-04T13:06:41Z</time>
      </trkpt>
      <trkpt lat="54.05161296017468" lon="-8.733980990946293">
        <ele>88.579999999999998</ele>
        <time>2026-07-04T13:06:42Z</time>
      </trkpt>
      <trkpt lat="54.051709016785026" lon="-8.733874959871173">
        <ele>88.579999999999998</ele>
        <time>2026-07-04T13:06:43Z</time>
      </trkpt>
      <trkpt lat="54.051803983747959" lon="-8.733744034543634">
        <ele>88.579999999999998</ele>
        <time>2026-07-04T13:06:44Z</time>
      </trkpt>
      <trkpt lat="54.051881013438106" lon="-8.733601039275527">
        <ele>88.579999999999998</ele>
        <time>2026-07-04T13:06:45Z</time>
      </trkpt>
      <trkpt lat="54.051959970965981" lon="-8.733456032350659">
        <ele>88.579999999999998</ele>
        <time>2026-07-04T13:06:46Z</time>
      </trkpt>
      <trkpt lat="54.052215032279491" lon="-8.732927972450852">
        <ele>88.579999999999998</ele>
        <time>2026-07-04T13:06:50Z</time>
      </trkpt>
      <trkpt lat="54.05272901058197" lon="-8.731993976980448">
        <ele>88.099999999999994</ele>
        <time>2026-07-04T13:06:59Z</time>
      </trkpt>
      <trkpt lat="54.052883991971612" lon="-8.73174000531435">
        <ele>87.620000000000005</ele>
        <time>2026-07-04T13:07:02Z</time>
      </trkpt>
      <trkpt lat="54.052939983084798" lon="-8.731646966189146">
        <ele>87.620000000000005</ele>
        <time>2026-07-04T13:07:03Z</time>
      </trkpt>
      <trkpt lat="54.053002009168267" lon="-8.731545964255929">
        <ele>87.620000000000005</ele>
        <time>2026-07-04T13:07:04Z</time>
      </trkpt>
      <trkpt lat="54.053182974457741" lon="-8.731240024790168">
        <ele>87.140000000000001</ele>
        <time>2026-07-04T13:07:07Z</time>
      </trkpt>
      <trkpt lat="54.053527973592281" lon="-8.730632001534104">
        <ele>86.180000000000007</ele>
        <time>2026-07-04T13:07:13Z</time>
      </trkpt>
      <trkpt lat="54.053700976073742" lon="-8.730268981307745">
        <ele>85.689999999999998</ele>
        <time>2026-07-04T13:07:17Z</time>
      </trkpt>
      <trkpt lat="54.053744981065392" lon="-8.730179965496063">
        <ele>85.689999999999998</ele>
        <time>2026-07-04T13:07:18Z</time>
      </trkpt>
      <trkpt lat="54.053800972178578" lon="-8.730093967169523">
        <ele>85.689999999999998</ele>
        <time>2026-07-04T13:07:19Z</time>
      </trkpt>
      <trkpt lat="54.053865009918809" lon="-8.730012997984886">
        <ele>85.689999999999998</ele>
        <time>2026-07-04T13:07:20Z</time>
      </trkpt>
      <trkpt lat="54.053924018517137" lon="-8.729937979951501">
        <ele>86.180000000000007</ele>
        <time>2026-07-04T13:07:21Z</time>
      </trkpt>
      <trkpt lat="54.053971963003278" lon="-8.729876959696412">
        <ele>86.180000000000007</ele>
        <time>2026-07-04T13:07:22Z</time>
      </trkpt>
      <trkpt lat="54.053998030722141" lon="-8.72976103797555">
        <ele>86.659999999999997</ele>
        <time>2026-07-04T13:07:23Z</time>
      </trkpt>
      <trkpt lat="54.053994007408619" lon="-8.729672022163868">
        <ele>86.659999999999997</ele>
        <time>2026-07-04T13:07:24Z</time>
      </trkpt>
      <trkpt lat="54.053988978266716" lon="-8.729560961946845">
        <ele>87.140000000000001</ele>
        <time>2026-07-04T13:07:25Z</time>
      </trkpt>
      <trkpt lat="54.053983027115464" lon="-8.729432970285416">
        <ele>87.620000000000005</ele>
        <time>2026-07-04T13:07:26Z</time>
      </trkpt>
      <trkpt lat="54.053976992145181" lon="-8.729292992502451">
        <ele>88.099999999999994</ele>
        <time>2026-07-04T13:07:27Z</time>
      </trkpt>
      <trkpt lat="54.053957965224981" lon="-8.728586984798312">
        <ele>90.5</ele>
        <time>2026-07-04T13:07:32Z</time>
      </trkpt>
      <trkpt lat="54.053930975496769" lon="-8.728415993973613">
        <ele>90.5</ele>
        <time>2026-07-04T13:07:33Z</time>
      </trkpt>
      <trkpt lat="54.05388898216188" lon="-8.728270987048745">
        <ele>90.980000000000004</ele>
        <time>2026-07-04T13:07:34Z</time>
      </trkpt>
      <trkpt lat="54.053440969437361" lon="-8.726753024384379">
        <ele>95.310000000000002</ele>
        <time>2026-07-04T13:07:45Z</time>
      </trkpt>
      <trkpt lat="54.053090019151568" lon="-8.725502025336027">
        <ele>97.709999999999994</ele>
        <time>2026-07-04T13:07:53Z</time>
      </trkpt>
      <trkpt lat="54.052872005850077" lon="-8.724617986008525">
        <ele>101.08</ele>
        <time>2026-07-04T13:07:59Z</time>
      </trkpt>
      <trkpt lat="54.05260001309216" lon="-8.722762987017632">
        <ele>103.95999999999999</ele>
        <time>2026-07-04T13:08:09Z</time>
      </trkpt>
      <trkpt lat="54.052125010639429" lon="-8.720526024699211">
        <ele>107.81</ele>
        <time>2026-07-04T13:08:19Z</time>
      </trkpt>
      <trkpt lat="54.051446998491883" lon="-8.717341991141439">
        <ele>111.65000000000001</ele>
        <time>2026-07-04T13:08:33Z</time>
      </trkpt>
      <trkpt lat="54.051391007378697" lon="-8.715120032429695">
        <ele>112.61</ele>
        <time>2026-07-04T13:08:42Z</time>
      </trkpt>
      <trkpt lat="54.051444986835122" lon="-8.71315497905016">
        <ele>113.09</ele>
        <time>2026-07-04T13:08:50Z</time>
      </trkpt>
      <trkpt lat="54.051452027633786" lon="-8.712907964363694">
        <ele>113.09</ele>
        <time>2026-07-04T13:08:51Z</time>
      </trkpt>
      <trkpt lat="54.051457978785038" lon="-8.712666984647512">
        <ele>113.09</ele>
        <time>2026-07-04T13:08:52Z</time>
      </trkpt>
      <trkpt lat="54.051475999876857" lon="-8.71029800735414">
        <ele>113.09</ele>
        <time>2026-07-04T13:09:02Z</time>
      </trkpt>
      <trkpt lat="54.051336022093892" lon="-8.707503983750939">
        <ele>106.36</ele>
        <time>2026-07-04T13:09:13Z</time>
      </trkpt>
      <trkpt lat="54.05079597607255" lon="-8.703690972179174">
        <ele>102.52</ele>
        <time>2026-07-04T13:09:26Z</time>
      </trkpt>
      <trkpt lat="54.050425998866558" lon="-8.701096018776298">
        <ele>103</ele>
        <time>2026-07-04T13:09:35Z</time>
      </trkpt>
      <trkpt lat="54.050189964473248" lon="-8.698683958500624">
        <ele>103.95999999999999</ele>
        <time>2026-07-04T13:09:43Z</time>
      </trkpt>
      <trkpt lat="54.050123998895288" lon="-8.698413977399468">
        <ele>104.44</ele>
        <time>2026-07-04T13:09:44Z</time>
      </trkpt>
      <trkpt lat="54.050030959770083" lon="-8.698164029046893">
        <ele>104.44</ele>
        <time>2026-07-04T13:09:45Z</time>
      </trkpt>
      <trkpt lat="54.049938004463911" lon="-8.697913996875286">
        <ele>104.92</ele>
        <time>2026-07-04T13:09:46Z</time>
      </trkpt>
      <trkpt lat="54.049844965338707" lon="-8.697662958875299">
        <ele>105.40000000000001</ele>
        <time>2026-07-04T13:09:47Z</time>
      </trkpt>
      <trkpt lat="54.048853972926736" lon="-8.69476399384439">
        <ele>108.29000000000001</ele>
        <time>2026-07-04T13:09:58Z</time>
      </trkpt>
      <trkpt lat="54.047792991623282" lon="-8.690566001459956">
        <ele>105.40000000000001</ele>
        <time>2026-07-04T13:10:12Z</time>
      </trkpt>
      <trkpt lat="54.047238025814295" lon="-8.687237966805697">
        <ele>106.84</ele>
        <time>2026-07-04T13:10:23Z</time>
      </trkpt>
      <trkpt lat="54.046507040038705" lon="-8.6825199611485">
        <ele>119.34</ele>
        <time>2026-07-04T13:10:38Z</time>
      </trkpt>
      <trkpt lat="54.046381982043386" lon="-8.681887965649366">
        <ele>120.78</ele>
        <time>2026-07-04T13:10:40Z</time>
      </trkpt>
      <trkpt lat="54.046324985101819" lon="-8.681565010920167">
        <ele>121.26000000000001</ele>
        <time>2026-07-04T13:10:41Z</time>
      </trkpt>
      <trkpt lat="54.046190958470106" lon="-8.680584998801351">
        <ele>122.70999999999999</ele>
        <time>2026-07-04T13:10:44Z</time>
      </trkpt>
      <trkpt lat="54.046133039519191" lon="-8.680267995223403">
        <ele>123.19</ele>
        <time>2026-07-04T13:10:45Z</time>
      </trkpt>
      <trkpt lat="54.046050980687141" lon="-8.679968006908894">
        <ele>123.19</ele>
        <time>2026-07-04T13:10:46Z</time>
      </trkpt>
      <trkpt lat="54.045142969116569" lon="-8.676273012533784">
        <ele>116.45999999999999</ele>
        <time>2026-07-04T13:10:58Z</time>
      </trkpt>
      <trkpt lat="54.044633014127612" lon="-8.673401959240437">
        <ele>110.69</ele>
        <time>2026-07-04T13:11:07Z</time>
      </trkpt>
      <trkpt lat="54.044167986139655" lon="-8.669869992882013">
        <ele>103.95999999999999</ele>
        <time>2026-07-04T13:11:18Z</time>
      </trkpt>
      <trkpt lat="54.04394201003015" lon="-8.666241969913244">
        <ele>97.230000000000004</ele>
        <time>2026-07-04T13:11:29Z</time>
      </trkpt>
      <trkpt lat="54.043783005326986" lon="-8.663306040689349">
        <ele>90.5</ele>
        <time>2026-07-04T13:11:38Z</time>
      </trkpt>
      <trkpt lat="54.043622994795442" lon="-8.66034597158432">
        <ele>87.140000000000001</ele>
        <time>2026-07-04T13:11:47Z</time>
      </trkpt>
      <trkpt lat="54.043444963172078" lon="-8.656087964773178">
        <ele>86.180000000000007</ele>
        <time>2026-07-04T13:12:00Z</time>
      </trkpt>
      <trkpt lat="54.043371034786105" lon="-8.653475996106863">
        <ele>84.730000000000004</ele>
        <time>2026-07-04T13:12:08Z</time>
      </trkpt>
      <trkpt lat="54.043424008414149" lon="-8.650176962837577">
        <ele>81.370000000000005</ele>
        <time>2026-07-04T13:12:18Z</time>
      </trkpt>
      <trkpt lat="54.043718967586756" lon="-8.64590403623879">
        <ele>77.040000000000006</ele>
        <time>2026-07-04T13:12:31Z</time>
      </trkpt>
      <trkpt lat="54.044056003913283" lon="-8.642333010211587">
        <ele>74.640000000000001</ele>
        <time>2026-07-04T13:12:42Z</time>
      </trkpt>
      <trkpt lat="54.04430796392262" lon="-8.639405965805054">
        <ele>71.269999999999996</ele>
        <time>2026-07-04T13:12:51Z</time>
      </trkpt>
      <trkpt lat="54.04456595890224" lon="-8.636466013267636">
        <ele>71.269999999999996</ele>
        <time>2026-07-04T13:13:00Z</time>
      </trkpt>
      <trkpt lat="54.044853039085865" lon="-8.633189024403691">
        <ele>69.349999999999994</ele>
        <time>2026-07-04T13:13:10Z</time>
      </trkpt>
      <trkpt lat="54.045075997710228" lon="-8.629931984469295">
        <ele>63.100000000000001</ele>
        <time>2026-07-04T13:13:20Z</time>
      </trkpt>
      <trkpt lat="54.045581007376313" lon="-8.624727996066213">
        <ele>66.950000000000003</ele>
        <time>2026-07-04T13:13:36Z</time>
      </trkpt>
      <trkpt lat="54.045906979590654" lon="-8.620861005038023">
        <ele>71.760000000000005</ele>
        <time>2026-07-04T13:13:48Z</time>
      </trkpt>
      <trkpt lat="54.046274023130536" lon="-8.616260010749102">
        <ele>77.040000000000006</ele>
        <time>2026-07-04T13:14:02Z</time>
      </trkpt>
      <trkpt lat="54.046430010348558" lon="-8.61430199816823">
        <ele>79.450000000000003</ele>
        <time>2026-07-04T13:14:08Z</time>
      </trkpt>
      <trkpt lat="54.04666998423636" lon="-8.611290967091918">
        <ele>76.560000000000002</ele>
        <time>2026-07-04T13:14:17Z</time>
      </trkpt>
      <trkpt lat="54.046944994479418" lon="-8.607737040147185">
        <ele>69.829999999999998</ele>
        <time>2026-07-04T13:14:28Z</time>
      </trkpt>
      <trkpt lat="54.047255963087082" lon="-8.604704970493913">
        <ele>73.200000000000003</ele>
        <time>2026-07-04T13:14:38Z</time>
      </trkpt>
      <trkpt lat="54.047309020534158" lon="-8.604498021304607">
        <ele>73.200000000000003</ele>
        <time>2026-07-04T13:14:39Z</time>
      </trkpt>
      <trkpt lat="54.047386972233653" lon="-8.604299034923315">
        <ele>72.719999999999999</ele>
        <time>2026-07-04T13:14:40Z</time>
      </trkpt>
      <trkpt lat="54.047797014936805" lon="-8.603247022256255">
        <ele>70.790000000000006</ele>
        <time>2026-07-04T13:14:45Z</time>
      </trkpt>
      <trkpt lat="54.0478749666363" lon="-8.603105032816529">
        <ele>69.829999999999998</ele>
        <time>2026-07-04T13:14:46Z</time>
      </trkpt>
      <trkpt lat="54.04796096496284" lon="-8.603028003126383">
        <ele>69.829999999999998</ele>
        <time>2026-07-04T13:14:47Z</time>
      </trkpt>
      <trkpt lat="54.048059033229947" lon="-8.603012999519706">
        <ele>69.349999999999994</ele>
        <time>2026-07-04T13:14:48Z</time>
      </trkpt>
      <trkpt lat="54.048171015456319" lon="-8.603060021996498">
        <ele>69.349999999999994</ele>
        <time>2026-07-04T13:14:49Z</time>
      </trkpt>
      <trkpt lat="54.048300012946129" lon="-8.603114001452923">
        <ele>69.349999999999994</ele>
        <time>2026-07-04T13:14:50Z</time>
      </trkpt>
      <trkpt lat="54.04931397177279" lon="-8.603615993633866">
        <ele>70.790000000000006</ele>
        <time>2026-07-04T13:14:59Z</time>
      </trkpt>
      <trkpt lat="54.050726993009448" lon="-8.604324012994766">
        <ele>69.829999999999998</ele>
        <time>2026-07-04T13:15:13Z</time>
      </trkpt>
      <trkpt lat="54.05200095847249" lon="-8.60495500266552">
        <ele>71.760000000000005</ele>
        <time>2026-07-04T13:15:25Z</time>
      </trkpt>
      <trkpt lat="54.052419969812036" lon="-8.605148959904909">
        <ele>72.239999999999995</ele>
        <time>2026-07-04T13:15:29Z</time>
      </trkpt>
      <trkpt lat="54.052489036694169" lon="-8.605148959904909">
        <ele>72.719999999999999</ele>
        <time>2026-07-04T13:15:30Z</time>
      </trkpt>
      <trkpt lat="54.052547039464116" lon="-8.605138985440135">
        <ele>72.719999999999999</ele>
        <time>2026-07-04T13:15:31Z</time>
      </trkpt>
      <trkpt lat="54.052584003657103" lon="-8.60506497323513">
        <ele>72.719999999999999</ele>
        <time>2026-07-04T13:15:32Z</time>
      </trkpt>
      <trkpt lat="54.052585009485483" lon="-8.604966988787055">
        <ele>73.200000000000003</ele>
        <time>2026-07-04T13:15:33Z</time>
      </trkpt>
      <trkpt lat="54.052585009485483" lon="-8.604829022660852">
        <ele>73.200000000000003</ele>
        <time>2026-07-04T13:15:34Z</time>
      </trkpt>
      <trkpt lat="54.052590038627386" lon="-8.604663982987404">
        <ele>73.200000000000003</ele>
        <time>2026-07-04T13:15:35Z</time>
      </trkpt>
      <trkpt lat="54.052605964243412" lon="-8.604491986334324">
        <ele>72.719999999999999</ele>
        <time>2026-07-04T13:15:36Z</time>
      </trkpt>
      <trkpt lat="54.052628008648753" lon="-8.604269027709961">
        <ele>72.239999999999995</ele>
        <time>2026-07-04T13:15:37Z</time>
      </trkpt>
      <trkpt lat="54.052667990326881" lon="-8.604133995249867">
        <ele>71.760000000000005</ele>
        <time>2026-07-04T13:15:38Z</time>
      </trkpt>
      <trkpt lat="54.052746025845408" lon="-8.603973984718323">
        <ele>71.760000000000005</ele>
        <time>2026-07-04T13:15:39Z</time>
      </trkpt>
      <trkpt lat="54.0528379753232" lon="-8.603834006935358">
        <ele>71.760000000000005</ele>
        <time>2026-07-04T13:15:40Z</time>
      </trkpt>
      <trkpt lat="54.052935959771276" lon="-8.603685982525349">
        <ele>71.760000000000005</ele>
        <time>2026-07-04T13:15:41Z</time>
      </trkpt>
      <trkpt lat="54.053873978555202" lon="-8.602282013744116">
        <ele>70.790000000000006</ele>
        <time>2026-07-04T13:15:50Z</time>
      </trkpt>
      <trkpt lat="54.054987011477351" lon="-8.600876033306122">
        <ele>70.790000000000006</ele>
        <time>2026-07-04T13:16:01Z</time>
      </trkpt>
      <trkpt lat="54.055092036724091" lon="-8.60080897808075">
        <ele>70.790000000000006</ele>
        <time>2026-07-04T13:16:02Z</time>
      </trkpt>
      <trkpt lat="54.055331004783511" lon="-8.600729014724493">
        <ele>70.310000000000002</ele>
        <time>2026-07-04T13:16:04Z</time>
      </trkpt>
      <trkpt lat="54.056654004380107" lon="-8.60029399394989">
        <ele>65.030000000000001</ele>
        <time>2026-07-04T13:16:13Z</time>
      </trkpt>
      <trkpt lat="54.05681099742651" lon="-8.600220987573266">
        <ele>64.069999999999993</ele>
        <time>2026-07-04T13:16:14Z</time>
      </trkpt>
      <trkpt lat="54.056949969381094" lon="-8.600105987861753">
        <ele>63.100000000000001</ele>
        <time>2026-07-04T13:16:15Z</time>
      </trkpt>
      <trkpt lat="54.057081984356046" lon="-8.599958969280124">
        <ele>62.140000000000001</ele>
        <time>2026-07-04T13:16:16Z</time>
      </trkpt>
      <trkpt lat="54.057195978239179" lon="-8.599787978455424">
        <ele>61.18</ele>
        <time>2026-07-04T13:16:17Z</time>
      </trkpt>
      <trkpt lat="54.057301003485918" lon="-8.599587986245751">
        <ele>60.219999999999999</ele>
        <time>2026-07-04T13:16:18Z</time>
      </trkpt>
      <trkpt lat="54.057397982105613" lon="-8.599375002086163">
        <ele>59.259999999999998</ele>
        <time>2026-07-04T13:16:19Z</time>
      </trkpt>
      <trkpt lat="54.057490015402436" lon="-8.599139973521233">
        <ele>58.780000000000001</ele>
        <time>2026-07-04T13:16:20Z</time>
      </trkpt>
      <trkpt lat="54.05835997313261" lon="-8.596293982118368">
        <ele>58.299999999999997</ele>
        <time>2026-07-04T13:16:31Z</time>
      </trkpt>
      <trkpt lat="54.059101017192006" lon="-8.593770023435354">
        <ele>59.740000000000002</ele>
        <time>2026-07-04T13:16:41Z</time>
      </trkpt>
      <trkpt lat="54.060183959081769" lon="-8.590020965784788">
        <ele>63.579999999999998</ele>
        <time>2026-07-04T13:16:54Z</time>
      </trkpt>
      <trkpt lat="54.060935983434319" lon="-8.586651021614671">
        <ele>62.619999999999997</ele>
        <time>2026-07-04T13:17:05Z</time>
      </trkpt>
      <trkpt lat="54.061549035832286" lon="-8.583547035232186">
        <ele>61.18</ele>
        <time>2026-07-04T13:17:15Z</time>
      </trkpt>
      <trkpt lat="54.061740981414914" lon="-8.582643968984485">
        <ele>62.140000000000001</ele>
        <time>2026-07-04T13:17:18Z</time>
      </trkpt>
      <trkpt lat="54.061846006661654" lon="-8.582382034510374">
        <ele>62.140000000000001</ele>
        <time>2026-07-04T13:17:19Z</time>
      </trkpt>
      <trkpt lat="54.061942985281348" lon="-8.582138959318399">
        <ele>62.619999999999997</ele>
        <time>2026-07-04T13:17:20Z</time>
      </trkpt>
      <trkpt lat="54.062051028013229" lon="-8.581934021785855">
        <ele>62.619999999999997</ele>
        <time>2026-07-04T13:17:21Z</time>
      </trkpt>
      <trkpt lat="54.062176002189517" lon="-8.581738974899054">
        <ele>63.100000000000001</ele>
        <time>2026-07-04T13:17:22Z</time>
      </trkpt>
      <trkpt lat="54.062299970537424" lon="-8.581625986844301">
        <ele>63.100000000000001</ele>
        <time>2026-07-04T13:17:23Z</time>
      </trkpt>
      <trkpt lat="54.062450006604195" lon="-8.581500006839633">
        <ele>63.579999999999998</ele>
        <time>2026-07-04T13:17:24Z</time>
      </trkpt>
      <trkpt lat="54.062615968286991" lon="-8.581392969936132">
        <ele>63.579999999999998</ele>
        <time>2026-07-04T13:17:25Z</time>
      </trkpt>
      <trkpt lat="54.064400978386402" lon="-8.580284966155887">
        <ele>63.100000000000001</ele>
        <time>2026-07-04T13:17:35Z</time>
      </trkpt>
      <trkpt lat="54.066203003749251" lon="-8.579205041751266">
        <ele>64.069999999999993</ele>
        <time>2026-07-04T13:17:45Z</time>
      </trkpt>
      <trkpt lat="54.067818028852344" lon="-8.578223017975688">
        <ele>64.069999999999993</ele>
        <time>2026-07-04T13:17:54Z</time>
      </trkpt>
      <trkpt lat="54.067960018292069" lon="-8.578091003000736">
        <ele>64.549999999999997</ele>
        <time>2026-07-04T13:17:55Z</time>
      </trkpt>
      <trkpt lat="54.068092033267021" lon="-8.577966028824449">
        <ele>64.549999999999997</ele>
        <time>2026-07-04T13:17:56Z</time>
      </trkpt>
      <trkpt lat="54.068202003836632" lon="-8.577775005251169">
        <ele>64.549999999999997</ele>
        <time>2026-07-04T13:17:57Z</time>
      </trkpt>
      <trkpt lat="54.068296970799565" lon="-8.577548023313284">
        <ele>64.549999999999997</ele>
        <time>2026-07-04T13:17:58Z</time>
      </trkpt>
      <trkpt lat="54.068401996046305" lon="-8.577298996970058">
        <ele>64.549999999999997</ele>
        <time>2026-07-04T13:17:59Z</time>
      </trkpt>
      <trkpt lat="54.068489000201225" lon="-8.57700202614069">
        <ele>65.030000000000001</ele>
        <time>2026-07-04T13:18:00Z</time>
      </trkpt>
      <trkpt lat="54.069464989006519" lon="-8.57343502342701">
        <ele>64.069999999999993</ele>
        <time>2026-07-04T13:18:12Z</time>
      </trkpt>
      <trkpt lat="54.07023997977376" lon="-8.570650974288583">
        <ele>63.100000000000001</ele>
        <time>2026-07-04T13:18:22Z</time>
      </trkpt>
      <trkpt lat="54.070306029170752" lon="-8.570456011220813">
        <ele>63.100000000000001</ele>
        <time>2026-07-04T13:18:23Z</time>
      </trkpt>
      <trkpt lat="54.07036998309195" lon="-8.570289965718985">
        <ele>62.619999999999997</ele>
        <time>2026-07-04T13:18:24Z</time>
      </trkpt>
      <trkpt lat="54.070488000288606" lon="-8.570217965170741">
        <ele>61.659999999999997</ele>
        <time>2026-07-04T13:18:25Z</time>
      </trkpt>
      <trkpt lat="54.070590008050203" lon="-8.570162979885936">
        <ele>61.18</ele>
        <time>2026-07-04T13:18:26Z</time>
      </trkpt>
      <trkpt lat="54.070711964741349" lon="-8.570122998207808">
        <ele>61.18</ele>
        <time>2026-07-04T13:18:27Z</time>
      </trkpt>
      <trkpt lat="54.070845991373062" lon="-8.570105982944369">
        <ele>60.700000000000003</ele>
        <time>2026-07-04T13:18:28Z</time>
      </trkpt>
      <trkpt lat="54.072222970426083" lon="-8.569949995726347">
        <ele>59.259999999999998</ele>
        <time>2026-07-04T13:18:36Z</time>
      </trkpt>
      <trkpt lat="54.07408501021564" lon="-8.569508017972112">
        <ele>59.259999999999998</ele>
        <time>2026-07-04T13:18:46Z</time>
      </trkpt>
      <trkpt lat="54.074240997433662" lon="-8.569363011047244">
        <ele>59.259999999999998</ele>
        <time>2026-07-04T13:18:47Z</time>
      </trkpt>
      <trkpt lat="54.074393967166543" lon="-8.569216998293996">
        <ele>59.740000000000002</ele>
        <time>2026-07-04T13:18:48Z</time>
      </trkpt>
      <trkpt lat="54.074527993798256" lon="-8.569020023569465">
        <ele>60.219999999999999</ele>
        <time>2026-07-04T13:18:49Z</time>
      </trkpt>
      <trkpt lat="54.074669983237982" lon="-8.568810978904367">
        <ele>60.219999999999999</ele>
        <time>2026-07-04T13:18:50Z</time>
      </trkpt>
      <trkpt lat="54.075514040887356" lon="-8.567642960697413">
        <ele>61.659999999999997</ele>
        <time>2026-07-04T13:18:56Z</time>
      </trkpt>
      <trkpt lat="54.075655024498701" lon="-8.567537013441324">
        <ele>61.659999999999997</ele>
        <time>2026-07-04T13:18:57Z</time>
      </trkpt>
      <trkpt lat="54.075813023373485" lon="-8.567466018721461">
        <ele>62.140000000000001</ele>
        <time>2026-07-04T13:18:58Z</time>
      </trkpt>
      <trkpt lat="54.075994994491339" lon="-8.567383037880063">
        <ele>62.140000000000001</ele>
        <time>2026-07-04T13:18:59Z</time>
      </trkpt>
      <trkpt lat="54.076141007244587" lon="-8.567383037880063">
        <ele>61.659999999999997</ele>
        <time>2026-07-04T13:19:00Z</time>
      </trkpt>
      <trkpt lat="54.0778240095824" lon="-8.567535001784563">
        <ele>62.140000000000001</ele>
        <time>2026-07-04T13:19:10Z</time>
      </trkpt>
      <trkpt lat="54.078293982893229" lon="-8.567589987069368">
        <ele>62.140000000000001</ele>
        <time>2026-07-04T13:19:13Z</time>
      </trkpt>
      <trkpt lat="54.078437983989716" lon="-8.567607002332807">
        <ele>62.619999999999997</ele>
        <time>2026-07-04T13:19:14Z</time>
      </trkpt>
      <trkpt lat="54.078721962869167" lon="-8.567637009546161">
        <ele>62.140000000000001</ele>
        <time>2026-07-04T13:19:16Z</time>
      </trkpt>
      <trkpt lat="54.078862024471164" lon="-8.567595016211271">
        <ele>62.140000000000001</ele>
        <time>2026-07-04T13:19:17Z</time>
      </trkpt>
      <trkpt lat="54.079000996425748" lon="-8.567530978471041">
        <ele>62.140000000000001</ele>
        <time>2026-07-04T13:19:18Z</time>
      </trkpt>
      <trkpt lat="54.080486018210649" lon="-8.566362038254738">
        <ele>63.579999999999998</ele>
        <time>2026-07-04T13:19:28Z</time>
      </trkpt>
      <trkpt lat="54.081967016682029" lon="-8.565151020884514">
        <ele>66.469999999999999</ele>
        <time>2026-07-04T13:19:38Z</time>
      </trkpt>
      <trkpt lat="54.082162985578179" lon="-8.56490702368319">
        <ele>67.430000000000007</ele>
        <time>2026-07-04T13:19:40Z</time>
      </trkpt>
      <trkpt lat="54.082239009439945" lon="-8.564780037850142">
        <ele>67.909999999999997</ele>
        <time>2026-07-04T13:19:41Z</time>
      </trkpt>
      <trkpt lat="54.082276979461312" lon="-8.564638970419765">
        <ele>67.909999999999997</ele>
        <time>2026-07-04T13:19:42Z</time>
      </trkpt>
      <trkpt lat="54.082303969189525" lon="-8.564464962109923">
        <ele>68.390000000000001</ele>
        <time>2026-07-04T13:19:43Z</time>
      </trkpt>
      <trkpt lat="54.082282008603215" lon="-8.564291959628463">
        <ele>68.870000000000005</ele>
        <time>2026-07-04T13:19:44Z</time>
      </trkpt>
      <trkpt lat="54.082256024703383" lon="-8.564094984903932">
        <ele>69.349999999999994</ele>
        <time>2026-07-04T13:19:45Z</time>
      </trkpt>
      <trkpt lat="54.082229034975171" lon="-8.563885018229485">
        <ele>69.829999999999998</ele>
        <time>2026-07-04T13:19:46Z</time>
      </trkpt>
      <trkpt lat="54.082201039418578" lon="-8.563662981614471">
        <ele>70.310000000000002</ele>
        <time>2026-07-04T13:19:47Z</time>
      </trkpt>
      <trkpt lat="54.082211013883352" lon="-8.563443040475249">
        <ele>70.790000000000006</ele>
        <time>2026-07-04T13:19:48Z</time>
      </trkpt>
      <trkpt lat="54.082229034975171" lon="-8.563202982768416">
        <ele>70.790000000000006</ele>
        <time>2026-07-04T13:19:49Z</time>
      </trkpt>
      <trkpt lat="54.082247978076339" lon="-8.562960997223854">
        <ele>71.269999999999996</ele>
        <time>2026-07-04T13:19:50Z</time>
      </trkpt>
      <trkpt lat="54.082272034138441" lon="-8.562725968658924">
        <ele>71.760000000000005</ele>
        <time>2026-07-04T13:19:51Z</time>
      </trkpt>
      <trkpt lat="54.082645028829575" lon="-8.560500992462039">
        <ele>72.719999999999999</ele>
        <time>2026-07-04T13:19:59Z</time>
      </trkpt>
      <trkpt lat="54.083178034052253" lon="-8.557325005531311">
        <ele>71.760000000000005</ele>
        <time>2026-07-04T13:20:10Z</time>
      </trkpt>
      <trkpt lat="54.083802988752723" lon="-8.553864033892751">
        <ele>71.269999999999996</ele>
        <time>2026-07-04T13:20:22Z</time>
      </trkpt>
      <trkpt lat="54.084374969825149" lon="-8.550745965912938">
        <ele>69.349999999999994</ele>
        <time>2026-07-04T13:20:32Z</time>
      </trkpt>
      <trkpt lat="54.085140991955996" lon="-8.546459041535854">
        <ele>71.269999999999996</ele>
        <time>2026-07-04T13:20:46Z</time>
      </trkpt>
      <trkpt lat="54.085891004651785" lon="-8.54211000725627">
        <ele>70.310000000000002</ele>
        <time>2026-07-04T13:21:00Z</time>
      </trkpt>
      <trkpt lat="54.086213037371635" lon="-8.538304958492518">
        <ele>72.719999999999999</ele>
        <time>2026-07-04T13:21:12Z</time>
      </trkpt>
      <trkpt lat="54.08645804040134" lon="-8.535372968763113">
        <ele>78.480000000000004</ele>
        <time>2026-07-04T13:21:22Z</time>
      </trkpt>
      <trkpt lat="54.08676004037261" lon="-8.531718039885163">
        <ele>72.239999999999995</ele>
        <time>2026-07-04T13:21:36Z</time>
      </trkpt>
      <trkpt lat="54.086988028138876" lon="-8.529102969914675">
        <ele>67.909999999999997</ele>
        <time>2026-07-04T13:21:46Z</time>
      </trkpt>
      <trkpt lat="54.087218027561903" lon="-8.526613963767886">
        <ele>69.829999999999998</ele>
        <time>2026-07-04T13:21:58Z</time>
      </trkpt>
      <trkpt lat="54.087395975366235" lon="-8.524811016395688">
        <ele>65.989999999999995</ele>
        <time>2026-07-04T13:22:07Z</time>
      </trkpt>
      <trkpt lat="54.087646007537842" lon="-8.522298038005829">
        <ele>63.100000000000001</ele>
        <time>2026-07-04T13:22:19Z</time>
      </trkpt>
      <trkpt lat="54.087667968124151" lon="-8.522084970027208">
        <ele>63.100000000000001</ele>
        <time>2026-07-04T13:22:20Z</time>
      </trkpt>
      <trkpt lat="54.087710967287421" lon="-8.52165699005127">
        <ele>62.619999999999997</ele>
        <time>2026-07-04T13:22:22Z</time>
      </trkpt>
      <trkpt lat="54.087752038612962" lon="-8.521450962871313">
        <ele>63.100000000000001</ele>
        <time>2026-07-04T13:22:23Z</time>
      </trkpt>
      <trkpt lat="54.088085973635316" lon="-8.520028972998262">
        <ele>64.069999999999993</ele>
        <time>2026-07-04T13:22:30Z</time>
      </trkpt>
      <trkpt lat="54.088165014982224" lon="-8.51985395886004">
        <ele>63.579999999999998</ele>
        <time>2026-07-04T13:22:31Z</time>
      </trkpt>
      <trkpt lat="54.08824497833848" lon="-8.519676011055708">
        <ele>63.100000000000001</ele>
        <time>2026-07-04T13:22:32Z</time>
      </trkpt>
      <trkpt lat="54.088526023551822" lon="-8.519210983067751">
        <ele>62.619999999999997</ele>
        <time>2026-07-04T13:22:35Z</time>
      </trkpt>
      <trkpt lat="54.089494971558452" lon="-8.518223008140922">
        <ele>64.549999999999997</ele>
        <time>2026-07-04T13:22:45Z</time>
      </trkpt>
      <trkpt lat="54.089646013453603" lon="-8.51794196292758">
        <ele>65.989999999999995</ele>
        <time>2026-07-04T13:22:48Z</time>
      </trkpt>
      <trkpt lat="54.089670991525054" lon="-8.517895024269819">
        <ele>66.469999999999999</ele>
        <time>2026-07-04T13:22:49Z</time>
      </trkpt>
      <trkpt lat="54.089688006788492" lon="-8.517864011228085">
        <ele>66.950000000000003</ele>
        <time>2026-07-04T13:22:50Z</time>
      </trkpt>
      <trkpt lat="54.08981398679316" lon="-8.517886977642775">
        <ele>67.430000000000007</ele>
        <time>2026-07-04T13:22:51Z</time>
      </trkpt>
      <trkpt lat="54.089823961257935" lon="-8.517926037311554">
        <ele>67.909999999999997</ele>
        <time>2026-07-04T13:22:52Z</time>
      </trkpt>
      <trkpt lat="54.089840976521373" lon="-8.517996026203036">
        <ele>68.390000000000001</ele>
        <time>2026-07-04T13:22:53Z</time>
      </trkpt>
      <trkpt lat="54.089865032583475" lon="-8.518095016479492">
        <ele>68.870000000000005</ele>
        <time>2026-07-04T13:22:54Z</time>
      </trkpt>
      <trkpt lat="54.089894033968449" lon="-8.518215967342258">
        <ele>68.870000000000005</ele>
        <time>2026-07-04T13:22:55Z</time>
      </trkpt>
      <trkpt lat="54.090252025052905" lon="-8.519655978307128">
        <ele>68.870000000000005</ele>
        <time>2026-07-04T13:23:04Z</time>
      </trkpt>
      <trkpt lat="54.090681010857224" lon="-8.520881999284029">
        <ele>69.349999999999994</ele>
        <time>2026-07-04T13:23:10Z</time>
      </trkpt>
      <trkpt lat="54.090771032497287" lon="-8.521036980673671">
        <ele>69.349999999999994</ele>
        <time>2026-07-04T13:23:11Z</time>
      </trkpt>
      <trkpt lat="54.09086499363184" lon="-8.521173018962145">
        <ele>69.349999999999994</ele>
        <time>2026-07-04T13:23:12Z</time>
      </trkpt>
      <trkpt lat="54.090983010828495" lon="-8.52122800424695">
        <ele>69.349999999999994</ele>
        <time>2026-07-04T13:23:13Z</time>
      </trkpt>
      <trkpt lat="54.091106979176402" lon="-8.521285001188517">
        <ele>69.349999999999994</ele>
        <time>2026-07-04T13:23:14Z</time>
      </trkpt>
      <trkpt lat="54.091235976666212" lon="-8.521345015615225">
        <ele>69.829999999999998</ele>
        <time>2026-07-04T13:23:15Z</time>
      </trkpt>
      <trkpt lat="54.092579009011388" lon="-8.521934011951089">
        <ele>70.310000000000002</ele>
        <time>2026-07-04T13:23:26Z</time>
      </trkpt>
      <trkpt lat="54.094179030507803" lon="-8.522601965814829">
        <ele>69.829999999999998</ele>
        <time>2026-07-04T13:23:38Z</time>
      </trkpt>
      <trkpt lat="54.095940990373492" lon="-8.523350972682238">
        <ele>69.829999999999998</ele>
        <time>2026-07-04T13:23:50Z</time>
      </trkpt>
      <trkpt lat="54.098292030394077" lon="-8.524426035583019">
        <ele>71.269999999999996</ele>
        <time>2026-07-04T13:24:04Z</time>
      </trkpt>
      <trkpt lat="54.099358962848783" lon="-8.525087032467127">
        <ele>71.760000000000005</ele>
        <time>2026-07-04T13:24:12Z</time>
      </trkpt>
      <trkpt lat="54.099684013053775" lon="-8.525342009961605">
        <ele>71.269999999999996</ele>
        <time>2026-07-04T13:24:17Z</time>
      </trkpt>
      <trkpt lat="54.099763976410031" lon="-8.525265986099839">
        <ele>70.790000000000006</ele>
        <time>2026-07-04T13:24:18Z</time>
      </trkpt>
      <trkpt lat="54.099847041070461" lon="-8.525278978049755">
        <ele>70.790000000000006</ele>
        <time>2026-07-04T13:24:19Z</time>
      </trkpt>
      <trkpt lat="54.100063964724541" lon="-8.525312002748251">
        <ele>70.310000000000002</ele>
        <time>2026-07-04T13:24:21Z</time>
      </trkpt>
      <trkpt lat="54.100184999406338" lon="-8.525342009961605">
        <ele>70.310000000000002</ele>
        <time>2026-07-04T13:24:22Z</time>
      </trkpt>
      <trkpt lat="54.101531971246004" lon="-8.525796979665756">
        <ele>70.790000000000006</ele>
        <time>2026-07-04T13:24:32Z</time>
      </trkpt>
      <trkpt lat="54.103097040206194" lon="-8.526219008490443">
        <ele>71.760000000000005</ele>
        <time>2026-07-04T13:24:42Z</time>
      </trkpt>
      <trkpt lat="54.104512995108962" lon="-8.526152037084103">
        <ele>76.560000000000002</ele>
        <time>2026-07-04T13:24:52Z</time>
      </trkpt>
      <trkpt lat="54.105945965275168" lon="-8.526100991293788">
        <ele>70.310000000000002</ele>
        <time>2026-07-04T13:25:01Z</time>
      </trkpt>
      <trkpt lat="54.108178988099098" lon="-8.525902004912496">
        <ele>67.430000000000007</ele>
        <time>2026-07-04T13:25:14Z</time>
      </trkpt>
      <trkpt lat="54.110017977654934" lon="-8.525753980502486">
        <ele>71.269999999999996</ele>
        <time>2026-07-04T13:25:25Z</time>
      </trkpt>
      <trkpt lat="54.111927961930633" lon="-8.525746017694473">
        <ele>75.599999999999994</ele>
        <time>2026-07-04T13:25:36Z</time>
      </trkpt>
      <trkpt lat="54.113290021196008" lon="-8.52574098855257">
        <ele>76.079999999999998</ele>
        <time>2026-07-04T13:25:44Z</time>
      </trkpt>
      <trkpt lat="54.115324979647994" lon="-8.525706036016345">
        <ele>79.450000000000003</ele>
        <time>2026-07-04T13:25:56Z</time>
      </trkpt>
      <trkpt lat="54.116789968684316" lon="-8.525603022426367">
        <ele>78.480000000000004</ele>
        <time>2026-07-04T13:26:06Z</time>
      </trkpt>
      <trkpt lat="54.116979986429214" lon="-8.525590030476451">
        <ele>78.480000000000004</ele>
        <time>2026-07-04T13:26:09Z</time>
      </trkpt>
      <trkpt lat="54.117009993642569" lon="-8.52558801881969">
        <ele>78.480000000000004</ele>
        <time>2026-07-04T13:26:10Z</time>
      </trkpt>
      <trkpt lat="54.117023991420865" lon="-8.525736965239048">
        <ele>78.480000000000004</ele>
        <time>2026-07-04T13:26:11Z</time>
      </trkpt>
      <trkpt lat="54.117006976157427" lon="-8.525798991322517">
        <ele>78.480000000000004</ele>
        <time>2026-07-04T13:26:12Z</time>
      </trkpt>
      <trkpt lat="54.116981998085976" lon="-8.525892030447722">
        <ele>78.969999999999999</ele>
        <time>2026-07-04T13:26:13Z</time>
      </trkpt>
      <trkpt lat="54.116947967559099" lon="-8.526017004624009">
        <ele>78.969999999999999</ele>
        <time>2026-07-04T13:26:14Z</time>
      </trkpt>
      <trkpt lat="54.116907985880971" lon="-8.526166034862399">
        <ele>78.969999999999999</ele>
        <time>2026-07-04T13:26:15Z</time>
      </trkpt>
      <trkpt lat="54.116865992546082" lon="-8.52632001042366">
        <ele>78.969999999999999</ele>
        <time>2026-07-04T13:26:16Z</time>
      </trkpt>
      <trkpt lat="54.116822993382812" lon="-8.526481026783586">
        <ele>78.969999999999999</ele>
        <time>2026-07-04T13:26:17Z</time>
      </trkpt>
      <trkpt lat="54.116337010636926" lon="-8.52827500551939">
        <ele>75.120000000000005</ele>
        <time>2026-07-04T13:26:26Z</time>
      </trkpt>
      <trkpt lat="54.115893021225929" lon="-8.530019028112292">
        <ele>70.790000000000006</ele>
        <time>2026-07-04T13:26:34Z</time>
      </trkpt>
      <trkpt lat="54.115864019840956" lon="-8.530218014493585">
        <ele>70.310000000000002</ele>
        <time>2026-07-04T13:26:35Z</time>
      </trkpt>
      <trkpt lat="54.11587500013411" lon="-8.530377019196749">
        <ele>70.310000000000002</ele>
        <time>2026-07-04T13:26:36Z</time>
      </trkpt>
      <trkpt lat="54.115882962942123" lon="-8.530496964231134">
        <ele>69.829999999999998</ele>
        <time>2026-07-04T13:26:37Z</time>
      </trkpt>
      <trkpt lat="54.115891009569168" lon="-8.530604001134634">
        <ele>69.349999999999994</ele>
        <time>2026-07-04T13:26:38Z</time>
      </trkpt>
      <trkpt lat="54.115898972377181" lon="-8.530711038038135">
        <ele>69.349999999999994</ele>
        <time>2026-07-04T13:26:39Z</time>
      </trkpt>
      <trkpt lat="54.115911964327097" lon="-8.530829977244139">
        <ele>68.870000000000005</ele>
        <time>2026-07-04T13:26:40Z</time>
      </trkpt>
      <trkpt lat="54.11595999263227" lon="-8.530926033854485">
        <ele>68.390000000000001</ele>
        <time>2026-07-04T13:26:41Z</time>
      </trkpt>
      <trkpt lat="54.116422003135085" lon="-8.531845025718212">
        <ele>66.950000000000003</ele>
        <time>2026-07-04T13:26:47Z</time>
      </trkpt>
      <trkpt lat="54.117488013580441" lon="-8.533963970839977">
        <ele>64.069999999999993</ele>
        <time>2026-07-04T13:26:58Z</time>
      </trkpt>
      <trkpt lat="54.118120009079576" lon="-8.535528033971787">
        <ele>62.619999999999997</ele>
        <time>2026-07-04T13:27:07Z</time>
      </trkpt>
      <trkpt lat="54.118181029334664" lon="-8.535712016746402">
        <ele>62.140000000000001</ele>
        <time>2026-07-04T13:27:08Z</time>
      </trkpt>
      <trkpt lat="54.118265016004443" lon="-8.535826010629535">
        <ele>62.140000000000001</ele>
        <time>2026-07-04T13:27:09Z</time>
      </trkpt>
      <trkpt lat="54.119045035913587" lon="-8.536885986104608">
        <ele>60.219999999999999</ele>
        <time>2026-07-04T13:27:16Z</time>
      </trkpt>
      <trkpt lat="54.119497993960977" lon="-8.537501972168684">
        <ele>62.140000000000001</ele>
        <time>2026-07-04T13:27:23Z</time>
      </trkpt>
      <trkpt lat="54.119517020881176" lon="-8.537528961896896">
        <ele>63.100000000000001</ele>
        <time>2026-07-04T13:27:31Z</time>
      </trkpt>
      <trkpt lat="54.119539987295866" lon="-8.537558969110251">
        <ele>63.579999999999998</ele>
        <time>2026-07-04T13:27:32Z</time>
      </trkpt>
      <trkpt lat="54.119588015601039" lon="-8.537561986595392">
        <ele>63.579999999999998</ele>
        <time>2026-07-04T13:27:33Z</time>
      </trkpt>
      <trkpt lat="54.11965498700738" lon="-8.537529967725277">
        <ele>64.069999999999993</ele>
        <time>2026-07-04T13:27:34Z</time>
      </trkpt>
      <trkpt lat="54.119739979505539" lon="-8.537488980218768">
        <ele>64.069999999999993</ele>
        <time>2026-07-04T13:27:35Z</time>
      </trkpt>
      <trkpt lat="54.119839975610375" lon="-8.537440029904246">
        <ele>64.069999999999993</ele>
        <time>2026-07-04T13:27:36Z</time>
      </trkpt>
      <trkpt lat="54.120867010205984" lon="-8.536942983046174">
        <ele>65.510000000000005</ele>
        <time>2026-07-04T13:27:43Z</time>
      </trkpt>
      <trkpt lat="54.122574990615249" lon="-8.53598996065557">
        <ele>66.469999999999999</ele>
        <time>2026-07-04T13:27:52Z</time>
      </trkpt>
      <trkpt lat="54.12393000908196" lon="-8.534786989912391">
        <ele>68.390000000000001</ele>
        <time>2026-07-04T13:28:00Z</time>
      </trkpt>
      <trkpt lat="54.124090019613504" lon="-8.534654974937439">
        <ele>68.870000000000005</ele>
        <time>2026-07-04T13:28:01Z</time>
      </trkpt>
      <trkpt lat="54.124264027923346" lon="-8.534565037116408">
        <ele>69.349999999999994</ele>
        <time>2026-07-04T13:28:02Z</time>
      </trkpt>
      <trkpt lat="54.124440969899297" lon="-8.534473003819585">
        <ele>70.310000000000002</ele>
        <time>2026-07-04T13:28:03Z</time>
      </trkpt>
      <trkpt lat="54.124623024836183" lon="-8.534392034634948">
        <ele>70.310000000000002</ele>
        <time>2026-07-04T13:28:04Z</time>
      </trkpt>
      <trkpt lat="54.124819999560714" lon="-8.534349035471678">
        <ele>70.790000000000006</ele>
        <time>2026-07-04T13:28:05Z</time>
      </trkpt>
      <trkpt lat="54.125020997598767" lon="-8.534304024651647">
        <ele>71.760000000000005</ele>
        <time>2026-07-04T13:28:06Z</time>
      </trkpt>
      <trkpt lat="54.125989023596048" lon="-8.534251973032951">
        <ele>75.120000000000005</ele>
        <time>2026-07-04T13:28:11Z</time>
      </trkpt>
      <trkpt lat="54.127785013988614" lon="-8.534994022920728">
        <ele>78</ele>
        <time>2026-07-04T13:28:20Z</time>
      </trkpt>
      <trkpt lat="54.127951981499791" lon="-8.535161996260285">
        <ele>78.969999999999999</ele>
        <time>2026-07-04T13:28:21Z</time>
      </trkpt>
      <trkpt lat="54.128118027001619" lon="-8.535328041762114">
        <ele>79.450000000000003</ele>
        <time>2026-07-04T13:28:22Z</time>
      </trkpt>
      <trkpt lat="54.128276025876403" lon="-8.535533985123038">
        <ele>79.930000000000007</ele>
        <time>2026-07-04T13:28:23Z</time>
      </trkpt>
      <trkpt lat="54.128825962543488" lon="-8.536409977823496">
        <ele>80.409999999999997</ele>
        <time>2026-07-04T13:28:27Z</time>
      </trkpt>
      <trkpt lat="54.130044020712376" lon="-8.538685999810696">
        <ele>77.519999999999996</ele>
        <time>2026-07-04T13:28:36Z</time>
      </trkpt>
      <trkpt lat="54.130330011248589" lon="-8.539079027250409">
        <ele>77.519999999999996</ele>
        <time>2026-07-04T13:28:38Z</time>
      </trkpt>
      <trkpt lat="54.131527030840516" lon="-8.539752010256052">
        <ele>73.680000000000007</ele>
        <time>2026-07-04T13:28:45Z</time>
      </trkpt>
      <trkpt lat="54.13321397267282" lon="-8.539700964465737">
        <ele>71.760000000000005</ele>
        <time>2026-07-04T13:28:54Z</time>
      </trkpt>
      <trkpt lat="54.135129991918802" lon="-8.539285976439714">
        <ele>73.200000000000003</ele>
        <time>2026-07-04T13:29:05Z</time>
      </trkpt>
      <trkpt lat="54.135283967480063" lon="-8.539156978949904">
        <ele>73.680000000000007</ele>
        <time>2026-07-04T13:29:06Z</time>
      </trkpt>
      <trkpt lat="54.137008963152766" lon="-8.537666006013751">
        <ele>75.120000000000005</ele>
        <time>2026-07-04T13:29:16Z</time>
      </trkpt>
      <trkpt lat="54.138874020427465" lon="-8.535841014236212">
        <ele>80.409999999999997</ele>
        <time>2026-07-04T13:29:28Z</time>
      </trkpt>
      <trkpt lat="54.139769040048122" lon="-8.534580040723085">
        <ele>80.890000000000001</ele>
        <time>2026-07-04T13:29:35Z</time>
      </trkpt>
      <trkpt lat="54.139902982860804" lon="-8.534388011321425">
        <ele>80.409999999999997</ele>
        <time>2026-07-04T13:29:38Z</time>
      </trkpt>
      <trkpt lat="54.139933995902538" lon="-8.534344006329775">
        <ele>80.409999999999997</ele>
        <time>2026-07-04T13:29:39Z</time>
      </trkpt>
      <trkpt lat="54.140013037249446" lon="-8.534322967752814">
        <ele>80.409999999999997</ele>
        <time>2026-07-04T13:29:40Z</time>
      </trkpt>
      <trkpt lat="54.140053018927574" lon="-8.534385999664664">
        <ele>79.930000000000007</ele>
        <time>2026-07-04T13:29:41Z</time>
      </trkpt>
      <trkpt lat="54.140106998383999" lon="-8.534467974677682">
        <ele>79.450000000000003</ele>
        <time>2026-07-04T13:29:42Z</time>
      </trkpt>
      <trkpt lat="54.140167012810707" lon="-8.534561013802886">
        <ele>78.969999999999999</ele>
        <time>2026-07-04T13:29:43Z</time>
      </trkpt>
      <trkpt lat="54.140709992498159" lon="-8.535381015390158">
        <ele>78</ele>
        <time>2026-07-04T13:29:49Z</time>
      </trkpt>
      <trkpt lat="54.140816023573279" lon="-8.535529039800167">
        <ele>77.519999999999996</ele>
        <time>2026-07-04T13:29:50Z</time>
      </trkpt>
      <trkpt lat="54.141160016879439" lon="-8.536004964262247">
        <ele>76.560000000000002</ele>
        <time>2026-07-04T13:29:53Z</time>
      </trkpt>
      <trkpt lat="54.141521025449038" lon="-8.536507040262222">
        <ele>77.040000000000006</ele>
        <time>2026-07-04T13:29:56Z</time>
      </trkpt>
      <trkpt lat="54.141640970483422" lon="-8.536673001945019">
        <ele>77.519999999999996</ele>
        <time>2026-07-04T13:29:57Z</time>
      </trkpt>
      <trkpt lat="54.142620982602239" lon="-8.538330020383">
        <ele>74.159999999999997</ele>
        <time>2026-07-04T13:30:05Z</time>
      </trkpt>
      <trkpt lat="54.144122013822198" lon="-8.540652981027961">
        <ele>65.989999999999995</ele>
        <time>2026-07-04T13:30:16Z</time>
      </trkpt>
      <trkpt lat="54.145439984276891" lon="-8.542691962793469">
        <ele>59.740000000000002</ele>
        <time>2026-07-04T13:30:26Z</time>
      </trkpt>
      <trkpt lat="54.146666005253792" lon="-8.544589038938284">
        <ele>63.579999999999998</ele>
        <time>2026-07-04T13:30:36Z</time>
      </trkpt>
      <trkpt lat="54.146864991635084" lon="-8.544896990060806">
        <ele>64.069999999999993</ele>
        <time>2026-07-04T13:30:38Z</time>
      </trkpt>
      <trkpt lat="54.146974962204695" lon="-8.544955998659134">
        <ele>64.069999999999993</ele>
        <time>2026-07-04T13:30:39Z</time>
      </trkpt>
      <trkpt lat="54.147086022421718" lon="-8.544979970902205">
        <ele>64.549999999999997</ele>
        <time>2026-07-04T13:30:40Z</time>
      </trkpt>
      <trkpt lat="54.14719901047647" lon="-8.545003021135926">
        <ele>64.549999999999997</ele>
        <time>2026-07-04T13:30:41Z</time>
      </trkpt>
      <trkpt lat="54.147313004359603" lon="-8.545024981722236">
        <ele>65.030000000000001</ele>
        <time>2026-07-04T13:30:42Z</time>
      </trkpt>
      <trkpt lat="54.147704020142555" lon="-8.545057000592351">
        <ele>64.549999999999997</ele>
        <time>2026-07-04T13:30:45Z</time>
      </trkpt>
      <trkpt lat="54.149022996425629" lon="-8.545164037495852">
        <ele>63.579999999999998</ele>
        <time>2026-07-04T13:30:54Z</time>
      </trkpt>
      <trkpt lat="54.149674018844962" lon="-8.545217011123896">
        <ele>61.18</ele>
        <time>2026-07-04T13:31:01Z</time>
      </trkpt>
      <trkpt lat="54.149711988866329" lon="-8.545231008902192">
        <ele>60.700000000000003</ele>
        <time>2026-07-04T13:31:02Z</time>
      </trkpt>
      <trkpt lat="54.149743001908064" lon="-8.545244000852108">
        <ele>60.219999999999999</ele>
        <time>2026-07-04T13:31:03Z</time>
      </trkpt>
      <trkpt lat="54.149807961657643" lon="-8.54526998475194">
        <ele>58.780000000000001</ele>
        <time>2026-07-04T13:31:12Z</time>
      </trkpt>
      <trkpt lat="54.149839980527759" lon="-8.545283982530236">
        <ele>58.780000000000001</ele>
        <time>2026-07-04T13:31:13Z</time>
      </trkpt>
      <trkpt lat="54.149889014661312" lon="-8.545304015278816">
        <ele>58.780000000000001</ele>
        <time>2026-07-04T13:31:14Z</time>
      </trkpt>
      <trkpt lat="54.149959003552794" lon="-8.545292029157281">
        <ele>59.259999999999998</ele>
        <time>2026-07-04T13:31:15Z</time>
      </trkpt>
      <trkpt lat="54.150020023807883" lon="-8.545193960890174">
        <ele>59.259999999999998</ele>
        <time>2026-07-04T13:31:16Z</time>
      </trkpt>
      <trkpt lat="54.150080038234591" lon="-8.54509798809886">
        <ele>59.259999999999998</ele>
        <time>2026-07-04T13:31:17Z</time>
      </trkpt>
      <trkpt lat="54.150172993540764" lon="-8.544949041679502">
        <ele>60.219999999999999</ele>
        <time>2026-07-04T13:31:19Z</time>
      </trkpt>
      <trkpt lat="54.150334009900689" lon="-8.544918028637767">
        <ele>60.219999999999999</ele>
        <time>2026-07-04T13:31:20Z</time>
      </trkpt>
      <trkpt lat="54.150391006842256" lon="-8.545003021135926">
        <ele>60.219999999999999</ele>
        <time>2026-07-04T13:31:21Z</time>
      </trkpt>
      <trkpt lat="54.150757966563106" lon="-8.545542983338237">
        <ele>58.299999999999997</ele>
        <time>2026-07-04T13:31:26Z</time>
      </trkpt>
      <trkpt lat="54.151466991752386" lon="-8.546617962419987">
        <ele>54.93</ele>
        <time>2026-07-04T13:31:33Z</time>
      </trkpt>
      <trkpt lat="54.151550978422165" lon="-8.546844022348523">
        <ele>54.93</ele>
        <time>2026-07-04T13:31:35Z</time>
      </trkpt>
      <trkpt lat="54.1515629645437" lon="-8.546949969604611">
        <ele>54.93</ele>
        <time>2026-07-04T13:31:36Z</time>
      </trkpt>
      <trkpt lat="54.151553995907307" lon="-8.547032028436661">
        <ele>54.450000000000003</ele>
        <time>2026-07-04T13:31:37Z</time>
      </trkpt>
      <trkpt lat="54.15151996538043" lon="-8.547141999006271">
        <ele>54.450000000000003</ele>
        <time>2026-07-04T13:31:38Z</time>
      </trkpt>
      <trkpt lat="54.151467997580767" lon="-8.547252975404263">
        <ele>54.450000000000003</ele>
        <time>2026-07-04T13:31:39Z</time>
      </trkpt>
      <trkpt lat="54.151405971497297" lon="-8.547382978722453">
        <ele>54.450000000000003</ele>
        <time>2026-07-04T13:31:40Z</time>
      </trkpt>
      <trkpt lat="54.151335982605815" lon="-8.547532008960843">
        <ele>54.450000000000003</ele>
        <time>2026-07-04T13:31:41Z</time>
      </trkpt>
      <trkpt lat="54.150918982923031" lon="-8.548659961670637">
        <ele>53.009999999999998</ele>
        <time>2026-07-04T13:31:47Z</time>
      </trkpt>
      <trkpt lat="54.15085100568831" lon="-8.548873029649258">
        <ele>53.009999999999998</ele>
        <time>2026-07-04T13:31:48Z</time>
      </trkpt>
      <trkpt lat="54.150799959897995" lon="-8.549122978001833">
        <ele>53.009999999999998</ele>
        <time>2026-07-04T13:31:49Z</time>
      </trkpt>
      <trkpt lat="54.150756960734725" lon="-8.549363035708666">
        <ele>52.530000000000001</ele>
        <time>2026-07-04T13:31:50Z</time>
      </trkpt>
      <trkpt lat="54.150713961571455" lon="-8.549600997939706">
        <ele>52.049999999999997</ele>
        <time>2026-07-04T13:31:51Z</time>
      </trkpt>
      <trkpt lat="54.150670962408185" lon="-8.549836026504636">
        <ele>51.57</ele>
        <time>2026-07-04T13:31:52Z</time>
      </trkpt>
      <trkpt lat="54.150602985173464" lon="-8.550322009250522">
        <ele>51.090000000000003</ele>
        <time>2026-07-04T13:31:54Z</time>
      </trkpt>
      <trkpt lat="54.150526961311698" lon="-8.551509976387024">
        <ele>50.130000000000003</ele>
        <time>2026-07-04T13:31:59Z</time>
      </trkpt>
      <trkpt lat="54.150535007938743" lon="-8.551724972203374">
        <ele>50.130000000000003</ele>
        <time>2026-07-04T13:32:00Z</time>
      </trkpt>
      <trkpt lat="54.150557974353433" lon="-8.55195396579802">
        <ele>50.130000000000003</ele>
        <time>2026-07-04T13:32:01Z</time>
      </trkpt>
      <trkpt lat="54.15059401653707" lon="-8.552160998806357">
        <ele>50.609999999999999</ele>
        <time>2026-07-04T13:32:02Z</time>
      </trkpt>
      <trkpt lat="54.150669034570456" lon="-8.552364008501172">
        <ele>50.130000000000003</ele>
        <time>2026-07-04T13:32:03Z</time>
      </trkpt>
      <trkpt lat="54.150748997926712" lon="-8.552551008760929">
        <ele>50.130000000000003</ele>
        <time>2026-07-04T13:32:04Z</time>
      </trkpt>
      <trkpt lat="54.150833990424871" lon="-8.55274697765708">
        <ele>49.649999999999999</ele>
        <time>2026-07-04T13:32:05Z</time>
      </trkpt>
      <trkpt lat="54.151010010391474" lon="-8.55315400287509">
        <ele>49.159999999999997</ele>
        <time>2026-07-04T13:32:07Z</time>
      </trkpt>
      <trkpt lat="54.151116963475943" lon="-8.553336979821324">
        <ele>48.68</ele>
        <time>2026-07-04T13:32:08Z</time>
      </trkpt>
      <trkpt lat="54.151418963447213" lon="-8.553850036114454">
        <ele>48.68</ele>
        <time>2026-07-04T13:32:11Z</time>
      </trkpt>
      <trkpt lat="54.151487024500966" lon="-8.554008034989238">
        <ele>48.68</ele>
        <time>2026-07-04T13:32:12Z</time>
      </trkpt>
      <trkpt lat="54.151547960937023" lon="-8.554169973358512">
        <ele>48.200000000000003</ele>
        <time>2026-07-04T13:32:13Z</time>
      </trkpt>
      <trkpt lat="54.151611998677254" lon="-8.554337024688721">
        <ele>47.719999999999999</ele>
        <time>2026-07-04T13:32:14Z</time>
      </trkpt>
      <trkpt lat="54.151628008112311" lon="-8.554502986371517">
        <ele>47.719999999999999</ele>
        <time>2026-07-04T13:32:15Z</time>
      </trkpt>
      <trkpt lat="54.151647035032511" lon="-8.554686969146133">
        <ele>47.719999999999999</ele>
        <time>2026-07-04T13:32:16Z</time>
      </trkpt>
      <trkpt lat="54.151642005890608" lon="-8.554869024083018">
        <ele>47.719999999999999</ele>
        <time>2026-07-04T13:32:17Z</time>
      </trkpt>
      <trkpt lat="54.15162499062717" lon="-8.555011013522744">
        <ele>47.719999999999999</ele>
        <time>2026-07-04T13:32:18Z</time>
      </trkpt>
      <trkpt lat="54.151591965928674" lon="-8.555283006280661">
        <ele>47.719999999999999</ele>
        <time>2026-07-04T13:32:20Z</time>
      </trkpt>
      <trkpt lat="54.151576040312648" lon="-8.555414015427232">
        <ele>48.68</ele>
        <time>2026-07-04T13:32:21Z</time>
      </trkpt>
      <trkpt lat="54.151619961485267" lon="-8.555589029565454">
        <ele>49.159999999999997</ele>
        <time>2026-07-04T13:32:22Z</time>
      </trkpt>
      <trkpt lat="54.151675030589104" lon="-8.555712997913361">
        <ele>49.649999999999999</ele>
        <time>2026-07-04T13:32:23Z</time>
      </trkpt>
      <trkpt lat="54.151740996167064" lon="-8.55586102232337">
        <ele>50.609999999999999</ele>
        <time>2026-07-04T13:32:24Z</time>
      </trkpt>
      <trkpt lat="54.152630986645818" lon="-8.557422989979386">
        <ele>60.219999999999999</ele>
        <time>2026-07-04T13:32:35Z</time>
      </trkpt>
      <trkpt lat="54.153714012354612" lon="-8.559324005618691">
        <ele>63.579999999999998</ele>
        <time>2026-07-04T13:32:47Z</time>
      </trkpt>
      <trkpt lat="54.15499703027308" lon="-8.561423001810908">
        <ele>62.140000000000001</ele>
        <time>2026-07-04T13:32:58Z</time>
      </trkpt>
      <trkpt lat="54.155568005517125" lon="-8.562355991452932">
        <ele>61.18</ele>
        <time>2026-07-04T13:33:05Z</time>
      </trkpt>
      <trkpt lat="54.155663978308439" lon="-8.562527988106012">
        <ele>60.700000000000003</ele>
        <time>2026-07-04T13:33:07Z</time>
      </trkpt>
      <trkpt lat="54.155689040198922" lon="-8.562577022239566">
        <ele>60.700000000000003</ele>
        <time>2026-07-04T13:33:08Z</time>
      </trkpt>
      <trkpt lat="54.155732039362192" lon="-8.562663020566106">
        <ele>60.219999999999999</ele>
        <time>2026-07-04T13:33:09Z</time>
      </trkpt>
      <trkpt lat="54.155746037140489" lon="-8.562628990039229">
        <ele>60.219999999999999</ele>
        <time>2026-07-04T13:33:10Z</time>
      </trkpt>
      <trkpt lat="54.155776966363192" lon="-8.562552966177464">
        <ele>59.740000000000002</ele>
        <time>2026-07-04T13:33:11Z</time>
      </trkpt>
      <trkpt lat="54.155818959698081" lon="-8.562451964244247">
        <ele>59.740000000000002</ele>
        <time>2026-07-04T13:33:12Z</time>
      </trkpt>
      <trkpt lat="54.155864976346493" lon="-8.562340987846255">
        <ele>59.259999999999998</ele>
        <time>2026-07-04T13:33:13Z</time>
      </trkpt>
      <trkpt lat="54.155915016308427" lon="-8.56222003698349">
        <ele>59.259999999999998</ele>
        <time>2026-07-04T13:33:14Z</time>
      </trkpt>
      <trkpt lat="54.155970001593232" lon="-8.562087016180158">
        <ele>59.259999999999998</ele>
        <time>2026-07-04T13:33:15Z</time>
      </trkpt>
      <trkpt lat="54.15613797493279" lon="-8.561679990962148">
        <ele>57.82</ele>
        <time>2026-07-04T13:33:19Z</time>
      </trkpt>
      <trkpt lat="54.156238976866007" lon="-8.561498019844294">
        <ele>55.890000000000001</ele>
        <time>2026-07-04T13:33:27Z</time>
      </trkpt>
      <trkpt lat="54.156238976866007" lon="-8.561498019844294">
        <ele>55.890000000000001</ele>
        <time>2026-07-04T13:34:15Z</time>
      </trkpt>
      <trkpt lat="54.156238976866007" lon="-8.561498019844294">
        <ele>55.409999999999997</ele>
        <time>2026-07-04T13:35:07Z</time>
      </trkpt>
      <trkpt lat="54.156238976866007" lon="-8.561498019844294">
        <ele>55.409999999999997</ele>
        <time>2026-07-04T13:35:58Z</time>
      </trkpt>
      <trkpt lat="54.156238976866007" lon="-8.561498019844294">
        <ele>55.890000000000001</ele>
        <time>2026-07-04T13:36:50Z</time>
      </trkpt>
      <trkpt lat="54.156238976866007" lon="-8.561498019844294">
        <ele>56.369999999999997</ele>
        <time>2026-07-04T13:37:43Z</time>
      </trkpt>
      <trkpt lat="54.156238976866007" lon="-8.561498019844294">
        <ele>56.859999999999999</ele>
        <time>2026-07-04T13:38:34Z</time>
      </trkpt>
      <trkpt lat="54.156238976866007" lon="-8.561498019844294">
        <ele>57.340000000000003</ele>
        <time>2026-07-04T13:39:22Z</time>
      </trkpt>
      <trkpt lat="54.156238976866007" lon="-8.561498019844294">
        <ele>57.82</ele>
        <time>2026-07-04T13:40:02Z</time>
      </trkpt>
      <trkpt lat="54.156256997957826" lon="-8.561464995145798">
        <ele>57.82</ele>
        <time>2026-07-04T13:40:34Z</time>
      </trkpt>
      <trkpt lat="54.156275019049644" lon="-8.561432976275682">
        <ele>57.82</ele>
        <time>2026-07-04T13:40:35Z</time>
      </trkpt>
      <trkpt lat="54.156298991292715" lon="-8.561388971284032">
        <ele>57.340000000000003</ele>
        <time>2026-07-04T13:40:36Z</time>
      </trkpt>
      <trkpt lat="54.156470987945795" lon="-8.560981024056673">
        <ele>57.340000000000003</ele>
        <time>2026-07-04T13:40:41Z</time>
      </trkpt>
      <trkpt lat="54.156511975452304" lon="-8.56086996383965">
        <ele>56.859999999999999</ele>
        <time>2026-07-04T13:40:42Z</time>
      </trkpt>
      <trkpt lat="54.156561009585857" lon="-8.56074096634984">
        <ele>56.859999999999999</ele>
        <time>2026-07-04T13:40:43Z</time>
      </trkpt>
      <trkpt lat="54.15661096572876" lon="-8.560607023537159">
        <ele>56.859999999999999</ele>
        <time>2026-07-04T13:40:44Z</time>
      </trkpt>
      <trkpt lat="54.156664023175836" lon="-8.560467967763543">
        <ele>56.859999999999999</ele>
        <time>2026-07-04T13:40:45Z</time>
      </trkpt>
      <trkpt lat="54.156822022050619" lon="-8.56004904024303">
        <ele>56.369999999999997</ele>
        <time>2026-07-04T13:40:48Z</time>
      </trkpt>
      <trkpt lat="54.156874995678663" lon="-8.55990101583302">
        <ele>56.369999999999997</ele>
        <time>2026-07-04T13:40:49Z</time>
      </trkpt>
      <trkpt lat="54.156927969306707" lon="-8.55975097976625">
        <ele>56.369999999999997</ele>
        <time>2026-07-04T13:40:50Z</time>
      </trkpt>
      <trkpt lat="54.156979015097022" lon="-8.559603961184621">
        <ele>56.369999999999997</ele>
        <time>2026-07-04T13:40:51Z</time>
      </trkpt>
      <trkpt lat="54.157030982896686" lon="-8.559458032250404">
        <ele>56.369999999999997</ele>
        <time>2026-07-04T13:40:52Z</time>
      </trkpt>
      <trkpt lat="54.157328959554434" lon="-8.558606011793017">
        <ele>57.340000000000003</ele>
        <time>2026-07-04T13:40:58Z</time>
      </trkpt>
      <trkpt lat="54.157374976202846" lon="-8.558472990989685">
        <ele>57.82</ele>
        <time>2026-07-04T13:40:59Z</time>
      </trkpt>
      <trkpt lat="54.157423004508018" lon="-8.558336030691862">
        <ele>58.780000000000001</ele>
        <time>2026-07-04T13:41:00Z</time>
      </trkpt>
      <trkpt lat="54.157471032813191" lon="-8.558198986575007">
        <ele>59.740000000000002</ele>
        <time>2026-07-04T13:41:01Z</time>
      </trkpt>
      <trkpt lat="54.157523000612855" lon="-8.558050040155649">
        <ele>60.700000000000003</ele>
        <time>2026-07-04T13:41:02Z</time>
      </trkpt>
      <trkpt lat="54.157766997814178" lon="-8.557291980832815">
        <ele>64.069999999999993</ele>
        <time>2026-07-04T13:41:07Z</time>
      </trkpt>
      <trkpt lat="54.158105039969087" lon="-8.556196969002485">
        <ele>65.030000000000001</ele>
        <time>2026-07-04T13:41:14Z</time>
      </trkpt>
      <trkpt lat="54.158152984455228" lon="-8.556042993441224">
        <ele>65.030000000000001</ele>
        <time>2026-07-04T13:41:15Z</time>
      </trkpt>
      <trkpt lat="54.158249963074923" lon="-8.555730013176799">
        <ele>65.510000000000005</ele>
        <time>2026-07-04T13:41:17Z</time>
      </trkpt>
      <trkpt lat="54.158605020493269" lon="-8.554642964154482">
        <ele>65.030000000000001</ele>
        <time>2026-07-04T13:41:24Z</time>
      </trkpt>
      <trkpt lat="54.158654976636171" lon="-8.554516984149814">
        <ele>64.069999999999993</ele>
        <time>2026-07-04T13:41:25Z</time>
      </trkpt>
      <trkpt lat="54.158704010769725" lon="-8.554395027458668">
        <ele>63.579999999999998</ele>
        <time>2026-07-04T13:41:26Z</time>
      </trkpt>
      <trkpt lat="54.158809036016464" lon="-8.55416301637888">
        <ele>62.140000000000001</ele>
        <time>2026-07-04T13:41:28Z</time>
      </trkpt>
      <trkpt lat="54.158936021849513" lon="-8.553972998633981">
        <ele>60.700000000000003</ele>
        <time>2026-07-04T13:41:30Z</time>
      </trkpt>
      <trkpt lat="54.159068958833814" lon="-8.553848024457693">
        <ele>59.259999999999998</ele>
        <time>2026-07-04T13:41:32Z</time>
      </trkpt>
      <trkpt lat="54.159315973520279" lon="-8.553634034469724">
        <ele>57.340000000000003</ele>
        <time>2026-07-04T13:41:35Z</time>
      </trkpt>
      <trkpt lat="54.159404989331961" lon="-8.553558010607958">
        <ele>56.859999999999999</ele>
        <time>2026-07-04T13:41:36Z</time>
      </trkpt>
      <trkpt lat="54.160486003383994" lon="-8.552620997652412">
        <ele>58.780000000000001</ele>
        <time>2026-07-04T13:41:47Z</time>
      </trkpt>
      <trkpt lat="54.161776984110475" lon="-8.551502013579011">
        <ele>58.299999999999997</ele>
        <time>2026-07-04T13:41:59Z</time>
      </trkpt>
      <trkpt lat="54.162005977705121" lon="-8.551304033026099">
        <ele>58.780000000000001</ele>
        <time>2026-07-04T13:42:01Z</time>
      </trkpt>
      <trkpt lat="54.162118965759873" lon="-8.551205964758992">
        <ele>59.259999999999998</ele>
        <time>2026-07-04T13:42:02Z</time>
      </trkpt>
      <trkpt lat="54.163122028112411" lon="-8.550316980108619">
        <ele>61.18</ele>
        <time>2026-07-04T13:42:11Z</time>
      </trkpt>
      <trkpt lat="54.163235016167164" lon="-8.550214972347021">
        <ele>61.18</ele>
        <time>2026-07-04T13:42:12Z</time>
      </trkpt>
      <trkpt lat="54.163346998393536" lon="-8.550111958757043">
        <ele>61.18</ele>
        <time>2026-07-04T13:42:13Z</time>
      </trkpt>
      <trkpt lat="54.16357297450304" lon="-8.549907021224499">
        <ele>61.659999999999997</ele>
        <time>2026-07-04T13:42:15Z</time>
      </trkpt>
      <trkpt lat="54.164039008319378" lon="-8.549483986571431">
        <ele>62.140000000000001</ele>
        <time>2026-07-04T13:42:19Z</time>
      </trkpt>
      <trkpt lat="54.164159037172794" lon="-8.549375021830201">
        <ele>62.140000000000001</ele>
        <time>2026-07-04T13:42:20Z</time>
      </trkpt>
      <trkpt lat="54.164277976378798" lon="-8.54926697909832">
        <ele>62.619999999999997</ele>
        <time>2026-07-04T13:42:21Z</time>
      </trkpt>
      <trkpt lat="54.164619036018848" lon="-8.548957016319037">
        <ele>65.989999999999995</ele>
        <time>2026-07-04T13:42:24Z</time>
      </trkpt>
      <trkpt lat="54.165348010137677" lon="-8.548295013606548">
        <ele>67.430000000000007</ele>
        <time>2026-07-04T13:42:31Z</time>
      </trkpt>
      <trkpt lat="54.166062986478209" lon="-8.547644997015595">
        <ele>65.510000000000005</ele>
        <time>2026-07-04T13:42:38Z</time>
      </trkpt>
      <trkpt lat="54.166161976754665" lon="-8.547554975375533">
        <ele>65.510000000000005</ele>
        <time>2026-07-04T13:42:39Z</time>
      </trkpt>
      <trkpt lat="54.166255015879869" lon="-8.547470988705754">
        <ele>65.510000000000005</ele>
        <time>2026-07-04T13:42:40Z</time>
      </trkpt>
      <trkpt lat="54.166347971186042" lon="-8.547387002035976">
        <ele>65.510000000000005</ele>
        <time>2026-07-04T13:42:41Z</time>
      </trkpt>
      <trkpt lat="54.166442016139627" lon="-8.547301003709436">
        <ele>65.510000000000005</ele>
        <time>2026-07-04T13:42:42Z</time>
      </trkpt>
      <trkpt lat="54.166621975600719" lon="-8.547137975692749">
        <ele>65.030000000000001</ele>
        <time>2026-07-04T13:42:44Z</time>
      </trkpt>
      <trkpt lat="54.166803024709225" lon="-8.546973019838333">
        <ele>65.030000000000001</ele>
        <time>2026-07-04T13:42:46Z</time>
      </trkpt>
      <trkpt lat="54.166897991672158" lon="-8.546887021511793">
        <ele>65.030000000000001</ele>
        <time>2026-07-04T13:42:47Z</time>
      </trkpt>
      <trkpt lat="54.167955033481121" lon="-8.545926958322525">
        <ele>63.100000000000001</ele>
        <time>2026-07-04T13:42:58Z</time>
      </trkpt>
      <trkpt lat="54.168043965473771" lon="-8.545845989137888">
        <ele>63.100000000000001</ele>
        <time>2026-07-04T13:42:59Z</time>
      </trkpt>
      <trkpt lat="54.168129041790962" lon="-8.545768959447742">
        <ele>63.100000000000001</ele>
        <time>2026-07-04T13:43:00Z</time>
      </trkpt>
      <trkpt lat="54.168210010975599" lon="-8.545695031061769">
        <ele>63.100000000000001</ele>
        <time>2026-07-04T13:43:01Z</time>
      </trkpt>
      <trkpt lat="54.168628016486764" lon="-8.545281970873475">
        <ele>65.510000000000005</ele>
        <time>2026-07-04T13:43:07Z</time>
      </trkpt>
      <trkpt lat="54.168628016486764" lon="-8.545281970873475">
        <ele>65.989999999999995</ele>
        <time>2026-07-04T13:43:08Z</time>
      </trkpt>
      <trkpt lat="54.168729018419981" lon="-8.545271996408701">
        <ele>66.469999999999999</ele>
        <time>2026-07-04T13:43:09Z</time>
      </trkpt>
      <trkpt lat="54.168776040896773" lon="-8.545266967266798">
        <ele>66.950000000000003</ele>
        <time>2026-07-04T13:43:10Z</time>
      </trkpt>
      <trkpt lat="54.168815016746521" lon="-8.545263027772307">
        <ele>67.909999999999997</ele>
        <time>2026-07-04T13:43:11Z</time>
      </trkpt>
      <trkpt lat="54.16883303783834" lon="-8.545262021943927">
        <ele>68.390000000000001</ele>
        <time>2026-07-04T13:43:12Z</time>
      </trkpt>
      <trkpt lat="54.168842006474733" lon="-8.545261016115546">
        <ele>68.870000000000005</ele>
        <time>2026-07-04T13:43:13Z</time>
      </trkpt>
      <trkpt lat="54.168842006474733" lon="-8.545261016115546">
        <ele>69.349999999999994</ele>
        <time>2026-07-04T13:43:14Z</time>
      </trkpt>
      <trkpt lat="54.16892297565937" lon="-8.545180968940258">
        <ele>70.310000000000002</ele>
        <time>2026-07-04T13:43:17Z</time>
      </trkpt>
      <trkpt lat="54.168940996751189" lon="-8.545164037495852">
        <ele>70.790000000000006</ele>
        <time>2026-07-04T13:43:18Z</time>
      </trkpt>
      <trkpt lat="54.16896203532815" lon="-8.545144004747272">
        <ele>71.269999999999996</ele>
        <time>2026-07-04T13:43:19Z</time>
      </trkpt>
      <trkpt lat="54.168980978429317" lon="-8.545125983655453">
        <ele>71.760000000000005</ele>
        <time>2026-07-04T13:43:20Z</time>
      </trkpt>
      <trkpt lat="54.168998999521136" lon="-8.545107040554285">
        <ele>71.760000000000005</ele>
        <time>2026-07-04T13:43:21Z</time>
      </trkpt>
      <trkpt lat="54.169019032269716" lon="-8.545088013634086">
        <ele>72.239999999999995</ele>
        <time>2026-07-04T13:43:22Z</time>
      </trkpt>
      <trkpt lat="54.169044010341167" lon="-8.545064041391015">
        <ele>72.239999999999995</ele>
        <time>2026-07-04T13:43:23Z</time>
      </trkpt>
      <trkpt lat="54.16907100006938" lon="-8.545036967843771">
        <ele>72.719999999999999</ele>
        <time>2026-07-04T13:43:24Z</time>
      </trkpt>
      <trkpt lat="54.169101007282734" lon="-8.545007966458798">
        <ele>72.719999999999999</ele>
        <time>2026-07-04T13:43:25Z</time>
      </trkpt>
      <trkpt lat="54.169129002839327" lon="-8.544980976730585">
        <ele>73.200000000000003</ele>
        <time>2026-07-04T13:43:26Z</time>
      </trkpt>
      <trkpt lat="54.169385991990566" lon="-8.544730022549629">
        <ele>73.680000000000007</ele>
        <time>2026-07-04T13:43:33Z</time>
      </trkpt>
      <trkpt lat="54.16943502612412" lon="-8.544681994244456">
        <ele>73.200000000000003</ele>
        <time>2026-07-04T13:43:34Z</time>
      </trkpt>
      <trkpt lat="54.169486993923783" lon="-8.544630026444793">
        <ele>72.719999999999999</ele>
        <time>2026-07-04T13:43:35Z</time>
      </trkpt>
      <trkpt lat="54.169537033885717" lon="-8.54458199813962">
        <ele>72.719999999999999</ele>
        <time>2026-07-04T13:43:36Z</time>
      </trkpt>
      <trkpt lat="54.169593024998903" lon="-8.544527012854815">
        <ele>72.239999999999995</ele>
        <time>2026-07-04T13:43:37Z</time>
      </trkpt>
      <trkpt lat="54.169655973091722" lon="-8.544465992599726">
        <ele>71.760000000000005</ele>
        <time>2026-07-04T13:43:38Z</time>
      </trkpt>
      <trkpt lat="54.169722022488713" lon="-8.544401032850146">
        <ele>71.269999999999996</ele>
        <time>2026-07-04T13:43:39Z</time>
      </trkpt>
      <trkpt lat="54.16977901943028" lon="-8.544345963746309">
        <ele>70.790000000000006</ele>
        <time>2026-07-04T13:43:40Z</time>
      </trkpt>
      <trkpt lat="54.17016601189971" lon="-8.543967017903924">
        <ele>65.989999999999995</ele>
        <time>2026-07-04T13:43:48Z</time>
      </trkpt>
      <trkpt lat="54.170205993577838" lon="-8.543927958235145">
        <ele>65.510000000000005</ele>
        <time>2026-07-04T13:43:49Z</time>
      </trkpt>
      <trkpt lat="54.170245975255966" lon="-8.543888982385397">
        <ele>65.510000000000005</ele>
        <time>2026-07-04T13:43:50Z</time>
      </trkpt>
      <trkpt lat="54.170297021046281" lon="-8.543839026242495">
        <ele>65.030000000000001</ele>
        <time>2026-07-04T13:43:51Z</time>
      </trkpt>
      <trkpt lat="54.170346977189183" lon="-8.543790997937322">
        <ele>64.549999999999997</ele>
        <time>2026-07-04T13:43:52Z</time>
      </trkpt>
      <trkpt lat="54.170398022979498" lon="-8.543741041794419">
        <ele>64.069999999999993</ele>
        <time>2026-07-04T13:43:53Z</time>
      </trkpt>
      <trkpt lat="54.17044697329402" lon="-8.543693013489246">
        <ele>64.069999999999993</ele>
        <time>2026-07-04T13:43:54Z</time>
      </trkpt>
      <trkpt lat="54.170491984114051" lon="-8.543648002669215">
        <ele>63.579999999999998</ele>
        <time>2026-07-04T13:43:55Z</time>
      </trkpt>
      <trkpt lat="54.170538000762463" lon="-8.543603997677565">
        <ele>63.100000000000001</ele>
        <time>2026-07-04T13:43:56Z</time>
      </trkpt>
      <trkpt lat="54.170577982440591" lon="-8.543565021827817">
        <ele>62.619999999999997</ele>
        <time>2026-07-04T13:43:57Z</time>
      </trkpt>
      <trkpt lat="54.170621987432241" lon="-8.543522022664547">
        <ele>62.140000000000001</ele>
        <time>2026-07-04T13:43:58Z</time>
      </trkpt>
      <trkpt lat="54.170671021565795" lon="-8.543473994359374">
        <ele>62.140000000000001</ele>
        <time>2026-07-04T13:43:59Z</time>
      </trkpt>
      <trkpt lat="54.170763976871967" lon="-8.543385984376073">
        <ele>61.659999999999997</ele>
        <time>2026-07-04T13:44:01Z</time>
      </trkpt>
      <trkpt lat="54.170850981026888" lon="-8.543309038504958">
        <ele>60.700000000000003</ele>
        <time>2026-07-04T13:44:03Z</time>
      </trkpt>
      <trkpt lat="54.170900015160441" lon="-8.543265033513308">
        <ele>60.219999999999999</ele>
        <time>2026-07-04T13:44:04Z</time>
      </trkpt>
      <trkpt lat="54.170950977131724" lon="-8.543219016864896">
        <ele>59.740000000000002</ele>
        <time>2026-07-04T13:44:05Z</time>
      </trkpt>
      <trkpt lat="54.170995987951756" lon="-8.543180041015148">
        <ele>59.259999999999998</ele>
        <time>2026-07-04T13:44:06Z</time>
      </trkpt>
      <trkpt lat="54.171039992943406" lon="-8.543140981346369">
        <ele>58.780000000000001</ele>
        <time>2026-07-04T13:44:07Z</time>
      </trkpt>
      <trkpt lat="54.171082992106676" lon="-8.543102005496621">
        <ele>58.780000000000001</ele>
        <time>2026-07-04T13:44:08Z</time>
      </trkpt>
      <trkpt lat="54.171245014294982" lon="-8.543084990233183">
        <ele>56.369999999999997</ele>
        <time>2026-07-04T13:44:14Z</time>
      </trkpt>
      <trkpt lat="54.171269992366433" lon="-8.543126983568072">
        <ele>55.890000000000001</ele>
        <time>2026-07-04T13:44:15Z</time>
      </trkpt>
      <trkpt lat="54.171299999579787" lon="-8.543177023530006">
        <ele>55.409999999999997</ele>
        <time>2026-07-04T13:44:16Z</time>
      </trkpt>
      <trkpt lat="54.171332018449903" lon="-8.543229997158051">
        <ele>54.93</ele>
        <time>2026-07-04T13:44:17Z</time>
      </trkpt>
      <trkpt lat="54.17136998847127" lon="-8.543293029069901">
        <ele>54.450000000000003</ele>
        <time>2026-07-04T13:44:18Z</time>
      </trkpt>
      <trkpt lat="54.171407036483288" lon="-8.543355977162719">
        <ele>53.969999999999999</ele>
        <time>2026-07-04T13:44:19Z</time>
      </trkpt>
      <trkpt lat="54.171483982354403" lon="-8.543482962995768">
        <ele>53.009999999999998</ele>
        <time>2026-07-04T13:44:21Z</time>
      </trkpt>
      <trkpt lat="54.171642987057567" lon="-8.543749004602432">
        <ele>52.049999999999997</ele>
        <time>2026-07-04T13:44:25Z</time>
      </trkpt>
      <trkpt lat="54.171681040897965" lon="-8.543812036514282">
        <ele>51.57</ele>
        <time>2026-07-04T13:44:26Z</time>
      </trkpt>
      <trkpt lat="54.171848008409142" lon="-8.544049998745322">
        <ele>50.609999999999999</ele>
        <time>2026-07-04T13:44:30Z</time>
      </trkpt>
      <trkpt lat="54.171888995915651" lon="-8.544080005958676">
        <ele>50.130000000000003</ele>
        <time>2026-07-04T13:44:31Z</time>
      </trkpt>
      <trkpt lat="54.171923026442528" lon="-8.544105989858508">
        <ele>49.649999999999999</ele>
        <time>2026-07-04T13:44:32Z</time>
      </trkpt>
      <trkpt lat="54.171974994242191" lon="-8.544144965708256">
        <ele>49.159999999999997</ele>
        <time>2026-07-04T13:44:33Z</time>
      </trkpt>
      <trkpt lat="54.172001983970404" lon="-8.544148989021778">
        <ele>49.159999999999997</ele>
        <time>2026-07-04T13:44:34Z</time>
      </trkpt>
      <trkpt lat="54.172039031982422" lon="-8.544156029820442">
        <ele>49.159999999999997</ele>
        <time>2026-07-04T13:44:35Z</time>
      </trkpt>
      <trkpt lat="54.172073984518647" lon="-8.544161980971694">
        <ele>48.68</ele>
        <time>2026-07-04T13:44:36Z</time>
      </trkpt>
      <trkpt lat="54.172112960368395" lon="-8.544169021770358">
        <ele>48.68</ele>
        <time>2026-07-04T13:44:37Z</time>
      </trkpt>
      <trkpt lat="54.172156965360045" lon="-8.544175978749991">
        <ele>48.200000000000003</ele>
        <time>2026-07-04T13:44:38Z</time>
      </trkpt>
      <trkpt lat="54.172196025028825" lon="-8.544183019548655">
        <ele>48.200000000000003</ele>
        <time>2026-07-04T13:44:39Z</time>
      </trkpt>
      <trkpt lat="54.172247992828488" lon="-8.544191988185048">
        <ele>48.200000000000003</ele>
        <time>2026-07-04T13:44:40Z</time>
      </trkpt>
      <trkpt lat="54.172413032501936" lon="-8.544220989570022">
        <ele>47.719999999999999</ele>
        <time>2026-07-04T13:44:42Z</time>
      </trkpt>
      <trkpt lat="54.172841012477875" lon="-8.544295001775026">
        <ele>49.159999999999997</ele>
        <time>2026-07-04T13:44:49Z</time>
      </trkpt>
      <trkpt lat="54.172894991934299" lon="-8.544304976239801">
        <ele>49.159999999999997</ele>
        <time>2026-07-04T13:44:50Z</time>
      </trkpt>
      <trkpt lat="54.17295902967453" lon="-8.544316040351987">
        <ele>49.159999999999997</ele>
        <time>2026-07-04T13:44:51Z</time>
      </trkpt>
      <trkpt lat="54.173037987202406" lon="-8.544330038130283">
        <ele>48.68</ele>
        <time>2026-07-04T13:44:52Z</time>
      </trkpt>
      <trkpt lat="54.173394972458482" lon="-8.544391980394721">
        <ele>48.200000000000003</ele>
        <time>2026-07-04T13:44:57Z</time>
      </trkpt>
      <trkpt lat="54.173582978546619" lon="-8.544381000101566">
        <ele>47.719999999999999</ele>
        <time>2026-07-04T13:45:01Z</time>
      </trkpt>
      <trkpt lat="54.173725973814726" lon="-8.544358033686876">
        <ele>47.240000000000002</ele>
        <time>2026-07-04T13:45:04Z</time>
      </trkpt>
      <trkpt lat="54.173763021826744" lon="-8.544351998716593">
        <ele>47.240000000000002</ele>
        <time>2026-07-04T13:45:05Z</time>
      </trkpt>
      <trkpt lat="54.17379898019135" lon="-8.544345963746309">
        <ele>47.240000000000002</ele>
        <time>2026-07-04T13:45:06Z</time>
      </trkpt>
      <trkpt lat="54.173838961869478" lon="-8.544339006766677">
        <ele>47.240000000000002</ele>
        <time>2026-07-04T13:45:07Z</time>
      </trkpt>
      <trkpt lat="54.173882966861129" lon="-8.544331965968013">
        <ele>47.240000000000002</ele>
        <time>2026-07-04T13:45:08Z</time>
      </trkpt>
      <trkpt lat="54.173922026529908" lon="-8.54432500898838">
        <ele>46.759999999999998</ele>
        <time>2026-07-04T13:45:09Z</time>
      </trkpt>
      <trkpt lat="54.173964019864798" lon="-8.544317968189716">
        <ele>46.759999999999998</ele>
        <time>2026-07-04T13:45:10Z</time>
      </trkpt>
      <trkpt lat="54.174014981836081" lon="-8.544310005381703">
        <ele>46.280000000000001</ele>
        <time>2026-07-04T13:45:11Z</time>
      </trkpt>
      <trkpt lat="54.174071978777647" lon="-8.54430103674531">
        <ele>46.280000000000001</ele>
        <time>2026-07-04T13:45:12Z</time>
      </trkpt>
      <trkpt lat="54.174141967669129" lon="-8.544288966804743">
        <ele>46.280000000000001</ele>
        <time>2026-07-04T13:45:13Z</time>
      </trkpt>
      <trkpt lat="54.174218997359276" lon="-8.544275974854827">
        <ele>45.799999999999997</ele>
        <time>2026-07-04T13:45:14Z</time>
      </trkpt>
      <trkpt lat="54.174286974593997" lon="-8.544264994561672">
        <ele>45.32</ele>
        <time>2026-07-04T13:45:15Z</time>
      </trkpt>
      <trkpt lat="54.174341959878802" lon="-8.544256025925279">
        <ele>45.32</ele>
        <time>2026-07-04T13:45:16Z</time>
      </trkpt>
      <trkpt lat="54.174397028982639" lon="-8.544246973469853">
        <ele>44.840000000000003</ele>
        <time>2026-07-04T13:45:17Z</time>
      </trkpt>
      <trkpt lat="54.174454025924206" lon="-8.54423800483346">
        <ele>44.359999999999999</ele>
        <time>2026-07-04T13:45:18Z</time>
      </trkpt>
      <trkpt lat="54.17450800538063" lon="-8.544229036197066">
        <ele>44.359999999999999</ele>
        <time>2026-07-04T13:45:19Z</time>
      </trkpt>
      <trkpt lat="54.174557039514184" lon="-8.544219983741641">
        <ele>43.880000000000003</ele>
        <time>2026-07-04T13:45:20Z</time>
      </trkpt>
      <trkpt lat="54.174647983163595" lon="-8.544204980134964">
        <ele>42.920000000000002</ele>
        <time>2026-07-04T13:45:22Z</time>
      </trkpt>
      <trkpt lat="54.174709003418684" lon="-8.54419500567019">
        <ele>42.439999999999998</ele>
        <time>2026-07-04T13:45:23Z</time>
      </trkpt>
      <trkpt lat="54.174776980653405" lon="-8.544184025377035">
        <ele>41.950000000000003</ele>
        <time>2026-07-04T13:45:24Z</time>
      </trkpt>
      <trkpt lat="54.174900026991963" lon="-8.544163992628455">
        <ele>41.469999999999999</ele>
        <time>2026-07-04T13:45:26Z</time>
      </trkpt>
      <trkpt lat="54.174946965649724" lon="-8.544156029820442">
        <ele>41.469999999999999</ele>
        <time>2026-07-04T13:45:27Z</time>
      </trkpt>
      <trkpt lat="54.175100019201636" lon="-8.544130967929959">
        <ele>40.990000000000002</ele>
        <time>2026-07-04T13:45:30Z</time>
      </trkpt>
      <trkpt lat="54.1751519870013" lon="-8.544121999293566">
        <ele>40.509999999999998</ele>
        <time>2026-07-04T13:45:31Z</time>
      </trkpt>
      <trkpt lat="54.175204038619995" lon="-8.544114036485553">
        <ele>40.509999999999998</ele>
        <time>2026-07-04T13:45:32Z</time>
      </trkpt>
      <trkpt lat="54.175256006419659" lon="-8.544104984030128">
        <ele>40.509999999999998</ele>
        <time>2026-07-04T13:45:33Z</time>
      </trkpt>
      <trkpt lat="54.175306968390942" lon="-8.544097021222115">
        <ele>40.509999999999998</ele>
        <time>2026-07-04T13:45:34Z</time>
      </trkpt>
      <trkpt lat="54.175362037494779" lon="-8.544087968766689">
        <ele>40.509999999999998</ele>
        <time>2026-07-04T13:45:35Z</time>
      </trkpt>
      <trkpt lat="54.175630006939173" lon="-8.54404304176569">
        <ele>40.509999999999998</ele>
        <time>2026-07-04T13:45:40Z</time>
      </trkpt>
      <trkpt lat="54.1756890155375" lon="-8.544033989310265">
        <ele>40.509999999999998</ele>
        <time>2026-07-04T13:45:41Z</time>
      </trkpt>
      <trkpt lat="54.175741989165545" lon="-8.544025020673871">
        <ele>40.990000000000002</ele>
        <time>2026-07-04T13:45:42Z</time>
      </trkpt>
      <trkpt lat="54.17579404078424" lon="-8.544015968218446">
        <ele>40.990000000000002</ele>
        <time>2026-07-04T13:45:43Z</time>
      </trkpt>
      <trkpt lat="54.175851037725806" lon="-8.543955031782389">
        <ele>40.990000000000002</ele>
        <time>2026-07-04T13:45:44Z</time>
      </trkpt>
      <trkpt lat="54.175890013575554" lon="-8.543913038447499">
        <ele>40.990000000000002</ele>
        <time>2026-07-04T13:45:45Z</time>
      </trkpt>
      <trkpt lat="54.175936030223966" lon="-8.543862998485565">
        <ele>41.469999999999999</ele>
        <time>2026-07-04T13:45:46Z</time>
      </trkpt>
      <trkpt lat="54.17609503492713" lon="-8.543691001832485">
        <ele>41.950000000000003</ele>
        <time>2026-07-04T13:45:49Z</time>
      </trkpt>
      <trkpt lat="54.176197964698076" lon="-8.543579019606113">
        <ele>42.439999999999998</ele>
        <time>2026-07-04T13:45:51Z</time>
      </trkpt>
      <trkpt lat="54.17624699883163" lon="-8.543526967987418">
        <ele>42.439999999999998</ele>
        <time>2026-07-04T13:45:52Z</time>
      </trkpt>
      <trkpt lat="54.17631296440959" lon="-8.543448010459542">
        <ele>42.439999999999998</ele>
        <time>2026-07-04T13:45:53Z</time>
      </trkpt>
      <trkpt lat="54.176340959966183" lon="-8.543350026011467">
        <ele>42.439999999999998</ele>
        <time>2026-07-04T13:45:54Z</time>
      </trkpt>
      <trkpt lat="54.176368033513427" lon="-8.543254975229502">
        <ele>42.920000000000002</ele>
        <time>2026-07-04T13:45:55Z</time>
      </trkpt>
      <trkpt lat="54.176398040726781" lon="-8.543146010488272">
        <ele>42.920000000000002</ele>
        <time>2026-07-04T13:45:56Z</time>
      </trkpt>
      <trkpt lat="54.176416983827949" lon="-8.543037967756391">
        <ele>43.399999999999999</ele>
        <time>2026-07-04T13:45:57Z</time>
      </trkpt>
      <trkpt lat="54.176436010748148" lon="-8.542925985530019">
        <ele>43.399999999999999</ele>
        <time>2026-07-04T13:45:58Z</time>
      </trkpt>
      <trkpt lat="54.176509017124772" lon="-8.542506974190474">
        <ele>44.359999999999999</ele>
        <time>2026-07-04T13:46:02Z</time>
      </trkpt>
      <trkpt lat="54.176542963832617" lon="-8.542315028607845">
        <ele>44.359999999999999</ele>
        <time>2026-07-04T13:46:04Z</time>
      </trkpt>
      <trkpt lat="54.176550004631281" lon="-8.5422189719975">
        <ele>44.840000000000003</ele>
        <time>2026-07-04T13:46:05Z</time>
      </trkpt>
      <trkpt lat="54.176554027944803" lon="-8.54213397949934">
        <ele>44.840000000000003</ele>
        <time>2026-07-04T13:46:06Z</time>
      </trkpt>
      <trkpt lat="54.176557967439294" lon="-8.542058039456606">
        <ele>44.359999999999999</ele>
        <time>2026-07-04T13:46:07Z</time>
      </trkpt>
      <trkpt lat="54.176562996581197" lon="-8.54196097701788">
        <ele>44.359999999999999</ele>
        <time>2026-07-04T13:46:08Z</time>
      </trkpt>
      <trkpt lat="54.1765680257231" lon="-8.541859975084662">
        <ele>44.359999999999999</ele>
        <time>2026-07-04T13:46:09Z</time>
      </trkpt>
      <trkpt lat="54.176573976874352" lon="-8.541756961494684">
        <ele>44.359999999999999</ele>
        <time>2026-07-04T13:46:10Z</time>
      </trkpt>
      <trkpt lat="54.176584035158157" lon="-8.541558980941773">
        <ele>44.359999999999999</ele>
        <time>2026-07-04T13:46:12Z</time>
      </trkpt>
      <trkpt lat="54.176589986309409" lon="-8.54144599288702">
        <ele>44.359999999999999</ele>
        <time>2026-07-04T13:46:13Z</time>
      </trkpt>
      <trkpt lat="54.176596021279693" lon="-8.541324958205223">
        <ele>44.359999999999999</ele>
        <time>2026-07-04T13:46:14Z</time>
      </trkpt>
      <trkpt lat="54.17659199796617" lon="-8.540238998830319">
        <ele>46.280000000000001</ele>
        <time>2026-07-04T13:46:21Z</time>
      </trkpt>
      <trkpt lat="54.176565008237958" lon="-8.539867009967566">
        <ele>46.759999999999998</ele>
        <time>2026-07-04T13:46:24Z</time>
      </trkpt>
      <trkpt lat="54.176529971882701" lon="-8.539546988904476">
        <ele>46.280000000000001</ele>
        <time>2026-07-04T13:46:27Z</time>
      </trkpt>
      <trkpt lat="54.176518991589546" lon="-8.539452021941543">
        <ele>45.799999999999997</ele>
        <time>2026-07-04T13:46:28Z</time>
      </trkpt>
      <trkpt lat="54.176509017124772" lon="-8.539357976987958">
        <ele>45.799999999999997</ele>
        <time>2026-07-04T13:46:29Z</time>
      </trkpt>
      <trkpt lat="54.176498958840966" lon="-8.539262004196644">
        <ele>45.32</ele>
        <time>2026-07-04T13:46:30Z</time>
      </trkpt>
      <trkpt lat="54.176481021568179" lon="-8.539101993665099">
        <ele>45.32</ele>
        <time>2026-07-04T13:46:31Z</time>
      </trkpt>
      <trkpt lat="54.176467023789883" lon="-8.539033010601997">
        <ele>44.840000000000003</ele>
        <time>2026-07-04T13:46:32Z</time>
      </trkpt>
      <trkpt lat="54.176444979384542" lon="-8.538921028375626">
        <ele>44.840000000000003</ele>
        <time>2026-07-04T13:46:33Z</time>
      </trkpt>
      <trkpt lat="54.176351018249989" lon="-8.53845801204443">
        <ele>45.32</ele>
        <time>2026-07-04T13:46:37Z</time>
      </trkpt>
      <trkpt lat="54.176326962187886" lon="-8.538341000676155">
        <ele>45.799999999999997</ele>
        <time>2026-07-04T13:46:38Z</time>
      </trkpt>
      <trkpt lat="54.176212968304753" lon="-8.537779999896884">
        <ele>46.280000000000001</ele>
        <time>2026-07-04T13:46:43Z</time>
      </trkpt>
      <trkpt lat="54.17618103325367" lon="-8.5376220010221">
        <ele>46.759999999999998</ele>
        <time>2026-07-04T13:46:44Z</time>
      </trkpt>
      <trkpt lat="54.176148008555174" lon="-8.537396024912596">
        <ele>46.759999999999998</ele>
        <time>2026-07-04T13:46:46Z</time>
      </trkpt>
      <trkpt lat="54.176053963601589" lon="-8.536741985008121">
        <ele>47.719999999999999</ele>
        <time>2026-07-04T13:46:52Z</time>
      </trkpt>
      <trkpt lat="54.176038959994912" lon="-8.536638971418142">
        <ele>47.719999999999999</ele>
        <time>2026-07-04T13:46:53Z</time>
      </trkpt>
      <trkpt lat="54.176024040207267" lon="-8.536535035818815">
        <ele>47.719999999999999</ele>
        <time>2026-07-04T13:46:54Z</time>
      </trkpt>
      <trkpt lat="54.175991015508771" lon="-8.536307970061898">
        <ele>47.719999999999999</ele>
        <time>2026-07-04T13:46:56Z</time>
      </trkpt>
      <trkpt lat="54.175975006073713" lon="-8.536195987835527">
        <ele>48.200000000000003</ele>
        <time>2026-07-04T13:46:57Z</time>
      </trkpt>
      <trkpt lat="54.175924966111779" lon="-8.535845959559083">
        <ele>47.719999999999999</ele>
        <time>2026-07-04T13:47:00Z</time>
      </trkpt>
      <trkpt lat="54.175909040495753" lon="-8.535738000646234">
        <ele>48.200000000000003</ele>
        <time>2026-07-04T13:47:01Z</time>
      </trkpt>
      <trkpt lat="54.175894958898425" lon="-8.535635992884636">
        <ele>48.200000000000003</ele>
        <time>2026-07-04T13:47:02Z</time>
      </trkpt>
      <trkpt lat="54.175881966948509" lon="-8.535551000386477">
        <ele>48.200000000000003</ele>
        <time>2026-07-04T13:47:03Z</time>
      </trkpt>
      <trkpt lat="54.175859000533819" lon="-8.535389984026551">
        <ele>48.68</ele>
        <time>2026-07-04T13:47:04Z</time>
      </trkpt>
      <trkpt lat="54.175880961120129" lon="-8.535324018448591">
        <ele>48.68</ele>
        <time>2026-07-04T13:47:05Z</time>
      </trkpt>
      <trkpt lat="54.175952039659023" lon="-8.535240031778812">
        <ele>48.68</ele>
        <time>2026-07-04T13:47:06Z</time>
      </trkpt>
      <trkpt lat="54.175985986366868" lon="-8.535225028172135">
        <ele>48.68</ele>
        <time>2026-07-04T13:47:07Z</time>
      </trkpt>
      <trkpt lat="54.17613903991878" lon="-8.535157972946763">
        <ele>49.159999999999997</ele>
        <time>2026-07-04T13:47:12Z</time>
      </trkpt>
      <trkpt lat="54.176164017990232" lon="-8.535146992653608">
        <ele>49.159999999999997</ele>
        <time>2026-07-04T13:47:13Z</time>
      </trkpt>
      <trkpt lat="54.176196958869696" lon="-8.535132994875312">
        <ele>49.649999999999999</ele>
        <time>2026-07-04T13:47:14Z</time>
      </trkpt>
      <trkpt lat="54.176236018538475" lon="-8.535115979611874">
        <ele>49.649999999999999</ele>
        <time>2026-07-04T13:47:15Z</time>
      </trkpt>
      <trkpt lat="54.176280023530126" lon="-8.535097036510706">
        <ele>49.649999999999999</ele>
        <time>2026-07-04T13:47:16Z</time>
      </trkpt>
      <trkpt lat="54.176326962187886" lon="-8.535075997933745">
        <ele>49.649999999999999</ele>
        <time>2026-07-04T13:47:17Z</time>
      </trkpt>
      <trkpt lat="54.176384964957833" lon="-8.535051019862294">
        <ele>49.159999999999997</ele>
        <time>2026-07-04T13:47:18Z</time>
      </trkpt>
      <trkpt lat="54.176446991041303" lon="-8.535024030134082">
        <ele>49.159999999999997</ele>
        <time>2026-07-04T13:47:19Z</time>
      </trkpt>
      <trkpt lat="54.176508011296391" lon="-8.53499704040587">
        <ele>48.68</ele>
        <time>2026-07-04T13:47:20Z</time>
      </trkpt>
      <trkpt lat="54.176572971045971" lon="-8.534968961030245">
        <ele>48.68</ele>
        <time>2026-07-04T13:47:21Z</time>
      </trkpt>
      <trkpt lat="54.176632985472679" lon="-8.534942977130413">
        <ele>48.68</ele>
        <time>2026-07-04T13:47:22Z</time>
      </trkpt>
      <trkpt lat="54.176688976585865" lon="-8.534919004887343">
        <ele>48.200000000000003</ele>
        <time>2026-07-04T13:47:23Z</time>
      </trkpt>
      <trkpt lat="54.176752008497715" lon="-8.53489201515913">
        <ele>47.719999999999999</ele>
        <time>2026-07-04T13:47:24Z</time>
      </trkpt>
      <trkpt lat="54.177454998716712" lon="-8.534585991874337">
        <ele>46.280000000000001</ele>
        <time>2026-07-04T13:47:35Z</time>
      </trkpt>
      <trkpt lat="54.177511995658278" lon="-8.534560007974505">
        <ele>46.280000000000001</ele>
        <time>2026-07-04T13:47:36Z</time>
      </trkpt>
      <trkpt lat="54.177563963457942" lon="-8.534537963569164">
        <ele>45.799999999999997</ele>
        <time>2026-07-04T13:47:37Z</time>
      </trkpt>
      <trkpt lat="54.177609980106354" lon="-8.534518014639616">
        <ele>45.799999999999997</ele>
        <time>2026-07-04T13:47:38Z</time>
      </trkpt>
      <trkpt lat="54.177651973441243" lon="-8.534499993547797">
        <ele>45.799999999999997</ele>
        <time>2026-07-04T13:47:39Z</time>
      </trkpt>
      <trkpt lat="54.177725985646248" lon="-8.534466968849301">
        <ele>45.32</ele>
        <time>2026-07-04T13:47:40Z</time>
      </trkpt>
      <trkpt lat="54.17773000895977" lon="-8.53446101769805">
        <ele>45.32</ele>
        <time>2026-07-04T13:47:41Z</time>
      </trkpt>
      <trkpt lat="54.177764961495996" lon="-8.534399997442961">
        <ele>44.840000000000003</ele>
        <time>2026-07-04T13:47:42Z</time>
      </trkpt>
      <trkpt lat="54.177811983972788" lon="-8.534317016601563">
        <ele>44.840000000000003</ele>
        <time>2026-07-04T13:47:43Z</time>
      </trkpt>
      <trkpt lat="54.177930001169443" lon="-8.534009987488389">
        <ele>43.880000000000003</ele>
        <time>2026-07-04T13:47:47Z</time>
      </trkpt>
      <trkpt lat="54.177960008382797" lon="-8.533933041617274">
        <ele>43.880000000000003</ele>
        <time>2026-07-04T13:47:48Z</time>
      </trkpt>
      <trkpt lat="54.178020022809505" lon="-8.533777976408601">
        <ele>43.399999999999999</ele>
        <time>2026-07-04T13:47:50Z</time>
      </trkpt>
      <trkpt lat="54.178080037236214" lon="-8.533622995018959">
        <ele>43.399999999999999</ele>
        <time>2026-07-04T13:47:52Z</time>
      </trkpt>
      <trkpt lat="54.178112978115678" lon="-8.5335380025208">
        <ele>43.880000000000003</ele>
        <time>2026-07-04T13:47:53Z</time>
      </trkpt>
      <trkpt lat="54.178149020299315" lon="-8.533444041386247">
        <ele>43.880000000000003</ele>
        <time>2026-07-04T13:47:54Z</time>
      </trkpt>
      <trkpt lat="54.178190007805824" lon="-8.533337004482746">
        <ele>44.359999999999999</ele>
        <time>2026-07-04T13:47:55Z</time>
      </trkpt>
      <trkpt lat="54.178235018625855" lon="-8.533218987286091">
        <ele>44.359999999999999</ele>
        <time>2026-07-04T13:47:56Z</time>
      </trkpt>
      <trkpt lat="54.178344989195466" lon="-8.532909024506807">
        <ele>44.840000000000003</ele>
        <time>2026-07-04T13:47:59Z</time>
      </trkpt>
      <trkpt lat="54.17837399058044" lon="-8.532824032008648">
        <ele>45.32</ele>
        <time>2026-07-04T13:48:00Z</time>
      </trkpt>
      <trkpt lat="54.178401986137033" lon="-8.532739039510489">
        <ele>45.799999999999997</ele>
        <time>2026-07-04T13:48:01Z</time>
      </trkpt>
      <trkpt lat="54.178434005007148" lon="-8.532644994556904">
        <ele>45.799999999999997</ele>
        <time>2026-07-04T13:48:02Z</time>
      </trkpt>
      <trkpt lat="54.178466023877263" lon="-8.532546004280448">
        <ele>46.280000000000001</ele>
        <time>2026-07-04T13:48:03Z</time>
      </trkpt>
      <trkpt lat="54.178500976413488" lon="-8.532440979033709">
        <ele>46.280000000000001</ele>
        <time>2026-07-04T13:48:04Z</time>
      </trkpt>
      <trkpt lat="54.178538024425507" lon="-8.532333020120859">
        <ele>46.759999999999998</ele>
        <time>2026-07-04T13:48:05Z</time>
      </trkpt>
      <trkpt lat="54.178574988618493" lon="-8.532221037894487">
        <ele>47.240000000000002</ele>
        <time>2026-07-04T13:48:06Z</time>
      </trkpt>
      <trkpt lat="54.178938008844852" lon="-8.530926033854485">
        <ele>46.759999999999998</ele>
        <time>2026-07-04T13:48:17Z</time>
      </trkpt>
      <trkpt lat="54.179048985242844" lon="-8.530482966452837">
        <ele>48.200000000000003</ele>
        <time>2026-07-04T13:48:21Z</time>
      </trkpt>
      <trkpt lat="54.17906197719276" lon="-8.530360003933311">
        <ele>48.68</ele>
        <time>2026-07-04T13:48:22Z</time>
      </trkpt>
      <trkpt lat="54.179070023819804" lon="-8.530237963423133">
        <ele>48.68</ele>
        <time>2026-07-04T13:48:23Z</time>
      </trkpt>
      <trkpt lat="54.179077986627817" lon="-8.530124975368381">
        <ele>49.159999999999997</ele>
        <time>2026-07-04T13:48:24Z</time>
      </trkpt>
      <trkpt lat="54.179085027426481" lon="-8.53001500479877">
        <ele>49.159999999999997</ele>
        <time>2026-07-04T13:48:25Z</time>
      </trkpt>
      <trkpt lat="54.179091984406114" lon="-8.529905034229159">
        <ele>49.649999999999999</ele>
        <time>2026-07-04T13:48:26Z</time>
      </trkpt>
      <trkpt lat="54.179099025204778" lon="-8.529791962355375">
        <ele>49.159999999999997</ele>
        <time>2026-07-04T13:48:27Z</time>
      </trkpt>
      <trkpt lat="54.179127020761371" lon="-8.529567997902632">
        <ele>48.68</ele>
        <time>2026-07-04T13:48:29Z</time>
      </trkpt>
      <trkpt lat="54.179141018539667" lon="-8.529463978484273">
        <ele>48.68</ele>
        <time>2026-07-04T13:48:30Z</time>
      </trkpt>
      <trkpt lat="54.179154010489583" lon="-8.529357025399804">
        <ele>48.200000000000003</ele>
        <time>2026-07-04T13:48:31Z</time>
      </trkpt>
      <trkpt lat="54.179168008267879" lon="-8.529250994324684">
        <ele>48.200000000000003</ele>
        <time>2026-07-04T13:48:32Z</time>
      </trkpt>
      <trkpt lat="54.179181000217795" lon="-8.529149992391467">
        <ele>47.719999999999999</ele>
        <time>2026-07-04T13:48:33Z</time>
      </trkpt>
      <trkpt lat="54.179193992167711" lon="-8.529046978801489">
        <ele>47.719999999999999</ele>
        <time>2026-07-04T13:48:34Z</time>
      </trkpt>
      <trkpt lat="54.179206984117627" lon="-8.528943965211511">
        <ele>47.240000000000002</ele>
        <time>2026-07-04T13:48:35Z</time>
      </trkpt>
      <trkpt lat="54.179247971624136" lon="-8.52861799299717">
        <ele>46.759999999999998</ele>
        <time>2026-07-04T13:48:38Z</time>
      </trkpt>
      <trkpt lat="54.179275967180729" lon="-8.528521014377475">
        <ele>46.759999999999998</ele>
        <time>2026-07-04T13:48:39Z</time>
      </trkpt>
      <trkpt lat="54.179305974394083" lon="-8.528422024101019">
        <ele>46.759999999999998</ele>
        <time>2026-07-04T13:48:40Z</time>
      </trkpt>
      <trkpt lat="54.179334975779057" lon="-8.528325967490673">
        <ele>46.759999999999998</ele>
        <time>2026-07-04T13:48:41Z</time>
      </trkpt>
      <trkpt lat="54.17936397716403" lon="-8.528225971385837">
        <ele>46.759999999999998</ele>
        <time>2026-07-04T13:48:42Z</time>
      </trkpt>
      <trkpt lat="54.179401025176048" lon="-8.528139973059297">
        <ele>47.240000000000002</ele>
        <time>2026-07-04T13:48:43Z</time>
      </trkpt>
      <trkpt lat="54.179448969662189" lon="-8.528054980561137">
        <ele>47.240000000000002</ele>
        <time>2026-07-04T13:48:44Z</time>
      </trkpt>
      <trkpt lat="54.179498003795743" lon="-8.527970993891358">
        <ele>47.719999999999999</ele>
        <time>2026-07-04T13:48:45Z</time>
      </trkpt>
      <trkpt lat="54.179550977423787" lon="-8.527877032756805">
        <ele>47.719999999999999</ele>
        <time>2026-07-04T13:48:46Z</time>
      </trkpt>
      <trkpt lat="54.179605962708592" lon="-8.52778198197484">
        <ele>48.200000000000003</ele>
        <time>2026-07-04T13:48:47Z</time>
      </trkpt>
      <trkpt lat="54.179656002670527" lon="-8.527693971991539">
        <ele>48.68</ele>
        <time>2026-07-04T13:48:48Z</time>
      </trkpt>
      <trkpt lat="54.179709982126951" lon="-8.527600010856986">
        <ele>49.159999999999997</ele>
        <time>2026-07-04T13:48:49Z</time>
      </trkpt>
      <trkpt lat="54.179762033745646" lon="-8.527508983388543">
        <ele>49.159999999999997</ele>
        <time>2026-07-04T13:48:50Z</time>
      </trkpt>
      <trkpt lat="54.179806038737297" lon="-8.527431031689048">
        <ele>49.159999999999997</ele>
        <time>2026-07-04T13:48:51Z</time>
      </trkpt>
      <trkpt lat="54.179841997101903" lon="-8.527367999777198">
        <ele>49.649999999999999</ele>
        <time>2026-07-04T13:48:52Z</time>
      </trkpt>
      <trkpt lat="54.179875021800399" lon="-8.527312008664012">
        <ele>49.649999999999999</ele>
        <time>2026-07-04T13:48:53Z</time>
      </trkpt>
      <trkpt lat="54.179952973499894" lon="-8.527174964547157">
        <ele>50.130000000000003</ele>
        <time>2026-07-04T13:48:55Z</time>
      </trkpt>
      <trkpt lat="54.180020028725266" lon="-8.52702702395618">
        <ele>51.090000000000003</ele>
        <time>2026-07-04T13:48:57Z</time>
      </trkpt>
      <trkpt lat="54.180052969604731" lon="-8.526943037286401">
        <ele>51.57</ele>
        <time>2026-07-04T13:48:58Z</time>
      </trkpt>
      <trkpt lat="54.180139973759651" lon="-8.526728041470051">
        <ele>53.009999999999998</ele>
        <time>2026-07-04T13:49:01Z</time>
      </trkpt>
      <trkpt lat="54.180151037871838" lon="-8.526699962094426">
        <ele>53.009999999999998</ele>
        <time>2026-07-04T13:49:02Z</time>
      </trkpt>
      <trkpt lat="54.180222032591701" lon="-8.52664103731513">
        <ele>53.490000000000002</ele>
        <time>2026-07-04T13:49:03Z</time>
      </trkpt>
      <trkpt lat="54.180257990956306" lon="-8.526611030101776">
        <ele>53.969999999999999</ele>
        <time>2026-07-04T13:49:04Z</time>
      </trkpt>
      <trkpt lat="54.180306019261479" lon="-8.526571970432997">
        <ele>54.450000000000003</ele>
        <time>2026-07-04T13:49:05Z</time>
      </trkpt>
      <trkpt lat="54.180342983454466" lon="-8.526541041210294">
        <ele>54.450000000000003</ele>
        <time>2026-07-04T13:49:06Z</time>
      </trkpt>
      <trkpt lat="54.180379025638103" lon="-8.52651203982532">
        <ele>54.93</ele>
        <time>2026-07-04T13:49:07Z</time>
      </trkpt>
      <trkpt lat="54.180435016751289" lon="-8.526466023176909">
        <ele>55.409999999999997</ele>
        <time>2026-07-04T13:49:08Z</time>
      </trkpt>
      <trkpt lat="54.180499976500869" lon="-8.526411959901452">
        <ele>55.890000000000001</ele>
        <time>2026-07-04T13:49:09Z</time>
      </trkpt>
      <trkpt lat="54.180564014241099" lon="-8.526314981281757">
        <ele>56.369999999999997</ele>
        <time>2026-07-04T13:49:10Z</time>
      </trkpt>
      <trkpt lat="54.180614976212382" lon="-8.526226971298456">
        <ele>56.369999999999997</ele>
        <time>2026-07-04T13:49:11Z</time>
      </trkpt>
      <trkpt lat="54.180657975375652" lon="-8.526153964921832">
        <ele>56.859999999999999</ele>
        <time>2026-07-04T13:49:12Z</time>
      </trkpt>
      <trkpt lat="54.180692005902529" lon="-8.526095040142536">
        <ele>57.340000000000003</ele>
        <time>2026-07-04T13:49:13Z</time>
      </trkpt>
      <trkpt lat="54.180722013115883" lon="-8.526042988523841">
        <ele>57.340000000000003</ele>
        <time>2026-07-04T13:49:14Z</time>
      </trkpt>
      <trkpt lat="54.180750008672476" lon="-8.525994038209319">
        <ele>57.340000000000003</ele>
        <time>2026-07-04T13:49:15Z</time>
      </trkpt>
      <trkpt lat="54.180816980078816" lon="-8.526025973260403">
        <ele>57.340000000000003</ele>
        <time>2026-07-04T13:49:16Z</time>
      </trkpt>
      <trkpt lat="54.180862996727228" lon="-8.526049023494124">
        <ele>57.340000000000003</ele>
        <time>2026-07-04T13:49:17Z</time>
      </trkpt>
      <trkpt lat="54.180913958698511" lon="-8.526076013222337">
        <ele>57.82</ele>
        <time>2026-07-04T13:49:18Z</time>
      </trkpt>
      <trkpt lat="54.181037005037069" lon="-8.526138961315155">
        <ele>58.780000000000001</ele>
        <time>2026-07-04T13:49:20Z</time>
      </trkpt>
      <trkpt lat="54.181112023070455" lon="-8.526178020983934">
        <ele>58.299999999999997</ele>
        <time>2026-07-04T13:49:21Z</time>
      </trkpt>
      <trkpt lat="54.181455010548234" lon="-8.526328979060054">
        <ele>57.82</ele>
        <time>2026-07-04T13:49:25Z</time>
      </trkpt>
      <trkpt lat="54.181541008874774" lon="-8.526354962959886">
        <ele>57.340000000000003</ele>
        <time>2026-07-04T13:49:26Z</time>
      </trkpt>
      <trkpt lat="54.182558991014957" lon="-8.52612697519362">
        <ele>54.93</ele>
        <time>2026-07-04T13:49:36Z</time>
      </trkpt>
      <trkpt lat="54.183679986745119" lon="-8.525848025456071">
        <ele>56.369999999999997</ele>
        <time>2026-07-04T13:49:47Z</time>
      </trkpt>
      <trkpt lat="54.183997996151447" lon="-8.525716010481119">
        <ele>53.969999999999999</ele>
        <time>2026-07-04T13:49:54Z</time>
      </trkpt>
      <trkpt lat="54.183997996151447" lon="-8.525716010481119">
        <ele>53.969999999999999</ele>
        <time>2026-07-04T13:49:59Z</time>
      </trkpt>
      <trkpt lat="54.184055998921394" lon="-8.525691032409668">
        <ele>53.969999999999999</ele>
        <time>2026-07-04T13:50:00Z</time>
      </trkpt>
      <trkpt lat="54.184065973386168" lon="-8.525633029639721">
        <ele>53.969999999999999</ele>
        <time>2026-07-04T13:50:01Z</time>
      </trkpt>
      <trkpt lat="54.184086006134748" lon="-8.525517024099827">
        <ele>53.969999999999999</ele>
        <time>2026-07-04T13:50:02Z</time>
      </trkpt>
      <trkpt lat="54.1841109842062" lon="-8.525376040488482">
        <ele>53.969999999999999</ele>
        <time>2026-07-04T13:50:03Z</time>
      </trkpt>
      <trkpt lat="54.184376019984484" lon="-8.523862017318606">
        <ele>53.009999999999998</ele>
        <time>2026-07-04T13:50:10Z</time>
      </trkpt>
      <trkpt lat="54.184778016060591" lon="-8.521096995100379">
        <ele>48.68</ele>
        <time>2026-07-04T13:50:19Z</time>
      </trkpt>
      <trkpt lat="54.185113962739706" lon="-8.518449990078807">
        <ele>44.840000000000003</ele>
        <time>2026-07-04T13:50:28Z</time>
      </trkpt>
      <trkpt lat="54.185169031843543" lon="-8.516756007447839">
        <ele>45.32</ele>
        <time>2026-07-04T13:50:35Z</time>
      </trkpt>
      <trkpt lat="54.185188980773091" lon="-8.516124011948705">
        <ele>44.840000000000003</ele>
        <time>2026-07-04T13:50:39Z</time>
      </trkpt>
      <trkpt lat="54.185160985216498" lon="-8.515962995588779">
        <ele>44.359999999999999</ele>
        <time>2026-07-04T13:50:40Z</time>
      </trkpt>
      <trkpt lat="54.185102982446551" lon="-8.515909016132355">
        <ele>43.880000000000003</ele>
        <time>2026-07-04T13:50:41Z</time>
      </trkpt>
      <trkpt lat="54.185041040182114" lon="-8.515853025019169">
        <ele>43.399999999999999</ele>
        <time>2026-07-04T13:50:42Z</time>
      </trkpt>
      <trkpt lat="54.184985971078277" lon="-8.515801979228854">
        <ele>43.880000000000003</ele>
        <time>2026-07-04T13:50:43Z</time>
      </trkpt>
      <trkpt lat="54.184930985793471" lon="-8.515726961195469">
        <ele>43.880000000000003</ele>
        <time>2026-07-04T13:50:44Z</time>
      </trkpt>
      <trkpt lat="54.1849260404706" lon="-8.515585977584124">
        <ele>43.880000000000003</ele>
        <time>2026-07-04T13:50:45Z</time>
      </trkpt>
      <trkpt lat="54.184953030198812" lon="-8.515484975650907">
        <ele>43.880000000000003</ele>
        <time>2026-07-04T13:50:46Z</time>
      </trkpt>
      <trkpt lat="54.184986976906657" lon="-8.515364024788141">
        <ele>43.880000000000003</ele>
        <time>2026-07-04T13:50:47Z</time>
      </trkpt>
      <trkpt lat="54.185231979936361" lon="-8.514024009928107">
        <ele>43.880000000000003</ele>
        <time>2026-07-04T13:50:54Z</time>
      </trkpt>
      <trkpt lat="54.185361983254552" lon="-8.51198703981936">
        <ele>41.950000000000003</ele>
        <time>2026-07-04T13:51:02Z</time>
      </trkpt>
      <trkpt lat="54.185434989631176" lon="-8.510537976399064">
        <ele>39.549999999999997</ele>
        <time>2026-07-04T13:51:08Z</time>
      </trkpt>
      <trkpt lat="54.185475977137685" lon="-8.51007797755301">
        <ele>38.590000000000003</ele>
        <time>2026-07-04T13:51:10Z</time>
      </trkpt>
      <trkpt lat="54.185947962105274" lon="-8.507423009723425">
        <ele>34.740000000000002</ele>
        <time>2026-07-04T13:51:21Z</time>
      </trkpt>
      <trkpt lat="54.186637038365006" lon="-8.504009982571006">
        <ele>35.229999999999997</ele>
        <time>2026-07-04T13:51:35Z</time>
      </trkpt>
      <trkpt lat="54.187111034989357" lon="-8.501529023051262">
        <ele>32.82</ele>
        <time>2026-07-04T13:51:46Z</time>
      </trkpt>
      <trkpt lat="54.18746299110353" lon="-8.4995929710567">
        <ele>30.899999999999999</ele>
        <time>2026-07-04T13:51:55Z</time>
      </trkpt>
      <trkpt lat="54.187958026304841" lon="-8.496759971603751">
        <ele>28.98</ele>
        <time>2026-07-04T13:52:08Z</time>
      </trkpt>
      <trkpt lat="54.1883659735322" lon="-8.494341038167477">
        <ele>28.02</ele>
        <time>2026-07-04T13:52:20Z</time>
      </trkpt>
      <trkpt lat="54.188402015715837" lon="-8.494170969352126">
        <ele>28.02</ele>
        <time>2026-07-04T13:52:21Z</time>
      </trkpt>
      <trkpt lat="54.188585998490453" lon="-8.493323978036642">
        <ele>26.57</ele>
        <time>2026-07-04T13:52:27Z</time>
      </trkpt>
      <trkpt lat="54.18866403400898" lon="-8.492975039407611">
        <ele>26.09</ele>
        <time>2026-07-04T13:52:30Z</time>
      </trkpt>
      <trkpt lat="54.188685994595289" lon="-8.492878982797265">
        <ele>26.09</ele>
        <time>2026-07-04T13:52:31Z</time>
      </trkpt>
      <trkpt lat="54.188719019293785" lon="-8.492730036377907">
        <ele>25.609999999999999</ele>
        <time>2026-07-04T13:52:34Z</time>
      </trkpt>
      <trkpt lat="54.188721030950546" lon="-8.492724001407623">
        <ele>25.609999999999999</ele>
        <time>2026-07-04T13:52:35Z</time>
      </trkpt>
      <trkpt lat="54.188802000135183" lon="-8.492495007812977">
        <ele>25.609999999999999</ele>
        <time>2026-07-04T13:52:37Z</time>
      </trkpt>
      <trkpt lat="54.188735028728843" lon="-8.492658035829663">
        <ele>25.609999999999999</ele>
        <time>2026-07-04T13:52:38Z</time>
      </trkpt>
      <trkpt lat="54.188743997365236" lon="-8.492620987817645">
        <ele>25.129999999999999</ele>
        <time>2026-07-04T13:52:39Z</time>
      </trkpt>
      <trkpt lat="54.188749026507139" lon="-8.492596009746194">
        <ele>25.129999999999999</ele>
        <time>2026-07-04T13:52:49Z</time>
      </trkpt>
      <trkpt lat="54.188810968771577" lon="-8.492500958964229">
        <ele>25.129999999999999</ele>
        <time>2026-07-04T13:52:53Z</time>
      </trkpt>
      <trkpt lat="54.188850028440356" lon="-8.492531972005963">
        <ele>25.129999999999999</ele>
        <time>2026-07-04T13:52:54Z</time>
      </trkpt>
      <trkpt lat="54.188912976533175" lon="-8.492581006139517">
        <ele>25.129999999999999</ele>
        <time>2026-07-04T13:52:55Z</time>
      </trkpt>
      <trkpt lat="54.189571039751172" lon="-8.493096996098757">
        <ele>26.57</ele>
        <time>2026-07-04T13:53:01Z</time>
      </trkpt>
      <trkpt lat="54.190839976072311" lon="-8.493577027693391">
        <ele>27.530000000000001</ele>
        <time>2026-07-04T13:53:08Z</time>
      </trkpt>
      <trkpt lat="54.192215027287602" lon="-8.493754975497723">
        <ele>27.530000000000001</ele>
        <time>2026-07-04T13:53:16Z</time>
      </trkpt>
      <trkpt lat="54.19371597468853" lon="-8.493904005736113">
        <ele>26.57</ele>
        <time>2026-07-04T13:53:27Z</time>
      </trkpt>
      <trkpt lat="54.19436096213758" lon="-8.493979023769498">
        <ele>27.050000000000001</ele>
        <time>2026-07-04T13:53:32Z</time>
      </trkpt>
      <trkpt lat="54.194475961849093" lon="-8.494026968255639">
        <ele>27.050000000000001</ele>
        <time>2026-07-04T13:53:33Z</time>
      </trkpt>
      <trkpt lat="54.194613005965948" lon="-8.494083965197206">
        <ele>27.050000000000001</ele>
        <time>2026-07-04T13:53:34Z</time>
      </trkpt>
      <trkpt lat="54.194675032049417" lon="-8.494169963523746">
        <ele>27.050000000000001</ele>
        <time>2026-07-04T13:53:35Z</time>
      </trkpt>
      <trkpt lat="54.194739991798997" lon="-8.49435000680387">
        <ele>27.050000000000001</ele>
        <time>2026-07-04T13:53:36Z</time>
      </trkpt>
      <trkpt lat="54.19478902593255" lon="-8.494504988193512">
        <ele>27.050000000000001</ele>
        <time>2026-07-04T13:53:37Z</time>
      </trkpt>
      <trkpt lat="54.194849040359259" lon="-8.494685031473637">
        <ele>26.57</ele>
        <time>2026-07-04T13:53:38Z</time>
      </trkpt>
      <trkpt lat="54.194919029250741" lon="-8.494854010641575">
        <ele>26.57</ele>
        <time>2026-07-04T13:53:39Z</time>
      </trkpt>
      <trkpt lat="54.194991029798985" lon="-8.494969010353088">
        <ele>26.57</ele>
        <time>2026-07-04T13:53:40Z</time>
      </trkpt>
      <trkpt lat="54.195110974833369" lon="-8.495061965659261">
        <ele>26.57</ele>
        <time>2026-07-04T13:53:41Z</time>
      </trkpt>
      <trkpt lat="54.19524198397994" lon="-8.49508099257946">
        <ele>26.09</ele>
        <time>2026-07-04T13:53:42Z</time>
      </trkpt>
      <trkpt lat="54.195397971197963" lon="-8.495061965659261">
        <ele>26.09</ele>
        <time>2026-07-04T13:53:43Z</time>
      </trkpt>
      <trkpt lat="54.195559993386269" lon="-8.495041010901332">
        <ele>26.09</ele>
        <time>2026-07-04T13:53:44Z</time>
      </trkpt>
      <trkpt lat="54.196008006110787" lon="-8.494985019788146">
        <ele>26.09</ele>
        <time>2026-07-04T13:53:47Z</time>
      </trkpt>
      <trkpt lat="54.196153013035655" lon="-8.495030030608177">
        <ele>26.09</ele>
        <time>2026-07-04T13:53:48Z</time>
      </trkpt>
      <trkpt lat="54.196306988596916" lon="-8.495078980922699">
        <ele>26.09</ele>
        <time>2026-07-04T13:53:49Z</time>
      </trkpt>
      <trkpt lat="54.196459036320448" lon="-8.495199009776115">
        <ele>25.609999999999999</ele>
        <time>2026-07-04T13:53:50Z</time>
      </trkpt>
      <trkpt lat="54.196605971083045" lon="-8.495344016700983">
        <ele>26.09</ele>
        <time>2026-07-04T13:53:51Z</time>
      </trkpt>
      <trkpt lat="54.196752989664674" lon="-8.49548801779747">
        <ele>26.09</ele>
        <time>2026-07-04T13:53:52Z</time>
      </trkpt>
      <trkpt lat="54.198000971227884" lon="-8.496720995754004">
        <ele>27.050000000000001</ele>
        <time>2026-07-04T13:54:01Z</time>
      </trkpt>
      <trkpt lat="54.199784975498915" lon="-8.498493013903499">
        <ele>25.609999999999999</ele>
        <time>2026-07-04T13:54:14Z</time>
      </trkpt>
      <trkpt lat="54.200702039524913" lon="-8.499389039352536">
        <ele>26.09</ele>
        <time>2026-07-04T13:54:22Z</time>
      </trkpt>
      <trkpt lat="54.202317986637354" lon="-8.500957963988185">
        <ele>26.09</ele>
        <time>2026-07-04T13:54:35Z</time>
      </trkpt>
      <trkpt lat="54.204253032803535" lon="-8.502812040969729">
        <ele>27.530000000000001</ele>
        <time>2026-07-04T13:54:48Z</time>
      </trkpt>
      <trkpt lat="54.205621965229511" lon="-8.504148032516241">
        <ele>27.530000000000001</ele>
        <time>2026-07-04T13:54:58Z</time>
      </trkpt>
      <trkpt lat="54.206659980118275" lon="-8.505388973280788">
        <ele>26.57</ele>
        <time>2026-07-04T13:55:08Z</time>
      </trkpt>
      <trkpt lat="54.207710986956954" lon="-8.507163003087044">
        <ele>28.02</ele>
        <time>2026-07-04T13:55:20Z</time>
      </trkpt>
      <trkpt lat="54.208848997950554" lon="-8.509121015667915">
        <ele>25.609999999999999</ele>
        <time>2026-07-04T13:55:33Z</time>
      </trkpt>
      <trkpt lat="54.209112022072077" lon="-8.509585037827492">
        <ele>25.129999999999999</ele>
        <time>2026-07-04T13:55:39Z</time>
      </trkpt>
      <trkpt lat="54.20916398987174" lon="-8.509675981476903">
        <ele>24.649999999999999</ele>
        <time>2026-07-04T13:55:41Z</time>
      </trkpt>
      <trkpt lat="54.209198020398617" lon="-8.509735995903611">
        <ele>24.649999999999999</ele>
        <time>2026-07-04T13:55:42Z</time>
      </trkpt>
      <trkpt lat="54.209289969876409" lon="-8.509747982025147">
        <ele>24.649999999999999</ele>
        <time>2026-07-04T13:55:43Z</time>
      </trkpt>
      <trkpt lat="54.209307990968227" lon="-8.509723003953695">
        <ele>24.170000000000002</ele>
        <time>2026-07-04T13:55:44Z</time>
      </trkpt>
      <trkpt lat="54.209364987909794" lon="-8.509643962606788">
        <ele>24.170000000000002</ele>
        <time>2026-07-04T13:55:45Z</time>
      </trkpt>
      <trkpt lat="54.209425002336502" lon="-8.509551007300615">
        <ele>24.170000000000002</ele>
        <time>2026-07-04T13:55:46Z</time>
      </trkpt>
      <trkpt lat="54.209481999278069" lon="-8.509456040337682">
        <ele>24.170000000000002</ele>
        <time>2026-07-04T13:55:47Z</time>
      </trkpt>
      <trkpt lat="54.209968987852335" lon="-8.508732011541724">
        <ele>23.210000000000001</ele>
        <time>2026-07-04T13:55:56Z</time>
      </trkpt>
      <trkpt lat="54.210067978128791" lon="-8.508628997951746">
        <ele>22.73</ele>
        <time>2026-07-04T13:56:05Z</time>
      </trkpt>
      <trkpt lat="54.210179960355163" lon="-8.508525984361768">
        <ele>23.210000000000001</ele>
        <time>2026-07-04T13:56:13Z</time>
      </trkpt>
      <trkpt lat="54.210415994748473" lon="-8.508310988545418">
        <ele>24.649999999999999</ele>
        <time>2026-07-04T13:56:20Z</time>
      </trkpt>
      <trkpt lat="54.21042999252677" lon="-8.508297996595502">
        <ele>24.649999999999999</ele>
        <time>2026-07-04T13:56:21Z</time>
      </trkpt>
      <trkpt lat="54.210471985861659" lon="-8.508259020745754">
        <ele>25.129999999999999</ele>
        <time>2026-07-04T13:56:26Z</time>
      </trkpt>
      <trkpt lat="54.21049595810473" lon="-8.508236976340413">
        <ele>25.609999999999999</ele>
        <time>2026-07-04T13:56:27Z</time>
      </trkpt>
      <trkpt lat="54.210527976974845" lon="-8.50820797495544">
        <ele>25.609999999999999</ele>
        <time>2026-07-04T13:56:28Z</time>
      </trkpt>
      <trkpt lat="54.210906000807881" lon="-8.507860964164138">
        <ele>26.09</ele>
        <time>2026-07-04T13:56:38Z</time>
      </trkpt>
      <trkpt lat="54.211071040481329" lon="-8.507710006088018">
        <ele>25.609999999999999</ele>
        <time>2026-07-04T13:56:43Z</time>
      </trkpt>
      <trkpt lat="54.211157038807869" lon="-8.507753005251288">
        <ele>25.129999999999999</ele>
        <time>2026-07-04T13:56:44Z</time>
      </trkpt>
      <trkpt lat="54.211200037971139" lon="-8.507515965029597">
        <ele>25.129999999999999</ele>
        <time>2026-07-04T13:56:45Z</time>
      </trkpt>
      <trkpt lat="54.211230967193842" lon="-8.507471038028598">
        <ele>25.129999999999999</ele>
        <time>2026-07-04T13:56:46Z</time>
      </trkpt>
      <trkpt lat="54.211291987448931" lon="-8.507379004731774">
        <ele>26.09</ele>
        <time>2026-07-04T13:56:47Z</time>
      </trkpt>
      <trkpt lat="54.211484016850591" lon="-8.5070910025388">
        <ele>28.5</ele>
        <time>2026-07-04T13:56:50Z</time>
      </trkpt>
      <trkpt lat="54.211536990478635" lon="-8.506974996998906">
        <ele>29.460000000000001</ele>
        <time>2026-07-04T13:56:51Z</time>
      </trkpt>
      <trkpt lat="54.211577977985144" lon="-8.506867038086057">
        <ele>29.940000000000001</ele>
        <time>2026-07-04T13:56:52Z</time>
      </trkpt>
      <trkpt lat="54.211615025997162" lon="-8.506738040596247">
        <ele>30.899999999999999</ele>
        <time>2026-07-04T13:56:53Z</time>
      </trkpt>
      <trkpt lat="54.211650984361768" lon="-8.506609965115786">
        <ele>31.379999999999999</ele>
        <time>2026-07-04T13:56:54Z</time>
      </trkpt>
      <trkpt lat="54.211986009031534" lon="-8.505544038489461">
        <ele>32.340000000000003</ele>
        <time>2026-07-04T13:57:02Z</time>
      </trkpt>
      <trkpt lat="54.21210503205657" lon="-8.505170037969947">
        <ele>31.379999999999999</ele>
        <time>2026-07-04T13:57:07Z</time>
      </trkpt>
      <trkpt lat="54.212122969329357" lon="-8.50511304102838">
        <ele>31.379999999999999</ele>
        <time>2026-07-04T13:57:08Z</time>
      </trkpt>
      <trkpt lat="54.21214803121984" lon="-8.505127960816026">
        <ele>30.899999999999999</ele>
        <time>2026-07-04T13:57:09Z</time>
      </trkpt>
      <trkpt lat="54.212174015119672" lon="-8.505142964422703">
        <ele>30.899999999999999</ele>
        <time>2026-07-04T13:57:10Z</time>
      </trkpt>
      <trkpt lat="54.2122139967978" lon="-8.505166014656425">
        <ele>30.899999999999999</ele>
        <time>2026-07-04T13:57:11Z</time>
      </trkpt>
      <trkpt lat="54.212262025102973" lon="-8.505194010213018">
        <ele>30.420000000000002</ele>
        <time>2026-07-04T13:57:12Z</time>
      </trkpt>
      <trkpt lat="54.212301000952721" lon="-8.505215970799327">
        <ele>30.420000000000002</ele>
        <time>2026-07-04T13:57:13Z</time>
      </trkpt>
      <trkpt lat="54.212338970974088" lon="-8.505239021033049">
        <ele>30.420000000000002</ele>
        <time>2026-07-04T13:57:14Z</time>
      </trkpt>
      <trkpt lat="54.212378030642867" lon="-8.505260981619358">
        <ele>30.899999999999999</ele>
        <time>2026-07-04T13:57:15Z</time>
      </trkpt>
      <trkpt lat="54.212410971522331" lon="-8.505280008539558">
        <ele>30.899999999999999</ele>
        <time>2026-07-04T13:57:16Z</time>
      </trkpt>
      <trkpt lat="54.212488001212478" lon="-8.505324013531208">
        <ele>30.420000000000002</ele>
        <time>2026-07-04T13:57:20Z</time>
      </trkpt>
      <trkpt lat="54.212480960413814" lon="-8.505320996046066">
        <ele>28.5</ele>
        <time>2026-07-04T13:57:28Z</time>
      </trkpt>
      <trkpt lat="54.212466962635517" lon="-8.505312027409673">
        <ele>28.5</ele>
        <time>2026-07-04T13:57:29Z</time>
      </trkpt>
      <trkpt lat="54.212447013705969" lon="-8.505300963297486">
        <ele>28.02</ele>
        <time>2026-07-04T13:57:30Z</time>
      </trkpt>
      <trkpt lat="54.212172003462911" lon="-8.505141958594322">
        <ele>26.09</ele>
        <time>2026-07-04T13:57:37Z</time>
      </trkpt>
      <trkpt lat="54.212129004299641" lon="-8.505116980522871">
        <ele>25.129999999999999</ele>
        <time>2026-07-04T13:57:42Z</time>
      </trkpt>
      <trkpt lat="54.21210796572268" lon="-8.505160985514522">
        <ele>24.649999999999999</ele>
        <time>2026-07-04T13:57:43Z</time>
      </trkpt>
      <trkpt lat="54.212077958509326" lon="-8.505254024639726">
        <ele>24.170000000000002</ele>
        <time>2026-07-04T13:57:44Z</time>
      </trkpt>
      <trkpt lat="54.212040994316339" lon="-8.505371036008">
        <ele>24.170000000000002</ele>
        <time>2026-07-04T13:57:45Z</time>
      </trkpt>
      <trkpt lat="54.212001012638211" lon="-8.50549902766943">
        <ele>23.690000000000001</ele>
        <time>2026-07-04T13:57:46Z</time>
      </trkpt>
      <trkpt lat="54.211954995989799" lon="-8.50563196465373">
        <ele>23.690000000000001</ele>
        <time>2026-07-04T13:57:47Z</time>
      </trkpt>
      <trkpt lat="54.211758021265268" lon="-8.506229007616639">
        <ele>24.170000000000002</ele>
        <time>2026-07-04T13:57:51Z</time>
      </trkpt>
      <trkpt lat="54.211603961884975" lon="-8.506778022274375">
        <ele>26.57</ele>
        <time>2026-07-04T13:57:55Z</time>
      </trkpt>
      <trkpt lat="54.211564986035228" lon="-8.506915988400579">
        <ele>27.050000000000001</ele>
        <time>2026-07-04T13:57:56Z</time>
      </trkpt>
      <trkpt lat="54.211499020457268" lon="-8.507056972011924">
        <ele>27.050000000000001</ele>
        <time>2026-07-04T13:57:58Z</time>
      </trkpt>
      <trkpt lat="54.211435988545418" lon="-8.507195021957159">
        <ele>27.530000000000001</ele>
        <time>2026-07-04T13:57:59Z</time>
      </trkpt>
      <trkpt lat="54.211329035460949" lon="-8.507323013618588">
        <ele>28.02</ele>
        <time>2026-07-04T13:58:02Z</time>
      </trkpt>
      <trkpt lat="54.211271032691002" lon="-8.507410017773509">
        <ele>28.02</ele>
        <time>2026-07-04T13:58:03Z</time>
      </trkpt>
      <trkpt lat="54.211243037134409" lon="-8.507452011108398">
        <ele>28.02</ele>
        <time>2026-07-04T13:58:04Z</time>
      </trkpt>
      <trkpt lat="54.211216969415545" lon="-8.507490986958146">
        <ele>27.530000000000001</ele>
        <time>2026-07-04T13:58:05Z</time>
      </trkpt>
      <trkpt lat="54.211200037971139" lon="-8.507515965029597">
        <ele>27.530000000000001</ele>
        <time>2026-07-04T13:58:06Z</time>
      </trkpt>
      <trkpt lat="54.211200037971139" lon="-8.507515965029597">
        <ele>27.530000000000001</ele>
        <time>2026-07-04T13:58:07Z</time>
      </trkpt>
      <trkpt lat="54.211110016331077" lon="-8.507652003318071">
        <ele>27.530000000000001</ele>
        <time>2026-07-04T13:58:09Z</time>
      </trkpt>
      <trkpt lat="54.211077997460961" lon="-8.507724003866315">
        <ele>27.530000000000001</ele>
        <time>2026-07-04T13:58:10Z</time>
      </trkpt>
      <trkpt lat="54.211108004674315" lon="-8.507783012464643">
        <ele>27.530000000000001</ele>
        <time>2026-07-04T13:58:11Z</time>
      </trkpt>
      <trkpt lat="54.211199032142758" lon="-8.507793992757797">
        <ele>27.530000000000001</ele>
        <time>2026-07-04T13:58:12Z</time>
      </trkpt>
      <trkpt lat="54.211277989670634" lon="-8.507874039933085">
        <ele>27.530000000000001</ele>
        <time>2026-07-04T13:58:13Z</time>
      </trkpt>
      <trkpt lat="54.211367005482316" lon="-8.507962971925736">
        <ele>27.530000000000001</ele>
        <time>2026-07-04T13:58:14Z</time>
      </trkpt>
      <trkpt lat="54.211450992152095" lon="-8.508118959143758">
        <ele>27.050000000000001</ele>
        <time>2026-07-04T13:58:15Z</time>
      </trkpt>
      <trkpt lat="54.211528021842241" lon="-8.508267989382148">
        <ele>27.050000000000001</ele>
        <time>2026-07-04T13:58:16Z</time>
      </trkpt>
      <trkpt lat="54.211986009031534" lon="-8.509085979312658">
        <ele>26.57</ele>
        <time>2026-07-04T13:58:22Z</time>
      </trkpt>
      <trkpt lat="54.212078964337707" lon="-8.509191004559398">
        <ele>26.57</ele>
        <time>2026-07-04T13:58:23Z</time>
      </trkpt>
      <trkpt lat="54.212173009291291" lon="-8.509297035634518">
        <ele>26.57</ele>
        <time>2026-07-04T13:58:24Z</time>
      </trkpt>
      <trkpt lat="54.213445968925953" lon="-8.510491959750652">
        <ele>24.170000000000002</ele>
        <time>2026-07-04T13:58:36Z</time>
      </trkpt>
      <trkpt lat="54.214562019333243" lon="-8.511672969907522">
        <ele>23.210000000000001</ele>
        <time>2026-07-04T13:58:46Z</time>
      </trkpt>
      <trkpt lat="54.214692022651434" lon="-8.511736001819372">
        <ele>23.210000000000001</ele>
        <time>2026-07-04T13:58:47Z</time>
      </trkpt>
      <trkpt lat="54.214825965464115" lon="-8.511797022074461">
        <ele>22.73</ele>
        <time>2026-07-04T13:58:48Z</time>
      </trkpt>
      <trkpt lat="54.21496300958097" lon="-8.511859970167279">
        <ele>22.73</ele>
        <time>2026-07-04T13:58:49Z</time>
      </trkpt>
      <trkpt lat="54.215102987363935" lon="-8.511910010129213">
        <ele>22.73</ele>
        <time>2026-07-04T13:58:50Z</time>
      </trkpt>
      <trkpt lat="54.215239025652409" lon="-8.511876985430718">
        <ele>22.25</ele>
        <time>2026-07-04T13:58:51Z</time>
      </trkpt>
      <trkpt lat="54.215371962636709" lon="-8.511825017631054">
        <ele>21.289999999999999</ele>
        <time>2026-07-04T13:58:52Z</time>
      </trkpt>
      <trkpt lat="54.215490985661745" lon="-8.511722004041076">
        <ele>20.32</ele>
        <time>2026-07-04T13:58:53Z</time>
      </trkpt>
      <trkpt lat="54.215595005080104" lon="-8.511556964367628">
        <ele>19.359999999999999</ele>
        <time>2026-07-04T13:58:54Z</time>
      </trkpt>
      <trkpt lat="54.215698018670082" lon="-8.511392008513212">
        <ele>17.920000000000002</ele>
        <time>2026-07-04T13:58:55Z</time>
      </trkpt>
      <trkpt lat="54.21575996093452" lon="-8.511170977726579">
        <ele>16.960000000000001</ele>
        <time>2026-07-04T13:58:56Z</time>
      </trkpt>
      <trkpt lat="54.215818969532847" lon="-8.510945001617074">
        <ele>16</ele>
        <time>2026-07-04T13:58:57Z</time>
      </trkpt>
      <trkpt lat="54.216503016650677" lon="-8.508609971031547">
        <ele>12.15</ele>
        <time>2026-07-04T13:59:07Z</time>
      </trkpt>
      <trkpt lat="54.216737961396575" lon="-8.507961966097355">
        <ele>12.15</ele>
        <time>2026-07-04T13:59:10Z</time>
      </trkpt>
      <trkpt lat="54.216851033270359" lon="-8.50779801607132">
        <ele>11.67</ele>
        <time>2026-07-04T13:59:11Z</time>
      </trkpt>
      <trkpt lat="54.216977013275027" lon="-8.507653009146452">
        <ele>11.67</ele>
        <time>2026-07-04T13:59:12Z</time>
      </trkpt>
      <trkpt lat="54.217103999108076" lon="-8.507523005828261">
        <ele>11.19</ele>
        <time>2026-07-04T13:59:13Z</time>
      </trkpt>
      <trkpt lat="54.217245988547802" lon="-8.50741102360189">
        <ele>11.19</ele>
        <time>2026-07-04T13:59:14Z</time>
      </trkpt>
      <trkpt lat="54.21739099547267" lon="-8.507296023890376">
        <ele>11.19</ele>
        <time>2026-07-04T13:59:15Z</time>
      </trkpt>
      <trkpt lat="54.217531979084015" lon="-8.507184041664004">
        <ele>11.67</ele>
        <time>2026-07-04T13:59:16Z</time>
      </trkpt>
      <trkpt lat="54.217657959088683" lon="-8.507040040567517">
        <ele>11.67</ele>
        <time>2026-07-04T13:59:17Z</time>
      </trkpt>
      <trkpt lat="54.217775976285338" lon="-8.506885981187224">
        <ele>11.67</ele>
        <time>2026-07-04T13:59:18Z</time>
      </trkpt>
      <trkpt lat="54.217879995703697" lon="-8.506692023947835">
        <ele>11.67</ele>
        <time>2026-07-04T13:59:19Z</time>
      </trkpt>
      <trkpt lat="54.217947972938418" lon="-8.506455989554524">
        <ele>11.67</ele>
        <time>2026-07-04T13:59:20Z</time>
      </trkpt>
      <trkpt lat="54.21801402233541" lon="-8.506208974868059">
        <ele>11.19</ele>
        <time>2026-07-04T13:59:21Z</time>
      </trkpt>
      <trkpt lat="54.218063978478312" lon="-8.505948968231678">
        <ele>11.19</ele>
        <time>2026-07-04T13:59:22Z</time>
      </trkpt>
      <trkpt lat="54.218107983469963" lon="-8.505674963817">
        <ele>11.19</ele>
        <time>2026-07-04T13:59:23Z</time>
      </trkpt>
      <trkpt lat="54.218436973169446" lon="-8.503742013126612">
        <ele>11.19</ele>
        <time>2026-07-04T13:59:30Z</time>
      </trkpt>
      <trkpt lat="54.218937959522009" lon="-8.502225978299975">
        <ele>10.710000000000001</ele>
        <time>2026-07-04T13:59:37Z</time>
      </trkpt>
      <trkpt lat="54.218984981998801" lon="-8.502037972211838">
        <ele>10.710000000000001</ele>
        <time>2026-07-04T13:59:38Z</time>
      </trkpt>
      <trkpt lat="54.219028986990452" lon="-8.50184896029532">
        <ele>11.19</ele>
        <time>2026-07-04T13:59:39Z</time>
      </trkpt>
      <trkpt lat="54.219069974496961" lon="-8.50165399722755">
        <ele>11.19</ele>
        <time>2026-07-04T13:59:40Z</time>
      </trkpt>
      <trkpt lat="54.219110962003469" lon="-8.501464985311031">
        <ele>11.19</ele>
        <time>2026-07-04T13:59:41Z</time>
      </trkpt>
      <trkpt lat="54.219180028885603" lon="-8.501167008653283">
        <ele>11.19</ele>
        <time>2026-07-04T13:59:43Z</time>
      </trkpt>
      <trkpt lat="54.219204001128674" lon="-8.501060977578163">
        <ele>10.710000000000001</ele>
        <time>2026-07-04T13:59:44Z</time>
      </trkpt>
      <trkpt lat="54.219319000840187" lon="-8.500998029485345">
        <ele>10.710000000000001</ele>
        <time>2026-07-04T13:59:45Z</time>
      </trkpt>
      <trkpt lat="54.219403993338346" lon="-8.501020995900035">
        <ele>10.23</ele>
        <time>2026-07-04T13:59:46Z</time>
      </trkpt>
      <trkpt lat="54.219506001099944" lon="-8.501048991456628">
        <ele>10.23</ele>
        <time>2026-07-04T13:59:47Z</time>
      </trkpt>
      <trkpt lat="54.219619994983077" lon="-8.501080004498363">
        <ele>10.23</ele>
        <time>2026-07-04T13:59:48Z</time>
      </trkpt>
      <trkpt lat="54.220854984596372" lon="-8.501303968951106">
        <ele>13.6</ele>
        <time>2026-07-04T13:59:58Z</time>
      </trkpt>
      <trkpt lat="54.220970990136266" lon="-8.501284020021558">
        <ele>13.119999999999999</ele>
        <time>2026-07-04T13:59:59Z</time>
      </trkpt>
      <trkpt lat="54.221376003697515" lon="-8.501212019473314">
        <ele>12.15</ele>
        <time>2026-07-04T14:00:03Z</time>
      </trkpt>
      <trkpt lat="54.221442975103855" lon="-8.501200033351779">
        <ele>11.19</ele>
        <time>2026-07-04T14:00:04Z</time>
      </trkpt>
      <trkpt lat="54.221563003957272" lon="-8.501355014741421">
        <ele>10.710000000000001</ele>
        <time>2026-07-04T14:00:05Z</time>
      </trkpt>
      <trkpt lat="54.221600973978639" lon="-8.501503961160779">
        <ele>10.23</ele>
        <time>2026-07-04T14:00:06Z</time>
      </trkpt>
      <trkpt lat="54.221642967313528" lon="-8.50167402997613">
        <ele>10.23</ele>
        <time>2026-07-04T14:00:07Z</time>
      </trkpt>
      <trkpt lat="54.22168898396194" lon="-8.501860024407506">
        <ele>10.23</ele>
        <time>2026-07-04T14:00:08Z</time>
      </trkpt>
      <trkpt lat="54.221767019480467" lon="-8.502008970826864">
        <ele>10.23</ele>
        <time>2026-07-04T14:00:09Z</time>
      </trkpt>
      <trkpt lat="54.221856035292149" lon="-8.502163030207157">
        <ele>10.23</ele>
        <time>2026-07-04T14:00:10Z</time>
      </trkpt>
      <trkpt lat="54.221956031396985" lon="-8.50231901742518">
        <ele>10.710000000000001</ele>
        <time>2026-07-04T14:00:11Z</time>
      </trkpt>
      <trkpt lat="54.22278399579227" lon="-8.503808984532952">
        <ele>11.19</ele>
        <time>2026-07-04T14:00:20Z</time>
      </trkpt>
      <trkpt lat="54.223728971555829" lon="-8.506046030670404">
        <ele>15.039999999999999</ele>
        <time>2026-07-04T14:00:33Z</time>
      </trkpt>
      <trkpt lat="54.224340012297034" lon="-8.507812013849616">
        <ele>12.15</ele>
        <time>2026-07-04T14:00:41Z</time>
      </trkpt>
      <trkpt lat="54.224943006411195" lon="-8.510037995874882">
        <ele>11.19</ele>
        <time>2026-07-04T14:00:51Z</time>
      </trkpt>
      <trkpt lat="54.225279036909342" lon="-8.511378010734916">
        <ele>10.23</ele>
        <time>2026-07-04T14:00:59Z</time>
      </trkpt>
      <trkpt lat="54.225369980558753" lon="-8.511738013476133">
        <ele>9.75</ele>
        <time>2026-07-04T14:01:05Z</time>
      </trkpt>
      <trkpt lat="54.225369980558753" lon="-8.511738013476133">
        <ele>9.27</ele>
        <time>2026-07-04T14:01:45Z</time>
      </trkpt>
      <trkpt lat="54.225369980558753" lon="-8.511738013476133">
        <ele>9.75</ele>
        <time>2026-07-04T14:02:39Z</time>
      </trkpt>
      <trkpt lat="54.225369980558753" lon="-8.511738013476133">
        <ele>9.27</ele>
        <time>2026-07-04T14:03:37Z</time>
      </trkpt>
      <trkpt lat="54.225369980558753" lon="-8.511739019304514">
        <ele>9.75</ele>
        <time>2026-07-04T14:04:20Z</time>
      </trkpt>
      <trkpt lat="54.225546000525355" lon="-8.51244100369513">
        <ele>11.19</ele>
        <time>2026-07-04T14:04:26Z</time>
      </trkpt>
      <trkpt lat="54.226022008806467" lon="-8.514063991606236">
        <ele>13.6</ele>
        <time>2026-07-04T14:04:33Z</time>
      </trkpt>
      <trkpt lat="54.226929014548659" lon="-8.516365997493267">
        <ele>12.630000000000001</ele>
        <time>2026-07-04T14:04:43Z</time>
      </trkpt>
      <trkpt lat="54.227895028889179" lon="-8.518658028915525">
        <ele>11.67</ele>
        <time>2026-07-04T14:04:53Z</time>
      </trkpt>
      <trkpt lat="54.228677982464433" lon="-8.520850986242294">
        <ele>10.710000000000001</ele>
        <time>2026-07-04T14:05:02Z</time>
      </trkpt>
      <trkpt lat="54.229628993198276" lon="-8.522948976606131">
        <ele>12.630000000000001</ele>
        <time>2026-07-04T14:05:11Z</time>
      </trkpt>
      <trkpt lat="54.229734018445015" lon="-8.523177970200777">
        <ele>12.630000000000001</ele>
        <time>2026-07-04T14:05:12Z</time>
      </trkpt>
      <trkpt lat="54.229846000671387" lon="-8.523368993774056">
        <ele>12.630000000000001</ele>
        <time>2026-07-04T14:05:13Z</time>
      </trkpt>
      <trkpt lat="54.229987990111113" lon="-8.523497991263866">
        <ele>12.630000000000001</ele>
        <time>2026-07-04T14:05:14Z</time>
      </trkpt>
      <trkpt lat="54.230134002864361" lon="-8.523631012067199">
        <ele>12.15</ele>
        <time>2026-07-04T14:05:15Z</time>
      </trkpt>
      <trkpt lat="54.230287978425622" lon="-8.523770989850164">
        <ele>11.67</ele>
        <time>2026-07-04T14:05:16Z</time>
      </trkpt>
      <trkpt lat="54.231696976348758" lon="-8.525187028571963">
        <ele>10.23</ele>
        <time>2026-07-04T14:05:25Z</time>
      </trkpt>
      <trkpt lat="54.232460986822844" lon="-8.525910973548889">
        <ele>12.630000000000001</ele>
        <time>2026-07-04T14:05:30Z</time>
      </trkpt>
      <trkpt lat="54.232617979869246" lon="-8.526029996573925">
        <ele>13.6</ele>
        <time>2026-07-04T14:05:31Z</time>
      </trkpt>
      <trkpt lat="54.232781007885933" lon="-8.526152959093452">
        <ele>15.039999999999999</ele>
        <time>2026-07-04T14:05:32Z</time>
      </trkpt>
      <trkpt lat="54.232936995103955" lon="-8.526269970461726">
        <ele>16.48</ele>
        <time>2026-07-04T14:05:33Z</time>
      </trkpt>
      <trkpt lat="54.233088036999106" lon="-8.526466023176909">
        <ele>17.920000000000002</ele>
        <time>2026-07-04T14:05:34Z</time>
      </trkpt>
      <trkpt lat="54.233231032267213" lon="-8.526650005951524">
        <ele>18.879999999999999</ele>
        <time>2026-07-04T14:05:35Z</time>
      </trkpt>
      <trkpt lat="54.234224036335945" lon="-8.528334014117718">
        <ele>27.530000000000001</ele>
        <time>2026-07-04T14:05:43Z</time>
      </trkpt>
      <trkpt lat="54.234905987977982" lon="-8.530676001682878">
        <ele>25.129999999999999</ele>
        <time>2026-07-04T14:05:53Z</time>
      </trkpt>
      <trkpt lat="54.235174041241407" lon="-8.531851982697845">
        <ele>24.170000000000002</ele>
        <time>2026-07-04T14:05:58Z</time>
      </trkpt>
      <trkpt lat="54.235248975455761" lon="-8.53203403763473">
        <ele>24.170000000000002</ele>
        <time>2026-07-04T14:05:59Z</time>
      </trkpt>
      <trkpt lat="54.235336985439062" lon="-8.532196981832385">
        <ele>24.649999999999999</ele>
        <time>2026-07-04T14:06:00Z</time>
      </trkpt>
      <trkpt lat="54.235451985150576" lon="-8.532330002635717">
        <ele>25.129999999999999</ele>
        <time>2026-07-04T14:06:01Z</time>
      </trkpt>
      <trkpt lat="54.235572014003992" lon="-8.532467968761921">
        <ele>25.609999999999999</ele>
        <time>2026-07-04T14:06:02Z</time>
      </trkpt>
      <trkpt lat="54.236558983102441" lon="-8.533774958923459">
        <ele>29.460000000000001</ele>
        <time>2026-07-04T14:06:10Z</time>
      </trkpt>
      <trkpt lat="54.237710991874337" lon="-8.535403981804848">
        <ele>31.379999999999999</ele>
        <time>2026-07-04T14:06:19Z</time>
      </trkpt>
      <trkpt lat="54.238836010918021" lon="-8.537242971360683">
        <ele>34.740000000000002</ele>
        <time>2026-07-04T14:06:28Z</time>
      </trkpt>
      <trkpt lat="54.239460965618491" lon="-8.538228012621403">
        <ele>39.549999999999997</ele>
        <time>2026-07-04T14:06:33Z</time>
      </trkpt>
      <trkpt lat="54.239613013342023" lon="-8.538365978747606">
        <ele>40.030000000000001</ele>
        <time>2026-07-04T14:06:34Z</time>
      </trkpt>
      <trkpt lat="54.240079969167709" lon="-8.538733022287488">
        <ele>41.469999999999999</ele>
        <time>2026-07-04T14:06:37Z</time>
      </trkpt>
      <trkpt lat="54.240247020497918" lon="-8.538812985643745">
        <ele>40.990000000000002</ele>
        <time>2026-07-04T14:06:38Z</time>
      </trkpt>
      <trkpt lat="54.241423001512885" lon="-8.539326963946223">
        <ele>41.469999999999999</ele>
        <time>2026-07-04T14:06:45Z</time>
      </trkpt>
      <trkpt lat="54.241578988730907" lon="-8.5393419675529">
        <ele>41.469999999999999</ele>
        <time>2026-07-04T14:06:46Z</time>
      </trkpt>
      <trkpt lat="54.242892013862729" lon="-8.539514970034361">
        <ele>43.880000000000003</ele>
        <time>2026-07-04T14:06:55Z</time>
      </trkpt>
      <trkpt lat="54.243274983018637" lon="-8.539607003331184">
        <ele>41.950000000000003</ele>
        <time>2026-07-04T14:07:00Z</time>
      </trkpt>
      <trkpt lat="54.243494002148509" lon="-8.539659976959229">
        <ele>41.469999999999999</ele>
        <time>2026-07-04T14:07:06Z</time>
      </trkpt>
      <trkpt lat="54.243573965504766" lon="-8.539772965013981">
        <ele>41.469999999999999</ele>
        <time>2026-07-04T14:07:07Z</time>
      </trkpt>
      <trkpt lat="54.243612019345164" lon="-8.539700964465737">
        <ele>40.990000000000002</ele>
        <time>2026-07-04T14:07:08Z</time>
      </trkpt>
      <trkpt lat="54.243621993809938" lon="-8.539659976959229">
        <ele>40.990000000000002</ele>
        <time>2026-07-04T14:07:09Z</time>
      </trkpt>
      <trkpt lat="54.243554016575217" lon="-8.53947096504271">
        <ele>40.990000000000002</ele>
        <time>2026-07-04T14:07:10Z</time>
      </trkpt>
      <trkpt lat="54.243576982989907" lon="-8.539358982816339">
        <ele>40.509999999999998</ele>
        <time>2026-07-04T14:07:11Z</time>
      </trkpt>
      <trkpt lat="54.243605984374881" lon="-8.539223028346896">
        <ele>40.509999999999998</ele>
        <time>2026-07-04T14:07:12Z</time>
      </trkpt>
      <trkpt lat="54.243639009073377" lon="-8.539063017815352">
        <ele>40.030000000000001</ele>
        <time>2026-07-04T14:07:13Z</time>
      </trkpt>
      <trkpt lat="54.243674967437983" lon="-8.538882974535227">
        <ele>39.549999999999997</ele>
        <time>2026-07-04T14:07:14Z</time>
      </trkpt>
      <trkpt lat="54.243842018768191" lon="-8.538003964349628">
        <ele>38.590000000000003</ele>
        <time>2026-07-04T14:07:18Z</time>
      </trkpt>
      <trkpt lat="54.244218030944467" lon="-8.536081993952394">
        <ele>39.07</ele>
        <time>2026-07-04T14:07:26Z</time>
      </trkpt>
      <trkpt lat="54.244279973208904" lon="-8.53585802949965">
        <ele>40.030000000000001</ele>
        <time>2026-07-04T14:07:27Z</time>
      </trkpt>
      <trkpt lat="54.244339987635612" lon="-8.535642027854919">
        <ele>40.509999999999998</ele>
        <time>2026-07-04T14:07:28Z</time>
      </trkpt>
      <trkpt lat="54.245337015017867" lon="-8.53385902941227">
        <ele>44.359999999999999</ele>
        <time>2026-07-04T14:07:38Z</time>
      </trkpt>
      <trkpt lat="54.246447030454874" lon="-8.532235035672784">
        <ele>47.240000000000002</ele>
        <time>2026-07-04T14:07:47Z</time>
      </trkpt>
      <trkpt lat="54.247819986194372" lon="-8.530103014782071">
        <ele>55.890000000000001</ele>
        <time>2026-07-04T14:07:58Z</time>
      </trkpt>
      <trkpt lat="54.248356008902192" lon="-8.528301995247603">
        <ele>56.369999999999997</ele>
        <time>2026-07-04T14:08:05Z</time>
      </trkpt>
      <trkpt lat="54.248962020501494" lon="-8.525985991582274">
        <ele>51.57</ele>
        <time>2026-07-04T14:08:14Z</time>
      </trkpt>
      <trkpt lat="54.249673979356885" lon="-8.523305039852858">
        <ele>49.649999999999999</ele>
        <time>2026-07-04T14:08:24Z</time>
      </trkpt>
      <trkpt lat="54.25035098567605" lon="-8.521354990079999">
        <ele>50.130000000000003</ele>
        <time>2026-07-04T14:08:32Z</time>
      </trkpt>
      <trkpt lat="54.250755999237299" lon="-8.520186971873045">
        <ele>49.649999999999999</ele>
        <time>2026-07-04T14:08:39Z</time>
      </trkpt>
      <trkpt lat="54.251053975895047" lon="-8.519329000264406">
        <ele>48.68</ele>
        <time>2026-07-04T14:08:47Z</time>
      </trkpt>
      <trkpt lat="54.25112497061491" lon="-8.5190150141716">
        <ele>48.68</ele>
        <time>2026-07-04T14:08:52Z</time>
      </trkpt>
      <trkpt lat="54.251099992543459" lon="-8.51899397559464">
        <ele>49.159999999999997</ele>
        <time>2026-07-04T14:08:53Z</time>
      </trkpt>
      <trkpt lat="54.251077026128769" lon="-8.518975032493472">
        <ele>49.159999999999997</ele>
        <time>2026-07-04T14:08:54Z</time>
      </trkpt>
      <trkpt lat="54.251056993380189" lon="-8.518958017230034">
        <ele>49.159999999999997</ele>
        <time>2026-07-04T14:08:55Z</time>
      </trkpt>
      <trkpt lat="54.25103603862226" lon="-8.518941001966596">
        <ele>49.159999999999997</ele>
        <time>2026-07-04T14:08:56Z</time>
      </trkpt>
      <trkpt lat="54.251024974510074" lon="-8.518932033330202">
        <ele>49.159999999999997</ele>
        <time>2026-07-04T14:08:57Z</time>
      </trkpt>
      <trkpt lat="54.251119019463658" lon="-8.519139988347888">
        <ele>49.159999999999997</ele>
        <time>2026-07-04T14:08:58Z</time>
      </trkpt>
      <trkpt lat="54.251107033342123" lon="-8.519176030531526">
        <ele>49.159999999999997</ele>
        <time>2026-07-04T14:08:59Z</time>
      </trkpt>
      <trkpt lat="54.251085994765162" lon="-8.519235961139202">
        <ele>48.200000000000003</ele>
        <time>2026-07-04T14:09:10Z</time>
      </trkpt>
      <trkpt lat="54.251085994765162" lon="-8.519235961139202">
        <ele>49.159999999999997</ele>
        <time>2026-07-04T14:09:30Z</time>
      </trkpt>
      <trkpt lat="54.251085994765162" lon="-8.519235961139202">
        <ele>52.049999999999997</ele>
        <time>2026-07-04T14:09:48Z</time>
      </trkpt>
      <trkpt lat="54.251085994765162" lon="-8.519235961139202">
        <ele>53.490000000000002</ele>
        <time>2026-07-04T14:10:03Z</time>
      </trkpt>
      <trkpt lat="54.250807967036963" lon="-8.519075028598309">
        <ele>41.950000000000003</ele>
        <time>2026-07-04T15:03:09Z</time>
      </trkpt>
      <trkpt lat="54.250901006162167" lon="-8.519112998619676">
        <ele>53.009999999999998</ele>
        <time>2026-07-04T15:03:42Z</time>
      </trkpt>
      <trkpt lat="54.25086697563529" lon="-8.519110986962915">
        <ele>51.090000000000003</ele>
        <time>2026-07-04T15:04:29Z</time>
      </trkpt>
      <trkpt lat="54.25090603530407" lon="-8.519096989184618">
        <ele>57.340000000000003</ele>
        <time>2026-07-04T15:05:27Z</time>
      </trkpt>
      <trkpt lat="54.25090603530407" lon="-8.519096989184618">
        <ele>57.340000000000003</ele>
        <time>2026-07-04T15:05:30Z</time>
      </trkpt>
      <trkpt lat="54.251024974510074" lon="-8.518932033330202">
        <ele>56.859999999999999</ele>
        <time>2026-07-04T15:05:32Z</time>
      </trkpt>
      <trkpt lat="54.251135028898716" lon="-8.519092965871096">
        <ele>55.890000000000001</ele>
        <time>2026-07-04T15:05:34Z</time>
      </trkpt>
      <trkpt lat="54.251039978116751" lon="-8.518944019451737">
        <ele>55.890000000000001</ele>
        <time>2026-07-04T15:05:35Z</time>
      </trkpt>
      <trkpt lat="54.25105799920857" lon="-8.518959023058415">
        <ele>55.890000000000001</ele>
        <time>2026-07-04T15:05:36Z</time>
      </trkpt>
      <trkpt lat="54.251070991158485" lon="-8.518970003351569">
        <ele>55.890000000000001</ele>
        <time>2026-07-04T15:05:37Z</time>
      </trkpt>
      <trkpt lat="54.251084988936782" lon="-8.518981989473105">
        <ele>56.369999999999997</ele>
        <time>2026-07-04T15:05:38Z</time>
      </trkpt>
      <trkpt lat="54.251110972836614" lon="-8.519003028050065">
        <ele>56.859999999999999</ele>
        <time>2026-07-04T15:05:43Z</time>
      </trkpt>
      <trkpt lat="54.251180039718747" lon="-8.518946031108499">
        <ele>56.859999999999999</ele>
        <time>2026-07-04T15:05:44Z</time>
      </trkpt>
      <trkpt lat="54.251207029446959" lon="-8.518850980326533">
        <ele>56.859999999999999</ele>
        <time>2026-07-04T15:05:45Z</time>
      </trkpt>
      <trkpt lat="54.251241981983185" lon="-8.518723994493485">
        <ele>56.859999999999999</ele>
        <time>2026-07-04T15:05:46Z</time>
      </trkpt>
      <trkpt lat="54.251284981146455" lon="-8.518571024760604">
        <ele>56.369999999999997</ele>
        <time>2026-07-04T15:05:47Z</time>
      </trkpt>
      <trkpt lat="54.251333009451628" lon="-8.518399028107524">
        <ele>56.369999999999997</ele>
        <time>2026-07-04T15:05:48Z</time>
      </trkpt>
      <trkpt lat="54.251626962795854" lon="-8.517349027097225">
        <ele>54.93</ele>
        <time>2026-07-04T15:05:55Z</time>
      </trkpt>
      <trkpt lat="54.251693012192845" lon="-8.517110981047154">
        <ele>53.969999999999999</ele>
        <time>2026-07-04T15:05:59Z</time>
      </trkpt>
      <trkpt lat="54.25166099332273" lon="-8.517010984942317">
        <ele>53.969999999999999</ele>
        <time>2026-07-04T15:06:00Z</time>
      </trkpt>
      <trkpt lat="54.251624029129744" lon="-8.516987012699246">
        <ele>53.490000000000002</ele>
        <time>2026-07-04T15:06:01Z</time>
      </trkpt>
      <trkpt lat="54.251585975289345" lon="-8.516962034627795">
        <ele>53.490000000000002</ele>
        <time>2026-07-04T15:06:02Z</time>
      </trkpt>
      <trkpt lat="54.251548005267978" lon="-8.516936972737312">
        <ele>53.490000000000002</ele>
        <time>2026-07-04T15:06:03Z</time>
      </trkpt>
      <trkpt lat="54.251516992226243" lon="-8.516918029636145">
        <ele>53.490000000000002</ele>
        <time>2026-07-04T15:06:04Z</time>
      </trkpt>
      <trkpt lat="54.251497965306044" lon="-8.516905037686229">
        <ele>53.490000000000002</ele>
        <time>2026-07-04T15:06:13Z</time>
      </trkpt>
      <trkpt lat="54.251410039141774" lon="-8.516848040744662">
        <ele>53.969999999999999</ele>
        <time>2026-07-04T15:06:23Z</time>
      </trkpt>
      <trkpt lat="54.251347007229924" lon="-8.516807975247502">
        <ele>53.969999999999999</ele>
        <time>2026-07-04T15:06:24Z</time>
      </trkpt>
      <trkpt lat="54.251266960054636" lon="-8.516688030213118">
        <ele>53.969999999999999</ele>
        <time>2026-07-04T15:06:25Z</time>
      </trkpt>
      <trkpt lat="54.251185990869999" lon="-8.516569007188082">
        <ele>53.969999999999999</ele>
        <time>2026-07-04T15:06:26Z</time>
      </trkpt>
      <trkpt lat="54.251095969229937" lon="-8.516442021355033">
        <ele>53.969999999999999</ele>
        <time>2026-07-04T15:06:27Z</time>
      </trkpt>
      <trkpt lat="54.251001002267003" lon="-8.516306988894939">
        <ele>54.450000000000003</ele>
        <time>2026-07-04T15:06:28Z</time>
      </trkpt>
      <trkpt lat="54.250910980626941" lon="-8.516147984191775">
        <ele>54.450000000000003</ele>
        <time>2026-07-04T15:06:29Z</time>
      </trkpt>
      <trkpt lat="54.250088967382908" lon="-8.514633039012551">
        <ele>56.369999999999997</ele>
        <time>2026-07-04T15:06:38Z</time>
      </trkpt>
      <trkpt lat="54.249558979645371" lon="-8.513863999396563">
        <ele>57.82</ele>
        <time>2026-07-04T15:06:44Z</time>
      </trkpt>
      <trkpt lat="54.249451020732522" lon="-8.513784036040306">
        <ele>57.82</ele>
        <time>2026-07-04T15:06:45Z</time>
      </trkpt>
      <trkpt lat="54.249333003535867" lon="-8.513697031885386">
        <ele>57.82</ele>
        <time>2026-07-04T15:06:46Z</time>
      </trkpt>
      <trkpt lat="54.248151993378997" lon="-8.512925980612636">
        <ele>55.890000000000001</ele>
        <time>2026-07-04T15:06:55Z</time>
      </trkpt>
      <trkpt lat="54.24802802503109" lon="-8.512858003377914">
        <ele>56.369999999999997</ele>
        <time>2026-07-04T15:06:56Z</time>
      </trkpt>
      <trkpt lat="54.24789902754128" lon="-8.512850040569902">
        <ele>56.859999999999999</ele>
        <time>2026-07-04T15:06:57Z</time>
      </trkpt>
      <trkpt lat="54.247766006737947" lon="-8.512841993942857">
        <ele>57.340000000000003</ele>
        <time>2026-07-04T15:06:58Z</time>
      </trkpt>
      <trkpt lat="54.246375029906631" lon="-8.513212976977229">
        <ele>56.859999999999999</ele>
        <time>2026-07-04T15:07:09Z</time>
      </trkpt>
      <trkpt lat="54.245181027799845" lon="-8.513240972533822">
        <ele>58.299999999999997</ele>
        <time>2026-07-04T15:07:19Z</time>
      </trkpt>
      <trkpt lat="54.245070973411202" lon="-8.513172995299101">
        <ele>57.82</ele>
        <time>2026-07-04T15:07:20Z</time>
      </trkpt>
      <trkpt lat="54.244654979556799" lon="-8.51282699033618">
        <ele>53.490000000000002</ele>
        <time>2026-07-04T15:07:26Z</time>
      </trkpt>
      <trkpt lat="54.244674006476998" lon="-8.512763036414981">
        <ele>52.530000000000001</ele>
        <time>2026-07-04T15:07:27Z</time>
      </trkpt>
      <trkpt lat="54.24469999037683" lon="-8.512680977582932">
        <ele>52.049999999999997</ele>
        <time>2026-07-04T15:07:28Z</time>
      </trkpt>
      <trkpt lat="54.244738966226578" lon="-8.512554997578263">
        <ele>51.090000000000003</ele>
        <time>2026-07-04T15:07:29Z</time>
      </trkpt>
      <trkpt lat="54.244748018682003" lon="-8.512393981218338">
        <ele>50.609999999999999</ele>
        <time>2026-07-04T15:07:30Z</time>
      </trkpt>
      <trkpt lat="54.244862012565136" lon="-8.51074299775064">
        <ele>43.880000000000003</ele>
        <time>2026-07-04T15:07:39Z</time>
      </trkpt>
      <trkpt lat="54.245106009766459" lon="-8.508757995441556">
        <ele>38.590000000000003</ele>
        <time>2026-07-04T15:07:48Z</time>
      </trkpt>
      <trkpt lat="54.245684025809169" lon="-8.505817959085107">
        <ele>32.340000000000003</ele>
        <time>2026-07-04T15:08:00Z</time>
      </trkpt>
      <trkpt lat="54.245846970006824" lon="-8.505282020196319">
        <ele>34.259999999999998</ele>
        <time>2026-07-04T15:08:03Z</time>
      </trkpt>
      <trkpt lat="54.245906984433532" lon="-8.505122009664774">
        <ele>34.740000000000002</ele>
        <time>2026-07-04T15:08:04Z</time>
      </trkpt>
      <trkpt lat="54.245983008295298" lon="-8.50492000579834">
        <ele>35.229999999999997</ele>
        <time>2026-07-04T15:08:05Z</time>
      </trkpt>
      <trkpt lat="54.246069006621838" lon="-8.504805006086826">
        <ele>35.229999999999997</ele>
        <time>2026-07-04T15:08:06Z</time>
      </trkpt>
      <trkpt lat="54.246171014383435" lon="-8.504668967798352">
        <ele>35.229999999999997</ele>
        <time>2026-07-04T15:08:07Z</time>
      </trkpt>
      <trkpt lat="54.247375996783376" lon="-8.503062995150685">
        <ele>35.710000000000001</ele>
        <time>2026-07-04T15:08:19Z</time>
      </trkpt>
      <trkpt lat="54.247466018423438" lon="-8.502941960468888">
        <ele>35.710000000000001</ele>
        <time>2026-07-04T15:08:20Z</time>
      </trkpt>
      <trkpt lat="54.24755503423512" lon="-8.502792008221149">
        <ele>35.710000000000001</ele>
        <time>2026-07-04T15:08:21Z</time>
      </trkpt>
      <trkpt lat="54.248141013085842" lon="-8.501158962026238">
        <ele>34.740000000000002</ele>
        <time>2026-07-04T15:08:29Z</time>
      </trkpt>
      <trkpt lat="54.248769991099834" lon="-8.499503033235669">
        <ele>33.780000000000001</ele>
        <time>2026-07-04T15:08:37Z</time>
      </trkpt>
      <trkpt lat="54.24884500913322" lon="-8.499391973018646">
        <ele>33.299999999999997</ele>
        <time>2026-07-04T15:08:38Z</time>
      </trkpt>
      <trkpt lat="54.249013988301158" lon="-8.49920597858727">
        <ele>33.299999999999997</ele>
        <time>2026-07-04T15:08:40Z</time>
      </trkpt>
      <trkpt lat="54.249109039083123" lon="-8.499101037159562">
        <ele>33.299999999999997</ele>
        <time>2026-07-04T15:08:41Z</time>
      </trkpt>
      <trkpt lat="54.250415023416281" lon="-8.498520003631711">
        <ele>32.340000000000003</ele>
        <time>2026-07-04T15:08:51Z</time>
      </trkpt>
      <trkpt lat="54.251527972519398" lon="-8.497513001784682">
        <ele>31.859999999999999</ele>
        <time>2026-07-04T15:09:00Z</time>
      </trkpt>
      <trkpt lat="54.252661960199475" lon="-8.496162006631494">
        <ele>34.740000000000002</ele>
        <time>2026-07-04T15:09:11Z</time>
      </trkpt>
      <trkpt lat="54.252811996266246" lon="-8.495957991108298">
        <ele>34.259999999999998</ele>
        <time>2026-07-04T15:09:17Z</time>
      </trkpt>
      <trkpt lat="54.252829011529684" lon="-8.495935024693608">
        <ele>35.229999999999997</ele>
        <time>2026-07-04T15:09:25Z</time>
      </trkpt>
      <trkpt lat="54.252829011529684" lon="-8.495935024693608">
        <ele>35.229999999999997</ele>
        <time>2026-07-04T15:09:26Z</time>
      </trkpt>
      <trkpt lat="54.25282197073102" lon="-8.495866041630507">
        <ele>35.710000000000001</ele>
        <time>2026-07-04T15:09:27Z</time>
      </trkpt>
      <trkpt lat="54.252790035679936" lon="-8.495814995840192">
        <ele>35.229999999999997</ele>
        <time>2026-07-04T15:09:28Z</time>
      </trkpt>
      <trkpt lat="54.252741001546383" lon="-8.495737966150045">
        <ele>35.229999999999997</ele>
        <time>2026-07-04T15:09:29Z</time>
      </trkpt>
      <trkpt lat="54.252677969634533" lon="-8.495648028329015">
        <ele>35.229999999999997</ele>
        <time>2026-07-04T15:09:30Z</time>
      </trkpt>
      <trkpt lat="54.252045974135399" lon="-8.494940008968115">
        <ele>32.82</ele>
        <time>2026-07-04T15:09:36Z</time>
      </trkpt>
      <trkpt lat="54.250781983137131" lon="-8.493584990501404">
        <ele>32.340000000000003</ele>
        <time>2026-07-04T15:09:45Z</time>
      </trkpt>
      <trkpt lat="54.249062016606331" lon="-8.491801992058754">
        <ele>33.299999999999997</ele>
        <time>2026-07-04T15:09:57Z</time>
      </trkpt>
      <trkpt lat="54.248171020299196" lon="-8.490836983546615">
        <ele>33.780000000000001</ele>
        <time>2026-07-04T15:10:04Z</time>
      </trkpt>
      <trkpt lat="54.248063983395696" lon="-8.490715026855469">
        <ele>33.780000000000001</ele>
        <time>2026-07-04T15:10:05Z</time>
      </trkpt>
      <trkpt lat="54.247979996725917" lon="-8.490531966090202">
        <ele>33.780000000000001</ele>
        <time>2026-07-04T15:10:06Z</time>
      </trkpt>
      <trkpt lat="54.247904978692532" lon="-8.490367010235786">
        <ele>33.780000000000001</ele>
        <time>2026-07-04T15:10:07Z</time>
      </trkpt>
      <trkpt lat="54.247828032821417" lon="-8.490172969177365">
        <ele>33.299999999999997</ele>
        <time>2026-07-04T15:10:08Z</time>
      </trkpt>
      <trkpt lat="54.247821997851133" lon="-8.489956967532635">
        <ele>32.82</ele>
        <time>2026-07-04T15:10:09Z</time>
      </trkpt>
      <trkpt lat="54.24781696870923" lon="-8.489725040271878">
        <ele>32.340000000000003</ele>
        <time>2026-07-04T15:10:10Z</time>
      </trkpt>
      <trkpt lat="54.247811017557979" lon="-8.489479031413794">
        <ele>31.859999999999999</ele>
        <time>2026-07-04T15:10:11Z</time>
      </trkpt>
      <trkpt lat="54.247671039775014" lon="-8.487888984382153">
        <ele>28.98</ele>
        <time>2026-07-04T15:10:18Z</time>
      </trkpt>
      <trkpt lat="54.247632985934615" lon="-8.487723022699356">
        <ele>28.5</ele>
        <time>2026-07-04T15:10:19Z</time>
      </trkpt>
      <trkpt lat="54.24759903922677" lon="-8.487570974975824">
        <ele>28.02</ele>
        <time>2026-07-04T15:10:20Z</time>
      </trkpt>
      <trkpt lat="54.247538018971682" lon="-8.48747500218451">
        <ele>27.050000000000001</ele>
        <time>2026-07-04T15:10:21Z</time>
      </trkpt>
      <trkpt lat="54.24747004173696" lon="-8.487395038828254">
        <ele>26.57</ele>
        <time>2026-07-04T15:10:22Z</time>
      </trkpt>
      <trkpt lat="54.247401980683208" lon="-8.487314991652966">
        <ele>26.09</ele>
        <time>2026-07-04T15:10:23Z</time>
      </trkpt>
      <trkpt lat="54.247326962649822" lon="-8.487247014418244">
        <ele>26.09</ele>
        <time>2026-07-04T15:10:24Z</time>
      </trkpt>
      <trkpt lat="54.247239958494902" lon="-8.487206026911736">
        <ele>26.09</ele>
        <time>2026-07-04T15:10:25Z</time>
      </trkpt>
      <trkpt lat="54.247152032330632" lon="-8.487165039405227">
        <ele>26.09</ele>
        <time>2026-07-04T15:10:26Z</time>
      </trkpt>
      <trkpt lat="54.24706301651895" lon="-8.487123968079686">
        <ele>26.09</ele>
        <time>2026-07-04T15:10:27Z</time>
      </trkpt>
      <trkpt lat="54.24699897877872" lon="-8.487012991681695">
        <ele>26.09</ele>
        <time>2026-07-04T15:10:28Z</time>
      </trkpt>
      <trkpt lat="54.246958997100592" lon="-8.486897991970182">
        <ele>26.09</ele>
        <time>2026-07-04T15:10:29Z</time>
      </trkpt>
      <trkpt lat="54.246926978230476" lon="-8.48680998198688">
        <ele>26.09</ele>
        <time>2026-07-04T15:10:30Z</time>
      </trkpt>
      <trkpt lat="54.246926978230476" lon="-8.48670101724565">
        <ele>26.09</ele>
        <time>2026-07-04T15:10:31Z</time>
      </trkpt>
      <trkpt lat="54.246926978230476" lon="-8.486581994220614">
        <ele>26.09</ele>
        <time>2026-07-04T15:10:32Z</time>
      </trkpt>
      <trkpt lat="54.246926978230476" lon="-8.486455008387566">
        <ele>25.609999999999999</ele>
        <time>2026-07-04T15:10:33Z</time>
      </trkpt>
      <trkpt lat="54.246926978230476" lon="-8.486307989805937">
        <ele>25.609999999999999</ele>
        <time>2026-07-04T15:10:34Z</time>
      </trkpt>
      <trkpt lat="54.246926978230476" lon="-8.48614496178925">
        <ele>26.09</ele>
        <time>2026-07-04T15:10:35Z</time>
      </trkpt>
      <trkpt lat="54.246898982673883" lon="-8.485973970964551">
        <ele>26.09</ele>
        <time>2026-07-04T15:10:36Z</time>
      </trkpt>
      <trkpt lat="54.246868975460529" lon="-8.485799040645361">
        <ele>27.050000000000001</ele>
        <time>2026-07-04T15:10:37Z</time>
      </trkpt>
      <trkpt lat="54.246838968247175" lon="-8.485618997365236">
        <ele>27.530000000000001</ele>
        <time>2026-07-04T15:10:38Z</time>
      </trkpt>
      <trkpt lat="54.246794963255525" lon="-8.485438032075763">
        <ele>28.02</ele>
        <time>2026-07-04T15:10:39Z</time>
      </trkpt>
      <trkpt lat="54.246370000764728" lon="-8.483291007578373">
        <ele>34.740000000000002</ele>
        <time>2026-07-04T15:10:51Z</time>
      </trkpt>
      <trkpt lat="54.246136983856559" lon="-8.481513038277626">
        <ele>38.109999999999999</ele>
        <time>2026-07-04T15:11:02Z</time>
      </trkpt>
      <trkpt lat="54.246132038533688" lon="-8.481474984437227">
        <ele>38.109999999999999</ele>
        <time>2026-07-04T15:11:10Z</time>
      </trkpt>
      <trkpt lat="54.246069006621838" lon="-8.480992019176483">
        <ele>38.590000000000003</ele>
        <time>2026-07-04T15:11:25Z</time>
      </trkpt>
      <trkpt lat="54.245801037177444" lon="-8.47991100512445">
        <ele>38.590000000000003</ele>
        <time>2026-07-04T15:11:31Z</time>
      </trkpt>
      <trkpt lat="54.245317988097668" lon="-8.478226996958256">
        <ele>40.990000000000002</ele>
        <time>2026-07-04T15:11:40Z</time>
      </trkpt>
      <trkpt lat="54.245068961754441" lon="-8.477337006479502">
        <ele>40.990000000000002</ele>
        <time>2026-07-04T15:11:45Z</time>
      </trkpt>
      <trkpt lat="54.245020011439919" lon="-8.477201974019408">
        <ele>40.509999999999998</ele>
        <time>2026-07-04T15:11:46Z</time>
      </trkpt>
      <trkpt lat="54.244967959821224" lon="-8.477092003449798">
        <ele>40.030000000000001</ele>
        <time>2026-07-04T15:11:47Z</time>
      </trkpt>
      <trkpt lat="54.24487098120153" lon="-8.476888993754983">
        <ele>40.030000000000001</ele>
        <time>2026-07-04T15:11:49Z</time>
      </trkpt>
      <trkpt lat="54.244814990088344" lon="-8.476772988215089">
        <ele>40.030000000000001</ele>
        <time>2026-07-04T15:11:50Z</time>
      </trkpt>
      <trkpt lat="54.244803003966808" lon="-8.476642984896898">
        <ele>39.549999999999997</ele>
        <time>2026-07-04T15:11:51Z</time>
      </trkpt>
      <trkpt lat="54.244775008410215" lon="-8.476462019607425">
        <ele>39.549999999999997</ele>
        <time>2026-07-04T15:11:52Z</time>
      </trkpt>
      <trkpt lat="54.244727985933423" lon="-8.47634500823915">
        <ele>39.549999999999997</ele>
        <time>2026-07-04T15:11:53Z</time>
      </trkpt>
      <trkpt lat="54.244640981778502" lon="-8.476240988820791">
        <ele>39.07</ele>
        <time>2026-07-04T15:11:54Z</time>
      </trkpt>
      <trkpt lat="54.244534028694034" lon="-8.476249035447836">
        <ele>39.07</ele>
        <time>2026-07-04T15:11:55Z</time>
      </trkpt>
      <trkpt lat="54.244435960426927" lon="-8.476266972720623">
        <ele>39.07</ele>
        <time>2026-07-04T15:11:56Z</time>
      </trkpt>
      <trkpt lat="54.24433303065598" lon="-8.476266972720623">
        <ele>39.07</ele>
        <time>2026-07-04T15:11:57Z</time>
      </trkpt>
      <trkpt lat="54.243679996579885" lon="-8.476131018251181">
        <ele>37.630000000000003</ele>
        <time>2026-07-04T15:12:04Z</time>
      </trkpt>
      <trkpt lat="54.243626017123461" lon="-8.476116014644504">
        <ele>37.149999999999999</ele>
        <time>2026-07-04T15:12:05Z</time>
      </trkpt>
      <trkpt lat="54.243587041273713" lon="-8.475932031869888">
        <ele>36.670000000000002</ele>
        <time>2026-07-04T15:12:06Z</time>
      </trkpt>
      <trkpt lat="54.243592992424965" lon="-8.475804040208459">
        <ele>36.189999999999998</ele>
        <time>2026-07-04T15:12:07Z</time>
      </trkpt>
      <trkpt lat="54.243600033223629" lon="-8.475648974999785">
        <ele>35.710000000000001</ele>
        <time>2026-07-04T15:12:08Z</time>
      </trkpt>
      <trkpt lat="54.24360103905201" lon="-8.475475972518325">
        <ele>35.229999999999997</ele>
        <time>2026-07-04T15:12:09Z</time>
      </trkpt>
      <trkpt lat="54.24360103905201" lon="-8.475295007228851">
        <ele>34.259999999999998</ele>
        <time>2026-07-04T15:12:10Z</time>
      </trkpt>
      <trkpt lat="54.243567008525133" lon="-8.475095015019178">
        <ele>33.780000000000001</ele>
        <time>2026-07-04T15:12:11Z</time>
      </trkpt>
      <trkpt lat="54.243525015190244" lon="-8.474909020587802">
        <ele>33.299999999999997</ele>
        <time>2026-07-04T15:12:12Z</time>
      </trkpt>
      <trkpt lat="54.243050012737513" lon="-8.47269200719893">
        <ele>30.899999999999999</ele>
        <time>2026-07-04T15:12:22Z</time>
      </trkpt>
      <trkpt lat="54.242833005264401" lon="-8.471726998686791">
        <ele>31.379999999999999</ele>
        <time>2026-07-04T15:12:26Z</time>
      </trkpt>
      <trkpt lat="54.242780031636357" lon="-8.471487024798989">
        <ele>31.859999999999999</ele>
        <time>2026-07-04T15:12:27Z</time>
      </trkpt>
      <trkpt lat="54.242074023932219" lon="-8.468262003734708">
        <ele>35.710000000000001</ele>
        <time>2026-07-04T15:12:40Z</time>
      </trkpt>
      <trkpt lat="54.241342032328248" lon="-8.464837996289134">
        <ele>35.710000000000001</ele>
        <time>2026-07-04T15:12:53Z</time>
      </trkpt>
      <trkpt lat="54.240619009360671" lon="-8.461376018822193">
        <ele>31.379999999999999</ele>
        <time>2026-07-04T15:13:08Z</time>
      </trkpt>
      <trkpt lat="54.239943008869886" lon="-8.458144962787628">
        <ele>30.899999999999999</ele>
        <time>2026-07-04T15:13:22Z</time>
      </trkpt>
      <trkpt lat="54.239301038905978" lon="-8.455170979723334">
        <ele>33.299999999999997</ele>
        <time>2026-07-04T15:13:35Z</time>
      </trkpt>
      <trkpt lat="54.238985041156411" lon="-8.453580010682344">
        <ele>33.780000000000001</ele>
        <time>2026-07-04T15:13:42Z</time>
      </trkpt>
      <trkpt lat="54.238982023671269" lon="-8.453336013481021">
        <ele>33.780000000000001</ele>
        <time>2026-07-04T15:13:43Z</time>
      </trkpt>
      <trkpt lat="54.238966014236212" lon="-8.452326999977231">
        <ele>33.299999999999997</ele>
        <time>2026-07-04T15:13:47Z</time>
      </trkpt>
      <trkpt lat="54.239004990085959" lon="-8.452113009989262">
        <ele>33.299999999999997</ele>
        <time>2026-07-04T15:13:48Z</time>
      </trkpt>
      <trkpt lat="54.239081013947725" lon="-8.451931960880756">
        <ele>33.780000000000001</ele>
        <time>2026-07-04T15:13:49Z</time>
      </trkpt>
      <trkpt lat="54.239162988960743" lon="-8.451764993369579">
        <ele>33.780000000000001</ele>
        <time>2026-07-04T15:13:50Z</time>
      </trkpt>
      <trkpt lat="54.239247981458902" lon="-8.451601965352893">
        <ele>33.299999999999997</ele>
        <time>2026-07-04T15:13:51Z</time>
      </trkpt>
      <trkpt lat="54.239330962300301" lon="-8.45144203864038">
        <ele>32.82</ele>
        <time>2026-07-04T15:13:52Z</time>
      </trkpt>
      <trkpt lat="54.239404974505305" lon="-8.451269036158919">
        <ele>32.82</ele>
        <time>2026-07-04T15:13:53Z</time>
      </trkpt>
      <trkpt lat="54.239442022517323" lon="-8.451072983443737">
        <ele>32.340000000000003</ele>
        <time>2026-07-04T15:13:54Z</time>
      </trkpt>
      <trkpt lat="54.239479992538691" lon="-8.450875002890825">
        <ele>31.859999999999999</ele>
        <time>2026-07-04T15:13:55Z</time>
      </trkpt>
      <trkpt lat="54.239432970061898" lon="-8.450704012066126">
        <ele>31.379999999999999</ele>
        <time>2026-07-04T15:13:56Z</time>
      </trkpt>
      <trkpt lat="54.239387037232518" lon="-8.450547019019723">
        <ele>30.420000000000002</ele>
        <time>2026-07-04T15:13:57Z</time>
      </trkpt>
      <trkpt lat="54.239328028634191" lon="-8.450488010421395">
        <ele>29.940000000000001</ele>
        <time>2026-07-04T15:13:58Z</time>
      </trkpt>
      <trkpt lat="54.239234989508986" lon="-8.450456997379661">
        <ele>28.98</ele>
        <time>2026-07-04T15:13:59Z</time>
      </trkpt>
      <trkpt lat="54.239115966483951" lon="-8.450418021529913">
        <ele>28.5</ele>
        <time>2026-07-04T15:14:00Z</time>
      </trkpt>
      <trkpt lat="54.239020999521017" lon="-8.450450962409377">
        <ele>28.5</ele>
        <time>2026-07-04T15:14:01Z</time>
      </trkpt>
      <trkpt lat="54.238907005637884" lon="-8.450492033734918">
        <ele>28.02</ele>
        <time>2026-07-04T15:14:02Z</time>
      </trkpt>
      <trkpt lat="54.238674994558096" lon="-8.450540984049439">
        <ele>26.57</ele>
        <time>2026-07-04T15:14:04Z</time>
      </trkpt>
      <trkpt lat="54.23855597153306" lon="-8.450532015413046">
        <ele>25.609999999999999</ele>
        <time>2026-07-04T15:14:05Z</time>
      </trkpt>
      <trkpt lat="54.238440971821547" lon="-8.450493961572647">
        <ele>24.649999999999999</ele>
        <time>2026-07-04T15:14:06Z</time>
      </trkpt>
      <trkpt lat="54.238343993201852" lon="-8.450396982952952">
        <ele>23.690000000000001</ele>
        <time>2026-07-04T15:14:07Z</time>
      </trkpt>
      <trkpt lat="54.238286996260285" lon="-8.450253987684846">
        <ele>22.73</ele>
        <time>2026-07-04T15:14:08Z</time>
      </trkpt>
      <trkpt lat="54.238237962126732" lon="-8.450084002688527">
        <ele>21.77</ele>
        <time>2026-07-04T15:14:09Z</time>
      </trkpt>
      <trkpt lat="54.238184988498688" lon="-8.449903959408402">
        <ele>20.809999999999999</ele>
        <time>2026-07-04T15:14:10Z</time>
      </trkpt>
      <trkpt lat="54.238136038184166" lon="-8.44970497302711">
        <ele>19.84</ele>
        <time>2026-07-04T15:14:11Z</time>
      </trkpt>
      <trkpt lat="54.237557016313076" lon="-8.447294002398849">
        <ele>13.119999999999999</ele>
        <time>2026-07-04T15:14:21Z</time>
      </trkpt>
      <trkpt lat="54.236924014985561" lon="-8.444521017372608">
        <ele>10.710000000000001</ele>
        <time>2026-07-04T15:14:32Z</time>
      </trkpt>
      <trkpt lat="54.236634001135826" lon="-8.443141020834446">
        <ele>10.23</ele>
        <time>2026-07-04T15:14:38Z</time>
      </trkpt>
      <trkpt lat="54.23662100918591" lon="-8.442924013361335">
        <ele>10.710000000000001</ele>
        <time>2026-07-04T15:14:39Z</time>
      </trkpt>
      <trkpt lat="54.236606005579233" lon="-8.442670963704586">
        <ele>10.710000000000001</ele>
        <time>2026-07-04T15:14:40Z</time>
      </trkpt>
      <trkpt lat="54.236640958115458" lon="-8.442470971494913">
        <ele>10.710000000000001</ele>
        <time>2026-07-04T15:14:41Z</time>
      </trkpt>
      <trkpt lat="54.236681023612618" lon="-8.442238038405776">
        <ele>11.19</ele>
        <time>2026-07-04T15:14:42Z</time>
      </trkpt>
      <trkpt lat="54.236732991412282" lon="-8.441998986527324">
        <ele>11.19</ele>
        <time>2026-07-04T15:14:43Z</time>
      </trkpt>
      <trkpt lat="54.236790994182229" lon="-8.441752977669239">
        <ele>11.67</ele>
        <time>2026-07-04T15:14:44Z</time>
      </trkpt>
      <trkpt lat="54.236847991123796" lon="-8.441507974639535">
        <ele>12.15</ele>
        <time>2026-07-04T15:14:45Z</time>
      </trkpt>
      <trkpt lat="54.236904988065362" lon="-8.441262971609831">
        <ele>12.630000000000001</ele>
        <time>2026-07-04T15:14:46Z</time>
      </trkpt>
      <trkpt lat="54.237259961664677" lon="-8.439077977091074">
        <ele>15.52</ele>
        <time>2026-07-04T15:14:55Z</time>
      </trkpt>
      <trkpt lat="54.237248981371522" lon="-8.438667012378573">
        <ele>15.039999999999999</ele>
        <time>2026-07-04T15:14:57Z</time>
      </trkpt>
      <trkpt lat="54.237211011350155" lon="-8.438453022390604">
        <ele>15.039999999999999</ele>
        <time>2026-07-04T15:14:58Z</time>
      </trkpt>
      <trkpt lat="54.237169018015265" lon="-8.438223022967577">
        <ele>15.039999999999999</ele>
        <time>2026-07-04T15:14:59Z</time>
      </trkpt>
      <trkpt lat="54.236687980592251" lon="-8.436013972386718">
        <ele>14.56</ele>
        <time>2026-07-04T15:15:08Z</time>
      </trkpt>
      <trkpt lat="54.236574992537498" lon="-8.435605019330978">
        <ele>13.6</ele>
        <time>2026-07-04T15:15:10Z</time>
      </trkpt>
      <trkpt lat="54.236540962010622" lon="-8.435410978272557">
        <ele>13.6</ele>
        <time>2026-07-04T15:15:11Z</time>
      </trkpt>
      <trkpt lat="54.236540962010622" lon="-8.43522003851831">
        <ele>13.6</ele>
        <time>2026-07-04T15:15:12Z</time>
      </trkpt>
      <trkpt lat="54.236554959788918" lon="-8.435024991631508">
        <ele>13.119999999999999</ele>
        <time>2026-07-04T15:15:13Z</time>
      </trkpt>
      <trkpt lat="54.236580021679401" lon="-8.434817036613822">
        <ele>13.119999999999999</ele>
        <time>2026-07-04T15:15:14Z</time>
      </trkpt>
      <trkpt lat="54.236604999750853" lon="-8.434613021090627">
        <ele>13.6</ele>
        <time>2026-07-04T15:15:15Z</time>
      </trkpt>
      <trkpt lat="54.236670965328813" lon="-8.434456028044224">
        <ele>13.6</ele>
        <time>2026-07-04T15:15:16Z</time>
      </trkpt>
      <trkpt lat="54.236740032210946" lon="-8.43430096283555">
        <ele>14.08</ele>
        <time>2026-07-04T15:15:17Z</time>
      </trkpt>
      <trkpt lat="54.236817983910441" lon="-8.434167020022869">
        <ele>14.56</ele>
        <time>2026-07-04T15:15:18Z</time>
      </trkpt>
      <trkpt lat="54.237231966108084" lon="-8.433651030063629">
        <ele>11.67</ele>
        <time>2026-07-04T15:15:22Z</time>
      </trkpt>
      <trkpt lat="54.237316036596894" lon="-8.433456989005208">
        <ele>11.19</ele>
        <time>2026-07-04T15:15:23Z</time>
      </trkpt>
      <trkpt lat="54.237402034923434" lon="-8.433259008452296">
        <ele>10.23</ele>
        <time>2026-07-04T15:15:24Z</time>
      </trkpt>
      <trkpt lat="54.237643014639616" lon="-8.432703958824277">
        <ele>8.310000000000001</ele>
        <time>2026-07-04T15:15:27Z</time>
      </trkpt>
      <trkpt lat="54.237731024622917" lon="-8.432470019906759">
        <ele>7.83</ele>
        <time>2026-07-04T15:15:28Z</time>
      </trkpt>
      <trkpt lat="54.237811993807554" lon="-8.432013038545847">
        <ele>7.35</ele>
        <time>2026-07-04T15:15:30Z</time>
      </trkpt>
      <trkpt lat="54.23784501850605" lon="-8.431510040536523">
        <ele>6.87</ele>
        <time>2026-07-04T15:15:32Z</time>
      </trkpt>
      <trkpt lat="54.237855998799205" lon="-8.431254979223013">
        <ele>6.87</ele>
        <time>2026-07-04T15:15:33Z</time>
      </trkpt>
      <trkpt lat="54.237864967435598" lon="-8.431020034477115">
        <ele>6.87</ele>
        <time>2026-07-04T15:15:34Z</time>
      </trkpt>
      <trkpt lat="54.237877959385514" lon="-8.430818030610681">
        <ele>6.87</ele>
        <time>2026-07-04T15:15:35Z</time>
      </trkpt>
      <trkpt lat="54.237923976033926" lon="-8.430615020915866">
        <ele>7.35</ele>
        <time>2026-07-04T15:15:36Z</time>
      </trkpt>
      <trkpt lat="54.23797401599586" lon="-8.43040899373591">
        <ele>7.83</ele>
        <time>2026-07-04T15:15:37Z</time>
      </trkpt>
      <trkpt lat="54.238109970465302" lon="-8.429981013759971">
        <ele>8.789999999999999</ele>
        <time>2026-07-04T15:15:39Z</time>
      </trkpt>
      <trkpt lat="54.238242991268635" lon="-8.42952998355031">
        <ele>9.27</ele>
        <time>2026-07-04T15:15:41Z</time>
      </trkpt>
      <trkpt lat="54.23827501013875" lon="-8.42927098274231">
        <ele>9.75</ele>
        <time>2026-07-04T15:15:42Z</time>
      </trkpt>
      <trkpt lat="54.238300994038582" lon="-8.429014999419451">
        <ele>10.23</ele>
        <time>2026-07-04T15:15:43Z</time>
      </trkpt>
      <trkpt lat="54.238300994038582" lon="-8.428747029975057">
        <ele>10.23</ele>
        <time>2026-07-04T15:15:44Z</time>
      </trkpt>
      <trkpt lat="54.238300994038582" lon="-8.428473025560379">
        <ele>10.710000000000001</ele>
        <time>2026-07-04T15:15:45Z</time>
      </trkpt>
      <trkpt lat="54.238255983218551" lon="-8.426372017711401">
        <ele>13.6</ele>
        <time>2026-07-04T15:15:53Z</time>
      </trkpt>
      <trkpt lat="54.238221030682325" lon="-8.426122991368175">
        <ele>14.08</ele>
        <time>2026-07-04T15:15:54Z</time>
      </trkpt>
      <trkpt lat="54.23818901181221" lon="-8.425896009430289">
        <ele>14.56</ele>
        <time>2026-07-04T15:15:55Z</time>
      </trkpt>
      <trkpt lat="54.238159004598856" lon="-8.42568201944232">
        <ele>15.039999999999999</ele>
        <time>2026-07-04T15:15:56Z</time>
      </trkpt>
      <trkpt lat="54.238128997385502" lon="-8.425464006140828">
        <ele>15.039999999999999</ele>
        <time>2026-07-04T15:15:57Z</time>
      </trkpt>
      <trkpt lat="54.238098990172148" lon="-8.425254039466381">
        <ele>14.56</ele>
        <time>2026-07-04T15:15:58Z</time>
      </trkpt>
      <trkpt lat="54.238068982958794" lon="-8.42499403283">
        <ele>14.56</ele>
        <time>2026-07-04T15:15:59Z</time>
      </trkpt>
      <trkpt lat="54.238107036799192" lon="-8.424799991771579">
        <ele>14.08</ele>
        <time>2026-07-04T15:16:00Z</time>
      </trkpt>
      <trkpt lat="54.238149030134082" lon="-8.424592958763242">
        <ele>13.6</ele>
        <time>2026-07-04T15:16:01Z</time>
      </trkpt>
      <trkpt lat="54.238193035125732" lon="-8.424373017624021">
        <ele>13.119999999999999</ele>
        <time>2026-07-04T15:16:02Z</time>
      </trkpt>
      <trkpt lat="54.238286996260285" lon="-8.42389902099967">
        <ele>11.19</ele>
        <time>2026-07-04T15:16:04Z</time>
      </trkpt>
      <trkpt lat="54.238337036222219" lon="-8.423649994656444">
        <ele>10.23</ele>
        <time>2026-07-04T15:16:05Z</time>
      </trkpt>
      <trkpt lat="54.238385986536741" lon="-8.42340599745512">
        <ele>9.27</ele>
        <time>2026-07-04T15:16:06Z</time>
      </trkpt>
      <trkpt lat="54.238522024825215" lon="-8.422935018315911">
        <ele>8.789999999999999</ele>
        <time>2026-07-04T15:16:08Z</time>
      </trkpt>
      <trkpt lat="54.238591007888317" lon="-8.422715999186039">
        <ele>8.789999999999999</ele>
        <time>2026-07-04T15:16:09Z</time>
      </trkpt>
      <trkpt lat="54.238659990951419" lon="-8.422498991712928">
        <ele>8.310000000000001</ele>
        <time>2026-07-04T15:16:10Z</time>
      </trkpt>
      <trkpt lat="54.238702990114689" lon="-8.422277038916946">
        <ele>8.310000000000001</ele>
        <time>2026-07-04T15:16:11Z</time>
      </trkpt>
      <trkpt lat="54.238752024248242" lon="-8.422007979825139">
        <ele>7.83</ele>
        <time>2026-07-04T15:16:12Z</time>
      </trkpt>
      <trkpt lat="54.238772979006171" lon="-8.421767000108957">
        <ele>8.310000000000001</ele>
        <time>2026-07-04T15:16:13Z</time>
      </trkpt>
      <trkpt lat="54.238797035068274" lon="-8.421497019007802">
        <ele>8.310000000000001</ele>
        <time>2026-07-04T15:16:14Z</time>
      </trkpt>
      <trkpt lat="54.238867023959756" lon="-8.420711969956756">
        <ele>9.75</ele>
        <time>2026-07-04T15:16:17Z</time>
      </trkpt>
      <trkpt lat="54.238887978717685" lon="-8.420473001897335">
        <ele>10.710000000000001</ele>
        <time>2026-07-04T15:16:18Z</time>
      </trkpt>
      <trkpt lat="54.239144967868924" lon="-8.418885972350836">
        <ele>12.15</ele>
        <time>2026-07-04T15:16:24Z</time>
      </trkpt>
      <trkpt lat="54.239368010312319" lon="-8.416167972609401">
        <ele>11.19</ele>
        <time>2026-07-04T15:16:33Z</time>
      </trkpt>
      <trkpt lat="54.239321993663907" lon="-8.41395003721118">
        <ele>13.119999999999999</ele>
        <time>2026-07-04T15:16:40Z</time>
      </trkpt>
      <trkpt lat="54.239283017814159" lon="-8.413642002269626">
        <ele>14.56</ele>
        <time>2026-07-04T15:16:41Z</time>
      </trkpt>
      <trkpt lat="54.239244963973761" lon="-8.413338996469975">
        <ele>15.52</ele>
        <time>2026-07-04T15:16:42Z</time>
      </trkpt>
      <trkpt lat="54.238552032038569" lon="-8.411247041076422">
        <ele>22.73</ele>
        <time>2026-07-04T15:16:50Z</time>
      </trkpt>
      <trkpt lat="54.237526003271341" lon="-8.409573007375002">
        <ele>21.77</ele>
        <time>2026-07-04T15:16:58Z</time>
      </trkpt>
      <trkpt lat="54.236636012792587" lon="-8.408243972808123">
        <ele>23.210000000000001</ele>
        <time>2026-07-04T15:17:05Z</time>
      </trkpt>
      <trkpt lat="54.236294031143188" lon="-8.407619018107653">
        <ele>21.289999999999999</ele>
        <time>2026-07-04T15:17:08Z</time>
      </trkpt>
      <trkpt lat="54.235537983477116" lon="-8.405426982790232">
        <ele>11.67</ele>
        <time>2026-07-04T15:17:16Z</time>
      </trkpt>
      <trkpt lat="54.234987962990999" lon="-8.403887981548905">
        <ele>11.19</ele>
        <time>2026-07-04T15:17:22Z</time>
      </trkpt>
      <trkpt lat="54.234664002433419" lon="-8.403283981606364">
        <ele>9.75</ele>
        <time>2026-07-04T15:17:25Z</time>
      </trkpt>
      <trkpt lat="54.234531987458467" lon="-8.403115002438426">
        <ele>8.789999999999999</ele>
        <time>2026-07-04T15:17:26Z</time>
      </trkpt>
      <trkpt lat="54.233259027823806" lon="-8.402158040553331">
        <ele>2.54</ele>
        <time>2026-07-04T15:17:34Z</time>
      </trkpt>
      <trkpt lat="54.232957027852535" lon="-8.401982020586729">
        <ele>2.06</ele>
        <time>2026-07-04T15:17:36Z</time>
      </trkpt>
      <trkpt lat="54.232795005664229" lon="-8.401947990059853">
        <ele>2.06</ele>
        <time>2026-07-04T15:17:37Z</time>
      </trkpt>
      <trkpt lat="54.232460986822844" lon="-8.401957964524627">
        <ele>2.06</ele>
        <time>2026-07-04T15:17:39Z</time>
      </trkpt>
      <trkpt lat="54.232145994901657" lon="-8.401999035850167">
        <ele>3.02</ele>
        <time>2026-07-04T15:17:41Z</time>
      </trkpt>
      <trkpt lat="54.231995036825538" lon="-8.402082016691566">
        <ele>3.98</ele>
        <time>2026-07-04T15:17:42Z</time>
      </trkpt>
      <trkpt lat="54.231839971616864" lon="-8.402166003361344">
        <ele>4.46</ele>
        <time>2026-07-04T15:17:43Z</time>
      </trkpt>
      <trkpt lat="54.2316809669137" lon="-8.402268011122942">
        <ele>5.42</ele>
        <time>2026-07-04T15:17:44Z</time>
      </trkpt>
      <trkpt lat="54.231523973867297" lon="-8.402394996955991">
        <ele>5.91</ele>
        <time>2026-07-04T15:17:45Z</time>
      </trkpt>
      <trkpt lat="54.229950020089746" lon="-8.40355396270752">
        <ele>12.630000000000001</ele>
        <time>2026-07-04T15:17:55Z</time>
      </trkpt>
      <trkpt lat="54.229792021214962" lon="-8.403610959649086">
        <ele>13.119999999999999</ele>
        <time>2026-07-04T15:17:56Z</time>
      </trkpt>
      <trkpt lat="54.228404983878136" lon="-8.40361699461937">
        <ele>17.920000000000002</ele>
        <time>2026-07-04T15:18:04Z</time>
      </trkpt>
      <trkpt lat="54.226784007623792" lon="-8.40342496521771">
        <ele>19.84</ele>
        <time>2026-07-04T15:18:13Z</time>
      </trkpt>
      <trkpt lat="54.226443031802773" lon="-8.403353970497847">
        <ele>18.879999999999999</ele>
        <time>2026-07-04T15:18:15Z</time>
      </trkpt>
      <trkpt lat="54.2245680000633" lon="-8.402576968073845">
        <ele>20.809999999999999</ele>
        <time>2026-07-04T15:18:26Z</time>
      </trkpt>
      <trkpt lat="54.223333010450006" lon="-8.401558985933662">
        <ele>22.73</ele>
        <time>2026-07-04T15:18:34Z</time>
      </trkpt>
      <trkpt lat="54.222343023866415" lon="-8.400403037667275">
        <ele>27.050000000000001</ele>
        <time>2026-07-04T15:18:41Z</time>
      </trkpt>
      <trkpt lat="54.221445992588997" lon="-8.399079032242298">
        <ele>31.859999999999999</ele>
        <time>2026-07-04T15:18:48Z</time>
      </trkpt>
      <trkpt lat="54.2203130107373" lon="-8.397862985730171">
        <ele>29.940000000000001</ele>
        <time>2026-07-04T15:18:55Z</time>
      </trkpt>
      <trkpt lat="54.218445019796491" lon="-8.395768012851477">
        <ele>26.09</ele>
        <time>2026-07-04T15:19:06Z</time>
      </trkpt>
      <trkpt lat="54.216702003031969" lon="-8.393808994442225">
        <ele>28.02</ele>
        <time>2026-07-04T15:19:17Z</time>
      </trkpt>
      <trkpt lat="54.214606024324894" lon="-8.391481004655361">
        <ele>28.98</ele>
        <time>2026-07-04T15:19:30Z</time>
      </trkpt>
      <trkpt lat="54.212528988718987" lon="-8.389241024851799">
        <ele>31.379999999999999</ele>
        <time>2026-07-04T15:19:43Z</time>
      </trkpt>
      <trkpt lat="54.212207961827517" lon="-8.388966014608741">
        <ele>33.780000000000001</ele>
        <time>2026-07-04T15:19:45Z</time>
      </trkpt>
      <trkpt lat="54.211297016590834" lon="-8.388464022427797">
        <ele>40.509999999999998</ele>
        <time>2026-07-04T15:19:51Z</time>
      </trkpt>
      <trkpt lat="54.211201965808868" lon="-8.388365032151341">
        <ele>40.990000000000002</ele>
        <time>2026-07-04T15:19:52Z</time>
      </trkpt>
      <trkpt lat="54.211136000230908" lon="-8.38827601633966">
        <ele>41.950000000000003</ele>
        <time>2026-07-04T15:19:53Z</time>
      </trkpt>
      <trkpt lat="54.211093001067638" lon="-8.388107037171722">
        <ele>42.439999999999998</ele>
        <time>2026-07-04T15:19:54Z</time>
      </trkpt>
      <trkpt lat="54.211063999682665" lon="-8.387944009155035">
        <ele>43.399999999999999</ele>
        <time>2026-07-04T15:19:55Z</time>
      </trkpt>
      <trkpt lat="54.211046984419227" lon="-8.387749968096614">
        <ele>43.880000000000003</ele>
        <time>2026-07-04T15:19:56Z</time>
      </trkpt>
      <trkpt lat="54.211028041318059" lon="-8.387546958401799">
        <ele>43.880000000000003</ele>
        <time>2026-07-04T15:19:57Z</time>
      </trkpt>
      <trkpt lat="54.210980013012886" lon="-8.387342020869255">
        <ele>44.359999999999999</ele>
        <time>2026-07-04T15:19:58Z</time>
      </trkpt>
      <trkpt lat="54.210931984707713" lon="-8.387142028659582">
        <ele>44.359999999999999</ele>
        <time>2026-07-04T15:19:59Z</time>
      </trkpt>
      <trkpt lat="54.210868030786514" lon="-8.386944970116019">
        <ele>44.359999999999999</ele>
        <time>2026-07-04T15:20:00Z</time>
      </trkpt>
      <trkpt lat="54.210662003606558" lon="-8.386355973780155">
        <ele>45.799999999999997</ele>
        <time>2026-07-04T15:20:03Z</time>
      </trkpt>
      <trkpt lat="54.210612969473004" lon="-8.386164028197527">
        <ele>46.759999999999998</ele>
        <time>2026-07-04T15:20:04Z</time>
      </trkpt>
      <trkpt lat="54.210599977523088" lon="-8.385959006845951">
        <ele>47.240000000000002</ele>
        <time>2026-07-04T15:20:05Z</time>
      </trkpt>
      <trkpt lat="54.210604000836611" lon="-8.385739987716079">
        <ele>47.240000000000002</ele>
        <time>2026-07-04T15:20:06Z</time>
      </trkpt>
      <trkpt lat="54.210609029978514" lon="-8.385509988293052">
        <ele>47.240000000000002</ele>
        <time>2026-07-04T15:20:07Z</time>
      </trkpt>
      <trkpt lat="54.210628978908062" lon="-8.383004972711206">
        <ele>49.159999999999997</ele>
        <time>2026-07-04T15:20:16Z</time>
      </trkpt>
      <trkpt lat="54.210637025535107" lon="-8.381922030821443">
        <ele>50.609999999999999</ele>
        <time>2026-07-04T15:20:20Z</time>
      </trkpt>
      <trkpt lat="54.210643982514739" lon="-8.381699994206429">
        <ele>50.609999999999999</ele>
        <time>2026-07-04T15:20:21Z</time>
      </trkpt>
      <trkpt lat="54.210695028305054" lon="-8.381481980904937">
        <ele>51.090000000000003</ele>
        <time>2026-07-04T15:20:22Z</time>
      </trkpt>
      <trkpt lat="54.211123008280993" lon="-8.379533020779491">
        <ele>53.490000000000002</ele>
        <time>2026-07-04T15:20:29Z</time>
      </trkpt>
      <trkpt lat="54.211841002106667" lon="-8.376464992761612">
        <ele>62.619999999999997</ele>
        <time>2026-07-04T15:20:39Z</time>
      </trkpt>
      <trkpt lat="54.21189003624022" lon="-8.376218983903527">
        <ele>63.100000000000001</ele>
        <time>2026-07-04T15:20:40Z</time>
      </trkpt>
      <trkpt lat="54.211904034018517" lon="-8.375989990308881">
        <ele>64.549999999999997</ele>
        <time>2026-07-04T15:20:41Z</time>
      </trkpt>
      <trkpt lat="54.211894981563091" lon="-8.37577298283577">
        <ele>65.030000000000001</ele>
        <time>2026-07-04T15:20:42Z</time>
      </trkpt>
      <trkpt lat="54.211874026805162" lon="-8.375548012554646">
        <ele>66.469999999999999</ele>
        <time>2026-07-04T15:20:43Z</time>
      </trkpt>
      <trkpt lat="54.211851982399821" lon="-8.375318013131619">
        <ele>67.430000000000007</ele>
        <time>2026-07-04T15:20:44Z</time>
      </trkpt>
      <trkpt lat="54.211831027641892" lon="-8.375088013708592">
        <ele>67.909999999999997</ele>
        <time>2026-07-04T15:20:45Z</time>
      </trkpt>
      <trkpt lat="54.211834967136383" lon="-8.374842004850507">
        <ele>68.390000000000001</ele>
        <time>2026-07-04T15:20:46Z</time>
      </trkpt>
      <trkpt lat="54.211857011541724" lon="-8.374580992385745">
        <ele>68.870000000000005</ele>
        <time>2026-07-04T15:20:47Z</time>
      </trkpt>
      <trkpt lat="54.212053986266255" lon="-8.372386023402214">
        <ele>68.390000000000001</ele>
        <time>2026-07-04T15:20:55Z</time>
      </trkpt>
      <trkpt lat="54.212118024006486" lon="-8.372174967080355">
        <ele>68.390000000000001</ele>
        <time>2026-07-04T15:20:56Z</time>
      </trkpt>
      <trkpt lat="54.212182983756065" lon="-8.371967012062669">
        <ele>68.870000000000005</ele>
        <time>2026-07-04T15:20:57Z</time>
      </trkpt>
      <trkpt lat="54.212266970425844" lon="-8.371781017631292">
        <ele>68.870000000000005</ele>
        <time>2026-07-04T15:20:58Z</time>
      </trkpt>
      <trkpt lat="54.212364032864571" lon="-8.371612960472703">
        <ele>68.870000000000005</ele>
        <time>2026-07-04T15:20:59Z</time>
      </trkpt>
      <trkpt lat="54.212457993999124" lon="-8.371458984911442">
        <ele>68.390000000000001</ele>
        <time>2026-07-04T15:21:00Z</time>
      </trkpt>
      <trkpt lat="54.212566958740354" lon="-8.37132696993649">
        <ele>68.390000000000001</ele>
        <time>2026-07-04T15:21:01Z</time>
      </trkpt>
      <trkpt lat="54.212788995355368" lon="-8.371062017977238">
        <ele>68.390000000000001</ele>
        <time>2026-07-04T15:21:03Z</time>
      </trkpt>
      <trkpt lat="54.21290198341012" lon="-8.370910976082087">
        <ele>68.870000000000005</ele>
        <time>2026-07-04T15:21:04Z</time>
      </trkpt>
      <trkpt lat="54.213011031970382" lon="-8.370720036327839">
        <ele>68.390000000000001</ele>
        <time>2026-07-04T15:21:05Z</time>
      </trkpt>
      <trkpt lat="54.213539008051157" lon="-8.369651008397341">
        <ele>68.390000000000001</ele>
        <time>2026-07-04T15:21:10Z</time>
      </trkpt>
      <trkpt lat="54.213616037741303" lon="-8.369383960962296">
        <ele>67.909999999999997</ele>
        <time>2026-07-04T15:21:11Z</time>
      </trkpt>
      <trkpt lat="54.21427602879703" lon="-8.367063011974096">
        <ele>70.310000000000002</ele>
        <time>2026-07-04T15:21:19Z</time>
      </trkpt>
      <trkpt lat="54.214654974639416" lon="-8.365573966875672">
        <ele>71.760000000000005</ele>
        <time>2026-07-04T15:21:24Z</time>
      </trkpt>
      <trkpt lat="54.214699985459447" lon="-8.365287976339459">
        <ele>72.239999999999995</ele>
        <time>2026-07-04T15:21:25Z</time>
      </trkpt>
      <trkpt lat="54.214708032086492" lon="-8.364997040480375">
        <ele>71.760000000000005</ele>
        <time>2026-07-04T15:21:26Z</time>
      </trkpt>
      <trkpt lat="54.214689005166292" lon="-8.364706020802259">
        <ele>71.760000000000005</ele>
        <time>2026-07-04T15:21:27Z</time>
      </trkpt>
      <trkpt lat="54.214669978246093" lon="-8.36440796032548">
        <ele>71.760000000000005</ele>
        <time>2026-07-04T15:21:28Z</time>
      </trkpt>
      <trkpt lat="54.214651035144925" lon="-8.364100009202957">
        <ele>70.790000000000006</ele>
        <time>2026-07-04T15:21:29Z</time>
      </trkpt>
      <trkpt lat="54.214612981304526" lon="-8.363507995381951">
        <ele>69.349999999999994</ele>
        <time>2026-07-04T15:21:31Z</time>
      </trkpt>
      <trkpt lat="54.214647011831403" lon="-8.363213958218694">
        <ele>68.390000000000001</ele>
        <time>2026-07-04T15:21:32Z</time>
      </trkpt>
      <trkpt lat="54.21468498185277" lon="-8.362906007096171">
        <ele>67.430000000000007</ele>
        <time>2026-07-04T15:21:33Z</time>
      </trkpt>
      <trkpt lat="54.214724041521549" lon="-8.362590009346604">
        <ele>66.950000000000003</ele>
        <time>2026-07-04T15:21:34Z</time>
      </trkpt>
      <trkpt lat="54.214765029028058" lon="-8.362266970798373">
        <ele>66.469999999999999</ele>
        <time>2026-07-04T15:21:35Z</time>
      </trkpt>
      <trkpt lat="54.215138023719192" lon="-8.360000001266599">
        <ele>62.140000000000001</ele>
        <time>2026-07-04T15:21:42Z</time>
      </trkpt>
      <trkpt lat="54.215227039530873" lon="-8.359749969094992">
        <ele>61.659999999999997</ele>
        <time>2026-07-04T15:21:43Z</time>
      </trkpt>
      <trkpt lat="54.215332986786962" lon="-8.359531033784151">
        <ele>61.18</ele>
        <time>2026-07-04T15:21:44Z</time>
      </trkpt>
      <trkpt lat="54.215433988720179" lon="-8.359322994947434">
        <ele>61.18</ele>
        <time>2026-07-04T15:21:45Z</time>
      </trkpt>
      <trkpt lat="54.215531973168254" lon="-8.359119985252619">
        <ele>61.659999999999997</ele>
        <time>2026-07-04T15:21:46Z</time>
      </trkpt>
      <trkpt lat="54.215606991201639" lon="-8.358914963901043">
        <ele>61.659999999999997</ele>
        <time>2026-07-04T15:21:47Z</time>
      </trkpt>
      <trkpt lat="54.215679997578263" lon="-8.358715977519751">
        <ele>62.140000000000001</ele>
        <time>2026-07-04T15:21:48Z</time>
      </trkpt>
      <trkpt lat="54.215711010619998" lon="-8.358502993360162">
        <ele>62.140000000000001</ele>
        <time>2026-07-04T15:21:49Z</time>
      </trkpt>
      <trkpt lat="54.215719979256392" lon="-8.358254972845316">
        <ele>62.140000000000001</ele>
        <time>2026-07-04T15:21:50Z</time>
      </trkpt>
      <trkpt lat="54.215722996741533" lon="-8.357989015057683">
        <ele>62.619999999999997</ele>
        <time>2026-07-04T15:21:51Z</time>
      </trkpt>
      <trkpt lat="54.215700030326843" lon="-8.357692966237664">
        <ele>63.100000000000001</ele>
        <time>2026-07-04T15:21:52Z</time>
      </trkpt>
      <trkpt lat="54.215526022017002" lon="-8.355530016124249">
        <ele>65.989999999999995</ele>
        <time>2026-07-04T15:21:59Z</time>
      </trkpt>
      <trkpt lat="54.215477993711829" lon="-8.355243019759655">
        <ele>65.989999999999995</ele>
        <time>2026-07-04T15:22:00Z</time>
      </trkpt>
      <trkpt lat="54.215396018698812" lon="-8.354962980374694">
        <ele>65.510000000000005</ele>
        <time>2026-07-04T15:22:01Z</time>
      </trkpt>
      <trkpt lat="54.215236008167267" lon="-8.354418994858861">
        <ele>63.579999999999998</ele>
        <time>2026-07-04T15:22:03Z</time>
      </trkpt>
      <trkpt lat="54.215160990133882" lon="-8.354162005707622">
        <ele>62.619999999999997</ele>
        <time>2026-07-04T15:22:04Z</time>
      </trkpt>
      <trkpt lat="54.21509301289916" lon="-8.353932006284595">
        <ele>61.18</ele>
        <time>2026-07-04T15:22:05Z</time>
      </trkpt>
      <trkpt lat="54.215083960443735" lon="-8.353732014074922">
        <ele>60.219999999999999</ele>
        <time>2026-07-04T15:22:06Z</time>
      </trkpt>
      <trkpt lat="54.215103993192315" lon="-8.353564040735364">
        <ele>59.259999999999998</ele>
        <time>2026-07-04T15:22:07Z</time>
      </trkpt>
      <trkpt lat="54.215151015669107" lon="-8.353376034647226">
        <ele>57.82</ele>
        <time>2026-07-04T15:22:08Z</time>
      </trkpt>
      <trkpt lat="54.2151980381459" lon="-8.353167995810509">
        <ele>56.369999999999997</ele>
        <time>2026-07-04T15:22:09Z</time>
      </trkpt>
      <trkpt lat="54.215241959318519" lon="-8.352957023307681">
        <ele>54.450000000000003</ele>
        <time>2026-07-04T15:22:10Z</time>
      </trkpt>
      <trkpt lat="54.21528697013855" lon="-8.352746972814202">
        <ele>53.490000000000002</ele>
        <time>2026-07-04T15:22:11Z</time>
      </trkpt>
      <trkpt lat="54.215314965695143" lon="-8.352515967562795">
        <ele>52.049999999999997</ele>
        <time>2026-07-04T15:22:12Z</time>
      </trkpt>
      <trkpt lat="54.215300967916846" lon="-8.352282028645277">
        <ele>51.090000000000003</ele>
        <time>2026-07-04T15:22:13Z</time>
      </trkpt>
      <trkpt lat="54.21528697013855" lon="-8.352039959281683">
        <ele>49.649999999999999</ele>
        <time>2026-07-04T15:22:14Z</time>
      </trkpt>
      <trkpt lat="54.215256040915847" lon="-8.351528998464346">
        <ele>48.200000000000003</ele>
        <time>2026-07-04T15:22:16Z</time>
      </trkpt>
      <trkpt lat="54.215255035087466" lon="-8.351267985999584">
        <ele>47.240000000000002</ele>
        <time>2026-07-04T15:22:17Z</time>
      </trkpt>
      <trkpt lat="54.215190997347236" lon="-8.350253021344543">
        <ele>43.399999999999999</ele>
        <time>2026-07-04T15:22:21Z</time>
      </trkpt>
      <trkpt lat="54.21513601206243" lon="-8.35003400221467">
        <ele>42.439999999999998</ele>
        <time>2026-07-04T15:22:22Z</time>
      </trkpt>
      <trkpt lat="54.21507298015058" lon="-8.349851025268436">
        <ele>41.469999999999999</ele>
        <time>2026-07-04T15:22:23Z</time>
      </trkpt>
      <trkpt lat="54.214987987652421" lon="-8.349696965888143">
        <ele>40.509999999999998</ele>
        <time>2026-07-04T15:22:24Z</time>
      </trkpt>
      <trkpt lat="54.214906012639403" lon="-8.349547013640404">
        <ele>40.030000000000001</ele>
        <time>2026-07-04T15:22:25Z</time>
      </trkpt>
      <trkpt lat="54.214824959635735" lon="-8.349401000887156">
        <ele>39.07</ele>
        <time>2026-07-04T15:22:26Z</time>
      </trkpt>
      <trkpt lat="54.214746002107859" lon="-8.349258005619049">
        <ele>38.590000000000003</ele>
        <time>2026-07-04T15:22:27Z</time>
      </trkpt>
      <trkpt lat="54.214670984074473" lon="-8.349120039492846">
        <ele>38.590000000000003</ele>
        <time>2026-07-04T15:22:28Z</time>
      </trkpt>
      <trkpt lat="54.21462002210319" lon="-8.348960028961301">
        <ele>38.109999999999999</ele>
        <time>2026-07-04T15:22:29Z</time>
      </trkpt>
      <trkpt lat="54.214594960212708" lon="-8.34878602065146">
        <ele>38.109999999999999</ele>
        <time>2026-07-04T15:22:30Z</time>
      </trkpt>
      <trkpt lat="54.214570987969637" lon="-8.348617041483522">
        <ele>37.630000000000003</ele>
        <time>2026-07-04T15:22:31Z</time>
      </trkpt>
      <trkpt lat="54.214479038491845" lon="-8.347938023507595">
        <ele>37.149999999999999</ele>
        <time>2026-07-04T15:22:35Z</time>
      </trkpt>
      <trkpt lat="54.214484989643097" lon="-8.347722021862865">
        <ele>37.149999999999999</ele>
        <time>2026-07-04T15:22:36Z</time>
      </trkpt>
      <trkpt lat="54.214532012119889" lon="-8.347552036866546">
        <ele>37.149999999999999</ele>
        <time>2026-07-04T15:22:37Z</time>
      </trkpt>
      <trkpt lat="54.214581968262792" lon="-8.347371993586421">
        <ele>37.149999999999999</ele>
        <time>2026-07-04T15:22:38Z</time>
      </trkpt>
      <trkpt lat="54.214634019881487" lon="-8.347181975841522">
        <ele>37.630000000000003</ele>
        <time>2026-07-04T15:22:39Z</time>
      </trkpt>
      <trkpt lat="54.215108016505837" lon="-8.345428984612227">
        <ele>39.549999999999997</ele>
        <time>2026-07-04T15:22:47Z</time>
      </trkpt>
      <trkpt lat="54.215535996481776" lon="-8.344378983601928">
        <ele>39.549999999999997</ele>
        <time>2026-07-04T15:22:52Z</time>
      </trkpt>
      <trkpt lat="54.215643033385277" lon="-8.344226013869047">
        <ele>39.07</ele>
        <time>2026-07-04T15:22:53Z</time>
      </trkpt>
      <trkpt lat="54.215762978419662" lon="-8.344083018600941">
        <ele>39.07</ele>
        <time>2026-07-04T15:22:54Z</time>
      </trkpt>
      <trkpt lat="54.216608963906765" lon="-8.342823972925544">
        <ele>38.109999999999999</ele>
        <time>2026-07-04T15:23:01Z</time>
      </trkpt>
      <trkpt lat="54.217610014602542" lon="-8.341142982244492">
        <ele>37.630000000000003</ele>
        <time>2026-07-04T15:23:10Z</time>
      </trkpt>
      <trkpt lat="54.217753009870648" lon="-8.341027982532978">
        <ele>37.630000000000003</ele>
        <time>2026-07-04T15:23:11Z</time>
      </trkpt>
      <trkpt lat="54.218952963128686" lon="-8.340068003162742">
        <ele>37.149999999999999</ele>
        <time>2026-07-04T15:23:19Z</time>
      </trkpt>
      <trkpt lat="54.219458978623152" lon="-8.339579002931714">
        <ele>34.259999999999998</ele>
        <time>2026-07-04T15:23:23Z</time>
      </trkpt>
      <trkpt lat="54.219550006091595" lon="-8.339398959651589">
        <ele>33.299999999999997</ele>
        <time>2026-07-04T15:23:24Z</time>
      </trkpt>
      <trkpt lat="54.219643967226148" lon="-8.339194022119045">
        <ele>32.82</ele>
        <time>2026-07-04T15:23:25Z</time>
      </trkpt>
      <trkpt lat="54.220558013767004" lon="-8.337155040353537">
        <ele>25.129999999999999</ele>
        <time>2026-07-04T15:23:33Z</time>
      </trkpt>
      <trkpt lat="54.221450015902519" lon="-8.335070963948965">
        <ele>26.57</ele>
        <time>2026-07-04T15:23:41Z</time>
      </trkpt>
      <trkpt lat="54.221540037542582" lon="-8.33480198867619">
        <ele>26.57</ele>
        <time>2026-07-04T15:23:42Z</time>
      </trkpt>
      <trkpt lat="54.222105983644724" lon="-8.331976030021906">
        <ele>27.530000000000001</ele>
        <time>2026-07-04T15:23:51Z</time>
      </trkpt>
      <trkpt lat="54.222585009410977" lon="-8.329155016690493">
        <ele>33.299999999999997</ele>
        <time>2026-07-04T15:24:00Z</time>
      </trkpt>
      <trkpt lat="54.223423032090068" lon="-8.325803009793162">
        <ele>42.439999999999998</ele>
        <time>2026-07-04T15:24:11Z</time>
      </trkpt>
      <trkpt lat="54.224389968439937" lon="-8.322801031172276">
        <ele>45.799999999999997</ele>
        <time>2026-07-04T15:24:21Z</time>
      </trkpt>
      <trkpt lat="54.225465031340718" lon="-8.320012036710978">
        <ele>45.799999999999997</ele>
        <time>2026-07-04T15:24:31Z</time>
      </trkpt>
      <trkpt lat="54.225764013826847" lon="-8.319345004856587">
        <ele>48.200000000000003</ele>
        <time>2026-07-04T15:24:34Z</time>
      </trkpt>
      <trkpt lat="54.22581497579813" lon="-8.319100001826882">
        <ele>49.159999999999997</ele>
        <time>2026-07-04T15:24:35Z</time>
      </trkpt>
      <trkpt lat="54.225863004103303" lon="-8.318846030160785">
        <ele>49.159999999999997</ele>
        <time>2026-07-04T15:24:36Z</time>
      </trkpt>
      <trkpt lat="54.226359967142344" lon="-8.316995976492763">
        <ele>50.130000000000003</ele>
        <time>2026-07-04T15:24:43Z</time>
      </trkpt>
      <trkpt lat="54.227288011461496" lon="-8.314029034227133">
        <ele>47.719999999999999</ele>
        <time>2026-07-04T15:24:55Z</time>
      </trkpt>
      <trkpt lat="54.227710040286183" lon="-8.312421971932054">
        <ele>46.759999999999998</ele>
        <time>2026-07-04T15:25:01Z</time>
      </trkpt>
      <trkpt lat="54.227788997814059" lon="-8.312148973345757">
        <ele>45.799999999999997</ele>
        <time>2026-07-04T15:25:02Z</time>
      </trkpt>
      <trkpt lat="54.228141959756613" lon="-8.311194023117423">
        <ele>40.990000000000002</ele>
        <time>2026-07-04T15:25:06Z</time>
      </trkpt>
      <trkpt lat="54.228195017203689" lon="-8.310981038957834">
        <ele>40.030000000000001</ele>
        <time>2026-07-04T15:25:07Z</time>
      </trkpt>
      <trkpt lat="54.228226030245423" lon="-8.310765959322453">
        <ele>39.07</ele>
        <time>2026-07-04T15:25:08Z</time>
      </trkpt>
      <trkpt lat="54.2282410338521" lon="-8.310560015961528">
        <ele>38.109999999999999</ele>
        <time>2026-07-04T15:25:09Z</time>
      </trkpt>
      <trkpt lat="54.228256959468126" lon="-8.310354994609952">
        <ele>37.630000000000003</ele>
        <time>2026-07-04T15:25:10Z</time>
      </trkpt>
      <trkpt lat="54.22828696668148" lon="-8.309951992705464">
        <ele>36.670000000000002</ele>
        <time>2026-07-04T15:25:12Z</time>
      </trkpt>
      <trkpt lat="54.228211026638746" lon="-8.308192966505885">
        <ele>34.740000000000002</ele>
        <time>2026-07-04T15:25:19Z</time>
      </trkpt>
      <trkpt lat="54.22815696336329" lon="-8.307659961283207">
        <ele>34.259999999999998</ele>
        <time>2026-07-04T15:25:21Z</time>
      </trkpt>
      <trkpt lat="54.228129973635077" lon="-8.307401966303587">
        <ele>34.740000000000002</ele>
        <time>2026-07-04T15:25:22Z</time>
      </trkpt>
      <trkpt lat="54.22806903719902" lon="-8.307166015729308">
        <ele>34.259999999999998</ele>
        <time>2026-07-04T15:25:23Z</time>
      </trkpt>
      <trkpt lat="54.228007011115551" lon="-8.306926041841507">
        <ele>34.259999999999998</ele>
        <time>2026-07-04T15:25:24Z</time>
      </trkpt>
      <trkpt lat="54.227932998910546" lon="-8.306713979691267">
        <ele>34.259999999999998</ele>
        <time>2026-07-04T15:25:25Z</time>
      </trkpt>
      <trkpt lat="54.227848006412387" lon="-8.306519016623497">
        <ele>34.740000000000002</ele>
        <time>2026-07-04T15:25:26Z</time>
      </trkpt>
      <trkpt lat="54.227763013914227" lon="-8.306326987221837">
        <ele>35.229999999999997</ele>
        <time>2026-07-04T15:25:27Z</time>
      </trkpt>
      <trkpt lat="54.227649020031095" lon="-8.306166976690292">
        <ele>35.229999999999997</ele>
        <time>2026-07-04T15:25:28Z</time>
      </trkpt>
      <trkpt lat="54.226075988262892" lon="-8.304067980498076">
        <ele>41.469999999999999</ele>
        <time>2026-07-04T15:25:41Z</time>
      </trkpt>
      <trkpt lat="54.225978003814816" lon="-8.303891038522124">
        <ele>41.950000000000003</ele>
        <time>2026-07-04T15:25:42Z</time>
      </trkpt>
      <trkpt lat="54.225614983588457" lon="-8.302825028076768">
        <ele>42.920000000000002</ele>
        <time>2026-07-04T15:25:47Z</time>
      </trkpt>
      <trkpt lat="54.225593023002148" lon="-8.302597962319851">
        <ele>42.920000000000002</ele>
        <time>2026-07-04T15:25:48Z</time>
      </trkpt>
      <trkpt lat="54.225584976375103" lon="-8.302369974553585">
        <ele>42.439999999999998</ele>
        <time>2026-07-04T15:25:49Z</time>
      </trkpt>
      <trkpt lat="54.225595034658909" lon="-8.301889020949602">
        <ele>40.990000000000002</ele>
        <time>2026-07-04T15:25:51Z</time>
      </trkpt>
      <trkpt lat="54.225612971931696" lon="-8.301642006263137">
        <ele>40.509999999999998</ele>
        <time>2026-07-04T15:25:52Z</time>
      </trkpt>
      <trkpt lat="54.225713973864913" lon="-8.301013028249145">
        <ele>39.07</ele>
        <time>2026-07-04T15:25:55Z</time>
      </trkpt>
      <trkpt lat="54.225770970806479" lon="-8.300847988575697">
        <ele>38.590000000000003</ele>
        <time>2026-07-04T15:25:56Z</time>
      </trkpt>
      <trkpt lat="54.226012034341693" lon="-8.300333004444838">
        <ele>36.189999999999998</ele>
        <time>2026-07-04T15:26:00Z</time>
      </trkpt>
      <trkpt lat="54.226042041555047" lon="-8.300225967541337">
        <ele>35.710000000000001</ele>
        <time>2026-07-04T15:26:01Z</time>
      </trkpt>
      <trkpt lat="54.226056961342692" lon="-8.300150027498603">
        <ele>34.740000000000002</ele>
        <time>2026-07-04T15:26:02Z</time>
      </trkpt>
      <trkpt lat="54.226071964949369" lon="-8.300076015293598">
        <ele>32.82</ele>
        <time>2026-07-04T15:26:09Z</time>
      </trkpt>
      <trkpt lat="54.226058972999454" lon="-8.299977025017142">
        <ele>32.82</ele>
        <time>2026-07-04T15:26:10Z</time>
      </trkpt>
      <trkpt lat="54.226031983271241" lon="-8.299977025017142">
        <ele>32.340000000000003</ele>
        <time>2026-07-04T15:26:11Z</time>
      </trkpt>
      <trkpt lat="54.2259840387851" lon="-8.299976019188762">
        <ele>31.859999999999999</ele>
        <time>2026-07-04T15:26:12Z</time>
      </trkpt>
      <trkpt lat="54.225916983559728" lon="-8.299974007532001">
        <ele>31.379999999999999</ele>
        <time>2026-07-04T15:26:13Z</time>
      </trkpt>
      <trkpt lat="54.225840959697962" lon="-8.29997300170362">
        <ele>30.899999999999999</ele>
        <time>2026-07-04T15:26:14Z</time>
      </trkpt>
      <trkpt lat="54.225068986415863" lon="-8.299954980611801">
        <ele>28.98</ele>
        <time>2026-07-04T15:26:21Z</time>
      </trkpt>
      <trkpt lat="54.223694019019604" lon="-8.299703020602465">
        <ele>24.170000000000002</ele>
        <time>2026-07-04T15:26:30Z</time>
      </trkpt>
      <trkpt lat="54.222428016364574" lon="-8.299318961799145">
        <ele>24.170000000000002</ele>
        <time>2026-07-04T15:26:39Z</time>
      </trkpt>
      <trkpt lat="54.221139969304204" lon="-8.298555035144091">
        <ele>23.690000000000001</ele>
        <time>2026-07-04T15:26:50Z</time>
      </trkpt>
      <trkpt lat="54.220864037051797" lon="-8.298291005194187">
        <ele>22.73</ele>
        <time>2026-07-04T15:26:53Z</time>
      </trkpt>
      <trkpt lat="54.220792958512902" lon="-8.298177011311054">
        <ele>21.289999999999999</ele>
        <time>2026-07-04T15:26:54Z</time>
      </trkpt>
      <trkpt lat="54.220749037340283" lon="-8.2980399671942">
        <ele>20.32</ele>
        <time>2026-07-04T15:26:55Z</time>
      </trkpt>
      <trkpt lat="54.220660021528602" lon="-8.297762023285031">
        <ele>18.399999999999999</ele>
        <time>2026-07-04T15:26:57Z</time>
      </trkpt>
      <trkpt lat="54.220601012930274" lon="-8.297640988603234">
        <ele>16.960000000000001</ele>
        <time>2026-07-04T15:26:58Z</time>
      </trkpt>
      <trkpt lat="54.220527000725269" lon="-8.29752397723496">
        <ele>15.52</ele>
        <time>2026-07-04T15:26:59Z</time>
      </trkpt>
      <trkpt lat="54.220441002398729" lon="-8.297428004443646">
        <ele>14.56</ele>
        <time>2026-07-04T15:27:00Z</time>
      </trkpt>
      <trkpt lat="54.220337988808751" lon="-8.297348963096738">
        <ele>14.08</ele>
        <time>2026-07-04T15:27:01Z</time>
      </trkpt>
      <trkpt lat="54.220232041552663" lon="-8.29726698808372">
        <ele>14.08</ele>
        <time>2026-07-04T15:27:02Z</time>
      </trkpt>
      <trkpt lat="54.219163013622165" lon="-8.296445980668068">
        <ele>16</ele>
        <time>2026-07-04T15:27:11Z</time>
      </trkpt>
      <trkpt lat="54.21906896866858" lon="-8.296314971521497">
        <ele>16</ele>
        <time>2026-07-04T15:27:12Z</time>
      </trkpt>
      <trkpt lat="54.218977019190788" lon="-8.296187985688448">
        <ele>15.52</ele>
        <time>2026-07-04T15:27:13Z</time>
      </trkpt>
      <trkpt lat="54.218902001157403" lon="-8.295978019014001">
        <ele>15.52</ele>
        <time>2026-07-04T15:27:14Z</time>
      </trkpt>
      <trkpt lat="54.218865036964417" lon="-8.29576201736927">
        <ele>15.039999999999999</ele>
        <time>2026-07-04T15:27:15Z</time>
      </trkpt>
      <trkpt lat="54.218826983124018" lon="-8.295536041259766">
        <ele>14.56</ele>
        <time>2026-07-04T15:27:16Z</time>
      </trkpt>
      <trkpt lat="54.218352986499667" lon="-8.292719973251224">
        <ele>4.94</ele>
        <time>2026-07-04T15:27:27Z</time>
      </trkpt>
      <trkpt lat="54.218004969879985" lon="-8.290216969326139">
        <ele>4.46</ele>
        <time>2026-07-04T15:27:36Z</time>
      </trkpt>
      <trkpt lat="54.217989966273308" lon="-8.289968026801944">
        <ele>4.94</ele>
        <time>2026-07-04T15:27:37Z</time>
      </trkpt>
      <trkpt lat="54.217994995415211" lon="-8.289706008508802">
        <ele>5.42</ele>
        <time>2026-07-04T15:27:38Z</time>
      </trkpt>
      <trkpt lat="54.218032965436578" lon="-8.289454970508814">
        <ele>6.39</ele>
        <time>2026-07-04T15:27:39Z</time>
      </trkpt>
      <trkpt lat="54.218070013448596" lon="-8.289199993014336">
        <ele>6.87</ele>
        <time>2026-07-04T15:27:40Z</time>
      </trkpt>
      <trkpt lat="54.218698991462588" lon="-8.286110004410148">
        <ele>14.56</ele>
        <time>2026-07-04T15:27:51Z</time>
      </trkpt>
      <trkpt lat="54.219293016940355" lon="-8.283183965831995">
        <ele>19.359999999999999</ele>
        <time>2026-07-04T15:28:01Z</time>
      </trkpt>
      <trkpt lat="54.219299973919988" lon="-8.282918008044362">
        <ele>19.359999999999999</ele>
        <time>2026-07-04T15:28:02Z</time>
      </trkpt>
      <trkpt lat="54.219307014718652" lon="-8.282653978094459">
        <ele>19.359999999999999</ele>
        <time>2026-07-04T15:28:03Z</time>
      </trkpt>
      <trkpt lat="54.219299973919988" lon="-8.282380979508162">
        <ele>19.359999999999999</ele>
        <time>2026-07-04T15:28:04Z</time>
      </trkpt>
      <trkpt lat="54.219273990020156" lon="-8.282108986750245">
        <ele>19.84</ele>
        <time>2026-07-04T15:28:05Z</time>
      </trkpt>
      <trkpt lat="54.219221016392112" lon="-8.281574975699186">
        <ele>19.84</ele>
        <time>2026-07-04T15:28:07Z</time>
      </trkpt>
      <trkpt lat="54.219211963936687" lon="-8.281339025124908">
        <ele>19.84</ele>
        <time>2026-07-04T15:28:08Z</time>
      </trkpt>
      <trkpt lat="54.219249011948705" lon="-8.281097961589694">
        <ele>19.84</ele>
        <time>2026-07-04T15:28:09Z</time>
      </trkpt>
      <trkpt lat="54.219286981970072" lon="-8.280851030722261">
        <ele>19.84</ele>
        <time>2026-07-04T15:28:10Z</time>
      </trkpt>
      <trkpt lat="54.219326041638851" lon="-8.280602004379034">
        <ele>20.32</ele>
        <time>2026-07-04T15:28:11Z</time>
      </trkpt>
      <trkpt lat="54.21938999556005" lon="-8.280369993299246">
        <ele>20.32</ele>
        <time>2026-07-04T15:28:12Z</time>
      </trkpt>
      <trkpt lat="54.220072031021118" lon="-8.278547013178468">
        <ele>20.32</ele>
        <time>2026-07-04T15:28:20Z</time>
      </trkpt>
      <trkpt lat="54.22076303511858" lon="-8.277104990556836">
        <ele>21.77</ele>
        <time>2026-07-04T15:28:28Z</time>
      </trkpt>
      <trkpt lat="54.221518998965621" lon="-8.274853024631739">
        <ele>17.440000000000001</ele>
        <time>2026-07-04T15:28:38Z</time>
      </trkpt>
      <trkpt lat="54.221650008112192" lon="-8.274442981928587">
        <ele>16</ele>
        <time>2026-07-04T15:28:40Z</time>
      </trkpt>
      <trkpt lat="54.221658976748586" lon="-8.274214994162321">
        <ele>15.039999999999999</ele>
        <time>2026-07-04T15:28:41Z</time>
      </trkpt>
      <trkpt lat="54.221669035032392" lon="-8.273973008617759">
        <ele>14.56</ele>
        <time>2026-07-04T15:28:42Z</time>
      </trkpt>
      <trkpt lat="54.22170901671052" lon="-8.272972041741014">
        <ele>13.6</ele>
        <time>2026-07-04T15:28:46Z</time>
      </trkpt>
      <trkpt lat="54.221738018095493" lon="-8.272727960720658">
        <ele>13.6</ele>
        <time>2026-07-04T15:28:47Z</time>
      </trkpt>
      <trkpt lat="54.221787974238396" lon="-8.272506007924676">
        <ele>13.6</ele>
        <time>2026-07-04T15:28:48Z</time>
      </trkpt>
      <trkpt lat="54.22183801420033" lon="-8.272284977138042">
        <ele>14.08</ele>
        <time>2026-07-04T15:28:49Z</time>
      </trkpt>
      <trkpt lat="54.221888976171613" lon="-8.27206201851368">
        <ele>15.039999999999999</ele>
        <time>2026-07-04T15:28:50Z</time>
      </trkpt>
      <trkpt lat="54.221940021961927" lon="-8.271837970241904">
        <ele>15.039999999999999</ele>
        <time>2026-07-04T15:28:51Z</time>
      </trkpt>
      <trkpt lat="54.222624991089106" lon="-8.269909964874387">
        <ele>20.32</ele>
        <time>2026-07-04T15:29:01Z</time>
      </trkpt>
      <trkpt lat="54.222695985808969" lon="-8.269770992919803">
        <ele>20.809999999999999</ele>
        <time>2026-07-04T15:29:02Z</time>
      </trkpt>
      <trkpt lat="54.222795981913805" lon="-8.269670996814966">
        <ele>21.289999999999999</ele>
        <time>2026-07-04T15:29:03Z</time>
      </trkpt>
      <trkpt lat="54.224184025079012" lon="-8.268843032419682">
        <ele>23.210000000000001</ele>
        <time>2026-07-04T15:29:14Z</time>
      </trkpt>
      <trkpt lat="54.224589038640261" lon="-8.268603980541229">
        <ele>24.170000000000002</ele>
        <time>2026-07-04T15:29:17Z</time>
      </trkpt>
      <trkpt lat="54.224704038351774" lon="-8.268470037728548">
        <ele>24.649999999999999</ele>
        <time>2026-07-04T15:29:18Z</time>
      </trkpt>
      <trkpt lat="54.224820965901017" lon="-8.268333999440074">
        <ele>25.129999999999999</ele>
        <time>2026-07-04T15:29:19Z</time>
      </trkpt>
      <trkpt lat="54.22495398670435" lon="-8.268178012222052">
        <ele>25.609999999999999</ele>
        <time>2026-07-04T15:29:20Z</time>
      </trkpt>
      <trkpt lat="54.225038979202509" lon="-8.267998974770308">
        <ele>25.609999999999999</ele>
        <time>2026-07-04T15:29:21Z</time>
      </trkpt>
      <trkpt lat="54.225135035812855" lon="-8.267797976732254">
        <ele>26.09</ele>
        <time>2026-07-04T15:29:22Z</time>
      </trkpt>
      <trkpt lat="54.226225018501282" lon="-8.265294972807169">
        <ele>29.460000000000001</ele>
        <time>2026-07-04T15:29:33Z</time>
      </trkpt>
      <trkpt lat="54.226435991004109" lon="-8.264959026128054">
        <ele>29.460000000000001</ele>
        <time>2026-07-04T15:29:35Z</time>
      </trkpt>
      <trkpt lat="54.226544033735991" lon="-8.264788035303354">
        <ele>28.98</ele>
        <time>2026-07-04T15:29:36Z</time>
      </trkpt>
      <trkpt lat="54.22667495906353" lon="-8.264654008671641">
        <ele>28.98</ele>
        <time>2026-07-04T15:29:37Z</time>
      </trkpt>
      <trkpt lat="54.22828696668148" lon="-8.263419019058347">
        <ele>27.530000000000001</ele>
        <time>2026-07-04T15:29:47Z</time>
      </trkpt>
      <trkpt lat="54.228881997987628" lon="-8.262839997187257">
        <ele>28.98</ele>
        <time>2026-07-04T15:29:51Z</time>
      </trkpt>
      <trkpt lat="54.229018958285451" lon="-8.26267403550446">
        <ele>29.460000000000001</ele>
        <time>2026-07-04T15:29:52Z</time>
      </trkpt>
      <trkpt lat="54.229148039594293" lon="-8.262490974739194">
        <ele>30.420000000000002</ele>
        <time>2026-07-04T15:29:53Z</time>
      </trkpt>
      <trkpt lat="54.229257004335523" lon="-8.26226701028645">
        <ele>31.379999999999999</ele>
        <time>2026-07-04T15:29:54Z</time>
      </trkpt>
      <trkpt lat="54.229364963248372" lon="-8.262044973671436">
        <ele>32.82</ele>
        <time>2026-07-04T15:29:55Z</time>
      </trkpt>
      <trkpt lat="54.229470994323492" lon="-8.26181598007679">
        <ele>33.780000000000001</ele>
        <time>2026-07-04T15:29:56Z</time>
      </trkpt>
      <trkpt lat="54.229915989562869" lon="-8.25981798581779">
        <ele>38.590000000000003</ele>
        <time>2026-07-04T15:30:03Z</time>
      </trkpt>
      <trkpt lat="54.229876007884741" lon="-8.257525032386184">
        <ele>38.590000000000003</ele>
        <time>2026-07-04T15:30:10Z</time>
      </trkpt>
      <trkpt lat="54.22980803065002" lon="-8.256418034434319">
        <ele>37.630000000000003</ele>
        <time>2026-07-04T15:30:14Z</time>
      </trkpt>
      <trkpt lat="54.229818005114794" lon="-8.256191974505782">
        <ele>37.149999999999999</ele>
        <time>2026-07-04T15:30:15Z</time>
      </trkpt>
      <trkpt lat="54.22987399622798" lon="-8.255996005609632">
        <ele>37.149999999999999</ele>
        <time>2026-07-04T15:30:16Z</time>
      </trkpt>
      <trkpt lat="54.229948008432984" lon="-8.255810011178255">
        <ele>36.670000000000002</ele>
        <time>2026-07-04T15:30:17Z</time>
      </trkpt>
      <trkpt lat="54.230037024244666" lon="-8.255634997040033">
        <ele>36.189999999999998</ele>
        <time>2026-07-04T15:30:18Z</time>
      </trkpt>
      <trkpt lat="54.230154035612941" lon="-8.25547699816525">
        <ele>35.710000000000001</ele>
        <time>2026-07-04T15:30:19Z</time>
      </trkpt>
      <trkpt lat="54.23028102144599" lon="-8.255303995683789">
        <ele>35.229999999999997</ele>
        <time>2026-07-04T15:30:20Z</time>
      </trkpt>
      <trkpt lat="54.231631010770798" lon="-8.253570031374693">
        <ele>33.299999999999997</ele>
        <time>2026-07-04T15:30:29Z</time>
      </trkpt>
      <trkpt lat="54.232054967433214" lon="-8.253045994788408">
        <ele>33.780000000000001</ele>
        <time>2026-07-04T15:30:32Z</time>
      </trkpt>
      <trkpt lat="54.232219001278281" lon="-8.25294298119843">
        <ele>33.780000000000001</ele>
        <time>2026-07-04T15:30:33Z</time>
      </trkpt>
      <trkpt lat="54.234015997499228" lon="-8.25184696353972">
        <ele>32.340000000000003</ele>
        <time>2026-07-04T15:30:43Z</time>
      </trkpt>
      <trkpt lat="54.235172029584646" lon="-8.251156965270639">
        <ele>33.299999999999997</ele>
        <time>2026-07-04T15:30:50Z</time>
      </trkpt>
      <trkpt lat="54.235294992104173" lon="-8.251027967780829">
        <ele>33.299999999999997</ele>
        <time>2026-07-04T15:30:51Z</time>
      </trkpt>
      <trkpt lat="54.23539599403739" lon="-8.250855971127749">
        <ele>33.299999999999997</ele>
        <time>2026-07-04T15:30:52Z</time>
      </trkpt>
      <trkpt lat="54.235501019284129" lon="-8.250676011666656">
        <ele>33.299999999999997</ele>
        <time>2026-07-04T15:30:53Z</time>
      </trkpt>
      <trkpt lat="54.235619036480784" lon="-8.250475013628602">
        <ele>33.780000000000001</ele>
        <time>2026-07-04T15:30:54Z</time>
      </trkpt>
      <trkpt lat="54.235698999837041" lon="-8.250235039740801">
        <ele>34.259999999999998</ele>
        <time>2026-07-04T15:30:55Z</time>
      </trkpt>
      <trkpt lat="54.235780974850059" lon="-8.249966986477375">
        <ele>34.740000000000002</ele>
        <time>2026-07-04T15:30:56Z</time>
      </trkpt>
      <trkpt lat="54.235838977620006" lon="-8.249684013426304">
        <ele>34.740000000000002</ele>
        <time>2026-07-04T15:30:57Z</time>
      </trkpt>
      <trkpt lat="54.235899997875094" lon="-8.249387964606285">
        <ele>35.229999999999997</ele>
        <time>2026-07-04T15:30:58Z</time>
      </trkpt>
      <trkpt lat="54.235964035615325" lon="-8.249081019312143">
        <ele>35.229999999999997</ele>
        <time>2026-07-04T15:30:59Z</time>
      </trkpt>
      <trkpt lat="54.236026983708143" lon="-8.248772984370589">
        <ele>35.229999999999997</ele>
        <time>2026-07-04T15:31:00Z</time>
      </trkpt>
      <trkpt lat="54.236644981428981" lon="-8.24576698243618">
        <ele>40.030000000000001</ele>
        <time>2026-07-04T15:31:10Z</time>
      </trkpt>
      <trkpt lat="54.236742965877056" lon="-8.24550898745656">
        <ele>40.509999999999998</ele>
        <time>2026-07-04T15:31:11Z</time>
      </trkpt>
      <trkpt lat="54.23685796558857" lon="-8.245276976376772">
        <ele>40.990000000000002</ele>
        <time>2026-07-04T15:31:12Z</time>
      </trkpt>
      <trkpt lat="54.237407986074686" lon="-8.244021032005549">
        <ele>42.439999999999998</ele>
        <time>2026-07-04T15:31:17Z</time>
      </trkpt>
      <trkpt lat="54.237494990229607" lon="-8.243730012327433">
        <ele>42.439999999999998</ele>
        <time>2026-07-04T15:31:18Z</time>
      </trkpt>
      <trkpt lat="54.238282972946763" lon="-8.239831002429128">
        <ele>47.240000000000002</ele>
        <time>2026-07-04T15:31:30Z</time>
      </trkpt>
      <trkpt lat="54.238405013456941" lon="-8.238210026174784">
        <ele>49.649999999999999</ele>
        <time>2026-07-04T15:31:35Z</time>
      </trkpt>
      <trkpt lat="54.2383829690516" lon="-8.23792302981019">
        <ele>50.609999999999999</ele>
        <time>2026-07-04T15:31:36Z</time>
      </trkpt>
      <trkpt lat="54.238349022343755" lon="-8.237629998475313">
        <ele>51.090000000000003</ele>
        <time>2026-07-04T15:31:37Z</time>
      </trkpt>
      <trkpt lat="54.238151041790843" lon="-8.235570983961225">
        <ele>54.450000000000003</ele>
        <time>2026-07-04T15:31:44Z</time>
      </trkpt>
      <trkpt lat="54.238161016255617" lon="-8.235310977324843">
        <ele>54.93</ele>
        <time>2026-07-04T15:31:45Z</time>
      </trkpt>
      <trkpt lat="54.238194040954113" lon="-8.235057005658746">
        <ele>54.93</ele>
        <time>2026-07-04T15:31:46Z</time>
      </trkpt>
      <trkpt lat="54.238237962126732" lon="-8.234842009842396">
        <ele>54.93</ele>
        <time>2026-07-04T15:31:47Z</time>
      </trkpt>
      <trkpt lat="54.238312980160117" lon="-8.234658027067781">
        <ele>54.93</ele>
        <time>2026-07-04T15:31:48Z</time>
      </trkpt>
      <trkpt lat="54.238394033163786" lon="-8.234501034021378">
        <ele>55.409999999999997</ele>
        <time>2026-07-04T15:31:49Z</time>
      </trkpt>
      <trkpt lat="54.238505009561777" lon="-8.234379999339581">
        <ele>54.93</ele>
        <time>2026-07-04T15:31:50Z</time>
      </trkpt>
      <trkpt lat="54.238622020930052" lon="-8.234262987971306">
        <ele>54.93</ele>
        <time>2026-07-04T15:31:51Z</time>
      </trkpt>
      <trkpt lat="54.238757975399494" lon="-8.234189981594682">
        <ele>54.450000000000003</ele>
        <time>2026-07-04T15:31:52Z</time>
      </trkpt>
      <trkpt lat="54.238898959010839" lon="-8.234118986874819">
        <ele>53.969999999999999</ele>
        <time>2026-07-04T15:31:53Z</time>
      </trkpt>
      <trkpt lat="54.239046983420849" lon="-8.23407799936831">
        <ele>53.969999999999999</ele>
        <time>2026-07-04T15:31:54Z</time>
      </trkpt>
      <trkpt lat="54.239184027537704" lon="-8.234040029346943">
        <ele>53.490000000000002</ele>
        <time>2026-07-04T15:31:55Z</time>
      </trkpt>
      <trkpt lat="54.239300033077598" lon="-8.233986971899867">
        <ele>53.490000000000002</ele>
        <time>2026-07-04T15:31:56Z</time>
      </trkpt>
      <trkpt lat="54.239404974505305" lon="-8.233893010765314">
        <ele>53.009999999999998</ele>
        <time>2026-07-04T15:31:57Z</time>
      </trkpt>
      <trkpt lat="54.239502958953381" lon="-8.233769964426756">
        <ele>52.530000000000001</ele>
        <time>2026-07-04T15:31:58Z</time>
      </trkpt>
      <trkpt lat="54.239574959501624" lon="-8.233594028279185">
        <ele>52.530000000000001</ele>
        <time>2026-07-04T15:31:59Z</time>
      </trkpt>
      <trkpt lat="54.23965098336339" lon="-8.233408033847809">
        <ele>52.049999999999997</ele>
        <time>2026-07-04T15:32:00Z</time>
      </trkpt>
      <trkpt lat="54.239728013053536" lon="-8.233209969475865">
        <ele>52.049999999999997</ele>
        <time>2026-07-04T15:32:01Z</time>
      </trkpt>
      <trkpt lat="54.240452963858843" lon="-8.230997985228896">
        <ele>50.609999999999999</ele>
        <time>2026-07-04T15:32:10Z</time>
      </trkpt>
      <trkpt lat="54.24124295823276" lon="-8.228048980236054">
        <ele>55.409999999999997</ele>
        <time>2026-07-04T15:32:21Z</time>
      </trkpt>
      <trkpt lat="54.241281012073159" lon="-8.227769024670124">
        <ele>55.890000000000001</ele>
        <time>2026-07-04T15:32:22Z</time>
      </trkpt>
      <trkpt lat="54.241317976266146" lon="-8.227494014427066">
        <ele>55.890000000000001</ele>
        <time>2026-07-04T15:32:23Z</time>
      </trkpt>
      <trkpt lat="54.241329962387681" lon="-8.227204000577331">
        <ele>56.369999999999997</ele>
        <time>2026-07-04T15:32:24Z</time>
      </trkpt>
      <trkpt lat="54.241345971822739" lon="-8.226091973483563">
        <ele>58.299999999999997</ele>
        <time>2026-07-04T15:32:28Z</time>
      </trkpt>
      <trkpt lat="54.241377990692854" lon="-8.225845964625478">
        <ele>59.259999999999998</ele>
        <time>2026-07-04T15:32:29Z</time>
      </trkpt>
      <trkpt lat="54.24143398180604" lon="-8.22561101987958">
        <ele>59.740000000000002</ele>
        <time>2026-07-04T15:32:30Z</time>
      </trkpt>
      <trkpt lat="54.241516962647438" lon="-8.225388983264566">
        <ele>60.700000000000003</ele>
        <time>2026-07-04T15:32:31Z</time>
      </trkpt>
      <trkpt lat="54.241614025086164" lon="-8.225186979398131">
        <ele>61.18</ele>
        <time>2026-07-04T15:32:32Z</time>
      </trkpt>
      <trkpt lat="54.242567969486117" lon="-8.223632974550128">
        <ele>60.700000000000003</ele>
        <time>2026-07-04T15:32:40Z</time>
      </trkpt>
      <trkpt lat="54.24351504072547" lon="-8.222001018002629">
        <ele>59.259999999999998</ele>
        <time>2026-07-04T15:32:50Z</time>
      </trkpt>
      <trkpt lat="54.243578994646668" lon="-8.221692983061075">
        <ele>58.299999999999997</ele>
        <time>2026-07-04T15:32:56Z</time>
      </trkpt>
      <trkpt lat="54.243659041821957" lon="-8.221630034968257">
        <ele>58.780000000000001</ele>
        <time>2026-07-04T15:33:03Z</time>
      </trkpt>
      <trkpt lat="54.243721989914775" lon="-8.221579995006323">
        <ele>58.780000000000001</ele>
        <time>2026-07-04T15:33:04Z</time>
      </trkpt>
      <trkpt lat="54.244357002899051" lon="-8.22107900865376">
        <ele>57.82</ele>
        <time>2026-07-04T15:33:10Z</time>
      </trkpt>
      <trkpt lat="54.245536001399159" lon="-8.220168985426426">
        <ele>57.340000000000003</ele>
        <time>2026-07-04T15:33:17Z</time>
      </trkpt>
      <trkpt lat="54.247638015076518" lon="-8.218646999448538">
        <ele>53.009999999999998</ele>
        <time>2026-07-04T15:33:27Z</time>
      </trkpt>
      <trkpt lat="54.248601011931896" lon="-8.21792297065258">
        <ele>52.049999999999997</ele>
        <time>2026-07-04T15:33:32Z</time>
      </trkpt>
      <trkpt lat="54.248778037726879" lon="-8.21774703450501">
        <ele>52.049999999999997</ele>
        <time>2026-07-04T15:33:33Z</time>
      </trkpt>
      <trkpt lat="54.248941987752914" lon="-8.217537989839912">
        <ele>52.049999999999997</ele>
        <time>2026-07-04T15:33:34Z</time>
      </trkpt>
      <trkpt lat="54.250927995890379" lon="-8.214767016470432">
        <ele>61.18</ele>
        <time>2026-07-04T15:33:47Z</time>
      </trkpt>
      <trkpt lat="54.252721974626184" lon="-8.212063014507294">
        <ele>64.069999999999993</ele>
        <time>2026-07-04T15:33:59Z</time>
      </trkpt>
      <trkpt lat="54.254044974222779" lon="-8.210183959454298">
        <ele>66.469999999999999</ele>
        <time>2026-07-04T15:34:08Z</time>
      </trkpt>
      <trkpt lat="54.256219994276762" lon="-8.207796961069107">
        <ele>61.659999999999997</ele>
        <time>2026-07-04T15:34:21Z</time>
      </trkpt>
      <trkpt lat="54.258304992690682" lon="-8.205830985680223">
        <ele>57.340000000000003</ele>
        <time>2026-07-04T15:34:32Z</time>
      </trkpt>
      <trkpt lat="54.259687000885606" lon="-8.205120032653213">
        <ele>60.219999999999999</ele>
        <time>2026-07-04T15:34:39Z</time>
      </trkpt>
      <trkpt lat="54.2613519821316" lon="-8.20487704128027">
        <ele>61.18</ele>
        <time>2026-07-04T15:34:48Z</time>
      </trkpt>
      <trkpt lat="54.26382296718657" lon="-8.204747959971428">
        <ele>54.93</ele>
        <time>2026-07-04T15:35:00Z</time>
      </trkpt>
      <trkpt lat="54.265671009197831" lon="-8.204631032422185">
        <ele>47.719999999999999</ele>
        <time>2026-07-04T15:35:09Z</time>
      </trkpt>
      <trkpt lat="54.266969030722976" lon="-8.20417002774775">
        <ele>47.240000000000002</ele>
        <time>2026-07-04T15:35:17Z</time>
      </trkpt>
      <trkpt lat="54.268044009804726" lon="-8.203323036432266">
        <ele>49.649999999999999</ele>
        <time>2026-07-04T15:35:25Z</time>
      </trkpt>
      <trkpt lat="54.268201002851129" lon="-8.203154979273677">
        <ele>49.159999999999997</ele>
        <time>2026-07-04T15:35:31Z</time>
      </trkpt>
      <trkpt lat="54.268201002851129" lon="-8.203154979273677">
        <ele>49.159999999999997</ele>
        <time>2026-07-04T15:35:54Z</time>
      </trkpt>
      <trkpt lat="54.268201002851129" lon="-8.203154979273677">
        <ele>48.68</ele>
        <time>2026-07-04T15:36:44Z</time>
      </trkpt>
      <trkpt lat="54.268201002851129" lon="-8.203154979273677">
        <ele>48.68</ele>
        <time>2026-07-04T15:37:41Z</time>
      </trkpt>
      <trkpt lat="54.268201002851129" lon="-8.203154979273677">
        <ele>48.68</ele>
        <time>2026-07-04T15:38:42Z</time>
      </trkpt>
      <trkpt lat="54.268201002851129" lon="-8.203154979273677">
        <ele>48.200000000000003</ele>
        <time>2026-07-04T15:39:36Z</time>
      </trkpt>
      <trkpt lat="54.268201002851129" lon="-8.203154979273677">
        <ele>48.200000000000003</ele>
        <time>2026-07-04T15:40:34Z</time>
      </trkpt>
      <trkpt lat="54.268201002851129" lon="-8.203154979273677">
        <ele>48.68</ele>
        <time>2026-07-04T15:41:24Z</time>
      </trkpt>
      <trkpt lat="54.268201002851129" lon="-8.203154979273677">
        <ele>48.200000000000003</ele>
        <time>2026-07-04T15:42:21Z</time>
      </trkpt>
      <trkpt lat="54.268201002851129" lon="-8.203154979273677">
        <ele>48.68</ele>
        <time>2026-07-04T15:43:23Z</time>
      </trkpt>
      <trkpt lat="54.268359001725912" lon="-8.20296797901392">
        <ele>48.200000000000003</ele>
        <time>2026-07-04T15:43:54Z</time>
      </trkpt>
      <trkpt lat="54.26897800527513" lon="-8.202235987409949">
        <ele>47.240000000000002</ele>
        <time>2026-07-04T15:44:00Z</time>
      </trkpt>
      <trkpt lat="54.270489010959864" lon="-8.200447037816048">
        <ele>46.280000000000001</ele>
        <time>2026-07-04T15:44:11Z</time>
      </trkpt>
      <trkpt lat="54.272768972441554" lon="-8.197740018367767">
        <ele>44.840000000000003</ele>
        <time>2026-07-04T15:44:26Z</time>
      </trkpt>
      <trkpt lat="54.274275032803416" lon="-8.19583497941494">
        <ele>45.799999999999997</ele>
        <time>2026-07-04T15:44:36Z</time>
      </trkpt>
      <trkpt lat="54.275820991024375" lon="-8.193567004054785">
        <ele>53.009999999999998</ele>
        <time>2026-07-04T15:44:47Z</time>
      </trkpt>
      <trkpt lat="54.277032008394599" lon="-8.192195976153016">
        <ele>53.490000000000002</ele>
        <time>2026-07-04T15:44:55Z</time>
      </trkpt>
      <trkpt lat="54.278669999912381" lon="-8.191387038677931">
        <ele>53.009999999999998</ele>
        <time>2026-07-04T15:45:04Z</time>
      </trkpt>
      <trkpt lat="54.279551021754742" lon="-8.190856967121363">
        <ele>52.530000000000001</ele>
        <time>2026-07-04T15:45:09Z</time>
      </trkpt>
      <trkpt lat="54.280933029949665" lon="-8.189161978662014">
        <ele>51.090000000000003</ele>
        <time>2026-07-04T15:45:18Z</time>
      </trkpt>
      <trkpt lat="54.282713010907173" lon="-8.186805993318558">
        <ele>53.009999999999998</ele>
        <time>2026-07-04T15:45:30Z</time>
      </trkpt>
      <trkpt lat="54.284372041001916" lon="-8.184608006849885">
        <ele>53.969999999999999</ele>
        <time>2026-07-04T15:45:41Z</time>
      </trkpt>
      <trkpt lat="54.286336004734039" lon="-8.182007018476725">
        <ele>52.049999999999997</ele>
        <time>2026-07-04T15:45:54Z</time>
      </trkpt>
      <trkpt lat="54.289164980873466" lon="-8.178306994959712">
        <ele>48.200000000000003</ele>
        <time>2026-07-04T15:46:12Z</time>
      </trkpt>
      <trkpt lat="54.291070019826293" lon="-8.17645501345396">
        <ele>49.649999999999999</ele>
        <time>2026-07-04T15:46:23Z</time>
      </trkpt>
      <trkpt lat="54.292926024645567" lon="-8.175557982176542">
        <ele>52.049999999999997</ele>
        <time>2026-07-04T15:46:33Z</time>
      </trkpt>
      <trkpt lat="54.29497598670423" lon="-8.174814004451037">
        <ele>52.530000000000001</ele>
        <time>2026-07-04T15:46:44Z</time>
      </trkpt>
      <trkpt lat="54.296705005690455" lon="-8.173839021474123">
        <ele>50.609999999999999</ele>
        <time>2026-07-04T15:46:54Z</time>
      </trkpt>
      <trkpt lat="54.297920968383551" lon="-8.17321197129786">
        <ele>49.649999999999999</ele>
        <time>2026-07-04T15:47:02Z</time>
      </trkpt>
      <trkpt lat="54.298984967172146" lon="-8.173406012356281">
        <ele>48.200000000000003</ele>
        <time>2026-07-04T15:47:09Z</time>
      </trkpt>
      <trkpt lat="54.300180980935693" lon="-8.174345958977938">
        <ele>46.280000000000001</ele>
        <time>2026-07-04T15:47:19Z</time>
      </trkpt>
      <trkpt lat="54.301198041066527" lon="-8.175241984426975">
        <ele>46.280000000000001</ele>
        <time>2026-07-04T15:47:29Z</time>
      </trkpt>
      <trkpt lat="54.301706990227103" lon="-8.175669964402914">
        <ele>43.880000000000003</ele>
        <time>2026-07-04T15:47:36Z</time>
      </trkpt>
      <trkpt lat="54.301844034343958" lon="-8.175794016569853">
        <ele>43.880000000000003</ele>
        <time>2026-07-04T15:47:38Z</time>
      </trkpt>
      <trkpt lat="54.302099011838436" lon="-8.175976993516088">
        <ele>41.950000000000003</ele>
        <time>2026-07-04T15:47:41Z</time>
      </trkpt>
      <trkpt lat="54.302199007943273" lon="-8.17602401599288">
        <ele>40.990000000000002</ele>
        <time>2026-07-04T15:47:42Z</time>
      </trkpt>
      <trkpt lat="54.302306966856122" lon="-8.176043964922428">
        <ele>40.509999999999998</ele>
        <time>2026-07-04T15:47:43Z</time>
      </trkpt>
      <trkpt lat="54.302422972396016" lon="-8.176049999892712">
        <ele>40.509999999999998</ele>
        <time>2026-07-04T15:47:44Z</time>
      </trkpt>
      <trkpt lat="54.302536966279149" lon="-8.176009012386203">
        <ele>40.030000000000001</ele>
        <time>2026-07-04T15:47:45Z</time>
      </trkpt>
      <trkpt lat="54.302647020667791" lon="-8.175969030708075">
        <ele>40.030000000000001</ele>
        <time>2026-07-04T15:47:46Z</time>
      </trkpt>
      <trkpt lat="54.303367026150227" lon="-8.175678011029959">
        <ele>44.359999999999999</ele>
        <time>2026-07-04T15:47:54Z</time>
      </trkpt>
      <trkpt lat="54.30343902669847" lon="-8.17561699077487">
        <ele>44.840000000000003</ele>
        <time>2026-07-04T15:47:55Z</time>
      </trkpt>
      <trkpt lat="54.303716970607638" lon="-8.175312979146838">
        <ele>47.719999999999999</ele>
        <time>2026-07-04T15:47:59Z</time>
      </trkpt>
      <trkpt lat="54.303769022226334" lon="-8.175243996083736">
        <ele>48.68</ele>
        <time>2026-07-04T15:48:00Z</time>
      </trkpt>
      <trkpt lat="54.303802968934178" lon="-8.175198985263705">
        <ele>49.159999999999997</ele>
        <time>2026-07-04T15:48:01Z</time>
      </trkpt>
      <trkpt lat="54.30382501333952" lon="-8.175169983878732">
        <ele>49.649999999999999</ele>
        <time>2026-07-04T15:48:02Z</time>
      </trkpt>
      <trkpt lat="54.303842028602958" lon="-8.175146011635661">
        <ele>50.609999999999999</ele>
        <time>2026-07-04T15:48:03Z</time>
      </trkpt>
      <trkpt lat="54.303861977532506" lon="-8.175120027735829">
        <ele>52.049999999999997</ele>
        <time>2026-07-04T15:48:08Z</time>
      </trkpt>
      <trkpt lat="54.303884021937847" lon="-8.175021037459374">
        <ele>52.530000000000001</ele>
        <time>2026-07-04T15:48:09Z</time>
      </trkpt>
      <trkpt lat="54.303871029987931" lon="-8.17497200332582">
        <ele>53.009999999999998</ele>
        <time>2026-07-04T15:48:10Z</time>
      </trkpt>
      <trkpt lat="54.303854014724493" lon="-8.17490603774786">
        <ele>53.490000000000002</ele>
        <time>2026-07-04T15:48:11Z</time>
      </trkpt>
      <trkpt lat="54.303833981975913" lon="-8.174826996400952">
        <ele>53.969999999999999</ele>
        <time>2026-07-04T15:48:12Z</time>
      </trkpt>
      <trkpt lat="54.303786959499121" lon="-8.174643013626337">
        <ele>54.450000000000003</ele>
        <time>2026-07-04T15:48:14Z</time>
      </trkpt>
      <trkpt lat="54.303760975599289" lon="-8.174545029178262">
        <ele>54.450000000000003</ele>
        <time>2026-07-04T15:48:15Z</time>
      </trkpt>
      <trkpt lat="54.303735997527838" lon="-8.174445033073425">
        <ele>54.450000000000003</ele>
        <time>2026-07-04T15:48:16Z</time>
      </trkpt>
      <trkpt lat="54.303703978657722" lon="-8.174321986734867">
        <ele>54.93</ele>
        <time>2026-07-04T15:48:17Z</time>
      </trkpt>
      <trkpt lat="54.303698027506471" lon="-8.174227019771934">
        <ele>55.409999999999997</ele>
        <time>2026-07-04T15:48:18Z</time>
      </trkpt>
      <trkpt lat="54.303662991151214" lon="-8.173631988465786">
        <ele>56.369999999999997</ele>
        <time>2026-07-04T15:48:23Z</time>
      </trkpt>
      <trkpt lat="54.303680006414652" lon="-8.17351003177464">
        <ele>56.369999999999997</ele>
        <time>2026-07-04T15:48:24Z</time>
      </trkpt>
      <trkpt lat="54.303711019456387" lon="-8.17338002845645">
        <ele>56.859999999999999</ele>
        <time>2026-07-04T15:48:25Z</time>
      </trkpt>
      <trkpt lat="54.303743960335851" lon="-8.173240972682834">
        <ele>57.340000000000003</ele>
        <time>2026-07-04T15:48:26Z</time>
      </trkpt>
      <trkpt lat="54.30378201417625" lon="-8.173098983243108">
        <ele>57.82</ele>
        <time>2026-07-04T15:48:27Z</time>
      </trkpt>
      <trkpt lat="54.303956022486091" lon="-8.172489032149315">
        <ele>61.18</ele>
        <time>2026-07-04T15:48:31Z</time>
      </trkpt>
      <trkpt lat="54.304004972800612" lon="-8.172321980819106">
        <ele>62.619999999999997</ele>
        <time>2026-07-04T15:48:32Z</time>
      </trkpt>
      <trkpt lat="54.304304961115122" lon="-8.170855985954404">
        <ele>70.310000000000002</ele>
        <time>2026-07-04T15:48:41Z</time>
      </trkpt>
      <trkpt lat="54.304304961115122" lon="-8.170699998736382">
        <ele>70.310000000000002</ele>
        <time>2026-07-04T15:48:42Z</time>
      </trkpt>
      <trkpt lat="54.304304961115122" lon="-8.170550968497992">
        <ele>70.310000000000002</ele>
        <time>2026-07-04T15:48:43Z</time>
      </trkpt>
      <trkpt lat="54.304289035499096" lon="-8.170425994321704">
        <ele>69.829999999999998</ele>
        <time>2026-07-04T15:48:44Z</time>
      </trkpt>
      <trkpt lat="54.304246958345175" lon="-8.170332033187151">
        <ele>69.349999999999994</ele>
        <time>2026-07-04T15:48:45Z</time>
      </trkpt>
      <trkpt lat="54.304203959181905" lon="-8.170238994061947">
        <ele>68.870000000000005</ele>
        <time>2026-07-04T15:48:46Z</time>
      </trkpt>
      <trkpt lat="54.304163977503777" lon="-8.170152995735407">
        <ele>68.870000000000005</ele>
        <time>2026-07-04T15:48:47Z</time>
      </trkpt>
      <trkpt lat="54.30412701331079" lon="-8.17007303237915">
        <ele>68.390000000000001</ele>
        <time>2026-07-04T15:48:48Z</time>
      </trkpt>
      <trkpt lat="54.304094994440675" lon="-8.170001031830907">
        <ele>67.909999999999997</ele>
        <time>2026-07-04T15:48:49Z</time>
      </trkpt>
      <trkpt lat="54.304069010540843" lon="-8.16994403488934">
        <ele>67.430000000000007</ele>
        <time>2026-07-04T15:48:50Z</time>
      </trkpt>
      <trkpt lat="54.304031962528825" lon="-8.16987999714911">
        <ele>66.950000000000003</ele>
        <time>2026-07-04T15:48:51Z</time>
      </trkpt>
      <trkpt lat="54.303996004164219" lon="-8.16981696523726">
        <ele>66.950000000000003</ele>
        <time>2026-07-04T15:48:52Z</time>
      </trkpt>
      <trkpt lat="54.303986029699445" lon="-8.169577997177839">
        <ele>65.989999999999995</ele>
        <time>2026-07-04T15:48:54Z</time>
      </trkpt>
      <trkpt lat="54.303960967808962" lon="-8.169537009671331">
        <ele>65.510000000000005</ele>
        <time>2026-07-04T15:48:55Z</time>
      </trkpt>
      <trkpt lat="54.303864995017648" lon="-8.169516976922751">
        <ele>65.030000000000001</ele>
        <time>2026-07-04T15:48:56Z</time>
      </trkpt>
      <trkpt lat="54.303811015561223" lon="-8.169448999688029">
        <ele>64.549999999999997</ele>
        <time>2026-07-04T15:48:57Z</time>
      </trkpt>
      <trkpt lat="54.303751001134515" lon="-8.169372975826263">
        <ele>64.549999999999997</ele>
        <time>2026-07-04T15:48:58Z</time>
      </trkpt>
      <trkpt lat="54.303545979782939" lon="-8.169107018038631">
        <ele>65.030000000000001</ele>
        <time>2026-07-04T15:49:01Z</time>
      </trkpt>
      <trkpt lat="54.302646014839411" lon="-8.1676010414958">
        <ele>67.909999999999997</ele>
        <time>2026-07-04T15:49:13Z</time>
      </trkpt>
      <trkpt lat="54.302591029554605" lon="-8.167420998215675">
        <ele>67.430000000000007</ele>
        <time>2026-07-04T15:49:14Z</time>
      </trkpt>
      <trkpt lat="54.302535960450768" lon="-8.167242966592312">
        <ele>66.950000000000003</ele>
        <time>2026-07-04T15:49:15Z</time>
      </trkpt>
      <trkpt lat="54.30249597877264" lon="-8.167045991867781">
        <ele>65.989999999999995</ele>
        <time>2026-07-04T15:49:16Z</time>
      </trkpt>
      <trkpt lat="54.302480975165963" lon="-8.166833007708192">
        <ele>65.510000000000005</ele>
        <time>2026-07-04T15:49:17Z</time>
      </trkpt>
      <trkpt lat="54.302268996834755" lon="-8.164349030703306">
        <ele>58.780000000000001</ele>
        <time>2026-07-04T15:49:28Z</time>
      </trkpt>
      <trkpt lat="54.302338985726237" lon="-8.162571983411908">
        <ele>59.259999999999998</ele>
        <time>2026-07-04T15:49:36Z</time>
      </trkpt>
      <trkpt lat="54.302319958806038" lon="-8.162372997030616">
        <ele>59.740000000000002</ele>
        <time>2026-07-04T15:49:37Z</time>
      </trkpt>
      <trkpt lat="54.302277965471148" lon="-8.162184990942478">
        <ele>60.219999999999999</ele>
        <time>2026-07-04T15:49:38Z</time>
      </trkpt>
      <trkpt lat="54.302207976579666" lon="-8.162010982632637">
        <ele>60.700000000000003</ele>
        <time>2026-07-04T15:49:39Z</time>
      </trkpt>
      <trkpt lat="54.302135976031423" lon="-8.161829011514783">
        <ele>61.18</ele>
        <time>2026-07-04T15:49:40Z</time>
      </trkpt>
      <trkpt lat="54.301854008808732" lon="-8.16102703101933">
        <ele>63.579999999999998</ele>
        <time>2026-07-04T15:49:44Z</time>
      </trkpt>
      <trkpt lat="54.301816038787365" lon="-8.1607920024544">
        <ele>64.549999999999997</ele>
        <time>2026-07-04T15:49:45Z</time>
      </trkpt>
      <trkpt lat="54.301587967202067" lon="-8.158517992123961">
        <ele>70.310000000000002</ele>
        <time>2026-07-04T15:49:54Z</time>
      </trkpt>
      <trkpt lat="54.301618980243802" lon="-8.158003007993102">
        <ele>72.719999999999999</ele>
        <time>2026-07-04T15:49:56Z</time>
      </trkpt>
      <trkpt lat="54.301662985235453" lon="-8.157765967771411">
        <ele>74.159999999999997</ele>
        <time>2026-07-04T15:49:57Z</time>
      </trkpt>
      <trkpt lat="54.301707996055484" lon="-8.157519958913326">
        <ele>75.599999999999994</ele>
        <time>2026-07-04T15:49:58Z</time>
      </trkpt>
      <trkpt lat="54.301874041557312" lon="-8.156858962029219">
        <ele>78.969999999999999</ele>
        <time>2026-07-04T15:50:01Z</time>
      </trkpt>
      <trkpt lat="54.301923997700214" lon="-8.156619993969798">
        <ele>79.930000000000007</ele>
        <time>2026-07-04T15:50:02Z</time>
      </trkpt>
      <trkpt lat="54.301942018792033" lon="-8.155816001817584">
        <ele>80.409999999999997</ele>
        <time>2026-07-04T15:50:05Z</time>
      </trkpt>
      <trkpt lat="54.301974037662148" lon="-8.15552799962461">
        <ele>80.890000000000001</ele>
        <time>2026-07-04T15:50:06Z</time>
      </trkpt>
      <trkpt lat="54.302024999633431" lon="-8.155244020745158">
        <ele>81.370000000000005</ele>
        <time>2026-07-04T15:50:07Z</time>
      </trkpt>
      <trkpt lat="54.302092976868153" lon="-8.154973033815622">
        <ele>82.329999999999998</ele>
        <time>2026-07-04T15:50:08Z</time>
      </trkpt>
      <trkpt lat="54.302198002114892" lon="-8.154744040220976">
        <ele>82.810000000000002</ele>
        <time>2026-07-04T15:50:09Z</time>
      </trkpt>
      <trkpt lat="54.302296992391348" lon="-8.154528960585594">
        <ele>83.290000000000006</ele>
        <time>2026-07-04T15:50:10Z</time>
      </trkpt>
      <trkpt lat="54.302404029294848" lon="-8.154313964769244">
        <ele>83.769999999999996</ele>
        <time>2026-07-04T15:50:11Z</time>
      </trkpt>
      <trkpt lat="54.302519029006362" lon="-8.154106009751558">
        <ele>84.25</ele>
        <time>2026-07-04T15:50:12Z</time>
      </trkpt>
      <trkpt lat="54.302823962643743" lon="-8.153550960123539">
        <ele>84.730000000000004</ele>
        <time>2026-07-04T15:50:15Z</time>
      </trkpt>
      <trkpt lat="54.302891017869115" lon="-8.153291959315538">
        <ele>84.730000000000004</ele>
        <time>2026-07-04T15:50:16Z</time>
      </trkpt>
      <trkpt lat="54.302948014810681" lon="-8.153072018176317">
        <ele>84.730000000000004</ele>
        <time>2026-07-04T15:50:17Z</time>
      </trkpt>
      <trkpt lat="54.302990008145571" lon="-8.152830032631755">
        <ele>85.209999999999994</ele>
        <time>2026-07-04T15:50:18Z</time>
      </trkpt>
      <trkpt lat="54.303018003702164" lon="-8.152573965489864">
        <ele>85.209999999999994</ele>
        <time>2026-07-04T15:50:19Z</time>
      </trkpt>
      <trkpt lat="54.303145995363593" lon="-8.15181297250092">
        <ele>85.209999999999994</ele>
        <time>2026-07-04T15:50:22Z</time>
      </trkpt>
      <trkpt lat="54.303219001740217" lon="-8.151584984734654">
        <ele>85.209999999999994</ele>
        <time>2026-07-04T15:50:23Z</time>
      </trkpt>
      <trkpt lat="54.303381023928523" lon="-8.151110988110304">
        <ele>85.209999999999994</ele>
        <time>2026-07-04T15:50:25Z</time>
      </trkpt>
      <trkpt lat="54.303493006154895" lon="-8.15090898424387">
        <ele>85.209999999999994</ele>
        <time>2026-07-04T15:50:26Z</time>
      </trkpt>
      <trkpt lat="54.304384002462029" lon="-8.148975027725101">
        <ele>88.579999999999998</ele>
        <time>2026-07-04T15:50:35Z</time>
      </trkpt>
      <trkpt lat="54.304623976349831" lon="-8.147998033091426">
        <ele>88.579999999999998</ele>
        <time>2026-07-04T15:50:39Z</time>
      </trkpt>
      <trkpt lat="54.304664963856339" lon="-8.147735008969903">
        <ele>88.579999999999998</ele>
        <time>2026-07-04T15:50:40Z</time>
      </trkpt>
      <trkpt lat="54.304873002693057" lon="-8.144531026482582">
        <ele>82.810000000000002</ele>
        <time>2026-07-04T15:50:51Z</time>
      </trkpt>
      <trkpt lat="54.30464300327003" lon="-8.142522973939776">
        <ele>83.769999999999996</ele>
        <time>2026-07-04T15:50:58Z</time>
      </trkpt>
      <trkpt lat="54.304206976667047" lon="-8.140554986894131">
        <ele>85.689999999999998</ele>
        <time>2026-07-04T15:51:05Z</time>
      </trkpt>
      <trkpt lat="54.303948981687427" lon="-8.13919996842742">
        <ele>87.140000000000001</ele>
        <time>2026-07-04T15:51:10Z</time>
      </trkpt>
      <trkpt lat="54.303647987544537" lon="-8.138022981584072">
        <ele>87.620000000000005</ele>
        <time>2026-07-04T15:51:15Z</time>
      </trkpt>
      <trkpt lat="54.303615968674421" lon="-8.137805974110961">
        <ele>87.620000000000005</ele>
        <time>2026-07-04T15:51:16Z</time>
      </trkpt>
      <trkpt lat="54.303580010309815" lon="-8.135664984583855">
        <ele>88.579999999999998</ele>
        <time>2026-07-04T15:51:24Z</time>
      </trkpt>
      <trkpt lat="54.30335202254355" lon="-8.133235992863774">
        <ele>87.620000000000005</ele>
        <time>2026-07-04T15:51:32Z</time>
      </trkpt>
      <trkpt lat="54.303087992593646" lon="-8.13075402751565">
        <ele>90.019999999999996</ele>
        <time>2026-07-04T15:51:40Z</time>
      </trkpt>
      <trkpt lat="54.302670992910862" lon="-8.127175960689783">
        <ele>87.620000000000005</ele>
        <time>2026-07-04T15:51:51Z</time>
      </trkpt>
      <trkpt lat="54.302205964922905" lon="-8.124969005584717">
        <ele>88.099999999999994</ele>
        <time>2026-07-04T15:51:58Z</time>
      </trkpt>
      <trkpt lat="54.30126802995801" lon="-8.122593993321061">
        <ele>88.099999999999994</ele>
        <time>2026-07-04T15:52:07Z</time>
      </trkpt>
      <trkpt lat="54.300223980098963" lon="-8.119982024654746">
        <ele>85.689999999999998</ele>
        <time>2026-07-04T15:52:17Z</time>
      </trkpt>
      <trkpt lat="54.299733974039555" lon="-8.117877999320626">
        <ele>85.209999999999994</ele>
        <time>2026-07-04T15:52:25Z</time>
      </trkpt>
      <trkpt lat="54.299714025110006" lon="-8.117626961320639">
        <ele>85.209999999999994</ele>
        <time>2026-07-04T15:52:26Z</time>
      </trkpt>
      <trkpt lat="54.299692986533046" lon="-8.116320976987481">
        <ele>86.180000000000007</ele>
        <time>2026-07-04T15:52:31Z</time>
      </trkpt>
      <trkpt lat="54.299716958776116" lon="-8.116047978401184">
        <ele>86.180000000000007</ele>
        <time>2026-07-04T15:52:32Z</time>
      </trkpt>
      <trkpt lat="54.29976699873805" lon="-8.115486977621913">
        <ele>86.180000000000007</ele>
        <time>2026-07-04T15:52:34Z</time>
      </trkpt>
      <trkpt lat="54.300228003412485" lon="-8.11315999366343">
        <ele>86.659999999999997</ele>
        <time>2026-07-04T15:52:42Z</time>
      </trkpt>
      <trkpt lat="54.300844995304942" lon="-8.110310984775424">
        <ele>94.349999999999994</ele>
        <time>2026-07-04T15:52:53Z</time>
      </trkpt>
      <trkpt lat="54.301022021099925" lon="-8.108571991324425">
        <ele>98.189999999999998</ele>
        <time>2026-07-04T15:52:59Z</time>
      </trkpt>
      <trkpt lat="54.301015986129642" lon="-8.108267979696393">
        <ele>99.150000000000006</ele>
        <time>2026-07-04T15:53:00Z</time>
      </trkpt>
      <trkpt lat="54.300681967288256" lon="-8.105701021850109">
        <ele>103.48</ele>
        <time>2026-07-04T15:53:08Z</time>
      </trkpt>
      <trkpt lat="54.300208976492286" lon="-8.103218972682953">
        <ele>103.95999999999999</ele>
        <time>2026-07-04T15:53:16Z</time>
      </trkpt>
      <trkpt lat="54.299890967085958" lon="-8.100673975422978">
        <ele>102.52</ele>
        <time>2026-07-04T15:53:24Z</time>
      </trkpt>
      <trkpt lat="54.299828018993139" lon="-8.100408017635346">
        <ele>102.52</ele>
        <time>2026-07-04T15:53:25Z</time>
      </trkpt>
      <trkpt lat="54.299761969596148" lon="-8.100167959928513">
        <ele>102.04000000000001</ele>
        <time>2026-07-04T15:53:26Z</time>
      </trkpt>
      <trkpt lat="54.299020003527403" lon="-8.098458973690867">
        <ele>103</ele>
        <time>2026-07-04T15:53:33Z</time>
      </trkpt>
      <trkpt lat="54.297691974788904" lon="-8.096648985520005">
        <ele>107.81</ele>
        <time>2026-07-04T15:53:42Z</time>
      </trkpt>
      <trkpt lat="54.29705997928977" lon="-8.095898972824216">
        <ele>108.29000000000001</ele>
        <time>2026-07-04T15:53:47Z</time>
      </trkpt>
      <trkpt lat="54.296982027590275" lon="-8.095714990049601">
        <ele>108.77</ele>
        <time>2026-07-04T15:53:48Z</time>
      </trkpt>
      <trkpt lat="54.296901980414987" lon="-8.095525978133082">
        <ele>108.77</ele>
        <time>2026-07-04T15:53:49Z</time>
      </trkpt>
      <trkpt lat="54.296141993254423" lon="-8.093839958310127">
        <ele>106.36</ele>
        <time>2026-07-04T15:53:57Z</time>
      </trkpt>
      <trkpt lat="54.296018024906516" lon="-8.093635020777583">
        <ele>105.40000000000001</ele>
        <time>2026-07-04T15:53:58Z</time>
      </trkpt>
      <trkpt lat="54.295548973605037" lon="-8.092847960069776">
        <ele>102.52</ele>
        <time>2026-07-04T15:54:02Z</time>
      </trkpt>
      <trkpt lat="54.295482002198696" lon="-8.0926170386374">
        <ele>101.56</ele>
        <time>2026-07-04T15:54:03Z</time>
      </trkpt>
      <trkpt lat="54.295435985550284" lon="-8.09238301590085">
        <ele>101.08</ele>
        <time>2026-07-04T15:54:04Z</time>
      </trkpt>
      <trkpt lat="54.295417964458466" lon="-8.092117980122566">
        <ele>100.59999999999999</ele>
        <time>2026-07-04T15:54:05Z</time>
      </trkpt>
      <trkpt lat="54.295399021357298" lon="-8.091841964051127">
        <ele>100.11</ele>
        <time>2026-07-04T15:54:06Z</time>
      </trkpt>
      <trkpt lat="54.295377982780337" lon="-8.091538036242127">
        <ele>100.11</ele>
        <time>2026-07-04T15:54:07Z</time>
      </trkpt>
      <trkpt lat="54.295384017750621" lon="-8.091280041262507">
        <ele>100.11</ele>
        <time>2026-07-04T15:54:08Z</time>
      </trkpt>
      <trkpt lat="54.295244039967656" lon="-8.088462967425585">
        <ele>100.59999999999999</ele>
        <time>2026-07-04T15:54:17Z</time>
      </trkpt>
      <trkpt lat="54.294574996456504" lon="-8.083441033959389">
        <ele>105.40000000000001</ele>
        <time>2026-07-04T15:54:31Z</time>
      </trkpt>
      <trkpt lat="54.293894972652197" lon="-8.078433014452457">
        <ele>103.95999999999999</ele>
        <time>2026-07-04T15:54:45Z</time>
      </trkpt>
      <trkpt lat="54.29340697824955" lon="-8.074670964851975">
        <ele>101.08</ele>
        <time>2026-07-04T15:54:56Z</time>
      </trkpt>
      <trkpt lat="54.293521977961063" lon="-8.072349010035396">
        <ele>99.150000000000006</ele>
        <time>2026-07-04T15:55:03Z</time>
      </trkpt>
      <trkpt lat="54.293551985174417" lon="-8.069535959511995">
        <ele>97.709999999999994</ele>
        <time>2026-07-04T15:55:11Z</time>
      </trkpt>
      <trkpt lat="54.293224001303315" lon="-8.066717041656375">
        <ele>102.04000000000001</ele>
        <time>2026-07-04T15:55:19Z</time>
      </trkpt>
      <trkpt lat="54.292688984423876" lon="-8.063642978668213">
        <ele>103.48</ele>
        <time>2026-07-04T15:55:28Z</time>
      </trkpt>
      <trkpt lat="54.29256803356111" lon="-8.060683999210596">
        <ele>102.52</ele>
        <time>2026-07-04T15:55:36Z</time>
      </trkpt>
      <trkpt lat="54.292115997523069" lon="-8.058203961700201">
        <ele>101.56</ele>
        <time>2026-07-04T15:55:43Z</time>
      </trkpt>
      <trkpt lat="54.291288033127785" lon="-8.054833011701703">
        <ele>94.349999999999994</ele>
        <time>2026-07-04T15:55:53Z</time>
      </trkpt>
      <trkpt lat="54.290838008746505" lon="-8.051055036485195">
        <ele>88.579999999999998</ele>
        <time>2026-07-04T15:56:04Z</time>
      </trkpt>
      <trkpt lat="54.290748992934823" lon="-8.050736021250486">
        <ele>88.099999999999994</ele>
        <time>2026-07-04T15:56:05Z</time>
      </trkpt>
      <trkpt lat="54.290638016536832" lon="-8.050427986308932">
        <ele>88.099999999999994</ele>
        <time>2026-07-04T15:56:06Z</time>
      </trkpt>
      <trkpt lat="54.290512958541512" lon="-8.050136966630817">
        <ele>88.099999999999994</ele>
        <time>2026-07-04T15:56:07Z</time>
      </trkpt>
      <trkpt lat="54.28926195949316" lon="-8.04681496694684">
        <ele>95.310000000000002</ele>
        <time>2026-07-04T15:56:18Z</time>
      </trkpt>
      <trkpt lat="54.288710011169314" lon="-8.043812988325954">
        <ele>94.349999999999994</ele>
        <time>2026-07-04T15:56:27Z</time>
      </trkpt>
      <trkpt lat="54.288617977872491" lon="-8.040500963106751">
        <ele>85.209999999999994</ele>
        <time>2026-07-04T15:56:36Z</time>
      </trkpt>
      <trkpt lat="54.288641028106213" lon="-8.038704972714186">
        <ele>83.769999999999996</ele>
        <time>2026-07-04T15:56:41Z</time>
      </trkpt>
      <trkpt lat="54.288625018671155" lon="-8.03834899328649">
        <ele>83.290000000000006</ele>
        <time>2026-07-04T15:56:42Z</time>
      </trkpt>
      <trkpt lat="54.288585959002376" lon="-8.037991002202034">
        <ele>83.290000000000006</ele>
        <time>2026-07-04T15:56:43Z</time>
      </trkpt>
      <trkpt lat="54.288513036444783" lon="-8.037652960047126">
        <ele>83.290000000000006</ele>
        <time>2026-07-04T15:56:44Z</time>
      </trkpt>
      <trkpt lat="54.288438018411398" lon="-8.037302009761334">
        <ele>83.290000000000006</ele>
        <time>2026-07-04T15:56:45Z</time>
      </trkpt>
      <trkpt lat="54.287440991029143" lon="-8.033094964921475">
        <ele>80.409999999999997</ele>
        <time>2026-07-04T15:56:58Z</time>
      </trkpt>
      <trkpt lat="54.287181990221143" lon="-8.030433040112257">
        <ele>78.969999999999999</ele>
        <time>2026-07-04T15:57:06Z</time>
      </trkpt>
      <trkpt lat="54.287409977987409" lon="-8.026694040745497">
        <ele>79.450000000000003</ele>
        <time>2026-07-04T15:57:17Z</time>
      </trkpt>
      <trkpt lat="54.287843992933631" lon="-8.023310014978051">
        <ele>76.560000000000002</ele>
        <time>2026-07-04T15:57:28Z</time>
      </trkpt>
      <trkpt lat="54.287769980728626" lon="-8.02137496881187">
        <ele>75.120000000000005</ele>
        <time>2026-07-04T15:57:35Z</time>
      </trkpt>
      <trkpt lat="54.287235969677567" lon="-8.018708014860749">
        <ele>76.079999999999998</ele>
        <time>2026-07-04T15:57:44Z</time>
      </trkpt>
      <trkpt lat="54.286891976371408" lon="-8.016293020918965">
        <ele>74.640000000000001</ele>
        <time>2026-07-04T15:57:52Z</time>
      </trkpt>
      <trkpt lat="54.286884013563395" lon="-8.016008958220482">
        <ele>74.640000000000001</ele>
        <time>2026-07-04T15:57:53Z</time>
      </trkpt>
      <trkpt lat="54.286893988028169" lon="-8.015729002654553">
        <ele>74.640000000000001</ele>
        <time>2026-07-04T15:57:54Z</time>
      </trkpt>
      <trkpt lat="54.286914020776749" lon="-8.015439994633198">
        <ele>74.640000000000001</ele>
        <time>2026-07-04T15:57:55Z</time>
      </trkpt>
      <trkpt lat="54.286941010504961" lon="-8.015149980783463">
        <ele>74.640000000000001</ele>
        <time>2026-07-04T15:57:56Z</time>
      </trkpt>
      <trkpt lat="54.286975041031837" lon="-8.014850998297334">
        <ele>74.640000000000001</ele>
        <time>2026-07-04T15:57:57Z</time>
      </trkpt>
      <trkpt lat="54.287074031308293" lon="-8.013965031132102">
        <ele>74.640000000000001</ele>
        <time>2026-07-04T15:58:00Z</time>
      </trkpt>
      <trkpt lat="54.287066990509629" lon="-8.013689015060663">
        <ele>74.640000000000001</ele>
        <time>2026-07-04T15:58:01Z</time>
      </trkpt>
      <trkpt lat="54.287081994116306" lon="-8.012689976021648">
        <ele>74.159999999999997</ele>
        <time>2026-07-04T15:58:05Z</time>
      </trkpt>
      <trkpt lat="54.287109989672899" lon="-8.012474980205298">
        <ele>73.680000000000007</ele>
        <time>2026-07-04T15:58:06Z</time>
      </trkpt>
      <trkpt lat="54.287163969129324" lon="-8.012269036844373">
        <ele>73.200000000000003</ele>
        <time>2026-07-04T15:58:07Z</time>
      </trkpt>
      <trkpt lat="54.287223983556032" lon="-8.012037025764585">
        <ele>73.200000000000003</ele>
        <time>2026-07-04T15:58:08Z</time>
      </trkpt>
      <trkpt lat="54.287288021296263" lon="-8.011870980262756">
        <ele>72.719999999999999</ele>
        <time>2026-07-04T15:58:09Z</time>
      </trkpt>
      <trkpt lat="54.287360021844506" lon="-8.011683980002999">
        <ele>72.719999999999999</ele>
        <time>2026-07-04T15:58:10Z</time>
      </trkpt>
      <trkpt lat="54.287766963243484" lon="-8.010592991486192">
        <ele>72.719999999999999</ele>
        <time>2026-07-04T15:58:17Z</time>
      </trkpt>
      <trkpt lat="54.287817003205419" lon="-8.010457037016749">
        <ele>72.239999999999995</ele>
        <time>2026-07-04T15:58:18Z</time>
      </trkpt>
      <trkpt lat="54.288111040368676" lon="-8.009627982974052">
        <ele>70.790000000000006</ele>
        <time>2026-07-04T15:58:24Z</time>
      </trkpt>
      <trkpt lat="54.288149010390043" lon="-8.009485993534327">
        <ele>70.310000000000002</ele>
        <time>2026-07-04T15:58:25Z</time>
      </trkpt>
      <trkpt lat="54.288155967369676" lon="-8.009324977174401">
        <ele>70.310000000000002</ele>
        <time>2026-07-04T15:58:26Z</time>
      </trkpt>
      <trkpt lat="54.288162002339959" lon="-8.009163038805127">
        <ele>70.310000000000002</ele>
        <time>2026-07-04T15:58:27Z</time>
      </trkpt>
      <trkpt lat="54.288168037310243" lon="-8.009001016616821">
        <ele>69.829999999999998</ele>
        <time>2026-07-04T15:58:28Z</time>
      </trkpt>
      <trkpt lat="54.288160996511579" lon="-8.008837988600135">
        <ele>70.310000000000002</ele>
        <time>2026-07-04T15:58:29Z</time>
      </trkpt>
      <trkpt lat="54.288108022883534" lon="-8.007552959024906">
        <ele>70.790000000000006</ele>
        <time>2026-07-04T15:58:38Z</time>
      </trkpt>
      <trkpt lat="54.288039961829782" lon="-8.006330039352179">
        <ele>65.989999999999995</ele>
        <time>2026-07-04T15:58:49Z</time>
      </trkpt>
      <trkpt lat="54.287957986816764" lon="-8.005975987762213">
        <ele>66.469999999999999</ele>
        <time>2026-07-04T15:58:52Z</time>
      </trkpt>
      <trkpt lat="54.287932002916932" lon="-8.005859982222319">
        <ele>66.950000000000003</ele>
        <time>2026-07-04T15:58:53Z</time>
      </trkpt>
      <trkpt lat="54.287901995703578" lon="-8.005761997774243">
        <ele>66.950000000000003</ele>
        <time>2026-07-04T15:58:54Z</time>
      </trkpt>
      <trkpt lat="54.287843992933631" lon="-8.005696032196283">
        <ele>67.430000000000007</ele>
        <time>2026-07-04T15:58:55Z</time>
      </trkpt>
      <trkpt lat="54.287780961021781" lon="-8.005625959485769">
        <ele>67.909999999999997</ele>
        <time>2026-07-04T15:58:56Z</time>
      </trkpt>
      <trkpt lat="54.287720024585724" lon="-8.005572985857725">
        <ele>67.909999999999997</ele>
        <time>2026-07-04T15:58:57Z</time>
      </trkpt>
      <trkpt lat="54.287645006552339" lon="-8.005553958937526">
        <ele>67.909999999999997</ele>
        <time>2026-07-04T15:58:58Z</time>
      </trkpt>
      <trkpt lat="54.287566971033812" lon="-8.005533004179597">
        <ele>67.909999999999997</ele>
        <time>2026-07-04T15:58:59Z</time>
      </trkpt>
      <trkpt lat="54.287482984364033" lon="-8.005510037764907">
        <ele>67.909999999999997</ele>
        <time>2026-07-04T15:59:00Z</time>
      </trkpt>
      <trkpt lat="54.287397991865873" lon="-8.005492016673088">
        <ele>67.430000000000007</ele>
        <time>2026-07-04T15:59:01Z</time>
      </trkpt>
      <trkpt lat="54.286655019968748" lon="-8.005455974489451">
        <ele>67.909999999999997</ele>
        <time>2026-07-04T15:59:10Z</time>
      </trkpt>
      <trkpt lat="54.286521999165416" lon="-8.00543300807476">
        <ele>69.349999999999994</ele>
        <time>2026-07-04T15:59:12Z</time>
      </trkpt>
      <trkpt lat="54.286395013332367" lon="-8.005295963957906">
        <ele>69.349999999999994</ele>
        <time>2026-07-04T15:59:14Z</time>
      </trkpt>
      <trkpt lat="54.286328963935375" lon="-8.005224969238043">
        <ele>69.349999999999994</ele>
        <time>2026-07-04T15:59:15Z</time>
      </trkpt>
      <trkpt lat="54.286266015842557" lon="-8.005156992003322">
        <ele>69.349999999999994</ele>
        <time>2026-07-04T15:59:16Z</time>
      </trkpt>
      <trkpt lat="54.286224022507668" lon="-8.005064036697149">
        <ele>69.349999999999994</ele>
        <time>2026-07-04T15:59:17Z</time>
      </trkpt>
      <trkpt lat="54.286183035001159" lon="-8.004964962601662">
        <ele>68.870000000000005</ele>
        <time>2026-07-04T15:59:18Z</time>
      </trkpt>
      <trkpt lat="54.285763017833233" lon="-8.003940023481846">
        <ele>67.909999999999997</ele>
        <time>2026-07-04T15:59:30Z</time>
      </trkpt>
      <trkpt lat="54.285382982343435" lon="-8.002969985827804">
        <ele>68.390000000000001</ele>
        <time>2026-07-04T15:59:37Z</time>
      </trkpt>
      <trkpt lat="54.28535096347332" lon="-8.002777034416795">
        <ele>68.390000000000001</ele>
        <time>2026-07-04T15:59:38Z</time>
      </trkpt>
      <trkpt lat="54.285320034250617" lon="-8.002575030550361">
        <ele>68.390000000000001</ele>
        <time>2026-07-04T15:59:39Z</time>
      </trkpt>
      <trkpt lat="54.285292960703373" lon="-8.002387024462223">
        <ele>68.390000000000001</ele>
        <time>2026-07-04T15:59:40Z</time>
      </trkpt>
      <trkpt lat="54.28528499789536" lon="-8.00218996591866">
        <ele>68.390000000000001</ele>
        <time>2026-07-04T15:59:41Z</time>
      </trkpt>
      <trkpt lat="54.285276029258966" lon="-8.001981005072594">
        <ele>68.390000000000001</ele>
        <time>2026-07-04T15:59:42Z</time>
      </trkpt>
      <trkpt lat="54.285136973485351" lon="-7.999497028067708">
        <ele>69.829999999999998</ele>
        <time>2026-07-04T15:59:52Z</time>
      </trkpt>
      <trkpt lat="54.284828016534448" lon="-7.996221967041493">
        <ele>68.390000000000001</ele>
        <time>2026-07-04T16:00:04Z</time>
      </trkpt>
      <trkpt lat="54.284785017371178" lon="-7.995660966262221">
        <ele>66.950000000000003</ele>
        <time>2026-07-04T16:00:06Z</time>
      </trkpt>
      <trkpt lat="54.284795997664332" lon="-7.995412023738027">
        <ele>66.469999999999999</ele>
        <time>2026-07-04T16:00:07Z</time>
      </trkpt>
      <trkpt lat="54.284840002655983" lon="-7.995159979909658">
        <ele>66.469999999999999</ele>
        <time>2026-07-04T16:00:08Z</time>
      </trkpt>
      <trkpt lat="54.284884007647634" lon="-7.994902990758419">
        <ele>65.989999999999995</ele>
        <time>2026-07-04T16:00:09Z</time>
      </trkpt>
      <trkpt lat="54.284929018467665" lon="-7.994642984122038">
        <ele>65.989999999999995</ele>
        <time>2026-07-04T16:00:10Z</time>
      </trkpt>
      <trkpt lat="54.285409972071648" lon="-7.99234801903367">
        <ele>68.390000000000001</ele>
        <time>2026-07-04T16:00:19Z</time>
      </trkpt>
      <trkpt lat="54.285471998155117" lon="-7.991889026015997">
        <ele>68.870000000000005</ele>
        <time>2026-07-04T16:00:21Z</time>
      </trkpt>
      <trkpt lat="54.28547996096313" lon="-7.991657014936209">
        <ele>69.349999999999994</ele>
        <time>2026-07-04T16:00:22Z</time>
      </trkpt>
      <trkpt lat="54.285481972619891" lon="-7.991422992199659">
        <ele>69.349999999999994</ele>
        <time>2026-07-04T16:00:23Z</time>
      </trkpt>
      <trkpt lat="54.285455988720059" lon="-7.991187963634729">
        <ele>69.829999999999998</ele>
        <time>2026-07-04T16:00:24Z</time>
      </trkpt>
      <trkpt lat="54.285430004820228" lon="-7.990946983918548">
        <ele>69.829999999999998</ele>
        <time>2026-07-04T16:00:25Z</time>
      </trkpt>
      <trkpt lat="54.28498400375247" lon="-7.987764962017536">
        <ele>65.510000000000005</ele>
        <time>2026-07-04T16:00:37Z</time>
      </trkpt>
      <trkpt lat="54.284368017688394" lon="-7.98570703715086">
        <ele>65.030000000000001</ele>
        <time>2026-07-04T16:00:47Z</time>
      </trkpt>
      <trkpt lat="54.284304985776544" lon="-7.985049979761243">
        <ele>65.510000000000005</ele>
        <time>2026-07-04T16:00:50Z</time>
      </trkpt>
      <trkpt lat="54.284299034625292" lon="-7.98482702113688">
        <ele>65.510000000000005</ele>
        <time>2026-07-04T16:00:51Z</time>
      </trkpt>
      <trkpt lat="54.284435994923115" lon="-7.982439016923308">
        <ele>62.619999999999997</ele>
        <time>2026-07-04T16:01:01Z</time>
      </trkpt>
      <trkpt lat="54.284453010186553" lon="-7.982198959216476">
        <ele>62.140000000000001</ele>
        <time>2026-07-04T16:01:02Z</time>
      </trkpt>
      <trkpt lat="54.284392995759845" lon="-7.981692021712661">
        <ele>61.659999999999997</ele>
        <time>2026-07-04T16:01:04Z</time>
      </trkpt>
      <trkpt lat="54.284356031566858" lon="-7.981430003419519">
        <ele>61.18</ele>
        <time>2026-07-04T16:01:05Z</time>
      </trkpt>
      <trkpt lat="54.283882034942508" lon="-7.978613013401628">
        <ele>62.140000000000001</ele>
        <time>2026-07-04T16:01:15Z</time>
      </trkpt>
      <trkpt lat="54.283248027786613" lon="-7.975237034261227">
        <ele>58.780000000000001</ele>
        <time>2026-07-04T16:01:27Z</time>
      </trkpt>
      <trkpt lat="54.282716028392315" lon="-7.972750961780548">
        <ele>53.490000000000002</ele>
        <time>2026-07-04T16:01:36Z</time>
      </trkpt>
      <trkpt lat="54.282674035057425" lon="-7.969304993748665">
        <ele>55.890000000000001</ele>
        <time>2026-07-04T16:01:48Z</time>
      </trkpt>
      <trkpt lat="54.282701024785638" lon="-7.965805968269706">
        <ele>60.700000000000003</ele>
        <time>2026-07-04T16:01:59Z</time>
      </trkpt>
      <trkpt lat="54.282356025651097" lon="-7.962929969653487">
        <ele>60.700000000000003</ele>
        <time>2026-07-04T16:02:08Z</time>
      </trkpt>
      <trkpt lat="54.282100964337587" lon="-7.959804022684693">
        <ele>59.740000000000002</ele>
        <time>2026-07-04T16:02:18Z</time>
      </trkpt>
      <trkpt lat="54.282013038173318" lon="-7.957331025972962">
        <ele>56.859999999999999</ele>
        <time>2026-07-04T16:02:26Z</time>
      </trkpt>
      <trkpt lat="54.282026030123234" lon="-7.95408102683723">
        <ele>56.859999999999999</ele>
        <time>2026-07-04T16:02:35Z</time>
      </trkpt>
      <trkpt lat="54.28234102204442" lon="-7.950734971091151">
        <ele>54.450000000000003</ele>
        <time>2026-07-04T16:02:45Z</time>
      </trkpt>
      <trkpt lat="54.28242702037096" lon="-7.950436994433403">
        <ele>54.450000000000003</ele>
        <time>2026-07-04T16:02:46Z</time>
      </trkpt>
      <trkpt lat="54.28251201286912" lon="-7.950144968926907">
        <ele>53.969999999999999</ele>
        <time>2026-07-04T16:02:47Z</time>
      </trkpt>
      <trkpt lat="54.282612008973956" lon="-7.949869958683848">
        <ele>53.009999999999998</ele>
        <time>2026-07-04T16:02:48Z</time>
      </trkpt>
      <trkpt lat="54.282724997028708" lon="-7.949602995067835">
        <ele>53.009999999999998</ele>
        <time>2026-07-04T16:02:49Z</time>
      </trkpt>
      <trkpt lat="54.282861035317183" lon="-7.949369978159666">
        <ele>52.530000000000001</ele>
        <time>2026-07-04T16:02:50Z</time>
      </trkpt>
      <trkpt lat="54.283012999221683" lon="-7.949181972071528">
        <ele>52.530000000000001</ele>
        <time>2026-07-04T16:02:51Z</time>
      </trkpt>
      <trkpt lat="54.283162029460073" lon="-7.949006035923958">
        <ele>52.530000000000001</ele>
        <time>2026-07-04T16:02:52Z</time>
      </trkpt>
      <trkpt lat="54.283326985314488" lon="-7.948886007070541">
        <ele>52.530000000000001</ele>
        <time>2026-07-04T16:02:53Z</time>
      </trkpt>
      <trkpt lat="54.283490013331175" lon="-7.948766984045506">
        <ele>52.530000000000001</ele>
        <time>2026-07-04T16:02:54Z</time>
      </trkpt>
      <trkpt lat="54.283655975013971" lon="-7.948661036789417">
        <ele>52.530000000000001</ele>
        <time>2026-07-04T16:02:55Z</time>
      </trkpt>
      <trkpt lat="54.284011032432318" lon="-7.948543019592762">
        <ele>53.490000000000002</ele>
        <time>2026-07-04T16:02:57Z</time>
      </trkpt>
      <trkpt lat="54.284185962751508" lon="-7.94849599711597">
        <ele>53.969999999999999</ele>
        <time>2026-07-04T16:02:58Z</time>
      </trkpt>
      <trkpt lat="54.285653969272971" lon="-7.948144963011146">
        <ele>60.219999999999999</ele>
        <time>2026-07-04T16:03:06Z</time>
      </trkpt>
      <trkpt lat="54.285829989239573" lon="-7.948025017976761">
        <ele>60.700000000000003</ele>
        <time>2026-07-04T16:03:07Z</time>
      </trkpt>
      <trkpt lat="54.285984970629215" lon="-7.947842963039875">
        <ele>61.659999999999997</ele>
        <time>2026-07-04T16:03:08Z</time>
      </trkpt>
      <trkpt lat="54.286142969503999" lon="-7.947657974436879">
        <ele>62.140000000000001</ele>
        <time>2026-07-04T16:03:09Z</time>
      </trkpt>
      <trkpt lat="54.286301974207163" lon="-7.947470974177122">
        <ele>63.100000000000001</ele>
        <time>2026-07-04T16:03:10Z</time>
      </trkpt>
      <trkpt lat="54.286433989182115" lon="-7.94720702804625">
        <ele>63.579999999999998</ele>
        <time>2026-07-04T16:03:11Z</time>
      </trkpt>
      <trkpt lat="54.286564998328686" lon="-7.946945009753108">
        <ele>64.549999999999997</ele>
        <time>2026-07-04T16:03:12Z</time>
      </trkpt>
      <trkpt lat="54.286696007475257" lon="-7.946674022823572">
        <ele>64.549999999999997</ele>
        <time>2026-07-04T16:03:13Z</time>
      </trkpt>
      <trkpt lat="54.286802960559726" lon="-7.946366993710399">
        <ele>65.030000000000001</ele>
        <time>2026-07-04T16:03:14Z</time>
      </trkpt>
      <trkpt lat="54.286901028826833" lon="-7.946042027324438">
        <ele>65.030000000000001</ele>
        <time>2026-07-04T16:03:15Z</time>
      </trkpt>
      <trkpt lat="54.286973029375076" lon="-7.945694010704756">
        <ele>65.030000000000001</ele>
        <time>2026-07-04T16:03:16Z</time>
      </trkpt>
      <trkpt lat="54.287035977467895" lon="-7.945339037105441">
        <ele>65.030000000000001</ele>
        <time>2026-07-04T16:03:17Z</time>
      </trkpt>
      <trkpt lat="54.287057016044855" lon="-7.944971993565559">
        <ele>65.510000000000005</ele>
        <time>2026-07-04T16:03:18Z</time>
      </trkpt>
      <trkpt lat="54.287074031308293" lon="-7.944606961682439">
        <ele>65.989999999999995</ele>
        <time>2026-07-04T16:03:19Z</time>
      </trkpt>
      <trkpt lat="54.287074031308293" lon="-7.944252993911505">
        <ele>66.469999999999999</ele>
        <time>2026-07-04T16:03:20Z</time>
      </trkpt>
      <trkpt lat="54.287033965811133" lon="-7.943892991170287">
        <ele>67.430000000000007</ele>
        <time>2026-07-04T16:03:21Z</time>
      </trkpt>
      <trkpt lat="54.286992978304625" lon="-7.943538017570972">
        <ele>67.909999999999997</ele>
        <time>2026-07-04T16:03:22Z</time>
      </trkpt>
      <trkpt lat="54.286952996626496" lon="-7.943180026486516">
        <ele>68.870000000000005</ele>
        <time>2026-07-04T16:03:23Z</time>
      </trkpt>
      <trkpt lat="54.286870015785098" lon="-7.942835027351975">
        <ele>69.349999999999994</ele>
        <time>2026-07-04T16:03:24Z</time>
      </trkpt>
      <trkpt lat="54.286777982488275" lon="-7.942490028217435">
        <ele>69.829999999999998</ele>
        <time>2026-07-04T16:03:25Z</time>
      </trkpt>
      <trkpt lat="54.286000980064273" lon="-7.939638001844287">
        <ele>71.269999999999996</ele>
        <time>2026-07-04T16:03:34Z</time>
      </trkpt>
      <trkpt lat="54.285825965926051" lon="-7.938443999737501">
        <ele>72.719999999999999</ele>
        <time>2026-07-04T16:03:38Z</time>
      </trkpt>
      <trkpt lat="54.285810962319374" lon="-7.938106041401625">
        <ele>73.200000000000003</ele>
        <time>2026-07-04T16:03:39Z</time>
      </trkpt>
      <trkpt lat="54.285832000896335" lon="-7.937765987589955">
        <ele>73.680000000000007</ele>
        <time>2026-07-04T16:03:40Z</time>
      </trkpt>
      <trkpt lat="54.285856978967786" lon="-7.937414031475782">
        <ele>74.159999999999997</ele>
        <time>2026-07-04T16:03:41Z</time>
      </trkpt>
      <trkpt lat="54.285911964252591" lon="-7.93706500902772">
        <ele>74.640000000000001</ele>
        <time>2026-07-04T16:03:42Z</time>
      </trkpt>
      <trkpt lat="54.285968961194158" lon="-7.936705006286502">
        <ele>74.640000000000001</ele>
        <time>2026-07-04T16:03:43Z</time>
      </trkpt>
      <trkpt lat="54.286026963964105" lon="-7.93633796274662">
        <ele>74.640000000000001</ele>
        <time>2026-07-04T16:03:44Z</time>
      </trkpt>
      <trkpt lat="54.286751998588443" lon="-7.932895012199879">
        <ele>65.030000000000001</ele>
        <time>2026-07-04T16:03:54Z</time>
      </trkpt>
      <trkpt lat="54.286828022450209" lon="-7.932195961475372">
        <ele>63.579999999999998</ele>
        <time>2026-07-04T16:03:56Z</time>
      </trkpt>
      <trkpt lat="54.286827016621828" lon="-7.931840987876058">
        <ele>62.619999999999997</ele>
        <time>2026-07-04T16:03:57Z</time>
      </trkpt>
      <trkpt lat="54.286812013015151" lon="-7.931488025933504">
        <ele>62.140000000000001</ele>
        <time>2026-07-04T16:03:58Z</time>
      </trkpt>
      <trkpt lat="54.28657497279346" lon="-7.928013978525996">
        <ele>60.219999999999999</ele>
        <time>2026-07-04T16:04:08Z</time>
      </trkpt>
      <trkpt lat="54.286547983065248" lon="-7.927070008590818">
        <ele>59.259999999999998</ele>
        <time>2026-07-04T16:04:11Z</time>
      </trkpt>
      <trkpt lat="54.286556029692292" lon="-7.926748981699348">
        <ele>59.259999999999998</ele>
        <time>2026-07-04T16:04:12Z</time>
      </trkpt>
      <trkpt lat="54.286949979141355" lon="-7.923258002847433">
        <ele>57.82</ele>
        <time>2026-07-04T16:04:23Z</time>
      </trkpt>
      <trkpt lat="54.286845959722996" lon="-7.920304974541068">
        <ele>58.780000000000001</ele>
        <time>2026-07-04T16:04:32Z</time>
      </trkpt>
      <trkpt lat="54.286670023575425" lon="-7.918007997795939">
        <ele>55.409999999999997</ele>
        <time>2026-07-04T16:04:39Z</time>
      </trkpt>
      <trkpt lat="54.286911003291607" lon="-7.914784988388419">
        <ele>53.969999999999999</ele>
        <time>2026-07-04T16:04:48Z</time>
      </trkpt>
      <trkpt lat="54.287312999367714" lon="-7.909968998283148">
        <ele>57.340000000000003</ele>
        <time>2026-07-04T16:05:01Z</time>
      </trkpt>
      <trkpt lat="54.28769102320075" lon="-7.905444027855992">
        <ele>53.009999999999998</ele>
        <time>2026-07-04T16:05:13Z</time>
      </trkpt>
      <trkpt lat="54.288139035925269" lon="-7.902540033683181">
        <ele>51.090000000000003</ele>
        <time>2026-07-04T16:05:21Z</time>
      </trkpt>
      <trkpt lat="54.288814030587673" lon="-7.900023031979799">
        <ele>49.649999999999999</ele>
        <time>2026-07-04T16:05:29Z</time>
      </trkpt>
      <trkpt lat="54.289552979171276" lon="-7.897323975339532">
        <ele>50.609999999999999</ele>
        <time>2026-07-04T16:05:38Z</time>
      </trkpt>
      <trkpt lat="54.290990978479385" lon="-7.892042035236955">
        <ele>57.82</ele>
        <time>2026-07-04T16:05:54Z</time>
      </trkpt>
      <trkpt lat="54.291720958426595" lon="-7.8890660405159">
        <ele>54.450000000000003</ele>
        <time>2026-07-04T16:06:03Z</time>
      </trkpt>
      <trkpt lat="54.291748031973839" lon="-7.888707965612412">
        <ele>53.969999999999999</ele>
        <time>2026-07-04T16:06:04Z</time>
      </trkpt>
      <trkpt lat="54.291768986731768" lon="-7.888351986184716">
        <ele>53.490000000000002</ele>
        <time>2026-07-04T16:06:05Z</time>
      </trkpt>
      <trkpt lat="54.291765969246626" lon="-7.887996006757021">
        <ele>53.009999999999998</ele>
        <time>2026-07-04T16:06:06Z</time>
      </trkpt>
      <trkpt lat="54.291757000610232" lon="-7.887642038986087">
        <ele>52.530000000000001</ele>
        <time>2026-07-04T16:06:07Z</time>
      </trkpt>
      <trkpt lat="54.291721964254975" lon="-7.887294022366405">
        <ele>52.530000000000001</ele>
        <time>2026-07-04T16:06:08Z</time>
      </trkpt>
      <trkpt lat="54.291662033647299" lon="-7.886974001303315">
        <ele>52.049999999999997</ele>
        <time>2026-07-04T16:06:09Z</time>
      </trkpt>
      <trkpt lat="54.291187031194568" lon="-7.883875966072083">
        <ele>52.530000000000001</ele>
        <time>2026-07-04T16:06:19Z</time>
      </trkpt>
      <trkpt lat="54.291075970977545" lon="-7.883019000291824">
        <ele>52.049999999999997</ele>
        <time>2026-07-04T16:06:22Z</time>
      </trkpt>
      <trkpt lat="54.29106499068439" lon="-7.88275295868516">
        <ele>52.049999999999997</ele>
        <time>2026-07-04T16:06:23Z</time>
      </trkpt>
      <trkpt lat="54.29106499068439" lon="-7.882498987019062">
        <ele>52.049999999999997</ele>
        <time>2026-07-04T16:06:24Z</time>
      </trkpt>
      <trkpt lat="54.291072031483054" lon="-7.882255995646119">
        <ele>51.57</ele>
        <time>2026-07-04T16:06:25Z</time>
      </trkpt>
      <trkpt lat="54.291093992069364" lon="-7.882016021758318">
        <ele>51.090000000000003</ele>
        <time>2026-07-04T16:06:26Z</time>
      </trkpt>
      <trkpt lat="54.291116036474705" lon="-7.88178401067853">
        <ele>51.090000000000003</ele>
        <time>2026-07-04T16:06:27Z</time>
      </trkpt>
      <trkpt lat="54.291141014546156" lon="-7.881565997377038">
        <ele>51.090000000000003</ele>
        <time>2026-07-04T16:06:28Z</time>
      </trkpt>
      <trkpt lat="54.291443014517426" lon="-7.879475969821215">
        <ele>51.57</ele>
        <time>2026-07-04T16:06:39Z</time>
      </trkpt>
      <trkpt lat="54.291490036994219" lon="-7.878695027902722">
        <ele>52.049999999999997</ele>
        <time>2026-07-04T16:06:43Z</time>
      </trkpt>
      <trkpt lat="54.291487019509077" lon="-7.878496963530779">
        <ele>52.530000000000001</ele>
        <time>2026-07-04T16:06:44Z</time>
      </trkpt>
      <trkpt lat="54.291424993425608" lon="-7.876799963414669">
        <ele>54.450000000000003</ele>
        <time>2026-07-04T16:06:54Z</time>
      </trkpt>
      <trkpt lat="54.291388029232621" lon="-7.876418000087142">
        <ele>53.969999999999999</ele>
        <time>2026-07-04T16:06:57Z</time>
      </trkpt>
      <trkpt lat="54.29136598482728" lon="-7.876295959576964">
        <ele>53.969999999999999</ele>
        <time>2026-07-04T16:06:58Z</time>
      </trkpt>
      <trkpt lat="54.291302030906081" lon="-7.875948026776314">
        <ele>53.969999999999999</ele>
        <time>2026-07-04T16:07:04Z</time>
      </trkpt>
      <trkpt lat="54.291292978450656" lon="-7.875895975157619">
        <ele>53.969999999999999</ele>
        <time>2026-07-04T16:07:05Z</time>
      </trkpt>
      <trkpt lat="54.291337989270687" lon="-7.87579002790153">
        <ele>54.450000000000003</ele>
        <time>2026-07-04T16:07:06Z</time>
      </trkpt>
      <trkpt lat="54.291389035061002" lon="-7.875758009031415">
        <ele>53.969999999999999</ele>
        <time>2026-07-04T16:07:07Z</time>
      </trkpt>
      <trkpt lat="54.291453994810581" lon="-7.87570302374661">
        <ele>53.969999999999999</ele>
        <time>2026-07-04T16:07:08Z</time>
      </trkpt>
      <trkpt lat="54.291525995358825" lon="-7.87564099766314">
        <ele>53.969999999999999</ele>
        <time>2026-07-04T16:07:09Z</time>
      </trkpt>
      <trkpt lat="54.292424032464623" lon="-7.874860977753997">
        <ele>52.049999999999997</ele>
        <time>2026-07-04T16:07:18Z</time>
      </trkpt>
      <trkpt lat="54.29375097155571" lon="-7.873724978417158">
        <ele>53.969999999999999</ele>
        <time>2026-07-04T16:07:31Z</time>
      </trkpt>
      <trkpt lat="54.29533900693059" lon="-7.872365014627576">
        <ele>54.450000000000003</ele>
        <time>2026-07-04T16:07:47Z</time>
      </trkpt>
      <trkpt lat="54.296448016539216" lon="-7.871377961710095">
        <ele>58.780000000000001</ele>
        <time>2026-07-04T16:07:59Z</time>
      </trkpt>
      <trkpt lat="54.296534014865756" lon="-7.871254999190569">
        <ele>59.259999999999998</ele>
        <time>2026-07-04T16:08:00Z</time>
      </trkpt>
      <trkpt lat="54.296614984050393" lon="-7.871105968952179">
        <ele>59.740000000000002</ele>
        <time>2026-07-04T16:08:01Z</time>
      </trkpt>
      <trkpt lat="54.296686984598637" lon="-7.870931960642338">
        <ele>60.219999999999999</ele>
        <time>2026-07-04T16:08:02Z</time>
      </trkpt>
      <trkpt lat="54.296759990975261" lon="-7.870761975646019">
        <ele>60.219999999999999</ele>
        <time>2026-07-04T16:08:03Z</time>
      </trkpt>
      <trkpt lat="54.297025026753545" lon="-7.870259983465076">
        <ele>59.740000000000002</ele>
        <time>2026-07-04T16:08:06Z</time>
      </trkpt>
      <trkpt lat="54.29813495837152" lon="-7.86844496615231">
        <ele>57.82</ele>
        <time>2026-07-04T16:08:18Z</time>
      </trkpt>
      <trkpt lat="54.298324976116419" lon="-7.867882959544659">
        <ele>55.409999999999997</ele>
        <time>2026-07-04T16:08:21Z</time>
      </trkpt>
      <trkpt lat="54.298523962497711" lon="-7.867038985714316">
        <ele>53.009999999999998</ele>
        <time>2026-07-04T16:08:25Z</time>
      </trkpt>
      <trkpt lat="54.29856201633811" lon="-7.865193039178848">
        <ele>50.609999999999999</ele>
        <time>2026-07-04T16:08:33Z</time>
      </trkpt>
      <trkpt lat="54.298213999718428" lon="-7.863727966323495">
        <ele>50.130000000000003</ele>
        <time>2026-07-04T16:08:40Z</time>
      </trkpt>
      <trkpt lat="54.2975730355829" lon="-7.861574990674853">
        <ele>52.049999999999997</ele>
        <time>2026-07-04T16:08:52Z</time>
      </trkpt>
      <trkpt lat="54.296906003728509" lon="-7.859340962022543">
        <ele>51.090000000000003</ele>
        <time>2026-07-04T16:09:05Z</time>
      </trkpt>
      <trkpt lat="54.296511970460415" lon="-7.857500966638327">
        <ele>48.68</ele>
        <time>2026-07-04T16:09:14Z</time>
      </trkpt>
      <trkpt lat="54.296366963535547" lon="-7.855318989604712">
        <ele>49.649999999999999</ele>
        <time>2026-07-04T16:09:22Z</time>
      </trkpt>
      <trkpt lat="54.296117015182972" lon="-7.853099964559078">
        <ele>51.090000000000003</ele>
        <time>2026-07-04T16:09:30Z</time>
      </trkpt>
      <trkpt lat="54.296073010191321" lon="-7.852825960144401">
        <ele>51.090000000000003</ele>
        <time>2026-07-04T16:09:31Z</time>
      </trkpt>
      <trkpt lat="54.296030011028051" lon="-7.852557990700007">
        <ele>51.090000000000003</ele>
        <time>2026-07-04T16:09:32Z</time>
      </trkpt>
      <trkpt lat="54.295986006036401" lon="-7.852283986285329">
        <ele>51.57</ele>
        <time>2026-07-04T16:09:33Z</time>
      </trkpt>
      <trkpt lat="54.295938983559608" lon="-7.851992966607213">
        <ele>51.57</ele>
        <time>2026-07-04T16:09:34Z</time>
      </trkpt>
      <trkpt lat="54.29574997164309" lon="-7.85082402639091">
        <ele>51.090000000000003</ele>
        <time>2026-07-04T16:09:38Z</time>
      </trkpt>
      <trkpt lat="54.295719964429736" lon="-7.85052202641964">
        <ele>51.57</ele>
        <time>2026-07-04T16:09:39Z</time>
      </trkpt>
      <trkpt lat="54.295635977759957" lon="-7.847792962566018">
        <ele>53.969999999999999</ele>
        <time>2026-07-04T16:09:48Z</time>
      </trkpt>
      <trkpt lat="54.295677971094847" lon="-7.847490040585399">
        <ele>54.450000000000003</ele>
        <time>2026-07-04T16:09:49Z</time>
      </trkpt>
      <trkpt lat="54.295719964429736" lon="-7.847184017300606">
        <ele>54.93</ele>
        <time>2026-07-04T16:09:50Z</time>
      </trkpt>
      <trkpt lat="54.296379033476114" lon="-7.84485099837184">
        <ele>59.259999999999998</ele>
        <time>2026-07-04T16:09:58Z</time>
      </trkpt>
      <trkpt lat="54.297462981194258" lon="-7.842303989455104">
        <ele>61.18</ele>
        <time>2026-07-04T16:10:07Z</time>
      </trkpt>
      <trkpt lat="54.297654004767537" lon="-7.841698983684182">
        <ele>61.659999999999997</ele>
        <time>2026-07-04T16:10:09Z</time>
      </trkpt>
      <trkpt lat="54.297741008922458" lon="-7.84139103256166">
        <ele>61.659999999999997</ele>
        <time>2026-07-04T16:10:10Z</time>
      </trkpt>
      <trkpt lat="54.298353977501392" lon="-7.837807014584541">
        <ele>61.18</ele>
        <time>2026-07-04T16:10:20Z</time>
      </trkpt>
      <trkpt lat="54.298737030476332" lon="-7.833283971995115">
        <ele>63.579999999999998</ele>
        <time>2026-07-04T16:10:32Z</time>
      </trkpt>
      <trkpt lat="54.298593029379845" lon="-7.829277003183961">
        <ele>61.18</ele>
        <time>2026-07-04T16:10:43Z</time>
      </trkpt>
      <trkpt lat="54.298268985003233" lon="-7.824566960334778">
        <ele>64.549999999999997</ele>
        <time>2026-07-04T16:10:57Z</time>
      </trkpt>
      <trkpt lat="54.297933960333467" lon="-7.819184018298984">
        <ele>65.030000000000001</ele>
        <time>2026-07-04T16:11:12Z</time>
      </trkpt>
      <trkpt lat="54.297807980328798" lon="-7.815986992791295">
        <ele>63.100000000000001</ele>
        <time>2026-07-04T16:11:22Z</time>
      </trkpt>
      <trkpt lat="54.297668002545834" lon="-7.814850993454456">
        <ele>63.100000000000001</ele>
        <time>2026-07-04T16:11:26Z</time>
      </trkpt>
      <trkpt lat="54.297599019482732" lon="-7.814566008746624">
        <ele>62.619999999999997</ele>
        <time>2026-07-04T16:11:27Z</time>
      </trkpt>
      <trkpt lat="54.296759990975261" lon="-7.811682969331741">
        <ele>55.890000000000001</ele>
        <time>2026-07-04T16:11:37Z</time>
      </trkpt>
      <trkpt lat="54.296602997928858" lon="-7.810880988836289">
        <ele>53.009999999999998</ele>
        <time>2026-07-04T16:11:40Z</time>
      </trkpt>
      <trkpt lat="54.296597968786955" lon="-7.81062601134181">
        <ele>52.530000000000001</ele>
        <time>2026-07-04T16:11:41Z</time>
      </trkpt>
      <trkpt lat="54.296619007363915" lon="-7.808186961337924">
        <ele>49.159999999999997</ele>
        <time>2026-07-04T16:11:51Z</time>
      </trkpt>
      <trkpt lat="54.296810030937195" lon="-7.805338958278298">
        <ele>48.200000000000003</ele>
        <time>2026-07-04T16:12:00Z</time>
      </trkpt>
      <trkpt lat="54.297134997323155" lon="-7.802134975790978">
        <ele>49.159999999999997</ele>
        <time>2026-07-04T16:12:10Z</time>
      </trkpt>
      <trkpt lat="54.297117982059717" lon="-7.800549035891891">
        <ele>49.159999999999997</ele>
        <time>2026-07-04T16:12:15Z</time>
      </trkpt>
      <trkpt lat="54.297131979838014" lon="-7.800237983465195">
        <ele>49.159999999999997</ele>
        <time>2026-07-04T16:12:16Z</time>
      </trkpt>
      <trkpt lat="54.297527018934488" lon="-7.79702503234148">
        <ele>50.130000000000003</ele>
        <time>2026-07-04T16:12:26Z</time>
      </trkpt>
      <trkpt lat="54.298294968903065" lon="-7.792841037735343">
        <ele>53.490000000000002</ele>
        <time>2026-07-04T16:12:39Z</time>
      </trkpt>
      <trkpt lat="54.299094015732408" lon="-7.789687011390925">
        <ele>54.450000000000003</ele>
        <time>2026-07-04T16:12:50Z</time>
      </trkpt>
      <trkpt lat="54.299902031198144" lon="-7.787198005244136">
        <ele>55.890000000000001</ele>
        <time>2026-07-04T16:12:59Z</time>
      </trkpt>
      <trkpt lat="54.300242001190782" lon="-7.786097964271903">
        <ele>58.299999999999997</ele>
        <time>2026-07-04T16:13:03Z</time>
      </trkpt>
      <trkpt lat="54.300271002575755" lon="-7.785818008705974">
        <ele>59.259999999999998</ele>
        <time>2026-07-04T16:13:04Z</time>
      </trkpt>
      <trkpt lat="54.300271002575755" lon="-7.78555397875607">
        <ele>59.740000000000002</ele>
        <time>2026-07-04T16:13:05Z</time>
      </trkpt>
      <trkpt lat="54.300271002575755" lon="-7.785305958241224">
        <ele>60.219999999999999</ele>
        <time>2026-07-04T16:13:06Z</time>
      </trkpt>
      <trkpt lat="54.300245018675923" lon="-7.785065984353423">
        <ele>60.700000000000003</ele>
        <time>2026-07-04T16:13:07Z</time>
      </trkpt>
      <trkpt lat="54.300202019512653" lon="-7.784812012687326">
        <ele>61.18</ele>
        <time>2026-07-04T16:13:08Z</time>
      </trkpt>
      <trkpt lat="54.300118032842875" lon="-7.78458695858717">
        <ele>61.18</ele>
        <time>2026-07-04T16:13:09Z</time>
      </trkpt>
      <trkpt lat="54.300032034516335" lon="-7.784356037154794">
        <ele>61.659999999999997</ele>
        <time>2026-07-04T16:13:10Z</time>
      </trkpt>
      <trkpt lat="54.29976599290967" lon="-7.783648017793894">
        <ele>60.700000000000003</ele>
        <time>2026-07-04T16:13:13Z</time>
      </trkpt>
      <trkpt lat="54.299673959612846" lon="-7.783409971743822">
        <ele>60.219999999999999</ele>
        <time>2026-07-04T16:13:14Z</time>
      </trkpt>
      <trkpt lat="54.299261989071965" lon="-7.782488968223333">
        <ele>58.780000000000001</ele>
        <time>2026-07-04T16:13:18Z</time>
      </trkpt>
      <trkpt lat="54.299192000180483" lon="-7.782246982678771">
        <ele>59.259999999999998</ele>
        <time>2026-07-04T16:13:19Z</time>
      </trkpt>
      <trkpt lat="54.299127040430903" lon="-7.78198697604239">
        <ele>59.259999999999998</ele>
        <time>2026-07-04T16:13:20Z</time>
      </trkpt>
      <trkpt lat="54.298919001594186" lon="-7.781223971396685">
        <ele>61.18</ele>
        <time>2026-07-04T16:13:23Z</time>
      </trkpt>
      <trkpt lat="54.298853036016226" lon="-7.780996989458799">
        <ele>62.619999999999997</ele>
        <time>2026-07-04T16:13:24Z</time>
      </trkpt>
      <trkpt lat="54.298778017982841" lon="-7.780804038047791">
        <ele>63.579999999999998</ele>
        <time>2026-07-04T16:13:25Z</time>
      </trkpt>
      <trkpt lat="54.298667963594198" lon="-7.780646039173007">
        <ele>64.549999999999997</ele>
        <time>2026-07-04T16:13:26Z</time>
      </trkpt>
      <trkpt lat="54.298555981367826" lon="-7.780486028641462">
        <ele>65.510000000000005</ele>
        <time>2026-07-04T16:13:27Z</time>
      </trkpt>
      <trkpt lat="54.298446010798216" lon="-7.780328029766679">
        <ele>65.989999999999995</ele>
        <time>2026-07-04T16:13:28Z</time>
      </trkpt>
      <trkpt lat="54.298336040228605" lon="-7.780169025063515">
        <ele>65.989999999999995</ele>
        <time>2026-07-04T16:13:29Z</time>
      </trkpt>
      <trkpt lat="54.298250041902065" lon="-7.779972972348332">
        <ele>65.510000000000005</ele>
        <time>2026-07-04T16:13:30Z</time>
      </trkpt>
      <trkpt lat="54.298167983070016" lon="-7.779768034815788">
        <ele>65.030000000000001</ele>
        <time>2026-07-04T16:13:31Z</time>
      </trkpt>
      <trkpt lat="54.298133030533791" lon="-7.77953501790762">
        <ele>64.549999999999997</ele>
        <time>2026-07-04T16:13:32Z</time>
      </trkpt>
      <trkpt lat="54.298114003613591" lon="-7.779272999614477">
        <ele>63.579999999999998</ele>
        <time>2026-07-04T16:13:33Z</time>
      </trkpt>
      <trkpt lat="54.298093970865011" lon="-7.779007963836193">
        <ele>63.100000000000001</ele>
        <time>2026-07-04T16:13:34Z</time>
      </trkpt>
      <trkpt lat="54.298074021935463" lon="-7.778736976906657">
        <ele>62.619999999999997</ele>
        <time>2026-07-04T16:13:35Z</time>
      </trkpt>
      <trkpt lat="54.298163037747145" lon="-7.775990981608629">
        <ele>59.740000000000002</ele>
        <time>2026-07-04T16:13:44Z</time>
      </trkpt>
      <trkpt lat="54.298408040776849" lon="-7.771627027541399">
        <ele>54.450000000000003</ele>
        <time>2026-07-04T16:13:57Z</time>
      </trkpt>
      <trkpt lat="54.298607027158141" lon="-7.766802990809083">
        <ele>58.299999999999997</ele>
        <time>2026-07-04T16:14:12Z</time>
      </trkpt>
      <trkpt lat="54.298612978309393" lon="-7.76383001357317">
        <ele>63.100000000000001</ele>
        <time>2026-07-04T16:14:22Z</time>
      </trkpt>
      <trkpt lat="54.298576014116406" lon="-7.763257026672363">
        <ele>63.579999999999998</ele>
        <time>2026-07-04T16:14:24Z</time>
      </trkpt>
      <trkpt lat="54.298592023551464" lon="-7.762942034751177">
        <ele>63.100000000000001</ele>
        <time>2026-07-04T16:14:25Z</time>
      </trkpt>
      <trkpt lat="54.298608032986522" lon="-7.762633999809623">
        <ele>63.100000000000001</ele>
        <time>2026-07-04T16:14:26Z</time>
      </trkpt>
      <trkpt lat="54.298946997150779" lon="-7.759370002895594">
        <ele>58.299999999999997</ele>
        <time>2026-07-04T16:14:36Z</time>
      </trkpt>
      <trkpt lat="54.299044981598854" lon="-7.758820988237858">
        <ele>57.340000000000003</ele>
        <time>2026-07-04T16:14:38Z</time>
      </trkpt>
      <trkpt lat="54.29912100546062" lon="-7.758583026006818">
        <ele>56.369999999999997</ele>
        <time>2026-07-04T16:14:39Z</time>
      </trkpt>
      <trkpt lat="54.299199040979147" lon="-7.758341040462256">
        <ele>55.890000000000001</ele>
        <time>2026-07-04T16:14:40Z</time>
      </trkpt>
      <trkpt lat="54.300392037257552" lon="-7.756167026236653">
        <ele>53.009999999999998</ele>
        <time>2026-07-04T16:14:50Z</time>
      </trkpt>
      <trkpt lat="54.301779996603727" lon="-7.754723997786641">
        <ele>56.859999999999999</ele>
        <time>2026-07-04T16:14:59Z</time>
      </trkpt>
      <trkpt lat="54.302049977704883" lon="-7.754403976723552">
        <ele>57.82</ele>
        <time>2026-07-04T16:15:01Z</time>
      </trkpt>
      <trkpt lat="54.302179981023073" lon="-7.754234997555614">
        <ele>57.82</ele>
        <time>2026-07-04T16:15:02Z</time>
      </trkpt>
      <trkpt lat="54.302502013742924" lon="-7.75366703979671">
        <ele>56.859999999999999</ele>
        <time>2026-07-04T16:15:05Z</time>
      </trkpt>
      <trkpt lat="54.302547024562955" lon="-7.753442991524935">
        <ele>56.859999999999999</ele>
        <time>2026-07-04T16:15:06Z</time>
      </trkpt>
      <trkpt lat="54.302589017897844" lon="-7.753230007365346">
        <ele>56.859999999999999</ele>
        <time>2026-07-04T16:15:07Z</time>
      </trkpt>
      <trkpt lat="54.302596980705857" lon="-7.753007970750332">
        <ele>57.340000000000003</ele>
        <time>2026-07-04T16:15:08Z</time>
      </trkpt>
      <trkpt lat="54.302573008462787" lon="-7.752781994640827">
        <ele>57.340000000000003</ele>
        <time>2026-07-04T16:15:09Z</time>
      </trkpt>
      <trkpt lat="54.302548030391335" lon="-7.752545038238168">
        <ele>57.82</ele>
        <time>2026-07-04T16:15:10Z</time>
      </trkpt>
      <trkpt lat="54.302568985149264" lon="-7.75074502453208">
        <ele>60.219999999999999</ele>
        <time>2026-07-04T16:15:17Z</time>
      </trkpt>
      <trkpt lat="54.302986990660429" lon="-7.748656002804637">
        <ele>63.100000000000001</ele>
        <time>2026-07-04T16:15:25Z</time>
      </trkpt>
      <trkpt lat="54.303184971213341" lon="-7.747547999024391">
        <ele>62.619999999999997</ele>
        <time>2026-07-04T16:15:29Z</time>
      </trkpt>
      <trkpt lat="54.303258983418345" lon="-7.747319005429745">
        <ele>62.140000000000001</ele>
        <time>2026-07-04T16:15:30Z</time>
      </trkpt>
      <trkpt lat="54.303339030593634" lon="-7.747078025713563">
        <ele>61.659999999999997</ele>
        <time>2026-07-04T16:15:31Z</time>
      </trkpt>
      <trkpt lat="54.303414970636368" lon="-7.74696403183043">
        <ele>61.18</ele>
        <time>2026-07-04T16:15:32Z</time>
      </trkpt>
      <trkpt lat="54.303512033075094" lon="-7.746820030733943">
        <ele>60.700000000000003</ele>
        <time>2026-07-04T16:15:33Z</time>
      </trkpt>
      <trkpt lat="54.303623009473085" lon="-7.746797986328602">
        <ele>60.700000000000003</ele>
        <time>2026-07-04T16:15:34Z</time>
      </trkpt>
      <trkpt lat="54.303742032498121" lon="-7.746782982721925">
        <ele>60.219999999999999</ele>
        <time>2026-07-04T16:15:35Z</time>
      </trkpt>
      <trkpt lat="54.303858960047364" lon="-7.746818019077182">
        <ele>60.219999999999999</ele>
        <time>2026-07-04T16:15:36Z</time>
      </trkpt>
      <trkpt lat="54.303974965587258" lon="-7.746852971613407">
        <ele>60.219999999999999</ele>
        <time>2026-07-04T16:15:37Z</time>
      </trkpt>
      <trkpt lat="54.304089965298772" lon="-7.746887002140284">
        <ele>60.219999999999999</ele>
        <time>2026-07-04T16:15:38Z</time>
      </trkpt>
      <trkpt lat="54.304303033277392" lon="-7.746936036273837">
        <ele>59.259999999999998</ele>
        <time>2026-07-04T16:15:40Z</time>
      </trkpt>
      <trkpt lat="54.304391965270042" lon="-7.746926983818412">
        <ele>58.780000000000001</ele>
        <time>2026-07-04T16:15:41Z</time>
      </trkpt>
      <trkpt lat="54.304467989131808" lon="-7.746850037947297">
        <ele>58.299999999999997</ele>
        <time>2026-07-04T16:15:42Z</time>
      </trkpt>
      <trkpt lat="54.304548958316445" lon="-7.746755992993712">
        <ele>57.82</ele>
        <time>2026-07-04T16:15:43Z</time>
      </trkpt>
      <trkpt lat="54.304607966914773" lon="-7.746592964977026">
        <ele>57.340000000000003</ele>
        <time>2026-07-04T16:15:44Z</time>
      </trkpt>
      <trkpt lat="54.304673010483384" lon="-7.746413005515933">
        <ele>56.859999999999999</ele>
        <time>2026-07-04T16:15:45Z</time>
      </trkpt>
      <trkpt lat="54.305323027074337" lon="-7.744532022625208">
        <ele>54.450000000000003</ele>
        <time>2026-07-04T16:15:53Z</time>
      </trkpt>
      <trkpt lat="54.306432958692312" lon="-7.741237012669444">
        <ele>52.049999999999997</ele>
        <time>2026-07-04T16:16:04Z</time>
      </trkpt>
      <trkpt lat="54.307799963280559" lon="-7.737175980582833">
        <ele>52.530000000000001</ele>
        <time>2026-07-04T16:16:17Z</time>
      </trkpt>
      <trkpt lat="54.308781987056136" lon="-7.734226975589991">
        <ele>52.530000000000001</ele>
        <time>2026-07-04T16:16:28Z</time>
      </trkpt>
      <trkpt lat="54.309291020035744" lon="-7.73267799988389">
        <ele>53.969999999999999</ele>
        <time>2026-07-04T16:16:36Z</time>
      </trkpt>
      <trkpt lat="54.310025023296475" lon="-7.729813987389207">
        <ele>58.780000000000001</ele>
        <time>2026-07-04T16:16:48Z</time>
      </trkpt>
      <trkpt lat="54.310156032443047" lon="-7.729340996593237">
        <ele>57.340000000000003</ele>
        <time>2026-07-04T16:16:50Z</time>
      </trkpt>
      <trkpt lat="54.310969999060035" lon="-7.727618012577295">
        <ele>59.259999999999998</ele>
        <time>2026-07-04T16:16:58Z</time>
      </trkpt>
      <trkpt lat="54.31104501709342" lon="-7.727381978183985">
        <ele>59.259999999999998</ele>
        <time>2026-07-04T16:16:59Z</time>
      </trkpt>
      <trkpt lat="54.311122968792915" lon="-7.727137980982661">
        <ele>59.740000000000002</ele>
        <time>2026-07-04T16:17:00Z</time>
      </trkpt>
      <trkpt lat="54.311163034290075" lon="-7.726858025416732">
        <ele>59.740000000000002</ele>
        <time>2026-07-04T16:17:01Z</time>
      </trkpt>
      <trkpt lat="54.311199998483062" lon="-7.72657597437501">
        <ele>59.740000000000002</ele>
        <time>2026-07-04T16:17:02Z</time>
      </trkpt>
      <trkpt lat="54.311236962676048" lon="-7.726287972182035">
        <ele>59.740000000000002</ele>
        <time>2026-07-04T16:17:03Z</time>
      </trkpt>
      <trkpt lat="54.311696039512753" lon="-7.722770003601909">
        <ele>61.18</ele>
        <time>2026-07-04T16:17:14Z</time>
      </trkpt>
      <trkpt lat="54.31209996342659" lon="-7.719611031934619">
        <ele>56.369999999999997</ele>
        <time>2026-07-04T16:17:23Z</time>
      </trkpt>
      <trkpt lat="54.312551999464631" lon="-7.71570498123765">
        <ele>53.009999999999998</ele>
        <time>2026-07-04T16:17:34Z</time>
      </trkpt>
      <trkpt lat="54.312927005812526" lon="-7.712237974628806">
        <ele>54.93</ele>
        <time>2026-07-04T16:17:45Z</time>
      </trkpt>
      <trkpt lat="54.31338801048696" lon="-7.707725996151567">
        <ele>47.719999999999999</ele>
        <time>2026-07-04T16:17:59Z</time>
      </trkpt>
      <trkpt lat="54.31366503238678" lon="-7.705966969951987">
        <ele>46.280000000000001</ele>
        <time>2026-07-04T16:18:05Z</time>
      </trkpt>
      <trkpt lat="54.313934007659554" lon="-7.70517697557807">
        <ele>44.840000000000003</ele>
        <time>2026-07-04T16:18:08Z</time>
      </trkpt>
      <trkpt lat="54.314491990953684" lon="-7.703317031264305">
        <ele>41.950000000000003</ele>
        <time>2026-07-04T16:18:15Z</time>
      </trkpt>
      <trkpt lat="54.314593998715281" lon="-7.703078985214233">
        <ele>41.950000000000003</ele>
        <time>2026-07-04T16:18:16Z</time>
      </trkpt>
      <trkpt lat="54.314713021740317" lon="-7.702858960255981">
        <ele>41.950000000000003</ele>
        <time>2026-07-04T16:18:17Z</time>
      </trkpt>
      <trkpt lat="54.314850987866521" lon="-7.702651005238295">
        <ele>41.950000000000003</ele>
        <time>2026-07-04T16:18:18Z</time>
      </trkpt>
      <trkpt lat="54.315006975084543" lon="-7.702495018020272">
        <ele>41.950000000000003</ele>
        <time>2026-07-04T16:18:19Z</time>
      </trkpt>
      <trkpt lat="54.315164973959327" lon="-7.702359985560179">
        <ele>41.950000000000003</ele>
        <time>2026-07-04T16:18:20Z</time>
      </trkpt>
      <trkpt lat="54.315325990319252" lon="-7.702234005555511">
        <ele>41.950000000000003</ele>
        <time>2026-07-04T16:18:21Z</time>
      </trkpt>
      <trkpt lat="54.316082037985325" lon="-7.70163101144135">
        <ele>42.920000000000002</ele>
        <time>2026-07-04T16:18:26Z</time>
      </trkpt>
      <trkpt lat="54.316670028492808" lon="-7.700999015942216">
        <ele>44.359999999999999</ele>
        <time>2026-07-04T16:18:30Z</time>
      </trkpt>
      <trkpt lat="54.316805982962251" lon="-7.700853003188968">
        <ele>44.359999999999999</ele>
        <time>2026-07-04T16:18:31Z</time>
      </trkpt>
      <trkpt lat="54.316948978230357" lon="-7.70073096267879">
        <ele>44.359999999999999</ele>
        <time>2026-07-04T16:18:32Z</time>
      </trkpt>
      <trkpt lat="54.317112006247044" lon="-7.70066499710083">
        <ele>44.359999999999999</ele>
        <time>2026-07-04T16:18:33Z</time>
      </trkpt>
      <trkpt lat="54.31727503426373" lon="-7.70059903152287">
        <ele>43.880000000000003</ele>
        <time>2026-07-04T16:18:34Z</time>
      </trkpt>
      <trkpt lat="54.317438984289765" lon="-7.700531976297498">
        <ele>44.359999999999999</ele>
        <time>2026-07-04T16:18:35Z</time>
      </trkpt>
      <trkpt lat="54.317602012306452" lon="-7.700458969920874">
        <ele>44.840000000000003</ele>
        <time>2026-07-04T16:18:36Z</time>
      </trkpt>
      <trkpt lat="54.318309025838971" lon="-7.699769977480173">
        <ele>45.32</ele>
        <time>2026-07-04T16:18:41Z</time>
      </trkpt>
      <trkpt lat="54.318429976701736" lon="-7.699566967785358">
        <ele>45.32</ele>
        <time>2026-07-04T16:18:42Z</time>
      </trkpt>
      <trkpt lat="54.318554028868675" lon="-7.699362030252814">
        <ele>44.840000000000003</ele>
        <time>2026-07-04T16:18:43Z</time>
      </trkpt>
      <trkpt lat="54.318647990003228" lon="-7.699108980596066">
        <ele>43.880000000000003</ele>
        <time>2026-07-04T16:18:44Z</time>
      </trkpt>
      <trkpt lat="54.318726025521755" lon="-7.698842016980052">
        <ele>43.399999999999999</ele>
        <time>2026-07-04T16:18:45Z</time>
      </trkpt>
      <trkpt lat="54.318798026069999" lon="-7.698564995080233">
        <ele>43.399999999999999</ele>
        <time>2026-07-04T16:18:46Z</time>
      </trkpt>
      <trkpt lat="54.318841025233269" lon="-7.698274981230497">
        <ele>43.399999999999999</ele>
        <time>2026-07-04T16:18:47Z</time>
      </trkpt>
      <trkpt lat="54.319197004660964" lon="-7.695015007629991">
        <ele>44.359999999999999</ele>
        <time>2026-07-04T16:18:58Z</time>
      </trkpt>
      <trkpt lat="54.319462962448597" lon="-7.691009966656566">
        <ele>47.240000000000002</ele>
        <time>2026-07-04T16:19:11Z</time>
      </trkpt>
      <trkpt lat="54.319827994331717" lon="-7.686177967116237">
        <ele>47.240000000000002</ele>
        <time>2026-07-04T16:19:26Z</time>
      </trkpt>
      <trkpt lat="54.320267038419843" lon="-7.682730993255973">
        <ele>47.240000000000002</ele>
        <time>2026-07-04T16:19:37Z</time>
      </trkpt>
      <trkpt lat="54.320569038391113" lon="-7.681944016367197">
        <ele>47.240000000000002</ele>
        <time>2026-07-04T16:19:40Z</time>
      </trkpt>
      <trkpt lat="54.320698035880923" lon="-7.681707981973887">
        <ele>47.719999999999999</ele>
        <time>2026-07-04T16:19:41Z</time>
      </trkpt>
      <trkpt lat="54.320833990350366" lon="-7.68147898837924">
        <ele>47.719999999999999</ele>
        <time>2026-07-04T16:19:42Z</time>
      </trkpt>
      <trkpt lat="54.320983020588756" lon="-7.681270027533174">
        <ele>47.240000000000002</ele>
        <time>2026-07-04T16:19:43Z</time>
      </trkpt>
      <trkpt lat="54.321133978664875" lon="-7.681071041151881">
        <ele>47.240000000000002</ele>
        <time>2026-07-04T16:19:44Z</time>
      </trkpt>
      <trkpt lat="54.3212949950248" lon="-7.680894015356898">
        <ele>47.240000000000002</ele>
        <time>2026-07-04T16:19:45Z</time>
      </trkpt>
      <trkpt lat="54.3214659858495" lon="-7.680740039795637">
        <ele>47.719999999999999</ele>
        <time>2026-07-04T16:19:46Z</time>
      </trkpt>
      <trkpt lat="54.321639994159341" lon="-7.680583968758583">
        <ele>48.200000000000003</ele>
        <time>2026-07-04T16:19:47Z</time>
      </trkpt>
      <trkpt lat="54.323370018973947" lon="-7.678974978625774">
        <ele>50.130000000000003</ele>
        <time>2026-07-04T16:19:57Z</time>
      </trkpt>
      <trkpt lat="54.325058972463012" lon="-7.676723012700677">
        <ele>51.57</ele>
        <time>2026-07-04T16:20:08Z</time>
      </trkpt>
      <trkpt lat="54.326723031699657" lon="-7.673948016017675">
        <ele>55.409999999999997</ele>
        <time>2026-07-04T16:20:20Z</time>
      </trkpt>
      <trkpt lat="54.327469021081924" lon="-7.672468023374677">
        <ele>56.859999999999999</ele>
        <time>2026-07-04T16:20:26Z</time>
      </trkpt>
      <trkpt lat="54.328009989112616" lon="-7.670366009697318">
        <ele>58.299999999999997</ele>
        <time>2026-07-04T16:20:33Z</time>
      </trkpt>
      <trkpt lat="54.328079978004098" lon="-7.670063003897667">
        <ele>58.780000000000001</ele>
        <time>2026-07-04T16:20:34Z</time>
      </trkpt>
      <trkpt lat="54.328441992402077" lon="-7.668727012351155">
        <ele>58.299999999999997</ele>
        <time>2026-07-04T16:20:39Z</time>
      </trkpt>
      <trkpt lat="54.328535031527281" lon="-7.66850003041327">
        <ele>58.299999999999997</ele>
        <time>2026-07-04T16:20:40Z</time>
      </trkpt>
      <trkpt lat="54.328631004318595" lon="-7.668267013505101">
        <ele>57.82</ele>
        <time>2026-07-04T16:20:41Z</time>
      </trkpt>
      <trkpt lat="54.328741980716586" lon="-7.668056963011622">
        <ele>56.859999999999999</ele>
        <time>2026-07-04T16:20:42Z</time>
      </trkpt>
      <trkpt lat="54.328862009570003" lon="-7.667850013822317">
        <ele>56.369999999999997</ele>
        <time>2026-07-04T16:20:43Z</time>
      </trkpt>
      <trkpt lat="54.328998969867826" lon="-7.667667958885431">
        <ele>55.890000000000001</ele>
        <time>2026-07-04T16:20:44Z</time>
      </trkpt>
      <trkpt lat="54.329145988449454" lon="-7.66749101690948">
        <ele>54.93</ele>
        <time>2026-07-04T16:20:45Z</time>
      </trkpt>
      <trkpt lat="54.330462031066418" lon="-7.66624697484076">
        <ele>50.130000000000003</ele>
        <time>2026-07-04T16:20:54Z</time>
      </trkpt>
      <trkpt lat="54.33179902844131" lon="-7.665045009925962">
        <ele>47.240000000000002</ele>
        <time>2026-07-04T16:21:05Z</time>
      </trkpt>
      <trkpt lat="54.332655994221568" lon="-7.664238000288606">
        <ele>48.200000000000003</ele>
        <time>2026-07-04T16:21:14Z</time>
      </trkpt>
      <trkpt lat="54.332771999761462" lon="-7.664116965606809">
        <ele>48.68</ele>
        <time>2026-07-04T16:21:22Z</time>
      </trkpt>
      <trkpt lat="54.332771999761462" lon="-7.664116965606809">
        <ele>48.68</ele>
        <time>2026-07-04T16:21:43Z</time>
      </trkpt>
      <trkpt lat="54.332771999761462" lon="-7.664116965606809">
        <ele>48.68</ele>
        <time>2026-07-04T16:22:14Z</time>
      </trkpt>
      <trkpt lat="54.332784991711378" lon="-7.664103973656893">
        <ele>48.68</ele>
        <time>2026-07-04T16:22:19Z</time>
      </trkpt>
      <trkpt lat="54.332807958126068" lon="-7.664078995585442">
        <ele>49.159999999999997</ele>
        <time>2026-07-04T16:22:21Z</time>
      </trkpt>
      <trkpt lat="54.332830002531409" lon="-7.664057034999132">
        <ele>48.68</ele>
        <time>2026-07-04T16:22:22Z</time>
      </trkpt>
      <trkpt lat="54.332859003916383" lon="-7.664026021957398">
        <ele>48.200000000000003</ele>
        <time>2026-07-04T16:22:23Z</time>
      </trkpt>
      <trkpt lat="54.332933016121387" lon="-7.663948992267251">
        <ele>47.719999999999999</ele>
        <time>2026-07-04T16:22:25Z</time>
      </trkpt>
      <trkpt lat="54.333079028874636" lon="-7.663757968693972">
        <ele>47.719999999999999</ele>
        <time>2026-07-04T16:22:28Z</time>
      </trkpt>
      <trkpt lat="54.33345302939415" lon="-7.663368964567781">
        <ele>47.240000000000002</ele>
        <time>2026-07-04T16:22:37Z</time>
      </trkpt>
      <trkpt lat="54.333809008821845" lon="-7.662856997922063">
        <ele>47.240000000000002</ele>
        <time>2026-07-04T16:22:45Z</time>
      </trkpt>
      <trkpt lat="54.333849996328354" lon="-7.662777034565806">
        <ele>47.719999999999999</ele>
        <time>2026-07-04T16:22:46Z</time>
      </trkpt>
      <trkpt lat="54.334289962425828" lon="-7.661911016330123">
        <ele>48.68</ele>
        <time>2026-07-04T16:22:54Z</time>
      </trkpt>
      <trkpt lat="54.335055984556675" lon="-7.660210998728871">
        <ele>49.159999999999997</ele>
        <time>2026-07-04T16:23:05Z</time>
      </trkpt>
      <trkpt lat="54.335770038887858" lon="-7.658505029976368">
        <ele>45.799999999999997</ele>
        <time>2026-07-04T16:23:16Z</time>
      </trkpt>
      <trkpt lat="54.336508987471461" lon="-7.656064974144101">
        <ele>47.240000000000002</ele>
        <time>2026-07-04T16:23:29Z</time>
      </trkpt>
      <trkpt lat="54.336490966379642" lon="-7.65415096655488">
        <ele>47.719999999999999</ele>
        <time>2026-07-04T16:23:39Z</time>
      </trkpt>
      <trkpt lat="54.336365992203355" lon="-7.653377987444401">
        <ele>47.240000000000002</ele>
        <time>2026-07-04T16:23:43Z</time>
      </trkpt>
      <trkpt lat="54.336175974458456" lon="-7.652176022529602">
        <ele>43.880000000000003</ele>
        <time>2026-07-04T16:23:49Z</time>
      </trkpt>
      <trkpt lat="54.336188966408372" lon="-7.651975024491549">
        <ele>43.399999999999999</ele>
        <time>2026-07-04T16:23:50Z</time>
      </trkpt>
      <trkpt lat="54.336215034127235" lon="-7.651763968169689">
        <ele>42.920000000000002</ele>
        <time>2026-07-04T16:23:51Z</time>
      </trkpt>
      <trkpt lat="54.336242023855448" lon="-7.651548972353339">
        <ele>42.920000000000002</ele>
        <time>2026-07-04T16:23:52Z</time>
      </trkpt>
      <trkpt lat="54.33626800775528" lon="-7.651340011507273">
        <ele>42.439999999999998</ele>
        <time>2026-07-04T16:23:53Z</time>
      </trkpt>
      <trkpt lat="54.336320981383324" lon="-7.651145970448852">
        <ele>41.950000000000003</ele>
        <time>2026-07-04T16:23:54Z</time>
      </trkpt>
      <trkpt lat="54.336388036608696" lon="-7.650959976017475">
        <ele>41.950000000000003</ele>
        <time>2026-07-04T16:23:55Z</time>
      </trkpt>
      <trkpt lat="54.336455008015037" lon="-7.650773981586099">
        <ele>41.950000000000003</ele>
        <time>2026-07-04T16:23:56Z</time>
      </trkpt>
      <trkpt lat="54.337408030405641" lon="-7.648670040071011">
        <ele>40.990000000000002</ele>
        <time>2026-07-04T16:24:08Z</time>
      </trkpt>
      <trkpt lat="54.337507020682096" lon="-7.648564008995891">
        <ele>40.990000000000002</ele>
        <time>2026-07-04T16:24:09Z</time>
      </trkpt>
      <trkpt lat="54.337607016786933" lon="-7.648470969870687">
        <ele>40.990000000000002</ele>
        <time>2026-07-04T16:24:10Z</time>
      </trkpt>
      <trkpt lat="54.337726039811969" lon="-7.648417996242642">
        <ele>40.990000000000002</ele>
        <time>2026-07-04T16:24:11Z</time>
      </trkpt>
      <trkpt lat="54.337845984846354" lon="-7.648384971544147">
        <ele>41.469999999999999</ele>
        <time>2026-07-04T16:24:12Z</time>
      </trkpt>
      <trkpt lat="54.337970959022641" lon="-7.648367034271359">
        <ele>41.950000000000003</ele>
        <time>2026-07-04T16:24:13Z</time>
      </trkpt>
      <trkpt lat="54.3393200263381" lon="-7.647884991019964">
        <ele>42.920000000000002</ele>
        <time>2026-07-04T16:24:23Z</time>
      </trkpt>
      <trkpt lat="54.340057969093323" lon="-7.647662032395601">
        <ele>43.880000000000003</ele>
        <time>2026-07-04T16:24:29Z</time>
      </trkpt>
      <trkpt lat="54.341045022010803" lon="-7.647581985220313">
        <ele>44.840000000000003</ele>
        <time>2026-07-04T16:24:38Z</time>
      </trkpt>
      <trkpt lat="54.342223014682531" lon="-7.647997979074717">
        <ele>43.880000000000003</ele>
        <time>2026-07-04T16:24:48Z</time>
      </trkpt>
      <trkpt lat="54.342320999130607" lon="-7.648107027634978">
        <ele>43.880000000000003</ele>
        <time>2026-07-04T16:24:49Z</time>
      </trkpt>
      <trkpt lat="54.342418983578682" lon="-7.64821800403297">
        <ele>43.880000000000003</ele>
        <time>2026-07-04T16:24:50Z</time>
      </trkpt>
      <trkpt lat="54.342515040189028" lon="-7.648336021229625">
        <ele>43.880000000000003</ele>
        <time>2026-07-04T16:24:51Z</time>
      </trkpt>
      <trkpt lat="54.342593997716904" lon="-7.648478010669351">
        <ele>44.840000000000003</ele>
        <time>2026-07-04T16:24:52Z</time>
      </trkpt>
      <trkpt lat="54.343137983232737" lon="-7.649563970044255">
        <ele>43.399999999999999</ele>
        <time>2026-07-04T16:25:00Z</time>
      </trkpt>
      <trkpt lat="54.343199003487825" lon="-7.649694979190826">
        <ele>43.399999999999999</ele>
        <time>2026-07-04T16:25:01Z</time>
      </trkpt>
      <trkpt lat="54.343260023742914" lon="-7.649826994165778">
        <ele>43.399999999999999</ele>
        <time>2026-07-04T16:25:02Z</time>
      </trkpt>
      <trkpt lat="54.343326995149255" lon="-7.649922966957092">
        <ele>42.920000000000002</ele>
        <time>2026-07-04T16:25:03Z</time>
      </trkpt>
      <trkpt lat="54.343403019011021" lon="-7.650017011910677">
        <ele>42.920000000000002</ele>
        <time>2026-07-04T16:25:04Z</time>
      </trkpt>
      <trkpt lat="54.343482982367277" lon="-7.650117008015513">
        <ele>42.920000000000002</ele>
        <time>2026-07-04T16:25:05Z</time>
      </trkpt>
      <trkpt lat="54.34357400983572" lon="-7.650197977200151">
        <ele>42.439999999999998</ele>
        <time>2026-07-04T16:25:06Z</time>
      </trkpt>
      <trkpt lat="54.343679035082459" lon="-7.650250028818846">
        <ele>42.439999999999998</ele>
        <time>2026-07-04T16:25:07Z</time>
      </trkpt>
      <trkpt lat="54.343781964853406" lon="-7.650286993011832">
        <ele>41.950000000000003</ele>
        <time>2026-07-04T16:25:08Z</time>
      </trkpt>
      <trkpt lat="54.343889001756907" lon="-7.650298979133368">
        <ele>41.950000000000003</ele>
        <time>2026-07-04T16:25:09Z</time>
      </trkpt>
      <trkpt lat="54.343995032832026" lon="-7.650309959426522">
        <ele>41.950000000000003</ele>
        <time>2026-07-04T16:25:10Z</time>
      </trkpt>
      <trkpt lat="54.344129981473088" lon="-7.650324963033199">
        <ele>41.469999999999999</ele>
        <time>2026-07-04T16:25:11Z</time>
      </trkpt>
      <trkpt lat="54.344199970364571" lon="-7.65028104186058">
        <ele>41.469999999999999</ele>
        <time>2026-07-04T16:25:12Z</time>
      </trkpt>
      <trkpt lat="54.344295021146536" lon="-7.650220021605492">
        <ele>41.469999999999999</ele>
        <time>2026-07-04T16:25:13Z</time>
      </trkpt>
      <trkpt lat="54.344387976452708" lon="-7.650159001350403">
        <ele>40.990000000000002</ele>
        <time>2026-07-04T16:25:14Z</time>
      </trkpt>
      <trkpt lat="54.345116028562188" lon="-7.649312010034919">
        <ele>39.07</ele>
        <time>2026-07-04T16:25:24Z</time>
      </trkpt>
      <trkpt lat="54.345373017713428" lon="-7.64882099814713">
        <ele>40.990000000000002</ele>
        <time>2026-07-04T16:25:28Z</time>
      </trkpt>
      <trkpt lat="54.345436971634626" lon="-7.648686971515417">
        <ele>41.469999999999999</ele>
        <time>2026-07-04T16:25:29Z</time>
      </trkpt>
      <trkpt lat="54.34613199904561" lon="-7.64733798801899">
        <ele>43.399999999999999</ele>
        <time>2026-07-04T16:25:38Z</time>
      </trkpt>
      <trkpt lat="54.3466039840132" lon="-7.646535001695156">
        <ele>43.880000000000003</ele>
        <time>2026-07-04T16:25:46Z</time>
      </trkpt>
      <trkpt lat="54.346872959285975" lon="-7.646143985912204">
        <ele>47.240000000000002</ele>
        <time>2026-07-04T16:25:55Z</time>
      </trkpt>
      <trkpt lat="54.34694898314774" lon="-7.646033009514213">
        <ele>47.719999999999999</ele>
        <time>2026-07-04T16:25:57Z</time>
      </trkpt>
      <trkpt lat="54.346962980926037" lon="-7.646011970937252">
        <ele>48.200000000000003</ele>
        <time>2026-07-04T16:25:58Z</time>
      </trkpt>
      <trkpt lat="54.346930962055922" lon="-7.64587601646781">
        <ele>48.200000000000003</ele>
        <time>2026-07-04T16:25:59Z</time>
      </trkpt>
      <trkpt lat="54.346912018954754" lon="-7.645794041454792">
        <ele>48.68</ele>
        <time>2026-07-04T16:26:00Z</time>
      </trkpt>
      <trkpt lat="54.346891986206174" lon="-7.64570401981473">
        <ele>48.68</ele>
        <time>2026-07-04T16:26:01Z</time>
      </trkpt>
      <trkpt lat="54.346870025619864" lon="-7.645611986517906">
        <ele>48.68</ele>
        <time>2026-07-04T16:26:02Z</time>
      </trkpt>
      <trkpt lat="54.34662401676178" lon="-7.644543964415789">
        <ele>49.649999999999999</ele>
        <time>2026-07-04T16:26:11Z</time>
      </trkpt>
      <trkpt lat="54.346086988225579" lon="-7.642656024545431">
        <ele>50.130000000000003</ele>
        <time>2026-07-04T16:26:21Z</time>
      </trkpt>
      <trkpt lat="54.345741989091039" lon="-7.641997039318085">
        <ele>48.68</ele>
        <time>2026-07-04T16:26:26Z</time>
      </trkpt>
      <trkpt lat="54.345679963007569" lon="-7.641879022121429">
        <ele>48.200000000000003</ele>
        <time>2026-07-04T16:26:27Z</time>
      </trkpt>
      <trkpt lat="54.345175959169865" lon="-7.641264041885734">
        <ele>44.359999999999999</ele>
        <time>2026-07-04T16:26:36Z</time>
      </trkpt>
      <trkpt lat="54.344989964738488" lon="-7.641057008877397">
        <ele>43.880000000000003</ele>
        <time>2026-07-04T16:26:43Z</time>
      </trkpt>
      <trkpt lat="54.344302983954549" lon="-7.640257962048054">
        <ele>47.719999999999999</ele>
        <time>2026-07-04T16:26:55Z</time>
      </trkpt>
      <trkpt lat="54.343670988455415" lon="-7.638901015743613">
        <ele>47.240000000000002</ele>
        <time>2026-07-04T16:27:04Z</time>
      </trkpt>
      <trkpt lat="54.343576021492481" lon="-7.638267008587718">
        <ele>45.799999999999997</ele>
        <time>2026-07-04T16:27:08Z</time>
      </trkpt>
      <trkpt lat="54.343555988743901" lon="-7.638100041076541">
        <ele>45.799999999999997</ele>
        <time>2026-07-04T16:27:09Z</time>
      </trkpt>
      <trkpt lat="54.343536039814353" lon="-7.637935001403093">
        <ele>45.799999999999997</ele>
        <time>2026-07-04T16:27:10Z</time>
      </trkpt>
      <trkpt lat="54.343440989032388" lon="-7.635893002152443">
        <ele>44.840000000000003</ele>
        <time>2026-07-04T16:27:22Z</time>
      </trkpt>
      <trkpt lat="54.343422967940569" lon="-7.633862989023328">
        <ele>45.32</ele>
        <time>2026-07-04T16:27:34Z</time>
      </trkpt>
      <trkpt lat="54.343429002910852" lon="-7.633614968508482">
        <ele>44.840000000000003</ele>
        <time>2026-07-04T16:27:36Z</time>
      </trkpt>
      <trkpt lat="54.343432020395994" lon="-7.633498040959239">
        <ele>44.840000000000003</ele>
        <time>2026-07-04T16:27:37Z</time>
      </trkpt>
      <trkpt lat="54.343437971547246" lon="-7.633228981867433">
        <ele>44.359999999999999</ele>
        <time>2026-07-04T16:27:43Z</time>
      </trkpt>
      <trkpt lat="54.343439983204007" lon="-7.633153963834047">
        <ele>44.840000000000003</ele>
        <time>2026-07-04T16:28:18Z</time>
      </trkpt>
      <trkpt lat="54.343516007065773" lon="-7.632505958899856">
        <ele>45.32</ele>
        <time>2026-07-04T16:28:25Z</time>
      </trkpt>
      <trkpt lat="54.343526987358928" lon="-7.63240797445178">
        <ele>45.32</ele>
        <time>2026-07-04T16:28:26Z</time>
      </trkpt>
      <trkpt lat="54.343620026484132" lon="-7.632090970873833">
        <ele>46.280000000000001</ele>
        <time>2026-07-04T16:28:34Z</time>
      </trkpt>
      <trkpt lat="54.343734020367265" lon="-7.631789976730943">
        <ele>45.799999999999997</ele>
        <time>2026-07-04T16:28:54Z</time>
      </trkpt>
      <trkpt lat="54.343803003430367" lon="-7.631671959534288">
        <ele>45.799999999999997</ele>
        <time>2026-07-04T16:28:56Z</time>
      </trkpt>
      <trkpt lat="54.343835022300482" lon="-7.631622003391385">
        <ele>45.32</ele>
        <time>2026-07-04T16:28:57Z</time>
      </trkpt>
      <trkpt lat="54.343861006200314" lon="-7.631581015884876">
        <ele>45.799999999999997</ele>
        <time>2026-07-04T16:28:58Z</time>
      </trkpt>
      <trkpt lat="54.343884978443384" lon="-7.631542962044478">
        <ele>45.32</ele>
        <time>2026-07-04T16:28:59Z</time>
      </trkpt>
      <trkpt lat="54.343863017857075" lon="-7.631410025060177">
        <ele>45.32</ele>
        <time>2026-07-04T16:29:00Z</time>
      </trkpt>
      <trkpt lat="54.343843990936875" lon="-7.631340036168695">
        <ele>45.32</ele>
        <time>2026-07-04T16:29:01Z</time>
      </trkpt>
      <trkpt lat="54.343736032024026" lon="-7.630933010950685">
        <ele>44.359999999999999</ele>
        <time>2026-07-04T16:29:11Z</time>
      </trkpt>
      <trkpt lat="54.343700995668769" lon="-7.630798984318972">
        <ele>44.359999999999999</ele>
        <time>2026-07-04T16:29:28Z</time>
      </trkpt>
      <trkpt lat="54.343409975990653" lon="-7.629712019115686">
        <ele>43.399999999999999</ele>
        <time>2026-07-04T16:29:39Z</time>
      </trkpt>
      <trkpt lat="54.343311991542578" lon="-7.629308011382818">
        <ele>43.399999999999999</ele>
        <time>2026-07-04T16:29:43Z</time>
      </trkpt>
      <trkpt lat="54.343293970450759" lon="-7.629235005006194">
        <ele>43.399999999999999</ele>
        <time>2026-07-04T16:29:44Z</time>
      </trkpt>
      <trkpt lat="54.343279972672462" lon="-7.629181025549769">
        <ele>43.399999999999999</ele>
        <time>2026-07-04T16:29:45Z</time>
      </trkpt>
      <trkpt lat="54.34327200986445" lon="-7.629146995022893">
        <ele>43.399999999999999</ele>
        <time>2026-07-04T16:29:46Z</time>
      </trkpt>
      <trkpt lat="54.34327200986445" lon="-7.629146995022893">
        <ele>42.920000000000002</ele>
        <time>2026-07-04T16:29:47Z</time>
      </trkpt>
      <trkpt lat="54.34327200986445" lon="-7.629146995022893">
        <ele>42.920000000000002</ele>
        <time>2026-07-04T16:29:48Z</time>
      </trkpt>
      <trkpt lat="54.34327200986445" lon="-7.629146995022893">
        <ele>43.399999999999999</ele>
        <time>2026-07-04T16:29:49Z</time>
      </trkpt>
      <trkpt lat="54.343502009287477" lon="-7.629099972546101">
        <ele>44.840000000000003</ele>
        <time>2026-07-04T16:29:56Z</time>
      </trkpt>
      <trkpt lat="54.343464039266109" lon="-7.62914196588099">
        <ele>44.840000000000003</ele>
        <time>2026-07-04T16:30:03Z</time>
      </trkpt>
      <trkpt lat="54.343550959601998" lon="-7.629095027223229">
        <ele>43.399999999999999</ele>
        <time>2026-07-04T16:30:13Z</time>
      </trkpt>
      <trkpt lat="54.343555988743901" lon="-7.629063008353114">
        <ele>43.399999999999999</ele>
        <time>2026-07-04T16:30:32Z</time>
      </trkpt>
      <trkpt lat="54.343555988743901" lon="-7.629063008353114">
        <ele>43.399999999999999</ele>
        <time>2026-07-04T16:30:50Z</time>
      </trkpt>
      <trkpt lat="54.343551965430379" lon="-7.629058985039592">
        <ele>43.399999999999999</ele>
        <time>2026-07-04T16:31:06Z</time>
      </trkpt>
      <trkpt lat="54.343551965430379" lon="-7.629058985039592">
        <ele>43.399999999999999</ele>
        <time>2026-07-04T16:31:26Z</time>
      </trkpt>
      <trkpt lat="54.343554982915521" lon="-7.629054039716721">
        <ele>53.490000000000002</ele>
        <time>2026-07-04T17:21:43Z</time>
      </trkpt>
      <trkpt lat="54.343558000400662" lon="-7.62901296839118">
        <ele>52.530000000000001</ele>
        <time>2026-07-04T17:22:06Z</time>
      </trkpt>
      <trkpt lat="54.343570992350578" lon="-7.629070971161127">
        <ele>50.609999999999999</ele>
        <time>2026-07-04T17:23:02Z</time>
      </trkpt>
      <trkpt lat="54.343569986522198" lon="-7.629064014181495">
        <ele>53.969999999999999</ele>
        <time>2026-07-04T17:23:45Z</time>
      </trkpt>
      <trkpt lat="54.343567974865437" lon="-7.629057979211211">
        <ele>53.490000000000002</ele>
        <time>2026-07-04T17:24:20Z</time>
      </trkpt>
      <trkpt lat="54.343567974865437" lon="-7.629050016403198">
        <ele>52.049999999999997</ele>
        <time>2026-07-04T17:25:19Z</time>
      </trkpt>
      <trkpt lat="54.343559006229043" lon="-7.62905303388834">
        <ele>52.049999999999997</ele>
        <time>2026-07-04T17:26:01Z</time>
      </trkpt>
      <trkpt lat="54.343484994024038" lon="-7.62892697006464">
        <ele>50.130000000000003</ele>
        <time>2026-07-04T17:26:09Z</time>
      </trkpt>
      <trkpt lat="54.343221969902515" lon="-7.629005005583167">
        <ele>48.68</ele>
        <time>2026-07-04T17:26:17Z</time>
      </trkpt>
      <trkpt lat="54.343191962689161" lon="-7.628920013085008">
        <ele>48.200000000000003</ele>
        <time>2026-07-04T17:26:18Z</time>
      </trkpt>
      <trkpt lat="54.343157010152936" lon="-7.628821022808552">
        <ele>48.200000000000003</ele>
        <time>2026-07-04T17:26:19Z</time>
      </trkpt>
      <trkpt lat="54.343124991282821" lon="-7.628740975633264">
        <ele>48.200000000000003</ele>
        <time>2026-07-04T17:26:20Z</time>
      </trkpt>
      <trkpt lat="54.343092972412705" lon="-7.628669980913401">
        <ele>48.68</ele>
        <time>2026-07-04T17:26:21Z</time>
      </trkpt>
      <trkpt lat="54.343060031533241" lon="-7.628594040870667">
        <ele>48.68</ele>
        <time>2026-07-04T17:26:22Z</time>
      </trkpt>
      <trkpt lat="54.343018960207701" lon="-7.628536960110068">
        <ele>48.68</ele>
        <time>2026-07-04T17:26:23Z</time>
      </trkpt>
      <trkpt lat="54.342974033206701" lon="-7.628476023674011">
        <ele>48.68</ele>
        <time>2026-07-04T17:26:24Z</time>
      </trkpt>
      <trkpt lat="54.34292902238667" lon="-7.628415003418922">
        <ele>49.159999999999997</ele>
        <time>2026-07-04T17:26:25Z</time>
      </trkpt>
      <trkpt lat="54.342840006574988" lon="-7.628293968737125">
        <ele>49.159999999999997</ele>
        <time>2026-07-04T17:26:27Z</time>
      </trkpt>
      <trkpt lat="54.342347988858819" lon="-7.627746965736151">
        <ele>47.719999999999999</ele>
        <time>2026-07-04T17:26:36Z</time>
      </trkpt>
      <trkpt lat="54.342261990532279" lon="-7.62765602208674">
        <ele>46.280000000000001</ele>
        <time>2026-07-04T17:26:44Z</time>
      </trkpt>
      <trkpt lat="54.342246986925602" lon="-7.627641018480063">
        <ele>46.280000000000001</ele>
        <time>2026-07-04T17:26:45Z</time>
      </trkpt>
      <trkpt lat="54.342170963063836" lon="-7.627560971304774">
        <ele>46.280000000000001</ele>
        <time>2026-07-04T17:26:47Z</time>
      </trkpt>
      <trkpt lat="54.342118995264173" lon="-7.627504980191588">
        <ele>46.280000000000001</ele>
        <time>2026-07-04T17:26:48Z</time>
      </trkpt>
      <trkpt lat="54.342069961130619" lon="-7.627299036830664">
        <ele>46.280000000000001</ele>
        <time>2026-07-04T17:26:49Z</time>
      </trkpt>
      <trkpt lat="54.342103991657495" lon="-7.627208009362221">
        <ele>46.280000000000001</ele>
        <time>2026-07-04T17:26:50Z</time>
      </trkpt>
      <trkpt lat="54.342150008305907" lon="-7.627089992165566">
        <ele>46.280000000000001</ele>
        <time>2026-07-04T17:26:51Z</time>
      </trkpt>
      <trkpt lat="54.342201976105571" lon="-7.626954037696123">
        <ele>45.799999999999997</ele>
        <time>2026-07-04T17:26:52Z</time>
      </trkpt>
      <trkpt lat="54.342257967218757" lon="-7.626815987750888">
        <ele>45.799999999999997</ele>
        <time>2026-07-04T17:26:53Z</time>
      </trkpt>
      <trkpt lat="54.34256399050355" lon="-7.62619799003005">
        <ele>47.240000000000002</ele>
        <time>2026-07-04T17:27:00Z</time>
      </trkpt>
      <trkpt lat="54.343117028474808" lon="-7.625342030078173">
        <ele>48.68</ele>
        <time>2026-07-04T17:27:08Z</time>
      </trkpt>
      <trkpt lat="54.344085976481438" lon="-7.623678976669908">
        <ele>53.490000000000002</ele>
        <time>2026-07-04T17:27:20Z</time>
      </trkpt>
      <trkpt lat="54.345132960006595" lon="-7.621933026239276">
        <ele>54.93</ele>
        <time>2026-07-04T17:27:31Z</time>
      </trkpt>
      <trkpt lat="54.345242008566856" lon="-7.62179397046566">
        <ele>54.93</ele>
        <time>2026-07-04T17:27:32Z</time>
      </trkpt>
      <trkpt lat="54.346481021493673" lon="-7.620267039164901">
        <ele>53.969999999999999</ele>
        <time>2026-07-04T17:27:43Z</time>
      </trkpt>
      <trkpt lat="54.34742096811533" lon="-7.618681015446782">
        <ele>53.009999999999998</ele>
        <time>2026-07-04T17:27:53Z</time>
      </trkpt>
      <trkpt lat="54.348127981647849" lon="-7.61721502058208">
        <ele>54.450000000000003</ele>
        <time>2026-07-04T17:28:02Z</time>
      </trkpt>
      <trkpt lat="54.348582029342651" lon="-7.616209024563432">
        <ele>55.409999999999997</ele>
        <time>2026-07-04T17:28:10Z</time>
      </trkpt>
      <trkpt lat="54.348636008799076" lon="-7.616123026236892">
        <ele>55.409999999999997</ele>
        <time>2026-07-04T17:28:11Z</time>
      </trkpt>
      <trkpt lat="54.348786966875196" lon="-7.61622897349298">
        <ele>55.409999999999997</ele>
        <time>2026-07-04T17:28:12Z</time>
      </trkpt>
      <trkpt lat="54.348855027928948" lon="-7.616159990429878">
        <ele>55.409999999999997</ele>
        <time>2026-07-04T17:28:13Z</time>
      </trkpt>
      <trkpt lat="54.348958041518927" lon="-7.6160569768399">
        <ele>55.409999999999997</ele>
        <time>2026-07-04T17:28:14Z</time>
      </trkpt>
      <trkpt lat="54.349057031795382" lon="-7.61607700958848">
        <ele>55.409999999999997</ele>
        <time>2026-07-04T17:28:15Z</time>
      </trkpt>
      <trkpt lat="54.349173037335277" lon="-7.61609997600317">
        <ele>55.890000000000001</ele>
        <time>2026-07-04T17:28:16Z</time>
      </trkpt>
      <trkpt lat="54.349299017339945" lon="-7.616172982379794">
        <ele>55.409999999999997</ele>
        <time>2026-07-04T17:28:17Z</time>
      </trkpt>
      <trkpt lat="54.349428014829755" lon="-7.616245988756418">
        <ele>55.409999999999997</ele>
        <time>2026-07-04T17:28:18Z</time>
      </trkpt>
      <trkpt lat="54.3508589733392" lon="-7.617173027247191">
        <ele>56.859999999999999</ele>
        <time>2026-07-04T17:28:28Z</time>
      </trkpt>
      <trkpt lat="54.35246704146266" lon="-7.618225961923599">
        <ele>57.82</ele>
        <time>2026-07-04T17:28:41Z</time>
      </trkpt>
      <trkpt lat="54.353243038058281" lon="-7.618209030479193">
        <ele>57.82</ele>
        <time>2026-07-04T17:28:47Z</time>
      </trkpt>
      <trkpt lat="54.353818036615849" lon="-7.618009960278869">
        <ele>56.859999999999999</ele>
        <time>2026-07-04T17:28:53Z</time>
      </trkpt>
      <trkpt lat="54.353873021900654" lon="-7.618009960278869">
        <ele>56.369999999999997</ele>
        <time>2026-07-04T17:28:54Z</time>
      </trkpt>
      <trkpt lat="54.353978969156742" lon="-7.61818204075098">
        <ele>56.369999999999997</ele>
        <time>2026-07-04T17:28:55Z</time>
      </trkpt>
      <trkpt lat="54.354085000231862" lon="-7.618339033797383">
        <ele>55.890000000000001</ele>
        <time>2026-07-04T17:28:58Z</time>
      </trkpt>
      <trkpt lat="54.35416798107326" lon="-7.618366023525596">
        <ele>55.409999999999997</ele>
        <time>2026-07-04T17:28:59Z</time>
      </trkpt>
      <trkpt lat="54.354365961626172" lon="-7.618282036855817">
        <ele>54.93</ele>
        <time>2026-07-04T17:29:01Z</time>
      </trkpt>
      <trkpt lat="54.35444500297308" lon="-7.618352025747299">
        <ele>54.450000000000003</ele>
        <time>2026-07-04T17:29:02Z</time>
      </trkpt>
      <trkpt lat="54.354533012956381" lon="-7.618435006588697">
        <ele>53.969999999999999</ele>
        <time>2026-07-04T17:29:03Z</time>
      </trkpt>
      <trkpt lat="54.355300040915608" lon="-7.619312005117536">
        <ele>51.090000000000003</ele>
        <time>2026-07-04T17:29:10Z</time>
      </trkpt>
      <trkpt lat="54.356536036357284" lon="-7.621173039078713">
        <ele>54.450000000000003</ele>
        <time>2026-07-04T17:29:22Z</time>
      </trkpt>
      <trkpt lat="54.356891009956598" lon="-7.621675031259656">
        <ele>56.369999999999997</ele>
        <time>2026-07-04T17:29:27Z</time>
      </trkpt>
      <trkpt lat="54.356943983584642" lon="-7.621949035674334">
        <ele>56.369999999999997</ele>
        <time>2026-07-04T17:29:30Z</time>
      </trkpt>
      <trkpt lat="54.357134001329541" lon="-7.622022964060307">
        <ele>56.369999999999997</ele>
        <time>2026-07-04T17:29:31Z</time>
      </trkpt>
      <trkpt lat="54.357629036530852" lon="-7.622721008956432">
        <ele>54.450000000000003</ele>
        <time>2026-07-04T17:29:37Z</time>
      </trkpt>
      <trkpt lat="54.358918005600572" lon="-7.624625964090228">
        <ele>47.719999999999999</ele>
        <time>2026-07-04T17:29:49Z</time>
      </trkpt>
      <trkpt lat="54.359115986153483" lon="-7.625023014843464">
        <ele>47.240000000000002</ele>
        <time>2026-07-04T17:29:52Z</time>
      </trkpt>
      <trkpt lat="54.359164014458656" lon="-7.625116975978017">
        <ele>47.240000000000002</ele>
        <time>2026-07-04T17:29:53Z</time>
      </trkpt>
      <trkpt lat="54.359223023056984" lon="-7.625270029529929">
        <ele>46.759999999999998</ele>
        <time>2026-07-04T17:29:55Z</time>
      </trkpt>
      <trkpt lat="54.359232997521758" lon="-7.625329960137606">
        <ele>46.759999999999998</ele>
        <time>2026-07-04T17:29:56Z</time>
      </trkpt>
      <trkpt lat="54.359257975593209" lon="-7.625475972890854">
        <ele>46.280000000000001</ele>
        <time>2026-07-04T17:29:59Z</time>
      </trkpt>
      <trkpt lat="54.359270967543125" lon="-7.625557025894523">
        <ele>46.280000000000001</ele>
        <time>2026-07-04T17:30:00Z</time>
      </trkpt>
      <trkpt lat="54.359257975593209" lon="-7.625842010602355">
        <ele>46.280000000000001</ele>
        <time>2026-07-04T17:30:02Z</time>
      </trkpt>
      <trkpt lat="54.359285971149802" lon="-7.625925997272134">
        <ele>46.280000000000001</ele>
        <time>2026-07-04T17:30:03Z</time>
      </trkpt>
      <trkpt lat="54.359300974756479" lon="-7.625971008092165">
        <ele>46.280000000000001</ele>
        <time>2026-07-04T17:30:04Z</time>
      </trkpt>
      <trkpt lat="54.360021986067295" lon="-7.627412024885416">
        <ele>46.280000000000001</ele>
        <time>2026-07-04T17:30:14Z</time>
      </trkpt>
      <trkpt lat="54.360617017373443" lon="-7.629024032503367">
        <ele>46.280000000000001</ele>
        <time>2026-07-04T17:30:23Z</time>
      </trkpt>
      <trkpt lat="54.360896972939372" lon="-7.630956983193755">
        <ele>47.240000000000002</ele>
        <time>2026-07-04T17:30:31Z</time>
      </trkpt>
      <trkpt lat="54.360806029289961" lon="-7.632654989138246">
        <ele>49.649999999999999</ele>
        <time>2026-07-04T17:30:39Z</time>
      </trkpt>
      <trkpt lat="54.3606330268085" lon="-7.633862989023328">
        <ele>51.57</ele>
        <time>2026-07-04T17:30:47Z</time>
      </trkpt>
      <trkpt lat="54.360600002110004" lon="-7.633961979299784">
        <ele>51.57</ele>
        <time>2026-07-04T17:30:48Z</time>
      </trkpt>
      <trkpt lat="54.360459018498659" lon="-7.63412500731647">
        <ele>51.57</ele>
        <time>2026-07-04T17:30:50Z</time>
      </trkpt>
      <trkpt lat="54.360434040427208" lon="-7.634175969287753">
        <ele>51.57</ele>
        <time>2026-07-04T17:30:51Z</time>
      </trkpt>
      <trkpt lat="54.36043999157846" lon="-7.634329022839665">
        <ele>51.57</ele>
        <time>2026-07-04T17:30:52Z</time>
      </trkpt>
      <trkpt lat="54.360458012670279" lon="-7.634418960660696">
        <ele>51.090000000000003</ele>
        <time>2026-07-04T17:30:53Z</time>
      </trkpt>
      <trkpt lat="54.360534958541393" lon="-7.634462965652347">
        <ele>51.090000000000003</ele>
        <time>2026-07-04T17:30:54Z</time>
      </trkpt>
      <trkpt lat="54.360588015988469" lon="-7.634490039199591">
        <ele>51.090000000000003</ele>
        <time>2026-07-04T17:30:55Z</time>
      </trkpt>
      <trkpt lat="54.360724976286292" lon="-7.634439999237657">
        <ele>51.090000000000003</ele>
        <time>2026-07-04T17:30:56Z</time>
      </trkpt>
      <trkpt lat="54.360806029289961" lon="-7.634529015049338">
        <ele>51.090000000000003</ele>
        <time>2026-07-04T17:30:57Z</time>
      </trkpt>
      <trkpt lat="54.36089102178812" lon="-7.634624987840653">
        <ele>51.090000000000003</ele>
        <time>2026-07-04T17:30:58Z</time>
      </trkpt>
      <trkpt lat="54.361759973689914" lon="-7.635467033833265">
        <ele>52.530000000000001</ele>
        <time>2026-07-04T17:31:06Z</time>
      </trkpt>
      <trkpt lat="54.363059001043439" lon="-7.635771967470646">
        <ele>51.57</ele>
        <time>2026-07-04T17:31:15Z</time>
      </trkpt>
      <trkpt lat="54.364344030618668" lon="-7.635375000536442">
        <ele>50.609999999999999</ele>
        <time>2026-07-04T17:31:24Z</time>
      </trkpt>
      <trkpt lat="54.366702027618885" lon="-7.634174041450024">
        <ele>47.240000000000002</ele>
        <time>2026-07-04T17:31:43Z</time>
      </trkpt>
      <trkpt lat="54.366880981251597" lon="-7.634040014818311">
        <ele>45.799999999999997</ele>
        <time>2026-07-04T17:31:48Z</time>
      </trkpt>
      <trkpt lat="54.366917023435235" lon="-7.634014030918479">
        <ele>45.799999999999997</ele>
        <time>2026-07-04T17:31:50Z</time>
      </trkpt>
      <trkpt lat="54.366961028426886" lon="-7.63416800647974">
        <ele>45.799999999999997</ele>
        <time>2026-07-04T17:31:51Z</time>
      </trkpt>
      <trkpt lat="54.367001010105014" lon="-7.634207988157868">
        <ele>45.32</ele>
        <time>2026-07-04T17:31:52Z</time>
      </trkpt>
      <trkpt lat="54.3670570012182" lon="-7.634263979271054">
        <ele>45.32</ele>
        <time>2026-07-04T17:31:53Z</time>
      </trkpt>
      <trkpt lat="54.3671640381217" lon="-7.634280994534493">
        <ele>45.32</ele>
        <time>2026-07-04T17:31:54Z</time>
      </trkpt>
      <trkpt lat="54.367225980386138" lon="-7.634235983714461">
        <ele>44.840000000000003</ele>
        <time>2026-07-04T17:31:55Z</time>
      </trkpt>
      <trkpt lat="54.367262022569776" lon="-7.63421100564301">
        <ele>44.840000000000003</ele>
        <time>2026-07-04T17:31:56Z</time>
      </trkpt>
      <trkpt lat="54.367599980905652" lon="-7.633775984868407">
        <ele>44.359999999999999</ele>
        <time>2026-07-04T17:32:00Z</time>
      </trkpt>
      <trkpt lat="54.36877403408289" lon="-7.633120017126203">
        <ele>42.920000000000002</ele>
        <time>2026-07-04T17:32:09Z</time>
      </trkpt>
      <trkpt lat="54.370654011145234" lon="-7.632352989166975">
        <ele>44.359999999999999</ele>
        <time>2026-07-04T17:32:21Z</time>
      </trkpt>
      <trkpt lat="54.371158014982939" lon="-7.632365981116891">
        <ele>45.32</ele>
        <time>2026-07-04T17:32:24Z</time>
      </trkpt>
      <trkpt lat="54.372569024562836" lon="-7.632846012711525">
        <ele>46.759999999999998</ele>
        <time>2026-07-04T17:32:32Z</time>
      </trkpt>
      <trkpt lat="54.374971026554704" lon="-7.634400017559528">
        <ele>44.359999999999999</ele>
        <time>2026-07-04T17:32:45Z</time>
      </trkpt>
      <trkpt lat="54.377447962760925" lon="-7.635762998834252">
        <ele>45.799999999999997</ele>
        <time>2026-07-04T17:32:58Z</time>
      </trkpt>
      <trkpt lat="54.379202965646982" lon="-7.636661035940051">
        <ele>44.359999999999999</ele>
        <time>2026-07-04T17:33:07Z</time>
      </trkpt>
      <trkpt lat="54.380487995222211" lon="-7.636906038969755">
        <ele>42.920000000000002</ele>
        <time>2026-07-04T17:33:14Z</time>
      </trkpt>
      <trkpt lat="54.382020039483905" lon="-7.636864967644215">
        <ele>41.950000000000003</ele>
        <time>2026-07-04T17:33:24Z</time>
      </trkpt>
      <trkpt lat="54.383565997704864" lon="-7.637226982042193">
        <ele>39.07</ele>
        <time>2026-07-04T17:33:33Z</time>
      </trkpt>
      <trkpt lat="54.384810039773583" lon="-7.63827103190124">
        <ele>40.509999999999998</ele>
        <time>2026-07-04T17:33:43Z</time>
      </trkpt>
      <trkpt lat="54.386120969429612" lon="-7.639140989631414">
        <ele>44.840000000000003</ele>
        <time>2026-07-04T17:33:53Z</time>
      </trkpt>
      <trkpt lat="54.387264009565115" lon="-7.63936503790319">
        <ele>45.32</ele>
        <time>2026-07-04T17:34:02Z</time>
      </trkpt>
      <trkpt lat="54.387356964871287" lon="-7.639381969347596">
        <ele>45.32</ele>
        <time>2026-07-04T17:34:03Z</time>
      </trkpt>
      <trkpt lat="54.387441035360098" lon="-7.639437960460782">
        <ele>45.32</ele>
        <time>2026-07-04T17:34:04Z</time>
      </trkpt>
      <trkpt lat="54.387529967352748" lon="-7.639501998201013">
        <ele>45.799999999999997</ele>
        <time>2026-07-04T17:34:05Z</time>
      </trkpt>
      <trkpt lat="54.387916959822178" lon="-7.639900976791978">
        <ele>45.32</ele>
        <time>2026-07-04T17:34:09Z</time>
      </trkpt>
      <trkpt lat="54.388041011989117" lon="-7.640017988160253">
        <ele>45.799999999999997</ele>
        <time>2026-07-04T17:34:10Z</time>
      </trkpt>
      <trkpt lat="54.388183001428843" lon="-7.640081020072103">
        <ele>45.799999999999997</ele>
        <time>2026-07-04T17:34:11Z</time>
      </trkpt>
      <trkpt lat="54.389669029042125" lon="-7.640746962279081">
        <ele>48.200000000000003</ele>
        <time>2026-07-04T17:34:20Z</time>
      </trkpt>
      <trkpt lat="54.391990983858705" lon="-7.641897965222597">
        <ele>53.009999999999998</ele>
        <time>2026-07-04T17:34:34Z</time>
      </trkpt>
      <trkpt lat="54.39382703974843" lon="-7.642735987901688">
        <ele>54.93</ele>
        <time>2026-07-04T17:34:45Z</time>
      </trkpt>
      <trkpt lat="54.395800977945328" lon="-7.643593959510326">
        <ele>46.759999999999998</ele>
        <time>2026-07-04T17:34:57Z</time>
      </trkpt>
      <trkpt lat="54.397940961644053" lon="-7.644456038251519">
        <ele>47.719999999999999</ele>
        <time>2026-07-04T17:35:09Z</time>
      </trkpt>
      <trkpt lat="54.400451006367803" lon="-7.645142013207078">
        <ele>53.009999999999998</ele>
        <time>2026-07-04T17:35:23Z</time>
      </trkpt>
      <trkpt lat="54.401843994855881" lon="-7.645601006224752">
        <ele>55.890000000000001</ele>
        <time>2026-07-04T17:35:31Z</time>
      </trkpt>
      <trkpt lat="54.402374988421798" lon="-7.646043989807367">
        <ele>53.490000000000002</ele>
        <time>2026-07-04T17:35:34Z</time>
      </trkpt>
      <trkpt lat="54.402712024748325" lon="-7.646444980055094">
        <ele>52.049999999999997</ele>
        <time>2026-07-04T17:35:36Z</time>
      </trkpt>
      <trkpt lat="54.402845967561007" lon="-7.64669400639832">
        <ele>51.090000000000003</ele>
        <time>2026-07-04T17:35:37Z</time>
      </trkpt>
      <trkpt lat="54.404081040993333" lon="-7.648977991193533">
        <ele>48.68</ele>
        <time>2026-07-04T17:35:47Z</time>
      </trkpt>
      <trkpt lat="54.405036997050047" lon="-7.650784961879253">
        <ele>49.649999999999999</ele>
        <time>2026-07-04T17:35:56Z</time>
      </trkpt>
      <trkpt lat="54.405659018084407" lon="-7.652701986953616">
        <ele>52.049999999999997</ele>
        <time>2026-07-04T17:36:03Z</time>
      </trkpt>
      <trkpt lat="54.405906032770872" lon="-7.653173971921206">
        <ele>53.969999999999999</ele>
        <time>2026-07-04T17:36:05Z</time>
      </trkpt>
      <trkpt lat="54.40605397336185" lon="-7.653363989666104">
        <ele>55.409999999999997</ele>
        <time>2026-07-04T17:36:06Z</time>
      </trkpt>
      <trkpt lat="54.406223958358169" lon="-7.653519976884127">
        <ele>55.890000000000001</ele>
        <time>2026-07-04T17:36:07Z</time>
      </trkpt>
      <trkpt lat="54.407691964879632" lon="-7.654570983722806">
        <ele>56.369999999999997</ele>
        <time>2026-07-04T17:36:15Z</time>
      </trkpt>
      <trkpt lat="54.410089021548629" lon="-7.656143009662628">
        <ele>53.490000000000002</ele>
        <time>2026-07-04T17:36:28Z</time>
      </trkpt>
      <trkpt lat="54.411727013066411" lon="-7.657548990100622">
        <ele>51.57</ele>
        <time>2026-07-04T17:36:38Z</time>
      </trkpt>
      <trkpt lat="54.413117989897728" lon="-7.659684028476477">
        <ele>51.57</ele>
        <time>2026-07-04T17:36:48Z</time>
      </trkpt>
      <trkpt lat="54.414938958361745" lon="-7.662557009607554">
        <ele>50.609999999999999</ele>
        <time>2026-07-04T17:37:01Z</time>
      </trkpt>
      <trkpt lat="54.416726985946298" lon="-7.665380034595728">
        <ele>48.68</ele>
        <time>2026-07-04T17:37:14Z</time>
      </trkpt>
      <trkpt lat="54.418398002162576" lon="-7.668036008253694">
        <ele>50.130000000000003</ele>
        <time>2026-07-04T17:37:26Z</time>
      </trkpt>
      <trkpt lat="54.419813035055995" lon="-7.670288980007172">
        <ele>51.57</ele>
        <time>2026-07-04T17:37:36Z</time>
      </trkpt>
      <trkpt lat="54.4213099591434" lon="-7.67253901809454">
        <ele>49.649999999999999</ele>
        <time>2026-07-04T17:37:46Z</time>
      </trkpt>
      <trkpt lat="54.422613009810448" lon="-7.673437977209687">
        <ele>48.68</ele>
        <time>2026-07-04T17:37:53Z</time>
      </trkpt>
      <trkpt lat="54.424028964713216" lon="-7.67376696690917">
        <ele>46.759999999999998</ele>
        <time>2026-07-04T17:38:00Z</time>
      </trkpt>
      <trkpt lat="54.425623035058379" lon="-7.67412998713553">
        <ele>44.840000000000003</ele>
        <time>2026-07-04T17:38:08Z</time>
      </trkpt>
      <trkpt lat="54.428135007619858" lon="-7.675028024241328">
        <ele>45.799999999999997</ele>
        <time>2026-07-04T17:38:21Z</time>
      </trkpt>
      <trkpt lat="54.429885987192392" lon="-7.676379019394517">
        <ele>51.090000000000003</ele>
        <time>2026-07-04T17:38:31Z</time>
      </trkpt>
      <trkpt lat="54.431443009525537" lon="-7.677732026204467">
        <ele>51.57</ele>
        <time>2026-07-04T17:38:40Z</time>
      </trkpt>
      <trkpt lat="54.432786041870713" lon="-7.679356019943953">
        <ele>51.090000000000003</ele>
        <time>2026-07-04T17:38:48Z</time>
      </trkpt>
      <trkpt lat="54.433558015152812" lon="-7.680885968729854">
        <ele>53.009999999999998</ele>
        <time>2026-07-04T17:38:54Z</time>
      </trkpt>
      <trkpt lat="54.434536015614867" lon="-7.683568010106683">
        <ele>49.159999999999997</ele>
        <time>2026-07-04T17:39:03Z</time>
      </trkpt>
      <trkpt lat="54.435529019683599" lon="-7.686330014839768">
        <ele>48.200000000000003</ele>
        <time>2026-07-04T17:39:13Z</time>
      </trkpt>
      <trkpt lat="54.436610033735633" lon="-7.688261037692428">
        <ele>49.649999999999999</ele>
        <time>2026-07-04T17:39:21Z</time>
      </trkpt>
      <trkpt lat="54.437841000035405" lon="-7.689379015937448">
        <ele>50.130000000000003</ele>
        <time>2026-07-04T17:39:28Z</time>
      </trkpt>
      <trkpt lat="54.43838800303638" lon="-7.689756033942103">
        <ele>50.609999999999999</ele>
        <time>2026-07-04T17:39:31Z</time>
      </trkpt>
      <trkpt lat="54.438581960275769" lon="-7.689799033105373">
        <ele>50.609999999999999</ele>
        <time>2026-07-04T17:39:32Z</time>
      </trkpt>
      <trkpt lat="54.440341992303729" lon="-7.690048981457949">
        <ele>50.609999999999999</ele>
        <time>2026-07-04T17:39:41Z</time>
      </trkpt>
      <trkpt lat="54.441839000210166" lon="-7.690446032211185">
        <ele>52.530000000000001</ele>
        <time>2026-07-04T17:39:49Z</time>
      </trkpt>
      <trkpt lat="54.44201996549964" lon="-7.690551979467273">
        <ele>53.009999999999998</ele>
        <time>2026-07-04T17:39:50Z</time>
      </trkpt>
      <trkpt lat="54.442195985466242" lon="-7.690692041069269">
        <ele>53.490000000000002</ele>
        <time>2026-07-04T17:39:51Z</time>
      </trkpt>
      <trkpt lat="54.442854970693588" lon="-7.691398970782757">
        <ele>53.969999999999999</ele>
        <time>2026-07-04T17:39:55Z</time>
      </trkpt>
      <trkpt lat="54.44468499161303" lon="-7.693643979728222">
        <ele>48.200000000000003</ele>
        <time>2026-07-04T17:40:06Z</time>
      </trkpt>
      <trkpt lat="54.447512961924076" lon="-7.697100006043911">
        <ele>44.359999999999999</ele>
        <time>2026-07-04T17:40:23Z</time>
      </trkpt>
      <trkpt lat="54.4497100263834" lon="-7.699769977480173">
        <ele>46.759999999999998</ele>
        <time>2026-07-04T17:40:37Z</time>
      </trkpt>
      <trkpt lat="54.451997028663754" lon="-7.702466016635299">
        <ele>46.280000000000001</ele>
        <time>2026-07-04T17:40:51Z</time>
      </trkpt>
      <trkpt lat="54.453866025432944" lon="-7.704670038074255">
        <ele>45.799999999999997</ele>
        <time>2026-07-04T17:41:03Z</time>
      </trkpt>
      <trkpt lat="54.455816997215152" lon="-7.70695704035461">
        <ele>46.759999999999998</ele>
        <time>2026-07-04T17:41:15Z</time>
      </trkpt>
      <trkpt lat="54.457469992339611" lon="-7.708843974396586">
        <ele>49.159999999999997</ele>
        <time>2026-07-04T17:41:25Z</time>
      </trkpt>
      <trkpt lat="54.459541998803616" lon="-7.710940958932042">
        <ele>49.159999999999997</ele>
        <time>2026-07-04T17:41:37Z</time>
      </trkpt>
      <trkpt lat="54.461431028321385" lon="-7.712852032855153">
        <ele>48.200000000000003</ele>
        <time>2026-07-04T17:41:48Z</time>
      </trkpt>
      <trkpt lat="54.463615017011762" lon="-7.714815996587277">
        <ele>50.609999999999999</ele>
        <time>2026-07-04T17:42:00Z</time>
      </trkpt>
      <trkpt lat="54.464081972837448" lon="-7.714993022382259">
        <ele>52.049999999999997</ele>
        <time>2026-07-04T17:42:03Z</time>
      </trkpt>
      <trkpt lat="54.464228991419077" lon="-7.714985981583595">
        <ele>52.530000000000001</ele>
        <time>2026-07-04T17:42:04Z</time>
      </trkpt>
      <trkpt lat="54.46438598446548" lon="-7.714980030432344">
        <ele>53.009999999999998</ele>
        <time>2026-07-04T17:42:05Z</time>
      </trkpt>
      <trkpt lat="54.465650981292129" lon="-7.714631007984281">
        <ele>54.93</ele>
        <time>2026-07-04T17:42:12Z</time>
      </trkpt>
      <trkpt lat="54.466863004490733" lon="-7.714283997192979">
        <ele>53.969999999999999</ele>
        <time>2026-07-04T17:42:19Z</time>
      </trkpt>
      <trkpt lat="54.467320991680026" lon="-7.714129015803337">
        <ele>52.049999999999997</ele>
        <time>2026-07-04T17:42:22Z</time>
      </trkpt>
      <trkpt lat="54.46747999638319" lon="-7.714048968628049">
        <ele>51.57</ele>
        <time>2026-07-04T17:42:23Z</time>
      </trkpt>
      <trkpt lat="54.467634977772832" lon="-7.713938998058438">
        <ele>51.090000000000003</ele>
        <time>2026-07-04T17:42:24Z</time>
      </trkpt>
      <trkpt lat="54.468742981553078" lon="-7.712677018716931">
        <ele>51.090000000000003</ele>
        <time>2026-07-04T17:42:32Z</time>
      </trkpt>
      <trkpt lat="54.469736991450191" lon="-7.710764016956091">
        <ele>55.409999999999997</ele>
        <time>2026-07-04T17:42:40Z</time>
      </trkpt>
      <trkpt lat="54.470805013552308" lon="-7.70859201438725">
        <ele>58.780000000000001</ele>
        <time>2026-07-04T17:42:49Z</time>
      </trkpt>
      <trkpt lat="54.472119966521859" lon="-7.705993037670851">
        <ele>62.619999999999997</ele>
        <time>2026-07-04T17:43:01Z</time>
      </trkpt>
      <trkpt lat="54.473186982795596" lon="-7.703883983194828">
        <ele>66.469999999999999</ele>
        <time>2026-07-04T17:43:11Z</time>
      </trkpt>
      <trkpt lat="54.473948981612921" lon="-7.70238202996552">
        <ele>63.579999999999998</ele>
        <time>2026-07-04T17:43:19Z</time>
      </trkpt>
      <trkpt lat="54.475079029798508" lon="-7.700198963284493">
        <ele>63.100000000000001</ele>
        <time>2026-07-04T17:43:31Z</time>
      </trkpt>
      <trkpt lat="54.475560989230871" lon="-7.699314001947641">
        <ele>65.510000000000005</ele>
        <time>2026-07-04T17:43:36Z</time>
      </trkpt>
      <trkpt lat="54.475658973678946" lon="-7.699177041649818">
        <ele>65.989999999999995</ele>
        <time>2026-07-04T17:43:37Z</time>
      </trkpt>
      <trkpt lat="54.475765004754066" lon="-7.69905399531126">
        <ele>66.469999999999999</ele>
        <time>2026-07-04T17:43:38Z</time>
      </trkpt>
      <trkpt lat="54.475878998637199" lon="-7.698977971449494">
        <ele>66.950000000000003</ele>
        <time>2026-07-04T17:43:39Z</time>
      </trkpt>
      <trkpt lat="54.476001039147377" lon="-7.698951987549663">
        <ele>66.950000000000003</ele>
        <time>2026-07-04T17:43:40Z</time>
      </trkpt>
      <trkpt lat="54.476116038858891" lon="-7.698957016691566">
        <ele>66.950000000000003</ele>
        <time>2026-07-04T17:43:41Z</time>
      </trkpt>
      <trkpt lat="54.476234978064895" lon="-7.698962967842817">
        <ele>66.950000000000003</ele>
        <time>2026-07-04T17:43:42Z</time>
      </trkpt>
      <trkpt lat="54.476355006918311" lon="-7.69896799698472">
        <ele>66.950000000000003</ele>
        <time>2026-07-04T17:43:43Z</time>
      </trkpt>
      <trkpt lat="54.476966969668865" lon="-7.699237978085876">
        <ele>67.909999999999997</ele>
        <time>2026-07-04T17:43:48Z</time>
      </trkpt>
      <trkpt lat="54.478020993992686" lon="-7.700294014066458">
        <ele>70.310000000000002</ele>
        <time>2026-07-04T17:43:57Z</time>
      </trkpt>
      <trkpt lat="54.478115038946271" lon="-7.700456958264113">
        <ele>70.310000000000002</ele>
        <time>2026-07-04T17:43:58Z</time>
      </trkpt>
      <trkpt lat="54.478213023394346" lon="-7.700629960745573">
        <ele>70.310000000000002</ele>
        <time>2026-07-04T17:43:59Z</time>
      </trkpt>
      <trkpt lat="54.478318970650434" lon="-7.70081696100533">
        <ele>70.310000000000002</ele>
        <time>2026-07-04T17:44:00Z</time>
      </trkpt>
      <trkpt lat="54.478641003370285" lon="-7.701391959562898">
        <ele>68.870000000000005</ele>
        <time>2026-07-04T17:44:03Z</time>
      </trkpt>
      <trkpt lat="54.478748962283134" lon="-7.70158801227808">
        <ele>68.390000000000001</ele>
        <time>2026-07-04T17:44:04Z</time>
      </trkpt>
      <trkpt lat="54.479880016297102" lon="-7.703636968508363">
        <ele>62.619999999999997</ele>
        <time>2026-07-04T17:44:14Z</time>
      </trkpt>
      <trkpt lat="54.481094973161817" lon="-7.70547796972096">
        <ele>59.259999999999998</ele>
        <time>2026-07-04T17:44:23Z</time>
      </trkpt>
      <trkpt lat="54.482022011652589" lon="-7.706495029851794">
        <ele>57.82</ele>
        <time>2026-07-04T17:44:29Z</time>
      </trkpt>
      <trkpt lat="54.482936980202794" lon="-7.706817984580994">
        <ele>57.340000000000003</ele>
        <time>2026-07-04T17:44:34Z</time>
      </trkpt>
      <trkpt lat="54.484408004209399" lon="-7.70659402012825">
        <ele>55.890000000000001</ele>
        <time>2026-07-04T17:44:42Z</time>
      </trkpt>
      <trkpt lat="54.486011965200305" lon="-7.706339964643121">
        <ele>50.609999999999999</ele>
        <time>2026-07-04T17:44:51Z</time>
      </trkpt>
      <trkpt lat="54.486471964046359" lon="-7.706362009048462">
        <ele>50.130000000000003</ele>
        <time>2026-07-04T17:44:54Z</time>
      </trkpt>
      <trkpt lat="54.486638009548187" lon="-7.706393022090197">
        <ele>49.649999999999999</ele>
        <time>2026-07-04T17:44:55Z</time>
      </trkpt>
      <trkpt lat="54.48679399676621" lon="-7.706502992659807">
        <ele>49.649999999999999</ele>
        <time>2026-07-04T17:44:56Z</time>
      </trkpt>
      <trkpt lat="54.486949983984232" lon="-7.706612963229418">
        <ele>49.649999999999999</ele>
        <time>2026-07-04T17:44:57Z</time>
      </trkpt>
      <trkpt lat="54.487109994515777" lon="-7.706726035103202">
        <ele>49.649999999999999</ele>
        <time>2026-07-04T17:44:58Z</time>
      </trkpt>
      <trkpt lat="54.488609014078975" lon="-7.707838984206319">
        <ele>48.200000000000003</ele>
        <time>2026-07-04T17:45:07Z</time>
      </trkpt>
      <trkpt lat="54.489209996536374" lon="-7.708231005817652">
        <ele>47.719999999999999</ele>
        <time>2026-07-04T17:45:11Z</time>
      </trkpt>
      <trkpt lat="54.489362966269255" lon="-7.708299988880754">
        <ele>47.240000000000002</ele>
        <time>2026-07-04T17:45:12Z</time>
      </trkpt>
      <trkpt lat="54.489519037306309" lon="-7.708324966952205">
        <ele>47.240000000000002</ele>
        <time>2026-07-04T17:45:13Z</time>
      </trkpt>
      <trkpt lat="54.489666977897286" lon="-7.708251038566232">
        <ele>47.240000000000002</ele>
        <time>2026-07-04T17:45:14Z</time>
      </trkpt>
      <trkpt lat="54.489818019792438" lon="-7.708156993612647">
        <ele>47.719999999999999</ele>
        <time>2026-07-04T17:45:15Z</time>
      </trkpt>
      <trkpt lat="54.489973001182079" lon="-7.708061020821333">
        <ele>48.200000000000003</ele>
        <time>2026-07-04T17:45:16Z</time>
      </trkpt>
      <trkpt lat="54.49012597091496" lon="-7.707953983917832">
        <ele>48.68</ele>
        <time>2026-07-04T17:45:17Z</time>
      </trkpt>
      <trkpt lat="54.492159001529217" lon="-7.706311969086528">
        <ele>51.090000000000003</ele>
        <time>2026-07-04T17:45:29Z</time>
      </trkpt>
      <trkpt lat="54.495000969618559" lon="-7.704044999554753">
        <ele>52.530000000000001</ele>
        <time>2026-07-04T17:45:45Z</time>
      </trkpt>
      <trkpt lat="54.496780028566718" lon="-7.702692998573184">
        <ele>59.740000000000002</ele>
        <time>2026-07-04T17:45:56Z</time>
      </trkpt>
      <trkpt lat="54.496921012178063" lon="-7.702657962217927">
        <ele>60.219999999999999</ele>
        <time>2026-07-04T17:45:57Z</time>
      </trkpt>
      <trkpt lat="54.497057972475886" lon="-7.702623009681702">
        <ele>60.700000000000003</ele>
        <time>2026-07-04T17:45:58Z</time>
      </trkpt>
      <trkpt lat="54.49719401076436" lon="-7.702686041593552">
        <ele>61.18</ele>
        <time>2026-07-04T17:45:59Z</time>
      </trkpt>
      <trkpt lat="54.49732200242579" lon="-7.702762987464666">
        <ele>61.659999999999997</ele>
        <time>2026-07-04T17:46:00Z</time>
      </trkpt>
      <trkpt lat="54.497443037107587" lon="-7.702860971912742">
        <ele>62.140000000000001</ele>
        <time>2026-07-04T17:46:01Z</time>
      </trkpt>
      <trkpt lat="54.497556025162339" lon="-7.703000027686358">
        <ele>62.619999999999997</ele>
        <time>2026-07-04T17:46:02Z</time>
      </trkpt>
      <trkpt lat="54.49846101924777" lon="-7.704098979011178">
        <ele>65.989999999999995</ele>
        <time>2026-07-04T17:46:09Z</time>
      </trkpt>
      <trkpt lat="54.499772032722831" lon="-7.705346960574389">
        <ele>64.549999999999997</ele>
        <time>2026-07-04T17:46:18Z</time>
      </trkpt>
      <trkpt lat="54.501269040629268" lon="-7.706081969663501">
        <ele>60.219999999999999</ele>
        <time>2026-07-04T17:46:27Z</time>
      </trkpt>
      <trkpt lat="54.502621963620186" lon="-7.70667901262641">
        <ele>59.740000000000002</ele>
        <time>2026-07-04T17:46:35Z</time>
      </trkpt>
      <trkpt lat="54.502791026607156" lon="-7.706754030659795">
        <ele>59.259999999999998</ele>
        <time>2026-07-04T17:46:36Z</time>
      </trkpt>
      <trkpt lat="54.502960005775094" lon="-7.706827959045768">
        <ele>59.259999999999998</ele>
        <time>2026-07-04T17:46:37Z</time>
      </trkpt>
      <trkpt lat="54.504563966766" lon="-7.707536984235048">
        <ele>59.740000000000002</ele>
        <time>2026-07-04T17:46:46Z</time>
      </trkpt>
      <trkpt lat="54.506544023752213" lon="-7.708509033545852">
        <ele>61.659999999999997</ele>
        <time>2026-07-04T17:46:57Z</time>
      </trkpt>
      <trkpt lat="54.507081974297762" lon="-7.708817990496755">
        <ele>62.140000000000001</ele>
        <time>2026-07-04T17:47:00Z</time>
      </trkpt>
      <trkpt lat="54.508954994380474" lon="-7.709894981235266">
        <ele>58.780000000000001</ele>
        <time>2026-07-04T17:47:10Z</time>
      </trkpt>
      <trkpt lat="54.510636990889907" lon="-7.710968032479286">
        <ele>59.259999999999998</ele>
        <time>2026-07-04T17:47:20Z</time>
      </trkpt>
      <trkpt lat="54.512225026264787" lon="-7.712249960750341">
        <ele>57.340000000000003</ele>
        <time>2026-07-04T17:47:32Z</time>
      </trkpt>
      <trkpt lat="54.51334803365171" lon="-7.713262997567654">
        <ele>55.890000000000001</ele>
        <time>2026-07-04T17:47:42Z</time>
      </trkpt>
      <trkpt lat="54.513643998652697" lon="-7.713569020852447">
        <ele>56.859999999999999</ele>
        <time>2026-07-04T17:47:48Z</time>
      </trkpt>
      <trkpt lat="54.513657996430993" lon="-7.713584024459124">
        <ele>56.859999999999999</ele>
        <time>2026-07-04T17:47:49Z</time>
      </trkpt>
      <trkpt lat="54.513668976724148" lon="-7.713595004752278">
        <ele>57.340000000000003</ele>
        <time>2026-07-04T17:47:50Z</time>
      </trkpt>
      <trkpt lat="54.513680962845683" lon="-7.713607996702194">
        <ele>57.340000000000003</ele>
        <time>2026-07-04T17:47:51Z</time>
      </trkpt>
      <trkpt lat="54.513707030564547" lon="-7.713633980602026">
        <ele>58.299999999999997</ele>
        <time>2026-07-04T17:48:01Z</time>
      </trkpt>
      <trkpt lat="54.513723039999604" lon="-7.713650995865464">
        <ele>58.299999999999997</ele>
        <time>2026-07-04T17:48:02Z</time>
      </trkpt>
      <trkpt lat="54.513740977272391" lon="-7.713669016957283">
        <ele>58.299999999999997</ele>
        <time>2026-07-04T17:48:03Z</time>
      </trkpt>
      <trkpt lat="54.513791017234325" lon="-7.713720984756947">
        <ele>58.299999999999997</ele>
        <time>2026-07-04T17:48:05Z</time>
      </trkpt>
      <trkpt lat="54.513828987255692" lon="-7.713760966435075">
        <ele>58.299999999999997</ele>
        <time>2026-07-04T17:48:06Z</time>
      </trkpt>
      <trkpt lat="54.513915991410613" lon="-7.713850988075137">
        <ele>58.780000000000001</ele>
        <time>2026-07-04T17:48:09Z</time>
      </trkpt>
      <trkpt lat="54.513927977532148" lon="-7.713862974196672">
        <ele>58.780000000000001</ele>
        <time>2026-07-04T17:48:10Z</time>
      </trkpt>
      <trkpt lat="54.514041971415281" lon="-7.713673040270805">
        <ele>58.780000000000001</ele>
        <time>2026-07-04T17:48:21Z</time>
      </trkpt>
      <trkpt lat="54.514027973636985" lon="-7.713673962280154">
        <ele>58.780000000000001</ele>
        <time>2026-07-04T17:48:35Z</time>
      </trkpt>
      <trkpt lat="54.514017999172211" lon="-7.713659964501858">
        <ele>58.299999999999997</ele>
        <time>2026-07-04T17:49:29Z</time>
      </trkpt>
    </trkseg>
  </trk>

</gpx>